<?xml version="1.0" encoding="UTF-8" standalone="no" ?>
<gpx xmlns="http://www.topografix.com/GPX/1/1" xmlns:xsi="http://www.w3.org/2001/XMLSchema-instance" xsi:schemaLocation="http://www.topografix.com/GPX/1/1 http://www.topografix.com/GPX/1/1/gpx.xsd" version="1.1" creator="VisuGPX - https://www.visugpx.com">
  <metadata>
    <name>Grand Père au Belvédère</name>
    <desc><![CDATA[Grand Père au Belvédère]]></desc>
  </metadata>
  <wpt lat="47.5179" lon="6.77489">
    <ele>388</ele>
    <name><![CDATA[Point de cheminement 1]]></name>
    <desc><![CDATA[]]></desc>
  </wpt>
  <wpt lat="47.49176" lon="6.76494">
    <ele>315</ele>
    <name><![CDATA[Point de cheminement 2]]></name>
    <desc><![CDATA[]]></desc>
  </wpt>
  <wpt lat="47.47686" lon="6.78157">
    <ele>329</ele>
    <name><![CDATA[Point de cheminement 3]]></name>
    <desc><![CDATA[]]></desc>
  </wpt>
  <wpt lat="47.46539" lon="6.7838">
    <ele>388</ele>
    <name><![CDATA[Point de cheminement 4]]></name>
    <desc><![CDATA[]]></desc>
  </wpt>
  <wpt lat="47.44751" lon="6.79972">
    <ele>357</ele>
    <name><![CDATA[Point de cheminement 5]]></name>
    <desc><![CDATA[]]></desc>
  </wpt>
  <wpt lat="47.43817" lon="6.79517">
    <ele>470</ele>
    <name><![CDATA[Point de cheminement 6]]></name>
    <desc><![CDATA[]]></desc>
  </wpt>
  <wpt lat="47.42596" lon="6.79851">
    <ele>502</ele>
    <name><![CDATA[Point de cheminement 7]]></name>
    <desc><![CDATA[]]></desc>
  </wpt>
  <wpt lat="47.43253" lon="6.81645">
    <ele>435</ele>
    <name><![CDATA[Point de cheminement 8]]></name>
    <desc><![CDATA[]]></desc>
  </wpt>
  <wpt lat="47.43374" lon="6.81728">
    <ele>419</ele>
    <name><![CDATA[Point de cheminement 9]]></name>
    <desc><![CDATA[]]></desc>
  </wpt>
  <wpt lat="47.43928" lon="6.81056">
    <ele>378</ele>
    <name><![CDATA[Point de cheminement 10]]></name>
    <desc><![CDATA[]]></desc>
  </wpt>
  <wpt lat="47.45485" lon="6.78742">
    <ele>335</ele>
    <name><![CDATA[Point de cheminement 11]]></name>
    <desc><![CDATA[]]></desc>
  </wpt>
  <wpt lat="47.4678" lon="6.77808">
    <ele>362</ele>
    <name><![CDATA[Point de cheminement 12]]></name>
    <desc><![CDATA[]]></desc>
  </wpt>
  <wpt lat="47.49183" lon="6.7734">
    <ele>310</ele>
    <name><![CDATA[Point de cheminement 13]]></name>
    <desc><![CDATA[]]></desc>
  </wpt>
  <wpt lat="47.51733" lon="6.77485">
    <ele>389</ele>
    <name><![CDATA[Point de cheminement 14]]></name>
    <desc><![CDATA[]]></desc>
  </wpt>
  <trk>
    <name><![CDATA[13/03/2016 9:06]]></name>
    <desc><![CDATA[]]></desc>
    <trkseg>
      <trkpt lat="47.51807" lon="6.77482">
        <ele>388</ele>
        <time>2016-03-13T08:06:59.622Z</time>
      </trkpt>
      <trkpt lat="47.51806" lon="6.77463">
        <ele>388</ele>
        <time>2016-03-13T08:07:00.000Z</time>
      </trkpt>
      <trkpt lat="47.51804" lon="6.77465">
        <ele>388</ele>
        <time>2016-03-13T08:15:16.000Z</time>
      </trkpt>
      <trkpt lat="47.518" lon="6.77464">
        <ele>388</ele>
        <time>2016-03-13T08:15:17.000Z</time>
      </trkpt>
      <trkpt lat="47.518" lon="6.77469">
        <ele>388</ele>
        <time>2016-03-13T08:16:57.000Z</time>
      </trkpt>
      <trkpt lat="47.51798" lon="6.77472">
        <ele>388</ele>
        <time>2016-03-13T08:16:58.000Z</time>
      </trkpt>
      <trkpt lat="47.51801" lon="6.77476">
        <ele>388</ele>
        <time>2016-03-13T08:18:12.000Z</time>
      </trkpt>
      <trkpt lat="47.51802" lon="6.77475">
        <ele>388</ele>
        <time>2016-03-13T08:18:13.000Z</time>
      </trkpt>
      <trkpt lat="47.51798" lon="6.77475">
        <ele>388</ele>
        <time>2016-03-13T08:18:17.000Z</time>
      </trkpt>
      <trkpt lat="47.51797" lon="6.77477">
        <ele>388</ele>
        <time>2016-03-13T08:18:18.000Z</time>
      </trkpt>
      <trkpt lat="47.51799" lon="6.7748">
        <ele>388</ele>
        <time>2016-03-13T08:21:10.000Z</time>
      </trkpt>
      <trkpt lat="47.51801" lon="6.77483">
        <ele>388</ele>
        <time>2016-03-13T08:21:11.000Z</time>
      </trkpt>
      <trkpt lat="47.51802" lon="6.77487">
        <ele>388</ele>
        <time>2016-03-13T08:21:12.000Z</time>
      </trkpt>
      <trkpt lat="47.51803" lon="6.7749">
        <ele>388</ele>
        <time>2016-03-13T08:21:13.000Z</time>
      </trkpt>
      <trkpt lat="47.51799" lon="6.77493">
        <ele>388</ele>
        <time>2016-03-13T08:21:15.000Z</time>
      </trkpt>
      <trkpt lat="47.51796" lon="6.77493">
        <ele>388</ele>
        <time>2016-03-13T08:21:16.000Z</time>
      </trkpt>
      <trkpt lat="47.51793" lon="6.77491">
        <ele>388</ele>
        <time>2016-03-13T08:21:17.000Z</time>
      </trkpt>
      <trkpt lat="47.5179" lon="6.77489">
        <ele>388</ele>
        <time>2016-03-13T08:21:18.000Z</time>
      </trkpt>
      <trkpt lat="47.51786" lon="6.77487">
        <ele>388</ele>
        <time>2016-03-13T08:21:19.000Z</time>
      </trkpt>
      <trkpt lat="47.51783" lon="6.77485">
        <ele>388</ele>
        <time>2016-03-13T08:21:20.000Z</time>
      </trkpt>
      <trkpt lat="47.51779" lon="6.77482">
        <ele>388</ele>
        <time>2016-03-13T08:21:21.000Z</time>
      </trkpt>
      <trkpt lat="47.51776" lon="6.77481">
        <ele>388</ele>
        <time>2016-03-13T08:21:22.000Z</time>
      </trkpt>
      <trkpt lat="47.51772" lon="6.77479">
        <ele>388</ele>
        <time>2016-03-13T08:21:23.000Z</time>
      </trkpt>
      <trkpt lat="47.51768" lon="6.77478">
        <ele>388</ele>
        <time>2016-03-13T08:21:24.000Z</time>
      </trkpt>
      <trkpt lat="47.51764" lon="6.77478">
        <ele>389</ele>
        <time>2016-03-13T08:21:25.000Z</time>
      </trkpt>
      <trkpt lat="47.51761" lon="6.77477">
        <ele>389</ele>
        <time>2016-03-13T08:21:26.000Z</time>
      </trkpt>
      <trkpt lat="47.51757" lon="6.77477">
        <ele>389</ele>
        <time>2016-03-13T08:21:27.000Z</time>
      </trkpt>
      <trkpt lat="47.51753" lon="6.77477">
        <ele>389</ele>
        <time>2016-03-13T08:21:28.000Z</time>
      </trkpt>
      <trkpt lat="47.51749" lon="6.77476">
        <ele>389</ele>
        <time>2016-03-13T08:21:29.000Z</time>
      </trkpt>
      <trkpt lat="47.51744" lon="6.77475">
        <ele>389</ele>
        <time>2016-03-13T08:21:30.000Z</time>
      </trkpt>
      <trkpt lat="47.5174" lon="6.77474">
        <ele>389</ele>
        <time>2016-03-13T08:21:31.000Z</time>
      </trkpt>
      <trkpt lat="47.51736" lon="6.77473">
        <ele>389</ele>
        <time>2016-03-13T08:21:32.000Z</time>
      </trkpt>
      <trkpt lat="47.51731" lon="6.7748">
        <ele>389</ele>
        <time>2016-03-13T08:21:33.000Z</time>
      </trkpt>
      <trkpt lat="47.51728" lon="6.77485">
        <ele>389</ele>
        <time>2016-03-13T08:21:34.000Z</time>
      </trkpt>
      <trkpt lat="47.51725" lon="6.7749">
        <ele>389</ele>
        <time>2016-03-13T08:21:35.000Z</time>
      </trkpt>
      <trkpt lat="47.51724" lon="6.77496">
        <ele>389</ele>
        <time>2016-03-13T08:21:36.000Z</time>
      </trkpt>
      <trkpt lat="47.51723" lon="6.77502">
        <ele>390</ele>
        <time>2016-03-13T08:21:37.000Z</time>
      </trkpt>
      <trkpt lat="47.51722" lon="6.77508">
        <ele>390</ele>
        <time>2016-03-13T08:21:38.000Z</time>
      </trkpt>
      <trkpt lat="47.51721" lon="6.77514">
        <ele>390</ele>
        <time>2016-03-13T08:21:39.000Z</time>
      </trkpt>
      <trkpt lat="47.5172" lon="6.77521">
        <ele>390</ele>
        <time>2016-03-13T08:21:40.000Z</time>
      </trkpt>
      <trkpt lat="47.51718" lon="6.77527">
        <ele>390</ele>
        <time>2016-03-13T08:21:41.000Z</time>
      </trkpt>
      <trkpt lat="47.51717" lon="6.77533">
        <ele>390</ele>
        <time>2016-03-13T08:21:42.000Z</time>
      </trkpt>
      <trkpt lat="47.51715" lon="6.77538">
        <ele>390</ele>
        <time>2016-03-13T08:21:43.000Z</time>
      </trkpt>
      <trkpt lat="47.51713" lon="6.77542">
        <ele>390</ele>
        <time>2016-03-13T08:21:44.000Z</time>
      </trkpt>
      <trkpt lat="47.51711" lon="6.77545">
        <ele>390</ele>
        <time>2016-03-13T08:21:45.000Z</time>
      </trkpt>
      <trkpt lat="47.51708" lon="6.77547">
        <ele>390</ele>
        <time>2016-03-13T08:21:46.000Z</time>
      </trkpt>
      <trkpt lat="47.51704" lon="6.77542">
        <ele>390</ele>
        <time>2016-03-13T08:21:47.000Z</time>
      </trkpt>
      <trkpt lat="47.517" lon="6.77539">
        <ele>390</ele>
        <time>2016-03-13T08:21:48.000Z</time>
      </trkpt>
      <trkpt lat="47.51697" lon="6.77534">
        <ele>390</ele>
        <time>2016-03-13T08:21:49.000Z</time>
      </trkpt>
      <trkpt lat="47.51693" lon="6.77529">
        <ele>390</ele>
        <time>2016-03-13T08:21:50.000Z</time>
      </trkpt>
      <trkpt lat="47.51689" lon="6.77525">
        <ele>390</ele>
        <time>2016-03-13T08:21:51.000Z</time>
      </trkpt>
      <trkpt lat="47.51685" lon="6.77519">
        <ele>390</ele>
        <time>2016-03-13T08:21:52.000Z</time>
      </trkpt>
      <trkpt lat="47.51681" lon="6.77514">
        <ele>390</ele>
        <time>2016-03-13T08:21:53.000Z</time>
      </trkpt>
      <trkpt lat="47.51676" lon="6.77507">
        <ele>389</ele>
        <time>2016-03-13T08:21:54.000Z</time>
      </trkpt>
      <trkpt lat="47.51671" lon="6.77501">
        <ele>389</ele>
        <time>2016-03-13T08:21:55.000Z</time>
      </trkpt>
      <trkpt lat="47.51666" lon="6.77495">
        <ele>388</ele>
        <time>2016-03-13T08:21:56.000Z</time>
      </trkpt>
      <trkpt lat="47.51661" lon="6.77488">
        <ele>388</ele>
        <time>2016-03-13T08:21:57.000Z</time>
      </trkpt>
      <trkpt lat="47.51655" lon="6.77481">
        <ele>387</ele>
        <time>2016-03-13T08:21:58.000Z</time>
      </trkpt>
      <trkpt lat="47.5165" lon="6.77475">
        <ele>387</ele>
        <time>2016-03-13T08:21:59.000Z</time>
      </trkpt>
      <trkpt lat="47.51645" lon="6.77468">
        <ele>386</ele>
        <time>2016-03-13T08:22:00.000Z</time>
      </trkpt>
      <trkpt lat="47.51639" lon="6.77461">
        <ele>386</ele>
        <time>2016-03-13T08:22:01.000Z</time>
      </trkpt>
      <trkpt lat="47.51633" lon="6.77454">
        <ele>386</ele>
        <time>2016-03-13T08:22:02.000Z</time>
      </trkpt>
      <trkpt lat="47.51628" lon="6.77447">
        <ele>386</ele>
        <time>2016-03-13T08:22:03.000Z</time>
      </trkpt>
      <trkpt lat="47.51622" lon="6.77441">
        <ele>385</ele>
        <time>2016-03-13T08:22:04.000Z</time>
      </trkpt>
      <trkpt lat="47.51616" lon="6.77434">
        <ele>385</ele>
        <time>2016-03-13T08:22:05.000Z</time>
      </trkpt>
      <trkpt lat="47.5161" lon="6.77427">
        <ele>385</ele>
        <time>2016-03-13T08:22:06.000Z</time>
      </trkpt>
      <trkpt lat="47.51604" lon="6.77419">
        <ele>385</ele>
        <time>2016-03-13T08:22:07.000Z</time>
      </trkpt>
      <trkpt lat="47.51599" lon="6.77411">
        <ele>383</ele>
        <time>2016-03-13T08:22:08.000Z</time>
      </trkpt>
      <trkpt lat="47.51593" lon="6.77403">
        <ele>383</ele>
        <time>2016-03-13T08:22:09.000Z</time>
      </trkpt>
      <trkpt lat="47.51587" lon="6.77395">
        <ele>383</ele>
        <time>2016-03-13T08:22:10.000Z</time>
      </trkpt>
      <trkpt lat="47.51581" lon="6.77388">
        <ele>381</ele>
        <time>2016-03-13T08:22:11.000Z</time>
      </trkpt>
      <trkpt lat="47.51574" lon="6.77381">
        <ele>381</ele>
        <time>2016-03-13T08:22:12.000Z</time>
      </trkpt>
      <trkpt lat="47.51567" lon="6.77374">
        <ele>381</ele>
        <time>2016-03-13T08:22:13.000Z</time>
      </trkpt>
      <trkpt lat="47.5156" lon="6.77368">
        <ele>381</ele>
        <time>2016-03-13T08:22:14.000Z</time>
      </trkpt>
      <trkpt lat="47.51555" lon="6.7736">
        <ele>381</ele>
        <time>2016-03-13T08:22:15.000Z</time>
      </trkpt>
      <trkpt lat="47.51548" lon="6.77353">
        <ele>380</ele>
        <time>2016-03-13T08:22:16.000Z</time>
      </trkpt>
      <trkpt lat="47.51542" lon="6.77346">
        <ele>380</ele>
        <time>2016-03-13T08:22:17.000Z</time>
      </trkpt>
      <trkpt lat="47.51535" lon="6.77338">
        <ele>380</ele>
        <time>2016-03-13T08:22:18.000Z</time>
      </trkpt>
      <trkpt lat="47.51528" lon="6.77331">
        <ele>379</ele>
        <time>2016-03-13T08:22:19.000Z</time>
      </trkpt>
      <trkpt lat="47.51522" lon="6.77324">
        <ele>378</ele>
        <time>2016-03-13T08:22:20.000Z</time>
      </trkpt>
      <trkpt lat="47.51515" lon="6.77315">
        <ele>378</ele>
        <time>2016-03-13T08:22:21.000Z</time>
      </trkpt>
      <trkpt lat="47.51508" lon="6.77306">
        <ele>378</ele>
        <time>2016-03-13T08:22:22.000Z</time>
      </trkpt>
      <trkpt lat="47.51502" lon="6.77295">
        <ele>378</ele>
        <time>2016-03-13T08:22:23.000Z</time>
      </trkpt>
      <trkpt lat="47.51497" lon="6.77284">
        <ele>377</ele>
        <time>2016-03-13T08:22:24.000Z</time>
      </trkpt>
      <trkpt lat="47.51492" lon="6.77271">
        <ele>377</ele>
        <time>2016-03-13T08:22:25.000Z</time>
      </trkpt>
      <trkpt lat="47.51493" lon="6.77258">
        <ele>376</ele>
        <time>2016-03-13T08:22:26.000Z</time>
      </trkpt>
      <trkpt lat="47.51492" lon="6.77245">
        <ele>376</ele>
        <time>2016-03-13T08:22:27.000Z</time>
      </trkpt>
      <trkpt lat="47.5149" lon="6.77232">
        <ele>375</ele>
        <time>2016-03-13T08:22:28.000Z</time>
      </trkpt>
      <trkpt lat="47.51489" lon="6.77221">
        <ele>375</ele>
        <time>2016-03-13T08:22:29.000Z</time>
      </trkpt>
      <trkpt lat="47.51489" lon="6.77211">
        <ele>375</ele>
        <time>2016-03-13T08:22:30.000Z</time>
      </trkpt>
      <trkpt lat="47.51486" lon="6.77202">
        <ele>375</ele>
        <time>2016-03-13T08:22:31.000Z</time>
      </trkpt>
      <trkpt lat="47.51482" lon="6.77196">
        <ele>375</ele>
        <time>2016-03-13T08:22:32.000Z</time>
      </trkpt>
      <trkpt lat="47.51477" lon="6.77193">
        <ele>375</ele>
        <time>2016-03-13T08:22:33.000Z</time>
      </trkpt>
      <trkpt lat="47.51468" lon="6.77196">
        <ele>375</ele>
        <time>2016-03-13T08:22:34.000Z</time>
      </trkpt>
      <trkpt lat="47.51461" lon="6.77197">
        <ele>375</ele>
        <time>2016-03-13T08:22:35.000Z</time>
      </trkpt>
      <trkpt lat="47.51453" lon="6.77202">
        <ele>375</ele>
        <time>2016-03-13T08:22:36.000Z</time>
      </trkpt>
      <trkpt lat="47.51445" lon="6.77206">
        <ele>375</ele>
        <time>2016-03-13T08:22:37.000Z</time>
      </trkpt>
      <trkpt lat="47.51438" lon="6.77211">
        <ele>375</ele>
        <time>2016-03-13T08:22:38.000Z</time>
      </trkpt>
      <trkpt lat="47.51431" lon="6.77214">
        <ele>375</ele>
        <time>2016-03-13T08:22:39.000Z</time>
      </trkpt>
      <trkpt lat="47.51423" lon="6.77217">
        <ele>375</ele>
        <time>2016-03-13T08:22:40.000Z</time>
      </trkpt>
      <trkpt lat="47.51417" lon="6.7722">
        <ele>375</ele>
        <time>2016-03-13T08:22:41.000Z</time>
      </trkpt>
      <trkpt lat="47.5141" lon="6.77223">
        <ele>376</ele>
        <time>2016-03-13T08:22:42.000Z</time>
      </trkpt>
      <trkpt lat="47.51405" lon="6.77226">
        <ele>376</ele>
        <time>2016-03-13T08:22:43.000Z</time>
      </trkpt>
      <trkpt lat="47.51399" lon="6.77229">
        <ele>376</ele>
        <time>2016-03-13T08:22:44.000Z</time>
      </trkpt>
      <trkpt lat="47.51394" lon="6.77232">
        <ele>376</ele>
        <time>2016-03-13T08:22:45.000Z</time>
      </trkpt>
      <trkpt lat="47.51389" lon="6.77235">
        <ele>376</ele>
        <time>2016-03-13T08:22:46.000Z</time>
      </trkpt>
      <trkpt lat="47.51384" lon="6.77238">
        <ele>376</ele>
        <time>2016-03-13T08:22:47.000Z</time>
      </trkpt>
      <trkpt lat="47.5138" lon="6.77241">
        <ele>376</ele>
        <time>2016-03-13T08:22:48.000Z</time>
      </trkpt>
      <trkpt lat="47.51375" lon="6.77243">
        <ele>376</ele>
        <time>2016-03-13T08:22:49.000Z</time>
      </trkpt>
      <trkpt lat="47.51372" lon="6.77246">
        <ele>376</ele>
        <time>2016-03-13T08:22:50.000Z</time>
      </trkpt>
      <trkpt lat="47.51368" lon="6.77249">
        <ele>376</ele>
        <time>2016-03-13T08:22:51.000Z</time>
      </trkpt>
      <trkpt lat="47.51364" lon="6.77251">
        <ele>378</ele>
        <time>2016-03-13T08:22:52.000Z</time>
      </trkpt>
      <trkpt lat="47.51361" lon="6.77254">
        <ele>378</ele>
        <time>2016-03-13T08:22:53.000Z</time>
      </trkpt>
      <trkpt lat="47.51358" lon="6.77257">
        <ele>378</ele>
        <time>2016-03-13T08:22:54.000Z</time>
      </trkpt>
      <trkpt lat="47.51355" lon="6.7726">
        <ele>378</ele>
        <time>2016-03-13T08:22:55.000Z</time>
      </trkpt>
      <trkpt lat="47.51351" lon="6.77263">
        <ele>378</ele>
        <time>2016-03-13T08:22:56.000Z</time>
      </trkpt>
      <trkpt lat="47.51348" lon="6.77264">
        <ele>378</ele>
        <time>2016-03-13T08:22:57.000Z</time>
      </trkpt>
      <trkpt lat="47.51345" lon="6.77267">
        <ele>378</ele>
        <time>2016-03-13T08:22:58.000Z</time>
      </trkpt>
      <trkpt lat="47.51342" lon="6.77269">
        <ele>378</ele>
        <time>2016-03-13T08:22:59.000Z</time>
      </trkpt>
      <trkpt lat="47.51339" lon="6.77271">
        <ele>378</ele>
        <time>2016-03-13T08:23:00.000Z</time>
      </trkpt>
      <trkpt lat="47.51336" lon="6.77273">
        <ele>378</ele>
        <time>2016-03-13T08:23:01.000Z</time>
      </trkpt>
      <trkpt lat="47.51333" lon="6.77275">
        <ele>377</ele>
        <time>2016-03-13T08:23:02.000Z</time>
      </trkpt>
      <trkpt lat="47.51327" lon="6.77273">
        <ele>377</ele>
        <time>2016-03-13T08:23:03.000Z</time>
      </trkpt>
      <trkpt lat="47.51324" lon="6.77274">
        <ele>377</ele>
        <time>2016-03-13T08:23:04.000Z</time>
      </trkpt>
      <trkpt lat="47.51321" lon="6.77274">
        <ele>377</ele>
        <time>2016-03-13T08:23:05.000Z</time>
      </trkpt>
      <trkpt lat="47.51318" lon="6.77274">
        <ele>377</ele>
        <time>2016-03-13T08:23:06.000Z</time>
      </trkpt>
      <trkpt lat="47.51315" lon="6.77273">
        <ele>377</ele>
        <time>2016-03-13T08:23:07.000Z</time>
      </trkpt>
      <trkpt lat="47.51312" lon="6.77272">
        <ele>377</ele>
        <time>2016-03-13T08:23:08.000Z</time>
      </trkpt>
      <trkpt lat="47.51308" lon="6.77271">
        <ele>377</ele>
        <time>2016-03-13T08:23:09.000Z</time>
      </trkpt>
      <trkpt lat="47.51305" lon="6.7727">
        <ele>377</ele>
        <time>2016-03-13T08:23:10.000Z</time>
      </trkpt>
      <trkpt lat="47.51301" lon="6.77269">
        <ele>377</ele>
        <time>2016-03-13T08:23:11.000Z</time>
      </trkpt>
      <trkpt lat="47.51297" lon="6.77267">
        <ele>377</ele>
        <time>2016-03-13T08:23:12.000Z</time>
      </trkpt>
      <trkpt lat="47.51294" lon="6.77265">
        <ele>377</ele>
        <time>2016-03-13T08:23:13.000Z</time>
      </trkpt>
      <trkpt lat="47.5129" lon="6.77264">
        <ele>377</ele>
        <time>2016-03-13T08:23:14.000Z</time>
      </trkpt>
      <trkpt lat="47.51287" lon="6.77262">
        <ele>377</ele>
        <time>2016-03-13T08:23:15.000Z</time>
      </trkpt>
      <trkpt lat="47.51284" lon="6.7726">
        <ele>377</ele>
        <time>2016-03-13T08:23:16.000Z</time>
      </trkpt>
      <trkpt lat="47.51281" lon="6.77259">
        <ele>377</ele>
        <time>2016-03-13T08:23:17.000Z</time>
      </trkpt>
      <trkpt lat="47.51278" lon="6.77256">
        <ele>377</ele>
        <time>2016-03-13T08:23:18.000Z</time>
      </trkpt>
      <trkpt lat="47.51276" lon="6.77253">
        <ele>377</ele>
        <time>2016-03-13T08:23:19.000Z</time>
      </trkpt>
      <trkpt lat="47.51273" lon="6.7725">
        <ele>378</ele>
        <time>2016-03-13T08:23:20.000Z</time>
      </trkpt>
      <trkpt lat="47.51271" lon="6.77248">
        <ele>378</ele>
        <time>2016-03-13T08:23:21.000Z</time>
      </trkpt>
      <trkpt lat="47.51267" lon="6.77243">
        <ele>378</ele>
        <time>2016-03-13T08:23:22.000Z</time>
      </trkpt>
      <trkpt lat="47.51264" lon="6.77239">
        <ele>378</ele>
        <time>2016-03-13T08:23:23.000Z</time>
      </trkpt>
      <trkpt lat="47.51261" lon="6.77234">
        <ele>378</ele>
        <time>2016-03-13T08:23:24.000Z</time>
      </trkpt>
      <trkpt lat="47.51258" lon="6.77229">
        <ele>378</ele>
        <time>2016-03-13T08:23:25.000Z</time>
      </trkpt>
      <trkpt lat="47.51255" lon="6.77223">
        <ele>378</ele>
        <time>2016-03-13T08:23:26.000Z</time>
      </trkpt>
      <trkpt lat="47.51252" lon="6.77217">
        <ele>378</ele>
        <time>2016-03-13T08:23:27.000Z</time>
      </trkpt>
      <trkpt lat="47.51248" lon="6.77211">
        <ele>376</ele>
        <time>2016-03-13T08:23:28.000Z</time>
      </trkpt>
      <trkpt lat="47.51244" lon="6.77204">
        <ele>376</ele>
        <time>2016-03-13T08:23:29.000Z</time>
      </trkpt>
      <trkpt lat="47.51241" lon="6.77198">
        <ele>376</ele>
        <time>2016-03-13T08:23:30.000Z</time>
      </trkpt>
      <trkpt lat="47.51239" lon="6.77191">
        <ele>377</ele>
        <time>2016-03-13T08:23:31.000Z</time>
      </trkpt>
      <trkpt lat="47.51235" lon="6.77185">
        <ele>377</ele>
        <time>2016-03-13T08:23:32.000Z</time>
      </trkpt>
      <trkpt lat="47.51232" lon="6.77177">
        <ele>377</ele>
        <time>2016-03-13T08:23:33.000Z</time>
      </trkpt>
      <trkpt lat="47.51228" lon="6.7717">
        <ele>377</ele>
        <time>2016-03-13T08:23:34.000Z</time>
      </trkpt>
      <trkpt lat="47.51225" lon="6.77162">
        <ele>378</ele>
        <time>2016-03-13T08:23:35.000Z</time>
      </trkpt>
      <trkpt lat="47.51221" lon="6.77155">
        <ele>378</ele>
        <time>2016-03-13T08:23:36.000Z</time>
      </trkpt>
      <trkpt lat="47.51217" lon="6.77148">
        <ele>378</ele>
        <time>2016-03-13T08:23:37.000Z</time>
      </trkpt>
      <trkpt lat="47.51213" lon="6.77141">
        <ele>378</ele>
        <time>2016-03-13T08:23:38.000Z</time>
      </trkpt>
      <trkpt lat="47.51209" lon="6.77132">
        <ele>378</ele>
        <time>2016-03-13T08:23:39.000Z</time>
      </trkpt>
      <trkpt lat="47.51205" lon="6.77124">
        <ele>378</ele>
        <time>2016-03-13T08:23:40.000Z</time>
      </trkpt>
      <trkpt lat="47.51198" lon="6.77115">
        <ele>377</ele>
        <time>2016-03-13T08:23:41.000Z</time>
      </trkpt>
      <trkpt lat="47.51193" lon="6.77107">
        <ele>377</ele>
        <time>2016-03-13T08:23:42.000Z</time>
      </trkpt>
      <trkpt lat="47.51188" lon="6.77098">
        <ele>378</ele>
        <time>2016-03-13T08:23:43.000Z</time>
      </trkpt>
      <trkpt lat="47.51184" lon="6.77089">
        <ele>378</ele>
        <time>2016-03-13T08:23:44.000Z</time>
      </trkpt>
      <trkpt lat="47.5118" lon="6.77081">
        <ele>377</ele>
        <time>2016-03-13T08:23:45.000Z</time>
      </trkpt>
      <trkpt lat="47.51173" lon="6.77072">
        <ele>377</ele>
        <time>2016-03-13T08:23:46.000Z</time>
      </trkpt>
      <trkpt lat="47.51168" lon="6.77064">
        <ele>376</ele>
        <time>2016-03-13T08:23:47.000Z</time>
      </trkpt>
      <trkpt lat="47.51161" lon="6.77057">
        <ele>376</ele>
        <time>2016-03-13T08:23:48.000Z</time>
      </trkpt>
      <trkpt lat="47.51156" lon="6.77051">
        <ele>376</ele>
        <time>2016-03-13T08:23:49.000Z</time>
      </trkpt>
      <trkpt lat="47.5115" lon="6.77045">
        <ele>376</ele>
        <time>2016-03-13T08:23:50.000Z</time>
      </trkpt>
      <trkpt lat="47.51142" lon="6.77039">
        <ele>375</ele>
        <time>2016-03-13T08:23:51.000Z</time>
      </trkpt>
      <trkpt lat="47.51136" lon="6.77034">
        <ele>375</ele>
        <time>2016-03-13T08:23:52.000Z</time>
      </trkpt>
      <trkpt lat="47.51132" lon="6.77027">
        <ele>375</ele>
        <time>2016-03-13T08:23:53.000Z</time>
      </trkpt>
      <trkpt lat="47.51124" lon="6.77021">
        <ele>375</ele>
        <time>2016-03-13T08:23:54.000Z</time>
      </trkpt>
      <trkpt lat="47.51116" lon="6.77016">
        <ele>375</ele>
        <time>2016-03-13T08:23:55.000Z</time>
      </trkpt>
      <trkpt lat="47.5111" lon="6.7701">
        <ele>375</ele>
        <time>2016-03-13T08:23:56.000Z</time>
      </trkpt>
      <trkpt lat="47.51102" lon="6.77005">
        <ele>375</ele>
        <time>2016-03-13T08:23:57.000Z</time>
      </trkpt>
      <trkpt lat="47.51095" lon="6.76999">
        <ele>375</ele>
        <time>2016-03-13T08:23:58.000Z</time>
      </trkpt>
      <trkpt lat="47.51088" lon="6.76993">
        <ele>375</ele>
        <time>2016-03-13T08:23:59.000Z</time>
      </trkpt>
      <trkpt lat="47.51082" lon="6.76987">
        <ele>375</ele>
        <time>2016-03-13T08:24:00.000Z</time>
      </trkpt>
      <trkpt lat="47.51076" lon="6.76981">
        <ele>375</ele>
        <time>2016-03-13T08:24:01.000Z</time>
      </trkpt>
      <trkpt lat="47.5107" lon="6.76975">
        <ele>375</ele>
        <time>2016-03-13T08:24:02.000Z</time>
      </trkpt>
      <trkpt lat="47.51064" lon="6.7697">
        <ele>375</ele>
        <time>2016-03-13T08:24:03.000Z</time>
      </trkpt>
      <trkpt lat="47.51057" lon="6.76964">
        <ele>375</ele>
        <time>2016-03-13T08:24:04.000Z</time>
      </trkpt>
      <trkpt lat="47.51052" lon="6.76959">
        <ele>375</ele>
        <time>2016-03-13T08:24:05.000Z</time>
      </trkpt>
      <trkpt lat="47.51046" lon="6.76954">
        <ele>375</ele>
        <time>2016-03-13T08:24:06.000Z</time>
      </trkpt>
      <trkpt lat="47.51039" lon="6.76949">
        <ele>375</ele>
        <time>2016-03-13T08:24:07.000Z</time>
      </trkpt>
      <trkpt lat="47.51035" lon="6.7694">
        <ele>375</ele>
        <time>2016-03-13T08:24:08.000Z</time>
      </trkpt>
      <trkpt lat="47.5103" lon="6.76934">
        <ele>375</ele>
        <time>2016-03-13T08:24:09.000Z</time>
      </trkpt>
      <trkpt lat="47.51024" lon="6.76929">
        <ele>375</ele>
        <time>2016-03-13T08:24:10.000Z</time>
      </trkpt>
      <trkpt lat="47.5102" lon="6.76924">
        <ele>375</ele>
        <time>2016-03-13T08:24:11.000Z</time>
      </trkpt>
      <trkpt lat="47.51014" lon="6.7692">
        <ele>375</ele>
        <time>2016-03-13T08:24:12.000Z</time>
      </trkpt>
      <trkpt lat="47.51009" lon="6.76915">
        <ele>376</ele>
        <time>2016-03-13T08:24:13.000Z</time>
      </trkpt>
      <trkpt lat="47.51005" lon="6.76909">
        <ele>376</ele>
        <time>2016-03-13T08:24:14.000Z</time>
      </trkpt>
      <trkpt lat="47.51002" lon="6.76902">
        <ele>376</ele>
        <time>2016-03-13T08:24:15.000Z</time>
      </trkpt>
      <trkpt lat="47.51" lon="6.76896">
        <ele>377</ele>
        <time>2016-03-13T08:24:16.000Z</time>
      </trkpt>
      <trkpt lat="47.50993" lon="6.76893">
        <ele>377</ele>
        <time>2016-03-13T08:24:17.000Z</time>
      </trkpt>
      <trkpt lat="47.50985" lon="6.76892">
        <ele>377</ele>
        <time>2016-03-13T08:24:18.000Z</time>
      </trkpt>
      <trkpt lat="47.50977" lon="6.76891">
        <ele>377</ele>
        <time>2016-03-13T08:24:19.000Z</time>
      </trkpt>
      <trkpt lat="47.50972" lon="6.76889">
        <ele>377</ele>
        <time>2016-03-13T08:24:20.000Z</time>
      </trkpt>
      <trkpt lat="47.5097" lon="6.76884">
        <ele>377</ele>
        <time>2016-03-13T08:24:21.000Z</time>
      </trkpt>
      <trkpt lat="47.50967" lon="6.7688">
        <ele>377</ele>
        <time>2016-03-13T08:24:22.000Z</time>
      </trkpt>
      <trkpt lat="47.50963" lon="6.76875">
        <ele>377</ele>
        <time>2016-03-13T08:24:23.000Z</time>
      </trkpt>
      <trkpt lat="47.50958" lon="6.76871">
        <ele>378</ele>
        <time>2016-03-13T08:24:24.000Z</time>
      </trkpt>
      <trkpt lat="47.50953" lon="6.76867">
        <ele>378</ele>
        <time>2016-03-13T08:24:25.000Z</time>
      </trkpt>
      <trkpt lat="47.50948" lon="6.76863">
        <ele>378</ele>
        <time>2016-03-13T08:24:26.000Z</time>
      </trkpt>
      <trkpt lat="47.50948" lon="6.76858">
        <ele>378</ele>
        <time>2016-03-13T08:24:27.000Z</time>
      </trkpt>
      <trkpt lat="47.50945" lon="6.76853">
        <ele>378</ele>
        <time>2016-03-13T08:24:28.000Z</time>
      </trkpt>
      <trkpt lat="47.50941" lon="6.76849">
        <ele>378</ele>
        <time>2016-03-13T08:24:29.000Z</time>
      </trkpt>
      <trkpt lat="47.50937" lon="6.76842">
        <ele>378</ele>
        <time>2016-03-13T08:24:30.000Z</time>
      </trkpt>
      <trkpt lat="47.50932" lon="6.76837">
        <ele>379</ele>
        <time>2016-03-13T08:24:31.000Z</time>
      </trkpt>
      <trkpt lat="47.50929" lon="6.76831">
        <ele>379</ele>
        <time>2016-03-13T08:24:32.000Z</time>
      </trkpt>
      <trkpt lat="47.50926" lon="6.76825">
        <ele>379</ele>
        <time>2016-03-13T08:24:33.000Z</time>
      </trkpt>
      <trkpt lat="47.50923" lon="6.76818">
        <ele>378</ele>
        <time>2016-03-13T08:24:34.000Z</time>
      </trkpt>
      <trkpt lat="47.50921" lon="6.76812">
        <ele>378</ele>
        <time>2016-03-13T08:24:35.000Z</time>
      </trkpt>
      <trkpt lat="47.50918" lon="6.76805">
        <ele>378</ele>
        <time>2016-03-13T08:24:36.000Z</time>
      </trkpt>
      <trkpt lat="47.50915" lon="6.76799">
        <ele>381</ele>
        <time>2016-03-13T08:24:37.000Z</time>
      </trkpt>
      <trkpt lat="47.50912" lon="6.76793">
        <ele>381</ele>
        <time>2016-03-13T08:24:38.000Z</time>
      </trkpt>
      <trkpt lat="47.50909" lon="6.76787">
        <ele>381</ele>
        <time>2016-03-13T08:24:39.000Z</time>
      </trkpt>
      <trkpt lat="47.50906" lon="6.76781">
        <ele>381</ele>
        <time>2016-03-13T08:24:40.000Z</time>
      </trkpt>
      <trkpt lat="47.50904" lon="6.76775">
        <ele>381</ele>
        <time>2016-03-13T08:24:41.000Z</time>
      </trkpt>
      <trkpt lat="47.50901" lon="6.76769">
        <ele>380</ele>
        <time>2016-03-13T08:24:42.000Z</time>
      </trkpt>
      <trkpt lat="47.50897" lon="6.76764">
        <ele>380</ele>
        <time>2016-03-13T08:24:43.000Z</time>
      </trkpt>
      <trkpt lat="47.50895" lon="6.76757">
        <ele>380</ele>
        <time>2016-03-13T08:24:44.000Z</time>
      </trkpt>
      <trkpt lat="47.50893" lon="6.76752">
        <ele>381</ele>
        <time>2016-03-13T08:24:45.000Z</time>
      </trkpt>
      <trkpt lat="47.5089" lon="6.76746">
        <ele>382</ele>
        <time>2016-03-13T08:24:46.000Z</time>
      </trkpt>
      <trkpt lat="47.50887" lon="6.76741">
        <ele>382</ele>
        <time>2016-03-13T08:24:47.000Z</time>
      </trkpt>
      <trkpt lat="47.50886" lon="6.76736">
        <ele>382</ele>
        <time>2016-03-13T08:24:48.000Z</time>
      </trkpt>
      <trkpt lat="47.50884" lon="6.7673">
        <ele>382</ele>
        <time>2016-03-13T08:24:49.000Z</time>
      </trkpt>
      <trkpt lat="47.50882" lon="6.76724">
        <ele>383</ele>
        <time>2016-03-13T08:24:50.000Z</time>
      </trkpt>
      <trkpt lat="47.5088" lon="6.76719">
        <ele>383</ele>
        <time>2016-03-13T08:24:51.000Z</time>
      </trkpt>
      <trkpt lat="47.50878" lon="6.76713">
        <ele>383</ele>
        <time>2016-03-13T08:24:52.000Z</time>
      </trkpt>
      <trkpt lat="47.50876" lon="6.76708">
        <ele>383</ele>
        <time>2016-03-13T08:24:53.000Z</time>
      </trkpt>
      <trkpt lat="47.50874" lon="6.76703">
        <ele>383</ele>
        <time>2016-03-13T08:24:54.000Z</time>
      </trkpt>
      <trkpt lat="47.50872" lon="6.76698">
        <ele>384</ele>
        <time>2016-03-13T08:24:55.000Z</time>
      </trkpt>
      <trkpt lat="47.50869" lon="6.76694">
        <ele>384</ele>
        <time>2016-03-13T08:24:56.000Z</time>
      </trkpt>
      <trkpt lat="47.50867" lon="6.76689">
        <ele>384</ele>
        <time>2016-03-13T08:24:57.000Z</time>
      </trkpt>
      <trkpt lat="47.50865" lon="6.76685">
        <ele>384</ele>
        <time>2016-03-13T08:24:58.000Z</time>
      </trkpt>
      <trkpt lat="47.50863" lon="6.7668">
        <ele>385</ele>
        <time>2016-03-13T08:24:59.000Z</time>
      </trkpt>
      <trkpt lat="47.50861" lon="6.76675">
        <ele>385</ele>
        <time>2016-03-13T08:25:00.000Z</time>
      </trkpt>
      <trkpt lat="47.50859" lon="6.7667">
        <ele>385</ele>
        <time>2016-03-13T08:25:01.000Z</time>
      </trkpt>
      <trkpt lat="47.50857" lon="6.76665">
        <ele>387</ele>
        <time>2016-03-13T08:25:02.000Z</time>
      </trkpt>
      <trkpt lat="47.50855" lon="6.76661">
        <ele>387</ele>
        <time>2016-03-13T08:25:03.000Z</time>
      </trkpt>
      <trkpt lat="47.50853" lon="6.76656">
        <ele>387</ele>
        <time>2016-03-13T08:25:04.000Z</time>
      </trkpt>
      <trkpt lat="47.50852" lon="6.76652">
        <ele>387</ele>
        <time>2016-03-13T08:25:05.000Z</time>
      </trkpt>
      <trkpt lat="47.5085" lon="6.76648">
        <ele>387</ele>
        <time>2016-03-13T08:25:06.000Z</time>
      </trkpt>
      <trkpt lat="47.50848" lon="6.76644">
        <ele>387</ele>
        <time>2016-03-13T08:25:07.000Z</time>
      </trkpt>
      <trkpt lat="47.50846" lon="6.7664">
        <ele>387</ele>
        <time>2016-03-13T08:25:08.000Z</time>
      </trkpt>
      <trkpt lat="47.50844" lon="6.76636">
        <ele>387</ele>
        <time>2016-03-13T08:25:09.000Z</time>
      </trkpt>
      <trkpt lat="47.50843" lon="6.76632">
        <ele>387</ele>
        <time>2016-03-13T08:25:10.000Z</time>
      </trkpt>
      <trkpt lat="47.5084" lon="6.76628">
        <ele>387</ele>
        <time>2016-03-13T08:25:11.000Z</time>
      </trkpt>
      <trkpt lat="47.50838" lon="6.76624">
        <ele>387</ele>
        <time>2016-03-13T08:25:12.000Z</time>
      </trkpt>
      <trkpt lat="47.50836" lon="6.76621">
        <ele>387</ele>
        <time>2016-03-13T08:25:13.000Z</time>
      </trkpt>
      <trkpt lat="47.50833" lon="6.76617">
        <ele>390</ele>
        <time>2016-03-13T08:25:14.000Z</time>
      </trkpt>
      <trkpt lat="47.50831" lon="6.76613">
        <ele>390</ele>
        <time>2016-03-13T08:25:15.000Z</time>
      </trkpt>
      <trkpt lat="47.5083" lon="6.76609">
        <ele>390</ele>
        <time>2016-03-13T08:25:16.000Z</time>
      </trkpt>
      <trkpt lat="47.50828" lon="6.76605">
        <ele>390</ele>
        <time>2016-03-13T08:25:17.000Z</time>
      </trkpt>
      <trkpt lat="47.50827" lon="6.76601">
        <ele>390</ele>
        <time>2016-03-13T08:25:18.000Z</time>
      </trkpt>
      <trkpt lat="47.50826" lon="6.76597">
        <ele>390</ele>
        <time>2016-03-13T08:25:19.000Z</time>
      </trkpt>
      <trkpt lat="47.50824" lon="6.76591">
        <ele>390</ele>
        <time>2016-03-13T08:25:21.000Z</time>
      </trkpt>
      <trkpt lat="47.50822" lon="6.76592">
        <ele>390</ele>
        <time>2016-03-13T08:25:22.000Z</time>
      </trkpt>
      <trkpt lat="47.50819" lon="6.76593">
        <ele>390</ele>
        <time>2016-03-13T08:25:23.000Z</time>
      </trkpt>
      <trkpt lat="47.50816" lon="6.76594">
        <ele>390</ele>
        <time>2016-03-13T08:25:24.000Z</time>
      </trkpt>
      <trkpt lat="47.50813" lon="6.76594">
        <ele>390</ele>
        <time>2016-03-13T08:25:25.000Z</time>
      </trkpt>
      <trkpt lat="47.5081" lon="6.76592">
        <ele>390</ele>
        <time>2016-03-13T08:25:26.000Z</time>
      </trkpt>
      <trkpt lat="47.50808" lon="6.76589">
        <ele>390</ele>
        <time>2016-03-13T08:25:27.000Z</time>
      </trkpt>
      <trkpt lat="47.50806" lon="6.76586">
        <ele>390</ele>
        <time>2016-03-13T08:25:28.000Z</time>
      </trkpt>
      <trkpt lat="47.50804" lon="6.76584">
        <ele>391</ele>
        <time>2016-03-13T08:25:29.000Z</time>
      </trkpt>
      <trkpt lat="47.50802" lon="6.76584">
        <ele>391</ele>
        <time>2016-03-13T08:25:30.000Z</time>
      </trkpt>
      <trkpt lat="47.50799" lon="6.76585">
        <ele>391</ele>
        <time>2016-03-13T08:25:31.000Z</time>
      </trkpt>
      <trkpt lat="47.50797" lon="6.76587">
        <ele>391</ele>
        <time>2016-03-13T08:25:32.000Z</time>
      </trkpt>
      <trkpt lat="47.50793" lon="6.76589">
        <ele>391</ele>
        <time>2016-03-13T08:25:34.000Z</time>
      </trkpt>
      <trkpt lat="47.50792" lon="6.76589">
        <ele>391</ele>
        <time>2016-03-13T08:25:35.000Z</time>
      </trkpt>
      <trkpt lat="47.50788" lon="6.7659">
        <ele>391</ele>
        <time>2016-03-13T08:25:46.000Z</time>
      </trkpt>
      <trkpt lat="47.50786" lon="6.76591">
        <ele>391</ele>
        <time>2016-03-13T08:25:47.000Z</time>
      </trkpt>
      <trkpt lat="47.50784" lon="6.76592">
        <ele>391</ele>
        <time>2016-03-13T08:25:48.000Z</time>
      </trkpt>
      <trkpt lat="47.50782" lon="6.76592">
        <ele>391</ele>
        <time>2016-03-13T08:25:49.000Z</time>
      </trkpt>
      <trkpt lat="47.50779" lon="6.76592">
        <ele>392</ele>
        <time>2016-03-13T08:25:50.000Z</time>
      </trkpt>
      <trkpt lat="47.50776" lon="6.76592">
        <ele>392</ele>
        <time>2016-03-13T08:25:51.000Z</time>
      </trkpt>
      <trkpt lat="47.50773" lon="6.76591">
        <ele>392</ele>
        <time>2016-03-13T08:25:52.000Z</time>
      </trkpt>
      <trkpt lat="47.5077" lon="6.76591">
        <ele>392</ele>
        <time>2016-03-13T08:25:53.000Z</time>
      </trkpt>
      <trkpt lat="47.50767" lon="6.7659">
        <ele>392</ele>
        <time>2016-03-13T08:25:54.000Z</time>
      </trkpt>
      <trkpt lat="47.50764" lon="6.7659">
        <ele>392</ele>
        <time>2016-03-13T08:25:55.000Z</time>
      </trkpt>
      <trkpt lat="47.50761" lon="6.7659">
        <ele>393</ele>
        <time>2016-03-13T08:25:56.000Z</time>
      </trkpt>
      <trkpt lat="47.50758" lon="6.76589">
        <ele>393</ele>
        <time>2016-03-13T08:25:57.000Z</time>
      </trkpt>
      <trkpt lat="47.50754" lon="6.7659">
        <ele>393</ele>
        <time>2016-03-13T08:25:58.000Z</time>
      </trkpt>
      <trkpt lat="47.50751" lon="6.7659">
        <ele>393</ele>
        <time>2016-03-13T08:25:59.000Z</time>
      </trkpt>
      <trkpt lat="47.50749" lon="6.7659">
        <ele>394</ele>
        <time>2016-03-13T08:26:00.000Z</time>
      </trkpt>
      <trkpt lat="47.50746" lon="6.7659">
        <ele>394</ele>
        <time>2016-03-13T08:26:01.000Z</time>
      </trkpt>
      <trkpt lat="47.50743" lon="6.76589">
        <ele>394</ele>
        <time>2016-03-13T08:26:02.000Z</time>
      </trkpt>
      <trkpt lat="47.5074" lon="6.76589">
        <ele>394</ele>
        <time>2016-03-13T08:26:03.000Z</time>
      </trkpt>
      <trkpt lat="47.50737" lon="6.76588">
        <ele>394</ele>
        <time>2016-03-13T08:26:04.000Z</time>
      </trkpt>
      <trkpt lat="47.50734" lon="6.76587">
        <ele>394</ele>
        <time>2016-03-13T08:26:05.000Z</time>
      </trkpt>
      <trkpt lat="47.5073" lon="6.76587">
        <ele>394</ele>
        <time>2016-03-13T08:26:06.000Z</time>
      </trkpt>
      <trkpt lat="47.50727" lon="6.76586">
        <ele>394</ele>
        <time>2016-03-13T08:26:07.000Z</time>
      </trkpt>
      <trkpt lat="47.50724" lon="6.76586">
        <ele>394</ele>
        <time>2016-03-13T08:26:08.000Z</time>
      </trkpt>
      <trkpt lat="47.50721" lon="6.76585">
        <ele>394</ele>
        <time>2016-03-13T08:26:09.000Z</time>
      </trkpt>
      <trkpt lat="47.50717" lon="6.76585">
        <ele>394</ele>
        <time>2016-03-13T08:26:10.000Z</time>
      </trkpt>
      <trkpt lat="47.50714" lon="6.76584">
        <ele>395</ele>
        <time>2016-03-13T08:26:11.000Z</time>
      </trkpt>
      <trkpt lat="47.50711" lon="6.76584">
        <ele>395</ele>
        <time>2016-03-13T08:26:12.000Z</time>
      </trkpt>
      <trkpt lat="47.50708" lon="6.76583">
        <ele>395</ele>
        <time>2016-03-13T08:26:13.000Z</time>
      </trkpt>
      <trkpt lat="47.50705" lon="6.76582">
        <ele>395</ele>
        <time>2016-03-13T08:26:14.000Z</time>
      </trkpt>
      <trkpt lat="47.50702" lon="6.76582">
        <ele>395</ele>
        <time>2016-03-13T08:26:15.000Z</time>
      </trkpt>
      <trkpt lat="47.50699" lon="6.76582">
        <ele>395</ele>
        <time>2016-03-13T08:26:16.000Z</time>
      </trkpt>
      <trkpt lat="47.50696" lon="6.76582">
        <ele>396</ele>
        <time>2016-03-13T08:26:17.000Z</time>
      </trkpt>
      <trkpt lat="47.50693" lon="6.76583">
        <ele>396</ele>
        <time>2016-03-13T08:26:18.000Z</time>
      </trkpt>
      <trkpt lat="47.50689" lon="6.76583">
        <ele>396</ele>
        <time>2016-03-13T08:26:19.000Z</time>
      </trkpt>
      <trkpt lat="47.50686" lon="6.76584">
        <ele>396</ele>
        <time>2016-03-13T08:26:20.000Z</time>
      </trkpt>
      <trkpt lat="47.50682" lon="6.76584">
        <ele>396</ele>
        <time>2016-03-13T08:26:21.000Z</time>
      </trkpt>
      <trkpt lat="47.50679" lon="6.76585">
        <ele>396</ele>
        <time>2016-03-13T08:26:22.000Z</time>
      </trkpt>
      <trkpt lat="47.50676" lon="6.76586">
        <ele>396</ele>
        <time>2016-03-13T08:26:23.000Z</time>
      </trkpt>
      <trkpt lat="47.50672" lon="6.76586">
        <ele>396</ele>
        <time>2016-03-13T08:26:24.000Z</time>
      </trkpt>
      <trkpt lat="47.50669" lon="6.76588">
        <ele>397</ele>
        <time>2016-03-13T08:26:25.000Z</time>
      </trkpt>
      <trkpt lat="47.50666" lon="6.76589">
        <ele>397</ele>
        <time>2016-03-13T08:26:26.000Z</time>
      </trkpt>
      <trkpt lat="47.50663" lon="6.76591">
        <ele>397</ele>
        <time>2016-03-13T08:26:27.000Z</time>
      </trkpt>
      <trkpt lat="47.50659" lon="6.76593">
        <ele>397</ele>
        <time>2016-03-13T08:26:28.000Z</time>
      </trkpt>
      <trkpt lat="47.50656" lon="6.76594">
        <ele>397</ele>
        <time>2016-03-13T08:26:29.000Z</time>
      </trkpt>
      <trkpt lat="47.50653" lon="6.76595">
        <ele>397</ele>
        <time>2016-03-13T08:26:30.000Z</time>
      </trkpt>
      <trkpt lat="47.50649" lon="6.76596">
        <ele>397</ele>
        <time>2016-03-13T08:26:31.000Z</time>
      </trkpt>
      <trkpt lat="47.50646" lon="6.76598">
        <ele>397</ele>
        <time>2016-03-13T08:26:32.000Z</time>
      </trkpt>
      <trkpt lat="47.50643" lon="6.76599">
        <ele>397</ele>
        <time>2016-03-13T08:26:33.000Z</time>
      </trkpt>
      <trkpt lat="47.50639" lon="6.76601">
        <ele>397</ele>
        <time>2016-03-13T08:26:34.000Z</time>
      </trkpt>
      <trkpt lat="47.50636" lon="6.76603">
        <ele>397</ele>
        <time>2016-03-13T08:26:35.000Z</time>
      </trkpt>
      <trkpt lat="47.50633" lon="6.76605">
        <ele>397</ele>
        <time>2016-03-13T08:26:36.000Z</time>
      </trkpt>
      <trkpt lat="47.5063" lon="6.76607">
        <ele>397</ele>
        <time>2016-03-13T08:26:37.000Z</time>
      </trkpt>
      <trkpt lat="47.50627" lon="6.76609">
        <ele>397</ele>
        <time>2016-03-13T08:26:38.000Z</time>
      </trkpt>
      <trkpt lat="47.50624" lon="6.76611">
        <ele>397</ele>
        <time>2016-03-13T08:26:39.000Z</time>
      </trkpt>
      <trkpt lat="47.50621" lon="6.76613">
        <ele>397</ele>
        <time>2016-03-13T08:26:40.000Z</time>
      </trkpt>
      <trkpt lat="47.50619" lon="6.76615">
        <ele>397</ele>
        <time>2016-03-13T08:26:41.000Z</time>
      </trkpt>
      <trkpt lat="47.50616" lon="6.76617">
        <ele>397</ele>
        <time>2016-03-13T08:26:42.000Z</time>
      </trkpt>
      <trkpt lat="47.50613" lon="6.76618">
        <ele>397</ele>
        <time>2016-03-13T08:26:43.000Z</time>
      </trkpt>
      <trkpt lat="47.5061" lon="6.7662">
        <ele>398</ele>
        <time>2016-03-13T08:26:44.000Z</time>
      </trkpt>
      <trkpt lat="47.50607" lon="6.76621">
        <ele>398</ele>
        <time>2016-03-13T08:26:45.000Z</time>
      </trkpt>
      <trkpt lat="47.50604" lon="6.76623">
        <ele>398</ele>
        <time>2016-03-13T08:26:46.000Z</time>
      </trkpt>
      <trkpt lat="47.50601" lon="6.76624">
        <ele>398</ele>
        <time>2016-03-13T08:26:47.000Z</time>
      </trkpt>
      <trkpt lat="47.50598" lon="6.76625">
        <ele>398</ele>
        <time>2016-03-13T08:26:48.000Z</time>
      </trkpt>
      <trkpt lat="47.50595" lon="6.76626">
        <ele>398</ele>
        <time>2016-03-13T08:26:49.000Z</time>
      </trkpt>
      <trkpt lat="47.50592" lon="6.76627">
        <ele>398</ele>
        <time>2016-03-13T08:26:50.000Z</time>
      </trkpt>
      <trkpt lat="47.50589" lon="6.76627">
        <ele>398</ele>
        <time>2016-03-13T08:26:51.000Z</time>
      </trkpt>
      <trkpt lat="47.50586" lon="6.76629">
        <ele>398</ele>
        <time>2016-03-13T08:26:52.000Z</time>
      </trkpt>
      <trkpt lat="47.50583" lon="6.7663">
        <ele>399</ele>
        <time>2016-03-13T08:26:53.000Z</time>
      </trkpt>
      <trkpt lat="47.5058" lon="6.76631">
        <ele>399</ele>
        <time>2016-03-13T08:26:54.000Z</time>
      </trkpt>
      <trkpt lat="47.50577" lon="6.76632">
        <ele>399</ele>
        <time>2016-03-13T08:26:55.000Z</time>
      </trkpt>
      <trkpt lat="47.50574" lon="6.76633">
        <ele>399</ele>
        <time>2016-03-13T08:26:56.000Z</time>
      </trkpt>
      <trkpt lat="47.50571" lon="6.76633">
        <ele>399</ele>
        <time>2016-03-13T08:26:57.000Z</time>
      </trkpt>
      <trkpt lat="47.50568" lon="6.76634">
        <ele>399</ele>
        <time>2016-03-13T08:26:58.000Z</time>
      </trkpt>
      <trkpt lat="47.50565" lon="6.76635">
        <ele>399</ele>
        <time>2016-03-13T08:26:59.000Z</time>
      </trkpt>
      <trkpt lat="47.50562" lon="6.76636">
        <ele>399</ele>
        <time>2016-03-13T08:27:00.000Z</time>
      </trkpt>
      <trkpt lat="47.50559" lon="6.76637">
        <ele>399</ele>
        <time>2016-03-13T08:27:01.000Z</time>
      </trkpt>
      <trkpt lat="47.50556" lon="6.76638">
        <ele>399</ele>
        <time>2016-03-13T08:27:02.000Z</time>
      </trkpt>
      <trkpt lat="47.50553" lon="6.76639">
        <ele>399</ele>
        <time>2016-03-13T08:27:03.000Z</time>
      </trkpt>
      <trkpt lat="47.5055" lon="6.76639">
        <ele>399</ele>
        <time>2016-03-13T08:27:04.000Z</time>
      </trkpt>
      <trkpt lat="47.50547" lon="6.7664">
        <ele>399</ele>
        <time>2016-03-13T08:27:05.000Z</time>
      </trkpt>
      <trkpt lat="47.50544" lon="6.7664">
        <ele>399</ele>
        <time>2016-03-13T08:27:06.000Z</time>
      </trkpt>
      <trkpt lat="47.50541" lon="6.76641">
        <ele>399</ele>
        <time>2016-03-13T08:27:07.000Z</time>
      </trkpt>
      <trkpt lat="47.50537" lon="6.76642">
        <ele>399</ele>
        <time>2016-03-13T08:27:08.000Z</time>
      </trkpt>
      <trkpt lat="47.50533" lon="6.76643">
        <ele>399</ele>
        <time>2016-03-13T08:27:09.000Z</time>
      </trkpt>
      <trkpt lat="47.5053" lon="6.76643">
        <ele>399</ele>
        <time>2016-03-13T08:27:10.000Z</time>
      </trkpt>
      <trkpt lat="47.50526" lon="6.76644">
        <ele>399</ele>
        <time>2016-03-13T08:27:11.000Z</time>
      </trkpt>
      <trkpt lat="47.50522" lon="6.76644">
        <ele>399</ele>
        <time>2016-03-13T08:27:12.000Z</time>
      </trkpt>
      <trkpt lat="47.50518" lon="6.76645">
        <ele>399</ele>
        <time>2016-03-13T08:27:13.000Z</time>
      </trkpt>
      <trkpt lat="47.50513" lon="6.76647">
        <ele>399</ele>
        <time>2016-03-13T08:27:14.000Z</time>
      </trkpt>
      <trkpt lat="47.50508" lon="6.76649">
        <ele>399</ele>
        <time>2016-03-13T08:27:15.000Z</time>
      </trkpt>
      <trkpt lat="47.50503" lon="6.76651">
        <ele>399</ele>
        <time>2016-03-13T08:27:16.000Z</time>
      </trkpt>
      <trkpt lat="47.50499" lon="6.76653">
        <ele>399</ele>
        <time>2016-03-13T08:27:17.000Z</time>
      </trkpt>
      <trkpt lat="47.50495" lon="6.76654">
        <ele>399</ele>
        <time>2016-03-13T08:27:18.000Z</time>
      </trkpt>
      <trkpt lat="47.5049" lon="6.76656">
        <ele>399</ele>
        <time>2016-03-13T08:27:19.000Z</time>
      </trkpt>
      <trkpt lat="47.50486" lon="6.76657">
        <ele>399</ele>
        <time>2016-03-13T08:27:20.000Z</time>
      </trkpt>
      <trkpt lat="47.50481" lon="6.76659">
        <ele>399</ele>
        <time>2016-03-13T08:27:21.000Z</time>
      </trkpt>
      <trkpt lat="47.50476" lon="6.76661">
        <ele>398</ele>
        <time>2016-03-13T08:27:22.000Z</time>
      </trkpt>
      <trkpt lat="47.50472" lon="6.76663">
        <ele>398</ele>
        <time>2016-03-13T08:27:23.000Z</time>
      </trkpt>
      <trkpt lat="47.50467" lon="6.76666">
        <ele>398</ele>
        <time>2016-03-13T08:27:24.000Z</time>
      </trkpt>
      <trkpt lat="47.50462" lon="6.76667">
        <ele>398</ele>
        <time>2016-03-13T08:27:25.000Z</time>
      </trkpt>
      <trkpt lat="47.50457" lon="6.76669">
        <ele>397</ele>
        <time>2016-03-13T08:27:26.000Z</time>
      </trkpt>
      <trkpt lat="47.50452" lon="6.76669">
        <ele>397</ele>
        <time>2016-03-13T08:27:27.000Z</time>
      </trkpt>
      <trkpt lat="47.50448" lon="6.76671">
        <ele>397</ele>
        <time>2016-03-13T08:27:28.000Z</time>
      </trkpt>
      <trkpt lat="47.50443" lon="6.76673">
        <ele>397</ele>
        <time>2016-03-13T08:27:29.000Z</time>
      </trkpt>
      <trkpt lat="47.50439" lon="6.76676">
        <ele>397</ele>
        <time>2016-03-13T08:27:30.000Z</time>
      </trkpt>
      <trkpt lat="47.50435" lon="6.76677">
        <ele>397</ele>
        <time>2016-03-13T08:27:31.000Z</time>
      </trkpt>
      <trkpt lat="47.5043" lon="6.76679">
        <ele>397</ele>
        <time>2016-03-13T08:27:32.000Z</time>
      </trkpt>
      <trkpt lat="47.50427" lon="6.76681">
        <ele>397</ele>
        <time>2016-03-13T08:27:33.000Z</time>
      </trkpt>
      <trkpt lat="47.50423" lon="6.76682">
        <ele>397</ele>
        <time>2016-03-13T08:27:34.000Z</time>
      </trkpt>
      <trkpt lat="47.50419" lon="6.76685">
        <ele>397</ele>
        <time>2016-03-13T08:27:35.000Z</time>
      </trkpt>
      <trkpt lat="47.50415" lon="6.76688">
        <ele>397</ele>
        <time>2016-03-13T08:27:36.000Z</time>
      </trkpt>
      <trkpt lat="47.50411" lon="6.76689">
        <ele>397</ele>
        <time>2016-03-13T08:27:37.000Z</time>
      </trkpt>
      <trkpt lat="47.50407" lon="6.76691">
        <ele>397</ele>
        <time>2016-03-13T08:27:38.000Z</time>
      </trkpt>
      <trkpt lat="47.50402" lon="6.76693">
        <ele>397</ele>
        <time>2016-03-13T08:27:39.000Z</time>
      </trkpt>
      <trkpt lat="47.50398" lon="6.76695">
        <ele>397</ele>
        <time>2016-03-13T08:27:40.000Z</time>
      </trkpt>
      <trkpt lat="47.50395" lon="6.76698">
        <ele>397</ele>
        <time>2016-03-13T08:27:41.000Z</time>
      </trkpt>
      <trkpt lat="47.50391" lon="6.767">
        <ele>397</ele>
        <time>2016-03-13T08:27:42.000Z</time>
      </trkpt>
      <trkpt lat="47.50387" lon="6.76701">
        <ele>397</ele>
        <time>2016-03-13T08:27:43.000Z</time>
      </trkpt>
      <trkpt lat="47.50383" lon="6.76702">
        <ele>397</ele>
        <time>2016-03-13T08:27:44.000Z</time>
      </trkpt>
      <trkpt lat="47.5038" lon="6.76704">
        <ele>397</ele>
        <time>2016-03-13T08:27:45.000Z</time>
      </trkpt>
      <trkpt lat="47.50375" lon="6.76706">
        <ele>397</ele>
        <time>2016-03-13T08:27:46.000Z</time>
      </trkpt>
      <trkpt lat="47.50371" lon="6.76707">
        <ele>397</ele>
        <time>2016-03-13T08:27:47.000Z</time>
      </trkpt>
      <trkpt lat="47.50368" lon="6.76709">
        <ele>398</ele>
        <time>2016-03-13T08:27:48.000Z</time>
      </trkpt>
      <trkpt lat="47.50364" lon="6.7671">
        <ele>398</ele>
        <time>2016-03-13T08:27:49.000Z</time>
      </trkpt>
      <trkpt lat="47.5036" lon="6.76712">
        <ele>398</ele>
        <time>2016-03-13T08:27:50.000Z</time>
      </trkpt>
      <trkpt lat="47.50356" lon="6.76713">
        <ele>398</ele>
        <time>2016-03-13T08:27:51.000Z</time>
      </trkpt>
      <trkpt lat="47.50353" lon="6.76715">
        <ele>398</ele>
        <time>2016-03-13T08:27:52.000Z</time>
      </trkpt>
      <trkpt lat="47.50349" lon="6.76716">
        <ele>398</ele>
        <time>2016-03-13T08:27:53.000Z</time>
      </trkpt>
      <trkpt lat="47.50345" lon="6.76718">
        <ele>398</ele>
        <time>2016-03-13T08:27:54.000Z</time>
      </trkpt>
      <trkpt lat="47.50341" lon="6.76719">
        <ele>398</ele>
        <time>2016-03-13T08:27:55.000Z</time>
      </trkpt>
      <trkpt lat="47.50338" lon="6.76721">
        <ele>398</ele>
        <time>2016-03-13T08:27:56.000Z</time>
      </trkpt>
      <trkpt lat="47.50334" lon="6.76723">
        <ele>398</ele>
        <time>2016-03-13T08:27:57.000Z</time>
      </trkpt>
      <trkpt lat="47.5033" lon="6.76724">
        <ele>398</ele>
        <time>2016-03-13T08:27:58.000Z</time>
      </trkpt>
      <trkpt lat="47.50327" lon="6.76726">
        <ele>398</ele>
        <time>2016-03-13T08:27:59.000Z</time>
      </trkpt>
      <trkpt lat="47.50324" lon="6.76727">
        <ele>398</ele>
        <time>2016-03-13T08:28:00.000Z</time>
      </trkpt>
      <trkpt lat="47.5032" lon="6.76728">
        <ele>398</ele>
        <time>2016-03-13T08:28:01.000Z</time>
      </trkpt>
      <trkpt lat="47.50317" lon="6.7673">
        <ele>398</ele>
        <time>2016-03-13T08:28:02.000Z</time>
      </trkpt>
      <trkpt lat="47.50313" lon="6.76731">
        <ele>398</ele>
        <time>2016-03-13T08:28:03.000Z</time>
      </trkpt>
      <trkpt lat="47.5031" lon="6.76734">
        <ele>398</ele>
        <time>2016-03-13T08:28:04.000Z</time>
      </trkpt>
      <trkpt lat="47.50306" lon="6.76735">
        <ele>398</ele>
        <time>2016-03-13T08:28:05.000Z</time>
      </trkpt>
      <trkpt lat="47.50303" lon="6.76736">
        <ele>398</ele>
        <time>2016-03-13T08:28:06.000Z</time>
      </trkpt>
      <trkpt lat="47.503" lon="6.76736">
        <ele>399</ele>
        <time>2016-03-13T08:28:07.000Z</time>
      </trkpt>
      <trkpt lat="47.50296" lon="6.76736">
        <ele>399</ele>
        <time>2016-03-13T08:28:08.000Z</time>
      </trkpt>
      <trkpt lat="47.50293" lon="6.76736">
        <ele>399</ele>
        <time>2016-03-13T08:28:09.000Z</time>
      </trkpt>
      <trkpt lat="47.5029" lon="6.76736">
        <ele>399</ele>
        <time>2016-03-13T08:28:10.000Z</time>
      </trkpt>
      <trkpt lat="47.50287" lon="6.76737">
        <ele>399</ele>
        <time>2016-03-13T08:28:11.000Z</time>
      </trkpt>
      <trkpt lat="47.50283" lon="6.76737">
        <ele>399</ele>
        <time>2016-03-13T08:28:12.000Z</time>
      </trkpt>
      <trkpt lat="47.50279" lon="6.76738">
        <ele>399</ele>
        <time>2016-03-13T08:28:13.000Z</time>
      </trkpt>
      <trkpt lat="47.50276" lon="6.76738">
        <ele>399</ele>
        <time>2016-03-13T08:28:14.000Z</time>
      </trkpt>
      <trkpt lat="47.50273" lon="6.76739">
        <ele>399</ele>
        <time>2016-03-13T08:28:15.000Z</time>
      </trkpt>
      <trkpt lat="47.50269" lon="6.76741">
        <ele>399</ele>
        <time>2016-03-13T08:28:16.000Z</time>
      </trkpt>
      <trkpt lat="47.50266" lon="6.76742">
        <ele>399</ele>
        <time>2016-03-13T08:28:17.000Z</time>
      </trkpt>
      <trkpt lat="47.50263" lon="6.76743">
        <ele>399</ele>
        <time>2016-03-13T08:28:18.000Z</time>
      </trkpt>
      <trkpt lat="47.5026" lon="6.76744">
        <ele>399</ele>
        <time>2016-03-13T08:28:19.000Z</time>
      </trkpt>
      <trkpt lat="47.50257" lon="6.76745">
        <ele>400</ele>
        <time>2016-03-13T08:28:20.000Z</time>
      </trkpt>
      <trkpt lat="47.50253" lon="6.76744">
        <ele>400</ele>
        <time>2016-03-13T08:28:21.000Z</time>
      </trkpt>
      <trkpt lat="47.5025" lon="6.76744">
        <ele>400</ele>
        <time>2016-03-13T08:28:22.000Z</time>
      </trkpt>
      <trkpt lat="47.50247" lon="6.76743">
        <ele>401</ele>
        <time>2016-03-13T08:28:23.000Z</time>
      </trkpt>
      <trkpt lat="47.50245" lon="6.76741">
        <ele>401</ele>
        <time>2016-03-13T08:28:24.000Z</time>
      </trkpt>
      <trkpt lat="47.50242" lon="6.76739">
        <ele>401</ele>
        <time>2016-03-13T08:28:25.000Z</time>
      </trkpt>
      <trkpt lat="47.50239" lon="6.76736">
        <ele>401</ele>
        <time>2016-03-13T08:28:26.000Z</time>
      </trkpt>
      <trkpt lat="47.50236" lon="6.76733">
        <ele>401</ele>
        <time>2016-03-13T08:28:27.000Z</time>
      </trkpt>
      <trkpt lat="47.50233" lon="6.76729">
        <ele>401</ele>
        <time>2016-03-13T08:28:28.000Z</time>
      </trkpt>
      <trkpt lat="47.5023" lon="6.76725">
        <ele>402</ele>
        <time>2016-03-13T08:28:29.000Z</time>
      </trkpt>
      <trkpt lat="47.50228" lon="6.76722">
        <ele>402</ele>
        <time>2016-03-13T08:28:30.000Z</time>
      </trkpt>
      <trkpt lat="47.50226" lon="6.76717">
        <ele>402</ele>
        <time>2016-03-13T08:28:31.000Z</time>
      </trkpt>
      <trkpt lat="47.50225" lon="6.76713">
        <ele>402</ele>
        <time>2016-03-13T08:28:32.000Z</time>
      </trkpt>
      <trkpt lat="47.50223" lon="6.76709">
        <ele>402</ele>
        <time>2016-03-13T08:28:33.000Z</time>
      </trkpt>
      <trkpt lat="47.50222" lon="6.76704">
        <ele>402</ele>
        <time>2016-03-13T08:28:34.000Z</time>
      </trkpt>
      <trkpt lat="47.5022" lon="6.767">
        <ele>402</ele>
        <time>2016-03-13T08:28:35.000Z</time>
      </trkpt>
      <trkpt lat="47.50219" lon="6.76695">
        <ele>402</ele>
        <time>2016-03-13T08:28:36.000Z</time>
      </trkpt>
      <trkpt lat="47.50217" lon="6.7669">
        <ele>402</ele>
        <time>2016-03-13T08:28:37.000Z</time>
      </trkpt>
      <trkpt lat="47.50216" lon="6.76685">
        <ele>402</ele>
        <time>2016-03-13T08:28:38.000Z</time>
      </trkpt>
      <trkpt lat="47.50214" lon="6.7668">
        <ele>402</ele>
        <time>2016-03-13T08:28:39.000Z</time>
      </trkpt>
      <trkpt lat="47.50213" lon="6.76675">
        <ele>402</ele>
        <time>2016-03-13T08:28:40.000Z</time>
      </trkpt>
      <trkpt lat="47.50212" lon="6.7667">
        <ele>402</ele>
        <time>2016-03-13T08:28:41.000Z</time>
      </trkpt>
      <trkpt lat="47.50211" lon="6.76665">
        <ele>402</ele>
        <time>2016-03-13T08:28:42.000Z</time>
      </trkpt>
      <trkpt lat="47.50209" lon="6.7666">
        <ele>402</ele>
        <time>2016-03-13T08:28:43.000Z</time>
      </trkpt>
      <trkpt lat="47.50208" lon="6.76655">
        <ele>402</ele>
        <time>2016-03-13T08:28:44.000Z</time>
      </trkpt>
      <trkpt lat="47.50206" lon="6.7665">
        <ele>402</ele>
        <time>2016-03-13T08:28:45.000Z</time>
      </trkpt>
      <trkpt lat="47.50205" lon="6.76645">
        <ele>402</ele>
        <time>2016-03-13T08:28:46.000Z</time>
      </trkpt>
      <trkpt lat="47.50203" lon="6.76639">
        <ele>402</ele>
        <time>2016-03-13T08:28:47.000Z</time>
      </trkpt>
      <trkpt lat="47.50201" lon="6.76634">
        <ele>402</ele>
        <time>2016-03-13T08:28:48.000Z</time>
      </trkpt>
      <trkpt lat="47.502" lon="6.76629">
        <ele>402</ele>
        <time>2016-03-13T08:28:49.000Z</time>
      </trkpt>
      <trkpt lat="47.50198" lon="6.76624">
        <ele>402</ele>
        <time>2016-03-13T08:28:50.000Z</time>
      </trkpt>
      <trkpt lat="47.50196" lon="6.76619">
        <ele>403</ele>
        <time>2016-03-13T08:28:51.000Z</time>
      </trkpt>
      <trkpt lat="47.50195" lon="6.76614">
        <ele>403</ele>
        <time>2016-03-13T08:28:52.000Z</time>
      </trkpt>
      <trkpt lat="47.50193" lon="6.76608">
        <ele>403</ele>
        <time>2016-03-13T08:28:53.000Z</time>
      </trkpt>
      <trkpt lat="47.50192" lon="6.76603">
        <ele>403</ele>
        <time>2016-03-13T08:28:54.000Z</time>
      </trkpt>
      <trkpt lat="47.50191" lon="6.76599">
        <ele>403</ele>
        <time>2016-03-13T08:28:55.000Z</time>
      </trkpt>
      <trkpt lat="47.50191" lon="6.76595">
        <ele>403</ele>
        <time>2016-03-13T08:28:56.000Z</time>
      </trkpt>
      <trkpt lat="47.5019" lon="6.76591">
        <ele>404</ele>
        <time>2016-03-13T08:28:59.000Z</time>
      </trkpt>
      <trkpt lat="47.5019" lon="6.76588">
        <ele>404</ele>
        <time>2016-03-13T08:29:00.000Z</time>
      </trkpt>
      <trkpt lat="47.5019" lon="6.76585">
        <ele>404</ele>
        <time>2016-03-13T08:29:01.000Z</time>
      </trkpt>
      <trkpt lat="47.50191" lon="6.76581">
        <ele>403</ele>
        <time>2016-03-13T08:29:02.000Z</time>
      </trkpt>
      <trkpt lat="47.50191" lon="6.76577">
        <ele>403</ele>
        <time>2016-03-13T08:29:03.000Z</time>
      </trkpt>
      <trkpt lat="47.50194" lon="6.76574">
        <ele>403</ele>
        <time>2016-03-13T08:29:04.000Z</time>
      </trkpt>
      <trkpt lat="47.50197" lon="6.76573">
        <ele>402</ele>
        <time>2016-03-13T08:29:05.000Z</time>
      </trkpt>
      <trkpt lat="47.502" lon="6.76571">
        <ele>402</ele>
        <time>2016-03-13T08:29:06.000Z</time>
      </trkpt>
      <trkpt lat="47.50202" lon="6.76567">
        <ele>402</ele>
        <time>2016-03-13T08:29:07.000Z</time>
      </trkpt>
      <trkpt lat="47.50204" lon="6.76562">
        <ele>401</ele>
        <time>2016-03-13T08:29:08.000Z</time>
      </trkpt>
      <trkpt lat="47.50205" lon="6.76556">
        <ele>401</ele>
        <time>2016-03-13T08:29:09.000Z</time>
      </trkpt>
      <trkpt lat="47.50207" lon="6.7655">
        <ele>401</ele>
        <time>2016-03-13T08:29:10.000Z</time>
      </trkpt>
      <trkpt lat="47.50209" lon="6.76545">
        <ele>401</ele>
        <time>2016-03-13T08:29:11.000Z</time>
      </trkpt>
      <trkpt lat="47.50212" lon="6.76542">
        <ele>401</ele>
        <time>2016-03-13T08:29:12.000Z</time>
      </trkpt>
      <trkpt lat="47.50215" lon="6.76539">
        <ele>400</ele>
        <time>2016-03-13T08:29:13.000Z</time>
      </trkpt>
      <trkpt lat="47.50217" lon="6.76535">
        <ele>400</ele>
        <time>2016-03-13T08:29:14.000Z</time>
      </trkpt>
      <trkpt lat="47.50219" lon="6.76531">
        <ele>400</ele>
        <time>2016-03-13T08:29:15.000Z</time>
      </trkpt>
      <trkpt lat="47.50219" lon="6.76526">
        <ele>399</ele>
        <time>2016-03-13T08:29:16.000Z</time>
      </trkpt>
      <trkpt lat="47.50218" lon="6.7652">
        <ele>399</ele>
        <time>2016-03-13T08:29:17.000Z</time>
      </trkpt>
      <trkpt lat="47.50218" lon="6.76513">
        <ele>399</ele>
        <time>2016-03-13T08:29:18.000Z</time>
      </trkpt>
      <trkpt lat="47.50218" lon="6.76507">
        <ele>399</ele>
        <time>2016-03-13T08:29:19.000Z</time>
      </trkpt>
      <trkpt lat="47.50218" lon="6.765">
        <ele>396</ele>
        <time>2016-03-13T08:29:20.000Z</time>
      </trkpt>
      <trkpt lat="47.50217" lon="6.7648">
        <ele>395</ele>
        <time>2016-03-13T08:29:21.000Z</time>
      </trkpt>
      <trkpt lat="47.50218" lon="6.7647">
        <ele>395</ele>
        <time>2016-03-13T08:29:22.000Z</time>
      </trkpt>
      <trkpt lat="47.50219" lon="6.76461">
        <ele>394</ele>
        <time>2016-03-13T08:29:23.000Z</time>
      </trkpt>
      <trkpt lat="47.50218" lon="6.76451">
        <ele>394</ele>
        <time>2016-03-13T08:29:24.000Z</time>
      </trkpt>
      <trkpt lat="47.50217" lon="6.7644">
        <ele>394</ele>
        <time>2016-03-13T08:29:25.000Z</time>
      </trkpt>
      <trkpt lat="47.50216" lon="6.76428">
        <ele>393</ele>
        <time>2016-03-13T08:29:26.000Z</time>
      </trkpt>
      <trkpt lat="47.50215" lon="6.76419">
        <ele>393</ele>
        <time>2016-03-13T08:29:27.000Z</time>
      </trkpt>
      <trkpt lat="47.50213" lon="6.7641">
        <ele>389</ele>
        <time>2016-03-13T08:29:28.000Z</time>
      </trkpt>
      <trkpt lat="47.5021" lon="6.76401">
        <ele>389</ele>
        <time>2016-03-13T08:29:29.000Z</time>
      </trkpt>
      <trkpt lat="47.50209" lon="6.76392">
        <ele>389</ele>
        <time>2016-03-13T08:29:30.000Z</time>
      </trkpt>
      <trkpt lat="47.50208" lon="6.76383">
        <ele>389</ele>
        <time>2016-03-13T08:29:31.000Z</time>
      </trkpt>
      <trkpt lat="47.50207" lon="6.76372">
        <ele>389</ele>
        <time>2016-03-13T08:29:32.000Z</time>
      </trkpt>
      <trkpt lat="47.50205" lon="6.76362">
        <ele>389</ele>
        <time>2016-03-13T08:29:33.000Z</time>
      </trkpt>
      <trkpt lat="47.50203" lon="6.76352">
        <ele>389</ele>
        <time>2016-03-13T08:29:34.000Z</time>
      </trkpt>
      <trkpt lat="47.50201" lon="6.76341">
        <ele>389</ele>
        <time>2016-03-13T08:29:35.000Z</time>
      </trkpt>
      <trkpt lat="47.50198" lon="6.76332">
        <ele>386</ele>
        <time>2016-03-13T08:29:36.000Z</time>
      </trkpt>
      <trkpt lat="47.50194" lon="6.76323">
        <ele>386</ele>
        <time>2016-03-13T08:29:37.000Z</time>
      </trkpt>
      <trkpt lat="47.50194" lon="6.76312">
        <ele>386</ele>
        <time>2016-03-13T08:29:38.000Z</time>
      </trkpt>
      <trkpt lat="47.50191" lon="6.76302">
        <ele>386</ele>
        <time>2016-03-13T08:29:39.000Z</time>
      </trkpt>
      <trkpt lat="47.50184" lon="6.76291">
        <ele>386</ele>
        <time>2016-03-13T08:29:40.000Z</time>
      </trkpt>
      <trkpt lat="47.50179" lon="6.76283">
        <ele>386</ele>
        <time>2016-03-13T08:29:41.000Z</time>
      </trkpt>
      <trkpt lat="47.50176" lon="6.76273">
        <ele>386</ele>
        <time>2016-03-13T08:29:42.000Z</time>
      </trkpt>
      <trkpt lat="47.50172" lon="6.76264">
        <ele>386</ele>
        <time>2016-03-13T08:29:43.000Z</time>
      </trkpt>
      <trkpt lat="47.50169" lon="6.76254">
        <ele>386</ele>
        <time>2016-03-13T08:29:44.000Z</time>
      </trkpt>
      <trkpt lat="47.50168" lon="6.76243">
        <ele>384</ele>
        <time>2016-03-13T08:29:45.000Z</time>
      </trkpt>
      <trkpt lat="47.50167" lon="6.76232">
        <ele>383</ele>
        <time>2016-03-13T08:29:46.000Z</time>
      </trkpt>
      <trkpt lat="47.50164" lon="6.76221">
        <ele>388</ele>
        <time>2016-03-13T08:29:47.000Z</time>
      </trkpt>
      <trkpt lat="47.50164" lon="6.7621">
        <ele>387</ele>
        <time>2016-03-13T08:29:48.000Z</time>
      </trkpt>
      <trkpt lat="47.50164" lon="6.76198">
        <ele>386</ele>
        <time>2016-03-13T08:29:49.000Z</time>
      </trkpt>
      <trkpt lat="47.50164" lon="6.76185">
        <ele>384</ele>
        <time>2016-03-13T08:29:50.000Z</time>
      </trkpt>
      <trkpt lat="47.50162" lon="6.76172">
        <ele>380</ele>
        <time>2016-03-13T08:29:51.000Z</time>
      </trkpt>
      <trkpt lat="47.50162" lon="6.7616">
        <ele>379</ele>
        <time>2016-03-13T08:29:52.000Z</time>
      </trkpt>
      <trkpt lat="47.50162" lon="6.76147">
        <ele>380</ele>
        <time>2016-03-13T08:29:53.000Z</time>
      </trkpt>
      <trkpt lat="47.5016" lon="6.76135">
        <ele>381</ele>
        <time>2016-03-13T08:29:54.000Z</time>
      </trkpt>
      <trkpt lat="47.50159" lon="6.76124">
        <ele>381</ele>
        <time>2016-03-13T08:29:55.000Z</time>
      </trkpt>
      <trkpt lat="47.50157" lon="6.76112">
        <ele>380</ele>
        <time>2016-03-13T08:29:56.000Z</time>
      </trkpt>
      <trkpt lat="47.50155" lon="6.76098">
        <ele>379</ele>
        <time>2016-03-13T08:29:57.000Z</time>
      </trkpt>
      <trkpt lat="47.50152" lon="6.76085">
        <ele>378</ele>
        <time>2016-03-13T08:29:58.000Z</time>
      </trkpt>
      <trkpt lat="47.50148" lon="6.76072">
        <ele>377</ele>
        <time>2016-03-13T08:29:59.000Z</time>
      </trkpt>
      <trkpt lat="47.50149" lon="6.76059">
        <ele>377</ele>
        <time>2016-03-13T08:30:00.000Z</time>
      </trkpt>
      <trkpt lat="47.50153" lon="6.76045">
        <ele>377</ele>
        <time>2016-03-13T08:30:01.000Z</time>
      </trkpt>
      <trkpt lat="47.50154" lon="6.76029">
        <ele>376</ele>
        <time>2016-03-13T08:30:02.000Z</time>
      </trkpt>
      <trkpt lat="47.50156" lon="6.76016">
        <ele>375</ele>
        <time>2016-03-13T08:30:03.000Z</time>
      </trkpt>
      <trkpt lat="47.50145" lon="6.76001">
        <ele>375</ele>
        <time>2016-03-13T08:30:04.000Z</time>
      </trkpt>
      <trkpt lat="47.50144" lon="6.75992">
        <ele>372</ele>
        <time>2016-03-13T08:30:05.000Z</time>
      </trkpt>
      <trkpt lat="47.50124" lon="6.75983">
        <ele>373</ele>
        <time>2016-03-13T08:30:06.000Z</time>
      </trkpt>
      <trkpt lat="47.50114" lon="6.75976">
        <ele>373</ele>
        <time>2016-03-13T08:30:07.000Z</time>
      </trkpt>
      <trkpt lat="47.50105" lon="6.75968">
        <ele>374</ele>
        <time>2016-03-13T08:30:08.000Z</time>
      </trkpt>
      <trkpt lat="47.50102" lon="6.7596">
        <ele>373</ele>
        <time>2016-03-13T08:30:09.000Z</time>
      </trkpt>
      <trkpt lat="47.50098" lon="6.75952">
        <ele>373</ele>
        <time>2016-03-13T08:30:10.000Z</time>
      </trkpt>
      <trkpt lat="47.50091" lon="6.75944">
        <ele>373</ele>
        <time>2016-03-13T08:30:11.000Z</time>
      </trkpt>
      <trkpt lat="47.50086" lon="6.75933">
        <ele>373</ele>
        <time>2016-03-13T08:30:12.000Z</time>
      </trkpt>
      <trkpt lat="47.50083" lon="6.75925">
        <ele>373</ele>
        <time>2016-03-13T08:30:13.000Z</time>
      </trkpt>
      <trkpt lat="47.50082" lon="6.75918">
        <ele>374</ele>
        <time>2016-03-13T08:30:14.000Z</time>
      </trkpt>
      <trkpt lat="47.50076" lon="6.75908">
        <ele>375</ele>
        <time>2016-03-13T08:30:15.000Z</time>
      </trkpt>
      <trkpt lat="47.50071" lon="6.75899">
        <ele>375</ele>
        <time>2016-03-13T08:30:16.000Z</time>
      </trkpt>
      <trkpt lat="47.50067" lon="6.7589">
        <ele>375</ele>
        <time>2016-03-13T08:30:17.000Z</time>
      </trkpt>
      <trkpt lat="47.50064" lon="6.75883">
        <ele>375</ele>
        <time>2016-03-13T08:30:18.000Z</time>
      </trkpt>
      <trkpt lat="47.50062" lon="6.75874">
        <ele>375</ele>
        <time>2016-03-13T08:30:19.000Z</time>
      </trkpt>
      <trkpt lat="47.50058" lon="6.75865">
        <ele>375</ele>
        <time>2016-03-13T08:30:20.000Z</time>
      </trkpt>
      <trkpt lat="47.50055" lon="6.75856">
        <ele>375</ele>
        <time>2016-03-13T08:30:21.000Z</time>
      </trkpt>
      <trkpt lat="47.50047" lon="6.75844">
        <ele>376</ele>
        <time>2016-03-13T08:30:22.000Z</time>
      </trkpt>
      <trkpt lat="47.50034" lon="6.75832">
        <ele>375</ele>
        <time>2016-03-13T08:30:23.000Z</time>
      </trkpt>
      <trkpt lat="47.50026" lon="6.75821">
        <ele>376</ele>
        <time>2016-03-13T08:30:24.000Z</time>
      </trkpt>
      <trkpt lat="47.5002" lon="6.7581">
        <ele>376</ele>
        <time>2016-03-13T08:30:25.000Z</time>
      </trkpt>
      <trkpt lat="47.50014" lon="6.75801">
        <ele>375</ele>
        <time>2016-03-13T08:30:26.000Z</time>
      </trkpt>
      <trkpt lat="47.50005" lon="6.75792">
        <ele>375</ele>
        <time>2016-03-13T08:30:27.000Z</time>
      </trkpt>
      <trkpt lat="47.5" lon="6.75781">
        <ele>375</ele>
        <time>2016-03-13T08:30:28.000Z</time>
      </trkpt>
      <trkpt lat="47.49989" lon="6.7577">
        <ele>375</ele>
        <time>2016-03-13T08:30:29.000Z</time>
      </trkpt>
      <trkpt lat="47.4998" lon="6.7576">
        <ele>375</ele>
        <time>2016-03-13T08:30:30.000Z</time>
      </trkpt>
      <trkpt lat="47.49973" lon="6.75754">
        <ele>375</ele>
        <time>2016-03-13T08:30:31.000Z</time>
      </trkpt>
      <trkpt lat="47.49967" lon="6.75745">
        <ele>372</ele>
        <time>2016-03-13T08:30:32.000Z</time>
      </trkpt>
      <trkpt lat="47.4996" lon="6.75735">
        <ele>371</ele>
        <time>2016-03-13T08:30:33.000Z</time>
      </trkpt>
      <trkpt lat="47.49955" lon="6.75726">
        <ele>371</ele>
        <time>2016-03-13T08:30:34.000Z</time>
      </trkpt>
      <trkpt lat="47.49949" lon="6.75718">
        <ele>370</ele>
        <time>2016-03-13T08:30:35.000Z</time>
      </trkpt>
      <trkpt lat="47.49944" lon="6.75713">
        <ele>370</ele>
        <time>2016-03-13T08:30:36.000Z</time>
      </trkpt>
      <trkpt lat="47.49941" lon="6.75715">
        <ele>370</ele>
        <time>2016-03-13T08:30:38.000Z</time>
      </trkpt>
      <trkpt lat="47.49929" lon="6.75716">
        <ele>370</ele>
        <time>2016-03-13T08:30:39.000Z</time>
      </trkpt>
      <trkpt lat="47.49923" lon="6.75719">
        <ele>370</ele>
        <time>2016-03-13T08:30:40.000Z</time>
      </trkpt>
      <trkpt lat="47.49897" lon="6.75719">
        <ele>364</ele>
        <time>2016-03-13T08:30:41.000Z</time>
      </trkpt>
      <trkpt lat="47.49883" lon="6.7572">
        <ele>363</ele>
        <time>2016-03-13T08:30:42.000Z</time>
      </trkpt>
      <trkpt lat="47.49871" lon="6.75716">
        <ele>362</ele>
        <time>2016-03-13T08:30:43.000Z</time>
      </trkpt>
      <trkpt lat="47.49858" lon="6.75712">
        <ele>361</ele>
        <time>2016-03-13T08:30:44.000Z</time>
      </trkpt>
      <trkpt lat="47.49852" lon="6.75714">
        <ele>361</ele>
        <time>2016-03-13T08:30:45.000Z</time>
      </trkpt>
      <trkpt lat="47.49844" lon="6.75715">
        <ele>361</ele>
        <time>2016-03-13T08:30:46.000Z</time>
      </trkpt>
      <trkpt lat="47.49831" lon="6.75717">
        <ele>353</ele>
        <time>2016-03-13T08:30:47.000Z</time>
      </trkpt>
      <trkpt lat="47.49818" lon="6.75717">
        <ele>353</ele>
        <time>2016-03-13T08:30:48.000Z</time>
      </trkpt>
      <trkpt lat="47.49804" lon="6.75717">
        <ele>352</ele>
        <time>2016-03-13T08:30:49.000Z</time>
      </trkpt>
      <trkpt lat="47.49793" lon="6.75718">
        <ele>351</ele>
        <time>2016-03-13T08:30:50.000Z</time>
      </trkpt>
      <trkpt lat="47.4978" lon="6.75728">
        <ele>351</ele>
        <time>2016-03-13T08:30:51.000Z</time>
      </trkpt>
      <trkpt lat="47.49769" lon="6.75731">
        <ele>350</ele>
        <time>2016-03-13T08:30:52.000Z</time>
      </trkpt>
      <trkpt lat="47.49758" lon="6.75736">
        <ele>350</ele>
        <time>2016-03-13T08:30:53.000Z</time>
      </trkpt>
      <trkpt lat="47.49748" lon="6.75741">
        <ele>348</ele>
        <time>2016-03-13T08:30:54.000Z</time>
      </trkpt>
      <trkpt lat="47.49739" lon="6.75745">
        <ele>347</ele>
        <time>2016-03-13T08:30:55.000Z</time>
      </trkpt>
      <trkpt lat="47.4973" lon="6.75749">
        <ele>345</ele>
        <time>2016-03-13T08:30:56.000Z</time>
      </trkpt>
      <trkpt lat="47.49721" lon="6.75751">
        <ele>353</ele>
        <time>2016-03-13T08:30:57.000Z</time>
      </trkpt>
      <trkpt lat="47.49713" lon="6.75754">
        <ele>352</ele>
        <time>2016-03-13T08:30:58.000Z</time>
      </trkpt>
      <trkpt lat="47.49704" lon="6.75758">
        <ele>352</ele>
        <time>2016-03-13T08:30:59.000Z</time>
      </trkpt>
      <trkpt lat="47.49693" lon="6.75759">
        <ele>351</ele>
        <time>2016-03-13T08:31:00.000Z</time>
      </trkpt>
      <trkpt lat="47.49685" lon="6.75761">
        <ele>350</ele>
        <time>2016-03-13T08:31:01.000Z</time>
      </trkpt>
      <trkpt lat="47.49676" lon="6.75763">
        <ele>349</ele>
        <time>2016-03-13T08:31:02.000Z</time>
      </trkpt>
      <trkpt lat="47.49668" lon="6.75763">
        <ele>348</ele>
        <time>2016-03-13T08:31:03.000Z</time>
      </trkpt>
      <trkpt lat="47.4966" lon="6.75763">
        <ele>345</ele>
        <time>2016-03-13T08:31:04.000Z</time>
      </trkpt>
      <trkpt lat="47.49652" lon="6.75763">
        <ele>345</ele>
        <time>2016-03-13T08:31:05.000Z</time>
      </trkpt>
      <trkpt lat="47.49637" lon="6.75758">
        <ele>345</ele>
        <time>2016-03-13T08:31:06.000Z</time>
      </trkpt>
      <trkpt lat="47.49627" lon="6.75759">
        <ele>344</ele>
        <time>2016-03-13T08:31:07.000Z</time>
      </trkpt>
      <trkpt lat="47.49622" lon="6.75762">
        <ele>344</ele>
        <time>2016-03-13T08:31:08.000Z</time>
      </trkpt>
      <trkpt lat="47.49616" lon="6.75764">
        <ele>343</ele>
        <time>2016-03-13T08:31:09.000Z</time>
      </trkpt>
      <trkpt lat="47.49607" lon="6.75764">
        <ele>342</ele>
        <time>2016-03-13T08:31:10.000Z</time>
      </trkpt>
      <trkpt lat="47.496" lon="6.75763">
        <ele>341</ele>
        <time>2016-03-13T08:31:11.000Z</time>
      </trkpt>
      <trkpt lat="47.49593" lon="6.75761">
        <ele>339</ele>
        <time>2016-03-13T08:31:12.000Z</time>
      </trkpt>
      <trkpt lat="47.49586" lon="6.75759">
        <ele>338</ele>
        <time>2016-03-13T08:31:13.000Z</time>
      </trkpt>
      <trkpt lat="47.4958" lon="6.75758">
        <ele>335</ele>
        <time>2016-03-13T08:31:14.000Z</time>
      </trkpt>
      <trkpt lat="47.49574" lon="6.75755">
        <ele>335</ele>
        <time>2016-03-13T08:31:15.000Z</time>
      </trkpt>
      <trkpt lat="47.49573" lon="6.75749">
        <ele>331</ele>
        <time>2016-03-13T08:31:17.000Z</time>
      </trkpt>
      <trkpt lat="47.49571" lon="6.75742">
        <ele>330</ele>
        <time>2016-03-13T08:31:18.000Z</time>
      </trkpt>
      <trkpt lat="47.49572" lon="6.75739">
        <ele>330</ele>
        <time>2016-03-13T08:31:24.000Z</time>
      </trkpt>
      <trkpt lat="47.49577" lon="6.75735">
        <ele>329</ele>
        <time>2016-03-13T08:31:25.000Z</time>
      </trkpt>
      <trkpt lat="47.49582" lon="6.75732">
        <ele>329</ele>
        <time>2016-03-13T08:31:26.000Z</time>
      </trkpt>
      <trkpt lat="47.49586" lon="6.75726">
        <ele>332</ele>
        <time>2016-03-13T08:31:27.000Z</time>
      </trkpt>
      <trkpt lat="47.49591" lon="6.7572">
        <ele>331</ele>
        <time>2016-03-13T08:31:28.000Z</time>
      </trkpt>
      <trkpt lat="47.49595" lon="6.75714">
        <ele>331</ele>
        <time>2016-03-13T08:31:29.000Z</time>
      </trkpt>
      <trkpt lat="47.496" lon="6.75712">
        <ele>331</ele>
        <time>2016-03-13T08:31:30.000Z</time>
      </trkpt>
      <trkpt lat="47.49603" lon="6.75707">
        <ele>330</ele>
        <time>2016-03-13T08:31:31.000Z</time>
      </trkpt>
      <trkpt lat="47.49599" lon="6.75693">
        <ele>328</ele>
        <time>2016-03-13T08:31:32.000Z</time>
      </trkpt>
      <trkpt lat="47.49596" lon="6.75684">
        <ele>327</ele>
        <time>2016-03-13T08:31:33.000Z</time>
      </trkpt>
      <trkpt lat="47.49592" lon="6.7568">
        <ele>326</ele>
        <time>2016-03-13T08:31:34.000Z</time>
      </trkpt>
      <trkpt lat="47.49589" lon="6.75674">
        <ele>324</ele>
        <time>2016-03-13T08:31:35.000Z</time>
      </trkpt>
      <trkpt lat="47.49585" lon="6.75669">
        <ele>322</ele>
        <time>2016-03-13T08:31:36.000Z</time>
      </trkpt>
      <trkpt lat="47.49578" lon="6.75668">
        <ele>322</ele>
        <time>2016-03-13T08:31:37.000Z</time>
      </trkpt>
      <trkpt lat="47.49573" lon="6.75668">
        <ele>322</ele>
        <time>2016-03-13T08:31:38.000Z</time>
      </trkpt>
      <trkpt lat="47.49568" lon="6.75673">
        <ele>323</ele>
        <time>2016-03-13T08:31:39.000Z</time>
      </trkpt>
      <trkpt lat="47.49564" lon="6.7568">
        <ele>324</ele>
        <time>2016-03-13T08:31:40.000Z</time>
      </trkpt>
      <trkpt lat="47.4956" lon="6.75684">
        <ele>324</ele>
        <time>2016-03-13T08:31:41.000Z</time>
      </trkpt>
      <trkpt lat="47.49555" lon="6.75689">
        <ele>324</ele>
        <time>2016-03-13T08:31:42.000Z</time>
      </trkpt>
      <trkpt lat="47.49551" lon="6.75695">
        <ele>325</ele>
        <time>2016-03-13T08:31:43.000Z</time>
      </trkpt>
      <trkpt lat="47.49548" lon="6.75704">
        <ele>325</ele>
        <time>2016-03-13T08:31:44.000Z</time>
      </trkpt>
      <trkpt lat="47.49543" lon="6.75708">
        <ele>325</ele>
        <time>2016-03-13T08:31:45.000Z</time>
      </trkpt>
      <trkpt lat="47.49538" lon="6.75712">
        <ele>325</ele>
        <time>2016-03-13T08:31:46.000Z</time>
      </trkpt>
      <trkpt lat="47.49533" lon="6.75716">
        <ele>325</ele>
        <time>2016-03-13T08:31:47.000Z</time>
      </trkpt>
      <trkpt lat="47.49527" lon="6.7572">
        <ele>325</ele>
        <time>2016-03-13T08:31:48.000Z</time>
      </trkpt>
      <trkpt lat="47.49521" lon="6.75722">
        <ele>325</ele>
        <time>2016-03-13T08:31:49.000Z</time>
      </trkpt>
      <trkpt lat="47.49516" lon="6.75725">
        <ele>325</ele>
        <time>2016-03-13T08:31:50.000Z</time>
      </trkpt>
      <trkpt lat="47.4951" lon="6.75728">
        <ele>325</ele>
        <time>2016-03-13T08:31:51.000Z</time>
      </trkpt>
      <trkpt lat="47.49505" lon="6.75731">
        <ele>325</ele>
        <time>2016-03-13T08:31:52.000Z</time>
      </trkpt>
      <trkpt lat="47.49498" lon="6.75732">
        <ele>322</ele>
        <time>2016-03-13T08:31:53.000Z</time>
      </trkpt>
      <trkpt lat="47.49493" lon="6.75734">
        <ele>322</ele>
        <time>2016-03-13T08:31:54.000Z</time>
      </trkpt>
      <trkpt lat="47.49488" lon="6.75735">
        <ele>322</ele>
        <time>2016-03-13T08:31:55.000Z</time>
      </trkpt>
      <trkpt lat="47.49482" lon="6.75732">
        <ele>322</ele>
        <time>2016-03-13T08:31:56.000Z</time>
      </trkpt>
      <trkpt lat="47.49479" lon="6.75725">
        <ele>322</ele>
        <time>2016-03-13T08:31:57.000Z</time>
      </trkpt>
      <trkpt lat="47.49476" lon="6.75718">
        <ele>321</ele>
        <time>2016-03-13T08:31:58.000Z</time>
      </trkpt>
      <trkpt lat="47.49474" lon="6.75712">
        <ele>321</ele>
        <time>2016-03-13T08:31:59.000Z</time>
      </trkpt>
      <trkpt lat="47.49471" lon="6.75706">
        <ele>321</ele>
        <time>2016-03-13T08:32:00.000Z</time>
      </trkpt>
      <trkpt lat="47.4947" lon="6.75699">
        <ele>321</ele>
        <time>2016-03-13T08:32:01.000Z</time>
      </trkpt>
      <trkpt lat="47.49465" lon="6.75694">
        <ele>321</ele>
        <time>2016-03-13T08:32:02.000Z</time>
      </trkpt>
      <trkpt lat="47.4946" lon="6.75693">
        <ele>321</ele>
        <time>2016-03-13T08:32:03.000Z</time>
      </trkpt>
      <trkpt lat="47.49455" lon="6.75694">
        <ele>321</ele>
        <time>2016-03-13T08:32:04.000Z</time>
      </trkpt>
      <trkpt lat="47.4945" lon="6.75697">
        <ele>321</ele>
        <time>2016-03-13T08:32:05.000Z</time>
      </trkpt>
      <trkpt lat="47.49446" lon="6.75698">
        <ele>321</ele>
        <time>2016-03-13T08:32:06.000Z</time>
      </trkpt>
      <trkpt lat="47.49442" lon="6.75694">
        <ele>321</ele>
        <time>2016-03-13T08:32:07.000Z</time>
      </trkpt>
      <trkpt lat="47.49439" lon="6.75691">
        <ele>320</ele>
        <time>2016-03-13T08:32:08.000Z</time>
      </trkpt>
      <trkpt lat="47.49437" lon="6.75684">
        <ele>320</ele>
        <time>2016-03-13T08:32:09.000Z</time>
      </trkpt>
      <trkpt lat="47.49436" lon="6.75678">
        <ele>320</ele>
        <time>2016-03-13T08:32:10.000Z</time>
      </trkpt>
      <trkpt lat="47.49434" lon="6.75672">
        <ele>320</ele>
        <time>2016-03-13T08:32:11.000Z</time>
      </trkpt>
      <trkpt lat="47.49429" lon="6.7567">
        <ele>320</ele>
        <time>2016-03-13T08:32:12.000Z</time>
      </trkpt>
      <trkpt lat="47.49425" lon="6.75671">
        <ele>320</ele>
        <time>2016-03-13T08:32:13.000Z</time>
      </trkpt>
      <trkpt lat="47.4942" lon="6.75672">
        <ele>319</ele>
        <time>2016-03-13T08:32:14.000Z</time>
      </trkpt>
      <trkpt lat="47.49417" lon="6.75673">
        <ele>319</ele>
        <time>2016-03-13T08:32:15.000Z</time>
      </trkpt>
      <trkpt lat="47.49413" lon="6.75676">
        <ele>319</ele>
        <time>2016-03-13T08:32:16.000Z</time>
      </trkpt>
      <trkpt lat="47.4941" lon="6.7568">
        <ele>319</ele>
        <time>2016-03-13T08:32:17.000Z</time>
      </trkpt>
      <trkpt lat="47.49405" lon="6.75681">
        <ele>319</ele>
        <time>2016-03-13T08:32:18.000Z</time>
      </trkpt>
      <trkpt lat="47.49401" lon="6.75684">
        <ele>319</ele>
        <time>2016-03-13T08:32:19.000Z</time>
      </trkpt>
      <trkpt lat="47.49397" lon="6.75687">
        <ele>319</ele>
        <time>2016-03-13T08:32:20.000Z</time>
      </trkpt>
      <trkpt lat="47.49393" lon="6.75691">
        <ele>319</ele>
        <time>2016-03-13T08:32:21.000Z</time>
      </trkpt>
      <trkpt lat="47.49389" lon="6.75693">
        <ele>319</ele>
        <time>2016-03-13T08:32:22.000Z</time>
      </trkpt>
      <trkpt lat="47.49385" lon="6.75695">
        <ele>319</ele>
        <time>2016-03-13T08:32:23.000Z</time>
      </trkpt>
      <trkpt lat="47.49382" lon="6.75696">
        <ele>319</ele>
        <time>2016-03-13T08:32:24.000Z</time>
      </trkpt>
      <trkpt lat="47.49379" lon="6.75698">
        <ele>319</ele>
        <time>2016-03-13T08:32:25.000Z</time>
      </trkpt>
      <trkpt lat="47.49377" lon="6.75696">
        <ele>319</ele>
        <time>2016-03-13T08:32:26.000Z</time>
      </trkpt>
      <trkpt lat="47.49375" lon="6.75696">
        <ele>319</ele>
        <time>2016-03-13T08:32:27.000Z</time>
      </trkpt>
      <trkpt lat="47.49372" lon="6.75698">
        <ele>319</ele>
        <time>2016-03-13T08:32:28.000Z</time>
      </trkpt>
      <trkpt lat="47.49368" lon="6.75698">
        <ele>319</ele>
        <time>2016-03-13T08:32:29.000Z</time>
      </trkpt>
      <trkpt lat="47.49365" lon="6.75702">
        <ele>319</ele>
        <time>2016-03-13T08:32:30.000Z</time>
      </trkpt>
      <trkpt lat="47.49362" lon="6.75703">
        <ele>319</ele>
        <time>2016-03-13T08:32:31.000Z</time>
      </trkpt>
      <trkpt lat="47.4936" lon="6.75704">
        <ele>319</ele>
        <time>2016-03-13T08:32:32.000Z</time>
      </trkpt>
      <trkpt lat="47.49357" lon="6.75705">
        <ele>319</ele>
        <time>2016-03-13T08:32:33.000Z</time>
      </trkpt>
      <trkpt lat="47.49355" lon="6.75708">
        <ele>319</ele>
        <time>2016-03-13T08:32:34.000Z</time>
      </trkpt>
      <trkpt lat="47.49352" lon="6.7571">
        <ele>319</ele>
        <time>2016-03-13T08:32:35.000Z</time>
      </trkpt>
      <trkpt lat="47.49346" lon="6.75715">
        <ele>319</ele>
        <time>2016-03-13T08:32:36.000Z</time>
      </trkpt>
      <trkpt lat="47.49341" lon="6.75718">
        <ele>318</ele>
        <time>2016-03-13T08:32:37.000Z</time>
      </trkpt>
      <trkpt lat="47.49335" lon="6.75721">
        <ele>318</ele>
        <time>2016-03-13T08:32:38.000Z</time>
      </trkpt>
      <trkpt lat="47.49329" lon="6.75724">
        <ele>319</ele>
        <time>2016-03-13T08:32:39.000Z</time>
      </trkpt>
      <trkpt lat="47.49325" lon="6.75727">
        <ele>319</ele>
        <time>2016-03-13T08:32:40.000Z</time>
      </trkpt>
      <trkpt lat="47.4932" lon="6.75733">
        <ele>319</ele>
        <time>2016-03-13T08:32:41.000Z</time>
      </trkpt>
      <trkpt lat="47.49314" lon="6.75737">
        <ele>319</ele>
        <time>2016-03-13T08:32:42.000Z</time>
      </trkpt>
      <trkpt lat="47.49308" lon="6.75746">
        <ele>319</ele>
        <time>2016-03-13T08:32:43.000Z</time>
      </trkpt>
      <trkpt lat="47.49303" lon="6.75751">
        <ele>318</ele>
        <time>2016-03-13T08:32:44.000Z</time>
      </trkpt>
      <trkpt lat="47.49298" lon="6.75754">
        <ele>318</ele>
        <time>2016-03-13T08:32:45.000Z</time>
      </trkpt>
      <trkpt lat="47.49294" lon="6.75757">
        <ele>318</ele>
        <time>2016-03-13T08:32:46.000Z</time>
      </trkpt>
      <trkpt lat="47.4929" lon="6.75762">
        <ele>318</ele>
        <time>2016-03-13T08:32:47.000Z</time>
      </trkpt>
      <trkpt lat="47.49286" lon="6.75767">
        <ele>318</ele>
        <time>2016-03-13T08:32:48.000Z</time>
      </trkpt>
      <trkpt lat="47.4928" lon="6.75771">
        <ele>318</ele>
        <time>2016-03-13T08:32:49.000Z</time>
      </trkpt>
      <trkpt lat="47.49276" lon="6.75775">
        <ele>318</ele>
        <time>2016-03-13T08:32:50.000Z</time>
      </trkpt>
      <trkpt lat="47.4927" lon="6.75779">
        <ele>318</ele>
        <time>2016-03-13T08:32:51.000Z</time>
      </trkpt>
      <trkpt lat="47.49268" lon="6.75791">
        <ele>317</ele>
        <time>2016-03-13T08:32:52.000Z</time>
      </trkpt>
      <trkpt lat="47.49266" lon="6.75799">
        <ele>317</ele>
        <time>2016-03-13T08:32:53.000Z</time>
      </trkpt>
      <trkpt lat="47.4926" lon="6.75803">
        <ele>317</ele>
        <time>2016-03-13T08:32:54.000Z</time>
      </trkpt>
      <trkpt lat="47.49255" lon="6.75808">
        <ele>316</ele>
        <time>2016-03-13T08:32:55.000Z</time>
      </trkpt>
      <trkpt lat="47.49253" lon="6.75814">
        <ele>316</ele>
        <time>2016-03-13T08:32:56.000Z</time>
      </trkpt>
      <trkpt lat="47.4925" lon="6.7582">
        <ele>317</ele>
        <time>2016-03-13T08:32:57.000Z</time>
      </trkpt>
      <trkpt lat="47.49246" lon="6.75826">
        <ele>316</ele>
        <time>2016-03-13T08:32:58.000Z</time>
      </trkpt>
      <trkpt lat="47.49242" lon="6.75832">
        <ele>316</ele>
        <time>2016-03-13T08:32:59.000Z</time>
      </trkpt>
      <trkpt lat="47.49238" lon="6.75839">
        <ele>316</ele>
        <time>2016-03-13T08:33:00.000Z</time>
      </trkpt>
      <trkpt lat="47.49233" lon="6.75842">
        <ele>317</ele>
        <time>2016-03-13T08:33:01.000Z</time>
      </trkpt>
      <trkpt lat="47.49228" lon="6.75841">
        <ele>317</ele>
        <time>2016-03-13T08:33:02.000Z</time>
      </trkpt>
      <trkpt lat="47.49224" lon="6.75848">
        <ele>318</ele>
        <time>2016-03-13T08:33:03.000Z</time>
      </trkpt>
      <trkpt lat="47.49221" lon="6.75855">
        <ele>318</ele>
        <time>2016-03-13T08:33:04.000Z</time>
      </trkpt>
      <trkpt lat="47.49218" lon="6.75859">
        <ele>319</ele>
        <time>2016-03-13T08:33:05.000Z</time>
      </trkpt>
      <trkpt lat="47.49215" lon="6.75868">
        <ele>319</ele>
        <time>2016-03-13T08:33:06.000Z</time>
      </trkpt>
      <trkpt lat="47.49212" lon="6.75873">
        <ele>319</ele>
        <time>2016-03-13T08:33:07.000Z</time>
      </trkpt>
      <trkpt lat="47.49211" lon="6.75883">
        <ele>319</ele>
        <time>2016-03-13T08:33:08.000Z</time>
      </trkpt>
      <trkpt lat="47.49207" lon="6.75888">
        <ele>320</ele>
        <time>2016-03-13T08:33:09.000Z</time>
      </trkpt>
      <trkpt lat="47.49205" lon="6.75898">
        <ele>320</ele>
        <time>2016-03-13T08:33:10.000Z</time>
      </trkpt>
      <trkpt lat="47.49204" lon="6.75907">
        <ele>320</ele>
        <time>2016-03-13T08:33:11.000Z</time>
      </trkpt>
      <trkpt lat="47.49204" lon="6.75915">
        <ele>320</ele>
        <time>2016-03-13T08:33:12.000Z</time>
      </trkpt>
      <trkpt lat="47.49202" lon="6.7592">
        <ele>320</ele>
        <time>2016-03-13T08:33:13.000Z</time>
      </trkpt>
      <trkpt lat="47.49198" lon="6.75925">
        <ele>321</ele>
        <time>2016-03-13T08:33:14.000Z</time>
      </trkpt>
      <trkpt lat="47.49194" lon="6.75933">
        <ele>321</ele>
        <time>2016-03-13T08:33:15.000Z</time>
      </trkpt>
      <trkpt lat="47.4919" lon="6.75937">
        <ele>321</ele>
        <time>2016-03-13T08:33:16.000Z</time>
      </trkpt>
      <trkpt lat="47.49187" lon="6.75948">
        <ele>321</ele>
        <time>2016-03-13T08:33:17.000Z</time>
      </trkpt>
      <trkpt lat="47.49183" lon="6.75953">
        <ele>321</ele>
        <time>2016-03-13T08:33:18.000Z</time>
      </trkpt>
      <trkpt lat="47.4918" lon="6.75959">
        <ele>320</ele>
        <time>2016-03-13T08:33:19.000Z</time>
      </trkpt>
      <trkpt lat="47.49177" lon="6.75968">
        <ele>320</ele>
        <time>2016-03-13T08:33:20.000Z</time>
      </trkpt>
      <trkpt lat="47.49174" lon="6.75976">
        <ele>320</ele>
        <time>2016-03-13T08:33:21.000Z</time>
      </trkpt>
      <trkpt lat="47.4917" lon="6.75981">
        <ele>320</ele>
        <time>2016-03-13T08:33:22.000Z</time>
      </trkpt>
      <trkpt lat="47.49166" lon="6.75985">
        <ele>323</ele>
        <time>2016-03-13T08:33:23.000Z</time>
      </trkpt>
      <trkpt lat="47.49162" lon="6.75991">
        <ele>322</ele>
        <time>2016-03-13T08:33:24.000Z</time>
      </trkpt>
      <trkpt lat="47.49159" lon="6.75997">
        <ele>322</ele>
        <time>2016-03-13T08:33:25.000Z</time>
      </trkpt>
      <trkpt lat="47.49156" lon="6.76001">
        <ele>321</ele>
        <time>2016-03-13T08:33:26.000Z</time>
      </trkpt>
      <trkpt lat="47.49153" lon="6.76006">
        <ele>322</ele>
        <time>2016-03-13T08:33:27.000Z</time>
      </trkpt>
      <trkpt lat="47.4915" lon="6.76012">
        <ele>322</ele>
        <time>2016-03-13T08:33:28.000Z</time>
      </trkpt>
      <trkpt lat="47.49148" lon="6.76024">
        <ele>323</ele>
        <time>2016-03-13T08:33:29.000Z</time>
      </trkpt>
      <trkpt lat="47.49145" lon="6.76032">
        <ele>323</ele>
        <time>2016-03-13T08:33:30.000Z</time>
      </trkpt>
      <trkpt lat="47.49143" lon="6.7604">
        <ele>323</ele>
        <time>2016-03-13T08:33:31.000Z</time>
      </trkpt>
      <trkpt lat="47.49141" lon="6.76049">
        <ele>323</ele>
        <time>2016-03-13T08:33:32.000Z</time>
      </trkpt>
      <trkpt lat="47.4914" lon="6.76058">
        <ele>323</ele>
        <time>2016-03-13T08:33:33.000Z</time>
      </trkpt>
      <trkpt lat="47.49138" lon="6.76066">
        <ele>323</ele>
        <time>2016-03-13T08:33:34.000Z</time>
      </trkpt>
      <trkpt lat="47.49135" lon="6.76084">
        <ele>322</ele>
        <time>2016-03-13T08:33:36.000Z</time>
      </trkpt>
      <trkpt lat="47.49133" lon="6.76093">
        <ele>322</ele>
        <time>2016-03-13T08:33:37.000Z</time>
      </trkpt>
      <trkpt lat="47.49132" lon="6.76101">
        <ele>322</ele>
        <time>2016-03-13T08:33:38.000Z</time>
      </trkpt>
      <trkpt lat="47.4913" lon="6.76108">
        <ele>322</ele>
        <time>2016-03-13T08:33:39.000Z</time>
      </trkpt>
      <trkpt lat="47.49129" lon="6.76114">
        <ele>322</ele>
        <time>2016-03-13T08:33:40.000Z</time>
      </trkpt>
      <trkpt lat="47.49129" lon="6.7612">
        <ele>322</ele>
        <time>2016-03-13T08:33:41.000Z</time>
      </trkpt>
      <trkpt lat="47.49128" lon="6.76127">
        <ele>322</ele>
        <time>2016-03-13T08:33:42.000Z</time>
      </trkpt>
      <trkpt lat="47.49126" lon="6.76135">
        <ele>322</ele>
        <time>2016-03-13T08:33:43.000Z</time>
      </trkpt>
      <trkpt lat="47.49125" lon="6.76145">
        <ele>322</ele>
        <time>2016-03-13T08:33:44.000Z</time>
      </trkpt>
      <trkpt lat="47.49123" lon="6.76153">
        <ele>322</ele>
        <time>2016-03-13T08:33:45.000Z</time>
      </trkpt>
      <trkpt lat="47.4912" lon="6.7616">
        <ele>322</ele>
        <time>2016-03-13T08:33:46.000Z</time>
      </trkpt>
      <trkpt lat="47.49121" lon="6.76173">
        <ele>321</ele>
        <time>2016-03-13T08:33:47.000Z</time>
      </trkpt>
      <trkpt lat="47.49122" lon="6.76184">
        <ele>321</ele>
        <time>2016-03-13T08:33:48.000Z</time>
      </trkpt>
      <trkpt lat="47.49122" lon="6.76195">
        <ele>321</ele>
        <time>2016-03-13T08:33:49.000Z</time>
      </trkpt>
      <trkpt lat="47.49121" lon="6.76203">
        <ele>321</ele>
        <time>2016-03-13T08:33:50.000Z</time>
      </trkpt>
      <trkpt lat="47.49118" lon="6.76208">
        <ele>321</ele>
        <time>2016-03-13T08:33:51.000Z</time>
      </trkpt>
      <trkpt lat="47.4912" lon="6.7622">
        <ele>321</ele>
        <time>2016-03-13T08:33:52.000Z</time>
      </trkpt>
      <trkpt lat="47.4912" lon="6.76229">
        <ele>321</ele>
        <time>2016-03-13T08:33:53.000Z</time>
      </trkpt>
      <trkpt lat="47.49119" lon="6.76237">
        <ele>321</ele>
        <time>2016-03-13T08:33:54.000Z</time>
      </trkpt>
      <trkpt lat="47.49119" lon="6.76245">
        <ele>321</ele>
        <time>2016-03-13T08:33:55.000Z</time>
      </trkpt>
      <trkpt lat="47.49118" lon="6.76251">
        <ele>320</ele>
        <time>2016-03-13T08:33:56.000Z</time>
      </trkpt>
      <trkpt lat="47.49117" lon="6.76255">
        <ele>321</ele>
        <time>2016-03-13T08:33:57.000Z</time>
      </trkpt>
      <trkpt lat="47.49116" lon="6.76263">
        <ele>321</ele>
        <time>2016-03-13T08:33:58.000Z</time>
      </trkpt>
      <trkpt lat="47.49117" lon="6.76272">
        <ele>320</ele>
        <time>2016-03-13T08:33:59.000Z</time>
      </trkpt>
      <trkpt lat="47.49117" lon="6.76282">
        <ele>320</ele>
        <time>2016-03-13T08:34:00.000Z</time>
      </trkpt>
      <trkpt lat="47.49116" lon="6.76292">
        <ele>320</ele>
        <time>2016-03-13T08:34:01.000Z</time>
      </trkpt>
      <trkpt lat="47.49115" lon="6.763">
        <ele>320</ele>
        <time>2016-03-13T08:34:02.000Z</time>
      </trkpt>
      <trkpt lat="47.49115" lon="6.76308">
        <ele>320</ele>
        <time>2016-03-13T08:34:03.000Z</time>
      </trkpt>
      <trkpt lat="47.49113" lon="6.76315">
        <ele>320</ele>
        <time>2016-03-13T08:34:04.000Z</time>
      </trkpt>
      <trkpt lat="47.49112" lon="6.76321">
        <ele>320</ele>
        <time>2016-03-13T08:34:05.000Z</time>
      </trkpt>
      <trkpt lat="47.49112" lon="6.76327">
        <ele>320</ele>
        <time>2016-03-13T08:34:06.000Z</time>
      </trkpt>
      <trkpt lat="47.49112" lon="6.76332">
        <ele>320</ele>
        <time>2016-03-13T08:34:07.000Z</time>
      </trkpt>
      <trkpt lat="47.49113" lon="6.76348">
        <ele>319</ele>
        <time>2016-03-13T08:34:08.000Z</time>
      </trkpt>
      <trkpt lat="47.49114" lon="6.76355">
        <ele>319</ele>
        <time>2016-03-13T08:34:09.000Z</time>
      </trkpt>
      <trkpt lat="47.49113" lon="6.76365">
        <ele>319</ele>
        <time>2016-03-13T08:34:10.000Z</time>
      </trkpt>
      <trkpt lat="47.49113" lon="6.76375">
        <ele>318</ele>
        <time>2016-03-13T08:34:11.000Z</time>
      </trkpt>
      <trkpt lat="47.49114" lon="6.76383">
        <ele>318</ele>
        <time>2016-03-13T08:34:12.000Z</time>
      </trkpt>
      <trkpt lat="47.49115" lon="6.76393">
        <ele>318</ele>
        <time>2016-03-13T08:34:13.000Z</time>
      </trkpt>
      <trkpt lat="47.49114" lon="6.764">
        <ele>318</ele>
        <time>2016-03-13T08:34:14.000Z</time>
      </trkpt>
      <trkpt lat="47.49114" lon="6.76411">
        <ele>318</ele>
        <time>2016-03-13T08:34:15.000Z</time>
      </trkpt>
      <trkpt lat="47.49115" lon="6.7642">
        <ele>318</ele>
        <time>2016-03-13T08:34:16.000Z</time>
      </trkpt>
      <trkpt lat="47.49115" lon="6.76429">
        <ele>318</ele>
        <time>2016-03-13T08:34:17.000Z</time>
      </trkpt>
      <trkpt lat="47.49115" lon="6.76438">
        <ele>318</ele>
        <time>2016-03-13T08:34:18.000Z</time>
      </trkpt>
      <trkpt lat="47.49114" lon="6.76445">
        <ele>318</ele>
        <time>2016-03-13T08:34:19.000Z</time>
      </trkpt>
      <trkpt lat="47.49113" lon="6.76451">
        <ele>318</ele>
        <time>2016-03-13T08:34:20.000Z</time>
      </trkpt>
      <trkpt lat="47.49112" lon="6.7646">
        <ele>318</ele>
        <time>2016-03-13T08:34:21.000Z</time>
      </trkpt>
      <trkpt lat="47.49111" lon="6.76468">
        <ele>318</ele>
        <time>2016-03-13T08:34:22.000Z</time>
      </trkpt>
      <trkpt lat="47.49111" lon="6.76476">
        <ele>318</ele>
        <time>2016-03-13T08:34:23.000Z</time>
      </trkpt>
      <trkpt lat="47.4911" lon="6.76483">
        <ele>318</ele>
        <time>2016-03-13T08:34:24.000Z</time>
      </trkpt>
      <trkpt lat="47.4911" lon="6.76491">
        <ele>318</ele>
        <time>2016-03-13T08:34:25.000Z</time>
      </trkpt>
      <trkpt lat="47.49111" lon="6.76499">
        <ele>318</ele>
        <time>2016-03-13T08:34:26.000Z</time>
      </trkpt>
      <trkpt lat="47.49118" lon="6.76513">
        <ele>317</ele>
        <time>2016-03-13T08:34:27.000Z</time>
      </trkpt>
      <trkpt lat="47.49126" lon="6.76519">
        <ele>316</ele>
        <time>2016-03-13T08:34:28.000Z</time>
      </trkpt>
      <trkpt lat="47.49133" lon="6.76518">
        <ele>316</ele>
        <time>2016-03-13T08:34:29.000Z</time>
      </trkpt>
      <trkpt lat="47.49139" lon="6.76521">
        <ele>315</ele>
        <time>2016-03-13T08:34:30.000Z</time>
      </trkpt>
      <trkpt lat="47.49146" lon="6.7652">
        <ele>315</ele>
        <time>2016-03-13T08:34:31.000Z</time>
      </trkpt>
      <trkpt lat="47.49152" lon="6.76518">
        <ele>315</ele>
        <time>2016-03-13T08:34:32.000Z</time>
      </trkpt>
      <trkpt lat="47.49157" lon="6.76515">
        <ele>314</ele>
        <time>2016-03-13T08:34:33.000Z</time>
      </trkpt>
      <trkpt lat="47.49161" lon="6.76512">
        <ele>314</ele>
        <time>2016-03-13T08:34:34.000Z</time>
      </trkpt>
      <trkpt lat="47.49165" lon="6.76509">
        <ele>314</ele>
        <time>2016-03-13T08:34:35.000Z</time>
      </trkpt>
      <trkpt lat="47.49169" lon="6.76509">
        <ele>314</ele>
        <time>2016-03-13T08:34:36.000Z</time>
      </trkpt>
      <trkpt lat="47.49171" lon="6.76509">
        <ele>314</ele>
        <time>2016-03-13T08:34:37.000Z</time>
      </trkpt>
      <trkpt lat="47.49173" lon="6.76507">
        <ele>314</ele>
        <time>2016-03-13T08:34:38.000Z</time>
      </trkpt>
      <trkpt lat="47.49175" lon="6.76505">
        <ele>314</ele>
        <time>2016-03-13T08:34:39.000Z</time>
      </trkpt>
      <trkpt lat="47.4918" lon="6.76503">
        <ele>315</ele>
        <time>2016-03-13T08:34:41.000Z</time>
      </trkpt>
      <trkpt lat="47.4918" lon="6.765">
        <ele>315</ele>
        <time>2016-03-13T08:34:42.000Z</time>
      </trkpt>
      <trkpt lat="47.4918" lon="6.76494">
        <ele>315</ele>
        <time>2016-03-13T08:35:05.000Z</time>
      </trkpt>
      <trkpt lat="47.49181" lon="6.76493">
        <ele>315</ele>
        <time>2016-03-13T08:35:06.000Z</time>
      </trkpt>
      <trkpt lat="47.49176" lon="6.76494">
        <ele>315</ele>
        <time>2016-03-13T08:35:31.000Z</time>
      </trkpt>
      <trkpt lat="47.49176" lon="6.76494">
        <ele>315</ele>
        <time>2016-03-13T08:35:32.000Z</time>
      </trkpt>
      <trkpt lat="47.49174" lon="6.76497">
        <ele>314</ele>
        <time>2016-03-13T08:36:36.000Z</time>
      </trkpt>
      <trkpt lat="47.49173" lon="6.76499">
        <ele>314</ele>
        <time>2016-03-13T08:36:37.000Z</time>
      </trkpt>
      <trkpt lat="47.4917" lon="6.765">
        <ele>313</ele>
        <time>2016-03-13T08:36:38.000Z</time>
      </trkpt>
      <trkpt lat="47.49166" lon="6.76503">
        <ele>313</ele>
        <time>2016-03-13T08:36:39.000Z</time>
      </trkpt>
      <trkpt lat="47.49161" lon="6.76505">
        <ele>314</ele>
        <time>2016-03-13T08:36:40.000Z</time>
      </trkpt>
      <trkpt lat="47.49148" lon="6.76507">
        <ele>315</ele>
        <time>2016-03-13T08:36:41.000Z</time>
      </trkpt>
      <trkpt lat="47.49141" lon="6.76508">
        <ele>315</ele>
        <time>2016-03-13T08:36:42.000Z</time>
      </trkpt>
      <trkpt lat="47.49135" lon="6.76508">
        <ele>316</ele>
        <time>2016-03-13T08:36:43.000Z</time>
      </trkpt>
      <trkpt lat="47.49128" lon="6.76509">
        <ele>316</ele>
        <time>2016-03-13T08:36:44.000Z</time>
      </trkpt>
      <trkpt lat="47.49122" lon="6.7651">
        <ele>316</ele>
        <time>2016-03-13T08:36:45.000Z</time>
      </trkpt>
      <trkpt lat="47.49116" lon="6.76511">
        <ele>317</ele>
        <time>2016-03-13T08:36:45.999Z</time>
      </trkpt>
      <trkpt lat="47.49114" lon="6.76523">
        <ele>317</ele>
        <time>2016-03-13T08:36:47.000Z</time>
      </trkpt>
      <trkpt lat="47.49117" lon="6.76535">
        <ele>316</ele>
        <time>2016-03-13T08:36:48.000Z</time>
      </trkpt>
      <trkpt lat="47.49117" lon="6.76545">
        <ele>316</ele>
        <time>2016-03-13T08:36:49.000Z</time>
      </trkpt>
      <trkpt lat="47.49118" lon="6.76555">
        <ele>316</ele>
        <time>2016-03-13T08:36:50.000Z</time>
      </trkpt>
      <trkpt lat="47.49119" lon="6.76564">
        <ele>316</ele>
        <time>2016-03-13T08:36:51.000Z</time>
      </trkpt>
      <trkpt lat="47.49119" lon="6.76571">
        <ele>316</ele>
        <time>2016-03-13T08:36:52.000Z</time>
      </trkpt>
      <trkpt lat="47.4912" lon="6.7658">
        <ele>316</ele>
        <time>2016-03-13T08:36:53.000Z</time>
      </trkpt>
      <trkpt lat="47.49122" lon="6.76587">
        <ele>314</ele>
        <time>2016-03-13T08:36:54.000Z</time>
      </trkpt>
      <trkpt lat="47.49124" lon="6.76594">
        <ele>314</ele>
        <time>2016-03-13T08:36:55.000Z</time>
      </trkpt>
      <trkpt lat="47.49125" lon="6.76601">
        <ele>314</ele>
        <time>2016-03-13T08:36:56.000Z</time>
      </trkpt>
      <trkpt lat="47.49125" lon="6.76609">
        <ele>314</ele>
        <time>2016-03-13T08:36:57.000Z</time>
      </trkpt>
      <trkpt lat="47.49126" lon="6.76615">
        <ele>314</ele>
        <time>2016-03-13T08:36:58.000Z</time>
      </trkpt>
      <trkpt lat="47.49127" lon="6.76623">
        <ele>314</ele>
        <time>2016-03-13T08:36:59.000Z</time>
      </trkpt>
      <trkpt lat="47.49129" lon="6.7663">
        <ele>314</ele>
        <time>2016-03-13T08:37:00.000Z</time>
      </trkpt>
      <trkpt lat="47.4913" lon="6.76637">
        <ele>314</ele>
        <time>2016-03-13T08:37:01.000Z</time>
      </trkpt>
      <trkpt lat="47.49131" lon="6.76645">
        <ele>314</ele>
        <time>2016-03-13T08:37:02.000Z</time>
      </trkpt>
      <trkpt lat="47.49132" lon="6.76652">
        <ele>314</ele>
        <time>2016-03-13T08:37:03.000Z</time>
      </trkpt>
      <trkpt lat="47.49133" lon="6.7666">
        <ele>314</ele>
        <time>2016-03-13T08:37:04.000Z</time>
      </trkpt>
      <trkpt lat="47.49133" lon="6.76667">
        <ele>314</ele>
        <time>2016-03-13T08:37:05.000Z</time>
      </trkpt>
      <trkpt lat="47.49133" lon="6.76674">
        <ele>314</ele>
        <time>2016-03-13T08:37:06.000Z</time>
      </trkpt>
      <trkpt lat="47.49133" lon="6.7668">
        <ele>313</ele>
        <time>2016-03-13T08:37:07.000Z</time>
      </trkpt>
      <trkpt lat="47.49133" lon="6.76687">
        <ele>313</ele>
        <time>2016-03-13T08:37:08.000Z</time>
      </trkpt>
      <trkpt lat="47.49134" lon="6.76693">
        <ele>313</ele>
        <time>2016-03-13T08:37:09.000Z</time>
      </trkpt>
      <trkpt lat="47.49135" lon="6.767">
        <ele>313</ele>
        <time>2016-03-13T08:37:10.000Z</time>
      </trkpt>
      <trkpt lat="47.49136" lon="6.76706">
        <ele>313</ele>
        <time>2016-03-13T08:37:11.000Z</time>
      </trkpt>
      <trkpt lat="47.49138" lon="6.76712">
        <ele>313</ele>
        <time>2016-03-13T08:37:12.000Z</time>
      </trkpt>
      <trkpt lat="47.49139" lon="6.7672">
        <ele>313</ele>
        <time>2016-03-13T08:37:13.000Z</time>
      </trkpt>
      <trkpt lat="47.4914" lon="6.76727">
        <ele>313</ele>
        <time>2016-03-13T08:37:14.000Z</time>
      </trkpt>
      <trkpt lat="47.49142" lon="6.76734">
        <ele>313</ele>
        <time>2016-03-13T08:37:15.000Z</time>
      </trkpt>
      <trkpt lat="47.49142" lon="6.76741">
        <ele>313</ele>
        <time>2016-03-13T08:37:16.000Z</time>
      </trkpt>
      <trkpt lat="47.49141" lon="6.76748">
        <ele>313</ele>
        <time>2016-03-13T08:37:17.000Z</time>
      </trkpt>
      <trkpt lat="47.49141" lon="6.76755">
        <ele>313</ele>
        <time>2016-03-13T08:37:18.000Z</time>
      </trkpt>
      <trkpt lat="47.49142" lon="6.76763">
        <ele>313</ele>
        <time>2016-03-13T08:37:19.000Z</time>
      </trkpt>
      <trkpt lat="47.49143" lon="6.7677">
        <ele>312</ele>
        <time>2016-03-13T08:37:20.000Z</time>
      </trkpt>
      <trkpt lat="47.49144" lon="6.76776">
        <ele>312</ele>
        <time>2016-03-13T08:37:21.000Z</time>
      </trkpt>
      <trkpt lat="47.49144" lon="6.76781">
        <ele>312</ele>
        <time>2016-03-13T08:37:22.000Z</time>
      </trkpt>
      <trkpt lat="47.49145" lon="6.76787">
        <ele>312</ele>
        <time>2016-03-13T08:37:23.000Z</time>
      </trkpt>
      <trkpt lat="47.49145" lon="6.76792">
        <ele>312</ele>
        <time>2016-03-13T08:37:24.000Z</time>
      </trkpt>
      <trkpt lat="47.49145" lon="6.76798">
        <ele>312</ele>
        <time>2016-03-13T08:37:25.000Z</time>
      </trkpt>
      <trkpt lat="47.49145" lon="6.76804">
        <ele>312</ele>
        <time>2016-03-13T08:37:26.000Z</time>
      </trkpt>
      <trkpt lat="47.49145" lon="6.7681">
        <ele>312</ele>
        <time>2016-03-13T08:37:27.000Z</time>
      </trkpt>
      <trkpt lat="47.49145" lon="6.76817">
        <ele>312</ele>
        <time>2016-03-13T08:37:28.000Z</time>
      </trkpt>
      <trkpt lat="47.49145" lon="6.76823">
        <ele>312</ele>
        <time>2016-03-13T08:37:29.000Z</time>
      </trkpt>
      <trkpt lat="47.49146" lon="6.7683">
        <ele>313</ele>
        <time>2016-03-13T08:37:30.000Z</time>
      </trkpt>
      <trkpt lat="47.49146" lon="6.76836">
        <ele>312</ele>
        <time>2016-03-13T08:37:31.000Z</time>
      </trkpt>
      <trkpt lat="47.49146" lon="6.76842">
        <ele>312</ele>
        <time>2016-03-13T08:37:32.000Z</time>
      </trkpt>
      <trkpt lat="47.49145" lon="6.76851">
        <ele>312</ele>
        <time>2016-03-13T08:37:33.000Z</time>
      </trkpt>
      <trkpt lat="47.49145" lon="6.76858">
        <ele>312</ele>
        <time>2016-03-13T08:37:34.000Z</time>
      </trkpt>
      <trkpt lat="47.49144" lon="6.76865">
        <ele>312</ele>
        <time>2016-03-13T08:37:35.000Z</time>
      </trkpt>
      <trkpt lat="47.49143" lon="6.7687">
        <ele>312</ele>
        <time>2016-03-13T08:37:36.000Z</time>
      </trkpt>
      <trkpt lat="47.49144" lon="6.76877">
        <ele>312</ele>
        <time>2016-03-13T08:37:37.000Z</time>
      </trkpt>
      <trkpt lat="47.49143" lon="6.76883">
        <ele>312</ele>
        <time>2016-03-13T08:37:38.000Z</time>
      </trkpt>
      <trkpt lat="47.49143" lon="6.76889">
        <ele>312</ele>
        <time>2016-03-13T08:37:39.000Z</time>
      </trkpt>
      <trkpt lat="47.49143" lon="6.76896">
        <ele>312</ele>
        <time>2016-03-13T08:37:40.000Z</time>
      </trkpt>
      <trkpt lat="47.49143" lon="6.76903">
        <ele>312</ele>
        <time>2016-03-13T08:37:41.000Z</time>
      </trkpt>
      <trkpt lat="47.49143" lon="6.7691">
        <ele>312</ele>
        <time>2016-03-13T08:37:42.000Z</time>
      </trkpt>
      <trkpt lat="47.49143" lon="6.76916">
        <ele>312</ele>
        <time>2016-03-13T08:37:43.000Z</time>
      </trkpt>
      <trkpt lat="47.49143" lon="6.76923">
        <ele>312</ele>
        <time>2016-03-13T08:37:44.000Z</time>
      </trkpt>
      <trkpt lat="47.49143" lon="6.76929">
        <ele>312</ele>
        <time>2016-03-13T08:37:45.000Z</time>
      </trkpt>
      <trkpt lat="47.49143" lon="6.76934">
        <ele>312</ele>
        <time>2016-03-13T08:37:46.000Z</time>
      </trkpt>
      <trkpt lat="47.49143" lon="6.7694">
        <ele>312</ele>
        <time>2016-03-13T08:37:47.000Z</time>
      </trkpt>
      <trkpt lat="47.49142" lon="6.76945">
        <ele>312</ele>
        <time>2016-03-13T08:37:48.000Z</time>
      </trkpt>
      <trkpt lat="47.49142" lon="6.76949">
        <ele>312</ele>
        <time>2016-03-13T08:37:49.000Z</time>
      </trkpt>
      <trkpt lat="47.49141" lon="6.76952">
        <ele>312</ele>
        <time>2016-03-13T08:37:50.000Z</time>
      </trkpt>
      <trkpt lat="47.49139" lon="6.76958">
        <ele>312</ele>
        <time>2016-03-13T08:37:52.000Z</time>
      </trkpt>
      <trkpt lat="47.49139" lon="6.76962">
        <ele>312</ele>
        <time>2016-03-13T08:37:53.000Z</time>
      </trkpt>
      <trkpt lat="47.49138" lon="6.76967">
        <ele>312</ele>
        <time>2016-03-13T08:37:54.000Z</time>
      </trkpt>
      <trkpt lat="47.49138" lon="6.76971">
        <ele>312</ele>
        <time>2016-03-13T08:37:55.000Z</time>
      </trkpt>
      <trkpt lat="47.49138" lon="6.76976">
        <ele>312</ele>
        <time>2016-03-13T08:37:56.000Z</time>
      </trkpt>
      <trkpt lat="47.49138" lon="6.76981">
        <ele>312</ele>
        <time>2016-03-13T08:37:57.000Z</time>
      </trkpt>
      <trkpt lat="47.4914" lon="6.76985">
        <ele>312</ele>
        <time>2016-03-13T08:37:58.000Z</time>
      </trkpt>
      <trkpt lat="47.49143" lon="6.76988">
        <ele>312</ele>
        <time>2016-03-13T08:37:59.000Z</time>
      </trkpt>
      <trkpt lat="47.49145" lon="6.76992">
        <ele>312</ele>
        <time>2016-03-13T08:38:00.000Z</time>
      </trkpt>
      <trkpt lat="47.49148" lon="6.76996">
        <ele>312</ele>
        <time>2016-03-13T08:38:01.000Z</time>
      </trkpt>
      <trkpt lat="47.49151" lon="6.77">
        <ele>312</ele>
        <time>2016-03-13T08:38:02.000Z</time>
      </trkpt>
      <trkpt lat="47.49153" lon="6.77005">
        <ele>312</ele>
        <time>2016-03-13T08:38:03.000Z</time>
      </trkpt>
      <trkpt lat="47.49155" lon="6.77011">
        <ele>312</ele>
        <time>2016-03-13T08:38:04.000Z</time>
      </trkpt>
      <trkpt lat="47.49157" lon="6.77018">
        <ele>312</ele>
        <time>2016-03-13T08:38:05.000Z</time>
      </trkpt>
      <trkpt lat="47.49159" lon="6.77025">
        <ele>312</ele>
        <time>2016-03-13T08:38:06.000Z</time>
      </trkpt>
      <trkpt lat="47.49161" lon="6.77032">
        <ele>312</ele>
        <time>2016-03-13T08:38:07.000Z</time>
      </trkpt>
      <trkpt lat="47.49162" lon="6.77039">
        <ele>312</ele>
        <time>2016-03-13T08:38:08.000Z</time>
      </trkpt>
      <trkpt lat="47.49163" lon="6.77046">
        <ele>312</ele>
        <time>2016-03-13T08:38:09.000Z</time>
      </trkpt>
      <trkpt lat="47.49164" lon="6.77053">
        <ele>312</ele>
        <time>2016-03-13T08:38:10.000Z</time>
      </trkpt>
      <trkpt lat="47.49165" lon="6.7706">
        <ele>312</ele>
        <time>2016-03-13T08:38:11.000Z</time>
      </trkpt>
      <trkpt lat="47.49165" lon="6.77067">
        <ele>312</ele>
        <time>2016-03-13T08:38:12.000Z</time>
      </trkpt>
      <trkpt lat="47.49166" lon="6.77073">
        <ele>312</ele>
        <time>2016-03-13T08:38:13.000Z</time>
      </trkpt>
      <trkpt lat="47.49167" lon="6.7708">
        <ele>312</ele>
        <time>2016-03-13T08:38:14.000Z</time>
      </trkpt>
      <trkpt lat="47.49167" lon="6.77086">
        <ele>312</ele>
        <time>2016-03-13T08:38:15.000Z</time>
      </trkpt>
      <trkpt lat="47.4917" lon="6.77094">
        <ele>312</ele>
        <time>2016-03-13T08:38:16.000Z</time>
      </trkpt>
      <trkpt lat="47.49171" lon="6.77099">
        <ele>312</ele>
        <time>2016-03-13T08:38:17.000Z</time>
      </trkpt>
      <trkpt lat="47.49173" lon="6.77105">
        <ele>312</ele>
        <time>2016-03-13T08:38:18.000Z</time>
      </trkpt>
      <trkpt lat="47.49173" lon="6.7711">
        <ele>313</ele>
        <time>2016-03-13T08:38:19.000Z</time>
      </trkpt>
      <trkpt lat="47.49174" lon="6.77116">
        <ele>313</ele>
        <time>2016-03-13T08:38:20.000Z</time>
      </trkpt>
      <trkpt lat="47.49175" lon="6.7712">
        <ele>313</ele>
        <time>2016-03-13T08:38:21.000Z</time>
      </trkpt>
      <trkpt lat="47.49176" lon="6.77123">
        <ele>313</ele>
        <time>2016-03-13T08:38:22.000Z</time>
      </trkpt>
      <trkpt lat="47.49176" lon="6.77129">
        <ele>313</ele>
        <time>2016-03-13T08:38:25.000Z</time>
      </trkpt>
      <trkpt lat="47.49176" lon="6.7713">
        <ele>313</ele>
        <time>2016-03-13T08:38:26.000Z</time>
      </trkpt>
      <trkpt lat="47.49176" lon="6.77136">
        <ele>313</ele>
        <time>2016-03-13T08:38:29.000Z</time>
      </trkpt>
      <trkpt lat="47.49176" lon="6.7714">
        <ele>313</ele>
        <time>2016-03-13T08:38:30.000Z</time>
      </trkpt>
      <trkpt lat="47.49177" lon="6.77146">
        <ele>313</ele>
        <time>2016-03-13T08:38:31.000Z</time>
      </trkpt>
      <trkpt lat="47.49178" lon="6.77154">
        <ele>313</ele>
        <time>2016-03-13T08:38:32.000Z</time>
      </trkpt>
      <trkpt lat="47.49179" lon="6.77166">
        <ele>313</ele>
        <time>2016-03-13T08:38:33.000Z</time>
      </trkpt>
      <trkpt lat="47.49179" lon="6.77172">
        <ele>313</ele>
        <time>2016-03-13T08:38:34.000Z</time>
      </trkpt>
      <trkpt lat="47.49179" lon="6.77179">
        <ele>313</ele>
        <time>2016-03-13T08:38:35.000Z</time>
      </trkpt>
      <trkpt lat="47.49179" lon="6.77185">
        <ele>313</ele>
        <time>2016-03-13T08:38:36.000Z</time>
      </trkpt>
      <trkpt lat="47.49179" lon="6.77191">
        <ele>313</ele>
        <time>2016-03-13T08:38:37.000Z</time>
      </trkpt>
      <trkpt lat="47.49179" lon="6.77198">
        <ele>312</ele>
        <time>2016-03-13T08:38:38.000Z</time>
      </trkpt>
      <trkpt lat="47.49179" lon="6.77204">
        <ele>312</ele>
        <time>2016-03-13T08:38:39.000Z</time>
      </trkpt>
      <trkpt lat="47.49179" lon="6.77211">
        <ele>312</ele>
        <time>2016-03-13T08:38:40.000Z</time>
      </trkpt>
      <trkpt lat="47.49178" lon="6.77218">
        <ele>312</ele>
        <time>2016-03-13T08:38:41.000Z</time>
      </trkpt>
      <trkpt lat="47.49178" lon="6.77224">
        <ele>312</ele>
        <time>2016-03-13T08:38:42.000Z</time>
      </trkpt>
      <trkpt lat="47.49179" lon="6.77231">
        <ele>312</ele>
        <time>2016-03-13T08:38:43.000Z</time>
      </trkpt>
      <trkpt lat="47.49179" lon="6.77237">
        <ele>312</ele>
        <time>2016-03-13T08:38:44.000Z</time>
      </trkpt>
      <trkpt lat="47.4918" lon="6.77244">
        <ele>312</ele>
        <time>2016-03-13T08:38:45.000Z</time>
      </trkpt>
      <trkpt lat="47.4918" lon="6.77252">
        <ele>311</ele>
        <time>2016-03-13T08:38:46.000Z</time>
      </trkpt>
      <trkpt lat="47.49179" lon="6.77259">
        <ele>311</ele>
        <time>2016-03-13T08:38:47.000Z</time>
      </trkpt>
      <trkpt lat="47.49179" lon="6.77268">
        <ele>311</ele>
        <time>2016-03-13T08:38:48.000Z</time>
      </trkpt>
      <trkpt lat="47.49179" lon="6.77276">
        <ele>311</ele>
        <time>2016-03-13T08:38:49.000Z</time>
      </trkpt>
      <trkpt lat="47.49179" lon="6.77285">
        <ele>311</ele>
        <time>2016-03-13T08:38:50.000Z</time>
      </trkpt>
      <trkpt lat="47.49179" lon="6.77294">
        <ele>311</ele>
        <time>2016-03-13T08:38:51.000Z</time>
      </trkpt>
      <trkpt lat="47.49179" lon="6.77302">
        <ele>311</ele>
        <time>2016-03-13T08:38:52.000Z</time>
      </trkpt>
      <trkpt lat="47.49179" lon="6.7731">
        <ele>311</ele>
        <time>2016-03-13T08:38:53.000Z</time>
      </trkpt>
      <trkpt lat="47.49178" lon="6.77317">
        <ele>310</ele>
        <time>2016-03-13T08:38:54.000Z</time>
      </trkpt>
      <trkpt lat="47.49175" lon="6.77323">
        <ele>310</ele>
        <time>2016-03-13T08:38:55.000Z</time>
      </trkpt>
      <trkpt lat="47.49173" lon="6.77329">
        <ele>310</ele>
        <time>2016-03-13T08:38:56.000Z</time>
      </trkpt>
      <trkpt lat="47.4917" lon="6.7733">
        <ele>310</ele>
        <time>2016-03-13T08:38:57.000Z</time>
      </trkpt>
      <trkpt lat="47.49166" lon="6.77331">
        <ele>310</ele>
        <time>2016-03-13T08:38:58.000Z</time>
      </trkpt>
      <trkpt lat="47.49161" lon="6.77331">
        <ele>310</ele>
        <time>2016-03-13T08:38:59.000Z</time>
      </trkpt>
      <trkpt lat="47.49157" lon="6.77331">
        <ele>310</ele>
        <time>2016-03-13T08:39:00.000Z</time>
      </trkpt>
      <trkpt lat="47.49152" lon="6.77331">
        <ele>311</ele>
        <time>2016-03-13T08:39:01.000Z</time>
      </trkpt>
      <trkpt lat="47.49148" lon="6.7733">
        <ele>311</ele>
        <time>2016-03-13T08:39:02.000Z</time>
      </trkpt>
      <trkpt lat="47.49144" lon="6.7733">
        <ele>311</ele>
        <time>2016-03-13T08:39:03.000Z</time>
      </trkpt>
      <trkpt lat="47.49139" lon="6.77329">
        <ele>311</ele>
        <time>2016-03-13T08:39:04.000Z</time>
      </trkpt>
      <trkpt lat="47.49134" lon="6.77329">
        <ele>311</ele>
        <time>2016-03-13T08:39:05.000Z</time>
      </trkpt>
      <trkpt lat="47.49129" lon="6.77329">
        <ele>311</ele>
        <time>2016-03-13T08:39:06.000Z</time>
      </trkpt>
      <trkpt lat="47.49125" lon="6.77329">
        <ele>311</ele>
        <time>2016-03-13T08:39:07.000Z</time>
      </trkpt>
      <trkpt lat="47.49121" lon="6.77329">
        <ele>311</ele>
        <time>2016-03-13T08:39:08.000Z</time>
      </trkpt>
      <trkpt lat="47.49116" lon="6.77328">
        <ele>311</ele>
        <time>2016-03-13T08:39:09.000Z</time>
      </trkpt>
      <trkpt lat="47.4911" lon="6.77327">
        <ele>311</ele>
        <time>2016-03-13T08:39:10.000Z</time>
      </trkpt>
      <trkpt lat="47.49105" lon="6.77327">
        <ele>311</ele>
        <time>2016-03-13T08:39:11.000Z</time>
      </trkpt>
      <trkpt lat="47.491" lon="6.77327">
        <ele>311</ele>
        <time>2016-03-13T08:39:12.000Z</time>
      </trkpt>
      <trkpt lat="47.49095" lon="6.77327">
        <ele>311</ele>
        <time>2016-03-13T08:39:13.000Z</time>
      </trkpt>
      <trkpt lat="47.4909" lon="6.77326">
        <ele>311</ele>
        <time>2016-03-13T08:39:14.000Z</time>
      </trkpt>
      <trkpt lat="47.49085" lon="6.77326">
        <ele>311</ele>
        <time>2016-03-13T08:39:15.000Z</time>
      </trkpt>
      <trkpt lat="47.4908" lon="6.77325">
        <ele>311</ele>
        <time>2016-03-13T08:39:16.000Z</time>
      </trkpt>
      <trkpt lat="47.49076" lon="6.77326">
        <ele>311</ele>
        <time>2016-03-13T08:39:17.000Z</time>
      </trkpt>
      <trkpt lat="47.4907" lon="6.77326">
        <ele>311</ele>
        <time>2016-03-13T08:39:18.000Z</time>
      </trkpt>
      <trkpt lat="47.49064" lon="6.77325">
        <ele>311</ele>
        <time>2016-03-13T08:39:19.000Z</time>
      </trkpt>
      <trkpt lat="47.4906" lon="6.77323">
        <ele>311</ele>
        <time>2016-03-13T08:39:20.000Z</time>
      </trkpt>
      <trkpt lat="47.49054" lon="6.77322">
        <ele>311</ele>
        <time>2016-03-13T08:39:21.000Z</time>
      </trkpt>
      <trkpt lat="47.49049" lon="6.77321">
        <ele>311</ele>
        <time>2016-03-13T08:39:22.000Z</time>
      </trkpt>
      <trkpt lat="47.49046" lon="6.7732">
        <ele>311</ele>
        <time>2016-03-13T08:39:23.000Z</time>
      </trkpt>
      <trkpt lat="47.49044" lon="6.7732">
        <ele>311</ele>
        <time>2016-03-13T08:39:24.000Z</time>
      </trkpt>
      <trkpt lat="47.4904" lon="6.77318">
        <ele>311</ele>
        <time>2016-03-13T08:39:27.000Z</time>
      </trkpt>
      <trkpt lat="47.49038" lon="6.7732">
        <ele>311</ele>
        <time>2016-03-13T08:39:28.000Z</time>
      </trkpt>
      <trkpt lat="47.49041" lon="6.77325">
        <ele>311</ele>
        <time>2016-03-13T08:39:32.000Z</time>
      </trkpt>
      <trkpt lat="47.49042" lon="6.77325">
        <ele>311</ele>
        <time>2016-03-13T08:39:33.000Z</time>
      </trkpt>
      <trkpt lat="47.49046" lon="6.77326">
        <ele>311</ele>
        <time>2016-03-13T08:39:37.000Z</time>
      </trkpt>
      <trkpt lat="47.49046" lon="6.77327">
        <ele>311</ele>
        <time>2016-03-13T08:39:38.000Z</time>
      </trkpt>
      <trkpt lat="47.49046" lon="6.77322">
        <ele>311</ele>
        <time>2016-03-13T08:39:45.000Z</time>
      </trkpt>
      <trkpt lat="47.49043" lon="6.77321">
        <ele>311</ele>
        <time>2016-03-13T08:39:46.000Z</time>
      </trkpt>
      <trkpt lat="47.49039" lon="6.77321">
        <ele>311</ele>
        <time>2016-03-13T08:39:47.000Z</time>
      </trkpt>
      <trkpt lat="47.49035" lon="6.77321">
        <ele>311</ele>
        <time>2016-03-13T08:39:48.000Z</time>
      </trkpt>
      <trkpt lat="47.49031" lon="6.7732">
        <ele>311</ele>
        <time>2016-03-13T08:39:49.000Z</time>
      </trkpt>
      <trkpt lat="47.49027" lon="6.7732">
        <ele>311</ele>
        <time>2016-03-13T08:39:50.000Z</time>
      </trkpt>
      <trkpt lat="47.49023" lon="6.7732">
        <ele>311</ele>
        <time>2016-03-13T08:39:51.000Z</time>
      </trkpt>
      <trkpt lat="47.49019" lon="6.77319">
        <ele>311</ele>
        <time>2016-03-13T08:39:52.000Z</time>
      </trkpt>
      <trkpt lat="47.49015" lon="6.77319">
        <ele>311</ele>
        <time>2016-03-13T08:39:53.000Z</time>
      </trkpt>
      <trkpt lat="47.49011" lon="6.77318">
        <ele>311</ele>
        <time>2016-03-13T08:39:54.000Z</time>
      </trkpt>
      <trkpt lat="47.49006" lon="6.77318">
        <ele>311</ele>
        <time>2016-03-13T08:39:55.000Z</time>
      </trkpt>
      <trkpt lat="47.49002" lon="6.77317">
        <ele>311</ele>
        <time>2016-03-13T08:39:56.000Z</time>
      </trkpt>
      <trkpt lat="47.48998" lon="6.77317">
        <ele>311</ele>
        <time>2016-03-13T08:39:57.000Z</time>
      </trkpt>
      <trkpt lat="47.48994" lon="6.77317">
        <ele>311</ele>
        <time>2016-03-13T08:39:58.000Z</time>
      </trkpt>
      <trkpt lat="47.48989" lon="6.77317">
        <ele>311</ele>
        <time>2016-03-13T08:39:59.000Z</time>
      </trkpt>
      <trkpt lat="47.48985" lon="6.77316">
        <ele>311</ele>
        <time>2016-03-13T08:40:00.000Z</time>
      </trkpt>
      <trkpt lat="47.48982" lon="6.77316">
        <ele>311</ele>
        <time>2016-03-13T08:40:01.000Z</time>
      </trkpt>
      <trkpt lat="47.48978" lon="6.77316">
        <ele>311</ele>
        <time>2016-03-13T08:40:02.000Z</time>
      </trkpt>
      <trkpt lat="47.48975" lon="6.77316">
        <ele>311</ele>
        <time>2016-03-13T08:40:03.000Z</time>
      </trkpt>
      <trkpt lat="47.48971" lon="6.77316">
        <ele>311</ele>
        <time>2016-03-13T08:40:04.000Z</time>
      </trkpt>
      <trkpt lat="47.48967" lon="6.77315">
        <ele>311</ele>
        <time>2016-03-13T08:40:05.000Z</time>
      </trkpt>
      <trkpt lat="47.48963" lon="6.77315">
        <ele>311</ele>
        <time>2016-03-13T08:40:06.000Z</time>
      </trkpt>
      <trkpt lat="47.48959" lon="6.77314">
        <ele>311</ele>
        <time>2016-03-13T08:40:07.000Z</time>
      </trkpt>
      <trkpt lat="47.48955" lon="6.77313">
        <ele>311</ele>
        <time>2016-03-13T08:40:08.000Z</time>
      </trkpt>
      <trkpt lat="47.48951" lon="6.77312">
        <ele>311</ele>
        <time>2016-03-13T08:40:09.000Z</time>
      </trkpt>
      <trkpt lat="47.48947" lon="6.77311">
        <ele>311</ele>
        <time>2016-03-13T08:40:10.000Z</time>
      </trkpt>
      <trkpt lat="47.48943" lon="6.77309">
        <ele>311</ele>
        <time>2016-03-13T08:40:11.000Z</time>
      </trkpt>
      <trkpt lat="47.48939" lon="6.77307">
        <ele>311</ele>
        <time>2016-03-13T08:40:12.000Z</time>
      </trkpt>
      <trkpt lat="47.48935" lon="6.77305">
        <ele>311</ele>
        <time>2016-03-13T08:40:13.000Z</time>
      </trkpt>
      <trkpt lat="47.48931" lon="6.77303">
        <ele>311</ele>
        <time>2016-03-13T08:40:14.000Z</time>
      </trkpt>
      <trkpt lat="47.48927" lon="6.77301">
        <ele>311</ele>
        <time>2016-03-13T08:40:15.000Z</time>
      </trkpt>
      <trkpt lat="47.48923" lon="6.77299">
        <ele>311</ele>
        <time>2016-03-13T08:40:16.000Z</time>
      </trkpt>
      <trkpt lat="47.48919" lon="6.77298">
        <ele>311</ele>
        <time>2016-03-13T08:40:17.000Z</time>
      </trkpt>
      <trkpt lat="47.48915" lon="6.77296">
        <ele>310</ele>
        <time>2016-03-13T08:40:18.000Z</time>
      </trkpt>
      <trkpt lat="47.48911" lon="6.77294">
        <ele>310</ele>
        <time>2016-03-13T08:40:19.000Z</time>
      </trkpt>
      <trkpt lat="47.48907" lon="6.77292">
        <ele>310</ele>
        <time>2016-03-13T08:40:20.000Z</time>
      </trkpt>
      <trkpt lat="47.48902" lon="6.7729">
        <ele>310</ele>
        <time>2016-03-13T08:40:21.000Z</time>
      </trkpt>
      <trkpt lat="47.48898" lon="6.77289">
        <ele>310</ele>
        <time>2016-03-13T08:40:22.000Z</time>
      </trkpt>
      <trkpt lat="47.48893" lon="6.77288">
        <ele>310</ele>
        <time>2016-03-13T08:40:23.000Z</time>
      </trkpt>
      <trkpt lat="47.48889" lon="6.77287">
        <ele>310</ele>
        <time>2016-03-13T08:40:24.000Z</time>
      </trkpt>
      <trkpt lat="47.48885" lon="6.77285">
        <ele>310</ele>
        <time>2016-03-13T08:40:25.000Z</time>
      </trkpt>
      <trkpt lat="47.4888" lon="6.77284">
        <ele>310</ele>
        <time>2016-03-13T08:40:26.000Z</time>
      </trkpt>
      <trkpt lat="47.48876" lon="6.77283">
        <ele>310</ele>
        <time>2016-03-13T08:40:27.000Z</time>
      </trkpt>
      <trkpt lat="47.48872" lon="6.77282">
        <ele>310</ele>
        <time>2016-03-13T08:40:28.000Z</time>
      </trkpt>
      <trkpt lat="47.48867" lon="6.7728">
        <ele>310</ele>
        <time>2016-03-13T08:40:29.000Z</time>
      </trkpt>
      <trkpt lat="47.48864" lon="6.77278">
        <ele>310</ele>
        <time>2016-03-13T08:40:30.000Z</time>
      </trkpt>
      <trkpt lat="47.48859" lon="6.77275">
        <ele>310</ele>
        <time>2016-03-13T08:40:31.000Z</time>
      </trkpt>
      <trkpt lat="47.48855" lon="6.77272">
        <ele>310</ele>
        <time>2016-03-13T08:40:32.000Z</time>
      </trkpt>
      <trkpt lat="47.48851" lon="6.77271">
        <ele>310</ele>
        <time>2016-03-13T08:40:33.000Z</time>
      </trkpt>
      <trkpt lat="47.48846" lon="6.77268">
        <ele>310</ele>
        <time>2016-03-13T08:40:34.000Z</time>
      </trkpt>
      <trkpt lat="47.48842" lon="6.77265">
        <ele>310</ele>
        <time>2016-03-13T08:40:35.000Z</time>
      </trkpt>
      <trkpt lat="47.48837" lon="6.77262">
        <ele>311</ele>
        <time>2016-03-13T08:40:36.000Z</time>
      </trkpt>
      <trkpt lat="47.48833" lon="6.77259">
        <ele>311</ele>
        <time>2016-03-13T08:40:37.000Z</time>
      </trkpt>
      <trkpt lat="47.48828" lon="6.77256">
        <ele>311</ele>
        <time>2016-03-13T08:40:38.000Z</time>
      </trkpt>
      <trkpt lat="47.48824" lon="6.77254">
        <ele>311</ele>
        <time>2016-03-13T08:40:39.000Z</time>
      </trkpt>
      <trkpt lat="47.48819" lon="6.7725">
        <ele>310</ele>
        <time>2016-03-13T08:40:40.000Z</time>
      </trkpt>
      <trkpt lat="47.48815" lon="6.77246">
        <ele>311</ele>
        <time>2016-03-13T08:40:41.000Z</time>
      </trkpt>
      <trkpt lat="47.4881" lon="6.77243">
        <ele>311</ele>
        <time>2016-03-13T08:40:42.000Z</time>
      </trkpt>
      <trkpt lat="47.48806" lon="6.77238">
        <ele>311</ele>
        <time>2016-03-13T08:40:43.000Z</time>
      </trkpt>
      <trkpt lat="47.48802" lon="6.77234">
        <ele>310</ele>
        <time>2016-03-13T08:40:44.000Z</time>
      </trkpt>
      <trkpt lat="47.48797" lon="6.77231">
        <ele>310</ele>
        <time>2016-03-13T08:40:45.000Z</time>
      </trkpt>
      <trkpt lat="47.48792" lon="6.77228">
        <ele>310</ele>
        <time>2016-03-13T08:40:46.000Z</time>
      </trkpt>
      <trkpt lat="47.48787" lon="6.77225">
        <ele>310</ele>
        <time>2016-03-13T08:40:47.000Z</time>
      </trkpt>
      <trkpt lat="47.48783" lon="6.77222">
        <ele>310</ele>
        <time>2016-03-13T08:40:48.000Z</time>
      </trkpt>
      <trkpt lat="47.48778" lon="6.7722">
        <ele>310</ele>
        <time>2016-03-13T08:40:49.000Z</time>
      </trkpt>
      <trkpt lat="47.48774" lon="6.77217">
        <ele>310</ele>
        <time>2016-03-13T08:40:50.000Z</time>
      </trkpt>
      <trkpt lat="47.48769" lon="6.77214">
        <ele>310</ele>
        <time>2016-03-13T08:40:51.000Z</time>
      </trkpt>
      <trkpt lat="47.48764" lon="6.77211">
        <ele>310</ele>
        <time>2016-03-13T08:40:52.000Z</time>
      </trkpt>
      <trkpt lat="47.4876" lon="6.77207">
        <ele>310</ele>
        <time>2016-03-13T08:40:53.000Z</time>
      </trkpt>
      <trkpt lat="47.48755" lon="6.77204">
        <ele>310</ele>
        <time>2016-03-13T08:40:54.000Z</time>
      </trkpt>
      <trkpt lat="47.48751" lon="6.77202">
        <ele>310</ele>
        <time>2016-03-13T08:40:55.000Z</time>
      </trkpt>
      <trkpt lat="47.48746" lon="6.77198">
        <ele>310</ele>
        <time>2016-03-13T08:40:56.000Z</time>
      </trkpt>
      <trkpt lat="47.48742" lon="6.77195">
        <ele>310</ele>
        <time>2016-03-13T08:40:57.000Z</time>
      </trkpt>
      <trkpt lat="47.48738" lon="6.77192">
        <ele>310</ele>
        <time>2016-03-13T08:40:58.000Z</time>
      </trkpt>
      <trkpt lat="47.48733" lon="6.77189">
        <ele>310</ele>
        <time>2016-03-13T08:40:59.000Z</time>
      </trkpt>
      <trkpt lat="47.48729" lon="6.77185">
        <ele>310</ele>
        <time>2016-03-13T08:41:00.000Z</time>
      </trkpt>
      <trkpt lat="47.48724" lon="6.77181">
        <ele>310</ele>
        <time>2016-03-13T08:41:01.000Z</time>
      </trkpt>
      <trkpt lat="47.4872" lon="6.77178">
        <ele>311</ele>
        <time>2016-03-13T08:41:02.000Z</time>
      </trkpt>
      <trkpt lat="47.48715" lon="6.77175">
        <ele>311</ele>
        <time>2016-03-13T08:41:03.000Z</time>
      </trkpt>
      <trkpt lat="47.4871" lon="6.77171">
        <ele>311</ele>
        <time>2016-03-13T08:41:04.000Z</time>
      </trkpt>
      <trkpt lat="47.48705" lon="6.77167">
        <ele>311</ele>
        <time>2016-03-13T08:41:05.000Z</time>
      </trkpt>
      <trkpt lat="47.487" lon="6.77163">
        <ele>311</ele>
        <time>2016-03-13T08:41:06.000Z</time>
      </trkpt>
      <trkpt lat="47.48695" lon="6.77158">
        <ele>311</ele>
        <time>2016-03-13T08:41:07.000Z</time>
      </trkpt>
      <trkpt lat="47.48691" lon="6.77154">
        <ele>311</ele>
        <time>2016-03-13T08:41:08.000Z</time>
      </trkpt>
      <trkpt lat="47.48687" lon="6.77149">
        <ele>311</ele>
        <time>2016-03-13T08:41:09.000Z</time>
      </trkpt>
      <trkpt lat="47.48682" lon="6.77145">
        <ele>311</ele>
        <time>2016-03-13T08:41:10.000Z</time>
      </trkpt>
      <trkpt lat="47.48678" lon="6.7714">
        <ele>311</ele>
        <time>2016-03-13T08:41:11.000Z</time>
      </trkpt>
      <trkpt lat="47.48674" lon="6.77136">
        <ele>312</ele>
        <time>2016-03-13T08:41:12.000Z</time>
      </trkpt>
      <trkpt lat="47.4867" lon="6.77131">
        <ele>312</ele>
        <time>2016-03-13T08:41:13.000Z</time>
      </trkpt>
      <trkpt lat="47.48665" lon="6.77126">
        <ele>312</ele>
        <time>2016-03-13T08:41:14.000Z</time>
      </trkpt>
      <trkpt lat="47.48661" lon="6.77122">
        <ele>312</ele>
        <time>2016-03-13T08:41:15.000Z</time>
      </trkpt>
      <trkpt lat="47.48658" lon="6.77118">
        <ele>312</ele>
        <time>2016-03-13T08:41:16.000Z</time>
      </trkpt>
      <trkpt lat="47.48653" lon="6.77113">
        <ele>312</ele>
        <time>2016-03-13T08:41:17.000Z</time>
      </trkpt>
      <trkpt lat="47.48649" lon="6.77109">
        <ele>312</ele>
        <time>2016-03-13T08:41:18.000Z</time>
      </trkpt>
      <trkpt lat="47.48645" lon="6.77104">
        <ele>312</ele>
        <time>2016-03-13T08:41:19.000Z</time>
      </trkpt>
      <trkpt lat="47.4864" lon="6.77099">
        <ele>312</ele>
        <time>2016-03-13T08:41:20.000Z</time>
      </trkpt>
      <trkpt lat="47.48636" lon="6.77094">
        <ele>312</ele>
        <time>2016-03-13T08:41:21.000Z</time>
      </trkpt>
      <trkpt lat="47.48632" lon="6.77089">
        <ele>312</ele>
        <time>2016-03-13T08:41:22.000Z</time>
      </trkpt>
      <trkpt lat="47.48629" lon="6.77086">
        <ele>312</ele>
        <time>2016-03-13T08:41:23.000Z</time>
      </trkpt>
      <trkpt lat="47.48626" lon="6.77084">
        <ele>312</ele>
        <time>2016-03-13T08:41:24.000Z</time>
      </trkpt>
      <trkpt lat="47.48622" lon="6.77082">
        <ele>313</ele>
        <time>2016-03-13T08:41:25.000Z</time>
      </trkpt>
      <trkpt lat="47.48617" lon="6.77079">
        <ele>313</ele>
        <time>2016-03-13T08:41:26.000Z</time>
      </trkpt>
      <trkpt lat="47.48613" lon="6.77076">
        <ele>313</ele>
        <time>2016-03-13T08:41:27.000Z</time>
      </trkpt>
      <trkpt lat="47.48608" lon="6.77073">
        <ele>313</ele>
        <time>2016-03-13T08:41:28.000Z</time>
      </trkpt>
      <trkpt lat="47.48604" lon="6.77068">
        <ele>313</ele>
        <time>2016-03-13T08:41:29.000Z</time>
      </trkpt>
      <trkpt lat="47.48599" lon="6.77065">
        <ele>313</ele>
        <time>2016-03-13T08:41:30.000Z</time>
      </trkpt>
      <trkpt lat="47.48594" lon="6.77062">
        <ele>313</ele>
        <time>2016-03-13T08:41:31.000Z</time>
      </trkpt>
      <trkpt lat="47.4859" lon="6.77059">
        <ele>313</ele>
        <time>2016-03-13T08:41:32.000Z</time>
      </trkpt>
      <trkpt lat="47.48585" lon="6.77057">
        <ele>313</ele>
        <time>2016-03-13T08:41:33.000Z</time>
      </trkpt>
      <trkpt lat="47.4858" lon="6.77054">
        <ele>314</ele>
        <time>2016-03-13T08:41:34.000Z</time>
      </trkpt>
      <trkpt lat="47.48575" lon="6.77051">
        <ele>314</ele>
        <time>2016-03-13T08:41:35.000Z</time>
      </trkpt>
      <trkpt lat="47.48571" lon="6.77047">
        <ele>314</ele>
        <time>2016-03-13T08:41:36.000Z</time>
      </trkpt>
      <trkpt lat="47.48566" lon="6.77045">
        <ele>314</ele>
        <time>2016-03-13T08:41:37.000Z</time>
      </trkpt>
      <trkpt lat="47.48561" lon="6.77043">
        <ele>314</ele>
        <time>2016-03-13T08:41:38.000Z</time>
      </trkpt>
      <trkpt lat="47.48556" lon="6.77041">
        <ele>314</ele>
        <time>2016-03-13T08:41:39.000Z</time>
      </trkpt>
      <trkpt lat="47.4855" lon="6.77042">
        <ele>314</ele>
        <time>2016-03-13T08:41:40.000Z</time>
      </trkpt>
      <trkpt lat="47.48543" lon="6.77039">
        <ele>314</ele>
        <time>2016-03-13T08:41:41.000Z</time>
      </trkpt>
      <trkpt lat="47.48537" lon="6.77035">
        <ele>314</ele>
        <time>2016-03-13T08:41:42.000Z</time>
      </trkpt>
      <trkpt lat="47.48531" lon="6.77031">
        <ele>314</ele>
        <time>2016-03-13T08:41:43.000Z</time>
      </trkpt>
      <trkpt lat="47.48526" lon="6.77026">
        <ele>314</ele>
        <time>2016-03-13T08:41:44.000Z</time>
      </trkpt>
      <trkpt lat="47.4852" lon="6.77022">
        <ele>315</ele>
        <time>2016-03-13T08:41:45.000Z</time>
      </trkpt>
      <trkpt lat="47.48515" lon="6.77017">
        <ele>315</ele>
        <time>2016-03-13T08:41:46.000Z</time>
      </trkpt>
      <trkpt lat="47.4851" lon="6.77013">
        <ele>315</ele>
        <time>2016-03-13T08:41:47.000Z</time>
      </trkpt>
      <trkpt lat="47.48504" lon="6.77009">
        <ele>315</ele>
        <time>2016-03-13T08:41:48.000Z</time>
      </trkpt>
      <trkpt lat="47.48499" lon="6.77005">
        <ele>315</ele>
        <time>2016-03-13T08:41:49.000Z</time>
      </trkpt>
      <trkpt lat="47.48495" lon="6.77002">
        <ele>315</ele>
        <time>2016-03-13T08:41:50.000Z</time>
      </trkpt>
      <trkpt lat="47.4849" lon="6.76999">
        <ele>316</ele>
        <time>2016-03-13T08:41:51.000Z</time>
      </trkpt>
      <trkpt lat="47.48487" lon="6.76995">
        <ele>316</ele>
        <time>2016-03-13T08:41:52.000Z</time>
      </trkpt>
      <trkpt lat="47.48482" lon="6.76991">
        <ele>315</ele>
        <time>2016-03-13T08:41:53.000Z</time>
      </trkpt>
      <trkpt lat="47.48477" lon="6.76988">
        <ele>315</ele>
        <time>2016-03-13T08:41:54.000Z</time>
      </trkpt>
      <trkpt lat="47.48472" lon="6.76985">
        <ele>315</ele>
        <time>2016-03-13T08:41:55.000Z</time>
      </trkpt>
      <trkpt lat="47.48468" lon="6.76982">
        <ele>315</ele>
        <time>2016-03-13T08:41:56.000Z</time>
      </trkpt>
      <trkpt lat="47.48463" lon="6.76978">
        <ele>315</ele>
        <time>2016-03-13T08:41:57.000Z</time>
      </trkpt>
      <trkpt lat="47.48458" lon="6.76975">
        <ele>315</ele>
        <time>2016-03-13T08:41:58.000Z</time>
      </trkpt>
      <trkpt lat="47.48453" lon="6.76971">
        <ele>315</ele>
        <time>2016-03-13T08:41:59.000Z</time>
      </trkpt>
      <trkpt lat="47.48449" lon="6.76968">
        <ele>315</ele>
        <time>2016-03-13T08:42:00.000Z</time>
      </trkpt>
      <trkpt lat="47.48444" lon="6.76964">
        <ele>315</ele>
        <time>2016-03-13T08:42:01.000Z</time>
      </trkpt>
      <trkpt lat="47.48439" lon="6.76961">
        <ele>315</ele>
        <time>2016-03-13T08:42:02.000Z</time>
      </trkpt>
      <trkpt lat="47.48435" lon="6.76958">
        <ele>314</ele>
        <time>2016-03-13T08:42:03.000Z</time>
      </trkpt>
      <trkpt lat="47.48429" lon="6.76954">
        <ele>314</ele>
        <time>2016-03-13T08:42:04.000Z</time>
      </trkpt>
      <trkpt lat="47.48424" lon="6.76951">
        <ele>314</ele>
        <time>2016-03-13T08:42:05.000Z</time>
      </trkpt>
      <trkpt lat="47.48419" lon="6.76948">
        <ele>314</ele>
        <time>2016-03-13T08:42:06.000Z</time>
      </trkpt>
      <trkpt lat="47.48413" lon="6.76946">
        <ele>312</ele>
        <time>2016-03-13T08:42:07.000Z</time>
      </trkpt>
      <trkpt lat="47.48408" lon="6.76944">
        <ele>312</ele>
        <time>2016-03-13T08:42:08.000Z</time>
      </trkpt>
      <trkpt lat="47.48405" lon="6.76943">
        <ele>312</ele>
        <time>2016-03-13T08:42:09.000Z</time>
      </trkpt>
      <trkpt lat="47.48402" lon="6.76944">
        <ele>312</ele>
        <time>2016-03-13T08:42:10.000Z</time>
      </trkpt>
      <trkpt lat="47.48399" lon="6.76949">
        <ele>312</ele>
        <time>2016-03-13T08:42:23.000Z</time>
      </trkpt>
      <trkpt lat="47.48399" lon="6.76949">
        <ele>312</ele>
        <time>2016-03-13T08:42:24.000Z</time>
      </trkpt>
      <trkpt lat="47.48397" lon="6.76943">
        <ele>312</ele>
        <time>2016-03-13T08:42:58.000Z</time>
      </trkpt>
      <trkpt lat="47.48397" lon="6.76943">
        <ele>312</ele>
        <time>2016-03-13T08:42:59.000Z</time>
      </trkpt>
      <trkpt lat="47.48394" lon="6.76941">
        <ele>312</ele>
        <time>2016-03-13T08:43:05.000Z</time>
      </trkpt>
      <trkpt lat="47.48391" lon="6.7694">
        <ele>312</ele>
        <time>2016-03-13T08:43:06.000Z</time>
      </trkpt>
      <trkpt lat="47.48388" lon="6.76939">
        <ele>312</ele>
        <time>2016-03-13T08:43:07.000Z</time>
      </trkpt>
      <trkpt lat="47.48385" lon="6.76937">
        <ele>312</ele>
        <time>2016-03-13T08:43:08.000Z</time>
      </trkpt>
      <trkpt lat="47.48381" lon="6.76935">
        <ele>312</ele>
        <time>2016-03-13T08:43:09.000Z</time>
      </trkpt>
      <trkpt lat="47.48375" lon="6.76929">
        <ele>312</ele>
        <time>2016-03-13T08:43:10.000Z</time>
      </trkpt>
      <trkpt lat="47.48371" lon="6.76926">
        <ele>312</ele>
        <time>2016-03-13T08:43:11.000Z</time>
      </trkpt>
      <trkpt lat="47.48366" lon="6.76923">
        <ele>311</ele>
        <time>2016-03-13T08:43:12.000Z</time>
      </trkpt>
      <trkpt lat="47.48361" lon="6.7692">
        <ele>311</ele>
        <time>2016-03-13T08:43:13.000Z</time>
      </trkpt>
      <trkpt lat="47.48355" lon="6.76916">
        <ele>311</ele>
        <time>2016-03-13T08:43:14.000Z</time>
      </trkpt>
      <trkpt lat="47.4835" lon="6.76913">
        <ele>310</ele>
        <time>2016-03-13T08:43:15.000Z</time>
      </trkpt>
      <trkpt lat="47.48345" lon="6.76909">
        <ele>310</ele>
        <time>2016-03-13T08:43:16.000Z</time>
      </trkpt>
      <trkpt lat="47.4834" lon="6.76907">
        <ele>310</ele>
        <time>2016-03-13T08:43:17.000Z</time>
      </trkpt>
      <trkpt lat="47.48334" lon="6.76903">
        <ele>310</ele>
        <time>2016-03-13T08:43:18.000Z</time>
      </trkpt>
      <trkpt lat="47.48328" lon="6.76899">
        <ele>310</ele>
        <time>2016-03-13T08:43:19.000Z</time>
      </trkpt>
      <trkpt lat="47.48322" lon="6.76895">
        <ele>310</ele>
        <time>2016-03-13T08:43:20.000Z</time>
      </trkpt>
      <trkpt lat="47.48316" lon="6.7689">
        <ele>310</ele>
        <time>2016-03-13T08:43:21.000Z</time>
      </trkpt>
      <trkpt lat="47.48311" lon="6.76884">
        <ele>310</ele>
        <time>2016-03-13T08:43:22.000Z</time>
      </trkpt>
      <trkpt lat="47.48306" lon="6.76879">
        <ele>310</ele>
        <time>2016-03-13T08:43:23.000Z</time>
      </trkpt>
      <trkpt lat="47.483" lon="6.76874">
        <ele>310</ele>
        <time>2016-03-13T08:43:24.000Z</time>
      </trkpt>
      <trkpt lat="47.48294" lon="6.76869">
        <ele>310</ele>
        <time>2016-03-13T08:43:25.000Z</time>
      </trkpt>
      <trkpt lat="47.48288" lon="6.76863">
        <ele>310</ele>
        <time>2016-03-13T08:43:26.000Z</time>
      </trkpt>
      <trkpt lat="47.48283" lon="6.76856">
        <ele>310</ele>
        <time>2016-03-13T08:43:27.000Z</time>
      </trkpt>
      <trkpt lat="47.48279" lon="6.7685">
        <ele>310</ele>
        <time>2016-03-13T08:43:28.000Z</time>
      </trkpt>
      <trkpt lat="47.48274" lon="6.76844">
        <ele>311</ele>
        <time>2016-03-13T08:43:29.000Z</time>
      </trkpt>
      <trkpt lat="47.48269" lon="6.76838">
        <ele>311</ele>
        <time>2016-03-13T08:43:30.000Z</time>
      </trkpt>
      <trkpt lat="47.48264" lon="6.76831">
        <ele>312</ele>
        <time>2016-03-13T08:43:31.000Z</time>
      </trkpt>
      <trkpt lat="47.4826" lon="6.76825">
        <ele>312</ele>
        <time>2016-03-13T08:43:32.000Z</time>
      </trkpt>
      <trkpt lat="47.48256" lon="6.76818">
        <ele>312</ele>
        <time>2016-03-13T08:43:33.000Z</time>
      </trkpt>
      <trkpt lat="47.48251" lon="6.76812">
        <ele>312</ele>
        <time>2016-03-13T08:43:34.000Z</time>
      </trkpt>
      <trkpt lat="47.48246" lon="6.76807">
        <ele>312</ele>
        <time>2016-03-13T08:43:35.000Z</time>
      </trkpt>
      <trkpt lat="47.48241" lon="6.76803">
        <ele>312</ele>
        <time>2016-03-13T08:43:36.000Z</time>
      </trkpt>
      <trkpt lat="47.48236" lon="6.76799">
        <ele>312</ele>
        <time>2016-03-13T08:43:37.000Z</time>
      </trkpt>
      <trkpt lat="47.48231" lon="6.76794">
        <ele>312</ele>
        <time>2016-03-13T08:43:38.000Z</time>
      </trkpt>
      <trkpt lat="47.48226" lon="6.76792">
        <ele>312</ele>
        <time>2016-03-13T08:43:39.000Z</time>
      </trkpt>
      <trkpt lat="47.4822" lon="6.7679">
        <ele>312</ele>
        <time>2016-03-13T08:43:40.000Z</time>
      </trkpt>
      <trkpt lat="47.48216" lon="6.76788">
        <ele>312</ele>
        <time>2016-03-13T08:43:41.000Z</time>
      </trkpt>
      <trkpt lat="47.48211" lon="6.76787">
        <ele>312</ele>
        <time>2016-03-13T08:43:42.000Z</time>
      </trkpt>
      <trkpt lat="47.48206" lon="6.76785">
        <ele>312</ele>
        <time>2016-03-13T08:43:43.000Z</time>
      </trkpt>
      <trkpt lat="47.48201" lon="6.76783">
        <ele>312</ele>
        <time>2016-03-13T08:43:44.000Z</time>
      </trkpt>
      <trkpt lat="47.48197" lon="6.76781">
        <ele>312</ele>
        <time>2016-03-13T08:43:45.000Z</time>
      </trkpt>
      <trkpt lat="47.48192" lon="6.76777">
        <ele>312</ele>
        <time>2016-03-13T08:43:46.000Z</time>
      </trkpt>
      <trkpt lat="47.48187" lon="6.76774">
        <ele>312</ele>
        <time>2016-03-13T08:43:47.000Z</time>
      </trkpt>
      <trkpt lat="47.48183" lon="6.7677">
        <ele>312</ele>
        <time>2016-03-13T08:43:48.000Z</time>
      </trkpt>
      <trkpt lat="47.48179" lon="6.76765">
        <ele>312</ele>
        <time>2016-03-13T08:43:49.000Z</time>
      </trkpt>
      <trkpt lat="47.48174" lon="6.76761">
        <ele>313</ele>
        <time>2016-03-13T08:43:50.000Z</time>
      </trkpt>
      <trkpt lat="47.4817" lon="6.76756">
        <ele>313</ele>
        <time>2016-03-13T08:43:51.000Z</time>
      </trkpt>
      <trkpt lat="47.48166" lon="6.76751">
        <ele>313</ele>
        <time>2016-03-13T08:43:52.000Z</time>
      </trkpt>
      <trkpt lat="47.48162" lon="6.76745">
        <ele>313</ele>
        <time>2016-03-13T08:43:53.000Z</time>
      </trkpt>
      <trkpt lat="47.48158" lon="6.76739">
        <ele>313</ele>
        <time>2016-03-13T08:43:54.000Z</time>
      </trkpt>
      <trkpt lat="47.48154" lon="6.76733">
        <ele>312</ele>
        <time>2016-03-13T08:43:55.000Z</time>
      </trkpt>
      <trkpt lat="47.4815" lon="6.76726">
        <ele>312</ele>
        <time>2016-03-13T08:43:56.000Z</time>
      </trkpt>
      <trkpt lat="47.48147" lon="6.7672">
        <ele>312</ele>
        <time>2016-03-13T08:43:57.000Z</time>
      </trkpt>
      <trkpt lat="47.48145" lon="6.76713">
        <ele>312</ele>
        <time>2016-03-13T08:43:58.000Z</time>
      </trkpt>
      <trkpt lat="47.48142" lon="6.76706">
        <ele>312</ele>
        <time>2016-03-13T08:43:59.000Z</time>
      </trkpt>
      <trkpt lat="47.48138" lon="6.76699">
        <ele>312</ele>
        <time>2016-03-13T08:44:00.000Z</time>
      </trkpt>
      <trkpt lat="47.48135" lon="6.76692">
        <ele>312</ele>
        <time>2016-03-13T08:44:01.000Z</time>
      </trkpt>
      <trkpt lat="47.48132" lon="6.76685">
        <ele>312</ele>
        <time>2016-03-13T08:44:02.000Z</time>
      </trkpt>
      <trkpt lat="47.48129" lon="6.76679">
        <ele>312</ele>
        <time>2016-03-13T08:44:03.000Z</time>
      </trkpt>
      <trkpt lat="47.48125" lon="6.76674">
        <ele>312</ele>
        <time>2016-03-13T08:44:04.000Z</time>
      </trkpt>
      <trkpt lat="47.48122" lon="6.76668">
        <ele>312</ele>
        <time>2016-03-13T08:44:05.000Z</time>
      </trkpt>
      <trkpt lat="47.48118" lon="6.76663">
        <ele>312</ele>
        <time>2016-03-13T08:44:06.000Z</time>
      </trkpt>
      <trkpt lat="47.48115" lon="6.76658">
        <ele>312</ele>
        <time>2016-03-13T08:44:07.000Z</time>
      </trkpt>
      <trkpt lat="47.48111" lon="6.76653">
        <ele>312</ele>
        <time>2016-03-13T08:44:08.000Z</time>
      </trkpt>
      <trkpt lat="47.48109" lon="6.76647">
        <ele>313</ele>
        <time>2016-03-13T08:44:09.000Z</time>
      </trkpt>
      <trkpt lat="47.48106" lon="6.76642">
        <ele>313</ele>
        <time>2016-03-13T08:44:10.000Z</time>
      </trkpt>
      <trkpt lat="47.48103" lon="6.76637">
        <ele>313</ele>
        <time>2016-03-13T08:44:11.000Z</time>
      </trkpt>
      <trkpt lat="47.48101" lon="6.76632">
        <ele>313</ele>
        <time>2016-03-13T08:44:12.000Z</time>
      </trkpt>
      <trkpt lat="47.48098" lon="6.76627">
        <ele>313</ele>
        <time>2016-03-13T08:44:13.000Z</time>
      </trkpt>
      <trkpt lat="47.48097" lon="6.76619">
        <ele>313</ele>
        <time>2016-03-13T08:44:14.000Z</time>
      </trkpt>
      <trkpt lat="47.48098" lon="6.7661">
        <ele>313</ele>
        <time>2016-03-13T08:44:15.000Z</time>
      </trkpt>
      <trkpt lat="47.48099" lon="6.76602">
        <ele>313</ele>
        <time>2016-03-13T08:44:16.000Z</time>
      </trkpt>
      <trkpt lat="47.48101" lon="6.76594">
        <ele>313</ele>
        <time>2016-03-13T08:44:17.000Z</time>
      </trkpt>
      <trkpt lat="47.48104" lon="6.76587">
        <ele>313</ele>
        <time>2016-03-13T08:44:18.000Z</time>
      </trkpt>
      <trkpt lat="47.48108" lon="6.76581">
        <ele>317</ele>
        <time>2016-03-13T08:44:19.000Z</time>
      </trkpt>
      <trkpt lat="47.48112" lon="6.76575">
        <ele>317</ele>
        <time>2016-03-13T08:44:20.000Z</time>
      </trkpt>
      <trkpt lat="47.48116" lon="6.7657">
        <ele>318</ele>
        <time>2016-03-13T08:44:21.000Z</time>
      </trkpt>
      <trkpt lat="47.48118" lon="6.76565">
        <ele>318</ele>
        <time>2016-03-13T08:44:22.000Z</time>
      </trkpt>
      <trkpt lat="47.4812" lon="6.76561">
        <ele>319</ele>
        <time>2016-03-13T08:44:23.000Z</time>
      </trkpt>
      <trkpt lat="47.48124" lon="6.76557">
        <ele>319</ele>
        <time>2016-03-13T08:44:24.000Z</time>
      </trkpt>
      <trkpt lat="47.48126" lon="6.76552">
        <ele>319</ele>
        <time>2016-03-13T08:44:25.000Z</time>
      </trkpt>
      <trkpt lat="47.48127" lon="6.76548">
        <ele>320</ele>
        <time>2016-03-13T08:44:26.000Z</time>
      </trkpt>
      <trkpt lat="47.48126" lon="6.76544">
        <ele>320</ele>
        <time>2016-03-13T08:44:27.000Z</time>
      </trkpt>
      <trkpt lat="47.48124" lon="6.7654">
        <ele>320</ele>
        <time>2016-03-13T08:44:28.000Z</time>
      </trkpt>
      <trkpt lat="47.48123" lon="6.76534">
        <ele>320</ele>
        <time>2016-03-13T08:44:29.000Z</time>
      </trkpt>
      <trkpt lat="47.48121" lon="6.7653">
        <ele>320</ele>
        <time>2016-03-13T08:44:30.000Z</time>
      </trkpt>
      <trkpt lat="47.48118" lon="6.76524">
        <ele>320</ele>
        <time>2016-03-13T08:44:31.000Z</time>
      </trkpt>
      <trkpt lat="47.48116" lon="6.7652">
        <ele>320</ele>
        <time>2016-03-13T08:44:32.000Z</time>
      </trkpt>
      <trkpt lat="47.48114" lon="6.76517">
        <ele>320</ele>
        <time>2016-03-13T08:44:33.000Z</time>
      </trkpt>
      <trkpt lat="47.48112" lon="6.76513">
        <ele>319</ele>
        <time>2016-03-13T08:44:34.000Z</time>
      </trkpt>
      <trkpt lat="47.48111" lon="6.76511">
        <ele>319</ele>
        <time>2016-03-13T08:44:35.000Z</time>
      </trkpt>
      <trkpt lat="47.48108" lon="6.76511">
        <ele>319</ele>
        <time>2016-03-13T08:44:36.000Z</time>
      </trkpt>
      <trkpt lat="47.48105" lon="6.76512">
        <ele>318</ele>
        <time>2016-03-13T08:44:37.000Z</time>
      </trkpt>
      <trkpt lat="47.48101" lon="6.76515">
        <ele>318</ele>
        <time>2016-03-13T08:44:38.000Z</time>
      </trkpt>
      <trkpt lat="47.48097" lon="6.76519">
        <ele>318</ele>
        <time>2016-03-13T08:44:39.000Z</time>
      </trkpt>
      <trkpt lat="47.48094" lon="6.76524">
        <ele>317</ele>
        <time>2016-03-13T08:44:40.000Z</time>
      </trkpt>
      <trkpt lat="47.4809" lon="6.76528">
        <ele>317</ele>
        <time>2016-03-13T08:44:41.000Z</time>
      </trkpt>
      <trkpt lat="47.48085" lon="6.76531">
        <ele>317</ele>
        <time>2016-03-13T08:44:42.000Z</time>
      </trkpt>
      <trkpt lat="47.48081" lon="6.76535">
        <ele>312</ele>
        <time>2016-03-13T08:44:43.000Z</time>
      </trkpt>
      <trkpt lat="47.48077" lon="6.76539">
        <ele>312</ele>
        <time>2016-03-13T08:44:44.000Z</time>
      </trkpt>
      <trkpt lat="47.48073" lon="6.76542">
        <ele>312</ele>
        <time>2016-03-13T08:44:45.000Z</time>
      </trkpt>
      <trkpt lat="47.48069" lon="6.76544">
        <ele>312</ele>
        <time>2016-03-13T08:44:46.000Z</time>
      </trkpt>
      <trkpt lat="47.48065" lon="6.76547">
        <ele>312</ele>
        <time>2016-03-13T08:44:47.000Z</time>
      </trkpt>
      <trkpt lat="47.48058" lon="6.76549">
        <ele>312</ele>
        <time>2016-03-13T08:44:48.000Z</time>
      </trkpt>
      <trkpt lat="47.48054" lon="6.76551">
        <ele>312</ele>
        <time>2016-03-13T08:44:49.000Z</time>
      </trkpt>
      <trkpt lat="47.4805" lon="6.76555">
        <ele>312</ele>
        <time>2016-03-13T08:44:50.000Z</time>
      </trkpt>
      <trkpt lat="47.48046" lon="6.76558">
        <ele>312</ele>
        <time>2016-03-13T08:44:51.000Z</time>
      </trkpt>
      <trkpt lat="47.48042" lon="6.76561">
        <ele>312</ele>
        <time>2016-03-13T08:44:52.000Z</time>
      </trkpt>
      <trkpt lat="47.48037" lon="6.76563">
        <ele>312</ele>
        <time>2016-03-13T08:44:53.000Z</time>
      </trkpt>
      <trkpt lat="47.48034" lon="6.76567">
        <ele>312</ele>
        <time>2016-03-13T08:44:54.000Z</time>
      </trkpt>
      <trkpt lat="47.4803" lon="6.7657">
        <ele>312</ele>
        <time>2016-03-13T08:44:55.000Z</time>
      </trkpt>
      <trkpt lat="47.48026" lon="6.76573">
        <ele>312</ele>
        <time>2016-03-13T08:44:56.000Z</time>
      </trkpt>
      <trkpt lat="47.48022" lon="6.76577">
        <ele>312</ele>
        <time>2016-03-13T08:44:57.000Z</time>
      </trkpt>
      <trkpt lat="47.48018" lon="6.76581">
        <ele>312</ele>
        <time>2016-03-13T08:44:58.000Z</time>
      </trkpt>
      <trkpt lat="47.48015" lon="6.76584">
        <ele>312</ele>
        <time>2016-03-13T08:44:59.000Z</time>
      </trkpt>
      <trkpt lat="47.48011" lon="6.76587">
        <ele>312</ele>
        <time>2016-03-13T08:45:00.000Z</time>
      </trkpt>
      <trkpt lat="47.48007" lon="6.76591">
        <ele>312</ele>
        <time>2016-03-13T08:45:01.000Z</time>
      </trkpt>
      <trkpt lat="47.48003" lon="6.76593">
        <ele>312</ele>
        <time>2016-03-13T08:45:02.000Z</time>
      </trkpt>
      <trkpt lat="47.47999" lon="6.76597">
        <ele>312</ele>
        <time>2016-03-13T08:45:03.000Z</time>
      </trkpt>
      <trkpt lat="47.47995" lon="6.76599">
        <ele>312</ele>
        <time>2016-03-13T08:45:04.000Z</time>
      </trkpt>
      <trkpt lat="47.47992" lon="6.76602">
        <ele>312</ele>
        <time>2016-03-13T08:45:05.000Z</time>
      </trkpt>
      <trkpt lat="47.47988" lon="6.76604">
        <ele>312</ele>
        <time>2016-03-13T08:45:06.000Z</time>
      </trkpt>
      <trkpt lat="47.47984" lon="6.76606">
        <ele>311</ele>
        <time>2016-03-13T08:45:07.000Z</time>
      </trkpt>
      <trkpt lat="47.47981" lon="6.76608">
        <ele>311</ele>
        <time>2016-03-13T08:45:08.000Z</time>
      </trkpt>
      <trkpt lat="47.47977" lon="6.76608">
        <ele>311</ele>
        <time>2016-03-13T08:45:09.000Z</time>
      </trkpt>
      <trkpt lat="47.47974" lon="6.76609">
        <ele>311</ele>
        <time>2016-03-13T08:45:10.000Z</time>
      </trkpt>
      <trkpt lat="47.4797" lon="6.7661">
        <ele>311</ele>
        <time>2016-03-13T08:45:11.000Z</time>
      </trkpt>
      <trkpt lat="47.47966" lon="6.76612">
        <ele>311</ele>
        <time>2016-03-13T08:45:12.000Z</time>
      </trkpt>
      <trkpt lat="47.47963" lon="6.76613">
        <ele>311</ele>
        <time>2016-03-13T08:45:13.000Z</time>
      </trkpt>
      <trkpt lat="47.4796" lon="6.76615">
        <ele>311</ele>
        <time>2016-03-13T08:45:14.000Z</time>
      </trkpt>
      <trkpt lat="47.47958" lon="6.76616">
        <ele>311</ele>
        <time>2016-03-13T08:45:15.000Z</time>
      </trkpt>
      <trkpt lat="47.47955" lon="6.76617">
        <ele>311</ele>
        <time>2016-03-13T08:45:18.000Z</time>
      </trkpt>
      <trkpt lat="47.47954" lon="6.76617">
        <ele>311</ele>
        <time>2016-03-13T08:45:19.000Z</time>
      </trkpt>
      <trkpt lat="47.47951" lon="6.76618">
        <ele>311</ele>
        <time>2016-03-13T08:45:21.000Z</time>
      </trkpt>
      <trkpt lat="47.47949" lon="6.7662">
        <ele>311</ele>
        <time>2016-03-13T08:45:22.000Z</time>
      </trkpt>
      <trkpt lat="47.47946" lon="6.76622">
        <ele>311</ele>
        <time>2016-03-13T08:45:23.000Z</time>
      </trkpt>
      <trkpt lat="47.47944" lon="6.76623">
        <ele>311</ele>
        <time>2016-03-13T08:45:24.000Z</time>
      </trkpt>
      <trkpt lat="47.47941" lon="6.76624">
        <ele>311</ele>
        <time>2016-03-13T08:45:25.000Z</time>
      </trkpt>
      <trkpt lat="47.47938" lon="6.76625">
        <ele>311</ele>
        <time>2016-03-13T08:45:26.000Z</time>
      </trkpt>
      <trkpt lat="47.4793" lon="6.76629">
        <ele>311</ele>
        <time>2016-03-13T08:45:27.000Z</time>
      </trkpt>
      <trkpt lat="47.47924" lon="6.76632">
        <ele>311</ele>
        <time>2016-03-13T08:45:28.000Z</time>
      </trkpt>
      <trkpt lat="47.47917" lon="6.76635">
        <ele>311</ele>
        <time>2016-03-13T08:45:29.000Z</time>
      </trkpt>
      <trkpt lat="47.47911" lon="6.7664">
        <ele>310</ele>
        <time>2016-03-13T08:45:30.000Z</time>
      </trkpt>
      <trkpt lat="47.47906" lon="6.76645">
        <ele>310</ele>
        <time>2016-03-13T08:45:31.000Z</time>
      </trkpt>
      <trkpt lat="47.47901" lon="6.76653">
        <ele>310</ele>
        <time>2016-03-13T08:45:32.000Z</time>
      </trkpt>
      <trkpt lat="47.47896" lon="6.76659">
        <ele>310</ele>
        <time>2016-03-13T08:45:33.000Z</time>
      </trkpt>
      <trkpt lat="47.47891" lon="6.76666">
        <ele>310</ele>
        <time>2016-03-13T08:45:34.000Z</time>
      </trkpt>
      <trkpt lat="47.47886" lon="6.76674">
        <ele>310</ele>
        <time>2016-03-13T08:45:35.000Z</time>
      </trkpt>
      <trkpt lat="47.47881" lon="6.76682">
        <ele>310</ele>
        <time>2016-03-13T08:45:36.000Z</time>
      </trkpt>
      <trkpt lat="47.47877" lon="6.76691">
        <ele>310</ele>
        <time>2016-03-13T08:45:37.000Z</time>
      </trkpt>
      <trkpt lat="47.47873" lon="6.76698">
        <ele>310</ele>
        <time>2016-03-13T08:45:38.000Z</time>
      </trkpt>
      <trkpt lat="47.47869" lon="6.76705">
        <ele>310</ele>
        <time>2016-03-13T08:45:39.000Z</time>
      </trkpt>
      <trkpt lat="47.47866" lon="6.76713">
        <ele>310</ele>
        <time>2016-03-13T08:45:40.000Z</time>
      </trkpt>
      <trkpt lat="47.47863" lon="6.76721">
        <ele>310</ele>
        <time>2016-03-13T08:45:41.000Z</time>
      </trkpt>
      <trkpt lat="47.47859" lon="6.76728">
        <ele>310</ele>
        <time>2016-03-13T08:45:42.000Z</time>
      </trkpt>
      <trkpt lat="47.47856" lon="6.76735">
        <ele>310</ele>
        <time>2016-03-13T08:45:43.000Z</time>
      </trkpt>
      <trkpt lat="47.47853" lon="6.76742">
        <ele>310</ele>
        <time>2016-03-13T08:45:44.000Z</time>
      </trkpt>
      <trkpt lat="47.4785" lon="6.76748">
        <ele>310</ele>
        <time>2016-03-13T08:45:45.000Z</time>
      </trkpt>
      <trkpt lat="47.47847" lon="6.76755">
        <ele>310</ele>
        <time>2016-03-13T08:45:46.000Z</time>
      </trkpt>
      <trkpt lat="47.47843" lon="6.76763">
        <ele>311</ele>
        <time>2016-03-13T08:45:47.000Z</time>
      </trkpt>
      <trkpt lat="47.47841" lon="6.7677">
        <ele>311</ele>
        <time>2016-03-13T08:45:48.000Z</time>
      </trkpt>
      <trkpt lat="47.47837" lon="6.76777">
        <ele>311</ele>
        <time>2016-03-13T08:45:49.000Z</time>
      </trkpt>
      <trkpt lat="47.47834" lon="6.76784">
        <ele>311</ele>
        <time>2016-03-13T08:45:50.000Z</time>
      </trkpt>
      <trkpt lat="47.4783" lon="6.7679">
        <ele>310</ele>
        <time>2016-03-13T08:45:51.000Z</time>
      </trkpt>
      <trkpt lat="47.47828" lon="6.76795">
        <ele>310</ele>
        <time>2016-03-13T08:45:52.000Z</time>
      </trkpt>
      <trkpt lat="47.47823" lon="6.768">
        <ele>310</ele>
        <time>2016-03-13T08:45:53.000Z</time>
      </trkpt>
      <trkpt lat="47.47818" lon="6.768">
        <ele>310</ele>
        <time>2016-03-13T08:45:54.000Z</time>
      </trkpt>
      <trkpt lat="47.47814" lon="6.76801">
        <ele>310</ele>
        <time>2016-03-13T08:45:55.000Z</time>
      </trkpt>
      <trkpt lat="47.47809" lon="6.76801">
        <ele>310</ele>
        <time>2016-03-13T08:45:56.000Z</time>
      </trkpt>
      <trkpt lat="47.47804" lon="6.768">
        <ele>310</ele>
        <time>2016-03-13T08:45:57.000Z</time>
      </trkpt>
      <trkpt lat="47.47799" lon="6.76799">
        <ele>310</ele>
        <time>2016-03-13T08:45:58.000Z</time>
      </trkpt>
      <trkpt lat="47.47794" lon="6.76796">
        <ele>310</ele>
        <time>2016-03-13T08:45:59.000Z</time>
      </trkpt>
      <trkpt lat="47.47789" lon="6.76793">
        <ele>311</ele>
        <time>2016-03-13T08:46:00.000Z</time>
      </trkpt>
      <trkpt lat="47.47785" lon="6.76791">
        <ele>311</ele>
        <time>2016-03-13T08:46:01.000Z</time>
      </trkpt>
      <trkpt lat="47.4778" lon="6.76789">
        <ele>311</ele>
        <time>2016-03-13T08:46:02.000Z</time>
      </trkpt>
      <trkpt lat="47.47775" lon="6.76788">
        <ele>311</ele>
        <time>2016-03-13T08:46:03.000Z</time>
      </trkpt>
      <trkpt lat="47.4777" lon="6.76787">
        <ele>311</ele>
        <time>2016-03-13T08:46:04.000Z</time>
      </trkpt>
      <trkpt lat="47.47765" lon="6.76788">
        <ele>311</ele>
        <time>2016-03-13T08:46:05.000Z</time>
      </trkpt>
      <trkpt lat="47.47761" lon="6.76789">
        <ele>311</ele>
        <time>2016-03-13T08:46:06.000Z</time>
      </trkpt>
      <trkpt lat="47.47756" lon="6.7679">
        <ele>311</ele>
        <time>2016-03-13T08:46:07.000Z</time>
      </trkpt>
      <trkpt lat="47.47751" lon="6.76791">
        <ele>311</ele>
        <time>2016-03-13T08:46:08.000Z</time>
      </trkpt>
      <trkpt lat="47.47747" lon="6.76792">
        <ele>311</ele>
        <time>2016-03-13T08:46:09.000Z</time>
      </trkpt>
      <trkpt lat="47.47743" lon="6.76793">
        <ele>311</ele>
        <time>2016-03-13T08:46:10.000Z</time>
      </trkpt>
      <trkpt lat="47.47739" lon="6.76795">
        <ele>311</ele>
        <time>2016-03-13T08:46:11.000Z</time>
      </trkpt>
      <trkpt lat="47.47734" lon="6.76798">
        <ele>311</ele>
        <time>2016-03-13T08:46:12.000Z</time>
      </trkpt>
      <trkpt lat="47.47729" lon="6.76803">
        <ele>311</ele>
        <time>2016-03-13T08:46:13.000Z</time>
      </trkpt>
      <trkpt lat="47.47726" lon="6.76809">
        <ele>311</ele>
        <time>2016-03-13T08:46:14.000Z</time>
      </trkpt>
      <trkpt lat="47.47723" lon="6.76817">
        <ele>311</ele>
        <time>2016-03-13T08:46:15.000Z</time>
      </trkpt>
      <trkpt lat="47.47719" lon="6.76824">
        <ele>311</ele>
        <time>2016-03-13T08:46:16.000Z</time>
      </trkpt>
      <trkpt lat="47.47716" lon="6.76831">
        <ele>311</ele>
        <time>2016-03-13T08:46:17.000Z</time>
      </trkpt>
      <trkpt lat="47.47714" lon="6.76838">
        <ele>311</ele>
        <time>2016-03-13T08:46:18.000Z</time>
      </trkpt>
      <trkpt lat="47.47711" lon="6.76845">
        <ele>311</ele>
        <time>2016-03-13T08:46:19.000Z</time>
      </trkpt>
      <trkpt lat="47.47709" lon="6.7685">
        <ele>311</ele>
        <time>2016-03-13T08:46:20.000Z</time>
      </trkpt>
      <trkpt lat="47.47706" lon="6.76855">
        <ele>311</ele>
        <time>2016-03-13T08:46:21.000Z</time>
      </trkpt>
      <trkpt lat="47.47704" lon="6.7686">
        <ele>311</ele>
        <time>2016-03-13T08:46:22.000Z</time>
      </trkpt>
      <trkpt lat="47.47702" lon="6.76865">
        <ele>311</ele>
        <time>2016-03-13T08:46:23.000Z</time>
      </trkpt>
      <trkpt lat="47.47701" lon="6.7687">
        <ele>311</ele>
        <time>2016-03-13T08:46:24.000Z</time>
      </trkpt>
      <trkpt lat="47.47699" lon="6.76876">
        <ele>311</ele>
        <time>2016-03-13T08:46:25.000Z</time>
      </trkpt>
      <trkpt lat="47.47698" lon="6.76881">
        <ele>311</ele>
        <time>2016-03-13T08:46:26.000Z</time>
      </trkpt>
      <trkpt lat="47.47696" lon="6.76887">
        <ele>311</ele>
        <time>2016-03-13T08:46:27.000Z</time>
      </trkpt>
      <trkpt lat="47.47695" lon="6.76892">
        <ele>311</ele>
        <time>2016-03-13T08:46:28.000Z</time>
      </trkpt>
      <trkpt lat="47.47693" lon="6.76897">
        <ele>311</ele>
        <time>2016-03-13T08:46:29.000Z</time>
      </trkpt>
      <trkpt lat="47.47691" lon="6.76902">
        <ele>311</ele>
        <time>2016-03-13T08:46:30.000Z</time>
      </trkpt>
      <trkpt lat="47.47689" lon="6.76907">
        <ele>311</ele>
        <time>2016-03-13T08:46:31.000Z</time>
      </trkpt>
      <trkpt lat="47.47687" lon="6.76912">
        <ele>311</ele>
        <time>2016-03-13T08:46:32.000Z</time>
      </trkpt>
      <trkpt lat="47.47683" lon="6.76919">
        <ele>311</ele>
        <time>2016-03-13T08:46:33.000Z</time>
      </trkpt>
      <trkpt lat="47.47681" lon="6.76925">
        <ele>311</ele>
        <time>2016-03-13T08:46:34.000Z</time>
      </trkpt>
      <trkpt lat="47.47678" lon="6.7693">
        <ele>311</ele>
        <time>2016-03-13T08:46:35.000Z</time>
      </trkpt>
      <trkpt lat="47.47676" lon="6.76938">
        <ele>311</ele>
        <time>2016-03-13T08:46:36.000Z</time>
      </trkpt>
      <trkpt lat="47.47672" lon="6.76943">
        <ele>311</ele>
        <time>2016-03-13T08:46:37.000Z</time>
      </trkpt>
      <trkpt lat="47.4767" lon="6.7695">
        <ele>311</ele>
        <time>2016-03-13T08:46:38.000Z</time>
      </trkpt>
      <trkpt lat="47.47668" lon="6.76956">
        <ele>311</ele>
        <time>2016-03-13T08:46:39.000Z</time>
      </trkpt>
      <trkpt lat="47.47667" lon="6.76962">
        <ele>311</ele>
        <time>2016-03-13T08:46:40.000Z</time>
      </trkpt>
      <trkpt lat="47.47665" lon="6.76967">
        <ele>311</ele>
        <time>2016-03-13T08:46:41.000Z</time>
      </trkpt>
      <trkpt lat="47.47662" lon="6.76974">
        <ele>311</ele>
        <time>2016-03-13T08:46:42.000Z</time>
      </trkpt>
      <trkpt lat="47.4766" lon="6.76979">
        <ele>311</ele>
        <time>2016-03-13T08:46:43.000Z</time>
      </trkpt>
      <trkpt lat="47.47658" lon="6.76984">
        <ele>311</ele>
        <time>2016-03-13T08:46:44.000Z</time>
      </trkpt>
      <trkpt lat="47.47656" lon="6.76989">
        <ele>311</ele>
        <time>2016-03-13T08:46:45.000Z</time>
      </trkpt>
      <trkpt lat="47.47654" lon="6.76992">
        <ele>311</ele>
        <time>2016-03-13T08:46:46.000Z</time>
      </trkpt>
      <trkpt lat="47.47651" lon="6.76997">
        <ele>311</ele>
        <time>2016-03-13T08:46:47.000Z</time>
      </trkpt>
      <trkpt lat="47.47652" lon="6.77006">
        <ele>311</ele>
        <time>2016-03-13T08:46:48.000Z</time>
      </trkpt>
      <trkpt lat="47.4765" lon="6.77011">
        <ele>311</ele>
        <time>2016-03-13T08:46:49.000Z</time>
      </trkpt>
      <trkpt lat="47.47649" lon="6.77016">
        <ele>311</ele>
        <time>2016-03-13T08:46:50.000Z</time>
      </trkpt>
      <trkpt lat="47.47648" lon="6.7702">
        <ele>311</ele>
        <time>2016-03-13T08:46:51.000Z</time>
      </trkpt>
      <trkpt lat="47.47647" lon="6.77025">
        <ele>311</ele>
        <time>2016-03-13T08:46:52.000Z</time>
      </trkpt>
      <trkpt lat="47.47646" lon="6.7703">
        <ele>311</ele>
        <time>2016-03-13T08:46:53.000Z</time>
      </trkpt>
      <trkpt lat="47.47644" lon="6.77034">
        <ele>311</ele>
        <time>2016-03-13T08:46:54.000Z</time>
      </trkpt>
      <trkpt lat="47.47644" lon="6.77039">
        <ele>311</ele>
        <time>2016-03-13T08:46:55.000Z</time>
      </trkpt>
      <trkpt lat="47.47643" lon="6.77044">
        <ele>311</ele>
        <time>2016-03-13T08:46:56.000Z</time>
      </trkpt>
      <trkpt lat="47.47642" lon="6.7705">
        <ele>311</ele>
        <time>2016-03-13T08:46:57.000Z</time>
      </trkpt>
      <trkpt lat="47.47641" lon="6.77055">
        <ele>311</ele>
        <time>2016-03-13T08:46:58.000Z</time>
      </trkpt>
      <trkpt lat="47.47641" lon="6.7706">
        <ele>311</ele>
        <time>2016-03-13T08:46:59.000Z</time>
      </trkpt>
      <trkpt lat="47.4764" lon="6.77065">
        <ele>311</ele>
        <time>2016-03-13T08:47:00.000Z</time>
      </trkpt>
      <trkpt lat="47.47639" lon="6.7707">
        <ele>311</ele>
        <time>2016-03-13T08:47:01.000Z</time>
      </trkpt>
      <trkpt lat="47.47638" lon="6.77075">
        <ele>311</ele>
        <time>2016-03-13T08:47:02.000Z</time>
      </trkpt>
      <trkpt lat="47.47637" lon="6.7708">
        <ele>311</ele>
        <time>2016-03-13T08:47:03.000Z</time>
      </trkpt>
      <trkpt lat="47.47636" lon="6.77086">
        <ele>311</ele>
        <time>2016-03-13T08:47:04.000Z</time>
      </trkpt>
      <trkpt lat="47.47635" lon="6.77093">
        <ele>311</ele>
        <time>2016-03-13T08:47:05.000Z</time>
      </trkpt>
      <trkpt lat="47.47634" lon="6.77103">
        <ele>310</ele>
        <time>2016-03-13T08:47:06.000Z</time>
      </trkpt>
      <trkpt lat="47.47633" lon="6.77112">
        <ele>310</ele>
        <time>2016-03-13T08:47:07.000Z</time>
      </trkpt>
      <trkpt lat="47.47632" lon="6.77121">
        <ele>310</ele>
        <time>2016-03-13T08:47:08.000Z</time>
      </trkpt>
      <trkpt lat="47.47631" lon="6.7713">
        <ele>310</ele>
        <time>2016-03-13T08:47:09.000Z</time>
      </trkpt>
      <trkpt lat="47.47628" lon="6.77138">
        <ele>310</ele>
        <time>2016-03-13T08:47:10.000Z</time>
      </trkpt>
      <trkpt lat="47.47625" lon="6.77146">
        <ele>310</ele>
        <time>2016-03-13T08:47:11.000Z</time>
      </trkpt>
      <trkpt lat="47.47621" lon="6.77154">
        <ele>310</ele>
        <time>2016-03-13T08:47:12.000Z</time>
      </trkpt>
      <trkpt lat="47.47618" lon="6.77164">
        <ele>310</ele>
        <time>2016-03-13T08:47:13.000Z</time>
      </trkpt>
      <trkpt lat="47.47615" lon="6.77173">
        <ele>310</ele>
        <time>2016-03-13T08:47:14.000Z</time>
      </trkpt>
      <trkpt lat="47.47611" lon="6.7718">
        <ele>310</ele>
        <time>2016-03-13T08:47:15.000Z</time>
      </trkpt>
      <trkpt lat="47.47604" lon="6.77182">
        <ele>310</ele>
        <time>2016-03-13T08:47:16.000Z</time>
      </trkpt>
      <trkpt lat="47.47598" lon="6.7718">
        <ele>310</ele>
        <time>2016-03-13T08:47:17.000Z</time>
      </trkpt>
      <trkpt lat="47.47593" lon="6.77177">
        <ele>310</ele>
        <time>2016-03-13T08:47:18.000Z</time>
      </trkpt>
      <trkpt lat="47.47588" lon="6.77173">
        <ele>309</ele>
        <time>2016-03-13T08:47:19.000Z</time>
      </trkpt>
      <trkpt lat="47.47583" lon="6.77169">
        <ele>309</ele>
        <time>2016-03-13T08:47:20.000Z</time>
      </trkpt>
      <trkpt lat="47.47579" lon="6.77166">
        <ele>309</ele>
        <time>2016-03-13T08:47:21.000Z</time>
      </trkpt>
      <trkpt lat="47.47575" lon="6.77163">
        <ele>309</ele>
        <time>2016-03-13T08:47:22.000Z</time>
      </trkpt>
      <trkpt lat="47.47571" lon="6.77161">
        <ele>309</ele>
        <time>2016-03-13T08:47:23.000Z</time>
      </trkpt>
      <trkpt lat="47.47566" lon="6.77158">
        <ele>310</ele>
        <time>2016-03-13T08:47:24.000Z</time>
      </trkpt>
      <trkpt lat="47.47562" lon="6.77154">
        <ele>310</ele>
        <time>2016-03-13T08:47:25.000Z</time>
      </trkpt>
      <trkpt lat="47.47558" lon="6.7715">
        <ele>310</ele>
        <time>2016-03-13T08:47:26.000Z</time>
      </trkpt>
      <trkpt lat="47.47553" lon="6.77147">
        <ele>310</ele>
        <time>2016-03-13T08:47:27.000Z</time>
      </trkpt>
      <trkpt lat="47.47549" lon="6.77143">
        <ele>310</ele>
        <time>2016-03-13T08:47:28.000Z</time>
      </trkpt>
      <trkpt lat="47.47545" lon="6.7714">
        <ele>310</ele>
        <time>2016-03-13T08:47:29.000Z</time>
      </trkpt>
      <trkpt lat="47.4754" lon="6.77136">
        <ele>310</ele>
        <time>2016-03-13T08:47:30.000Z</time>
      </trkpt>
      <trkpt lat="47.47536" lon="6.77134">
        <ele>310</ele>
        <time>2016-03-13T08:47:31.000Z</time>
      </trkpt>
      <trkpt lat="47.47531" lon="6.77134">
        <ele>310</ele>
        <time>2016-03-13T08:47:32.000Z</time>
      </trkpt>
      <trkpt lat="47.47527" lon="6.7714">
        <ele>310</ele>
        <time>2016-03-13T08:47:33.000Z</time>
      </trkpt>
      <trkpt lat="47.47524" lon="6.77145">
        <ele>310</ele>
        <time>2016-03-13T08:47:34.000Z</time>
      </trkpt>
      <trkpt lat="47.47521" lon="6.77148">
        <ele>310</ele>
        <time>2016-03-13T08:47:35.000Z</time>
      </trkpt>
      <trkpt lat="47.47518" lon="6.77154">
        <ele>310</ele>
        <time>2016-03-13T08:47:36.000Z</time>
      </trkpt>
      <trkpt lat="47.47517" lon="6.77163">
        <ele>309</ele>
        <time>2016-03-13T08:47:37.000Z</time>
      </trkpt>
      <trkpt lat="47.47516" lon="6.7717">
        <ele>310</ele>
        <time>2016-03-13T08:47:38.000Z</time>
      </trkpt>
      <trkpt lat="47.47521" lon="6.77175">
        <ele>310</ele>
        <time>2016-03-13T08:47:39.000Z</time>
      </trkpt>
      <trkpt lat="47.47524" lon="6.7718">
        <ele>310</ele>
        <time>2016-03-13T08:47:40.000Z</time>
      </trkpt>
      <trkpt lat="47.47528" lon="6.77182">
        <ele>310</ele>
        <time>2016-03-13T08:47:41.000Z</time>
      </trkpt>
      <trkpt lat="47.47531" lon="6.77187">
        <ele>310</ele>
        <time>2016-03-13T08:47:42.000Z</time>
      </trkpt>
      <trkpt lat="47.47535" lon="6.7719">
        <ele>310</ele>
        <time>2016-03-13T08:47:43.000Z</time>
      </trkpt>
      <trkpt lat="47.47539" lon="6.77193">
        <ele>310</ele>
        <time>2016-03-13T08:47:44.000Z</time>
      </trkpt>
      <trkpt lat="47.47542" lon="6.77195">
        <ele>310</ele>
        <time>2016-03-13T08:47:45.000Z</time>
      </trkpt>
      <trkpt lat="47.47546" lon="6.77197">
        <ele>310</ele>
        <time>2016-03-13T08:47:46.000Z</time>
      </trkpt>
      <trkpt lat="47.47551" lon="6.772">
        <ele>310</ele>
        <time>2016-03-13T08:47:47.000Z</time>
      </trkpt>
      <trkpt lat="47.47556" lon="6.77203">
        <ele>310</ele>
        <time>2016-03-13T08:47:48.000Z</time>
      </trkpt>
      <trkpt lat="47.4756" lon="6.77206">
        <ele>310</ele>
        <time>2016-03-13T08:47:49.000Z</time>
      </trkpt>
      <trkpt lat="47.47564" lon="6.77209">
        <ele>311</ele>
        <time>2016-03-13T08:47:50.000Z</time>
      </trkpt>
      <trkpt lat="47.47568" lon="6.77213">
        <ele>311</ele>
        <time>2016-03-13T08:47:51.000Z</time>
      </trkpt>
      <trkpt lat="47.47572" lon="6.77217">
        <ele>311</ele>
        <time>2016-03-13T08:47:52.000Z</time>
      </trkpt>
      <trkpt lat="47.47575" lon="6.77222">
        <ele>311</ele>
        <time>2016-03-13T08:47:53.000Z</time>
      </trkpt>
      <trkpt lat="47.4758" lon="6.77226">
        <ele>311</ele>
        <time>2016-03-13T08:47:54.000Z</time>
      </trkpt>
      <trkpt lat="47.47584" lon="6.7723">
        <ele>311</ele>
        <time>2016-03-13T08:47:55.000Z</time>
      </trkpt>
      <trkpt lat="47.47588" lon="6.77233">
        <ele>311</ele>
        <time>2016-03-13T08:47:56.000Z</time>
      </trkpt>
      <trkpt lat="47.47591" lon="6.77237">
        <ele>311</ele>
        <time>2016-03-13T08:47:57.000Z</time>
      </trkpt>
      <trkpt lat="47.47596" lon="6.77239">
        <ele>311</ele>
        <time>2016-03-13T08:47:58.000Z</time>
      </trkpt>
      <trkpt lat="47.47599" lon="6.77242">
        <ele>311</ele>
        <time>2016-03-13T08:47:59.000Z</time>
      </trkpt>
      <trkpt lat="47.47603" lon="6.77246">
        <ele>311</ele>
        <time>2016-03-13T08:48:00.000Z</time>
      </trkpt>
      <trkpt lat="47.47607" lon="6.77248">
        <ele>311</ele>
        <time>2016-03-13T08:48:01.000Z</time>
      </trkpt>
      <trkpt lat="47.47611" lon="6.7725">
        <ele>311</ele>
        <time>2016-03-13T08:48:02.000Z</time>
      </trkpt>
      <trkpt lat="47.47615" lon="6.77254">
        <ele>311</ele>
        <time>2016-03-13T08:48:03.000Z</time>
      </trkpt>
      <trkpt lat="47.47619" lon="6.77257">
        <ele>311</ele>
        <time>2016-03-13T08:48:04.000Z</time>
      </trkpt>
      <trkpt lat="47.47622" lon="6.77261">
        <ele>311</ele>
        <time>2016-03-13T08:48:05.000Z</time>
      </trkpt>
      <trkpt lat="47.47625" lon="6.77265">
        <ele>311</ele>
        <time>2016-03-13T08:48:06.000Z</time>
      </trkpt>
      <trkpt lat="47.47629" lon="6.77268">
        <ele>311</ele>
        <time>2016-03-13T08:48:07.000Z</time>
      </trkpt>
      <trkpt lat="47.47632" lon="6.77273">
        <ele>311</ele>
        <time>2016-03-13T08:48:08.000Z</time>
      </trkpt>
      <trkpt lat="47.47635" lon="6.77277">
        <ele>311</ele>
        <time>2016-03-13T08:48:09.000Z</time>
      </trkpt>
      <trkpt lat="47.47637" lon="6.77282">
        <ele>311</ele>
        <time>2016-03-13T08:48:10.000Z</time>
      </trkpt>
      <trkpt lat="47.47639" lon="6.77288">
        <ele>311</ele>
        <time>2016-03-13T08:48:11.000Z</time>
      </trkpt>
      <trkpt lat="47.4764" lon="6.77294">
        <ele>311</ele>
        <time>2016-03-13T08:48:12.000Z</time>
      </trkpt>
      <trkpt lat="47.47639" lon="6.77301">
        <ele>311</ele>
        <time>2016-03-13T08:48:13.000Z</time>
      </trkpt>
      <trkpt lat="47.47637" lon="6.77307">
        <ele>311</ele>
        <time>2016-03-13T08:48:14.000Z</time>
      </trkpt>
      <trkpt lat="47.47637" lon="6.77313">
        <ele>311</ele>
        <time>2016-03-13T08:48:15.000Z</time>
      </trkpt>
      <trkpt lat="47.47635" lon="6.77318">
        <ele>311</ele>
        <time>2016-03-13T08:48:16.000Z</time>
      </trkpt>
      <trkpt lat="47.47633" lon="6.77324">
        <ele>311</ele>
        <time>2016-03-13T08:48:17.000Z</time>
      </trkpt>
      <trkpt lat="47.47631" lon="6.77329">
        <ele>311</ele>
        <time>2016-03-13T08:48:18.000Z</time>
      </trkpt>
      <trkpt lat="47.47628" lon="6.77335">
        <ele>312</ele>
        <time>2016-03-13T08:48:19.000Z</time>
      </trkpt>
      <trkpt lat="47.47625" lon="6.7734">
        <ele>312</ele>
        <time>2016-03-13T08:48:20.000Z</time>
      </trkpt>
      <trkpt lat="47.47623" lon="6.77345">
        <ele>312</ele>
        <time>2016-03-13T08:48:21.000Z</time>
      </trkpt>
      <trkpt lat="47.47621" lon="6.77351">
        <ele>312</ele>
        <time>2016-03-13T08:48:22.000Z</time>
      </trkpt>
      <trkpt lat="47.47619" lon="6.77357">
        <ele>312</ele>
        <time>2016-03-13T08:48:23.000Z</time>
      </trkpt>
      <trkpt lat="47.47617" lon="6.77362">
        <ele>312</ele>
        <time>2016-03-13T08:48:24.000Z</time>
      </trkpt>
      <trkpt lat="47.47616" lon="6.77368">
        <ele>312</ele>
        <time>2016-03-13T08:48:25.000Z</time>
      </trkpt>
      <trkpt lat="47.47614" lon="6.77374">
        <ele>312</ele>
        <time>2016-03-13T08:48:26.000Z</time>
      </trkpt>
      <trkpt lat="47.47612" lon="6.77379">
        <ele>312</ele>
        <time>2016-03-13T08:48:27.000Z</time>
      </trkpt>
      <trkpt lat="47.4761" lon="6.77385">
        <ele>312</ele>
        <time>2016-03-13T08:48:28.000Z</time>
      </trkpt>
      <trkpt lat="47.47608" lon="6.7739">
        <ele>312</ele>
        <time>2016-03-13T08:48:29.000Z</time>
      </trkpt>
      <trkpt lat="47.47606" lon="6.77395">
        <ele>313</ele>
        <time>2016-03-13T08:48:30.000Z</time>
      </trkpt>
      <trkpt lat="47.47605" lon="6.774">
        <ele>313</ele>
        <time>2016-03-13T08:48:31.000Z</time>
      </trkpt>
      <trkpt lat="47.47603" lon="6.77404">
        <ele>313</ele>
        <time>2016-03-13T08:48:32.000Z</time>
      </trkpt>
      <trkpt lat="47.47601" lon="6.77409">
        <ele>313</ele>
        <time>2016-03-13T08:48:33.000Z</time>
      </trkpt>
      <trkpt lat="47.47598" lon="6.77414">
        <ele>313</ele>
        <time>2016-03-13T08:48:34.000Z</time>
      </trkpt>
      <trkpt lat="47.47596" lon="6.77419">
        <ele>314</ele>
        <time>2016-03-13T08:48:35.000Z</time>
      </trkpt>
      <trkpt lat="47.47594" lon="6.77424">
        <ele>314</ele>
        <time>2016-03-13T08:48:36.000Z</time>
      </trkpt>
      <trkpt lat="47.47592" lon="6.77428">
        <ele>314</ele>
        <time>2016-03-13T08:48:37.000Z</time>
      </trkpt>
      <trkpt lat="47.4759" lon="6.77433">
        <ele>314</ele>
        <time>2016-03-13T08:48:38.000Z</time>
      </trkpt>
      <trkpt lat="47.47588" lon="6.77437">
        <ele>314</ele>
        <time>2016-03-13T08:48:39.000Z</time>
      </trkpt>
      <trkpt lat="47.47587" lon="6.7744">
        <ele>314</ele>
        <time>2016-03-13T08:48:40.000Z</time>
      </trkpt>
      <trkpt lat="47.47586" lon="6.77444">
        <ele>314</ele>
        <time>2016-03-13T08:48:41.000Z</time>
      </trkpt>
      <trkpt lat="47.47587" lon="6.7745">
        <ele>314</ele>
        <time>2016-03-13T08:48:43.000Z</time>
      </trkpt>
      <trkpt lat="47.47589" lon="6.77452">
        <ele>314</ele>
        <time>2016-03-13T08:48:44.000Z</time>
      </trkpt>
      <trkpt lat="47.47591" lon="6.77455">
        <ele>314</ele>
        <time>2016-03-13T08:48:45.000Z</time>
      </trkpt>
      <trkpt lat="47.47593" lon="6.77459">
        <ele>314</ele>
        <time>2016-03-13T08:48:46.000Z</time>
      </trkpt>
      <trkpt lat="47.47596" lon="6.77463">
        <ele>314</ele>
        <time>2016-03-13T08:48:47.000Z</time>
      </trkpt>
      <trkpt lat="47.47599" lon="6.77468">
        <ele>314</ele>
        <time>2016-03-13T08:48:48.000Z</time>
      </trkpt>
      <trkpt lat="47.47603" lon="6.77472">
        <ele>314</ele>
        <time>2016-03-13T08:48:49.000Z</time>
      </trkpt>
      <trkpt lat="47.47606" lon="6.77477">
        <ele>314</ele>
        <time>2016-03-13T08:48:50.000Z</time>
      </trkpt>
      <trkpt lat="47.4761" lon="6.77482">
        <ele>314</ele>
        <time>2016-03-13T08:48:51.000Z</time>
      </trkpt>
      <trkpt lat="47.47613" lon="6.77486">
        <ele>314</ele>
        <time>2016-03-13T08:48:52.000Z</time>
      </trkpt>
      <trkpt lat="47.47616" lon="6.77491">
        <ele>314</ele>
        <time>2016-03-13T08:48:53.000Z</time>
      </trkpt>
      <trkpt lat="47.4762" lon="6.77495">
        <ele>314</ele>
        <time>2016-03-13T08:48:54.000Z</time>
      </trkpt>
      <trkpt lat="47.47625" lon="6.77501">
        <ele>315</ele>
        <time>2016-03-13T08:48:55.000Z</time>
      </trkpt>
      <trkpt lat="47.47629" lon="6.77505">
        <ele>315</ele>
        <time>2016-03-13T08:48:56.000Z</time>
      </trkpt>
      <trkpt lat="47.47632" lon="6.7751">
        <ele>315</ele>
        <time>2016-03-13T08:48:57.000Z</time>
      </trkpt>
      <trkpt lat="47.47636" lon="6.77515">
        <ele>315</ele>
        <time>2016-03-13T08:48:58.000Z</time>
      </trkpt>
      <trkpt lat="47.47639" lon="6.7752">
        <ele>315</ele>
        <time>2016-03-13T08:48:59.000Z</time>
      </trkpt>
      <trkpt lat="47.47643" lon="6.77524">
        <ele>315</ele>
        <time>2016-03-13T08:49:00.000Z</time>
      </trkpt>
      <trkpt lat="47.47646" lon="6.77529">
        <ele>315</ele>
        <time>2016-03-13T08:49:01.000Z</time>
      </trkpt>
      <trkpt lat="47.47648" lon="6.77533">
        <ele>315</ele>
        <time>2016-03-13T08:49:02.000Z</time>
      </trkpt>
      <trkpt lat="47.47651" lon="6.77538">
        <ele>315</ele>
        <time>2016-03-13T08:49:03.000Z</time>
      </trkpt>
      <trkpt lat="47.47654" lon="6.77543">
        <ele>315</ele>
        <time>2016-03-13T08:49:04.000Z</time>
      </trkpt>
      <trkpt lat="47.47658" lon="6.77548">
        <ele>315</ele>
        <time>2016-03-13T08:49:05.000Z</time>
      </trkpt>
      <trkpt lat="47.47661" lon="6.77552">
        <ele>315</ele>
        <time>2016-03-13T08:49:06.000Z</time>
      </trkpt>
      <trkpt lat="47.47664" lon="6.77557">
        <ele>315</ele>
        <time>2016-03-13T08:49:07.000Z</time>
      </trkpt>
      <trkpt lat="47.47667" lon="6.77561">
        <ele>314</ele>
        <time>2016-03-13T08:49:08.000Z</time>
      </trkpt>
      <trkpt lat="47.4767" lon="6.77565">
        <ele>314</ele>
        <time>2016-03-13T08:49:09.000Z</time>
      </trkpt>
      <trkpt lat="47.47672" lon="6.7757">
        <ele>314</ele>
        <time>2016-03-13T08:49:10.000Z</time>
      </trkpt>
      <trkpt lat="47.47675" lon="6.77573">
        <ele>314</ele>
        <time>2016-03-13T08:49:11.000Z</time>
      </trkpt>
      <trkpt lat="47.47678" lon="6.77577">
        <ele>314</ele>
        <time>2016-03-13T08:49:12.000Z</time>
      </trkpt>
      <trkpt lat="47.4768" lon="6.77581">
        <ele>314</ele>
        <time>2016-03-13T08:49:13.000Z</time>
      </trkpt>
      <trkpt lat="47.47683" lon="6.77585">
        <ele>314</ele>
        <time>2016-03-13T08:49:14.000Z</time>
      </trkpt>
      <trkpt lat="47.47686" lon="6.77589">
        <ele>314</ele>
        <time>2016-03-13T08:49:15.000Z</time>
      </trkpt>
      <trkpt lat="47.47688" lon="6.77594">
        <ele>314</ele>
        <time>2016-03-13T08:49:16.000Z</time>
      </trkpt>
      <trkpt lat="47.47691" lon="6.77598">
        <ele>314</ele>
        <time>2016-03-13T08:49:17.000Z</time>
      </trkpt>
      <trkpt lat="47.47693" lon="6.77604">
        <ele>314</ele>
        <time>2016-03-13T08:49:18.000Z</time>
      </trkpt>
      <trkpt lat="47.47696" lon="6.77609">
        <ele>314</ele>
        <time>2016-03-13T08:49:19.000Z</time>
      </trkpt>
      <trkpt lat="47.47697" lon="6.77615">
        <ele>314</ele>
        <time>2016-03-13T08:49:20.000Z</time>
      </trkpt>
      <trkpt lat="47.47699" lon="6.7762">
        <ele>314</ele>
        <time>2016-03-13T08:49:21.000Z</time>
      </trkpt>
      <trkpt lat="47.477" lon="6.77625">
        <ele>314</ele>
        <time>2016-03-13T08:49:22.000Z</time>
      </trkpt>
      <trkpt lat="47.47701" lon="6.77631">
        <ele>314</ele>
        <time>2016-03-13T08:49:23.000Z</time>
      </trkpt>
      <trkpt lat="47.47701" lon="6.77637">
        <ele>314</ele>
        <time>2016-03-13T08:49:24.000Z</time>
      </trkpt>
      <trkpt lat="47.47702" lon="6.77643">
        <ele>314</ele>
        <time>2016-03-13T08:49:25.000Z</time>
      </trkpt>
      <trkpt lat="47.47702" lon="6.77648">
        <ele>314</ele>
        <time>2016-03-13T08:49:26.000Z</time>
      </trkpt>
      <trkpt lat="47.47703" lon="6.77653">
        <ele>314</ele>
        <time>2016-03-13T08:49:27.000Z</time>
      </trkpt>
      <trkpt lat="47.47704" lon="6.77658">
        <ele>314</ele>
        <time>2016-03-13T08:49:28.000Z</time>
      </trkpt>
      <trkpt lat="47.47705" lon="6.77663">
        <ele>314</ele>
        <time>2016-03-13T08:49:29.000Z</time>
      </trkpt>
      <trkpt lat="47.47706" lon="6.77668">
        <ele>315</ele>
        <time>2016-03-13T08:49:30.000Z</time>
      </trkpt>
      <trkpt lat="47.47707" lon="6.77674">
        <ele>315</ele>
        <time>2016-03-13T08:49:31.000Z</time>
      </trkpt>
      <trkpt lat="47.47709" lon="6.77679">
        <ele>315</ele>
        <time>2016-03-13T08:49:32.000Z</time>
      </trkpt>
      <trkpt lat="47.4771" lon="6.77685">
        <ele>315</ele>
        <time>2016-03-13T08:49:33.000Z</time>
      </trkpt>
      <trkpt lat="47.47712" lon="6.7769">
        <ele>315</ele>
        <time>2016-03-13T08:49:34.000Z</time>
      </trkpt>
      <trkpt lat="47.47714" lon="6.77695">
        <ele>315</ele>
        <time>2016-03-13T08:49:35.000Z</time>
      </trkpt>
      <trkpt lat="47.47716" lon="6.777">
        <ele>315</ele>
        <time>2016-03-13T08:49:36.000Z</time>
      </trkpt>
      <trkpt lat="47.47717" lon="6.77705">
        <ele>315</ele>
        <time>2016-03-13T08:49:37.000Z</time>
      </trkpt>
      <trkpt lat="47.47717" lon="6.7771">
        <ele>315</ele>
        <time>2016-03-13T08:49:38.000Z</time>
      </trkpt>
      <trkpt lat="47.47716" lon="6.77716">
        <ele>315</ele>
        <time>2016-03-13T08:49:39.000Z</time>
      </trkpt>
      <trkpt lat="47.47714" lon="6.77721">
        <ele>316</ele>
        <time>2016-03-13T08:49:40.000Z</time>
      </trkpt>
      <trkpt lat="47.47712" lon="6.77726">
        <ele>316</ele>
        <time>2016-03-13T08:49:41.000Z</time>
      </trkpt>
      <trkpt lat="47.47709" lon="6.77731">
        <ele>316</ele>
        <time>2016-03-13T08:49:42.000Z</time>
      </trkpt>
      <trkpt lat="47.47708" lon="6.77736">
        <ele>316</ele>
        <time>2016-03-13T08:49:43.000Z</time>
      </trkpt>
      <trkpt lat="47.47706" lon="6.77741">
        <ele>316</ele>
        <time>2016-03-13T08:49:44.000Z</time>
      </trkpt>
      <trkpt lat="47.47705" lon="6.77746">
        <ele>316</ele>
        <time>2016-03-13T08:49:45.000Z</time>
      </trkpt>
      <trkpt lat="47.47704" lon="6.77751">
        <ele>316</ele>
        <time>2016-03-13T08:49:46.000Z</time>
      </trkpt>
      <trkpt lat="47.47703" lon="6.77755">
        <ele>316</ele>
        <time>2016-03-13T08:49:47.000Z</time>
      </trkpt>
      <trkpt lat="47.47702" lon="6.7776">
        <ele>316</ele>
        <time>2016-03-13T08:49:48.000Z</time>
      </trkpt>
      <trkpt lat="47.47701" lon="6.77764">
        <ele>316</ele>
        <time>2016-03-13T08:49:49.000Z</time>
      </trkpt>
      <trkpt lat="47.477" lon="6.77768">
        <ele>316</ele>
        <time>2016-03-13T08:49:50.000Z</time>
      </trkpt>
      <trkpt lat="47.47699" lon="6.77771">
        <ele>317</ele>
        <time>2016-03-13T08:49:51.000Z</time>
      </trkpt>
      <trkpt lat="47.47698" lon="6.77775">
        <ele>317</ele>
        <time>2016-03-13T08:49:52.000Z</time>
      </trkpt>
      <trkpt lat="47.47698" lon="6.7778">
        <ele>317</ele>
        <time>2016-03-13T08:49:53.000Z</time>
      </trkpt>
      <trkpt lat="47.47697" lon="6.77785">
        <ele>317</ele>
        <time>2016-03-13T08:49:54.000Z</time>
      </trkpt>
      <trkpt lat="47.47697" lon="6.77791">
        <ele>317</ele>
        <time>2016-03-13T08:49:55.000Z</time>
      </trkpt>
      <trkpt lat="47.47697" lon="6.77797">
        <ele>317</ele>
        <time>2016-03-13T08:49:56.000Z</time>
      </trkpt>
      <trkpt lat="47.47697" lon="6.77803">
        <ele>317</ele>
        <time>2016-03-13T08:49:57.000Z</time>
      </trkpt>
      <trkpt lat="47.47698" lon="6.77809">
        <ele>317</ele>
        <time>2016-03-13T08:49:58.000Z</time>
      </trkpt>
      <trkpt lat="47.47698" lon="6.77815">
        <ele>317</ele>
        <time>2016-03-13T08:49:59.000Z</time>
      </trkpt>
      <trkpt lat="47.47699" lon="6.77821">
        <ele>317</ele>
        <time>2016-03-13T08:50:00.000Z</time>
      </trkpt>
      <trkpt lat="47.47698" lon="6.77826">
        <ele>317</ele>
        <time>2016-03-13T08:50:01.000Z</time>
      </trkpt>
      <trkpt lat="47.47698" lon="6.77832">
        <ele>317</ele>
        <time>2016-03-13T08:50:02.000Z</time>
      </trkpt>
      <trkpt lat="47.47698" lon="6.77837">
        <ele>318</ele>
        <time>2016-03-13T08:50:03.000Z</time>
      </trkpt>
      <trkpt lat="47.47698" lon="6.77843">
        <ele>318</ele>
        <time>2016-03-13T08:50:04.000Z</time>
      </trkpt>
      <trkpt lat="47.47698" lon="6.77848">
        <ele>318</ele>
        <time>2016-03-13T08:50:05.000Z</time>
      </trkpt>
      <trkpt lat="47.47698" lon="6.77853">
        <ele>318</ele>
        <time>2016-03-13T08:50:06.000Z</time>
      </trkpt>
      <trkpt lat="47.47698" lon="6.77858">
        <ele>318</ele>
        <time>2016-03-13T08:50:07.000Z</time>
      </trkpt>
      <trkpt lat="47.47698" lon="6.77863">
        <ele>318</ele>
        <time>2016-03-13T08:50:08.000Z</time>
      </trkpt>
      <trkpt lat="47.47699" lon="6.77868">
        <ele>318</ele>
        <time>2016-03-13T08:50:09.000Z</time>
      </trkpt>
      <trkpt lat="47.47699" lon="6.77873">
        <ele>318</ele>
        <time>2016-03-13T08:50:10.000Z</time>
      </trkpt>
      <trkpt lat="47.477" lon="6.77878">
        <ele>318</ele>
        <time>2016-03-13T08:50:11.000Z</time>
      </trkpt>
      <trkpt lat="47.477" lon="6.77883">
        <ele>318</ele>
        <time>2016-03-13T08:50:12.000Z</time>
      </trkpt>
      <trkpt lat="47.47701" lon="6.77888">
        <ele>318</ele>
        <time>2016-03-13T08:50:13.000Z</time>
      </trkpt>
      <trkpt lat="47.47702" lon="6.77892">
        <ele>318</ele>
        <time>2016-03-13T08:50:14.000Z</time>
      </trkpt>
      <trkpt lat="47.47703" lon="6.77896">
        <ele>318</ele>
        <time>2016-03-13T08:50:15.000Z</time>
      </trkpt>
      <trkpt lat="47.47703" lon="6.77901">
        <ele>318</ele>
        <time>2016-03-13T08:50:16.000Z</time>
      </trkpt>
      <trkpt lat="47.47704" lon="6.77905">
        <ele>318</ele>
        <time>2016-03-13T08:50:17.000Z</time>
      </trkpt>
      <trkpt lat="47.47705" lon="6.7791">
        <ele>318</ele>
        <time>2016-03-13T08:50:18.000Z</time>
      </trkpt>
      <trkpt lat="47.47706" lon="6.77914">
        <ele>318</ele>
        <time>2016-03-13T08:50:19.000Z</time>
      </trkpt>
      <trkpt lat="47.47707" lon="6.77919">
        <ele>320</ele>
        <time>2016-03-13T08:50:20.000Z</time>
      </trkpt>
      <trkpt lat="47.47708" lon="6.77924">
        <ele>320</ele>
        <time>2016-03-13T08:50:21.000Z</time>
      </trkpt>
      <trkpt lat="47.47709" lon="6.77929">
        <ele>320</ele>
        <time>2016-03-13T08:50:22.000Z</time>
      </trkpt>
      <trkpt lat="47.4771" lon="6.77935">
        <ele>320</ele>
        <time>2016-03-13T08:50:23.000Z</time>
      </trkpt>
      <trkpt lat="47.47711" lon="6.7794">
        <ele>320</ele>
        <time>2016-03-13T08:50:24.000Z</time>
      </trkpt>
      <trkpt lat="47.47711" lon="6.77946">
        <ele>320</ele>
        <time>2016-03-13T08:50:25.000Z</time>
      </trkpt>
      <trkpt lat="47.47712" lon="6.77951">
        <ele>320</ele>
        <time>2016-03-13T08:50:26.000Z</time>
      </trkpt>
      <trkpt lat="47.47713" lon="6.77956">
        <ele>320</ele>
        <time>2016-03-13T08:50:27.000Z</time>
      </trkpt>
      <trkpt lat="47.47714" lon="6.77961">
        <ele>320</ele>
        <time>2016-03-13T08:50:28.000Z</time>
      </trkpt>
      <trkpt lat="47.47715" lon="6.77965">
        <ele>320</ele>
        <time>2016-03-13T08:50:29.000Z</time>
      </trkpt>
      <trkpt lat="47.47716" lon="6.7797">
        <ele>320</ele>
        <time>2016-03-13T08:50:30.000Z</time>
      </trkpt>
      <trkpt lat="47.47717" lon="6.77975">
        <ele>320</ele>
        <time>2016-03-13T08:50:31.000Z</time>
      </trkpt>
      <trkpt lat="47.47718" lon="6.7798">
        <ele>320</ele>
        <time>2016-03-13T08:50:32.000Z</time>
      </trkpt>
      <trkpt lat="47.47719" lon="6.77985">
        <ele>320</ele>
        <time>2016-03-13T08:50:33.000Z</time>
      </trkpt>
      <trkpt lat="47.4772" lon="6.77991">
        <ele>320</ele>
        <time>2016-03-13T08:50:34.000Z</time>
      </trkpt>
      <trkpt lat="47.47721" lon="6.77997">
        <ele>320</ele>
        <time>2016-03-13T08:50:35.000Z</time>
      </trkpt>
      <trkpt lat="47.47721" lon="6.78002">
        <ele>321</ele>
        <time>2016-03-13T08:50:36.000Z</time>
      </trkpt>
      <trkpt lat="47.47722" lon="6.78008">
        <ele>321</ele>
        <time>2016-03-13T08:50:37.000Z</time>
      </trkpt>
      <trkpt lat="47.47723" lon="6.78014">
        <ele>321</ele>
        <time>2016-03-13T08:50:38.000Z</time>
      </trkpt>
      <trkpt lat="47.47723" lon="6.78019">
        <ele>321</ele>
        <time>2016-03-13T08:50:39.000Z</time>
      </trkpt>
      <trkpt lat="47.47724" lon="6.78024">
        <ele>322</ele>
        <time>2016-03-13T08:50:40.000Z</time>
      </trkpt>
      <trkpt lat="47.47724" lon="6.78029">
        <ele>322</ele>
        <time>2016-03-13T08:50:41.000Z</time>
      </trkpt>
      <trkpt lat="47.47724" lon="6.78034">
        <ele>322</ele>
        <time>2016-03-13T08:50:42.000Z</time>
      </trkpt>
      <trkpt lat="47.47723" lon="6.78038">
        <ele>322</ele>
        <time>2016-03-13T08:50:43.000Z</time>
      </trkpt>
      <trkpt lat="47.47723" lon="6.78043">
        <ele>322</ele>
        <time>2016-03-13T08:50:44.000Z</time>
      </trkpt>
      <trkpt lat="47.47722" lon="6.78047">
        <ele>322</ele>
        <time>2016-03-13T08:50:45.000Z</time>
      </trkpt>
      <trkpt lat="47.47722" lon="6.78052">
        <ele>322</ele>
        <time>2016-03-13T08:50:46.000Z</time>
      </trkpt>
      <trkpt lat="47.47721" lon="6.78056">
        <ele>322</ele>
        <time>2016-03-13T08:50:47.000Z</time>
      </trkpt>
      <trkpt lat="47.4772" lon="6.7806">
        <ele>322</ele>
        <time>2016-03-13T08:50:48.000Z</time>
      </trkpt>
      <trkpt lat="47.47719" lon="6.78064">
        <ele>322</ele>
        <time>2016-03-13T08:50:49.000Z</time>
      </trkpt>
      <trkpt lat="47.47718" lon="6.78068">
        <ele>322</ele>
        <time>2016-03-13T08:50:50.000Z</time>
      </trkpt>
      <trkpt lat="47.47717" lon="6.78071">
        <ele>322</ele>
        <time>2016-03-13T08:50:51.000Z</time>
      </trkpt>
      <trkpt lat="47.47716" lon="6.78075">
        <ele>322</ele>
        <time>2016-03-13T08:50:52.000Z</time>
      </trkpt>
      <trkpt lat="47.47714" lon="6.78078">
        <ele>322</ele>
        <time>2016-03-13T08:50:53.000Z</time>
      </trkpt>
      <trkpt lat="47.47712" lon="6.78081">
        <ele>323</ele>
        <time>2016-03-13T08:50:54.000Z</time>
      </trkpt>
      <trkpt lat="47.4771" lon="6.78085">
        <ele>325</ele>
        <time>2016-03-13T08:50:55.000Z</time>
      </trkpt>
      <trkpt lat="47.47709" lon="6.78089">
        <ele>325</ele>
        <time>2016-03-13T08:50:56.000Z</time>
      </trkpt>
      <trkpt lat="47.47707" lon="6.78093">
        <ele>325</ele>
        <time>2016-03-13T08:50:57.000Z</time>
      </trkpt>
      <trkpt lat="47.47706" lon="6.78097">
        <ele>326</ele>
        <time>2016-03-13T08:50:58.000Z</time>
      </trkpt>
      <trkpt lat="47.47704" lon="6.78102">
        <ele>326</ele>
        <time>2016-03-13T08:50:59.000Z</time>
      </trkpt>
      <trkpt lat="47.47702" lon="6.78106">
        <ele>326</ele>
        <time>2016-03-13T08:51:00.000Z</time>
      </trkpt>
      <trkpt lat="47.477" lon="6.7811">
        <ele>326</ele>
        <time>2016-03-13T08:51:01.000Z</time>
      </trkpt>
      <trkpt lat="47.47698" lon="6.78114">
        <ele>326</ele>
        <time>2016-03-13T08:51:02.000Z</time>
      </trkpt>
      <trkpt lat="47.47697" lon="6.78119">
        <ele>326</ele>
        <time>2016-03-13T08:51:03.000Z</time>
      </trkpt>
      <trkpt lat="47.47696" lon="6.78123">
        <ele>327</ele>
        <time>2016-03-13T08:51:04.000Z</time>
      </trkpt>
      <trkpt lat="47.47695" lon="6.78127">
        <ele>327</ele>
        <time>2016-03-13T08:51:05.000Z</time>
      </trkpt>
      <trkpt lat="47.47693" lon="6.78131">
        <ele>327</ele>
        <time>2016-03-13T08:51:06.000Z</time>
      </trkpt>
      <trkpt lat="47.47692" lon="6.78135">
        <ele>327</ele>
        <time>2016-03-13T08:51:07.000Z</time>
      </trkpt>
      <trkpt lat="47.47691" lon="6.78139">
        <ele>327</ele>
        <time>2016-03-13T08:51:08.000Z</time>
      </trkpt>
      <trkpt lat="47.4769" lon="6.78143">
        <ele>328</ele>
        <time>2016-03-13T08:51:09.000Z</time>
      </trkpt>
      <trkpt lat="47.47689" lon="6.78147">
        <ele>328</ele>
        <time>2016-03-13T08:51:10.000Z</time>
      </trkpt>
      <trkpt lat="47.47688" lon="6.78151">
        <ele>328</ele>
        <time>2016-03-13T08:51:11.000Z</time>
      </trkpt>
      <trkpt lat="47.47687" lon="6.78154">
        <ele>328</ele>
        <time>2016-03-13T08:51:12.000Z</time>
      </trkpt>
      <trkpt lat="47.47686" lon="6.78157">
        <ele>329</ele>
        <time>2016-03-13T08:51:13.000Z</time>
      </trkpt>
      <trkpt lat="47.47685" lon="6.78161">
        <ele>329</ele>
        <time>2016-03-13T08:51:14.000Z</time>
      </trkpt>
      <trkpt lat="47.47684" lon="6.78164">
        <ele>329</ele>
        <time>2016-03-13T08:51:15.000Z</time>
      </trkpt>
      <trkpt lat="47.47683" lon="6.78168">
        <ele>332</ele>
        <time>2016-03-13T08:51:16.000Z</time>
      </trkpt>
      <trkpt lat="47.47682" lon="6.78172">
        <ele>332</ele>
        <time>2016-03-13T08:51:17.000Z</time>
      </trkpt>
      <trkpt lat="47.47681" lon="6.78175">
        <ele>332</ele>
        <time>2016-03-13T08:51:18.000Z</time>
      </trkpt>
      <trkpt lat="47.4768" lon="6.78179">
        <ele>332</ele>
        <time>2016-03-13T08:51:19.000Z</time>
      </trkpt>
      <trkpt lat="47.47679" lon="6.78183">
        <ele>332</ele>
        <time>2016-03-13T08:51:20.000Z</time>
      </trkpt>
      <trkpt lat="47.47679" lon="6.78186">
        <ele>332</ele>
        <time>2016-03-13T08:51:21.000Z</time>
      </trkpt>
      <trkpt lat="47.47679" lon="6.78191">
        <ele>332</ele>
        <time>2016-03-13T08:51:22.000Z</time>
      </trkpt>
      <trkpt lat="47.47679" lon="6.78195">
        <ele>332</ele>
        <time>2016-03-13T08:51:23.000Z</time>
      </trkpt>
      <trkpt lat="47.47679" lon="6.782">
        <ele>333</ele>
        <time>2016-03-13T08:51:24.000Z</time>
      </trkpt>
      <trkpt lat="47.4768" lon="6.78205">
        <ele>333</ele>
        <time>2016-03-13T08:51:25.000Z</time>
      </trkpt>
      <trkpt lat="47.4768" lon="6.78209">
        <ele>333</ele>
        <time>2016-03-13T08:51:25.998Z</time>
      </trkpt>
      <trkpt lat="47.47682" lon="6.78214">
        <ele>333</ele>
        <time>2016-03-13T08:51:27.000Z</time>
      </trkpt>
      <trkpt lat="47.47684" lon="6.78218">
        <ele>333</ele>
        <time>2016-03-13T08:51:28.000Z</time>
      </trkpt>
      <trkpt lat="47.47685" lon="6.78222">
        <ele>334</ele>
        <time>2016-03-13T08:51:29.000Z</time>
      </trkpt>
      <trkpt lat="47.47687" lon="6.78226">
        <ele>334</ele>
        <time>2016-03-13T08:51:30.000Z</time>
      </trkpt>
      <trkpt lat="47.47689" lon="6.7823">
        <ele>334</ele>
        <time>2016-03-13T08:51:31.000Z</time>
      </trkpt>
      <trkpt lat="47.4769" lon="6.78234">
        <ele>334</ele>
        <time>2016-03-13T08:51:32.000Z</time>
      </trkpt>
      <trkpt lat="47.47692" lon="6.78238">
        <ele>334</ele>
        <time>2016-03-13T08:51:33.000Z</time>
      </trkpt>
      <trkpt lat="47.47693" lon="6.78241">
        <ele>334</ele>
        <time>2016-03-13T08:51:34.000Z</time>
      </trkpt>
      <trkpt lat="47.47695" lon="6.78245">
        <ele>334</ele>
        <time>2016-03-13T08:51:35.000Z</time>
      </trkpt>
      <trkpt lat="47.47696" lon="6.78248">
        <ele>334</ele>
        <time>2016-03-13T08:51:36.000Z</time>
      </trkpt>
      <trkpt lat="47.47697" lon="6.78251">
        <ele>337</ele>
        <time>2016-03-13T08:51:37.000Z</time>
      </trkpt>
      <trkpt lat="47.47699" lon="6.78256">
        <ele>337</ele>
        <time>2016-03-13T08:51:39.000Z</time>
      </trkpt>
      <trkpt lat="47.477" lon="6.78258">
        <ele>337</ele>
        <time>2016-03-13T08:51:40.000Z</time>
      </trkpt>
      <trkpt lat="47.47701" lon="6.78261">
        <ele>337</ele>
        <time>2016-03-13T08:51:41.000Z</time>
      </trkpt>
      <trkpt lat="47.47702" lon="6.78264">
        <ele>337</ele>
        <time>2016-03-13T08:51:42.000Z</time>
      </trkpt>
      <trkpt lat="47.47702" lon="6.78268">
        <ele>337</ele>
        <time>2016-03-13T08:51:43.000Z</time>
      </trkpt>
      <trkpt lat="47.47703" lon="6.78271">
        <ele>337</ele>
        <time>2016-03-13T08:51:44.000Z</time>
      </trkpt>
      <trkpt lat="47.47704" lon="6.78275">
        <ele>337</ele>
        <time>2016-03-13T08:51:45.000Z</time>
      </trkpt>
      <trkpt lat="47.47705" lon="6.78279">
        <ele>337</ele>
        <time>2016-03-13T08:51:46.000Z</time>
      </trkpt>
      <trkpt lat="47.47705" lon="6.78282">
        <ele>337</ele>
        <time>2016-03-13T08:51:47.000Z</time>
      </trkpt>
      <trkpt lat="47.47706" lon="6.78286">
        <ele>337</ele>
        <time>2016-03-13T08:51:48.000Z</time>
      </trkpt>
      <trkpt lat="47.47706" lon="6.7829">
        <ele>338</ele>
        <time>2016-03-13T08:51:49.000Z</time>
      </trkpt>
      <trkpt lat="47.47707" lon="6.78294">
        <ele>338</ele>
        <time>2016-03-13T08:51:50.000Z</time>
      </trkpt>
      <trkpt lat="47.47707" lon="6.78297">
        <ele>338</ele>
        <time>2016-03-13T08:51:51.000Z</time>
      </trkpt>
      <trkpt lat="47.47707" lon="6.783">
        <ele>338</ele>
        <time>2016-03-13T08:51:52.000Z</time>
      </trkpt>
      <trkpt lat="47.47707" lon="6.78307">
        <ele>338</ele>
        <time>2016-03-13T08:51:54.000Z</time>
      </trkpt>
      <trkpt lat="47.47707" lon="6.7831">
        <ele>338</ele>
        <time>2016-03-13T08:51:55.000Z</time>
      </trkpt>
      <trkpt lat="47.47706" lon="6.78314">
        <ele>338</ele>
        <time>2016-03-13T08:51:56.000Z</time>
      </trkpt>
      <trkpt lat="47.47705" lon="6.78317">
        <ele>338</ele>
        <time>2016-03-13T08:51:57.000Z</time>
      </trkpt>
      <trkpt lat="47.47703" lon="6.78319">
        <ele>339</ele>
        <time>2016-03-13T08:51:58.000Z</time>
      </trkpt>
      <trkpt lat="47.47702" lon="6.78322">
        <ele>339</ele>
        <time>2016-03-13T08:51:59.000Z</time>
      </trkpt>
      <trkpt lat="47.47699" lon="6.78326">
        <ele>339</ele>
        <time>2016-03-13T08:52:01.000Z</time>
      </trkpt>
      <trkpt lat="47.47697" lon="6.78328">
        <ele>339</ele>
        <time>2016-03-13T08:52:02.000Z</time>
      </trkpt>
      <trkpt lat="47.47694" lon="6.78332">
        <ele>340</ele>
        <time>2016-03-13T08:52:04.000Z</time>
      </trkpt>
      <trkpt lat="47.47692" lon="6.78334">
        <ele>341</ele>
        <time>2016-03-13T08:52:05.000Z</time>
      </trkpt>
      <trkpt lat="47.4769" lon="6.78337">
        <ele>342</ele>
        <time>2016-03-13T08:52:06.000Z</time>
      </trkpt>
      <trkpt lat="47.47687" lon="6.7834">
        <ele>342</ele>
        <time>2016-03-13T08:52:07.000Z</time>
      </trkpt>
      <trkpt lat="47.47685" lon="6.78343">
        <ele>342</ele>
        <time>2016-03-13T08:52:08.000Z</time>
      </trkpt>
      <trkpt lat="47.47683" lon="6.78346">
        <ele>342</ele>
        <time>2016-03-13T08:52:09.000Z</time>
      </trkpt>
      <trkpt lat="47.4768" lon="6.78349">
        <ele>342</ele>
        <time>2016-03-13T08:52:10.000Z</time>
      </trkpt>
      <trkpt lat="47.47678" lon="6.78352">
        <ele>342</ele>
        <time>2016-03-13T08:52:11.000Z</time>
      </trkpt>
      <trkpt lat="47.47676" lon="6.78355">
        <ele>342</ele>
        <time>2016-03-13T08:52:12.000Z</time>
      </trkpt>
      <trkpt lat="47.47674" lon="6.78357">
        <ele>342</ele>
        <time>2016-03-13T08:52:13.000Z</time>
      </trkpt>
      <trkpt lat="47.47671" lon="6.7836">
        <ele>342</ele>
        <time>2016-03-13T08:52:15.000Z</time>
      </trkpt>
      <trkpt lat="47.4767" lon="6.78361">
        <ele>342</ele>
        <time>2016-03-13T08:52:16.000Z</time>
      </trkpt>
      <trkpt lat="47.47666" lon="6.78363">
        <ele>345</ele>
        <time>2016-03-13T08:52:19.000Z</time>
      </trkpt>
      <trkpt lat="47.47665" lon="6.78364">
        <ele>345</ele>
        <time>2016-03-13T08:52:20.000Z</time>
      </trkpt>
      <trkpt lat="47.47663" lon="6.78369">
        <ele>345</ele>
        <time>2016-03-13T08:52:21.000Z</time>
      </trkpt>
      <trkpt lat="47.47661" lon="6.78375">
        <ele>345</ele>
        <time>2016-03-13T08:52:22.000Z</time>
      </trkpt>
      <trkpt lat="47.47659" lon="6.78382">
        <ele>345</ele>
        <time>2016-03-13T08:52:23.000Z</time>
      </trkpt>
      <trkpt lat="47.47656" lon="6.78391">
        <ele>345</ele>
        <time>2016-03-13T08:52:24.000Z</time>
      </trkpt>
      <trkpt lat="47.47653" lon="6.78399">
        <ele>345</ele>
        <time>2016-03-13T08:52:25.000Z</time>
      </trkpt>
      <trkpt lat="47.47651" lon="6.78407">
        <ele>344</ele>
        <time>2016-03-13T08:52:26.000Z</time>
      </trkpt>
      <trkpt lat="47.47648" lon="6.78415">
        <ele>344</ele>
        <time>2016-03-13T08:52:27.000Z</time>
      </trkpt>
      <trkpt lat="47.47646" lon="6.78422">
        <ele>344</ele>
        <time>2016-03-13T08:52:28.000Z</time>
      </trkpt>
      <trkpt lat="47.47644" lon="6.78428">
        <ele>345</ele>
        <time>2016-03-13T08:52:29.000Z</time>
      </trkpt>
      <trkpt lat="47.47642" lon="6.78433">
        <ele>345</ele>
        <time>2016-03-13T08:52:30.000Z</time>
      </trkpt>
      <trkpt lat="47.4764" lon="6.78438">
        <ele>345</ele>
        <time>2016-03-13T08:52:31.000Z</time>
      </trkpt>
      <trkpt lat="47.47638" lon="6.78442">
        <ele>346</ele>
        <time>2016-03-13T08:52:32.000Z</time>
      </trkpt>
      <trkpt lat="47.47635" lon="6.78448">
        <ele>346</ele>
        <time>2016-03-13T08:52:33.000Z</time>
      </trkpt>
      <trkpt lat="47.47633" lon="6.78453">
        <ele>346</ele>
        <time>2016-03-13T08:52:34.000Z</time>
      </trkpt>
      <trkpt lat="47.47631" lon="6.78458">
        <ele>346</ele>
        <time>2016-03-13T08:52:35.000Z</time>
      </trkpt>
      <trkpt lat="47.47629" lon="6.78463">
        <ele>347</ele>
        <time>2016-03-13T08:52:36.000Z</time>
      </trkpt>
      <trkpt lat="47.47626" lon="6.78468">
        <ele>347</ele>
        <time>2016-03-13T08:52:37.000Z</time>
      </trkpt>
      <trkpt lat="47.47624" lon="6.78473">
        <ele>347</ele>
        <time>2016-03-13T08:52:38.000Z</time>
      </trkpt>
      <trkpt lat="47.47621" lon="6.78483">
        <ele>347</ele>
        <time>2016-03-13T08:52:39.000Z</time>
      </trkpt>
      <trkpt lat="47.47619" lon="6.78488">
        <ele>347</ele>
        <time>2016-03-13T08:52:40.000Z</time>
      </trkpt>
      <trkpt lat="47.47617" lon="6.78492">
        <ele>348</ele>
        <time>2016-03-13T08:52:41.000Z</time>
      </trkpt>
      <trkpt lat="47.47616" lon="6.78497">
        <ele>348</ele>
        <time>2016-03-13T08:52:42.000Z</time>
      </trkpt>
      <trkpt lat="47.47614" lon="6.78502">
        <ele>349</ele>
        <time>2016-03-13T08:52:43.000Z</time>
      </trkpt>
      <trkpt lat="47.47613" lon="6.78507">
        <ele>349</ele>
        <time>2016-03-13T08:52:44.000Z</time>
      </trkpt>
      <trkpt lat="47.47611" lon="6.7851">
        <ele>349</ele>
        <time>2016-03-13T08:52:45.000Z</time>
      </trkpt>
      <trkpt lat="47.47609" lon="6.78515">
        <ele>349</ele>
        <time>2016-03-13T08:52:46.000Z</time>
      </trkpt>
      <trkpt lat="47.47608" lon="6.78519">
        <ele>349</ele>
        <time>2016-03-13T08:52:47.000Z</time>
      </trkpt>
      <trkpt lat="47.47607" lon="6.78525">
        <ele>349</ele>
        <time>2016-03-13T08:52:48.000Z</time>
      </trkpt>
      <trkpt lat="47.47606" lon="6.78529">
        <ele>349</ele>
        <time>2016-03-13T08:52:49.000Z</time>
      </trkpt>
      <trkpt lat="47.47604" lon="6.78534">
        <ele>349</ele>
        <time>2016-03-13T08:52:50.000Z</time>
      </trkpt>
      <trkpt lat="47.47603" lon="6.7854">
        <ele>349</ele>
        <time>2016-03-13T08:52:51.000Z</time>
      </trkpt>
      <trkpt lat="47.47601" lon="6.78545">
        <ele>350</ele>
        <time>2016-03-13T08:52:52.000Z</time>
      </trkpt>
      <trkpt lat="47.47599" lon="6.78549">
        <ele>350</ele>
        <time>2016-03-13T08:52:53.000Z</time>
      </trkpt>
      <trkpt lat="47.47596" lon="6.78553">
        <ele>350</ele>
        <time>2016-03-13T08:52:54.000Z</time>
      </trkpt>
      <trkpt lat="47.47595" lon="6.78557">
        <ele>350</ele>
        <time>2016-03-13T08:52:55.000Z</time>
      </trkpt>
      <trkpt lat="47.47593" lon="6.7856">
        <ele>350</ele>
        <time>2016-03-13T08:52:56.000Z</time>
      </trkpt>
      <trkpt lat="47.47592" lon="6.78563">
        <ele>350</ele>
        <time>2016-03-13T08:52:57.000Z</time>
      </trkpt>
      <trkpt lat="47.47589" lon="6.78567">
        <ele>350</ele>
        <time>2016-03-13T08:52:59.000Z</time>
      </trkpt>
      <trkpt lat="47.47588" lon="6.78569">
        <ele>350</ele>
        <time>2016-03-13T08:53:00.000Z</time>
      </trkpt>
      <trkpt lat="47.47586" lon="6.78572">
        <ele>350</ele>
        <time>2016-03-13T08:53:01.000Z</time>
      </trkpt>
      <trkpt lat="47.47585" lon="6.78575">
        <ele>350</ele>
        <time>2016-03-13T08:53:02.000Z</time>
      </trkpt>
      <trkpt lat="47.47583" lon="6.78578">
        <ele>352</ele>
        <time>2016-03-13T08:53:03.000Z</time>
      </trkpt>
      <trkpt lat="47.47582" lon="6.78581">
        <ele>352</ele>
        <time>2016-03-13T08:53:04.000Z</time>
      </trkpt>
      <trkpt lat="47.47578" lon="6.78585">
        <ele>352</ele>
        <time>2016-03-13T08:53:06.000Z</time>
      </trkpt>
      <trkpt lat="47.47576" lon="6.78587">
        <ele>353</ele>
        <time>2016-03-13T08:53:07.000Z</time>
      </trkpt>
      <trkpt lat="47.47574" lon="6.7859">
        <ele>353</ele>
        <time>2016-03-13T08:53:08.000Z</time>
      </trkpt>
      <trkpt lat="47.47573" lon="6.78592">
        <ele>354</ele>
        <time>2016-03-13T08:53:09.000Z</time>
      </trkpt>
      <trkpt lat="47.47571" lon="6.78594">
        <ele>354</ele>
        <time>2016-03-13T08:53:10.000Z</time>
      </trkpt>
      <trkpt lat="47.47569" lon="6.78595">
        <ele>355</ele>
        <time>2016-03-13T08:53:11.000Z</time>
      </trkpt>
      <trkpt lat="47.47564" lon="6.78596">
        <ele>355</ele>
        <time>2016-03-13T08:53:13.000Z</time>
      </trkpt>
      <trkpt lat="47.47562" lon="6.78597">
        <ele>355</ele>
        <time>2016-03-13T08:53:14.000Z</time>
      </trkpt>
      <trkpt lat="47.47559" lon="6.78599">
        <ele>356</ele>
        <time>2016-03-13T08:53:16.000Z</time>
      </trkpt>
      <trkpt lat="47.47558" lon="6.78601">
        <ele>356</ele>
        <time>2016-03-13T08:53:17.000Z</time>
      </trkpt>
      <trkpt lat="47.47555" lon="6.78605">
        <ele>356</ele>
        <time>2016-03-13T08:53:19.000Z</time>
      </trkpt>
      <trkpt lat="47.47554" lon="6.78607">
        <ele>356</ele>
        <time>2016-03-13T08:53:20.000Z</time>
      </trkpt>
      <trkpt lat="47.47552" lon="6.78612">
        <ele>357</ele>
        <time>2016-03-13T08:53:22.000Z</time>
      </trkpt>
      <trkpt lat="47.47552" lon="6.78615">
        <ele>357</ele>
        <time>2016-03-13T08:53:23.000Z</time>
      </trkpt>
      <trkpt lat="47.4755" lon="6.7862">
        <ele>357</ele>
        <time>2016-03-13T08:53:25.000Z</time>
      </trkpt>
      <trkpt lat="47.4755" lon="6.78622">
        <ele>357</ele>
        <time>2016-03-13T08:53:26.000Z</time>
      </trkpt>
      <trkpt lat="47.47548" lon="6.78627">
        <ele>357</ele>
        <time>2016-03-13T08:53:29.000Z</time>
      </trkpt>
      <trkpt lat="47.47548" lon="6.78628">
        <ele>357</ele>
        <time>2016-03-13T08:53:30.000Z</time>
      </trkpt>
      <trkpt lat="47.47547" lon="6.78633">
        <ele>357</ele>
        <time>2016-03-13T08:53:32.000Z</time>
      </trkpt>
      <trkpt lat="47.47546" lon="6.78635">
        <ele>358</ele>
        <time>2016-03-13T08:53:33.000Z</time>
      </trkpt>
      <trkpt lat="47.47544" lon="6.78638">
        <ele>358</ele>
        <time>2016-03-13T08:53:36.000Z</time>
      </trkpt>
      <trkpt lat="47.47543" lon="6.78641">
        <ele>358</ele>
        <time>2016-03-13T08:53:37.000Z</time>
      </trkpt>
      <trkpt lat="47.47542" lon="6.78645">
        <ele>358</ele>
        <time>2016-03-13T08:53:38.000Z</time>
      </trkpt>
      <trkpt lat="47.47541" lon="6.78648">
        <ele>358</ele>
        <time>2016-03-13T08:53:39.000Z</time>
      </trkpt>
      <trkpt lat="47.47539" lon="6.78654">
        <ele>358</ele>
        <time>2016-03-13T08:53:41.000Z</time>
      </trkpt>
      <trkpt lat="47.47537" lon="6.78656">
        <ele>358</ele>
        <time>2016-03-13T08:53:42.000Z</time>
      </trkpt>
      <trkpt lat="47.47536" lon="6.78658">
        <ele>358</ele>
        <time>2016-03-13T08:53:43.000Z</time>
      </trkpt>
      <trkpt lat="47.47534" lon="6.78662">
        <ele>358</ele>
        <time>2016-03-13T08:53:44.000Z</time>
      </trkpt>
      <trkpt lat="47.47534" lon="6.78665">
        <ele>358</ele>
        <time>2016-03-13T08:53:45.000Z</time>
      </trkpt>
      <trkpt lat="47.47533" lon="6.78669">
        <ele>360</ele>
        <time>2016-03-13T08:53:46.000Z</time>
      </trkpt>
      <trkpt lat="47.47533" lon="6.78673">
        <ele>360</ele>
        <time>2016-03-13T08:53:47.000Z</time>
      </trkpt>
      <trkpt lat="47.47532" lon="6.78677">
        <ele>360</ele>
        <time>2016-03-13T08:53:48.000Z</time>
      </trkpt>
      <trkpt lat="47.47532" lon="6.78681">
        <ele>360</ele>
        <time>2016-03-13T08:53:49.000Z</time>
      </trkpt>
      <trkpt lat="47.47531" lon="6.78685">
        <ele>360</ele>
        <time>2016-03-13T08:53:50.000Z</time>
      </trkpt>
      <trkpt lat="47.4753" lon="6.78688">
        <ele>360</ele>
        <time>2016-03-13T08:53:51.000Z</time>
      </trkpt>
      <trkpt lat="47.47529" lon="6.78691">
        <ele>360</ele>
        <time>2016-03-13T08:53:52.000Z</time>
      </trkpt>
      <trkpt lat="47.47526" lon="6.78696">
        <ele>360</ele>
        <time>2016-03-13T08:53:54.000Z</time>
      </trkpt>
      <trkpt lat="47.47525" lon="6.78699">
        <ele>360</ele>
        <time>2016-03-13T08:53:55.000Z</time>
      </trkpt>
      <trkpt lat="47.47523" lon="6.78704">
        <ele>360</ele>
        <time>2016-03-13T08:53:57.000Z</time>
      </trkpt>
      <trkpt lat="47.47522" lon="6.78706">
        <ele>360</ele>
        <time>2016-03-13T08:53:58.000Z</time>
      </trkpt>
      <trkpt lat="47.4752" lon="6.78711">
        <ele>359</ele>
        <time>2016-03-13T08:54:01.000Z</time>
      </trkpt>
      <trkpt lat="47.4752" lon="6.78713">
        <ele>359</ele>
        <time>2016-03-13T08:54:02.000Z</time>
      </trkpt>
      <trkpt lat="47.47522" lon="6.78709">
        <ele>359</ele>
        <time>2016-03-13T08:54:30.000Z</time>
      </trkpt>
      <trkpt lat="47.47522" lon="6.78707">
        <ele>360</ele>
        <time>2016-03-13T08:54:31.000Z</time>
      </trkpt>
      <trkpt lat="47.47519" lon="6.78702">
        <ele>360</ele>
        <time>2016-03-13T08:54:38.000Z</time>
      </trkpt>
      <trkpt lat="47.47519" lon="6.78701">
        <ele>360</ele>
        <time>2016-03-13T08:54:39.000Z</time>
      </trkpt>
      <trkpt lat="47.47517" lon="6.78695">
        <ele>360</ele>
        <time>2016-03-13T08:54:42.000Z</time>
      </trkpt>
      <trkpt lat="47.47516" lon="6.78694">
        <ele>360</ele>
        <time>2016-03-13T08:54:43.000Z</time>
      </trkpt>
      <trkpt lat="47.47513" lon="6.78691">
        <ele>360</ele>
        <time>2016-03-13T08:54:46.000Z</time>
      </trkpt>
      <trkpt lat="47.47512" lon="6.7869">
        <ele>360</ele>
        <time>2016-03-13T08:54:47.000Z</time>
      </trkpt>
      <trkpt lat="47.47508" lon="6.78688">
        <ele>360</ele>
        <time>2016-03-13T08:54:49.000Z</time>
      </trkpt>
      <trkpt lat="47.47506" lon="6.78687">
        <ele>360</ele>
        <time>2016-03-13T08:54:50.000Z</time>
      </trkpt>
      <trkpt lat="47.47503" lon="6.78684">
        <ele>360</ele>
        <time>2016-03-13T08:54:52.000Z</time>
      </trkpt>
      <trkpt lat="47.47502" lon="6.78682">
        <ele>360</ele>
        <time>2016-03-13T08:54:53.000Z</time>
      </trkpt>
      <trkpt lat="47.47499" lon="6.78678">
        <ele>362</ele>
        <time>2016-03-13T08:54:55.000Z</time>
      </trkpt>
      <trkpt lat="47.47498" lon="6.78676">
        <ele>362</ele>
        <time>2016-03-13T08:54:56.000Z</time>
      </trkpt>
      <trkpt lat="47.47495" lon="6.78672">
        <ele>361</ele>
        <time>2016-03-13T08:54:58.000Z</time>
      </trkpt>
      <trkpt lat="47.47493" lon="6.78669">
        <ele>361</ele>
        <time>2016-03-13T08:54:59.000Z</time>
      </trkpt>
      <trkpt lat="47.4749" lon="6.78665">
        <ele>362</ele>
        <time>2016-03-13T08:55:01.000Z</time>
      </trkpt>
      <trkpt lat="47.47488" lon="6.78663">
        <ele>362</ele>
        <time>2016-03-13T08:55:02.000Z</time>
      </trkpt>
      <trkpt lat="47.47485" lon="6.7866">
        <ele>362</ele>
        <time>2016-03-13T08:55:04.000Z</time>
      </trkpt>
      <trkpt lat="47.47484" lon="6.78658">
        <ele>362</ele>
        <time>2016-03-13T08:55:05.000Z</time>
      </trkpt>
      <trkpt lat="47.47481" lon="6.78654">
        <ele>363</ele>
        <time>2016-03-13T08:55:07.000Z</time>
      </trkpt>
      <trkpt lat="47.47479" lon="6.78651">
        <ele>363</ele>
        <time>2016-03-13T08:55:08.000Z</time>
      </trkpt>
      <trkpt lat="47.47476" lon="6.78648">
        <ele>363</ele>
        <time>2016-03-13T08:55:10.000Z</time>
      </trkpt>
      <trkpt lat="47.47474" lon="6.78647">
        <ele>363</ele>
        <time>2016-03-13T08:55:11.000Z</time>
      </trkpt>
      <trkpt lat="47.4747" lon="6.78645">
        <ele>363</ele>
        <time>2016-03-13T08:55:13.000Z</time>
      </trkpt>
      <trkpt lat="47.47468" lon="6.78644">
        <ele>363</ele>
        <time>2016-03-13T08:55:14.000Z</time>
      </trkpt>
      <trkpt lat="47.47466" lon="6.7864">
        <ele>364</ele>
        <time>2016-03-13T08:55:16.000Z</time>
      </trkpt>
      <trkpt lat="47.47464" lon="6.78638">
        <ele>364</ele>
        <time>2016-03-13T08:55:17.000Z</time>
      </trkpt>
      <trkpt lat="47.47462" lon="6.78633">
        <ele>364</ele>
        <time>2016-03-13T08:55:19.000Z</time>
      </trkpt>
      <trkpt lat="47.4746" lon="6.78629">
        <ele>364</ele>
        <time>2016-03-13T08:55:21.000Z</time>
      </trkpt>
      <trkpt lat="47.47458" lon="6.78624">
        <ele>364</ele>
        <time>2016-03-13T08:55:23.000Z</time>
      </trkpt>
      <trkpt lat="47.47456" lon="6.78621">
        <ele>364</ele>
        <time>2016-03-13T08:55:24.000Z</time>
      </trkpt>
      <trkpt lat="47.47453" lon="6.78618">
        <ele>364</ele>
        <time>2016-03-13T08:55:26.000Z</time>
      </trkpt>
      <trkpt lat="47.47451" lon="6.78616">
        <ele>364</ele>
        <time>2016-03-13T08:55:27.000Z</time>
      </trkpt>
      <trkpt lat="47.4745" lon="6.78612">
        <ele>364</ele>
        <time>2016-03-13T08:55:29.000Z</time>
      </trkpt>
      <trkpt lat="47.47449" lon="6.78609">
        <ele>364</ele>
        <time>2016-03-13T08:55:30.000Z</time>
      </trkpt>
      <trkpt lat="47.47446" lon="6.78604">
        <ele>364</ele>
        <time>2016-03-13T08:55:32.000Z</time>
      </trkpt>
      <trkpt lat="47.47444" lon="6.78602">
        <ele>364</ele>
        <time>2016-03-13T08:55:33.000Z</time>
      </trkpt>
      <trkpt lat="47.47442" lon="6.786">
        <ele>364</ele>
        <time>2016-03-13T08:55:34.000Z</time>
      </trkpt>
      <trkpt lat="47.4744" lon="6.78598">
        <ele>364</ele>
        <time>2016-03-13T08:55:35.000Z</time>
      </trkpt>
      <trkpt lat="47.47438" lon="6.78596">
        <ele>365</ele>
        <time>2016-03-13T08:55:36.000Z</time>
      </trkpt>
      <trkpt lat="47.47436" lon="6.78594">
        <ele>365</ele>
        <time>2016-03-13T08:55:37.000Z</time>
      </trkpt>
      <trkpt lat="47.47432" lon="6.78592">
        <ele>365</ele>
        <time>2016-03-13T08:55:39.000Z</time>
      </trkpt>
      <trkpt lat="47.4743" lon="6.78591">
        <ele>365</ele>
        <time>2016-03-13T08:55:40.000Z</time>
      </trkpt>
      <trkpt lat="47.47428" lon="6.7859">
        <ele>365</ele>
        <time>2016-03-13T08:55:41.000Z</time>
      </trkpt>
      <trkpt lat="47.47425" lon="6.78589">
        <ele>365</ele>
        <time>2016-03-13T08:55:42.000Z</time>
      </trkpt>
      <trkpt lat="47.47423" lon="6.78587">
        <ele>365</ele>
        <time>2016-03-13T08:55:43.000Z</time>
      </trkpt>
      <trkpt lat="47.47421" lon="6.78586">
        <ele>366</ele>
        <time>2016-03-13T08:55:44.000Z</time>
      </trkpt>
      <trkpt lat="47.47419" lon="6.78585">
        <ele>366</ele>
        <time>2016-03-13T08:55:45.000Z</time>
      </trkpt>
      <trkpt lat="47.47416" lon="6.78584">
        <ele>366</ele>
        <time>2016-03-13T08:55:46.000Z</time>
      </trkpt>
      <trkpt lat="47.47414" lon="6.78583">
        <ele>366</ele>
        <time>2016-03-13T08:55:47.000Z</time>
      </trkpt>
      <trkpt lat="47.47412" lon="6.78582">
        <ele>366</ele>
        <time>2016-03-13T08:55:48.000Z</time>
      </trkpt>
      <trkpt lat="47.47409" lon="6.7858">
        <ele>366</ele>
        <time>2016-03-13T08:55:49.000Z</time>
      </trkpt>
      <trkpt lat="47.47407" lon="6.78579">
        <ele>366</ele>
        <time>2016-03-13T08:55:50.000Z</time>
      </trkpt>
      <trkpt lat="47.47405" lon="6.78577">
        <ele>366</ele>
        <time>2016-03-13T08:55:51.000Z</time>
      </trkpt>
      <trkpt lat="47.47402" lon="6.78576">
        <ele>365</ele>
        <time>2016-03-13T08:55:52.000Z</time>
      </trkpt>
      <trkpt lat="47.474" lon="6.78574">
        <ele>365</ele>
        <time>2016-03-13T08:55:53.000Z</time>
      </trkpt>
      <trkpt lat="47.47397" lon="6.78572">
        <ele>365</ele>
        <time>2016-03-13T08:55:54.000Z</time>
      </trkpt>
      <trkpt lat="47.47394" lon="6.7857">
        <ele>365</ele>
        <time>2016-03-13T08:55:55.000Z</time>
      </trkpt>
      <trkpt lat="47.47392" lon="6.78568">
        <ele>365</ele>
        <time>2016-03-13T08:55:56.000Z</time>
      </trkpt>
      <trkpt lat="47.47389" lon="6.78567">
        <ele>365</ele>
        <time>2016-03-13T08:55:57.000Z</time>
      </trkpt>
      <trkpt lat="47.47386" lon="6.78565">
        <ele>365</ele>
        <time>2016-03-13T08:55:58.000Z</time>
      </trkpt>
      <trkpt lat="47.47383" lon="6.78563">
        <ele>365</ele>
        <time>2016-03-13T08:55:59.000Z</time>
      </trkpt>
      <trkpt lat="47.47381" lon="6.78561">
        <ele>365</ele>
        <time>2016-03-13T08:56:00.000Z</time>
      </trkpt>
      <trkpt lat="47.47378" lon="6.7856">
        <ele>365</ele>
        <time>2016-03-13T08:56:01.000Z</time>
      </trkpt>
      <trkpt lat="47.47375" lon="6.78559">
        <ele>365</ele>
        <time>2016-03-13T08:56:02.000Z</time>
      </trkpt>
      <trkpt lat="47.47372" lon="6.78558">
        <ele>365</ele>
        <time>2016-03-13T08:56:03.000Z</time>
      </trkpt>
      <trkpt lat="47.47368" lon="6.78556">
        <ele>365</ele>
        <time>2016-03-13T08:56:04.000Z</time>
      </trkpt>
      <trkpt lat="47.47365" lon="6.78555">
        <ele>365</ele>
        <time>2016-03-13T08:56:05.000Z</time>
      </trkpt>
      <trkpt lat="47.47362" lon="6.78554">
        <ele>365</ele>
        <time>2016-03-13T08:56:06.000Z</time>
      </trkpt>
      <trkpt lat="47.47359" lon="6.78554">
        <ele>365</ele>
        <time>2016-03-13T08:56:07.000Z</time>
      </trkpt>
      <trkpt lat="47.47356" lon="6.78553">
        <ele>365</ele>
        <time>2016-03-13T08:56:08.000Z</time>
      </trkpt>
      <trkpt lat="47.47354" lon="6.78552">
        <ele>365</ele>
        <time>2016-03-13T08:56:09.000Z</time>
      </trkpt>
      <trkpt lat="47.47351" lon="6.78551">
        <ele>365</ele>
        <time>2016-03-13T08:56:10.000Z</time>
      </trkpt>
      <trkpt lat="47.47348" lon="6.78549">
        <ele>365</ele>
        <time>2016-03-13T08:56:11.000Z</time>
      </trkpt>
      <trkpt lat="47.47345" lon="6.78547">
        <ele>365</ele>
        <time>2016-03-13T08:56:12.000Z</time>
      </trkpt>
      <trkpt lat="47.47341" lon="6.78545">
        <ele>365</ele>
        <time>2016-03-13T08:56:13.000Z</time>
      </trkpt>
      <trkpt lat="47.47338" lon="6.78544">
        <ele>365</ele>
        <time>2016-03-13T08:56:14.000Z</time>
      </trkpt>
      <trkpt lat="47.47334" lon="6.78542">
        <ele>365</ele>
        <time>2016-03-13T08:56:15.000Z</time>
      </trkpt>
      <trkpt lat="47.4733" lon="6.7854">
        <ele>364</ele>
        <time>2016-03-13T08:56:16.000Z</time>
      </trkpt>
      <trkpt lat="47.47326" lon="6.78537">
        <ele>364</ele>
        <time>2016-03-13T08:56:17.000Z</time>
      </trkpt>
      <trkpt lat="47.47322" lon="6.78535">
        <ele>364</ele>
        <time>2016-03-13T08:56:18.000Z</time>
      </trkpt>
      <trkpt lat="47.47318" lon="6.78532">
        <ele>364</ele>
        <time>2016-03-13T08:56:19.000Z</time>
      </trkpt>
      <trkpt lat="47.4731" lon="6.78528">
        <ele>364</ele>
        <time>2016-03-13T08:56:21.000Z</time>
      </trkpt>
      <trkpt lat="47.47306" lon="6.78527">
        <ele>364</ele>
        <time>2016-03-13T08:56:22.000Z</time>
      </trkpt>
      <trkpt lat="47.47302" lon="6.78525">
        <ele>364</ele>
        <time>2016-03-13T08:56:23.000Z</time>
      </trkpt>
      <trkpt lat="47.47299" lon="6.78524">
        <ele>364</ele>
        <time>2016-03-13T08:56:24.000Z</time>
      </trkpt>
      <trkpt lat="47.47295" lon="6.78523">
        <ele>364</ele>
        <time>2016-03-13T08:56:25.000Z</time>
      </trkpt>
      <trkpt lat="47.47292" lon="6.78521">
        <ele>363</ele>
        <time>2016-03-13T08:56:26.000Z</time>
      </trkpt>
      <trkpt lat="47.47289" lon="6.7852">
        <ele>363</ele>
        <time>2016-03-13T08:56:27.000Z</time>
      </trkpt>
      <trkpt lat="47.47286" lon="6.7852">
        <ele>363</ele>
        <time>2016-03-13T08:56:28.000Z</time>
      </trkpt>
      <trkpt lat="47.47283" lon="6.78519">
        <ele>363</ele>
        <time>2016-03-13T08:56:29.000Z</time>
      </trkpt>
      <trkpt lat="47.4728" lon="6.78518">
        <ele>363</ele>
        <time>2016-03-13T08:56:30.000Z</time>
      </trkpt>
      <trkpt lat="47.47277" lon="6.78516">
        <ele>363</ele>
        <time>2016-03-13T08:56:31.000Z</time>
      </trkpt>
      <trkpt lat="47.47275" lon="6.78514">
        <ele>363</ele>
        <time>2016-03-13T08:56:32.000Z</time>
      </trkpt>
      <trkpt lat="47.47272" lon="6.78511">
        <ele>363</ele>
        <time>2016-03-13T08:56:33.000Z</time>
      </trkpt>
      <trkpt lat="47.4727" lon="6.78508">
        <ele>363</ele>
        <time>2016-03-13T08:56:34.000Z</time>
      </trkpt>
      <trkpt lat="47.47267" lon="6.78505">
        <ele>363</ele>
        <time>2016-03-13T08:56:35.000Z</time>
      </trkpt>
      <trkpt lat="47.47264" lon="6.78503">
        <ele>363</ele>
        <time>2016-03-13T08:56:36.000Z</time>
      </trkpt>
      <trkpt lat="47.4726" lon="6.78501">
        <ele>363</ele>
        <time>2016-03-13T08:56:37.000Z</time>
      </trkpt>
      <trkpt lat="47.47256" lon="6.78498">
        <ele>362</ele>
        <time>2016-03-13T08:56:38.000Z</time>
      </trkpt>
      <trkpt lat="47.47252" lon="6.78496">
        <ele>362</ele>
        <time>2016-03-13T08:56:39.000Z</time>
      </trkpt>
      <trkpt lat="47.47248" lon="6.78494">
        <ele>362</ele>
        <time>2016-03-13T08:56:40.000Z</time>
      </trkpt>
      <trkpt lat="47.47244" lon="6.78492">
        <ele>361</ele>
        <time>2016-03-13T08:56:41.000Z</time>
      </trkpt>
      <trkpt lat="47.4724" lon="6.7849">
        <ele>361</ele>
        <time>2016-03-13T08:56:42.000Z</time>
      </trkpt>
      <trkpt lat="47.47236" lon="6.78487">
        <ele>361</ele>
        <time>2016-03-13T08:56:43.000Z</time>
      </trkpt>
      <trkpt lat="47.47232" lon="6.78485">
        <ele>361</ele>
        <time>2016-03-13T08:56:44.000Z</time>
      </trkpt>
      <trkpt lat="47.47229" lon="6.78483">
        <ele>361</ele>
        <time>2016-03-13T08:56:45.000Z</time>
      </trkpt>
      <trkpt lat="47.47225" lon="6.78481">
        <ele>361</ele>
        <time>2016-03-13T08:56:46.000Z</time>
      </trkpt>
      <trkpt lat="47.47222" lon="6.78479">
        <ele>360</ele>
        <time>2016-03-13T08:56:47.000Z</time>
      </trkpt>
      <trkpt lat="47.47218" lon="6.78477">
        <ele>360</ele>
        <time>2016-03-13T08:56:48.000Z</time>
      </trkpt>
      <trkpt lat="47.47214" lon="6.78475">
        <ele>360</ele>
        <time>2016-03-13T08:56:49.000Z</time>
      </trkpt>
      <trkpt lat="47.47211" lon="6.78473">
        <ele>360</ele>
        <time>2016-03-13T08:56:50.000Z</time>
      </trkpt>
      <trkpt lat="47.47207" lon="6.78471">
        <ele>360</ele>
        <time>2016-03-13T08:56:51.000Z</time>
      </trkpt>
      <trkpt lat="47.47202" lon="6.78469">
        <ele>360</ele>
        <time>2016-03-13T08:56:52.000Z</time>
      </trkpt>
      <trkpt lat="47.47198" lon="6.78467">
        <ele>360</ele>
        <time>2016-03-13T08:56:53.000Z</time>
      </trkpt>
      <trkpt lat="47.47194" lon="6.78465">
        <ele>360</ele>
        <time>2016-03-13T08:56:54.000Z</time>
      </trkpt>
      <trkpt lat="47.4719" lon="6.78463">
        <ele>360</ele>
        <time>2016-03-13T08:56:55.000Z</time>
      </trkpt>
      <trkpt lat="47.47186" lon="6.78461">
        <ele>360</ele>
        <time>2016-03-13T08:56:56.000Z</time>
      </trkpt>
      <trkpt lat="47.47181" lon="6.78459">
        <ele>360</ele>
        <time>2016-03-13T08:56:57.000Z</time>
      </trkpt>
      <trkpt lat="47.47177" lon="6.78457">
        <ele>360</ele>
        <time>2016-03-13T08:56:58.000Z</time>
      </trkpt>
      <trkpt lat="47.47173" lon="6.78455">
        <ele>360</ele>
        <time>2016-03-13T08:56:59.000Z</time>
      </trkpt>
      <trkpt lat="47.4717" lon="6.78453">
        <ele>360</ele>
        <time>2016-03-13T08:57:00.000Z</time>
      </trkpt>
      <trkpt lat="47.47167" lon="6.78451">
        <ele>358</ele>
        <time>2016-03-13T08:57:01.000Z</time>
      </trkpt>
      <trkpt lat="47.47164" lon="6.7845">
        <ele>358</ele>
        <time>2016-03-13T08:57:02.000Z</time>
      </trkpt>
      <trkpt lat="47.47161" lon="6.7845">
        <ele>358</ele>
        <time>2016-03-13T08:57:03.000Z</time>
      </trkpt>
      <trkpt lat="47.47159" lon="6.7845">
        <ele>358</ele>
        <time>2016-03-13T08:57:04.000Z</time>
      </trkpt>
      <trkpt lat="47.47156" lon="6.78451">
        <ele>358</ele>
        <time>2016-03-13T08:57:05.000Z</time>
      </trkpt>
      <trkpt lat="47.47152" lon="6.78454">
        <ele>358</ele>
        <time>2016-03-13T08:57:07.000Z</time>
      </trkpt>
      <trkpt lat="47.4715" lon="6.78455">
        <ele>358</ele>
        <time>2016-03-13T08:57:08.000Z</time>
      </trkpt>
      <trkpt lat="47.47148" lon="6.78457">
        <ele>358</ele>
        <time>2016-03-13T08:57:09.000Z</time>
      </trkpt>
      <trkpt lat="47.47146" lon="6.78459">
        <ele>358</ele>
        <time>2016-03-13T08:57:10.000Z</time>
      </trkpt>
      <trkpt lat="47.47143" lon="6.78462">
        <ele>358</ele>
        <time>2016-03-13T08:57:11.000Z</time>
      </trkpt>
      <trkpt lat="47.4714" lon="6.78464">
        <ele>358</ele>
        <time>2016-03-13T08:57:12.000Z</time>
      </trkpt>
      <trkpt lat="47.47138" lon="6.78466">
        <ele>358</ele>
        <time>2016-03-13T08:57:13.000Z</time>
      </trkpt>
      <trkpt lat="47.47135" lon="6.78468">
        <ele>359</ele>
        <time>2016-03-13T08:57:14.000Z</time>
      </trkpt>
      <trkpt lat="47.47131" lon="6.7847">
        <ele>359</ele>
        <time>2016-03-13T08:57:15.000Z</time>
      </trkpt>
      <trkpt lat="47.47127" lon="6.78472">
        <ele>359</ele>
        <time>2016-03-13T08:57:16.000Z</time>
      </trkpt>
      <trkpt lat="47.47123" lon="6.78474">
        <ele>359</ele>
        <time>2016-03-13T08:57:17.000Z</time>
      </trkpt>
      <trkpt lat="47.47112" lon="6.78479">
        <ele>359</ele>
        <time>2016-03-13T08:57:18.000Z</time>
      </trkpt>
      <trkpt lat="47.47105" lon="6.78483">
        <ele>359</ele>
        <time>2016-03-13T08:57:19.000Z</time>
      </trkpt>
      <trkpt lat="47.47092" lon="6.78488">
        <ele>359</ele>
        <time>2016-03-13T08:57:21.000Z</time>
      </trkpt>
      <trkpt lat="47.47089" lon="6.78489">
        <ele>359</ele>
        <time>2016-03-13T08:57:22.000Z</time>
      </trkpt>
      <trkpt lat="47.47086" lon="6.7849">
        <ele>359</ele>
        <time>2016-03-13T08:57:23.000Z</time>
      </trkpt>
      <trkpt lat="47.47084" lon="6.78495">
        <ele>360</ele>
        <time>2016-03-13T08:57:24.000Z</time>
      </trkpt>
      <trkpt lat="47.47082" lon="6.78497">
        <ele>360</ele>
        <time>2016-03-13T08:57:25.000Z</time>
      </trkpt>
      <trkpt lat="47.4708" lon="6.78501">
        <ele>360</ele>
        <time>2016-03-13T08:57:26.000Z</time>
      </trkpt>
      <trkpt lat="47.47074" lon="6.78504">
        <ele>361</ele>
        <time>2016-03-13T08:57:27.000Z</time>
      </trkpt>
      <trkpt lat="47.47071" lon="6.78504">
        <ele>361</ele>
        <time>2016-03-13T08:57:29.000Z</time>
      </trkpt>
      <trkpt lat="47.47068" lon="6.78505">
        <ele>361</ele>
        <time>2016-03-13T08:57:30.000Z</time>
      </trkpt>
      <trkpt lat="47.47066" lon="6.78507">
        <ele>361</ele>
        <time>2016-03-13T08:57:31.000Z</time>
      </trkpt>
      <trkpt lat="47.47063" lon="6.78509">
        <ele>361</ele>
        <time>2016-03-13T08:57:32.000Z</time>
      </trkpt>
      <trkpt lat="47.47061" lon="6.7851">
        <ele>361</ele>
        <time>2016-03-13T08:57:33.000Z</time>
      </trkpt>
      <trkpt lat="47.47059" lon="6.78511">
        <ele>361</ele>
        <time>2016-03-13T08:57:34.000Z</time>
      </trkpt>
      <trkpt lat="47.47057" lon="6.78512">
        <ele>361</ele>
        <time>2016-03-13T08:57:35.000Z</time>
      </trkpt>
      <trkpt lat="47.47054" lon="6.78513">
        <ele>361</ele>
        <time>2016-03-13T08:57:36.000Z</time>
      </trkpt>
      <trkpt lat="47.47052" lon="6.78514">
        <ele>361</ele>
        <time>2016-03-13T08:57:37.000Z</time>
      </trkpt>
      <trkpt lat="47.4705" lon="6.78515">
        <ele>361</ele>
        <time>2016-03-13T08:57:38.000Z</time>
      </trkpt>
      <trkpt lat="47.47049" lon="6.78521">
        <ele>361</ele>
        <time>2016-03-13T08:58:22.000Z</time>
      </trkpt>
      <trkpt lat="47.47046" lon="6.7852">
        <ele>361</ele>
        <time>2016-03-13T08:58:23.000Z</time>
      </trkpt>
      <trkpt lat="47.47043" lon="6.78521">
        <ele>361</ele>
        <time>2016-03-13T08:58:25.000Z</time>
      </trkpt>
      <trkpt lat="47.47039" lon="6.78523">
        <ele>361</ele>
        <time>2016-03-13T08:58:26.000Z</time>
      </trkpt>
      <trkpt lat="47.47036" lon="6.78524">
        <ele>361</ele>
        <time>2016-03-13T08:58:27.000Z</time>
      </trkpt>
      <trkpt lat="47.47032" lon="6.78525">
        <ele>361</ele>
        <time>2016-03-13T08:58:28.000Z</time>
      </trkpt>
      <trkpt lat="47.47028" lon="6.78527">
        <ele>361</ele>
        <time>2016-03-13T08:58:29.000Z</time>
      </trkpt>
      <trkpt lat="47.47024" lon="6.78529">
        <ele>361</ele>
        <time>2016-03-13T08:58:30.000Z</time>
      </trkpt>
      <trkpt lat="47.4702" lon="6.78531">
        <ele>361</ele>
        <time>2016-03-13T08:58:31.000Z</time>
      </trkpt>
      <trkpt lat="47.47017" lon="6.78533">
        <ele>361</ele>
        <time>2016-03-13T08:58:32.000Z</time>
      </trkpt>
      <trkpt lat="47.47013" lon="6.78536">
        <ele>361</ele>
        <time>2016-03-13T08:58:33.000Z</time>
      </trkpt>
      <trkpt lat="47.47008" lon="6.78539">
        <ele>361</ele>
        <time>2016-03-13T08:58:34.000Z</time>
      </trkpt>
      <trkpt lat="47.47003" lon="6.78542">
        <ele>361</ele>
        <time>2016-03-13T08:58:35.000Z</time>
      </trkpt>
      <trkpt lat="47.46998" lon="6.78545">
        <ele>356</ele>
        <time>2016-03-13T08:58:36.000Z</time>
      </trkpt>
      <trkpt lat="47.46994" lon="6.78548">
        <ele>356</ele>
        <time>2016-03-13T08:58:37.000Z</time>
      </trkpt>
      <trkpt lat="47.46989" lon="6.7855">
        <ele>356</ele>
        <time>2016-03-13T08:58:38.000Z</time>
      </trkpt>
      <trkpt lat="47.46985" lon="6.78552">
        <ele>356</ele>
        <time>2016-03-13T08:58:39.000Z</time>
      </trkpt>
      <trkpt lat="47.46981" lon="6.78554">
        <ele>356</ele>
        <time>2016-03-13T08:58:40.000Z</time>
      </trkpt>
      <trkpt lat="47.46976" lon="6.78555">
        <ele>355</ele>
        <time>2016-03-13T08:58:41.000Z</time>
      </trkpt>
      <trkpt lat="47.46961" lon="6.78559">
        <ele>354</ele>
        <time>2016-03-13T08:58:42.000Z</time>
      </trkpt>
      <trkpt lat="47.46952" lon="6.78564">
        <ele>353</ele>
        <time>2016-03-13T08:58:43.000Z</time>
      </trkpt>
      <trkpt lat="47.46946" lon="6.78568">
        <ele>353</ele>
        <time>2016-03-13T08:58:44.000Z</time>
      </trkpt>
      <trkpt lat="47.46939" lon="6.78567">
        <ele>352</ele>
        <time>2016-03-13T08:58:45.000Z</time>
      </trkpt>
      <trkpt lat="47.46932" lon="6.78568">
        <ele>351</ele>
        <time>2016-03-13T08:58:46.000Z</time>
      </trkpt>
      <trkpt lat="47.46925" lon="6.78568">
        <ele>351</ele>
        <time>2016-03-13T08:58:47.000Z</time>
      </trkpt>
      <trkpt lat="47.46919" lon="6.78571">
        <ele>350</ele>
        <time>2016-03-13T08:58:48.000Z</time>
      </trkpt>
      <trkpt lat="47.46914" lon="6.78575">
        <ele>350</ele>
        <time>2016-03-13T08:58:49.000Z</time>
      </trkpt>
      <trkpt lat="47.46914" lon="6.78578">
        <ele>349</ele>
        <time>2016-03-13T08:58:51.000Z</time>
      </trkpt>
      <trkpt lat="47.46918" lon="6.78587">
        <ele>349</ele>
        <time>2016-03-13T08:58:52.000Z</time>
      </trkpt>
      <trkpt lat="47.46922" lon="6.78585">
        <ele>350</ele>
        <time>2016-03-13T08:58:56.000Z</time>
      </trkpt>
      <trkpt lat="47.46923" lon="6.78584">
        <ele>350</ele>
        <time>2016-03-13T08:58:57.000Z</time>
      </trkpt>
      <trkpt lat="47.46925" lon="6.78579">
        <ele>350</ele>
        <time>2016-03-13T08:59:00.000Z</time>
      </trkpt>
      <trkpt lat="47.46926" lon="6.78578">
        <ele>350</ele>
        <time>2016-03-13T08:59:01.000Z</time>
      </trkpt>
      <trkpt lat="47.46923" lon="6.78579">
        <ele>350</ele>
        <time>2016-03-13T08:59:04.000Z</time>
      </trkpt>
      <trkpt lat="47.46921" lon="6.7858">
        <ele>349</ele>
        <time>2016-03-13T08:59:05.000Z</time>
      </trkpt>
      <trkpt lat="47.46919" lon="6.78582">
        <ele>349</ele>
        <time>2016-03-13T08:59:06.000Z</time>
      </trkpt>
      <trkpt lat="47.46917" lon="6.78583">
        <ele>348</ele>
        <time>2016-03-13T08:59:07.000Z</time>
      </trkpt>
      <trkpt lat="47.46913" lon="6.78584">
        <ele>349</ele>
        <time>2016-03-13T08:59:09.000Z</time>
      </trkpt>
      <trkpt lat="47.46911" lon="6.78584">
        <ele>350</ele>
        <time>2016-03-13T08:59:10.000Z</time>
      </trkpt>
      <trkpt lat="47.46908" lon="6.78583">
        <ele>350</ele>
        <time>2016-03-13T08:59:12.000Z</time>
      </trkpt>
      <trkpt lat="47.46906" lon="6.78582">
        <ele>350</ele>
        <time>2016-03-13T08:59:13.000Z</time>
      </trkpt>
      <trkpt lat="47.46904" lon="6.7858">
        <ele>350</ele>
        <time>2016-03-13T08:59:14.000Z</time>
      </trkpt>
      <trkpt lat="47.46902" lon="6.78579">
        <ele>351</ele>
        <time>2016-03-13T08:59:15.000Z</time>
      </trkpt>
      <trkpt lat="47.46898" lon="6.78577">
        <ele>351</ele>
        <time>2016-03-13T08:59:17.000Z</time>
      </trkpt>
      <trkpt lat="47.46896" lon="6.78576">
        <ele>352</ele>
        <time>2016-03-13T08:59:18.000Z</time>
      </trkpt>
      <trkpt lat="47.46892" lon="6.78574">
        <ele>352</ele>
        <time>2016-03-13T08:59:21.000Z</time>
      </trkpt>
      <trkpt lat="47.46891" lon="6.78573">
        <ele>352</ele>
        <time>2016-03-13T08:59:22.000Z</time>
      </trkpt>
      <trkpt lat="47.46888" lon="6.78572">
        <ele>353</ele>
        <time>2016-03-13T08:59:24.000Z</time>
      </trkpt>
      <trkpt lat="47.46887" lon="6.78571">
        <ele>353</ele>
        <time>2016-03-13T08:59:25.000Z</time>
      </trkpt>
      <trkpt lat="47.46882" lon="6.78569">
        <ele>353</ele>
        <time>2016-03-13T08:59:28.000Z</time>
      </trkpt>
      <trkpt lat="47.46881" lon="6.78569">
        <ele>353</ele>
        <time>2016-03-13T08:59:29.000Z</time>
      </trkpt>
      <trkpt lat="47.46878" lon="6.78569">
        <ele>354</ele>
        <time>2016-03-13T08:59:31.000Z</time>
      </trkpt>
      <trkpt lat="47.46876" lon="6.78569">
        <ele>354</ele>
        <time>2016-03-13T08:59:32.000Z</time>
      </trkpt>
      <trkpt lat="47.46873" lon="6.78568">
        <ele>354</ele>
        <time>2016-03-13T08:59:34.000Z</time>
      </trkpt>
      <trkpt lat="47.46872" lon="6.78567">
        <ele>354</ele>
        <time>2016-03-13T08:59:35.000Z</time>
      </trkpt>
      <trkpt lat="47.46868" lon="6.78566">
        <ele>355</ele>
        <time>2016-03-13T08:59:38.000Z</time>
      </trkpt>
      <trkpt lat="47.46867" lon="6.78566">
        <ele>355</ele>
        <time>2016-03-13T08:59:39.000Z</time>
      </trkpt>
      <trkpt lat="47.46863" lon="6.78564">
        <ele>355</ele>
        <time>2016-03-13T08:59:42.000Z</time>
      </trkpt>
      <trkpt lat="47.46862" lon="6.78563">
        <ele>355</ele>
        <time>2016-03-13T08:59:43.000Z</time>
      </trkpt>
      <trkpt lat="47.46858" lon="6.7856">
        <ele>355</ele>
        <time>2016-03-13T08:59:48.000Z</time>
      </trkpt>
      <trkpt lat="47.46858" lon="6.78559">
        <ele>355</ele>
        <time>2016-03-13T08:59:49.000Z</time>
      </trkpt>
      <trkpt lat="47.46854" lon="6.78557">
        <ele>356</ele>
        <time>2016-03-13T08:59:52.000Z</time>
      </trkpt>
      <trkpt lat="47.46852" lon="6.78557">
        <ele>356</ele>
        <time>2016-03-13T08:59:53.000Z</time>
      </trkpt>
      <trkpt lat="47.46848" lon="6.78559">
        <ele>356</ele>
        <time>2016-03-13T08:59:57.000Z</time>
      </trkpt>
      <trkpt lat="47.46847" lon="6.7856">
        <ele>356</ele>
        <time>2016-03-13T08:59:58.000Z</time>
      </trkpt>
      <trkpt lat="47.46843" lon="6.78564">
        <ele>357</ele>
        <time>2016-03-13T09:00:00.000Z</time>
      </trkpt>
      <trkpt lat="47.46842" lon="6.78565">
        <ele>357</ele>
        <time>2016-03-13T09:00:01.000Z</time>
      </trkpt>
      <trkpt lat="47.46838" lon="6.78568">
        <ele>357</ele>
        <time>2016-03-13T09:00:04.000Z</time>
      </trkpt>
      <trkpt lat="47.46836" lon="6.78569">
        <ele>358</ele>
        <time>2016-03-13T09:00:05.000Z</time>
      </trkpt>
      <trkpt lat="47.46833" lon="6.7857">
        <ele>363</ele>
        <time>2016-03-13T09:00:07.000Z</time>
      </trkpt>
      <trkpt lat="47.46832" lon="6.7857">
        <ele>363</ele>
        <time>2016-03-13T09:00:08.000Z</time>
      </trkpt>
      <trkpt lat="47.46829" lon="6.78572">
        <ele>363</ele>
        <time>2016-03-13T09:00:10.000Z</time>
      </trkpt>
      <trkpt lat="47.46827" lon="6.78573">
        <ele>363</ele>
        <time>2016-03-13T09:00:11.000Z</time>
      </trkpt>
      <trkpt lat="47.46825" lon="6.78575">
        <ele>363</ele>
        <time>2016-03-13T09:00:13.000Z</time>
      </trkpt>
      <trkpt lat="47.46823" lon="6.78576">
        <ele>363</ele>
        <time>2016-03-13T09:00:14.000Z</time>
      </trkpt>
      <trkpt lat="47.4682" lon="6.78578">
        <ele>363</ele>
        <time>2016-03-13T09:00:16.000Z</time>
      </trkpt>
      <trkpt lat="47.46818" lon="6.78579">
        <ele>363</ele>
        <time>2016-03-13T09:00:17.000Z</time>
      </trkpt>
      <trkpt lat="47.46814" lon="6.78581">
        <ele>364</ele>
        <time>2016-03-13T09:00:19.000Z</time>
      </trkpt>
      <trkpt lat="47.46812" lon="6.78582">
        <ele>364</ele>
        <time>2016-03-13T09:00:20.000Z</time>
      </trkpt>
      <trkpt lat="47.4681" lon="6.78586">
        <ele>365</ele>
        <time>2016-03-13T09:00:23.000Z</time>
      </trkpt>
      <trkpt lat="47.46808" lon="6.78586">
        <ele>365</ele>
        <time>2016-03-13T09:00:24.000Z</time>
      </trkpt>
      <trkpt lat="47.46805" lon="6.78588">
        <ele>365</ele>
        <time>2016-03-13T09:00:26.000Z</time>
      </trkpt>
      <trkpt lat="47.46804" lon="6.78589">
        <ele>366</ele>
        <time>2016-03-13T09:00:27.000Z</time>
      </trkpt>
      <trkpt lat="47.46802" lon="6.78594">
        <ele>366</ele>
        <time>2016-03-13T09:00:30.000Z</time>
      </trkpt>
      <trkpt lat="47.46801" lon="6.78595">
        <ele>366</ele>
        <time>2016-03-13T09:00:31.000Z</time>
      </trkpt>
      <trkpt lat="47.46798" lon="6.78598">
        <ele>367</ele>
        <time>2016-03-13T09:00:34.000Z</time>
      </trkpt>
      <trkpt lat="47.46797" lon="6.78599">
        <ele>367</ele>
        <time>2016-03-13T09:00:35.000Z</time>
      </trkpt>
      <trkpt lat="47.46793" lon="6.78603">
        <ele>367</ele>
        <time>2016-03-13T09:00:38.000Z</time>
      </trkpt>
      <trkpt lat="47.46792" lon="6.78605">
        <ele>367</ele>
        <time>2016-03-13T09:00:39.000Z</time>
      </trkpt>
      <trkpt lat="47.46789" lon="6.78609">
        <ele>367</ele>
        <time>2016-03-13T09:00:42.000Z</time>
      </trkpt>
      <trkpt lat="47.46788" lon="6.78611">
        <ele>368</ele>
        <time>2016-03-13T09:00:43.000Z</time>
      </trkpt>
      <trkpt lat="47.46784" lon="6.78612">
        <ele>368</ele>
        <time>2016-03-13T09:00:46.000Z</time>
      </trkpt>
      <trkpt lat="47.46784" lon="6.78614">
        <ele>368</ele>
        <time>2016-03-13T09:00:47.000Z</time>
      </trkpt>
      <trkpt lat="47.4678" lon="6.78618">
        <ele>368</ele>
        <time>2016-03-13T09:00:53.000Z</time>
      </trkpt>
      <trkpt lat="47.46779" lon="6.78618">
        <ele>368</ele>
        <time>2016-03-13T09:00:54.000Z</time>
      </trkpt>
      <trkpt lat="47.46775" lon="6.78617">
        <ele>368</ele>
        <time>2016-03-13T09:00:57.000Z</time>
      </trkpt>
      <trkpt lat="47.46774" lon="6.78618">
        <ele>368</ele>
        <time>2016-03-13T09:00:58.000Z</time>
      </trkpt>
      <trkpt lat="47.46771" lon="6.78623">
        <ele>369</ele>
        <time>2016-03-13T09:01:00.000Z</time>
      </trkpt>
      <trkpt lat="47.4677" lon="6.78625">
        <ele>369</ele>
        <time>2016-03-13T09:01:01.000Z</time>
      </trkpt>
      <trkpt lat="47.46768" lon="6.78627">
        <ele>369</ele>
        <time>2016-03-13T09:01:02.000Z</time>
      </trkpt>
      <trkpt lat="47.46766" lon="6.78629">
        <ele>369</ele>
        <time>2016-03-13T09:01:03.000Z</time>
      </trkpt>
      <trkpt lat="47.46764" lon="6.78631">
        <ele>369</ele>
        <time>2016-03-13T09:01:04.000Z</time>
      </trkpt>
      <trkpt lat="47.46762" lon="6.78633">
        <ele>369</ele>
        <time>2016-03-13T09:01:05.000Z</time>
      </trkpt>
      <trkpt lat="47.46759" lon="6.78638">
        <ele>369</ele>
        <time>2016-03-13T09:01:07.000Z</time>
      </trkpt>
      <trkpt lat="47.46758" lon="6.78641">
        <ele>369</ele>
        <time>2016-03-13T09:01:08.000Z</time>
      </trkpt>
      <trkpt lat="47.46757" lon="6.78644">
        <ele>369</ele>
        <time>2016-03-13T09:01:09.000Z</time>
      </trkpt>
      <trkpt lat="47.46756" lon="6.78647">
        <ele>370</ele>
        <time>2016-03-13T09:01:10.000Z</time>
      </trkpt>
      <trkpt lat="47.46753" lon="6.78651">
        <ele>370</ele>
        <time>2016-03-13T09:01:12.000Z</time>
      </trkpt>
      <trkpt lat="47.46752" lon="6.78653">
        <ele>370</ele>
        <time>2016-03-13T09:01:13.000Z</time>
      </trkpt>
      <trkpt lat="47.46748" lon="6.78657">
        <ele>374</ele>
        <time>2016-03-13T09:01:17.000Z</time>
      </trkpt>
      <trkpt lat="47.46747" lon="6.78658">
        <ele>374</ele>
        <time>2016-03-13T09:01:18.000Z</time>
      </trkpt>
      <trkpt lat="47.46745" lon="6.78662">
        <ele>373</ele>
        <time>2016-03-13T09:01:25.000Z</time>
      </trkpt>
      <trkpt lat="47.46744" lon="6.78663">
        <ele>373</ele>
        <time>2016-03-13T09:01:26.000Z</time>
      </trkpt>
      <trkpt lat="47.4674" lon="6.78666">
        <ele>374</ele>
        <time>2016-03-13T09:01:29.000Z</time>
      </trkpt>
      <trkpt lat="47.46739" lon="6.78667">
        <ele>374</ele>
        <time>2016-03-13T09:01:30.000Z</time>
      </trkpt>
      <trkpt lat="47.46736" lon="6.7867">
        <ele>373</ele>
        <time>2016-03-13T09:01:33.000Z</time>
      </trkpt>
      <trkpt lat="47.46735" lon="6.78671">
        <ele>373</ele>
        <time>2016-03-13T09:01:34.000Z</time>
      </trkpt>
      <trkpt lat="47.46732" lon="6.78673">
        <ele>373</ele>
        <time>2016-03-13T09:01:37.000Z</time>
      </trkpt>
      <trkpt lat="47.46731" lon="6.78674">
        <ele>373</ele>
        <time>2016-03-13T09:01:38.000Z</time>
      </trkpt>
      <trkpt lat="47.46729" lon="6.78679">
        <ele>373</ele>
        <time>2016-03-13T09:01:41.000Z</time>
      </trkpt>
      <trkpt lat="47.46729" lon="6.78682">
        <ele>373</ele>
        <time>2016-03-13T09:01:42.000Z</time>
      </trkpt>
      <trkpt lat="47.46729" lon="6.78687">
        <ele>373</ele>
        <time>2016-03-13T09:01:45.000Z</time>
      </trkpt>
      <trkpt lat="47.46728" lon="6.78688">
        <ele>373</ele>
        <time>2016-03-13T09:01:46.000Z</time>
      </trkpt>
      <trkpt lat="47.46724" lon="6.78691">
        <ele>374</ele>
        <time>2016-03-13T09:01:52.000Z</time>
      </trkpt>
      <trkpt lat="47.46725" lon="6.78693">
        <ele>374</ele>
        <time>2016-03-13T09:01:53.000Z</time>
      </trkpt>
      <trkpt lat="47.46726" lon="6.78699">
        <ele>373</ele>
        <time>2016-03-13T09:02:03.000Z</time>
      </trkpt>
      <trkpt lat="47.46726" lon="6.78699">
        <ele>373</ele>
        <time>2016-03-13T09:02:04.000Z</time>
      </trkpt>
      <trkpt lat="47.46722" lon="6.78699">
        <ele>374</ele>
        <time>2016-03-13T09:03:14.000Z</time>
      </trkpt>
      <trkpt lat="47.46721" lon="6.78698">
        <ele>374</ele>
        <time>2016-03-13T09:03:15.000Z</time>
      </trkpt>
      <trkpt lat="47.46719" lon="6.78698">
        <ele>374</ele>
        <time>2016-03-13T09:03:15.999Z</time>
      </trkpt>
      <trkpt lat="47.46716" lon="6.78693">
        <ele>374</ele>
        <time>2016-03-13T09:03:17.000Z</time>
      </trkpt>
      <trkpt lat="47.46714" lon="6.78689">
        <ele>374</ele>
        <time>2016-03-13T09:03:18.000Z</time>
      </trkpt>
      <trkpt lat="47.46712" lon="6.78686">
        <ele>374</ele>
        <time>2016-03-13T09:03:18.999Z</time>
      </trkpt>
      <trkpt lat="47.46709" lon="6.78684">
        <ele>375</ele>
        <time>2016-03-13T09:03:21.000Z</time>
      </trkpt>
      <trkpt lat="47.46708" lon="6.78683">
        <ele>375</ele>
        <time>2016-03-13T09:03:22.000Z</time>
      </trkpt>
      <trkpt lat="47.46704" lon="6.78683">
        <ele>375</ele>
        <time>2016-03-13T09:03:28.000Z</time>
      </trkpt>
      <trkpt lat="47.46703" lon="6.78683">
        <ele>375</ele>
        <time>2016-03-13T09:03:29.000Z</time>
      </trkpt>
      <trkpt lat="47.467" lon="6.78684">
        <ele>375</ele>
        <time>2016-03-13T09:03:31.000Z</time>
      </trkpt>
      <trkpt lat="47.46698" lon="6.78684">
        <ele>375</ele>
        <time>2016-03-13T09:03:32.000Z</time>
      </trkpt>
      <trkpt lat="47.46696" lon="6.78685">
        <ele>376</ele>
        <time>2016-03-13T09:03:34.000Z</time>
      </trkpt>
      <trkpt lat="47.46694" lon="6.78686">
        <ele>376</ele>
        <time>2016-03-13T09:03:35.000Z</time>
      </trkpt>
      <trkpt lat="47.4669" lon="6.78686">
        <ele>376</ele>
        <time>2016-03-13T09:03:37.000Z</time>
      </trkpt>
      <trkpt lat="47.46688" lon="6.78686">
        <ele>376</ele>
        <time>2016-03-13T09:03:38.000Z</time>
      </trkpt>
      <trkpt lat="47.46684" lon="6.78685">
        <ele>377</ele>
        <time>2016-03-13T09:03:41.000Z</time>
      </trkpt>
      <trkpt lat="47.46684" lon="6.78685">
        <ele>377</ele>
        <time>2016-03-13T09:03:42.000Z</time>
      </trkpt>
      <trkpt lat="47.4668" lon="6.78688">
        <ele>377</ele>
        <time>2016-03-13T09:03:47.000Z</time>
      </trkpt>
      <trkpt lat="47.46679" lon="6.78688">
        <ele>377</ele>
        <time>2016-03-13T09:03:48.000Z</time>
      </trkpt>
      <trkpt lat="47.46675" lon="6.78685">
        <ele>377</ele>
        <time>2016-03-13T09:03:53.000Z</time>
      </trkpt>
      <trkpt lat="47.46675" lon="6.78685">
        <ele>377</ele>
        <time>2016-03-13T09:03:54.000Z</time>
      </trkpt>
      <trkpt lat="47.46671" lon="6.78689">
        <ele>377</ele>
        <time>2016-03-13T09:03:58.000Z</time>
      </trkpt>
      <trkpt lat="47.46671" lon="6.7869">
        <ele>377</ele>
        <time>2016-03-13T09:03:59.000Z</time>
      </trkpt>
      <trkpt lat="47.46666" lon="6.78689">
        <ele>381</ele>
        <time>2016-03-13T09:04:07.000Z</time>
      </trkpt>
      <trkpt lat="47.46665" lon="6.78689">
        <ele>381</ele>
        <time>2016-03-13T09:04:08.000Z</time>
      </trkpt>
      <trkpt lat="47.46662" lon="6.78686">
        <ele>381</ele>
        <time>2016-03-13T09:04:11.000Z</time>
      </trkpt>
      <trkpt lat="47.46661" lon="6.78686">
        <ele>381</ele>
        <time>2016-03-13T09:04:12.000Z</time>
      </trkpt>
      <trkpt lat="47.46657" lon="6.78684">
        <ele>381</ele>
        <time>2016-03-13T09:04:15.000Z</time>
      </trkpt>
      <trkpt lat="47.46656" lon="6.78684">
        <ele>381</ele>
        <time>2016-03-13T09:04:16.000Z</time>
      </trkpt>
      <trkpt lat="47.46652" lon="6.78682">
        <ele>381</ele>
        <time>2016-03-13T09:04:19.000Z</time>
      </trkpt>
      <trkpt lat="47.46651" lon="6.78681">
        <ele>381</ele>
        <time>2016-03-13T09:04:20.000Z</time>
      </trkpt>
      <trkpt lat="47.46646" lon="6.78682">
        <ele>381</ele>
        <time>2016-03-13T09:04:23.000Z</time>
      </trkpt>
      <trkpt lat="47.46645" lon="6.78682">
        <ele>381</ele>
        <time>2016-03-13T09:04:24.000Z</time>
      </trkpt>
      <trkpt lat="47.4664" lon="6.78682">
        <ele>382</ele>
        <time>2016-03-13T09:04:27.000Z</time>
      </trkpt>
      <trkpt lat="47.46639" lon="6.78682">
        <ele>382</ele>
        <time>2016-03-13T09:04:28.000Z</time>
      </trkpt>
      <trkpt lat="47.46635" lon="6.7868">
        <ele>382</ele>
        <time>2016-03-13T09:04:31.000Z</time>
      </trkpt>
      <trkpt lat="47.46634" lon="6.78679">
        <ele>382</ele>
        <time>2016-03-13T09:04:32.000Z</time>
      </trkpt>
      <trkpt lat="47.4663" lon="6.78678">
        <ele>382</ele>
        <time>2016-03-13T09:04:35.000Z</time>
      </trkpt>
      <trkpt lat="47.46628" lon="6.78677">
        <ele>382</ele>
        <time>2016-03-13T09:04:36.000Z</time>
      </trkpt>
      <trkpt lat="47.46624" lon="6.78675">
        <ele>382</ele>
        <time>2016-03-13T09:04:39.000Z</time>
      </trkpt>
      <trkpt lat="47.46623" lon="6.78674">
        <ele>382</ele>
        <time>2016-03-13T09:04:40.000Z</time>
      </trkpt>
      <trkpt lat="47.46619" lon="6.78672">
        <ele>383</ele>
        <time>2016-03-13T09:04:44.000Z</time>
      </trkpt>
      <trkpt lat="47.46618" lon="6.78672">
        <ele>383</ele>
        <time>2016-03-13T09:04:45.000Z</time>
      </trkpt>
      <trkpt lat="47.46614" lon="6.7867">
        <ele>383</ele>
        <time>2016-03-13T09:04:49.000Z</time>
      </trkpt>
      <trkpt lat="47.46612" lon="6.78669">
        <ele>383</ele>
        <time>2016-03-13T09:04:50.000Z</time>
      </trkpt>
      <trkpt lat="47.46609" lon="6.78665">
        <ele>385</ele>
        <time>2016-03-13T09:04:55.000Z</time>
      </trkpt>
      <trkpt lat="47.46608" lon="6.78665">
        <ele>385</ele>
        <time>2016-03-13T09:04:56.000Z</time>
      </trkpt>
      <trkpt lat="47.46604" lon="6.78665">
        <ele>385</ele>
        <time>2016-03-13T09:04:59.000Z</time>
      </trkpt>
      <trkpt lat="47.46603" lon="6.78664">
        <ele>385</ele>
        <time>2016-03-13T09:05:00.000Z</time>
      </trkpt>
      <trkpt lat="47.466" lon="6.78662">
        <ele>385</ele>
        <time>2016-03-13T09:05:03.000Z</time>
      </trkpt>
      <trkpt lat="47.46598" lon="6.78662">
        <ele>385</ele>
        <time>2016-03-13T09:05:04.000Z</time>
      </trkpt>
      <trkpt lat="47.46594" lon="6.78661">
        <ele>385</ele>
        <time>2016-03-13T09:05:06.000Z</time>
      </trkpt>
      <trkpt lat="47.46592" lon="6.7866">
        <ele>386</ele>
        <time>2016-03-13T09:05:07.000Z</time>
      </trkpt>
      <trkpt lat="47.46589" lon="6.78659">
        <ele>386</ele>
        <time>2016-03-13T09:05:09.000Z</time>
      </trkpt>
      <trkpt lat="47.46588" lon="6.78658">
        <ele>386</ele>
        <time>2016-03-13T09:05:10.000Z</time>
      </trkpt>
      <trkpt lat="47.46584" lon="6.78656">
        <ele>386</ele>
        <time>2016-03-13T09:05:13.000Z</time>
      </trkpt>
      <trkpt lat="47.46582" lon="6.78656">
        <ele>389</ele>
        <time>2016-03-13T09:05:14.000Z</time>
      </trkpt>
      <trkpt lat="47.46578" lon="6.78655">
        <ele>390</ele>
        <time>2016-03-13T09:05:17.000Z</time>
      </trkpt>
      <trkpt lat="47.46576" lon="6.78654">
        <ele>390</ele>
        <time>2016-03-13T09:05:18.000Z</time>
      </trkpt>
      <trkpt lat="47.46572" lon="6.78654">
        <ele>391</ele>
        <time>2016-03-13T09:05:21.000Z</time>
      </trkpt>
      <trkpt lat="47.46571" lon="6.78656">
        <ele>391</ele>
        <time>2016-03-13T09:05:22.000Z</time>
      </trkpt>
      <trkpt lat="47.4657" lon="6.78662">
        <ele>390</ele>
        <time>2016-03-13T09:05:25.000Z</time>
      </trkpt>
      <trkpt lat="47.4657" lon="6.78663">
        <ele>390</ele>
        <time>2016-03-13T09:05:26.000Z</time>
      </trkpt>
      <trkpt lat="47.46571" lon="6.78659">
        <ele>390</ele>
        <time>2016-03-13T09:05:29.000Z</time>
      </trkpt>
      <trkpt lat="47.46571" lon="6.78655">
        <ele>391</ele>
        <time>2016-03-13T09:05:30.000Z</time>
      </trkpt>
      <trkpt lat="47.46572" lon="6.78651">
        <ele>391</ele>
        <time>2016-03-13T09:05:31.000Z</time>
      </trkpt>
      <trkpt lat="47.46572" lon="6.78647">
        <ele>392</ele>
        <time>2016-03-13T09:05:32.000Z</time>
      </trkpt>
      <trkpt lat="47.46571" lon="6.78643">
        <ele>392</ele>
        <time>2016-03-13T09:05:33.000Z</time>
      </trkpt>
      <trkpt lat="47.46571" lon="6.78639">
        <ele>392</ele>
        <time>2016-03-13T09:05:34.000Z</time>
      </trkpt>
      <trkpt lat="47.46571" lon="6.78635">
        <ele>393</ele>
        <time>2016-03-13T09:05:35.000Z</time>
      </trkpt>
      <trkpt lat="47.46572" lon="6.78631">
        <ele>393</ele>
        <time>2016-03-13T09:05:36.000Z</time>
      </trkpt>
      <trkpt lat="47.46572" lon="6.78626">
        <ele>393</ele>
        <time>2016-03-13T09:05:37.000Z</time>
      </trkpt>
      <trkpt lat="47.46572" lon="6.78622">
        <ele>393</ele>
        <time>2016-03-13T09:05:38.000Z</time>
      </trkpt>
      <trkpt lat="47.46572" lon="6.78617">
        <ele>393</ele>
        <time>2016-03-13T09:05:39.000Z</time>
      </trkpt>
      <trkpt lat="47.46571" lon="6.78612">
        <ele>393</ele>
        <time>2016-03-13T09:05:40.000Z</time>
      </trkpt>
      <trkpt lat="47.4657" lon="6.78607">
        <ele>393</ele>
        <time>2016-03-13T09:05:41.000Z</time>
      </trkpt>
      <trkpt lat="47.46569" lon="6.78602">
        <ele>393</ele>
        <time>2016-03-13T09:05:42.000Z</time>
      </trkpt>
      <trkpt lat="47.46569" lon="6.78596">
        <ele>393</ele>
        <time>2016-03-13T09:05:43.000Z</time>
      </trkpt>
      <trkpt lat="47.46568" lon="6.78592">
        <ele>392</ele>
        <time>2016-03-13T09:05:44.000Z</time>
      </trkpt>
      <trkpt lat="47.46567" lon="6.78587">
        <ele>392</ele>
        <time>2016-03-13T09:05:45.000Z</time>
      </trkpt>
      <trkpt lat="47.46566" lon="6.78582">
        <ele>392</ele>
        <time>2016-03-13T09:05:46.000Z</time>
      </trkpt>
      <trkpt lat="47.46564" lon="6.78577">
        <ele>392</ele>
        <time>2016-03-13T09:05:47.000Z</time>
      </trkpt>
      <trkpt lat="47.46563" lon="6.78571">
        <ele>392</ele>
        <time>2016-03-13T09:05:48.000Z</time>
      </trkpt>
      <trkpt lat="47.46561" lon="6.78566">
        <ele>393</ele>
        <time>2016-03-13T09:05:49.000Z</time>
      </trkpt>
      <trkpt lat="47.4656" lon="6.7856">
        <ele>393</ele>
        <time>2016-03-13T09:05:50.000Z</time>
      </trkpt>
      <trkpt lat="47.4656" lon="6.78555">
        <ele>393</ele>
        <time>2016-03-13T09:05:51.000Z</time>
      </trkpt>
      <trkpt lat="47.4656" lon="6.78549">
        <ele>393</ele>
        <time>2016-03-13T09:05:52.000Z</time>
      </trkpt>
      <trkpt lat="47.46561" lon="6.78544">
        <ele>393</ele>
        <time>2016-03-13T09:05:53.000Z</time>
      </trkpt>
      <trkpt lat="47.46561" lon="6.78539">
        <ele>393</ele>
        <time>2016-03-13T09:05:54.000Z</time>
      </trkpt>
      <trkpt lat="47.46562" lon="6.78533">
        <ele>392</ele>
        <time>2016-03-13T09:05:55.000Z</time>
      </trkpt>
      <trkpt lat="47.46563" lon="6.78528">
        <ele>392</ele>
        <time>2016-03-13T09:05:56.000Z</time>
      </trkpt>
      <trkpt lat="47.46564" lon="6.78522">
        <ele>392</ele>
        <time>2016-03-13T09:05:57.000Z</time>
      </trkpt>
      <trkpt lat="47.46565" lon="6.78517">
        <ele>391</ele>
        <time>2016-03-13T09:05:58.000Z</time>
      </trkpt>
      <trkpt lat="47.46566" lon="6.78512">
        <ele>391</ele>
        <time>2016-03-13T09:05:59.000Z</time>
      </trkpt>
      <trkpt lat="47.46567" lon="6.78506">
        <ele>391</ele>
        <time>2016-03-13T09:06:00.000Z</time>
      </trkpt>
      <trkpt lat="47.46567" lon="6.785">
        <ele>390</ele>
        <time>2016-03-13T09:06:01.000Z</time>
      </trkpt>
      <trkpt lat="47.46568" lon="6.78494">
        <ele>389</ele>
        <time>2016-03-13T09:06:02.000Z</time>
      </trkpt>
      <trkpt lat="47.46568" lon="6.78487">
        <ele>389</ele>
        <time>2016-03-13T09:06:03.000Z</time>
      </trkpt>
      <trkpt lat="47.46569" lon="6.7848">
        <ele>390</ele>
        <time>2016-03-13T09:06:04.000Z</time>
      </trkpt>
      <trkpt lat="47.46568" lon="6.7847">
        <ele>390</ele>
        <time>2016-03-13T09:06:05.000Z</time>
      </trkpt>
      <trkpt lat="47.46569" lon="6.78463">
        <ele>390</ele>
        <time>2016-03-13T09:06:06.000Z</time>
      </trkpt>
      <trkpt lat="47.46569" lon="6.78456">
        <ele>390</ele>
        <time>2016-03-13T09:06:07.000Z</time>
      </trkpt>
      <trkpt lat="47.46569" lon="6.78447">
        <ele>390</ele>
        <time>2016-03-13T09:06:08.000Z</time>
      </trkpt>
      <trkpt lat="47.46569" lon="6.78439">
        <ele>389</ele>
        <time>2016-03-13T09:06:09.000Z</time>
      </trkpt>
      <trkpt lat="47.46569" lon="6.7843">
        <ele>389</ele>
        <time>2016-03-13T09:06:10.000Z</time>
      </trkpt>
      <trkpt lat="47.46568" lon="6.78421">
        <ele>389</ele>
        <time>2016-03-13T09:06:11.000Z</time>
      </trkpt>
      <trkpt lat="47.46566" lon="6.78412">
        <ele>387</ele>
        <time>2016-03-13T09:06:12.000Z</time>
      </trkpt>
      <trkpt lat="47.46562" lon="6.78403">
        <ele>387</ele>
        <time>2016-03-13T09:06:13.000Z</time>
      </trkpt>
      <trkpt lat="47.46559" lon="6.78396">
        <ele>387</ele>
        <time>2016-03-13T09:06:14.000Z</time>
      </trkpt>
      <trkpt lat="47.46553" lon="6.78391">
        <ele>387</ele>
        <time>2016-03-13T09:06:15.000Z</time>
      </trkpt>
      <trkpt lat="47.46548" lon="6.78389">
        <ele>387</ele>
        <time>2016-03-13T09:06:16.000Z</time>
      </trkpt>
      <trkpt lat="47.46543" lon="6.78384">
        <ele>388</ele>
        <time>2016-03-13T09:06:17.000Z</time>
      </trkpt>
      <trkpt lat="47.46539" lon="6.7838">
        <ele>388</ele>
        <time>2016-03-13T09:06:18.000Z</time>
      </trkpt>
      <trkpt lat="47.46535" lon="6.78377">
        <ele>388</ele>
        <time>2016-03-13T09:06:19.000Z</time>
      </trkpt>
      <trkpt lat="47.46532" lon="6.78373">
        <ele>388</ele>
        <time>2016-03-13T09:06:20.000Z</time>
      </trkpt>
      <trkpt lat="47.46529" lon="6.7837">
        <ele>388</ele>
        <time>2016-03-13T09:06:21.000Z</time>
      </trkpt>
      <trkpt lat="47.46525" lon="6.78368">
        <ele>388</ele>
        <time>2016-03-13T09:06:22.000Z</time>
      </trkpt>
      <trkpt lat="47.46522" lon="6.78365">
        <ele>388</ele>
        <time>2016-03-13T09:06:23.000Z</time>
      </trkpt>
      <trkpt lat="47.46519" lon="6.78361">
        <ele>388</ele>
        <time>2016-03-13T09:06:24.000Z</time>
      </trkpt>
      <trkpt lat="47.46514" lon="6.78357">
        <ele>388</ele>
        <time>2016-03-13T09:06:25.000Z</time>
      </trkpt>
      <trkpt lat="47.46511" lon="6.78354">
        <ele>387</ele>
        <time>2016-03-13T09:06:26.000Z</time>
      </trkpt>
      <trkpt lat="47.46511" lon="6.78351">
        <ele>387</ele>
        <time>2016-03-13T09:06:27.000Z</time>
      </trkpt>
      <trkpt lat="47.46507" lon="6.78347">
        <ele>387</ele>
        <time>2016-03-13T09:06:28.000Z</time>
      </trkpt>
      <trkpt lat="47.46505" lon="6.78343">
        <ele>387</ele>
        <time>2016-03-13T09:06:29.000Z</time>
      </trkpt>
      <trkpt lat="47.46502" lon="6.78339">
        <ele>387</ele>
        <time>2016-03-13T09:06:30.000Z</time>
      </trkpt>
      <trkpt lat="47.46498" lon="6.78335">
        <ele>388</ele>
        <time>2016-03-13T09:06:31.000Z</time>
      </trkpt>
      <trkpt lat="47.46495" lon="6.78332">
        <ele>386</ele>
        <time>2016-03-13T09:06:32.000Z</time>
      </trkpt>
      <trkpt lat="47.46491" lon="6.78329">
        <ele>386</ele>
        <time>2016-03-13T09:06:33.000Z</time>
      </trkpt>
      <trkpt lat="47.46488" lon="6.78326">
        <ele>385</ele>
        <time>2016-03-13T09:06:34.000Z</time>
      </trkpt>
      <trkpt lat="47.46484" lon="6.78323">
        <ele>385</ele>
        <time>2016-03-13T09:06:35.000Z</time>
      </trkpt>
      <trkpt lat="47.46482" lon="6.78321">
        <ele>385</ele>
        <time>2016-03-13T09:06:36.000Z</time>
      </trkpt>
      <trkpt lat="47.46479" lon="6.78318">
        <ele>384</ele>
        <time>2016-03-13T09:06:37.000Z</time>
      </trkpt>
      <trkpt lat="47.46477" lon="6.78315">
        <ele>384</ele>
        <time>2016-03-13T09:06:38.000Z</time>
      </trkpt>
      <trkpt lat="47.46474" lon="6.78313">
        <ele>384</ele>
        <time>2016-03-13T09:06:39.000Z</time>
      </trkpt>
      <trkpt lat="47.46472" lon="6.78311">
        <ele>384</ele>
        <time>2016-03-13T09:06:40.000Z</time>
      </trkpt>
      <trkpt lat="47.4647" lon="6.78309">
        <ele>384</ele>
        <time>2016-03-13T09:06:41.000Z</time>
      </trkpt>
      <trkpt lat="47.46467" lon="6.78307">
        <ele>384</ele>
        <time>2016-03-13T09:06:42.000Z</time>
      </trkpt>
      <trkpt lat="47.46464" lon="6.78307">
        <ele>384</ele>
        <time>2016-03-13T09:06:43.000Z</time>
      </trkpt>
      <trkpt lat="47.4646" lon="6.78307">
        <ele>384</ele>
        <time>2016-03-13T09:06:44.000Z</time>
      </trkpt>
      <trkpt lat="47.46456" lon="6.78309">
        <ele>384</ele>
        <time>2016-03-13T09:06:45.000Z</time>
      </trkpt>
      <trkpt lat="47.46453" lon="6.78313">
        <ele>384</ele>
        <time>2016-03-13T09:06:46.000Z</time>
      </trkpt>
      <trkpt lat="47.46451" lon="6.78317">
        <ele>384</ele>
        <time>2016-03-13T09:06:47.000Z</time>
      </trkpt>
      <trkpt lat="47.46448" lon="6.7832">
        <ele>385</ele>
        <time>2016-03-13T09:06:48.000Z</time>
      </trkpt>
      <trkpt lat="47.46446" lon="6.78323">
        <ele>385</ele>
        <time>2016-03-13T09:06:49.000Z</time>
      </trkpt>
      <trkpt lat="47.46443" lon="6.78324">
        <ele>385</ele>
        <time>2016-03-13T09:06:50.000Z</time>
      </trkpt>
      <trkpt lat="47.46441" lon="6.78326">
        <ele>385</ele>
        <time>2016-03-13T09:06:51.000Z</time>
      </trkpt>
      <trkpt lat="47.46437" lon="6.78329">
        <ele>385</ele>
        <time>2016-03-13T09:06:53.000Z</time>
      </trkpt>
      <trkpt lat="47.46436" lon="6.7833">
        <ele>386</ele>
        <time>2016-03-13T09:06:54.000Z</time>
      </trkpt>
      <trkpt lat="47.46432" lon="6.78334">
        <ele>390</ele>
        <time>2016-03-13T09:06:56.000Z</time>
      </trkpt>
      <trkpt lat="47.4643" lon="6.78337">
        <ele>390</ele>
        <time>2016-03-13T09:06:57.000Z</time>
      </trkpt>
      <trkpt lat="47.46429" lon="6.7834">
        <ele>390</ele>
        <time>2016-03-13T09:06:58.000Z</time>
      </trkpt>
      <trkpt lat="47.46427" lon="6.78341">
        <ele>390</ele>
        <time>2016-03-13T09:06:59.000Z</time>
      </trkpt>
      <trkpt lat="47.46424" lon="6.78344">
        <ele>390</ele>
        <time>2016-03-13T09:07:01.000Z</time>
      </trkpt>
      <trkpt lat="47.46422" lon="6.78344">
        <ele>390</ele>
        <time>2016-03-13T09:07:02.000Z</time>
      </trkpt>
      <trkpt lat="47.46419" lon="6.78345">
        <ele>390</ele>
        <time>2016-03-13T09:07:04.000Z</time>
      </trkpt>
      <trkpt lat="47.46418" lon="6.78345">
        <ele>390</ele>
        <time>2016-03-13T09:07:05.000Z</time>
      </trkpt>
      <trkpt lat="47.46415" lon="6.78347">
        <ele>391</ele>
        <time>2016-03-13T09:07:08.000Z</time>
      </trkpt>
      <trkpt lat="47.46413" lon="6.78348">
        <ele>392</ele>
        <time>2016-03-13T09:07:09.000Z</time>
      </trkpt>
      <trkpt lat="47.46409" lon="6.78349">
        <ele>392</ele>
        <time>2016-03-13T09:07:12.000Z</time>
      </trkpt>
      <trkpt lat="47.46408" lon="6.78349">
        <ele>392</ele>
        <time>2016-03-13T09:07:13.000Z</time>
      </trkpt>
      <trkpt lat="47.46404" lon="6.78353">
        <ele>393</ele>
        <time>2016-03-13T09:07:16.000Z</time>
      </trkpt>
      <trkpt lat="47.46403" lon="6.78354">
        <ele>393</ele>
        <time>2016-03-13T09:07:17.000Z</time>
      </trkpt>
      <trkpt lat="47.464" lon="6.78356">
        <ele>393</ele>
        <time>2016-03-13T09:07:19.000Z</time>
      </trkpt>
      <trkpt lat="47.46399" lon="6.78357">
        <ele>394</ele>
        <time>2016-03-13T09:07:20.000Z</time>
      </trkpt>
      <trkpt lat="47.46396" lon="6.78361">
        <ele>394</ele>
        <time>2016-03-13T09:07:22.000Z</time>
      </trkpt>
      <trkpt lat="47.46395" lon="6.78362">
        <ele>394</ele>
        <time>2016-03-13T09:07:23.000Z</time>
      </trkpt>
      <trkpt lat="47.46392" lon="6.78365">
        <ele>394</ele>
        <time>2016-03-13T09:07:25.000Z</time>
      </trkpt>
      <trkpt lat="47.46391" lon="6.78366">
        <ele>395</ele>
        <time>2016-03-13T09:07:26.000Z</time>
      </trkpt>
      <trkpt lat="47.46388" lon="6.78369">
        <ele>395</ele>
        <time>2016-03-13T09:07:29.000Z</time>
      </trkpt>
      <trkpt lat="47.46387" lon="6.78371">
        <ele>395</ele>
        <time>2016-03-13T09:07:30.000Z</time>
      </trkpt>
      <trkpt lat="47.46384" lon="6.78375">
        <ele>395</ele>
        <time>2016-03-13T09:07:33.000Z</time>
      </trkpt>
      <trkpt lat="47.46383" lon="6.78376">
        <ele>395</ele>
        <time>2016-03-13T09:07:34.000Z</time>
      </trkpt>
      <trkpt lat="47.46381" lon="6.78381">
        <ele>396</ele>
        <time>2016-03-13T09:07:36.000Z</time>
      </trkpt>
      <trkpt lat="47.46381" lon="6.78384">
        <ele>396</ele>
        <time>2016-03-13T09:07:37.000Z</time>
      </trkpt>
      <trkpt lat="47.46381" lon="6.7839">
        <ele>396</ele>
        <time>2016-03-13T09:07:39.000Z</time>
      </trkpt>
      <trkpt lat="47.46381" lon="6.78393">
        <ele>397</ele>
        <time>2016-03-13T09:07:40.000Z</time>
      </trkpt>
      <trkpt lat="47.46381" lon="6.78398">
        <ele>397</ele>
        <time>2016-03-13T09:07:42.000Z</time>
      </trkpt>
      <trkpt lat="47.46381" lon="6.784">
        <ele>397</ele>
        <time>2016-03-13T09:07:43.000Z</time>
      </trkpt>
      <trkpt lat="47.46381" lon="6.78407">
        <ele>397</ele>
        <time>2016-03-13T09:07:46.000Z</time>
      </trkpt>
      <trkpt lat="47.4638" lon="6.78408">
        <ele>397</ele>
        <time>2016-03-13T09:07:47.000Z</time>
      </trkpt>
      <trkpt lat="47.46378" lon="6.78413">
        <ele>397</ele>
        <time>2016-03-13T09:07:52.000Z</time>
      </trkpt>
      <trkpt lat="47.46378" lon="6.78414">
        <ele>397</ele>
        <time>2016-03-13T09:07:53.000Z</time>
      </trkpt>
      <trkpt lat="47.46374" lon="6.78416">
        <ele>397</ele>
        <time>2016-03-13T09:07:57.000Z</time>
      </trkpt>
      <trkpt lat="47.46373" lon="6.78416">
        <ele>397</ele>
        <time>2016-03-13T09:07:58.000Z</time>
      </trkpt>
      <trkpt lat="47.4637" lon="6.78415">
        <ele>397</ele>
        <time>2016-03-13T09:08:00.000Z</time>
      </trkpt>
      <trkpt lat="47.46368" lon="6.78414">
        <ele>397</ele>
        <time>2016-03-13T09:08:01.000Z</time>
      </trkpt>
      <trkpt lat="47.46365" lon="6.78413">
        <ele>397</ele>
        <time>2016-03-13T09:08:03.000Z</time>
      </trkpt>
      <trkpt lat="47.46363" lon="6.78413">
        <ele>397</ele>
        <time>2016-03-13T09:08:04.000Z</time>
      </trkpt>
      <trkpt lat="47.4636" lon="6.78412">
        <ele>398</ele>
        <time>2016-03-13T09:08:06.000Z</time>
      </trkpt>
      <trkpt lat="47.46358" lon="6.78411">
        <ele>398</ele>
        <time>2016-03-13T09:08:07.000Z</time>
      </trkpt>
      <trkpt lat="47.46355" lon="6.7841">
        <ele>398</ele>
        <time>2016-03-13T09:08:09.000Z</time>
      </trkpt>
      <trkpt lat="47.46353" lon="6.78411">
        <ele>398</ele>
        <time>2016-03-13T09:08:10.000Z</time>
      </trkpt>
      <trkpt lat="47.4635" lon="6.78411">
        <ele>398</ele>
        <time>2016-03-13T09:08:12.000Z</time>
      </trkpt>
      <trkpt lat="47.46348" lon="6.78411">
        <ele>398</ele>
        <time>2016-03-13T09:08:13.000Z</time>
      </trkpt>
      <trkpt lat="47.46345" lon="6.78408">
        <ele>398</ele>
        <time>2016-03-13T09:08:16.000Z</time>
      </trkpt>
      <trkpt lat="47.46344" lon="6.78407">
        <ele>398</ele>
        <time>2016-03-13T09:08:17.000Z</time>
      </trkpt>
      <trkpt lat="47.4634" lon="6.78407">
        <ele>398</ele>
        <time>2016-03-13T09:08:20.000Z</time>
      </trkpt>
      <trkpt lat="47.46338" lon="6.78409">
        <ele>399</ele>
        <time>2016-03-13T09:08:21.000Z</time>
      </trkpt>
      <trkpt lat="47.46336" lon="6.78411">
        <ele>399</ele>
        <time>2016-03-13T09:08:23.000Z</time>
      </trkpt>
      <trkpt lat="47.46334" lon="6.78412">
        <ele>399</ele>
        <time>2016-03-13T09:08:24.000Z</time>
      </trkpt>
      <trkpt lat="47.4633" lon="6.78413">
        <ele>400</ele>
        <time>2016-03-13T09:08:26.000Z</time>
      </trkpt>
      <trkpt lat="47.46328" lon="6.78414">
        <ele>400</ele>
        <time>2016-03-13T09:08:27.000Z</time>
      </trkpt>
      <trkpt lat="47.46325" lon="6.78414">
        <ele>400</ele>
        <time>2016-03-13T09:08:28.000Z</time>
      </trkpt>
      <trkpt lat="47.46322" lon="6.78415">
        <ele>400</ele>
        <time>2016-03-13T09:08:29.000Z</time>
      </trkpt>
      <trkpt lat="47.4632" lon="6.78416">
        <ele>400</ele>
        <time>2016-03-13T09:08:30.000Z</time>
      </trkpt>
      <trkpt lat="47.46317" lon="6.78416">
        <ele>400</ele>
        <time>2016-03-13T09:08:31.000Z</time>
      </trkpt>
      <trkpt lat="47.46315" lon="6.78416">
        <ele>400</ele>
        <time>2016-03-13T09:08:32.000Z</time>
      </trkpt>
      <trkpt lat="47.46312" lon="6.78416">
        <ele>400</ele>
        <time>2016-03-13T09:08:33.000Z</time>
      </trkpt>
      <trkpt lat="47.46309" lon="6.78416">
        <ele>400</ele>
        <time>2016-03-13T09:08:34.000Z</time>
      </trkpt>
      <trkpt lat="47.46307" lon="6.78417">
        <ele>400</ele>
        <time>2016-03-13T09:08:35.000Z</time>
      </trkpt>
      <trkpt lat="47.46304" lon="6.78418">
        <ele>402</ele>
        <time>2016-03-13T09:08:36.000Z</time>
      </trkpt>
      <trkpt lat="47.46302" lon="6.7842">
        <ele>402</ele>
        <time>2016-03-13T09:08:37.000Z</time>
      </trkpt>
      <trkpt lat="47.463" lon="6.78421">
        <ele>402</ele>
        <time>2016-03-13T09:08:38.000Z</time>
      </trkpt>
      <trkpt lat="47.46297" lon="6.78422">
        <ele>402</ele>
        <time>2016-03-13T09:08:39.000Z</time>
      </trkpt>
      <trkpt lat="47.46295" lon="6.78423">
        <ele>402</ele>
        <time>2016-03-13T09:08:40.000Z</time>
      </trkpt>
      <trkpt lat="47.46292" lon="6.78423">
        <ele>402</ele>
        <time>2016-03-13T09:08:41.000Z</time>
      </trkpt>
      <trkpt lat="47.46289" lon="6.78423">
        <ele>402</ele>
        <time>2016-03-13T09:08:42.000Z</time>
      </trkpt>
      <trkpt lat="47.46286" lon="6.78424">
        <ele>402</ele>
        <time>2016-03-13T09:08:43.000Z</time>
      </trkpt>
      <trkpt lat="47.46283" lon="6.78425">
        <ele>403</ele>
        <time>2016-03-13T09:08:44.000Z</time>
      </trkpt>
      <trkpt lat="47.4628" lon="6.78425">
        <ele>403</ele>
        <time>2016-03-13T09:08:45.000Z</time>
      </trkpt>
      <trkpt lat="47.46278" lon="6.78425">
        <ele>403</ele>
        <time>2016-03-13T09:08:46.000Z</time>
      </trkpt>
      <trkpt lat="47.46275" lon="6.78426">
        <ele>403</ele>
        <time>2016-03-13T09:08:47.000Z</time>
      </trkpt>
      <trkpt lat="47.46273" lon="6.78426">
        <ele>403</ele>
        <time>2016-03-13T09:08:48.000Z</time>
      </trkpt>
      <trkpt lat="47.46271" lon="6.78427">
        <ele>403</ele>
        <time>2016-03-13T09:08:49.000Z</time>
      </trkpt>
      <trkpt lat="47.46266" lon="6.78428">
        <ele>403</ele>
        <time>2016-03-13T09:08:51.000Z</time>
      </trkpt>
      <trkpt lat="47.46264" lon="6.7843">
        <ele>403</ele>
        <time>2016-03-13T09:08:52.000Z</time>
      </trkpt>
      <trkpt lat="47.46261" lon="6.78433">
        <ele>403</ele>
        <time>2016-03-13T09:08:54.000Z</time>
      </trkpt>
      <trkpt lat="47.46259" lon="6.78435">
        <ele>403</ele>
        <time>2016-03-13T09:08:55.000Z</time>
      </trkpt>
      <trkpt lat="47.46256" lon="6.78436">
        <ele>403</ele>
        <time>2016-03-13T09:08:56.000Z</time>
      </trkpt>
      <trkpt lat="47.46254" lon="6.78437">
        <ele>403</ele>
        <time>2016-03-13T09:08:57.000Z</time>
      </trkpt>
      <trkpt lat="47.46251" lon="6.78438">
        <ele>403</ele>
        <time>2016-03-13T09:09:00.000Z</time>
      </trkpt>
      <trkpt lat="47.46249" lon="6.78438">
        <ele>405</ele>
        <time>2016-03-13T09:09:01.000Z</time>
      </trkpt>
      <trkpt lat="47.46247" lon="6.78438">
        <ele>406</ele>
        <time>2016-03-13T09:09:02.000Z</time>
      </trkpt>
      <trkpt lat="47.46244" lon="6.78438">
        <ele>406</ele>
        <time>2016-03-13T09:09:03.000Z</time>
      </trkpt>
      <trkpt lat="47.46242" lon="6.78439">
        <ele>406</ele>
        <time>2016-03-13T09:09:04.000Z</time>
      </trkpt>
      <trkpt lat="47.46239" lon="6.7844">
        <ele>406</ele>
        <time>2016-03-13T09:09:05.000Z</time>
      </trkpt>
      <trkpt lat="47.46236" lon="6.78444">
        <ele>406</ele>
        <time>2016-03-13T09:09:07.000Z</time>
      </trkpt>
      <trkpt lat="47.46234" lon="6.78445">
        <ele>406</ele>
        <time>2016-03-13T09:09:08.000Z</time>
      </trkpt>
      <trkpt lat="47.4623" lon="6.78447">
        <ele>406</ele>
        <time>2016-03-13T09:09:10.000Z</time>
      </trkpt>
      <trkpt lat="47.46228" lon="6.78447">
        <ele>406</ele>
        <time>2016-03-13T09:09:11.000Z</time>
      </trkpt>
      <trkpt lat="47.46225" lon="6.78447">
        <ele>406</ele>
        <time>2016-03-13T09:09:12.000Z</time>
      </trkpt>
      <trkpt lat="47.46223" lon="6.78447">
        <ele>406</ele>
        <time>2016-03-13T09:09:13.000Z</time>
      </trkpt>
      <trkpt lat="47.46219" lon="6.78449">
        <ele>407</ele>
        <time>2016-03-13T09:09:15.000Z</time>
      </trkpt>
      <trkpt lat="47.46217" lon="6.7845">
        <ele>407</ele>
        <time>2016-03-13T09:09:16.000Z</time>
      </trkpt>
      <trkpt lat="47.46214" lon="6.78451">
        <ele>407</ele>
        <time>2016-03-13T09:09:18.000Z</time>
      </trkpt>
      <trkpt lat="47.46212" lon="6.78453">
        <ele>407</ele>
        <time>2016-03-13T09:09:19.000Z</time>
      </trkpt>
      <trkpt lat="47.46209" lon="6.78457">
        <ele>407</ele>
        <time>2016-03-13T09:09:21.000Z</time>
      </trkpt>
      <trkpt lat="47.46208" lon="6.78459">
        <ele>407</ele>
        <time>2016-03-13T09:09:22.000Z</time>
      </trkpt>
      <trkpt lat="47.46204" lon="6.78463">
        <ele>407</ele>
        <time>2016-03-13T09:09:24.000Z</time>
      </trkpt>
      <trkpt lat="47.46202" lon="6.78465">
        <ele>407</ele>
        <time>2016-03-13T09:09:25.000Z</time>
      </trkpt>
      <trkpt lat="47.46199" lon="6.78466">
        <ele>407</ele>
        <time>2016-03-13T09:09:26.000Z</time>
      </trkpt>
      <trkpt lat="47.46197" lon="6.78466">
        <ele>407</ele>
        <time>2016-03-13T09:09:27.000Z</time>
      </trkpt>
      <trkpt lat="47.46193" lon="6.78467">
        <ele>408</ele>
        <time>2016-03-13T09:09:29.000Z</time>
      </trkpt>
      <trkpt lat="47.46191" lon="6.78467">
        <ele>408</ele>
        <time>2016-03-13T09:09:30.000Z</time>
      </trkpt>
      <trkpt lat="47.46187" lon="6.78467">
        <ele>408</ele>
        <time>2016-03-13T09:09:32.000Z</time>
      </trkpt>
      <trkpt lat="47.46185" lon="6.78468">
        <ele>408</ele>
        <time>2016-03-13T09:09:33.000Z</time>
      </trkpt>
      <trkpt lat="47.46182" lon="6.78469">
        <ele>408</ele>
        <time>2016-03-13T09:09:34.000Z</time>
      </trkpt>
      <trkpt lat="47.46179" lon="6.7847">
        <ele>408</ele>
        <time>2016-03-13T09:09:35.000Z</time>
      </trkpt>
      <trkpt lat="47.46177" lon="6.78471">
        <ele>408</ele>
        <time>2016-03-13T09:09:36.000Z</time>
      </trkpt>
      <trkpt lat="47.46174" lon="6.78472">
        <ele>408</ele>
        <time>2016-03-13T09:09:37.000Z</time>
      </trkpt>
      <trkpt lat="47.46171" lon="6.78473">
        <ele>408</ele>
        <time>2016-03-13T09:09:38.000Z</time>
      </trkpt>
      <trkpt lat="47.46167" lon="6.78474">
        <ele>408</ele>
        <time>2016-03-13T09:09:39.000Z</time>
      </trkpt>
      <trkpt lat="47.46164" lon="6.78475">
        <ele>410</ele>
        <time>2016-03-13T09:09:40.000Z</time>
      </trkpt>
      <trkpt lat="47.46161" lon="6.78476">
        <ele>410</ele>
        <time>2016-03-13T09:09:41.000Z</time>
      </trkpt>
      <trkpt lat="47.46158" lon="6.78477">
        <ele>410</ele>
        <time>2016-03-13T09:09:42.000Z</time>
      </trkpt>
      <trkpt lat="47.46155" lon="6.78477">
        <ele>410</ele>
        <time>2016-03-13T09:09:43.000Z</time>
      </trkpt>
      <trkpt lat="47.46151" lon="6.78477">
        <ele>410</ele>
        <time>2016-03-13T09:09:44.000Z</time>
      </trkpt>
      <trkpt lat="47.46148" lon="6.78477">
        <ele>410</ele>
        <time>2016-03-13T09:09:45.000Z</time>
      </trkpt>
      <trkpt lat="47.46145" lon="6.78478">
        <ele>410</ele>
        <time>2016-03-13T09:09:46.000Z</time>
      </trkpt>
      <trkpt lat="47.46143" lon="6.78479">
        <ele>410</ele>
        <time>2016-03-13T09:09:47.000Z</time>
      </trkpt>
      <trkpt lat="47.46139" lon="6.78481">
        <ele>410</ele>
        <time>2016-03-13T09:09:49.000Z</time>
      </trkpt>
      <trkpt lat="47.46138" lon="6.78481">
        <ele>410</ele>
        <time>2016-03-13T09:09:50.000Z</time>
      </trkpt>
      <trkpt lat="47.46133" lon="6.78483">
        <ele>410</ele>
        <time>2016-03-13T09:09:53.000Z</time>
      </trkpt>
      <trkpt lat="47.46132" lon="6.78484">
        <ele>410</ele>
        <time>2016-03-13T09:09:54.000Z</time>
      </trkpt>
      <trkpt lat="47.4613" lon="6.7849">
        <ele>410</ele>
        <time>2016-03-13T09:10:48.000Z</time>
      </trkpt>
      <trkpt lat="47.4613" lon="6.7849">
        <ele>410</ele>
        <time>2016-03-13T09:10:49.000Z</time>
      </trkpt>
      <trkpt lat="47.46126" lon="6.78492">
        <ele>410</ele>
        <time>2016-03-13T09:11:17.000Z</time>
      </trkpt>
      <trkpt lat="47.46124" lon="6.78493">
        <ele>411</ele>
        <time>2016-03-13T09:11:18.000Z</time>
      </trkpt>
      <trkpt lat="47.46121" lon="6.78493">
        <ele>411</ele>
        <time>2016-03-13T09:11:19.000Z</time>
      </trkpt>
      <trkpt lat="47.46117" lon="6.78492">
        <ele>411</ele>
        <time>2016-03-13T09:11:20.000Z</time>
      </trkpt>
      <trkpt lat="47.46114" lon="6.78492">
        <ele>411</ele>
        <time>2016-03-13T09:11:21.000Z</time>
      </trkpt>
      <trkpt lat="47.4611" lon="6.78492">
        <ele>411</ele>
        <time>2016-03-13T09:11:22.000Z</time>
      </trkpt>
      <trkpt lat="47.46107" lon="6.78493">
        <ele>411</ele>
        <time>2016-03-13T09:11:23.000Z</time>
      </trkpt>
      <trkpt lat="47.46104" lon="6.78493">
        <ele>411</ele>
        <time>2016-03-13T09:11:24.000Z</time>
      </trkpt>
      <trkpt lat="47.46101" lon="6.78493">
        <ele>411</ele>
        <time>2016-03-13T09:11:25.000Z</time>
      </trkpt>
      <trkpt lat="47.46099" lon="6.78492">
        <ele>411</ele>
        <time>2016-03-13T09:11:26.000Z</time>
      </trkpt>
      <trkpt lat="47.46097" lon="6.78491">
        <ele>411</ele>
        <time>2016-03-13T09:11:27.000Z</time>
      </trkpt>
      <trkpt lat="47.46094" lon="6.78489">
        <ele>411</ele>
        <time>2016-03-13T09:11:28.000Z</time>
      </trkpt>
      <trkpt lat="47.46092" lon="6.78486">
        <ele>411</ele>
        <time>2016-03-13T09:11:29.000Z</time>
      </trkpt>
      <trkpt lat="47.4609" lon="6.78483">
        <ele>411</ele>
        <time>2016-03-13T09:11:30.000Z</time>
      </trkpt>
      <trkpt lat="47.46088" lon="6.7848">
        <ele>411</ele>
        <time>2016-03-13T09:11:31.000Z</time>
      </trkpt>
      <trkpt lat="47.46084" lon="6.78477">
        <ele>411</ele>
        <time>2016-03-13T09:11:32.000Z</time>
      </trkpt>
      <trkpt lat="47.46067" lon="6.78477">
        <ele>408</ele>
        <time>2016-03-13T09:11:33.000Z</time>
      </trkpt>
      <trkpt lat="47.46056" lon="6.78473">
        <ele>407</ele>
        <time>2016-03-13T09:11:34.000Z</time>
      </trkpt>
      <trkpt lat="47.46049" lon="6.78469">
        <ele>406</ele>
        <time>2016-03-13T09:11:35.000Z</time>
      </trkpt>
      <trkpt lat="47.46043" lon="6.78467">
        <ele>406</ele>
        <time>2016-03-13T09:11:36.000Z</time>
      </trkpt>
      <trkpt lat="47.46038" lon="6.78463">
        <ele>406</ele>
        <time>2016-03-13T09:11:37.000Z</time>
      </trkpt>
      <trkpt lat="47.46029" lon="6.78463">
        <ele>405</ele>
        <time>2016-03-13T09:11:38.000Z</time>
      </trkpt>
      <trkpt lat="47.46021" lon="6.78462">
        <ele>405</ele>
        <time>2016-03-13T09:11:39.000Z</time>
      </trkpt>
      <trkpt lat="47.46011" lon="6.78462">
        <ele>404</ele>
        <time>2016-03-13T09:11:40.000Z</time>
      </trkpt>
      <trkpt lat="47.46004" lon="6.78461">
        <ele>404</ele>
        <time>2016-03-13T09:11:41.000Z</time>
      </trkpt>
      <trkpt lat="47.46002" lon="6.7846">
        <ele>404</ele>
        <time>2016-03-13T09:11:42.000Z</time>
      </trkpt>
      <trkpt lat="47.46" lon="6.78455">
        <ele>396</ele>
        <time>2016-03-13T09:11:43.000Z</time>
      </trkpt>
      <trkpt lat="47.45997" lon="6.78452">
        <ele>396</ele>
        <time>2016-03-13T09:11:44.000Z</time>
      </trkpt>
      <trkpt lat="47.46" lon="6.78448">
        <ele>404</ele>
        <time>2016-03-13T09:11:45.000Z</time>
      </trkpt>
      <trkpt lat="47.46001" lon="6.78443">
        <ele>404</ele>
        <time>2016-03-13T09:11:46.000Z</time>
      </trkpt>
      <trkpt lat="47.46001" lon="6.78438">
        <ele>404</ele>
        <time>2016-03-13T09:11:47.000Z</time>
      </trkpt>
      <trkpt lat="47.46002" lon="6.78434">
        <ele>404</ele>
        <time>2016-03-13T09:11:48.000Z</time>
      </trkpt>
      <trkpt lat="47.46001" lon="6.7843">
        <ele>403</ele>
        <time>2016-03-13T09:11:49.000Z</time>
      </trkpt>
      <trkpt lat="47.45999" lon="6.78426">
        <ele>399</ele>
        <time>2016-03-13T09:11:50.000Z</time>
      </trkpt>
      <trkpt lat="47.45996" lon="6.78424">
        <ele>399</ele>
        <time>2016-03-13T09:11:51.000Z</time>
      </trkpt>
      <trkpt lat="47.45992" lon="6.78419">
        <ele>399</ele>
        <time>2016-03-13T09:11:52.000Z</time>
      </trkpt>
      <trkpt lat="47.45985" lon="6.7842">
        <ele>398</ele>
        <time>2016-03-13T09:11:53.000Z</time>
      </trkpt>
      <trkpt lat="47.45982" lon="6.78417">
        <ele>397</ele>
        <time>2016-03-13T09:11:54.000Z</time>
      </trkpt>
      <trkpt lat="47.45978" lon="6.78418">
        <ele>397</ele>
        <time>2016-03-13T09:11:55.000Z</time>
      </trkpt>
      <trkpt lat="47.45974" lon="6.78421">
        <ele>396</ele>
        <time>2016-03-13T09:11:56.000Z</time>
      </trkpt>
      <trkpt lat="47.45968" lon="6.78424">
        <ele>395</ele>
        <time>2016-03-13T09:11:57.000Z</time>
      </trkpt>
      <trkpt lat="47.45962" lon="6.78428">
        <ele>394</ele>
        <time>2016-03-13T09:11:58.000Z</time>
      </trkpt>
      <trkpt lat="47.45947" lon="6.78436">
        <ele>392</ele>
        <time>2016-03-13T09:11:59.000Z</time>
      </trkpt>
      <trkpt lat="47.45939" lon="6.78444">
        <ele>391</ele>
        <time>2016-03-13T09:12:00.000Z</time>
      </trkpt>
      <trkpt lat="47.45941" lon="6.78459">
        <ele>391</ele>
        <time>2016-03-13T09:12:01.000Z</time>
      </trkpt>
      <trkpt lat="47.45941" lon="6.78469">
        <ele>391</ele>
        <time>2016-03-13T09:12:02.000Z</time>
      </trkpt>
      <trkpt lat="47.45941" lon="6.7848">
        <ele>390</ele>
        <time>2016-03-13T09:12:03.000Z</time>
      </trkpt>
      <trkpt lat="47.45942" lon="6.78492">
        <ele>389</ele>
        <time>2016-03-13T09:12:04.000Z</time>
      </trkpt>
      <trkpt lat="47.45943" lon="6.78504">
        <ele>387</ele>
        <time>2016-03-13T09:12:05.000Z</time>
      </trkpt>
      <trkpt lat="47.45942" lon="6.78516">
        <ele>387</ele>
        <time>2016-03-13T09:12:06.000Z</time>
      </trkpt>
      <trkpt lat="47.45936" lon="6.78526">
        <ele>387</ele>
        <time>2016-03-13T09:12:07.000Z</time>
      </trkpt>
      <trkpt lat="47.45929" lon="6.78531">
        <ele>387</ele>
        <time>2016-03-13T09:12:08.000Z</time>
      </trkpt>
      <trkpt lat="47.45922" lon="6.78533">
        <ele>386</ele>
        <time>2016-03-13T09:12:09.000Z</time>
      </trkpt>
      <trkpt lat="47.45916" lon="6.78531">
        <ele>377</ele>
        <time>2016-03-13T09:12:10.000Z</time>
      </trkpt>
      <trkpt lat="47.4591" lon="6.78525">
        <ele>377</ele>
        <time>2016-03-13T09:12:11.000Z</time>
      </trkpt>
      <trkpt lat="47.45905" lon="6.78519">
        <ele>377</ele>
        <time>2016-03-13T09:12:12.000Z</time>
      </trkpt>
      <trkpt lat="47.45899" lon="6.78511">
        <ele>377</ele>
        <time>2016-03-13T09:12:13.000Z</time>
      </trkpt>
      <trkpt lat="47.45892" lon="6.78503">
        <ele>377</ele>
        <time>2016-03-13T09:12:14.000Z</time>
      </trkpt>
      <trkpt lat="47.45884" lon="6.78495">
        <ele>377</ele>
        <time>2016-03-13T09:12:15.000Z</time>
      </trkpt>
      <trkpt lat="47.45878" lon="6.78487">
        <ele>377</ele>
        <time>2016-03-13T09:12:16.000Z</time>
      </trkpt>
      <trkpt lat="47.45869" lon="6.78479">
        <ele>376</ele>
        <time>2016-03-13T09:12:17.000Z</time>
      </trkpt>
      <trkpt lat="47.45861" lon="6.78471">
        <ele>375</ele>
        <time>2016-03-13T09:12:18.000Z</time>
      </trkpt>
      <trkpt lat="47.45852" lon="6.78461">
        <ele>375</ele>
        <time>2016-03-13T09:12:19.000Z</time>
      </trkpt>
      <trkpt lat="47.45843" lon="6.78452">
        <ele>375</ele>
        <time>2016-03-13T09:12:20.000Z</time>
      </trkpt>
      <trkpt lat="47.45833" lon="6.78443">
        <ele>367</ele>
        <time>2016-03-13T09:12:21.000Z</time>
      </trkpt>
      <trkpt lat="47.45823" lon="6.78435">
        <ele>367</ele>
        <time>2016-03-13T09:12:22.000Z</time>
      </trkpt>
      <trkpt lat="47.45815" lon="6.78424">
        <ele>367</ele>
        <time>2016-03-13T09:12:23.000Z</time>
      </trkpt>
      <trkpt lat="47.45805" lon="6.78415">
        <ele>368</ele>
        <time>2016-03-13T09:12:24.000Z</time>
      </trkpt>
      <trkpt lat="47.45795" lon="6.78406">
        <ele>367</ele>
        <time>2016-03-13T09:12:25.000Z</time>
      </trkpt>
      <trkpt lat="47.45785" lon="6.78399">
        <ele>366</ele>
        <time>2016-03-13T09:12:26.000Z</time>
      </trkpt>
      <trkpt lat="47.45775" lon="6.78393">
        <ele>366</ele>
        <time>2016-03-13T09:12:27.000Z</time>
      </trkpt>
      <trkpt lat="47.45765" lon="6.78388">
        <ele>365</ele>
        <time>2016-03-13T09:12:28.000Z</time>
      </trkpt>
      <trkpt lat="47.45756" lon="6.78385">
        <ele>365</ele>
        <time>2016-03-13T09:12:29.000Z</time>
      </trkpt>
      <trkpt lat="47.45748" lon="6.78383">
        <ele>360</ele>
        <time>2016-03-13T09:12:30.000Z</time>
      </trkpt>
      <trkpt lat="47.45741" lon="6.78384">
        <ele>360</ele>
        <time>2016-03-13T09:12:31.000Z</time>
      </trkpt>
      <trkpt lat="47.45736" lon="6.78388">
        <ele>360</ele>
        <time>2016-03-13T09:12:32.000Z</time>
      </trkpt>
      <trkpt lat="47.45733" lon="6.78392">
        <ele>359</ele>
        <time>2016-03-13T09:12:33.000Z</time>
      </trkpt>
      <trkpt lat="47.4573" lon="6.78394">
        <ele>359</ele>
        <time>2016-03-13T09:12:34.000Z</time>
      </trkpt>
      <trkpt lat="47.45728" lon="6.78398">
        <ele>359</ele>
        <time>2016-03-13T09:12:35.000Z</time>
      </trkpt>
      <trkpt lat="47.45725" lon="6.78402">
        <ele>359</ele>
        <time>2016-03-13T09:12:36.000Z</time>
      </trkpt>
      <trkpt lat="47.45721" lon="6.78407">
        <ele>359</ele>
        <time>2016-03-13T09:12:37.000Z</time>
      </trkpt>
      <trkpt lat="47.45718" lon="6.78411">
        <ele>359</ele>
        <time>2016-03-13T09:12:38.000Z</time>
      </trkpt>
      <trkpt lat="47.45714" lon="6.78417">
        <ele>359</ele>
        <time>2016-03-13T09:12:39.000Z</time>
      </trkpt>
      <trkpt lat="47.45711" lon="6.78422">
        <ele>357</ele>
        <time>2016-03-13T09:12:40.000Z</time>
      </trkpt>
      <trkpt lat="47.45707" lon="6.78428">
        <ele>357</ele>
        <time>2016-03-13T09:12:41.000Z</time>
      </trkpt>
      <trkpt lat="47.45704" lon="6.78433">
        <ele>357</ele>
        <time>2016-03-13T09:12:42.000Z</time>
      </trkpt>
      <trkpt lat="47.457" lon="6.78438">
        <ele>357</ele>
        <time>2016-03-13T09:12:43.000Z</time>
      </trkpt>
      <trkpt lat="47.45697" lon="6.78443">
        <ele>356</ele>
        <time>2016-03-13T09:12:44.000Z</time>
      </trkpt>
      <trkpt lat="47.45694" lon="6.78449">
        <ele>356</ele>
        <time>2016-03-13T09:12:45.000Z</time>
      </trkpt>
      <trkpt lat="47.45691" lon="6.78454">
        <ele>356</ele>
        <time>2016-03-13T09:12:46.000Z</time>
      </trkpt>
      <trkpt lat="47.45689" lon="6.78458">
        <ele>356</ele>
        <time>2016-03-13T09:12:47.000Z</time>
      </trkpt>
      <trkpt lat="47.45687" lon="6.78461">
        <ele>356</ele>
        <time>2016-03-13T09:12:48.001Z</time>
      </trkpt>
      <trkpt lat="47.45685" lon="6.78468">
        <ele>356</ele>
        <time>2016-03-13T09:12:49.000Z</time>
      </trkpt>
      <trkpt lat="47.45682" lon="6.78473">
        <ele>355</ele>
        <time>2016-03-13T09:12:50.000Z</time>
      </trkpt>
      <trkpt lat="47.4568" lon="6.78478">
        <ele>355</ele>
        <time>2016-03-13T09:12:51.000Z</time>
      </trkpt>
      <trkpt lat="47.45677" lon="6.78483">
        <ele>354</ele>
        <time>2016-03-13T09:12:52.000Z</time>
      </trkpt>
      <trkpt lat="47.45674" lon="6.78488">
        <ele>354</ele>
        <time>2016-03-13T09:12:53.000Z</time>
      </trkpt>
      <trkpt lat="47.45671" lon="6.78491">
        <ele>353</ele>
        <time>2016-03-13T09:12:54.001Z</time>
      </trkpt>
      <trkpt lat="47.45667" lon="6.78495">
        <ele>353</ele>
        <time>2016-03-13T09:12:55.000Z</time>
      </trkpt>
      <trkpt lat="47.45663" lon="6.78499">
        <ele>352</ele>
        <time>2016-03-13T09:12:56.001Z</time>
      </trkpt>
      <trkpt lat="47.4566" lon="6.78504">
        <ele>351</ele>
        <time>2016-03-13T09:12:57.000Z</time>
      </trkpt>
      <trkpt lat="47.45657" lon="6.78507">
        <ele>351</ele>
        <time>2016-03-13T09:12:58.001Z</time>
      </trkpt>
      <trkpt lat="47.45653" lon="6.78512">
        <ele>351</ele>
        <time>2016-03-13T09:12:59.000Z</time>
      </trkpt>
      <trkpt lat="47.4565" lon="6.78516">
        <ele>350</ele>
        <time>2016-03-13T09:13:00.000Z</time>
      </trkpt>
      <trkpt lat="47.45647" lon="6.78519">
        <ele>350</ele>
        <time>2016-03-13T09:13:01.000Z</time>
      </trkpt>
      <trkpt lat="47.45645" lon="6.78527">
        <ele>350</ele>
        <time>2016-03-13T09:13:01.999Z</time>
      </trkpt>
      <trkpt lat="47.45642" lon="6.78532">
        <ele>350</ele>
        <time>2016-03-13T09:13:03.000Z</time>
      </trkpt>
      <trkpt lat="47.4564" lon="6.78537">
        <ele>350</ele>
        <time>2016-03-13T09:13:04.000Z</time>
      </trkpt>
      <trkpt lat="47.45636" lon="6.78541">
        <ele>349</ele>
        <time>2016-03-13T09:13:05.000Z</time>
      </trkpt>
      <trkpt lat="47.45634" lon="6.78546">
        <ele>349</ele>
        <time>2016-03-13T09:13:06.000Z</time>
      </trkpt>
      <trkpt lat="47.45632" lon="6.78552">
        <ele>349</ele>
        <time>2016-03-13T09:13:07.000Z</time>
      </trkpt>
      <trkpt lat="47.45629" lon="6.78555">
        <ele>349</ele>
        <time>2016-03-13T09:13:08.000Z</time>
      </trkpt>
      <trkpt lat="47.45626" lon="6.78559">
        <ele>349</ele>
        <time>2016-03-13T09:13:09.000Z</time>
      </trkpt>
      <trkpt lat="47.45623" lon="6.78563">
        <ele>349</ele>
        <time>2016-03-13T09:13:10.001Z</time>
      </trkpt>
      <trkpt lat="47.45621" lon="6.78567">
        <ele>349</ele>
        <time>2016-03-13T09:13:11.000Z</time>
      </trkpt>
      <trkpt lat="47.45618" lon="6.78571">
        <ele>349</ele>
        <time>2016-03-13T09:13:12.000Z</time>
      </trkpt>
      <trkpt lat="47.45616" lon="6.78575">
        <ele>349</ele>
        <time>2016-03-13T09:13:13.000Z</time>
      </trkpt>
      <trkpt lat="47.45615" lon="6.7858">
        <ele>348</ele>
        <time>2016-03-13T09:13:14.000Z</time>
      </trkpt>
      <trkpt lat="47.45613" lon="6.78584">
        <ele>346</ele>
        <time>2016-03-13T09:13:15.000Z</time>
      </trkpt>
      <trkpt lat="47.45612" lon="6.78589">
        <ele>346</ele>
        <time>2016-03-13T09:13:16.000Z</time>
      </trkpt>
      <trkpt lat="47.45611" lon="6.78593">
        <ele>346</ele>
        <time>2016-03-13T09:13:17.000Z</time>
      </trkpt>
      <trkpt lat="47.4561" lon="6.78599">
        <ele>346</ele>
        <time>2016-03-13T09:13:18.000Z</time>
      </trkpt>
      <trkpt lat="47.45608" lon="6.78603">
        <ele>346</ele>
        <time>2016-03-13T09:13:19.000Z</time>
      </trkpt>
      <trkpt lat="47.45606" lon="6.78608">
        <ele>345</ele>
        <time>2016-03-13T09:13:20.000Z</time>
      </trkpt>
      <trkpt lat="47.45603" lon="6.78612">
        <ele>345</ele>
        <time>2016-03-13T09:13:21.000Z</time>
      </trkpt>
      <trkpt lat="47.45598" lon="6.78616">
        <ele>345</ele>
        <time>2016-03-13T09:13:22.000Z</time>
      </trkpt>
      <trkpt lat="47.45594" lon="6.78621">
        <ele>345</ele>
        <time>2016-03-13T09:13:23.000Z</time>
      </trkpt>
      <trkpt lat="47.4559" lon="6.78626">
        <ele>345</ele>
        <time>2016-03-13T09:13:24.000Z</time>
      </trkpt>
      <trkpt lat="47.45586" lon="6.78632">
        <ele>344</ele>
        <time>2016-03-13T09:13:25.000Z</time>
      </trkpt>
      <trkpt lat="47.45583" lon="6.78638">
        <ele>342</ele>
        <time>2016-03-13T09:13:26.000Z</time>
      </trkpt>
      <trkpt lat="47.45579" lon="6.78643">
        <ele>342</ele>
        <time>2016-03-13T09:13:27.000Z</time>
      </trkpt>
      <trkpt lat="47.45576" lon="6.78648">
        <ele>342</ele>
        <time>2016-03-13T09:13:28.000Z</time>
      </trkpt>
      <trkpt lat="47.45572" lon="6.78653">
        <ele>342</ele>
        <time>2016-03-13T09:13:29.000Z</time>
      </trkpt>
      <trkpt lat="47.45568" lon="6.78658">
        <ele>341</ele>
        <time>2016-03-13T09:13:30.000Z</time>
      </trkpt>
      <trkpt lat="47.45564" lon="6.78661">
        <ele>341</ele>
        <time>2016-03-13T09:13:31.000Z</time>
      </trkpt>
      <trkpt lat="47.4556" lon="6.78665">
        <ele>341</ele>
        <time>2016-03-13T09:13:32.000Z</time>
      </trkpt>
      <trkpt lat="47.45557" lon="6.78664">
        <ele>341</ele>
        <time>2016-03-13T09:13:33.000Z</time>
      </trkpt>
      <trkpt lat="47.45553" lon="6.78669">
        <ele>339</ele>
        <time>2016-03-13T09:13:33.999Z</time>
      </trkpt>
      <trkpt lat="47.4555" lon="6.78674">
        <ele>338</ele>
        <time>2016-03-13T09:13:34.999Z</time>
      </trkpt>
      <trkpt lat="47.45548" lon="6.78677">
        <ele>338</ele>
        <time>2016-03-13T09:13:36.000Z</time>
      </trkpt>
      <trkpt lat="47.45545" lon="6.78682">
        <ele>338</ele>
        <time>2016-03-13T09:13:37.000Z</time>
      </trkpt>
      <trkpt lat="47.45542" lon="6.78686">
        <ele>338</ele>
        <time>2016-03-13T09:13:38.000Z</time>
      </trkpt>
      <trkpt lat="47.45537" lon="6.78691">
        <ele>338</ele>
        <time>2016-03-13T09:13:39.000Z</time>
      </trkpt>
      <trkpt lat="47.45533" lon="6.78693">
        <ele>338</ele>
        <time>2016-03-13T09:13:39.998Z</time>
      </trkpt>
      <trkpt lat="47.45531" lon="6.78699">
        <ele>337</ele>
        <time>2016-03-13T09:13:41.000Z</time>
      </trkpt>
      <trkpt lat="47.45528" lon="6.78704">
        <ele>337</ele>
        <time>2016-03-13T09:13:42.000Z</time>
      </trkpt>
      <trkpt lat="47.45525" lon="6.78707">
        <ele>337</ele>
        <time>2016-03-13T09:13:43.000Z</time>
      </trkpt>
      <trkpt lat="47.45522" lon="6.78713">
        <ele>337</ele>
        <time>2016-03-13T09:13:44.000Z</time>
      </trkpt>
      <trkpt lat="47.45519" lon="6.78717">
        <ele>337</ele>
        <time>2016-03-13T09:13:45.000Z</time>
      </trkpt>
      <trkpt lat="47.45516" lon="6.78721">
        <ele>337</ele>
        <time>2016-03-13T09:13:46.000Z</time>
      </trkpt>
      <trkpt lat="47.45513" lon="6.78725">
        <ele>337</ele>
        <time>2016-03-13T09:13:47.000Z</time>
      </trkpt>
      <trkpt lat="47.45509" lon="6.78728">
        <ele>336</ele>
        <time>2016-03-13T09:13:48.001Z</time>
      </trkpt>
      <trkpt lat="47.45506" lon="6.78732">
        <ele>336</ele>
        <time>2016-03-13T09:13:49.000Z</time>
      </trkpt>
      <trkpt lat="47.45503" lon="6.78735">
        <ele>336</ele>
        <time>2016-03-13T09:13:50.000Z</time>
      </trkpt>
      <trkpt lat="47.455" lon="6.78739">
        <ele>336</ele>
        <time>2016-03-13T09:13:51.000Z</time>
      </trkpt>
      <trkpt lat="47.45498" lon="6.78743">
        <ele>335</ele>
        <time>2016-03-13T09:13:52.000Z</time>
      </trkpt>
      <trkpt lat="47.45495" lon="6.78747">
        <ele>335</ele>
        <time>2016-03-13T09:13:53.000Z</time>
      </trkpt>
      <trkpt lat="47.45493" lon="6.7875">
        <ele>335</ele>
        <time>2016-03-13T09:13:54.000Z</time>
      </trkpt>
      <trkpt lat="47.45491" lon="6.78753">
        <ele>334</ele>
        <time>2016-03-13T09:13:55.000Z</time>
      </trkpt>
      <trkpt lat="47.4549" lon="6.78756">
        <ele>334</ele>
        <time>2016-03-13T09:13:56.000Z</time>
      </trkpt>
      <trkpt lat="47.45488" lon="6.7876">
        <ele>334</ele>
        <time>2016-03-13T09:13:57.000Z</time>
      </trkpt>
      <trkpt lat="47.45486" lon="6.78764">
        <ele>334</ele>
        <time>2016-03-13T09:13:58.000Z</time>
      </trkpt>
      <trkpt lat="47.45482" lon="6.78771">
        <ele>334</ele>
        <time>2016-03-13T09:13:59.000Z</time>
      </trkpt>
      <trkpt lat="47.45478" lon="6.78776">
        <ele>334</ele>
        <time>2016-03-13T09:14:00.000Z</time>
      </trkpt>
      <trkpt lat="47.45474" lon="6.78781">
        <ele>334</ele>
        <time>2016-03-13T09:14:01.000Z</time>
      </trkpt>
      <trkpt lat="47.45469" lon="6.78786">
        <ele>333</ele>
        <time>2016-03-13T09:14:02.000Z</time>
      </trkpt>
      <trkpt lat="47.45465" lon="6.7879">
        <ele>333</ele>
        <time>2016-03-13T09:14:03.000Z</time>
      </trkpt>
      <trkpt lat="47.4546" lon="6.78795">
        <ele>333</ele>
        <time>2016-03-13T09:14:04.000Z</time>
      </trkpt>
      <trkpt lat="47.45456" lon="6.78801">
        <ele>333</ele>
        <time>2016-03-13T09:14:05.000Z</time>
      </trkpt>
      <trkpt lat="47.45453" lon="6.78806">
        <ele>333</ele>
        <time>2016-03-13T09:14:06.000Z</time>
      </trkpt>
      <trkpt lat="47.45449" lon="6.78812">
        <ele>333</ele>
        <time>2016-03-13T09:14:07.000Z</time>
      </trkpt>
      <trkpt lat="47.45445" lon="6.78817">
        <ele>333</ele>
        <time>2016-03-13T09:14:08.000Z</time>
      </trkpt>
      <trkpt lat="47.45441" lon="6.78821">
        <ele>333</ele>
        <time>2016-03-13T09:14:09.000Z</time>
      </trkpt>
      <trkpt lat="47.45436" lon="6.78826">
        <ele>333</ele>
        <time>2016-03-13T09:14:10.000Z</time>
      </trkpt>
      <trkpt lat="47.45432" lon="6.7883">
        <ele>333</ele>
        <time>2016-03-13T09:14:11.000Z</time>
      </trkpt>
      <trkpt lat="47.45428" lon="6.78836">
        <ele>332</ele>
        <time>2016-03-13T09:14:12.000Z</time>
      </trkpt>
      <trkpt lat="47.45424" lon="6.7884">
        <ele>332</ele>
        <time>2016-03-13T09:14:13.000Z</time>
      </trkpt>
      <trkpt lat="47.4542" lon="6.78845">
        <ele>332</ele>
        <time>2016-03-13T09:14:14.000Z</time>
      </trkpt>
      <trkpt lat="47.45416" lon="6.7885">
        <ele>332</ele>
        <time>2016-03-13T09:14:15.000Z</time>
      </trkpt>
      <trkpt lat="47.45411" lon="6.78854">
        <ele>332</ele>
        <time>2016-03-13T09:14:16.000Z</time>
      </trkpt>
      <trkpt lat="47.45407" lon="6.78859">
        <ele>332</ele>
        <time>2016-03-13T09:14:17.000Z</time>
      </trkpt>
      <trkpt lat="47.45403" lon="6.78865">
        <ele>332</ele>
        <time>2016-03-13T09:14:18.000Z</time>
      </trkpt>
      <trkpt lat="47.454" lon="6.78869">
        <ele>332</ele>
        <time>2016-03-13T09:14:19.000Z</time>
      </trkpt>
      <trkpt lat="47.45396" lon="6.78874">
        <ele>332</ele>
        <time>2016-03-13T09:14:20.000Z</time>
      </trkpt>
      <trkpt lat="47.45392" lon="6.78877">
        <ele>332</ele>
        <time>2016-03-13T09:14:21.000Z</time>
      </trkpt>
      <trkpt lat="47.45388" lon="6.78877">
        <ele>332</ele>
        <time>2016-03-13T09:14:22.000Z</time>
      </trkpt>
      <trkpt lat="47.45385" lon="6.78881">
        <ele>332</ele>
        <time>2016-03-13T09:14:23.000Z</time>
      </trkpt>
      <trkpt lat="47.45382" lon="6.78884">
        <ele>332</ele>
        <time>2016-03-13T09:14:24.000Z</time>
      </trkpt>
      <trkpt lat="47.4538" lon="6.78888">
        <ele>332</ele>
        <time>2016-03-13T09:14:25.000Z</time>
      </trkpt>
      <trkpt lat="47.45378" lon="6.78893">
        <ele>332</ele>
        <time>2016-03-13T09:14:26.000Z</time>
      </trkpt>
      <trkpt lat="47.45376" lon="6.78899">
        <ele>332</ele>
        <time>2016-03-13T09:14:27.000Z</time>
      </trkpt>
      <trkpt lat="47.45372" lon="6.78903">
        <ele>332</ele>
        <time>2016-03-13T09:14:28.000Z</time>
      </trkpt>
      <trkpt lat="47.45369" lon="6.78907">
        <ele>332</ele>
        <time>2016-03-13T09:14:29.000Z</time>
      </trkpt>
      <trkpt lat="47.45366" lon="6.78911">
        <ele>332</ele>
        <time>2016-03-13T09:14:30.000Z</time>
      </trkpt>
      <trkpt lat="47.45363" lon="6.78914">
        <ele>332</ele>
        <time>2016-03-13T09:14:31.000Z</time>
      </trkpt>
      <trkpt lat="47.4536" lon="6.78917">
        <ele>331</ele>
        <time>2016-03-13T09:14:32.000Z</time>
      </trkpt>
      <trkpt lat="47.45357" lon="6.7892">
        <ele>331</ele>
        <time>2016-03-13T09:14:33.000Z</time>
      </trkpt>
      <trkpt lat="47.45354" lon="6.78923">
        <ele>331</ele>
        <time>2016-03-13T09:14:34.000Z</time>
      </trkpt>
      <trkpt lat="47.45351" lon="6.78927">
        <ele>331</ele>
        <time>2016-03-13T09:14:35.000Z</time>
      </trkpt>
      <trkpt lat="47.45349" lon="6.78931">
        <ele>331</ele>
        <time>2016-03-13T09:14:36.000Z</time>
      </trkpt>
      <trkpt lat="47.45347" lon="6.78934">
        <ele>331</ele>
        <time>2016-03-13T09:14:37.000Z</time>
      </trkpt>
      <trkpt lat="47.45345" lon="6.78937">
        <ele>331</ele>
        <time>2016-03-13T09:14:38.000Z</time>
      </trkpt>
      <trkpt lat="47.45343" lon="6.78941">
        <ele>331</ele>
        <time>2016-03-13T09:14:39.000Z</time>
      </trkpt>
      <trkpt lat="47.4534" lon="6.78944">
        <ele>331</ele>
        <time>2016-03-13T09:14:40.000Z</time>
      </trkpt>
      <trkpt lat="47.45338" lon="6.78947">
        <ele>331</ele>
        <time>2016-03-13T09:14:41.000Z</time>
      </trkpt>
      <trkpt lat="47.45336" lon="6.7895">
        <ele>331</ele>
        <time>2016-03-13T09:14:42.000Z</time>
      </trkpt>
      <trkpt lat="47.45334" lon="6.78952">
        <ele>331</ele>
        <time>2016-03-13T09:14:43.000Z</time>
      </trkpt>
      <trkpt lat="47.4533" lon="6.78953">
        <ele>331</ele>
        <time>2016-03-13T09:14:45.000Z</time>
      </trkpt>
      <trkpt lat="47.45329" lon="6.78952">
        <ele>331</ele>
        <time>2016-03-13T09:14:46.000Z</time>
      </trkpt>
      <trkpt lat="47.45325" lon="6.78953">
        <ele>331</ele>
        <time>2016-03-13T09:14:49.000Z</time>
      </trkpt>
      <trkpt lat="47.45324" lon="6.78954">
        <ele>331</ele>
        <time>2016-03-13T09:14:50.000Z</time>
      </trkpt>
      <trkpt lat="47.4532" lon="6.78958">
        <ele>331</ele>
        <time>2016-03-13T09:14:53.000Z</time>
      </trkpt>
      <trkpt lat="47.45319" lon="6.7896">
        <ele>331</ele>
        <time>2016-03-13T09:14:54.000Z</time>
      </trkpt>
      <trkpt lat="47.45317" lon="6.78963">
        <ele>331</ele>
        <time>2016-03-13T09:14:56.000Z</time>
      </trkpt>
      <trkpt lat="47.45316" lon="6.78965">
        <ele>331</ele>
        <time>2016-03-13T09:14:57.000Z</time>
      </trkpt>
      <trkpt lat="47.45313" lon="6.78969">
        <ele>331</ele>
        <time>2016-03-13T09:14:59.000Z</time>
      </trkpt>
      <trkpt lat="47.45312" lon="6.78971">
        <ele>331</ele>
        <time>2016-03-13T09:15:00.000Z</time>
      </trkpt>
      <trkpt lat="47.45309" lon="6.78975">
        <ele>331</ele>
        <time>2016-03-13T09:15:03.000Z</time>
      </trkpt>
      <trkpt lat="47.45308" lon="6.78976">
        <ele>331</ele>
        <time>2016-03-13T09:15:04.000Z</time>
      </trkpt>
      <trkpt lat="47.45306" lon="6.7898">
        <ele>331</ele>
        <time>2016-03-13T09:15:06.000Z</time>
      </trkpt>
      <trkpt lat="47.45304" lon="6.78983">
        <ele>331</ele>
        <time>2016-03-13T09:15:07.000Z</time>
      </trkpt>
      <trkpt lat="47.45303" lon="6.78986">
        <ele>331</ele>
        <time>2016-03-13T09:15:08.000Z</time>
      </trkpt>
      <trkpt lat="47.45301" lon="6.78989">
        <ele>331</ele>
        <time>2016-03-13T09:15:09.000Z</time>
      </trkpt>
      <trkpt lat="47.45299" lon="6.78992">
        <ele>331</ele>
        <time>2016-03-13T09:15:10.000Z</time>
      </trkpt>
      <trkpt lat="47.45297" lon="6.78994">
        <ele>331</ele>
        <time>2016-03-13T09:15:11.000Z</time>
      </trkpt>
      <trkpt lat="47.45295" lon="6.78997">
        <ele>331</ele>
        <time>2016-03-13T09:15:12.000Z</time>
      </trkpt>
      <trkpt lat="47.45294" lon="6.78999">
        <ele>331</ele>
        <time>2016-03-13T09:15:13.000Z</time>
      </trkpt>
      <trkpt lat="47.45292" lon="6.79001">
        <ele>331</ele>
        <time>2016-03-13T09:15:14.000Z</time>
      </trkpt>
      <trkpt lat="47.45289" lon="6.79004">
        <ele>331</ele>
        <time>2016-03-13T09:15:15.000Z</time>
      </trkpt>
      <trkpt lat="47.45287" lon="6.79007">
        <ele>331</ele>
        <time>2016-03-13T09:15:16.000Z</time>
      </trkpt>
      <trkpt lat="47.45285" lon="6.79011">
        <ele>331</ele>
        <time>2016-03-13T09:15:17.000Z</time>
      </trkpt>
      <trkpt lat="47.45282" lon="6.79015">
        <ele>331</ele>
        <time>2016-03-13T09:15:18.000Z</time>
      </trkpt>
      <trkpt lat="47.4528" lon="6.7902">
        <ele>331</ele>
        <time>2016-03-13T09:15:19.000Z</time>
      </trkpt>
      <trkpt lat="47.45278" lon="6.79024">
        <ele>331</ele>
        <time>2016-03-13T09:15:20.000Z</time>
      </trkpt>
      <trkpt lat="47.45276" lon="6.79028">
        <ele>331</ele>
        <time>2016-03-13T09:15:21.000Z</time>
      </trkpt>
      <trkpt lat="47.45275" lon="6.79032">
        <ele>331</ele>
        <time>2016-03-13T09:15:22.000Z</time>
      </trkpt>
      <trkpt lat="47.45273" lon="6.79036">
        <ele>331</ele>
        <time>2016-03-13T09:15:23.000Z</time>
      </trkpt>
      <trkpt lat="47.45272" lon="6.7904">
        <ele>331</ele>
        <time>2016-03-13T09:15:24.000Z</time>
      </trkpt>
      <trkpt lat="47.45271" lon="6.79045">
        <ele>331</ele>
        <time>2016-03-13T09:15:25.000Z</time>
      </trkpt>
      <trkpt lat="47.4527" lon="6.79049">
        <ele>331</ele>
        <time>2016-03-13T09:15:26.000Z</time>
      </trkpt>
      <trkpt lat="47.45269" lon="6.79054">
        <ele>331</ele>
        <time>2016-03-13T09:15:27.000Z</time>
      </trkpt>
      <trkpt lat="47.45269" lon="6.79057">
        <ele>331</ele>
        <time>2016-03-13T09:15:28.000Z</time>
      </trkpt>
      <trkpt lat="47.45268" lon="6.79061">
        <ele>332</ele>
        <time>2016-03-13T09:15:29.000Z</time>
      </trkpt>
      <trkpt lat="47.45267" lon="6.79065">
        <ele>332</ele>
        <time>2016-03-13T09:15:30.000Z</time>
      </trkpt>
      <trkpt lat="47.45265" lon="6.79069">
        <ele>332</ele>
        <time>2016-03-13T09:15:31.000Z</time>
      </trkpt>
      <trkpt lat="47.45264" lon="6.79073">
        <ele>332</ele>
        <time>2016-03-13T09:15:32.000Z</time>
      </trkpt>
      <trkpt lat="47.45262" lon="6.79077">
        <ele>332</ele>
        <time>2016-03-13T09:15:33.000Z</time>
      </trkpt>
      <trkpt lat="47.45261" lon="6.79081">
        <ele>332</ele>
        <time>2016-03-13T09:15:34.000Z</time>
      </trkpt>
      <trkpt lat="47.45259" lon="6.79085">
        <ele>332</ele>
        <time>2016-03-13T09:15:35.000Z</time>
      </trkpt>
      <trkpt lat="47.45258" lon="6.7909">
        <ele>332</ele>
        <time>2016-03-13T09:15:36.000Z</time>
      </trkpt>
      <trkpt lat="47.45256" lon="6.79095">
        <ele>332</ele>
        <time>2016-03-13T09:15:37.000Z</time>
      </trkpt>
      <trkpt lat="47.45254" lon="6.791">
        <ele>332</ele>
        <time>2016-03-13T09:15:38.000Z</time>
      </trkpt>
      <trkpt lat="47.45253" lon="6.79104">
        <ele>332</ele>
        <time>2016-03-13T09:15:39.000Z</time>
      </trkpt>
      <trkpt lat="47.45251" lon="6.79109">
        <ele>332</ele>
        <time>2016-03-13T09:15:40.000Z</time>
      </trkpt>
      <trkpt lat="47.45249" lon="6.79113">
        <ele>333</ele>
        <time>2016-03-13T09:15:41.000Z</time>
      </trkpt>
      <trkpt lat="47.45248" lon="6.79118">
        <ele>333</ele>
        <time>2016-03-13T09:15:42.000Z</time>
      </trkpt>
      <trkpt lat="47.45246" lon="6.79122">
        <ele>333</ele>
        <time>2016-03-13T09:15:42.999Z</time>
      </trkpt>
      <trkpt lat="47.45243" lon="6.79124">
        <ele>333</ele>
        <time>2016-03-13T09:15:44.000Z</time>
      </trkpt>
      <trkpt lat="47.4524" lon="6.79127">
        <ele>333</ele>
        <time>2016-03-13T09:15:45.000Z</time>
      </trkpt>
      <trkpt lat="47.45236" lon="6.79129">
        <ele>333</ele>
        <time>2016-03-13T09:15:46.000Z</time>
      </trkpt>
      <trkpt lat="47.45233" lon="6.7913">
        <ele>333</ele>
        <time>2016-03-13T09:15:47.000Z</time>
      </trkpt>
      <trkpt lat="47.45229" lon="6.79131">
        <ele>333</ele>
        <time>2016-03-13T09:15:48.000Z</time>
      </trkpt>
      <trkpt lat="47.45226" lon="6.79132">
        <ele>333</ele>
        <time>2016-03-13T09:15:49.000Z</time>
      </trkpt>
      <trkpt lat="47.45223" lon="6.79134">
        <ele>333</ele>
        <time>2016-03-13T09:15:50.000Z</time>
      </trkpt>
      <trkpt lat="47.45221" lon="6.79137">
        <ele>333</ele>
        <time>2016-03-13T09:15:51.000Z</time>
      </trkpt>
      <trkpt lat="47.45219" lon="6.79141">
        <ele>333</ele>
        <time>2016-03-13T09:15:52.000Z</time>
      </trkpt>
      <trkpt lat="47.45218" lon="6.79146">
        <ele>333</ele>
        <time>2016-03-13T09:15:53.000Z</time>
      </trkpt>
      <trkpt lat="47.45216" lon="6.79151">
        <ele>333</ele>
        <time>2016-03-13T09:15:54.000Z</time>
      </trkpt>
      <trkpt lat="47.45215" lon="6.79157">
        <ele>333</ele>
        <time>2016-03-13T09:15:55.000Z</time>
      </trkpt>
      <trkpt lat="47.45214" lon="6.79162">
        <ele>333</ele>
        <time>2016-03-13T09:15:56.000Z</time>
      </trkpt>
      <trkpt lat="47.45212" lon="6.79167">
        <ele>333</ele>
        <time>2016-03-13T09:15:57.000Z</time>
      </trkpt>
      <trkpt lat="47.4521" lon="6.79173">
        <ele>333</ele>
        <time>2016-03-13T09:15:58.000Z</time>
      </trkpt>
      <trkpt lat="47.45207" lon="6.79178">
        <ele>334</ele>
        <time>2016-03-13T09:15:59.000Z</time>
      </trkpt>
      <trkpt lat="47.45204" lon="6.79186">
        <ele>334</ele>
        <time>2016-03-13T09:16:00.000Z</time>
      </trkpt>
      <trkpt lat="47.45202" lon="6.79192">
        <ele>334</ele>
        <time>2016-03-13T09:16:01.000Z</time>
      </trkpt>
      <trkpt lat="47.45201" lon="6.792">
        <ele>334</ele>
        <time>2016-03-13T09:16:02.000Z</time>
      </trkpt>
      <trkpt lat="47.452" lon="6.79205">
        <ele>334</ele>
        <time>2016-03-13T09:16:03.000Z</time>
      </trkpt>
      <trkpt lat="47.45198" lon="6.79211">
        <ele>334</ele>
        <time>2016-03-13T09:16:04.000Z</time>
      </trkpt>
      <trkpt lat="47.45196" lon="6.79217">
        <ele>334</ele>
        <time>2016-03-13T09:16:05.000Z</time>
      </trkpt>
      <trkpt lat="47.45194" lon="6.79223">
        <ele>334</ele>
        <time>2016-03-13T09:16:06.000Z</time>
      </trkpt>
      <trkpt lat="47.45192" lon="6.79228">
        <ele>334</ele>
        <time>2016-03-13T09:16:07.000Z</time>
      </trkpt>
      <trkpt lat="47.45189" lon="6.79233">
        <ele>334</ele>
        <time>2016-03-13T09:16:08.000Z</time>
      </trkpt>
      <trkpt lat="47.45188" lon="6.79239">
        <ele>335</ele>
        <time>2016-03-13T09:16:09.000Z</time>
      </trkpt>
      <trkpt lat="47.45186" lon="6.79245">
        <ele>335</ele>
        <time>2016-03-13T09:16:10.000Z</time>
      </trkpt>
      <trkpt lat="47.45184" lon="6.79251">
        <ele>335</ele>
        <time>2016-03-13T09:16:11.000Z</time>
      </trkpt>
      <trkpt lat="47.45183" lon="6.79256">
        <ele>335</ele>
        <time>2016-03-13T09:16:12.000Z</time>
      </trkpt>
      <trkpt lat="47.45182" lon="6.79263">
        <ele>335</ele>
        <time>2016-03-13T09:16:13.000Z</time>
      </trkpt>
      <trkpt lat="47.45181" lon="6.79269">
        <ele>335</ele>
        <time>2016-03-13T09:16:14.000Z</time>
      </trkpt>
      <trkpt lat="47.4518" lon="6.79276">
        <ele>335</ele>
        <time>2016-03-13T09:16:15.000Z</time>
      </trkpt>
      <trkpt lat="47.45179" lon="6.79283">
        <ele>335</ele>
        <time>2016-03-13T09:16:16.000Z</time>
      </trkpt>
      <trkpt lat="47.45178" lon="6.79289">
        <ele>335</ele>
        <time>2016-03-13T09:16:17.000Z</time>
      </trkpt>
      <trkpt lat="47.45174" lon="6.79296">
        <ele>334</ele>
        <time>2016-03-13T09:16:18.000Z</time>
      </trkpt>
      <trkpt lat="47.45172" lon="6.79302">
        <ele>334</ele>
        <time>2016-03-13T09:16:19.000Z</time>
      </trkpt>
      <trkpt lat="47.45171" lon="6.79309">
        <ele>335</ele>
        <time>2016-03-13T09:16:20.000Z</time>
      </trkpt>
      <trkpt lat="47.45169" lon="6.79316">
        <ele>335</ele>
        <time>2016-03-13T09:16:21.000Z</time>
      </trkpt>
      <trkpt lat="47.45168" lon="6.79323">
        <ele>335</ele>
        <time>2016-03-13T09:16:22.000Z</time>
      </trkpt>
      <trkpt lat="47.45166" lon="6.79329">
        <ele>335</ele>
        <time>2016-03-13T09:16:23.000Z</time>
      </trkpt>
      <trkpt lat="47.45164" lon="6.79335">
        <ele>335</ele>
        <time>2016-03-13T09:16:24.000Z</time>
      </trkpt>
      <trkpt lat="47.45163" lon="6.79341">
        <ele>335</ele>
        <time>2016-03-13T09:16:25.000Z</time>
      </trkpt>
      <trkpt lat="47.45162" lon="6.79347">
        <ele>334</ele>
        <time>2016-03-13T09:16:26.000Z</time>
      </trkpt>
      <trkpt lat="47.45161" lon="6.79353">
        <ele>334</ele>
        <time>2016-03-13T09:16:27.000Z</time>
      </trkpt>
      <trkpt lat="47.45159" lon="6.79359">
        <ele>334</ele>
        <time>2016-03-13T09:16:28.000Z</time>
      </trkpt>
      <trkpt lat="47.45158" lon="6.79365">
        <ele>334</ele>
        <time>2016-03-13T09:16:29.000Z</time>
      </trkpt>
      <trkpt lat="47.45156" lon="6.7937">
        <ele>334</ele>
        <time>2016-03-13T09:16:30.000Z</time>
      </trkpt>
      <trkpt lat="47.45155" lon="6.79377">
        <ele>334</ele>
        <time>2016-03-13T09:16:31.000Z</time>
      </trkpt>
      <trkpt lat="47.45154" lon="6.79383">
        <ele>334</ele>
        <time>2016-03-13T09:16:32.000Z</time>
      </trkpt>
      <trkpt lat="47.45153" lon="6.7939">
        <ele>334</ele>
        <time>2016-03-13T09:16:33.000Z</time>
      </trkpt>
      <trkpt lat="47.45151" lon="6.79397">
        <ele>334</ele>
        <time>2016-03-13T09:16:34.000Z</time>
      </trkpt>
      <trkpt lat="47.4515" lon="6.79404">
        <ele>333</ele>
        <time>2016-03-13T09:16:35.000Z</time>
      </trkpt>
      <trkpt lat="47.45149" lon="6.79409">
        <ele>333</ele>
        <time>2016-03-13T09:16:36.000Z</time>
      </trkpt>
      <trkpt lat="47.45147" lon="6.79417">
        <ele>333</ele>
        <time>2016-03-13T09:16:37.000Z</time>
      </trkpt>
      <trkpt lat="47.45146" lon="6.79424">
        <ele>333</ele>
        <time>2016-03-13T09:16:38.000Z</time>
      </trkpt>
      <trkpt lat="47.45145" lon="6.79429">
        <ele>333</ele>
        <time>2016-03-13T09:16:39.000Z</time>
      </trkpt>
      <trkpt lat="47.45143" lon="6.79435">
        <ele>333</ele>
        <time>2016-03-13T09:16:40.000Z</time>
      </trkpt>
      <trkpt lat="47.45142" lon="6.79441">
        <ele>333</ele>
        <time>2016-03-13T09:16:41.000Z</time>
      </trkpt>
      <trkpt lat="47.4514" lon="6.79447">
        <ele>333</ele>
        <time>2016-03-13T09:16:42.000Z</time>
      </trkpt>
      <trkpt lat="47.45139" lon="6.79452">
        <ele>333</ele>
        <time>2016-03-13T09:16:43.000Z</time>
      </trkpt>
      <trkpt lat="47.45138" lon="6.79458">
        <ele>333</ele>
        <time>2016-03-13T09:16:44.000Z</time>
      </trkpt>
      <trkpt lat="47.45137" lon="6.79464">
        <ele>333</ele>
        <time>2016-03-13T09:16:45.000Z</time>
      </trkpt>
      <trkpt lat="47.45136" lon="6.79471">
        <ele>333</ele>
        <time>2016-03-13T09:16:46.000Z</time>
      </trkpt>
      <trkpt lat="47.45134" lon="6.79477">
        <ele>333</ele>
        <time>2016-03-13T09:16:47.000Z</time>
      </trkpt>
      <trkpt lat="47.45133" lon="6.79483">
        <ele>333</ele>
        <time>2016-03-13T09:16:48.000Z</time>
      </trkpt>
      <trkpt lat="47.45131" lon="6.7949">
        <ele>333</ele>
        <time>2016-03-13T09:16:49.000Z</time>
      </trkpt>
      <trkpt lat="47.4513" lon="6.79496">
        <ele>333</ele>
        <time>2016-03-13T09:16:50.000Z</time>
      </trkpt>
      <trkpt lat="47.45129" lon="6.79502">
        <ele>333</ele>
        <time>2016-03-13T09:16:51.000Z</time>
      </trkpt>
      <trkpt lat="47.45128" lon="6.79509">
        <ele>333</ele>
        <time>2016-03-13T09:16:52.000Z</time>
      </trkpt>
      <trkpt lat="47.45126" lon="6.79514">
        <ele>333</ele>
        <time>2016-03-13T09:16:53.000Z</time>
      </trkpt>
      <trkpt lat="47.45125" lon="6.7952">
        <ele>333</ele>
        <time>2016-03-13T09:16:54.000Z</time>
      </trkpt>
      <trkpt lat="47.45123" lon="6.79525">
        <ele>333</ele>
        <time>2016-03-13T09:16:55.000Z</time>
      </trkpt>
      <trkpt lat="47.4512" lon="6.79531">
        <ele>333</ele>
        <time>2016-03-13T09:16:56.000Z</time>
      </trkpt>
      <trkpt lat="47.45116" lon="6.79536">
        <ele>333</ele>
        <time>2016-03-13T09:16:57.000Z</time>
      </trkpt>
      <trkpt lat="47.45113" lon="6.79541">
        <ele>333</ele>
        <time>2016-03-13T09:16:58.000Z</time>
      </trkpt>
      <trkpt lat="47.45109" lon="6.79547">
        <ele>333</ele>
        <time>2016-03-13T09:16:59.000Z</time>
      </trkpt>
      <trkpt lat="47.45106" lon="6.79551">
        <ele>333</ele>
        <time>2016-03-13T09:17:00.000Z</time>
      </trkpt>
      <trkpt lat="47.45102" lon="6.79556">
        <ele>333</ele>
        <time>2016-03-13T09:17:01.000Z</time>
      </trkpt>
      <trkpt lat="47.45099" lon="6.79561">
        <ele>333</ele>
        <time>2016-03-13T09:17:02.000Z</time>
      </trkpt>
      <trkpt lat="47.45096" lon="6.79564">
        <ele>333</ele>
        <time>2016-03-13T09:17:03.000Z</time>
      </trkpt>
      <trkpt lat="47.45093" lon="6.79568">
        <ele>333</ele>
        <time>2016-03-13T09:17:04.000Z</time>
      </trkpt>
      <trkpt lat="47.4509" lon="6.79571">
        <ele>333</ele>
        <time>2016-03-13T09:17:05.000Z</time>
      </trkpt>
      <trkpt lat="47.45087" lon="6.79575">
        <ele>333</ele>
        <time>2016-03-13T09:17:06.000Z</time>
      </trkpt>
      <trkpt lat="47.45085" lon="6.7958">
        <ele>333</ele>
        <time>2016-03-13T09:17:07.000Z</time>
      </trkpt>
      <trkpt lat="47.45082" lon="6.79584">
        <ele>333</ele>
        <time>2016-03-13T09:17:08.000Z</time>
      </trkpt>
      <trkpt lat="47.4508" lon="6.79588">
        <ele>333</ele>
        <time>2016-03-13T09:17:09.000Z</time>
      </trkpt>
      <trkpt lat="47.45077" lon="6.79592">
        <ele>333</ele>
        <time>2016-03-13T09:17:10.000Z</time>
      </trkpt>
      <trkpt lat="47.45075" lon="6.79596">
        <ele>334</ele>
        <time>2016-03-13T09:17:11.000Z</time>
      </trkpt>
      <trkpt lat="47.45072" lon="6.79599">
        <ele>334</ele>
        <time>2016-03-13T09:17:12.000Z</time>
      </trkpt>
      <trkpt lat="47.4507" lon="6.79603">
        <ele>334</ele>
        <time>2016-03-13T09:17:13.000Z</time>
      </trkpt>
      <trkpt lat="47.45067" lon="6.79606">
        <ele>334</ele>
        <time>2016-03-13T09:17:14.000Z</time>
      </trkpt>
      <trkpt lat="47.45064" lon="6.7961">
        <ele>334</ele>
        <time>2016-03-13T09:17:15.000Z</time>
      </trkpt>
      <trkpt lat="47.45062" lon="6.79613">
        <ele>334</ele>
        <time>2016-03-13T09:17:16.000Z</time>
      </trkpt>
      <trkpt lat="47.45059" lon="6.79616">
        <ele>334</ele>
        <time>2016-03-13T09:17:17.000Z</time>
      </trkpt>
      <trkpt lat="47.45056" lon="6.79619">
        <ele>334</ele>
        <time>2016-03-13T09:17:18.000Z</time>
      </trkpt>
      <trkpt lat="47.45054" lon="6.79622">
        <ele>334</ele>
        <time>2016-03-13T09:17:19.000Z</time>
      </trkpt>
      <trkpt lat="47.45053" lon="6.79624">
        <ele>334</ele>
        <time>2016-03-13T09:17:20.000Z</time>
      </trkpt>
      <trkpt lat="47.45051" lon="6.79627">
        <ele>334</ele>
        <time>2016-03-13T09:17:21.000Z</time>
      </trkpt>
      <trkpt lat="47.45051" lon="6.79631">
        <ele>335</ele>
        <time>2016-03-13T09:17:22.000Z</time>
      </trkpt>
      <trkpt lat="47.4505" lon="6.79634">
        <ele>335</ele>
        <time>2016-03-13T09:17:23.000Z</time>
      </trkpt>
      <trkpt lat="47.4505" lon="6.79637">
        <ele>335</ele>
        <time>2016-03-13T09:17:24.000Z</time>
      </trkpt>
      <trkpt lat="47.4505" lon="6.79641">
        <ele>335</ele>
        <time>2016-03-13T09:17:25.000Z</time>
      </trkpt>
      <trkpt lat="47.45048" lon="6.79644">
        <ele>335</ele>
        <time>2016-03-13T09:17:26.000Z</time>
      </trkpt>
      <trkpt lat="47.45047" lon="6.79647">
        <ele>335</ele>
        <time>2016-03-13T09:17:27.000Z</time>
      </trkpt>
      <trkpt lat="47.45045" lon="6.79651">
        <ele>335</ele>
        <time>2016-03-13T09:17:28.000Z</time>
      </trkpt>
      <trkpt lat="47.45044" lon="6.79654">
        <ele>335</ele>
        <time>2016-03-13T09:17:29.000Z</time>
      </trkpt>
      <trkpt lat="47.45042" lon="6.79658">
        <ele>335</ele>
        <time>2016-03-13T09:17:30.000Z</time>
      </trkpt>
      <trkpt lat="47.45041" lon="6.79662">
        <ele>335</ele>
        <time>2016-03-13T09:17:31.000Z</time>
      </trkpt>
      <trkpt lat="47.4504" lon="6.79666">
        <ele>335</ele>
        <time>2016-03-13T09:17:32.000Z</time>
      </trkpt>
      <trkpt lat="47.45039" lon="6.7967">
        <ele>338</ele>
        <time>2016-03-13T09:17:33.000Z</time>
      </trkpt>
      <trkpt lat="47.45038" lon="6.79674">
        <ele>338</ele>
        <time>2016-03-13T09:17:34.000Z</time>
      </trkpt>
      <trkpt lat="47.45038" lon="6.79678">
        <ele>338</ele>
        <time>2016-03-13T09:17:35.000Z</time>
      </trkpt>
      <trkpt lat="47.45038" lon="6.79683">
        <ele>338</ele>
        <time>2016-03-13T09:17:36.000Z</time>
      </trkpt>
      <trkpt lat="47.45038" lon="6.79687">
        <ele>338</ele>
        <time>2016-03-13T09:17:37.000Z</time>
      </trkpt>
      <trkpt lat="47.45037" lon="6.79692">
        <ele>339</ele>
        <time>2016-03-13T09:17:38.000Z</time>
      </trkpt>
      <trkpt lat="47.45037" lon="6.79696">
        <ele>339</ele>
        <time>2016-03-13T09:17:39.000Z</time>
      </trkpt>
      <trkpt lat="47.45037" lon="6.797">
        <ele>339</ele>
        <time>2016-03-13T09:17:40.000Z</time>
      </trkpt>
      <trkpt lat="47.45036" lon="6.79706">
        <ele>339</ele>
        <time>2016-03-13T09:17:42.000Z</time>
      </trkpt>
      <trkpt lat="47.45036" lon="6.79708">
        <ele>339</ele>
        <time>2016-03-13T09:17:43.000Z</time>
      </trkpt>
      <trkpt lat="47.45035" lon="6.79713">
        <ele>339</ele>
        <time>2016-03-13T09:17:46.000Z</time>
      </trkpt>
      <trkpt lat="47.45034" lon="6.79715">
        <ele>339</ele>
        <time>2016-03-13T09:17:47.000Z</time>
      </trkpt>
      <trkpt lat="47.45031" lon="6.79719">
        <ele>340</ele>
        <time>2016-03-13T09:17:51.000Z</time>
      </trkpt>
      <trkpt lat="47.45031" lon="6.7972">
        <ele>340</ele>
        <time>2016-03-13T09:17:52.000Z</time>
      </trkpt>
      <trkpt lat="47.45027" lon="6.79718">
        <ele>340</ele>
        <time>2016-03-13T09:17:56.000Z</time>
      </trkpt>
      <trkpt lat="47.45026" lon="6.79717">
        <ele>340</ele>
        <time>2016-03-13T09:17:57.000Z</time>
      </trkpt>
      <trkpt lat="47.45023" lon="6.79713">
        <ele>340</ele>
        <time>2016-03-13T09:18:00.000Z</time>
      </trkpt>
      <trkpt lat="47.45022" lon="6.79712">
        <ele>340</ele>
        <time>2016-03-13T09:18:01.000Z</time>
      </trkpt>
      <trkpt lat="47.4502" lon="6.79707">
        <ele>339</ele>
        <time>2016-03-13T09:18:04.000Z</time>
      </trkpt>
      <trkpt lat="47.4502" lon="6.79706">
        <ele>339</ele>
        <time>2016-03-13T09:18:05.000Z</time>
      </trkpt>
      <trkpt lat="47.45018" lon="6.79701">
        <ele>339</ele>
        <time>2016-03-13T09:18:09.000Z</time>
      </trkpt>
      <trkpt lat="47.45017" lon="6.797">
        <ele>339</ele>
        <time>2016-03-13T09:18:10.000Z</time>
      </trkpt>
      <trkpt lat="47.45013" lon="6.79698">
        <ele>339</ele>
        <time>2016-03-13T09:18:14.000Z</time>
      </trkpt>
      <trkpt lat="47.45012" lon="6.79697">
        <ele>339</ele>
        <time>2016-03-13T09:18:15.000Z</time>
      </trkpt>
      <trkpt lat="47.45009" lon="6.79695">
        <ele>339</ele>
        <time>2016-03-13T09:18:18.000Z</time>
      </trkpt>
      <trkpt lat="47.45008" lon="6.79694">
        <ele>339</ele>
        <time>2016-03-13T09:18:19.000Z</time>
      </trkpt>
      <trkpt lat="47.45004" lon="6.79693">
        <ele>339</ele>
        <time>2016-03-13T09:18:23.000Z</time>
      </trkpt>
      <trkpt lat="47.45003" lon="6.79693">
        <ele>339</ele>
        <time>2016-03-13T09:18:24.000Z</time>
      </trkpt>
      <trkpt lat="47.44999" lon="6.7969">
        <ele>341</ele>
        <time>2016-03-13T09:18:27.000Z</time>
      </trkpt>
      <trkpt lat="47.44998" lon="6.79688">
        <ele>341</ele>
        <time>2016-03-13T09:18:28.000Z</time>
      </trkpt>
      <trkpt lat="47.44995" lon="6.79686">
        <ele>341</ele>
        <time>2016-03-13T09:18:31.000Z</time>
      </trkpt>
      <trkpt lat="47.44994" lon="6.79686">
        <ele>341</ele>
        <time>2016-03-13T09:18:32.000Z</time>
      </trkpt>
      <trkpt lat="47.4499" lon="6.79684">
        <ele>341</ele>
        <time>2016-03-13T09:18:35.000Z</time>
      </trkpt>
      <trkpt lat="47.44988" lon="6.79684">
        <ele>341</ele>
        <time>2016-03-13T09:18:36.000Z</time>
      </trkpt>
      <trkpt lat="47.44985" lon="6.79683">
        <ele>341</ele>
        <time>2016-03-13T09:18:38.000Z</time>
      </trkpt>
      <trkpt lat="47.44983" lon="6.79683">
        <ele>341</ele>
        <time>2016-03-13T09:18:39.000Z</time>
      </trkpt>
      <trkpt lat="47.4498" lon="6.79683">
        <ele>341</ele>
        <time>2016-03-13T09:18:41.000Z</time>
      </trkpt>
      <trkpt lat="47.44978" lon="6.79684">
        <ele>342</ele>
        <time>2016-03-13T09:18:42.000Z</time>
      </trkpt>
      <trkpt lat="47.44975" lon="6.79684">
        <ele>342</ele>
        <time>2016-03-13T09:18:44.000Z</time>
      </trkpt>
      <trkpt lat="47.44973" lon="6.79685">
        <ele>342</ele>
        <time>2016-03-13T09:18:45.000Z</time>
      </trkpt>
      <trkpt lat="47.4497" lon="6.79686">
        <ele>342</ele>
        <time>2016-03-13T09:18:47.000Z</time>
      </trkpt>
      <trkpt lat="47.44968" lon="6.79687">
        <ele>342</ele>
        <time>2016-03-13T09:18:48.000Z</time>
      </trkpt>
      <trkpt lat="47.44965" lon="6.7969">
        <ele>343</ele>
        <time>2016-03-13T09:18:50.000Z</time>
      </trkpt>
      <trkpt lat="47.44964" lon="6.79692">
        <ele>343</ele>
        <time>2016-03-13T09:18:51.000Z</time>
      </trkpt>
      <trkpt lat="47.44961" lon="6.79696">
        <ele>343</ele>
        <time>2016-03-13T09:18:53.000Z</time>
      </trkpt>
      <trkpt lat="47.4496" lon="6.79698">
        <ele>343</ele>
        <time>2016-03-13T09:18:54.000Z</time>
      </trkpt>
      <trkpt lat="47.44958" lon="6.79702">
        <ele>343</ele>
        <time>2016-03-13T09:18:56.000Z</time>
      </trkpt>
      <trkpt lat="47.44956" lon="6.79704">
        <ele>344</ele>
        <time>2016-03-13T09:18:57.000Z</time>
      </trkpt>
      <trkpt lat="47.44954" lon="6.79707">
        <ele>344</ele>
        <time>2016-03-13T09:18:59.000Z</time>
      </trkpt>
      <trkpt lat="47.44952" lon="6.79709">
        <ele>344</ele>
        <time>2016-03-13T09:19:00.000Z</time>
      </trkpt>
      <trkpt lat="47.44949" lon="6.79712">
        <ele>344</ele>
        <time>2016-03-13T09:19:02.000Z</time>
      </trkpt>
      <trkpt lat="47.44947" lon="6.79714">
        <ele>344</ele>
        <time>2016-03-13T09:19:03.000Z</time>
      </trkpt>
      <trkpt lat="47.44943" lon="6.79718">
        <ele>345</ele>
        <time>2016-03-13T09:19:05.000Z</time>
      </trkpt>
      <trkpt lat="47.44942" lon="6.79719">
        <ele>345</ele>
        <time>2016-03-13T09:19:06.000Z</time>
      </trkpt>
      <trkpt lat="47.44938" lon="6.79722">
        <ele>345</ele>
        <time>2016-03-13T09:19:08.000Z</time>
      </trkpt>
      <trkpt lat="47.44936" lon="6.79722">
        <ele>345</ele>
        <time>2016-03-13T09:19:09.000Z</time>
      </trkpt>
      <trkpt lat="47.44931" lon="6.79723">
        <ele>346</ele>
        <time>2016-03-13T09:19:11.000Z</time>
      </trkpt>
      <trkpt lat="47.44929" lon="6.79724">
        <ele>346</ele>
        <time>2016-03-13T09:19:12.000Z</time>
      </trkpt>
      <trkpt lat="47.44927" lon="6.79725">
        <ele>346</ele>
        <time>2016-03-13T09:19:13.000Z</time>
      </trkpt>
      <trkpt lat="47.44924" lon="6.79725">
        <ele>346</ele>
        <time>2016-03-13T09:19:14.000Z</time>
      </trkpt>
      <trkpt lat="47.44922" lon="6.79727">
        <ele>346</ele>
        <time>2016-03-13T09:19:15.000Z</time>
      </trkpt>
      <trkpt lat="47.4492" lon="6.79728">
        <ele>346</ele>
        <time>2016-03-13T09:19:16.000Z</time>
      </trkpt>
      <trkpt lat="47.44918" lon="6.7973">
        <ele>347</ele>
        <time>2016-03-13T09:19:17.000Z</time>
      </trkpt>
      <trkpt lat="47.44916" lon="6.79732">
        <ele>348</ele>
        <time>2016-03-13T09:19:18.000Z</time>
      </trkpt>
      <trkpt lat="47.44912" lon="6.79735">
        <ele>348</ele>
        <time>2016-03-13T09:19:20.000Z</time>
      </trkpt>
      <trkpt lat="47.4491" lon="6.79736">
        <ele>348</ele>
        <time>2016-03-13T09:19:21.000Z</time>
      </trkpt>
      <trkpt lat="47.44906" lon="6.79737">
        <ele>348</ele>
        <time>2016-03-13T09:19:23.000Z</time>
      </trkpt>
      <trkpt lat="47.44903" lon="6.79738">
        <ele>348</ele>
        <time>2016-03-13T09:19:24.000Z</time>
      </trkpt>
      <trkpt lat="47.44899" lon="6.79738">
        <ele>348</ele>
        <time>2016-03-13T09:19:26.000Z</time>
      </trkpt>
      <trkpt lat="47.44897" lon="6.79738">
        <ele>348</ele>
        <time>2016-03-13T09:19:27.000Z</time>
      </trkpt>
      <trkpt lat="47.44892" lon="6.79737">
        <ele>348</ele>
        <time>2016-03-13T09:19:29.000Z</time>
      </trkpt>
      <trkpt lat="47.44891" lon="6.79736">
        <ele>348</ele>
        <time>2016-03-13T09:19:30.000Z</time>
      </trkpt>
      <trkpt lat="47.44887" lon="6.79733">
        <ele>347</ele>
        <time>2016-03-13T09:19:32.000Z</time>
      </trkpt>
      <trkpt lat="47.44886" lon="6.79731">
        <ele>347</ele>
        <time>2016-03-13T09:19:33.000Z</time>
      </trkpt>
      <trkpt lat="47.44883" lon="6.79727">
        <ele>347</ele>
        <time>2016-03-13T09:19:35.000Z</time>
      </trkpt>
      <trkpt lat="47.44881" lon="6.79726">
        <ele>347</ele>
        <time>2016-03-13T09:19:36.000Z</time>
      </trkpt>
      <trkpt lat="47.44879" lon="6.79725">
        <ele>347</ele>
        <time>2016-03-13T09:19:37.000Z</time>
      </trkpt>
      <trkpt lat="47.44876" lon="6.79724">
        <ele>347</ele>
        <time>2016-03-13T09:19:38.000Z</time>
      </trkpt>
      <trkpt lat="47.44874" lon="6.79723">
        <ele>347</ele>
        <time>2016-03-13T09:19:39.000Z</time>
      </trkpt>
      <trkpt lat="47.44871" lon="6.79722">
        <ele>347</ele>
        <time>2016-03-13T09:19:40.000Z</time>
      </trkpt>
      <trkpt lat="47.44869" lon="6.79721">
        <ele>347</ele>
        <time>2016-03-13T09:19:41.000Z</time>
      </trkpt>
      <trkpt lat="47.44866" lon="6.79719">
        <ele>347</ele>
        <time>2016-03-13T09:19:42.000Z</time>
      </trkpt>
      <trkpt lat="47.44864" lon="6.79718">
        <ele>347</ele>
        <time>2016-03-13T09:19:43.000Z</time>
      </trkpt>
      <trkpt lat="47.44862" lon="6.79717">
        <ele>347</ele>
        <time>2016-03-13T09:19:44.000Z</time>
      </trkpt>
      <trkpt lat="47.44859" lon="6.79717">
        <ele>347</ele>
        <time>2016-03-13T09:19:45.000Z</time>
      </trkpt>
      <trkpt lat="47.44857" lon="6.79716">
        <ele>347</ele>
        <time>2016-03-13T09:19:46.000Z</time>
      </trkpt>
      <trkpt lat="47.44854" lon="6.79716">
        <ele>347</ele>
        <time>2016-03-13T09:19:47.000Z</time>
      </trkpt>
      <trkpt lat="47.44851" lon="6.79716">
        <ele>347</ele>
        <time>2016-03-13T09:19:48.000Z</time>
      </trkpt>
      <trkpt lat="47.44848" lon="6.79716">
        <ele>347</ele>
        <time>2016-03-13T09:19:49.000Z</time>
      </trkpt>
      <trkpt lat="47.44845" lon="6.79716">
        <ele>347</ele>
        <time>2016-03-13T09:19:50.000Z</time>
      </trkpt>
      <trkpt lat="47.44842" lon="6.79717">
        <ele>347</ele>
        <time>2016-03-13T09:19:51.000Z</time>
      </trkpt>
      <trkpt lat="47.44838" lon="6.79717">
        <ele>347</ele>
        <time>2016-03-13T09:19:52.000Z</time>
      </trkpt>
      <trkpt lat="47.44835" lon="6.79718">
        <ele>347</ele>
        <time>2016-03-13T09:19:53.000Z</time>
      </trkpt>
      <trkpt lat="47.44832" lon="6.79719">
        <ele>347</ele>
        <time>2016-03-13T09:19:54.000Z</time>
      </trkpt>
      <trkpt lat="47.44829" lon="6.7972">
        <ele>347</ele>
        <time>2016-03-13T09:19:55.000Z</time>
      </trkpt>
      <trkpt lat="47.44826" lon="6.79721">
        <ele>347</ele>
        <time>2016-03-13T09:19:56.000Z</time>
      </trkpt>
      <trkpt lat="47.44824" lon="6.79723">
        <ele>348</ele>
        <time>2016-03-13T09:19:57.000Z</time>
      </trkpt>
      <trkpt lat="47.44822" lon="6.79724">
        <ele>348</ele>
        <time>2016-03-13T09:19:58.000Z</time>
      </trkpt>
      <trkpt lat="47.4482" lon="6.79727">
        <ele>348</ele>
        <time>2016-03-13T09:19:59.000Z</time>
      </trkpt>
      <trkpt lat="47.44819" lon="6.79731">
        <ele>348</ele>
        <time>2016-03-13T09:20:00.000Z</time>
      </trkpt>
      <trkpt lat="47.44819" lon="6.79735">
        <ele>349</ele>
        <time>2016-03-13T09:20:01.000Z</time>
      </trkpt>
      <trkpt lat="47.44819" lon="6.7974">
        <ele>349</ele>
        <time>2016-03-13T09:20:02.000Z</time>
      </trkpt>
      <trkpt lat="47.44819" lon="6.79745">
        <ele>349</ele>
        <time>2016-03-13T09:20:03.000Z</time>
      </trkpt>
      <trkpt lat="47.44819" lon="6.7975">
        <ele>352</ele>
        <time>2016-03-13T09:20:04.000Z</time>
      </trkpt>
      <trkpt lat="47.44818" lon="6.79755">
        <ele>352</ele>
        <time>2016-03-13T09:20:05.000Z</time>
      </trkpt>
      <trkpt lat="47.44817" lon="6.79761">
        <ele>352</ele>
        <time>2016-03-13T09:20:06.000Z</time>
      </trkpt>
      <trkpt lat="47.44816" lon="6.79766">
        <ele>352</ele>
        <time>2016-03-13T09:20:07.000Z</time>
      </trkpt>
      <trkpt lat="47.44815" lon="6.79771">
        <ele>352</ele>
        <time>2016-03-13T09:20:08.000Z</time>
      </trkpt>
      <trkpt lat="47.44814" lon="6.79776">
        <ele>352</ele>
        <time>2016-03-13T09:20:09.000Z</time>
      </trkpt>
      <trkpt lat="47.44814" lon="6.79781">
        <ele>353</ele>
        <time>2016-03-13T09:20:10.000Z</time>
      </trkpt>
      <trkpt lat="47.44813" lon="6.79785">
        <ele>353</ele>
        <time>2016-03-13T09:20:11.000Z</time>
      </trkpt>
      <trkpt lat="47.44812" lon="6.7979">
        <ele>353</ele>
        <time>2016-03-13T09:20:12.000Z</time>
      </trkpt>
      <trkpt lat="47.44812" lon="6.79795">
        <ele>353</ele>
        <time>2016-03-13T09:20:13.000Z</time>
      </trkpt>
      <trkpt lat="47.44811" lon="6.79799">
        <ele>353</ele>
        <time>2016-03-13T09:20:14.000Z</time>
      </trkpt>
      <trkpt lat="47.4481" lon="6.79804">
        <ele>353</ele>
        <time>2016-03-13T09:20:15.000Z</time>
      </trkpt>
      <trkpt lat="47.44809" lon="6.79808">
        <ele>353</ele>
        <time>2016-03-13T09:20:16.000Z</time>
      </trkpt>
      <trkpt lat="47.44809" lon="6.79813">
        <ele>353</ele>
        <time>2016-03-13T09:20:17.000Z</time>
      </trkpt>
      <trkpt lat="47.44808" lon="6.79818">
        <ele>353</ele>
        <time>2016-03-13T09:20:18.000Z</time>
      </trkpt>
      <trkpt lat="47.44808" lon="6.79823">
        <ele>353</ele>
        <time>2016-03-13T09:20:19.000Z</time>
      </trkpt>
      <trkpt lat="47.44807" lon="6.79827">
        <ele>353</ele>
        <time>2016-03-13T09:20:20.000Z</time>
      </trkpt>
      <trkpt lat="47.44806" lon="6.79832">
        <ele>353</ele>
        <time>2016-03-13T09:20:21.000Z</time>
      </trkpt>
      <trkpt lat="47.44806" lon="6.79837">
        <ele>354</ele>
        <time>2016-03-13T09:20:22.000Z</time>
      </trkpt>
      <trkpt lat="47.44805" lon="6.79841">
        <ele>354</ele>
        <time>2016-03-13T09:20:23.000Z</time>
      </trkpt>
      <trkpt lat="47.44804" lon="6.79845">
        <ele>354</ele>
        <time>2016-03-13T09:20:24.000Z</time>
      </trkpt>
      <trkpt lat="47.44804" lon="6.7985">
        <ele>354</ele>
        <time>2016-03-13T09:20:25.000Z</time>
      </trkpt>
      <trkpt lat="47.44803" lon="6.79854">
        <ele>354</ele>
        <time>2016-03-13T09:20:26.000Z</time>
      </trkpt>
      <trkpt lat="47.44802" lon="6.79858">
        <ele>354</ele>
        <time>2016-03-13T09:20:27.000Z</time>
      </trkpt>
      <trkpt lat="47.44802" lon="6.79863">
        <ele>354</ele>
        <time>2016-03-13T09:20:28.000Z</time>
      </trkpt>
      <trkpt lat="47.44801" lon="6.79868">
        <ele>355</ele>
        <time>2016-03-13T09:20:29.000Z</time>
      </trkpt>
      <trkpt lat="47.44801" lon="6.79872">
        <ele>355</ele>
        <time>2016-03-13T09:20:30.000Z</time>
      </trkpt>
      <trkpt lat="47.448" lon="6.79876">
        <ele>355</ele>
        <time>2016-03-13T09:20:31.000Z</time>
      </trkpt>
      <trkpt lat="47.448" lon="6.79881">
        <ele>355</ele>
        <time>2016-03-13T09:20:32.000Z</time>
      </trkpt>
      <trkpt lat="47.44799" lon="6.79885">
        <ele>355</ele>
        <time>2016-03-13T09:20:33.000Z</time>
      </trkpt>
      <trkpt lat="47.44798" lon="6.7989">
        <ele>355</ele>
        <time>2016-03-13T09:20:34.000Z</time>
      </trkpt>
      <trkpt lat="47.44798" lon="6.79894">
        <ele>355</ele>
        <time>2016-03-13T09:20:35.000Z</time>
      </trkpt>
      <trkpt lat="47.44797" lon="6.79898">
        <ele>355</ele>
        <time>2016-03-13T09:20:36.000Z</time>
      </trkpt>
      <trkpt lat="47.44797" lon="6.79903">
        <ele>355</ele>
        <time>2016-03-13T09:20:37.000Z</time>
      </trkpt>
      <trkpt lat="47.44796" lon="6.79907">
        <ele>355</ele>
        <time>2016-03-13T09:20:38.000Z</time>
      </trkpt>
      <trkpt lat="47.44795" lon="6.7991">
        <ele>355</ele>
        <time>2016-03-13T09:20:39.000Z</time>
      </trkpt>
      <trkpt lat="47.44795" lon="6.79914">
        <ele>355</ele>
        <time>2016-03-13T09:20:40.000Z</time>
      </trkpt>
      <trkpt lat="47.44794" lon="6.79918">
        <ele>356</ele>
        <time>2016-03-13T09:20:41.000Z</time>
      </trkpt>
      <trkpt lat="47.44794" lon="6.79922">
        <ele>356</ele>
        <time>2016-03-13T09:20:42.000Z</time>
      </trkpt>
      <trkpt lat="47.44793" lon="6.79926">
        <ele>356</ele>
        <time>2016-03-13T09:20:43.000Z</time>
      </trkpt>
      <trkpt lat="47.44793" lon="6.7993">
        <ele>356</ele>
        <time>2016-03-13T09:20:44.000Z</time>
      </trkpt>
      <trkpt lat="47.44792" lon="6.79934">
        <ele>356</ele>
        <time>2016-03-13T09:20:45.000Z</time>
      </trkpt>
      <trkpt lat="47.44792" lon="6.79938">
        <ele>356</ele>
        <time>2016-03-13T09:20:46.000Z</time>
      </trkpt>
      <trkpt lat="47.44791" lon="6.79942">
        <ele>356</ele>
        <time>2016-03-13T09:20:47.000Z</time>
      </trkpt>
      <trkpt lat="47.44791" lon="6.79946">
        <ele>356</ele>
        <time>2016-03-13T09:20:48.000Z</time>
      </trkpt>
      <trkpt lat="47.4479" lon="6.7995">
        <ele>356</ele>
        <time>2016-03-13T09:20:49.000Z</time>
      </trkpt>
      <trkpt lat="47.4479" lon="6.79954">
        <ele>356</ele>
        <time>2016-03-13T09:20:50.000Z</time>
      </trkpt>
      <trkpt lat="47.44789" lon="6.79957">
        <ele>356</ele>
        <time>2016-03-13T09:20:51.000Z</time>
      </trkpt>
      <trkpt lat="47.44788" lon="6.7996">
        <ele>356</ele>
        <time>2016-03-13T09:20:52.000Z</time>
      </trkpt>
      <trkpt lat="47.44787" lon="6.79966">
        <ele>356</ele>
        <time>2016-03-13T09:20:54.000Z</time>
      </trkpt>
      <trkpt lat="47.44786" lon="6.79968">
        <ele>356</ele>
        <time>2016-03-13T09:20:55.000Z</time>
      </trkpt>
      <trkpt lat="47.44786" lon="6.79974">
        <ele>356</ele>
        <time>2016-03-13T09:20:58.000Z</time>
      </trkpt>
      <trkpt lat="47.44785" lon="6.79975">
        <ele>356</ele>
        <time>2016-03-13T09:20:59.000Z</time>
      </trkpt>
      <trkpt lat="47.44785" lon="6.79981">
        <ele>356</ele>
        <time>2016-03-13T09:21:03.000Z</time>
      </trkpt>
      <trkpt lat="47.44784" lon="6.79982">
        <ele>356</ele>
        <time>2016-03-13T09:21:04.000Z</time>
      </trkpt>
      <trkpt lat="47.4478" lon="6.79981">
        <ele>356</ele>
        <time>2016-03-13T09:21:07.000Z</time>
      </trkpt>
      <trkpt lat="47.44778" lon="6.7998">
        <ele>356</ele>
        <time>2016-03-13T09:21:08.000Z</time>
      </trkpt>
      <trkpt lat="47.44775" lon="6.79979">
        <ele>356</ele>
        <time>2016-03-13T09:21:09.000Z</time>
      </trkpt>
      <trkpt lat="47.44772" lon="6.79977">
        <ele>356</ele>
        <time>2016-03-13T09:21:10.000Z</time>
      </trkpt>
      <trkpt lat="47.44769" lon="6.79976">
        <ele>356</ele>
        <time>2016-03-13T09:21:11.000Z</time>
      </trkpt>
      <trkpt lat="47.44767" lon="6.79975">
        <ele>356</ele>
        <time>2016-03-13T09:21:12.000Z</time>
      </trkpt>
      <trkpt lat="47.44764" lon="6.79975">
        <ele>356</ele>
        <time>2016-03-13T09:21:13.000Z</time>
      </trkpt>
      <trkpt lat="47.44761" lon="6.79974">
        <ele>357</ele>
        <time>2016-03-13T09:21:14.000Z</time>
      </trkpt>
      <trkpt lat="47.44759" lon="6.79974">
        <ele>357</ele>
        <time>2016-03-13T09:21:15.000Z</time>
      </trkpt>
      <trkpt lat="47.44756" lon="6.79973">
        <ele>357</ele>
        <time>2016-03-13T09:21:16.000Z</time>
      </trkpt>
      <trkpt lat="47.44753" lon="6.79972">
        <ele>357</ele>
        <time>2016-03-13T09:21:17.000Z</time>
      </trkpt>
      <trkpt lat="47.44751" lon="6.79972">
        <ele>357</ele>
        <time>2016-03-13T09:21:18.000Z</time>
      </trkpt>
      <trkpt lat="47.44748" lon="6.79971">
        <ele>358</ele>
        <time>2016-03-13T09:21:19.000Z</time>
      </trkpt>
      <trkpt lat="47.44745" lon="6.79971">
        <ele>358</ele>
        <time>2016-03-13T09:21:20.000Z</time>
      </trkpt>
      <trkpt lat="47.44743" lon="6.79971">
        <ele>359</ele>
        <time>2016-03-13T09:21:21.000Z</time>
      </trkpt>
      <trkpt lat="47.4474" lon="6.7997">
        <ele>359</ele>
        <time>2016-03-13T09:21:22.000Z</time>
      </trkpt>
      <trkpt lat="47.44738" lon="6.7997">
        <ele>359</ele>
        <time>2016-03-13T09:21:23.000Z</time>
      </trkpt>
      <trkpt lat="47.44735" lon="6.7997">
        <ele>359</ele>
        <time>2016-03-13T09:21:24.000Z</time>
      </trkpt>
      <trkpt lat="47.44733" lon="6.79969">
        <ele>359</ele>
        <time>2016-03-13T09:21:25.000Z</time>
      </trkpt>
      <trkpt lat="47.4473" lon="6.79968">
        <ele>359</ele>
        <time>2016-03-13T09:21:26.000Z</time>
      </trkpt>
      <trkpt lat="47.44727" lon="6.79967">
        <ele>359</ele>
        <time>2016-03-13T09:21:27.000Z</time>
      </trkpt>
      <trkpt lat="47.44725" lon="6.79967">
        <ele>359</ele>
        <time>2016-03-13T09:21:28.000Z</time>
      </trkpt>
      <trkpt lat="47.44722" lon="6.79967">
        <ele>359</ele>
        <time>2016-03-13T09:21:29.000Z</time>
      </trkpt>
      <trkpt lat="47.44719" lon="6.79967">
        <ele>359</ele>
        <time>2016-03-13T09:21:30.000Z</time>
      </trkpt>
      <trkpt lat="47.44716" lon="6.79966">
        <ele>359</ele>
        <time>2016-03-13T09:21:31.000Z</time>
      </trkpt>
      <trkpt lat="47.44714" lon="6.79966">
        <ele>359</ele>
        <time>2016-03-13T09:21:32.000Z</time>
      </trkpt>
      <trkpt lat="47.44711" lon="6.79965">
        <ele>359</ele>
        <time>2016-03-13T09:21:33.000Z</time>
      </trkpt>
      <trkpt lat="47.44708" lon="6.79965">
        <ele>359</ele>
        <time>2016-03-13T09:21:34.000Z</time>
      </trkpt>
      <trkpt lat="47.44705" lon="6.79964">
        <ele>359</ele>
        <time>2016-03-13T09:21:35.000Z</time>
      </trkpt>
      <trkpt lat="47.44703" lon="6.79964">
        <ele>359</ele>
        <time>2016-03-13T09:21:36.000Z</time>
      </trkpt>
      <trkpt lat="47.447" lon="6.79963">
        <ele>359</ele>
        <time>2016-03-13T09:21:37.000Z</time>
      </trkpt>
      <trkpt lat="47.44698" lon="6.79963">
        <ele>359</ele>
        <time>2016-03-13T09:21:38.000Z</time>
      </trkpt>
      <trkpt lat="47.44695" lon="6.79962">
        <ele>359</ele>
        <time>2016-03-13T09:21:39.000Z</time>
      </trkpt>
      <trkpt lat="47.44693" lon="6.79963">
        <ele>359</ele>
        <time>2016-03-13T09:21:40.000Z</time>
      </trkpt>
      <trkpt lat="47.44689" lon="6.79963">
        <ele>359</ele>
        <time>2016-03-13T09:21:42.000Z</time>
      </trkpt>
      <trkpt lat="47.44687" lon="6.79963">
        <ele>359</ele>
        <time>2016-03-13T09:21:43.000Z</time>
      </trkpt>
      <trkpt lat="47.44684" lon="6.79962">
        <ele>359</ele>
        <time>2016-03-13T09:21:44.000Z</time>
      </trkpt>
      <trkpt lat="47.44682" lon="6.79962">
        <ele>359</ele>
        <time>2016-03-13T09:21:45.000Z</time>
      </trkpt>
      <trkpt lat="47.44679" lon="6.79961">
        <ele>359</ele>
        <time>2016-03-13T09:21:46.000Z</time>
      </trkpt>
      <trkpt lat="47.44677" lon="6.7996">
        <ele>359</ele>
        <time>2016-03-13T09:21:47.000Z</time>
      </trkpt>
      <trkpt lat="47.44674" lon="6.79959">
        <ele>360</ele>
        <time>2016-03-13T09:21:48.000Z</time>
      </trkpt>
      <trkpt lat="47.44672" lon="6.79959">
        <ele>360</ele>
        <time>2016-03-13T09:21:49.000Z</time>
      </trkpt>
      <trkpt lat="47.44669" lon="6.79959">
        <ele>360</ele>
        <time>2016-03-13T09:21:50.000Z</time>
      </trkpt>
      <trkpt lat="47.44666" lon="6.79958">
        <ele>361</ele>
        <time>2016-03-13T09:21:51.000Z</time>
      </trkpt>
      <trkpt lat="47.44664" lon="6.79958">
        <ele>361</ele>
        <time>2016-03-13T09:21:52.000Z</time>
      </trkpt>
      <trkpt lat="47.44661" lon="6.79957">
        <ele>361</ele>
        <time>2016-03-13T09:21:53.000Z</time>
      </trkpt>
      <trkpt lat="47.44659" lon="6.79957">
        <ele>361</ele>
        <time>2016-03-13T09:21:54.000Z</time>
      </trkpt>
      <trkpt lat="47.44656" lon="6.79956">
        <ele>361</ele>
        <time>2016-03-13T09:21:55.000Z</time>
      </trkpt>
      <trkpt lat="47.44654" lon="6.79956">
        <ele>361</ele>
        <time>2016-03-13T09:21:56.000Z</time>
      </trkpt>
      <trkpt lat="47.44651" lon="6.79955">
        <ele>361</ele>
        <time>2016-03-13T09:21:57.000Z</time>
      </trkpt>
      <trkpt lat="47.44649" lon="6.79954">
        <ele>361</ele>
        <time>2016-03-13T09:21:58.000Z</time>
      </trkpt>
      <trkpt lat="47.44647" lon="6.79954">
        <ele>361</ele>
        <time>2016-03-13T09:21:59.000Z</time>
      </trkpt>
      <trkpt lat="47.44644" lon="6.79953">
        <ele>362</ele>
        <time>2016-03-13T09:22:00.000Z</time>
      </trkpt>
      <trkpt lat="47.44642" lon="6.79952">
        <ele>362</ele>
        <time>2016-03-13T09:22:01.000Z</time>
      </trkpt>
      <trkpt lat="47.4464" lon="6.79951">
        <ele>362</ele>
        <time>2016-03-13T09:22:02.000Z</time>
      </trkpt>
      <trkpt lat="47.44637" lon="6.79951">
        <ele>362</ele>
        <time>2016-03-13T09:22:03.000Z</time>
      </trkpt>
      <trkpt lat="47.44635" lon="6.7995">
        <ele>362</ele>
        <time>2016-03-13T09:22:04.000Z</time>
      </trkpt>
      <trkpt lat="47.44632" lon="6.7995">
        <ele>362</ele>
        <time>2016-03-13T09:22:05.000Z</time>
      </trkpt>
      <trkpt lat="47.4463" lon="6.79949">
        <ele>362</ele>
        <time>2016-03-13T09:22:06.000Z</time>
      </trkpt>
      <trkpt lat="47.44627" lon="6.79948">
        <ele>362</ele>
        <time>2016-03-13T09:22:07.000Z</time>
      </trkpt>
      <trkpt lat="47.44625" lon="6.79947">
        <ele>362</ele>
        <time>2016-03-13T09:22:08.000Z</time>
      </trkpt>
      <trkpt lat="47.44623" lon="6.79946">
        <ele>362</ele>
        <time>2016-03-13T09:22:09.000Z</time>
      </trkpt>
      <trkpt lat="47.4462" lon="6.79945">
        <ele>362</ele>
        <time>2016-03-13T09:22:10.000Z</time>
      </trkpt>
      <trkpt lat="47.44618" lon="6.79943">
        <ele>362</ele>
        <time>2016-03-13T09:22:11.000Z</time>
      </trkpt>
      <trkpt lat="47.44615" lon="6.79942">
        <ele>362</ele>
        <time>2016-03-13T09:22:12.000Z</time>
      </trkpt>
      <trkpt lat="47.44613" lon="6.79941">
        <ele>362</ele>
        <time>2016-03-13T09:22:13.000Z</time>
      </trkpt>
      <trkpt lat="47.4461" lon="6.7994">
        <ele>362</ele>
        <time>2016-03-13T09:22:14.000Z</time>
      </trkpt>
      <trkpt lat="47.44607" lon="6.79938">
        <ele>362</ele>
        <time>2016-03-13T09:22:15.000Z</time>
      </trkpt>
      <trkpt lat="47.44604" lon="6.79937">
        <ele>362</ele>
        <time>2016-03-13T09:22:16.000Z</time>
      </trkpt>
      <trkpt lat="47.44601" lon="6.79936">
        <ele>362</ele>
        <time>2016-03-13T09:22:17.000Z</time>
      </trkpt>
      <trkpt lat="47.44598" lon="6.79935">
        <ele>362</ele>
        <time>2016-03-13T09:22:18.000Z</time>
      </trkpt>
      <trkpt lat="47.44595" lon="6.79934">
        <ele>362</ele>
        <time>2016-03-13T09:22:19.000Z</time>
      </trkpt>
      <trkpt lat="47.44592" lon="6.79933">
        <ele>362</ele>
        <time>2016-03-13T09:22:20.000Z</time>
      </trkpt>
      <trkpt lat="47.44589" lon="6.79932">
        <ele>362</ele>
        <time>2016-03-13T09:22:21.000Z</time>
      </trkpt>
      <trkpt lat="47.44586" lon="6.79931">
        <ele>363</ele>
        <time>2016-03-13T09:22:22.000Z</time>
      </trkpt>
      <trkpt lat="47.44583" lon="6.7993">
        <ele>363</ele>
        <time>2016-03-13T09:22:23.000Z</time>
      </trkpt>
      <trkpt lat="47.4458" lon="6.79929">
        <ele>363</ele>
        <time>2016-03-13T09:22:24.000Z</time>
      </trkpt>
      <trkpt lat="47.44577" lon="6.79928">
        <ele>364</ele>
        <time>2016-03-13T09:22:25.000Z</time>
      </trkpt>
      <trkpt lat="47.44574" lon="6.79928">
        <ele>364</ele>
        <time>2016-03-13T09:22:26.000Z</time>
      </trkpt>
      <trkpt lat="47.44572" lon="6.79926">
        <ele>364</ele>
        <time>2016-03-13T09:22:27.000Z</time>
      </trkpt>
      <trkpt lat="47.44569" lon="6.79925">
        <ele>364</ele>
        <time>2016-03-13T09:22:28.000Z</time>
      </trkpt>
      <trkpt lat="47.44567" lon="6.79924">
        <ele>364</ele>
        <time>2016-03-13T09:22:29.000Z</time>
      </trkpt>
      <trkpt lat="47.44564" lon="6.79923">
        <ele>364</ele>
        <time>2016-03-13T09:22:30.000Z</time>
      </trkpt>
      <trkpt lat="47.44561" lon="6.79922">
        <ele>364</ele>
        <time>2016-03-13T09:22:31.000Z</time>
      </trkpt>
      <trkpt lat="47.44558" lon="6.79921">
        <ele>364</ele>
        <time>2016-03-13T09:22:32.000Z</time>
      </trkpt>
      <trkpt lat="47.44555" lon="6.79921">
        <ele>364</ele>
        <time>2016-03-13T09:22:33.000Z</time>
      </trkpt>
      <trkpt lat="47.44552" lon="6.7992">
        <ele>364</ele>
        <time>2016-03-13T09:22:34.000Z</time>
      </trkpt>
      <trkpt lat="47.44549" lon="6.7992">
        <ele>364</ele>
        <time>2016-03-13T09:22:35.000Z</time>
      </trkpt>
      <trkpt lat="47.44546" lon="6.79919">
        <ele>364</ele>
        <time>2016-03-13T09:22:36.000Z</time>
      </trkpt>
      <trkpt lat="47.44544" lon="6.79918">
        <ele>364</ele>
        <time>2016-03-13T09:22:37.000Z</time>
      </trkpt>
      <trkpt lat="47.44541" lon="6.79916">
        <ele>365</ele>
        <time>2016-03-13T09:22:38.000Z</time>
      </trkpt>
      <trkpt lat="47.44538" lon="6.79915">
        <ele>365</ele>
        <time>2016-03-13T09:22:39.000Z</time>
      </trkpt>
      <trkpt lat="47.44536" lon="6.79914">
        <ele>365</ele>
        <time>2016-03-13T09:22:40.000Z</time>
      </trkpt>
      <trkpt lat="47.44533" lon="6.79913">
        <ele>365</ele>
        <time>2016-03-13T09:22:41.000Z</time>
      </trkpt>
      <trkpt lat="47.4453" lon="6.79913">
        <ele>365</ele>
        <time>2016-03-13T09:22:42.000Z</time>
      </trkpt>
      <trkpt lat="47.44528" lon="6.79912">
        <ele>365</ele>
        <time>2016-03-13T09:22:43.000Z</time>
      </trkpt>
      <trkpt lat="47.44525" lon="6.79911">
        <ele>365</ele>
        <time>2016-03-13T09:22:44.000Z</time>
      </trkpt>
      <trkpt lat="47.44523" lon="6.7991">
        <ele>365</ele>
        <time>2016-03-13T09:22:45.000Z</time>
      </trkpt>
      <trkpt lat="47.4452" lon="6.7991">
        <ele>365</ele>
        <time>2016-03-13T09:22:46.000Z</time>
      </trkpt>
      <trkpt lat="47.44518" lon="6.7991">
        <ele>365</ele>
        <time>2016-03-13T09:22:47.000Z</time>
      </trkpt>
      <trkpt lat="47.44515" lon="6.7991">
        <ele>366</ele>
        <time>2016-03-13T09:22:48.000Z</time>
      </trkpt>
      <trkpt lat="47.44513" lon="6.79909">
        <ele>366</ele>
        <time>2016-03-13T09:22:49.000Z</time>
      </trkpt>
      <trkpt lat="47.44511" lon="6.79909">
        <ele>366</ele>
        <time>2016-03-13T09:22:50.000Z</time>
      </trkpt>
      <trkpt lat="47.44508" lon="6.79909">
        <ele>366</ele>
        <time>2016-03-13T09:22:51.000Z</time>
      </trkpt>
      <trkpt lat="47.44506" lon="6.79909">
        <ele>366</ele>
        <time>2016-03-13T09:22:52.000Z</time>
      </trkpt>
      <trkpt lat="47.44504" lon="6.7991">
        <ele>366</ele>
        <time>2016-03-13T09:22:53.000Z</time>
      </trkpt>
      <trkpt lat="47.44501" lon="6.7991">
        <ele>366</ele>
        <time>2016-03-13T09:22:54.000Z</time>
      </trkpt>
      <trkpt lat="47.44499" lon="6.7991">
        <ele>367</ele>
        <time>2016-03-13T09:22:55.000Z</time>
      </trkpt>
      <trkpt lat="47.44496" lon="6.79909">
        <ele>368</ele>
        <time>2016-03-13T09:22:56.000Z</time>
      </trkpt>
      <trkpt lat="47.44494" lon="6.79909">
        <ele>368</ele>
        <time>2016-03-13T09:22:57.000Z</time>
      </trkpt>
      <trkpt lat="47.44489" lon="6.79909">
        <ele>368</ele>
        <time>2016-03-13T09:22:59.000Z</time>
      </trkpt>
      <trkpt lat="47.44487" lon="6.79908">
        <ele>369</ele>
        <time>2016-03-13T09:23:00.000Z</time>
      </trkpt>
      <trkpt lat="47.44483" lon="6.79907">
        <ele>369</ele>
        <time>2016-03-13T09:23:02.000Z</time>
      </trkpt>
      <trkpt lat="47.4448" lon="6.79906">
        <ele>369</ele>
        <time>2016-03-13T09:23:03.000Z</time>
      </trkpt>
      <trkpt lat="47.44476" lon="6.79904">
        <ele>370</ele>
        <time>2016-03-13T09:23:05.000Z</time>
      </trkpt>
      <trkpt lat="47.44474" lon="6.79904">
        <ele>370</ele>
        <time>2016-03-13T09:23:06.000Z</time>
      </trkpt>
      <trkpt lat="47.4447" lon="6.79902">
        <ele>370</ele>
        <time>2016-03-13T09:23:08.000Z</time>
      </trkpt>
      <trkpt lat="47.44468" lon="6.79901">
        <ele>370</ele>
        <time>2016-03-13T09:23:09.000Z</time>
      </trkpt>
      <trkpt lat="47.44464" lon="6.79899">
        <ele>371</ele>
        <time>2016-03-13T09:23:11.000Z</time>
      </trkpt>
      <trkpt lat="47.44462" lon="6.79898">
        <ele>371</ele>
        <time>2016-03-13T09:23:12.000Z</time>
      </trkpt>
      <trkpt lat="47.44458" lon="6.79895">
        <ele>371</ele>
        <time>2016-03-13T09:23:14.000Z</time>
      </trkpt>
      <trkpt lat="47.44456" lon="6.79894">
        <ele>371</ele>
        <time>2016-03-13T09:23:15.000Z</time>
      </trkpt>
      <trkpt lat="47.44454" lon="6.79893">
        <ele>372</ele>
        <time>2016-03-13T09:23:16.000Z</time>
      </trkpt>
      <trkpt lat="47.44452" lon="6.79891">
        <ele>372</ele>
        <time>2016-03-13T09:23:17.000Z</time>
      </trkpt>
      <trkpt lat="47.44449" lon="6.7989">
        <ele>372</ele>
        <time>2016-03-13T09:23:18.000Z</time>
      </trkpt>
      <trkpt lat="47.44447" lon="6.79889">
        <ele>372</ele>
        <time>2016-03-13T09:23:19.000Z</time>
      </trkpt>
      <trkpt lat="47.44443" lon="6.79886">
        <ele>372</ele>
        <time>2016-03-13T09:23:21.000Z</time>
      </trkpt>
      <trkpt lat="47.44441" lon="6.79886">
        <ele>372</ele>
        <time>2016-03-13T09:23:22.000Z</time>
      </trkpt>
      <trkpt lat="47.44437" lon="6.79884">
        <ele>372</ele>
        <time>2016-03-13T09:23:24.000Z</time>
      </trkpt>
      <trkpt lat="47.44435" lon="6.79883">
        <ele>372</ele>
        <time>2016-03-13T09:23:25.000Z</time>
      </trkpt>
      <trkpt lat="47.44431" lon="6.79881">
        <ele>373</ele>
        <time>2016-03-13T09:23:27.000Z</time>
      </trkpt>
      <trkpt lat="47.44429" lon="6.7988">
        <ele>373</ele>
        <time>2016-03-13T09:23:28.000Z</time>
      </trkpt>
      <trkpt lat="47.44425" lon="6.79878">
        <ele>373</ele>
        <time>2016-03-13T09:23:30.000Z</time>
      </trkpt>
      <trkpt lat="47.44423" lon="6.79877">
        <ele>373</ele>
        <time>2016-03-13T09:23:31.000Z</time>
      </trkpt>
      <trkpt lat="47.44421" lon="6.79876">
        <ele>373</ele>
        <time>2016-03-13T09:23:32.000Z</time>
      </trkpt>
      <trkpt lat="47.44418" lon="6.79876">
        <ele>373</ele>
        <time>2016-03-13T09:23:33.000Z</time>
      </trkpt>
      <trkpt lat="47.44416" lon="6.79875">
        <ele>381</ele>
        <time>2016-03-13T09:23:34.000Z</time>
      </trkpt>
      <trkpt lat="47.44414" lon="6.79874">
        <ele>381</ele>
        <time>2016-03-13T09:23:35.000Z</time>
      </trkpt>
      <trkpt lat="47.44409" lon="6.79873">
        <ele>381</ele>
        <time>2016-03-13T09:23:37.000Z</time>
      </trkpt>
      <trkpt lat="47.44408" lon="6.79872">
        <ele>381</ele>
        <time>2016-03-13T09:23:38.000Z</time>
      </trkpt>
      <trkpt lat="47.44404" lon="6.79871">
        <ele>381</ele>
        <time>2016-03-13T09:23:40.000Z</time>
      </trkpt>
      <trkpt lat="47.44402" lon="6.79871">
        <ele>381</ele>
        <time>2016-03-13T09:23:41.000Z</time>
      </trkpt>
      <trkpt lat="47.44398" lon="6.79869">
        <ele>382</ele>
        <time>2016-03-13T09:23:43.000Z</time>
      </trkpt>
      <trkpt lat="47.44396" lon="6.79868">
        <ele>382</ele>
        <time>2016-03-13T09:23:43.999Z</time>
      </trkpt>
      <trkpt lat="47.44392" lon="6.79864">
        <ele>382</ele>
        <time>2016-03-13T09:23:46.000Z</time>
      </trkpt>
      <trkpt lat="47.4439" lon="6.79863">
        <ele>382</ele>
        <time>2016-03-13T09:23:47.001Z</time>
      </trkpt>
      <trkpt lat="47.44388" lon="6.79858">
        <ele>382</ele>
        <time>2016-03-13T09:23:49.000Z</time>
      </trkpt>
      <trkpt lat="47.44387" lon="6.79855">
        <ele>382</ele>
        <time>2016-03-13T09:23:50.000Z</time>
      </trkpt>
      <trkpt lat="47.44387" lon="6.79849">
        <ele>382</ele>
        <time>2016-03-13T09:23:52.001Z</time>
      </trkpt>
      <trkpt lat="47.44387" lon="6.79846">
        <ele>382</ele>
        <time>2016-03-13T09:23:53.000Z</time>
      </trkpt>
      <trkpt lat="47.4439" lon="6.79841">
        <ele>382</ele>
        <time>2016-03-13T09:23:57.000Z</time>
      </trkpt>
      <trkpt lat="47.4439" lon="6.7984">
        <ele>382</ele>
        <time>2016-03-13T09:23:58.000Z</time>
      </trkpt>
      <trkpt lat="47.44391" lon="6.79834">
        <ele>381</ele>
        <time>2016-03-13T09:24:01.000Z</time>
      </trkpt>
      <trkpt lat="47.44391" lon="6.79832">
        <ele>383</ele>
        <time>2016-03-13T09:24:02.000Z</time>
      </trkpt>
      <trkpt lat="47.44393" lon="6.79829">
        <ele>383</ele>
        <time>2016-03-13T09:24:03.000Z</time>
      </trkpt>
      <trkpt lat="47.44393" lon="6.79826">
        <ele>383</ele>
        <time>2016-03-13T09:24:04.000Z</time>
      </trkpt>
      <trkpt lat="47.44397" lon="6.79825">
        <ele>382</ele>
        <time>2016-03-13T09:24:06.000Z</time>
      </trkpt>
      <trkpt lat="47.44399" lon="6.79824">
        <ele>382</ele>
        <time>2016-03-13T09:24:07.000Z</time>
      </trkpt>
      <trkpt lat="47.444" lon="6.79818">
        <ele>383</ele>
        <time>2016-03-13T09:24:10.000Z</time>
      </trkpt>
      <trkpt lat="47.444" lon="6.79815">
        <ele>383</ele>
        <time>2016-03-13T09:24:11.000Z</time>
      </trkpt>
      <trkpt lat="47.44401" lon="6.7981">
        <ele>383</ele>
        <time>2016-03-13T09:24:13.000Z</time>
      </trkpt>
      <trkpt lat="47.44401" lon="6.79808">
        <ele>384</ele>
        <time>2016-03-13T09:24:14.000Z</time>
      </trkpt>
      <trkpt lat="47.444" lon="6.79804">
        <ele>384</ele>
        <time>2016-03-13T09:24:16.000Z</time>
      </trkpt>
      <trkpt lat="47.44399" lon="6.79801">
        <ele>385</ele>
        <time>2016-03-13T09:24:17.000Z</time>
      </trkpt>
      <trkpt lat="47.44396" lon="6.79797">
        <ele>385</ele>
        <time>2016-03-13T09:24:19.000Z</time>
      </trkpt>
      <trkpt lat="47.44395" lon="6.79795">
        <ele>385</ele>
        <time>2016-03-13T09:24:19.999Z</time>
      </trkpt>
      <trkpt lat="47.44394" lon="6.79789">
        <ele>386</ele>
        <time>2016-03-13T09:24:22.001Z</time>
      </trkpt>
      <trkpt lat="47.44394" lon="6.79785">
        <ele>386</ele>
        <time>2016-03-13T09:24:23.000Z</time>
      </trkpt>
      <trkpt lat="47.44392" lon="6.79781">
        <ele>386</ele>
        <time>2016-03-13T09:24:25.000Z</time>
      </trkpt>
      <trkpt lat="47.44391" lon="6.7978">
        <ele>386</ele>
        <time>2016-03-13T09:24:26.000Z</time>
      </trkpt>
      <trkpt lat="47.44387" lon="6.79782">
        <ele>387</ele>
        <time>2016-03-13T09:24:39.000Z</time>
      </trkpt>
      <trkpt lat="47.44385" lon="6.79782">
        <ele>387</ele>
        <time>2016-03-13T09:24:40.000Z</time>
      </trkpt>
      <trkpt lat="47.44383" lon="6.79783">
        <ele>387</ele>
        <time>2016-03-13T09:24:42.000Z</time>
      </trkpt>
      <trkpt lat="47.44381" lon="6.79782">
        <ele>387</ele>
        <time>2016-03-13T09:24:43.000Z</time>
      </trkpt>
      <trkpt lat="47.44377" lon="6.79783">
        <ele>388</ele>
        <time>2016-03-13T09:24:50.000Z</time>
      </trkpt>
      <trkpt lat="47.44376" lon="6.79783">
        <ele>388</ele>
        <time>2016-03-13T09:24:51.000Z</time>
      </trkpt>
      <trkpt lat="47.44372" lon="6.79786">
        <ele>388</ele>
        <time>2016-03-13T09:24:53.000Z</time>
      </trkpt>
      <trkpt lat="47.44371" lon="6.79787">
        <ele>388</ele>
        <time>2016-03-13T09:24:54.000Z</time>
      </trkpt>
      <trkpt lat="47.44367" lon="6.79792">
        <ele>389</ele>
        <time>2016-03-13T09:25:04.000Z</time>
      </trkpt>
      <trkpt lat="47.44366" lon="6.79792">
        <ele>389</ele>
        <time>2016-03-13T09:25:05.000Z</time>
      </trkpt>
      <trkpt lat="47.44362" lon="6.79793">
        <ele>389</ele>
        <time>2016-03-13T09:25:07.000Z</time>
      </trkpt>
      <trkpt lat="47.44359" lon="6.79794">
        <ele>390</ele>
        <time>2016-03-13T09:25:08.000Z</time>
      </trkpt>
      <trkpt lat="47.44356" lon="6.79797">
        <ele>390</ele>
        <time>2016-03-13T09:25:10.000Z</time>
      </trkpt>
      <trkpt lat="47.44355" lon="6.79799">
        <ele>390</ele>
        <time>2016-03-13T09:25:11.000Z</time>
      </trkpt>
      <trkpt lat="47.44352" lon="6.79801">
        <ele>390</ele>
        <time>2016-03-13T09:25:14.000Z</time>
      </trkpt>
      <trkpt lat="47.4435" lon="6.79802">
        <ele>390</ele>
        <time>2016-03-13T09:25:15.000Z</time>
      </trkpt>
      <trkpt lat="47.44347" lon="6.79804">
        <ele>391</ele>
        <time>2016-03-13T09:25:17.000Z</time>
      </trkpt>
      <trkpt lat="47.44346" lon="6.79805">
        <ele>391</ele>
        <time>2016-03-13T09:25:18.000Z</time>
      </trkpt>
      <trkpt lat="47.44343" lon="6.79808">
        <ele>391</ele>
        <time>2016-03-13T09:25:21.000Z</time>
      </trkpt>
      <trkpt lat="47.44342" lon="6.79808">
        <ele>391</ele>
        <time>2016-03-13T09:25:22.000Z</time>
      </trkpt>
      <trkpt lat="47.44338" lon="6.79811">
        <ele>391</ele>
        <time>2016-03-13T09:25:25.000Z</time>
      </trkpt>
      <trkpt lat="47.44337" lon="6.79812">
        <ele>392</ele>
        <time>2016-03-13T09:25:26.000Z</time>
      </trkpt>
      <trkpt lat="47.44333" lon="6.79815">
        <ele>402</ele>
        <time>2016-03-13T09:25:29.000Z</time>
      </trkpt>
      <trkpt lat="47.44332" lon="6.79816">
        <ele>402</ele>
        <time>2016-03-13T09:25:30.000Z</time>
      </trkpt>
      <trkpt lat="47.44329" lon="6.79818">
        <ele>402</ele>
        <time>2016-03-13T09:25:33.000Z</time>
      </trkpt>
      <trkpt lat="47.44328" lon="6.7982">
        <ele>402</ele>
        <time>2016-03-13T09:25:34.000Z</time>
      </trkpt>
      <trkpt lat="47.44325" lon="6.79823">
        <ele>401</ele>
        <time>2016-03-13T09:25:38.000Z</time>
      </trkpt>
      <trkpt lat="47.44324" lon="6.79823">
        <ele>401</ele>
        <time>2016-03-13T09:25:39.000Z</time>
      </trkpt>
      <trkpt lat="47.44319" lon="6.79824">
        <ele>403</ele>
        <time>2016-03-13T09:25:44.000Z</time>
      </trkpt>
      <trkpt lat="47.44318" lon="6.79825">
        <ele>403</ele>
        <time>2016-03-13T09:25:45.000Z</time>
      </trkpt>
      <trkpt lat="47.44316" lon="6.79829">
        <ele>403</ele>
        <time>2016-03-13T09:25:48.000Z</time>
      </trkpt>
      <trkpt lat="47.44315" lon="6.7983">
        <ele>403</ele>
        <time>2016-03-13T09:25:49.000Z</time>
      </trkpt>
      <trkpt lat="47.44313" lon="6.79834">
        <ele>401</ele>
        <time>2016-03-13T09:25:51.000Z</time>
      </trkpt>
      <trkpt lat="47.44312" lon="6.79835">
        <ele>401</ele>
        <time>2016-03-13T09:25:52.000Z</time>
      </trkpt>
      <trkpt lat="47.44308" lon="6.79839">
        <ele>402</ele>
        <time>2016-03-13T09:25:55.000Z</time>
      </trkpt>
      <trkpt lat="47.44307" lon="6.7984">
        <ele>402</ele>
        <time>2016-03-13T09:25:56.000Z</time>
      </trkpt>
      <trkpt lat="47.44304" lon="6.79842">
        <ele>403</ele>
        <time>2016-03-13T09:25:59.000Z</time>
      </trkpt>
      <trkpt lat="47.44303" lon="6.79843">
        <ele>403</ele>
        <time>2016-03-13T09:26:00.000Z</time>
      </trkpt>
      <trkpt lat="47.44299" lon="6.79846">
        <ele>404</ele>
        <time>2016-03-13T09:26:04.000Z</time>
      </trkpt>
      <trkpt lat="47.44299" lon="6.79847">
        <ele>404</ele>
        <time>2016-03-13T09:26:05.000Z</time>
      </trkpt>
      <trkpt lat="47.44295" lon="6.79849">
        <ele>405</ele>
        <time>2016-03-13T09:26:11.000Z</time>
      </trkpt>
      <trkpt lat="47.44294" lon="6.7985">
        <ele>405</ele>
        <time>2016-03-13T09:26:12.000Z</time>
      </trkpt>
      <trkpt lat="47.4429" lon="6.79854">
        <ele>405</ele>
        <time>2016-03-13T09:26:16.000Z</time>
      </trkpt>
      <trkpt lat="47.4429" lon="6.79854">
        <ele>406</ele>
        <time>2016-03-13T09:26:17.000Z</time>
      </trkpt>
      <trkpt lat="47.44287" lon="6.79858">
        <ele>406</ele>
        <time>2016-03-13T09:26:22.000Z</time>
      </trkpt>
      <trkpt lat="47.44286" lon="6.79859">
        <ele>406</ele>
        <time>2016-03-13T09:26:23.000Z</time>
      </trkpt>
      <trkpt lat="47.44283" lon="6.79863">
        <ele>406</ele>
        <time>2016-03-13T09:26:27.000Z</time>
      </trkpt>
      <trkpt lat="47.44282" lon="6.79864">
        <ele>406</ele>
        <time>2016-03-13T09:26:28.000Z</time>
      </trkpt>
      <trkpt lat="47.44279" lon="6.79867">
        <ele>407</ele>
        <time>2016-03-13T09:26:35.000Z</time>
      </trkpt>
      <trkpt lat="47.44278" lon="6.79867">
        <ele>407</ele>
        <time>2016-03-13T09:26:36.000Z</time>
      </trkpt>
      <trkpt lat="47.44274" lon="6.7987">
        <ele>407</ele>
        <time>2016-03-13T09:26:40.000Z</time>
      </trkpt>
      <trkpt lat="47.44274" lon="6.7987">
        <ele>407</ele>
        <time>2016-03-13T09:26:41.000Z</time>
      </trkpt>
      <trkpt lat="47.4427" lon="6.79873">
        <ele>407</ele>
        <time>2016-03-13T09:26:46.000Z</time>
      </trkpt>
      <trkpt lat="47.44269" lon="6.79873">
        <ele>407</ele>
        <time>2016-03-13T09:26:47.000Z</time>
      </trkpt>
      <trkpt lat="47.44265" lon="6.79876">
        <ele>408</ele>
        <time>2016-03-13T09:26:52.000Z</time>
      </trkpt>
      <trkpt lat="47.44264" lon="6.79876">
        <ele>408</ele>
        <time>2016-03-13T09:26:53.000Z</time>
      </trkpt>
      <trkpt lat="47.4426" lon="6.79877">
        <ele>408</ele>
        <time>2016-03-13T09:26:57.000Z</time>
      </trkpt>
      <trkpt lat="47.44258" lon="6.79877">
        <ele>408</ele>
        <time>2016-03-13T09:26:58.000Z</time>
      </trkpt>
      <trkpt lat="47.44254" lon="6.79879">
        <ele>408</ele>
        <time>2016-03-13T09:27:01.000Z</time>
      </trkpt>
      <trkpt lat="47.44253" lon="6.7988">
        <ele>408</ele>
        <time>2016-03-13T09:27:02.000Z</time>
      </trkpt>
      <trkpt lat="47.44249" lon="6.79881">
        <ele>421</ele>
        <time>2016-03-13T09:27:06.000Z</time>
      </trkpt>
      <trkpt lat="47.44248" lon="6.79882">
        <ele>421</ele>
        <time>2016-03-13T09:27:07.000Z</time>
      </trkpt>
      <trkpt lat="47.44244" lon="6.79884">
        <ele>421</ele>
        <time>2016-03-13T09:27:10.000Z</time>
      </trkpt>
      <trkpt lat="47.44244" lon="6.79884">
        <ele>421</ele>
        <time>2016-03-13T09:27:11.000Z</time>
      </trkpt>
      <trkpt lat="47.4424" lon="6.79886">
        <ele>420</ele>
        <time>2016-03-13T09:27:14.000Z</time>
      </trkpt>
      <trkpt lat="47.44239" lon="6.79887">
        <ele>420</ele>
        <time>2016-03-13T09:27:15.000Z</time>
      </trkpt>
      <trkpt lat="47.44235" lon="6.79889">
        <ele>421</ele>
        <time>2016-03-13T09:27:18.000Z</time>
      </trkpt>
      <trkpt lat="47.44234" lon="6.7989">
        <ele>421</ele>
        <time>2016-03-13T09:27:19.000Z</time>
      </trkpt>
      <trkpt lat="47.4423" lon="6.79892">
        <ele>421</ele>
        <time>2016-03-13T09:27:21.000Z</time>
      </trkpt>
      <trkpt lat="47.44229" lon="6.79892">
        <ele>421</ele>
        <time>2016-03-13T09:27:22.000Z</time>
      </trkpt>
      <trkpt lat="47.44226" lon="6.79893">
        <ele>421</ele>
        <time>2016-03-13T09:27:24.000Z</time>
      </trkpt>
      <trkpt lat="47.44224" lon="6.79893">
        <ele>421</ele>
        <time>2016-03-13T09:27:25.000Z</time>
      </trkpt>
      <trkpt lat="47.44221" lon="6.79894">
        <ele>422</ele>
        <time>2016-03-13T09:27:27.000Z</time>
      </trkpt>
      <trkpt lat="47.44219" lon="6.79896">
        <ele>422</ele>
        <time>2016-03-13T09:27:28.000Z</time>
      </trkpt>
      <trkpt lat="47.44216" lon="6.79898">
        <ele>422</ele>
        <time>2016-03-13T09:27:30.000Z</time>
      </trkpt>
      <trkpt lat="47.44215" lon="6.79899">
        <ele>422</ele>
        <time>2016-03-13T09:27:31.000Z</time>
      </trkpt>
      <trkpt lat="47.44211" lon="6.79901">
        <ele>422</ele>
        <time>2016-03-13T09:27:34.000Z</time>
      </trkpt>
      <trkpt lat="47.4421" lon="6.79901">
        <ele>423</ele>
        <time>2016-03-13T09:27:35.000Z</time>
      </trkpt>
      <trkpt lat="47.44207" lon="6.79902">
        <ele>423</ele>
        <time>2016-03-13T09:27:38.000Z</time>
      </trkpt>
      <trkpt lat="47.44206" lon="6.79902">
        <ele>423</ele>
        <time>2016-03-13T09:27:39.000Z</time>
      </trkpt>
      <trkpt lat="47.44201" lon="6.79904">
        <ele>424</ele>
        <time>2016-03-13T09:27:45.000Z</time>
      </trkpt>
      <trkpt lat="47.44201" lon="6.79905">
        <ele>424</ele>
        <time>2016-03-13T09:27:46.000Z</time>
      </trkpt>
      <trkpt lat="47.44205" lon="6.79905">
        <ele>423</ele>
        <time>2016-03-13T09:28:07.000Z</time>
      </trkpt>
      <trkpt lat="47.44206" lon="6.79904">
        <ele>423</ele>
        <time>2016-03-13T09:28:08.000Z</time>
      </trkpt>
      <trkpt lat="47.44207" lon="6.79898">
        <ele>423</ele>
        <time>2016-03-13T09:28:13.000Z</time>
      </trkpt>
      <trkpt lat="47.44207" lon="6.79897">
        <ele>423</ele>
        <time>2016-03-13T09:28:14.000Z</time>
      </trkpt>
      <trkpt lat="47.44207" lon="6.7989">
        <ele>423</ele>
        <time>2016-03-13T09:28:18.000Z</time>
      </trkpt>
      <trkpt lat="47.44207" lon="6.79888">
        <ele>424</ele>
        <time>2016-03-13T09:28:19.000Z</time>
      </trkpt>
      <trkpt lat="47.44205" lon="6.79882">
        <ele>424</ele>
        <time>2016-03-13T09:28:22.000Z</time>
      </trkpt>
      <trkpt lat="47.44204" lon="6.7988">
        <ele>424</ele>
        <time>2016-03-13T09:28:23.000Z</time>
      </trkpt>
      <trkpt lat="47.44202" lon="6.79874">
        <ele>425</ele>
        <time>2016-03-13T09:28:26.000Z</time>
      </trkpt>
      <trkpt lat="47.44202" lon="6.79873">
        <ele>425</ele>
        <time>2016-03-13T09:28:27.000Z</time>
      </trkpt>
      <trkpt lat="47.44201" lon="6.79868">
        <ele>425</ele>
        <time>2016-03-13T09:28:30.000Z</time>
      </trkpt>
      <trkpt lat="47.44201" lon="6.79866">
        <ele>425</ele>
        <time>2016-03-13T09:28:31.000Z</time>
      </trkpt>
      <trkpt lat="47.44201" lon="6.79859">
        <ele>425</ele>
        <time>2016-03-13T09:28:34.000Z</time>
      </trkpt>
      <trkpt lat="47.44201" lon="6.79857">
        <ele>426</ele>
        <time>2016-03-13T09:28:35.000Z</time>
      </trkpt>
      <trkpt lat="47.442" lon="6.79853">
        <ele>426</ele>
        <time>2016-03-13T09:28:37.000Z</time>
      </trkpt>
      <trkpt lat="47.44199" lon="6.79851">
        <ele>426</ele>
        <time>2016-03-13T09:28:38.000Z</time>
      </trkpt>
      <trkpt lat="47.44198" lon="6.79845">
        <ele>427</ele>
        <time>2016-03-13T09:28:40.000Z</time>
      </trkpt>
      <trkpt lat="47.44199" lon="6.79842">
        <ele>427</ele>
        <time>2016-03-13T09:28:41.000Z</time>
      </trkpt>
      <trkpt lat="47.442" lon="6.79837">
        <ele>427</ele>
        <time>2016-03-13T09:28:43.000Z</time>
      </trkpt>
      <trkpt lat="47.44201" lon="6.79835">
        <ele>427</ele>
        <time>2016-03-13T09:28:44.000Z</time>
      </trkpt>
      <trkpt lat="47.44199" lon="6.79829">
        <ele>430</ele>
        <time>2016-03-13T09:28:47.000Z</time>
      </trkpt>
      <trkpt lat="47.44199" lon="6.79827">
        <ele>430</ele>
        <time>2016-03-13T09:28:48.000Z</time>
      </trkpt>
      <trkpt lat="47.44199" lon="6.79821">
        <ele>430</ele>
        <time>2016-03-13T09:28:51.000Z</time>
      </trkpt>
      <trkpt lat="47.44199" lon="6.7982">
        <ele>430</ele>
        <time>2016-03-13T09:28:52.000Z</time>
      </trkpt>
      <trkpt lat="47.44198" lon="6.79815">
        <ele>431</ele>
        <time>2016-03-13T09:28:55.000Z</time>
      </trkpt>
      <trkpt lat="47.44198" lon="6.79813">
        <ele>431</ele>
        <time>2016-03-13T09:28:56.000Z</time>
      </trkpt>
      <trkpt lat="47.44198" lon="6.79807">
        <ele>431</ele>
        <time>2016-03-13T09:28:59.000Z</time>
      </trkpt>
      <trkpt lat="47.44198" lon="6.79804">
        <ele>431</ele>
        <time>2016-03-13T09:29:00.000Z</time>
      </trkpt>
      <trkpt lat="47.44198" lon="6.79798">
        <ele>431</ele>
        <time>2016-03-13T09:29:03.000Z</time>
      </trkpt>
      <trkpt lat="47.44199" lon="6.79796">
        <ele>431</ele>
        <time>2016-03-13T09:29:04.000Z</time>
      </trkpt>
      <trkpt lat="47.442" lon="6.7979">
        <ele>431</ele>
        <time>2016-03-13T09:29:06.000Z</time>
      </trkpt>
      <trkpt lat="47.44201" lon="6.79787">
        <ele>431</ele>
        <time>2016-03-13T09:29:07.000Z</time>
      </trkpt>
      <trkpt lat="47.44201" lon="6.79781">
        <ele>431</ele>
        <time>2016-03-13T09:29:09.000Z</time>
      </trkpt>
      <trkpt lat="47.44201" lon="6.79778">
        <ele>431</ele>
        <time>2016-03-13T09:29:10.000Z</time>
      </trkpt>
      <trkpt lat="47.442" lon="6.79773">
        <ele>431</ele>
        <time>2016-03-13T09:29:12.000Z</time>
      </trkpt>
      <trkpt lat="47.442" lon="6.79771">
        <ele>431</ele>
        <time>2016-03-13T09:29:13.000Z</time>
      </trkpt>
      <trkpt lat="47.442" lon="6.79766">
        <ele>432</ele>
        <time>2016-03-13T09:29:15.000Z</time>
      </trkpt>
      <trkpt lat="47.442" lon="6.79763">
        <ele>432</ele>
        <time>2016-03-13T09:29:16.000Z</time>
      </trkpt>
      <trkpt lat="47.44201" lon="6.79758">
        <ele>432</ele>
        <time>2016-03-13T09:29:18.000Z</time>
      </trkpt>
      <trkpt lat="47.44201" lon="6.79756">
        <ele>432</ele>
        <time>2016-03-13T09:29:19.000Z</time>
      </trkpt>
      <trkpt lat="47.44201" lon="6.7975">
        <ele>434</ele>
        <time>2016-03-13T09:29:25.000Z</time>
      </trkpt>
      <trkpt lat="47.44201" lon="6.79749">
        <ele>434</ele>
        <time>2016-03-13T09:29:26.000Z</time>
      </trkpt>
      <trkpt lat="47.44201" lon="6.79742">
        <ele>434</ele>
        <time>2016-03-13T09:29:32.000Z</time>
      </trkpt>
      <trkpt lat="47.442" lon="6.79741">
        <ele>434</ele>
        <time>2016-03-13T09:29:33.000Z</time>
      </trkpt>
      <trkpt lat="47.44198" lon="6.79736">
        <ele>435</ele>
        <time>2016-03-13T09:29:42.000Z</time>
      </trkpt>
      <trkpt lat="47.44198" lon="6.79736">
        <ele>435</ele>
        <time>2016-03-13T09:29:43.000Z</time>
      </trkpt>
      <trkpt lat="47.44195" lon="6.79731">
        <ele>435</ele>
        <time>2016-03-13T09:31:44.000Z</time>
      </trkpt>
      <trkpt lat="47.44195" lon="6.7973">
        <ele>435</ele>
        <time>2016-03-13T09:31:45.000Z</time>
      </trkpt>
      <trkpt lat="47.44196" lon="6.79725">
        <ele>435</ele>
        <time>2016-03-13T09:32:25.000Z</time>
      </trkpt>
      <trkpt lat="47.44196" lon="6.79724">
        <ele>435</ele>
        <time>2016-03-13T09:32:26.000Z</time>
      </trkpt>
      <trkpt lat="47.44197" lon="6.79719">
        <ele>435</ele>
        <time>2016-03-13T09:32:28.000Z</time>
      </trkpt>
      <trkpt lat="47.44197" lon="6.79717">
        <ele>435</ele>
        <time>2016-03-13T09:32:29.000Z</time>
      </trkpt>
      <trkpt lat="47.44198" lon="6.79711">
        <ele>435</ele>
        <time>2016-03-13T09:32:31.000Z</time>
      </trkpt>
      <trkpt lat="47.44199" lon="6.79709">
        <ele>435</ele>
        <time>2016-03-13T09:32:32.000Z</time>
      </trkpt>
      <trkpt lat="47.44199" lon="6.79705">
        <ele>435</ele>
        <time>2016-03-13T09:32:33.000Z</time>
      </trkpt>
      <trkpt lat="47.442" lon="6.79702">
        <ele>435</ele>
        <time>2016-03-13T09:32:34.000Z</time>
      </trkpt>
      <trkpt lat="47.442" lon="6.79698">
        <ele>435</ele>
        <time>2016-03-13T09:32:35.000Z</time>
      </trkpt>
      <trkpt lat="47.44199" lon="6.79695">
        <ele>435</ele>
        <time>2016-03-13T09:32:36.000Z</time>
      </trkpt>
      <trkpt lat="47.44199" lon="6.79691">
        <ele>435</ele>
        <time>2016-03-13T09:32:37.000Z</time>
      </trkpt>
      <trkpt lat="47.44199" lon="6.79687">
        <ele>435</ele>
        <time>2016-03-13T09:32:38.000Z</time>
      </trkpt>
      <trkpt lat="47.44198" lon="6.79682">
        <ele>436</ele>
        <time>2016-03-13T09:32:40.000Z</time>
      </trkpt>
      <trkpt lat="47.44197" lon="6.7968">
        <ele>436</ele>
        <time>2016-03-13T09:32:41.000Z</time>
      </trkpt>
      <trkpt lat="47.44195" lon="6.79675">
        <ele>436</ele>
        <time>2016-03-13T09:32:44.000Z</time>
      </trkpt>
      <trkpt lat="47.44194" lon="6.79673">
        <ele>436</ele>
        <time>2016-03-13T09:32:45.000Z</time>
      </trkpt>
      <trkpt lat="47.4419" lon="6.79671">
        <ele>437</ele>
        <time>2016-03-13T09:32:47.000Z</time>
      </trkpt>
      <trkpt lat="47.44188" lon="6.79671">
        <ele>437</ele>
        <time>2016-03-13T09:32:48.000Z</time>
      </trkpt>
      <trkpt lat="47.44184" lon="6.7967">
        <ele>438</ele>
        <time>2016-03-13T09:32:51.000Z</time>
      </trkpt>
      <trkpt lat="47.44183" lon="6.79669">
        <ele>439</ele>
        <time>2016-03-13T09:32:52.000Z</time>
      </trkpt>
      <trkpt lat="47.44179" lon="6.79664">
        <ele>440</ele>
        <time>2016-03-13T09:32:55.000Z</time>
      </trkpt>
      <trkpt lat="47.44179" lon="6.79663">
        <ele>440</ele>
        <time>2016-03-13T09:32:56.000Z</time>
      </trkpt>
      <trkpt lat="47.44177" lon="6.79657">
        <ele>440</ele>
        <time>2016-03-13T09:32:59.000Z</time>
      </trkpt>
      <trkpt lat="47.44176" lon="6.79656">
        <ele>440</ele>
        <time>2016-03-13T09:33:00.000Z</time>
      </trkpt>
      <trkpt lat="47.44175" lon="6.79652">
        <ele>439</ele>
        <time>2016-03-13T09:33:04.000Z</time>
      </trkpt>
      <trkpt lat="47.44173" lon="6.79651">
        <ele>440</ele>
        <time>2016-03-13T09:33:05.000Z</time>
      </trkpt>
      <trkpt lat="47.4417" lon="6.79649">
        <ele>439</ele>
        <time>2016-03-13T09:33:06.000Z</time>
      </trkpt>
      <trkpt lat="47.44168" lon="6.79647">
        <ele>439</ele>
        <time>2016-03-13T09:33:07.000Z</time>
      </trkpt>
      <trkpt lat="47.44165" lon="6.79646">
        <ele>445</ele>
        <time>2016-03-13T09:33:08.000Z</time>
      </trkpt>
      <trkpt lat="47.44162" lon="6.79645">
        <ele>445</ele>
        <time>2016-03-13T09:33:09.000Z</time>
      </trkpt>
      <trkpt lat="47.4416" lon="6.79643">
        <ele>446</ele>
        <time>2016-03-13T09:33:10.000Z</time>
      </trkpt>
      <trkpt lat="47.44158" lon="6.79642">
        <ele>446</ele>
        <time>2016-03-13T09:33:11.000Z</time>
      </trkpt>
      <trkpt lat="47.44155" lon="6.7964">
        <ele>446</ele>
        <time>2016-03-13T09:33:12.000Z</time>
      </trkpt>
      <trkpt lat="47.44153" lon="6.79639">
        <ele>446</ele>
        <time>2016-03-13T09:33:13.000Z</time>
      </trkpt>
      <trkpt lat="47.4415" lon="6.79638">
        <ele>446</ele>
        <time>2016-03-13T09:33:14.000Z</time>
      </trkpt>
      <trkpt lat="47.44148" lon="6.79636">
        <ele>446</ele>
        <time>2016-03-13T09:33:15.000Z</time>
      </trkpt>
      <trkpt lat="47.44145" lon="6.79635">
        <ele>446</ele>
        <time>2016-03-13T09:33:16.000Z</time>
      </trkpt>
      <trkpt lat="47.44143" lon="6.79635">
        <ele>446</ele>
        <time>2016-03-13T09:33:17.000Z</time>
      </trkpt>
      <trkpt lat="47.44139" lon="6.79635">
        <ele>447</ele>
        <time>2016-03-13T09:33:19.000Z</time>
      </trkpt>
      <trkpt lat="47.44138" lon="6.79634">
        <ele>447</ele>
        <time>2016-03-13T09:33:20.000Z</time>
      </trkpt>
      <trkpt lat="47.44135" lon="6.79631">
        <ele>447</ele>
        <time>2016-03-13T09:33:22.000Z</time>
      </trkpt>
      <trkpt lat="47.44135" lon="6.7963">
        <ele>447</ele>
        <time>2016-03-13T09:33:23.000Z</time>
      </trkpt>
      <trkpt lat="47.44132" lon="6.79629">
        <ele>447</ele>
        <time>2016-03-13T09:33:26.000Z</time>
      </trkpt>
      <trkpt lat="47.4413" lon="6.79628">
        <ele>447</ele>
        <time>2016-03-13T09:33:27.000Z</time>
      </trkpt>
      <trkpt lat="47.44126" lon="6.79629">
        <ele>447</ele>
        <time>2016-03-13T09:33:30.000Z</time>
      </trkpt>
      <trkpt lat="47.44125" lon="6.79629">
        <ele>448</ele>
        <time>2016-03-13T09:33:31.000Z</time>
      </trkpt>
      <trkpt lat="47.44122" lon="6.7963">
        <ele>448</ele>
        <time>2016-03-13T09:33:33.000Z</time>
      </trkpt>
      <trkpt lat="47.4412" lon="6.79629">
        <ele>448</ele>
        <time>2016-03-13T09:33:34.000Z</time>
      </trkpt>
      <trkpt lat="47.44115" lon="6.79629">
        <ele>448</ele>
        <time>2016-03-13T09:33:36.000Z</time>
      </trkpt>
      <trkpt lat="47.44114" lon="6.79628">
        <ele>448</ele>
        <time>2016-03-13T09:33:37.000Z</time>
      </trkpt>
      <trkpt lat="47.44109" lon="6.79626">
        <ele>448</ele>
        <time>2016-03-13T09:33:39.000Z</time>
      </trkpt>
      <trkpt lat="47.44107" lon="6.79624">
        <ele>449</ele>
        <time>2016-03-13T09:33:40.000Z</time>
      </trkpt>
      <trkpt lat="47.44105" lon="6.79623">
        <ele>449</ele>
        <time>2016-03-13T09:33:41.000Z</time>
      </trkpt>
      <trkpt lat="47.44103" lon="6.79621">
        <ele>449</ele>
        <time>2016-03-13T09:33:42.000Z</time>
      </trkpt>
      <trkpt lat="47.44101" lon="6.79618">
        <ele>449</ele>
        <time>2016-03-13T09:33:43.000Z</time>
      </trkpt>
      <trkpt lat="47.44099" lon="6.79616">
        <ele>449</ele>
        <time>2016-03-13T09:33:44.000Z</time>
      </trkpt>
      <trkpt lat="47.44097" lon="6.79614">
        <ele>449</ele>
        <time>2016-03-13T09:33:45.000Z</time>
      </trkpt>
      <trkpt lat="47.44095" lon="6.79612">
        <ele>449</ele>
        <time>2016-03-13T09:33:46.000Z</time>
      </trkpt>
      <trkpt lat="47.44093" lon="6.7961">
        <ele>449</ele>
        <time>2016-03-13T09:33:47.000Z</time>
      </trkpt>
      <trkpt lat="47.44091" lon="6.79608">
        <ele>449</ele>
        <time>2016-03-13T09:33:48.000Z</time>
      </trkpt>
      <trkpt lat="47.44088" lon="6.79605">
        <ele>450</ele>
        <time>2016-03-13T09:33:50.000Z</time>
      </trkpt>
      <trkpt lat="47.44086" lon="6.79604">
        <ele>450</ele>
        <time>2016-03-13T09:33:51.000Z</time>
      </trkpt>
      <trkpt lat="47.44083" lon="6.79602">
        <ele>453</ele>
        <time>2016-03-13T09:33:54.000Z</time>
      </trkpt>
      <trkpt lat="47.44081" lon="6.796">
        <ele>453</ele>
        <time>2016-03-13T09:33:55.000Z</time>
      </trkpt>
      <trkpt lat="47.44079" lon="6.79599">
        <ele>453</ele>
        <time>2016-03-13T09:33:56.000Z</time>
      </trkpt>
      <trkpt lat="47.44077" lon="6.79597">
        <ele>453</ele>
        <time>2016-03-13T09:33:57.000Z</time>
      </trkpt>
      <trkpt lat="47.44074" lon="6.79596">
        <ele>453</ele>
        <time>2016-03-13T09:33:58.000Z</time>
      </trkpt>
      <trkpt lat="47.44071" lon="6.79595">
        <ele>453</ele>
        <time>2016-03-13T09:33:59.000Z</time>
      </trkpt>
      <trkpt lat="47.44067" lon="6.79594">
        <ele>453</ele>
        <time>2016-03-13T09:34:01.000Z</time>
      </trkpt>
      <trkpt lat="47.44065" lon="6.79593">
        <ele>453</ele>
        <time>2016-03-13T09:34:02.000Z</time>
      </trkpt>
      <trkpt lat="47.44061" lon="6.79591">
        <ele>454</ele>
        <time>2016-03-13T09:34:04.000Z</time>
      </trkpt>
      <trkpt lat="47.44059" lon="6.79591">
        <ele>454</ele>
        <time>2016-03-13T09:34:05.000Z</time>
      </trkpt>
      <trkpt lat="47.44057" lon="6.7959">
        <ele>454</ele>
        <time>2016-03-13T09:34:06.000Z</time>
      </trkpt>
      <trkpt lat="47.44054" lon="6.79589">
        <ele>454</ele>
        <time>2016-03-13T09:34:07.000Z</time>
      </trkpt>
      <trkpt lat="47.44052" lon="6.79588">
        <ele>454</ele>
        <time>2016-03-13T09:34:08.000Z</time>
      </trkpt>
      <trkpt lat="47.44049" lon="6.79587">
        <ele>454</ele>
        <time>2016-03-13T09:34:09.000Z</time>
      </trkpt>
      <trkpt lat="47.44045" lon="6.79585">
        <ele>454</ele>
        <time>2016-03-13T09:34:11.000Z</time>
      </trkpt>
      <trkpt lat="47.44043" lon="6.79585">
        <ele>454</ele>
        <time>2016-03-13T09:34:12.000Z</time>
      </trkpt>
      <trkpt lat="47.44041" lon="6.79584">
        <ele>454</ele>
        <time>2016-03-13T09:34:13.000Z</time>
      </trkpt>
      <trkpt lat="47.44039" lon="6.79582">
        <ele>454</ele>
        <time>2016-03-13T09:34:14.000Z</time>
      </trkpt>
      <trkpt lat="47.44036" lon="6.79581">
        <ele>455</ele>
        <time>2016-03-13T09:34:15.000Z</time>
      </trkpt>
      <trkpt lat="47.44034" lon="6.79579">
        <ele>455</ele>
        <time>2016-03-13T09:34:16.000Z</time>
      </trkpt>
      <trkpt lat="47.44031" lon="6.79578">
        <ele>455</ele>
        <time>2016-03-13T09:34:17.000Z</time>
      </trkpt>
      <trkpt lat="47.44029" lon="6.79577">
        <ele>455</ele>
        <time>2016-03-13T09:34:18.000Z</time>
      </trkpt>
      <trkpt lat="47.44025" lon="6.79575">
        <ele>455</ele>
        <time>2016-03-13T09:34:20.000Z</time>
      </trkpt>
      <trkpt lat="47.44023" lon="6.79575">
        <ele>455</ele>
        <time>2016-03-13T09:34:21.000Z</time>
      </trkpt>
      <trkpt lat="47.44019" lon="6.79576">
        <ele>455</ele>
        <time>2016-03-13T09:34:23.000Z</time>
      </trkpt>
      <trkpt lat="47.44016" lon="6.79576">
        <ele>455</ele>
        <time>2016-03-13T09:34:24.000Z</time>
      </trkpt>
      <trkpt lat="47.44013" lon="6.79576">
        <ele>455</ele>
        <time>2016-03-13T09:34:25.000Z</time>
      </trkpt>
      <trkpt lat="47.44011" lon="6.79576">
        <ele>455</ele>
        <time>2016-03-13T09:34:26.000Z</time>
      </trkpt>
      <trkpt lat="47.44008" lon="6.79576">
        <ele>456</ele>
        <time>2016-03-13T09:34:28.000Z</time>
      </trkpt>
      <trkpt lat="47.44006" lon="6.79577">
        <ele>456</ele>
        <time>2016-03-13T09:34:29.000Z</time>
      </trkpt>
      <trkpt lat="47.44003" lon="6.79577">
        <ele>456</ele>
        <time>2016-03-13T09:34:31.000Z</time>
      </trkpt>
      <trkpt lat="47.44001" lon="6.79577">
        <ele>456</ele>
        <time>2016-03-13T09:34:32.000Z</time>
      </trkpt>
      <trkpt lat="47.43998" lon="6.79577">
        <ele>457</ele>
        <time>2016-03-13T09:34:33.000Z</time>
      </trkpt>
      <trkpt lat="47.43996" lon="6.79578">
        <ele>457</ele>
        <time>2016-03-13T09:34:34.000Z</time>
      </trkpt>
      <trkpt lat="47.43992" lon="6.79578">
        <ele>457</ele>
        <time>2016-03-13T09:34:36.000Z</time>
      </trkpt>
      <trkpt lat="47.43991" lon="6.79579">
        <ele>457</ele>
        <time>2016-03-13T09:34:37.000Z</time>
      </trkpt>
      <trkpt lat="47.43987" lon="6.79579">
        <ele>458</ele>
        <time>2016-03-13T09:34:39.000Z</time>
      </trkpt>
      <trkpt lat="47.43985" lon="6.79579">
        <ele>458</ele>
        <time>2016-03-13T09:34:40.000Z</time>
      </trkpt>
      <trkpt lat="47.43982" lon="6.79579">
        <ele>458</ele>
        <time>2016-03-13T09:34:41.000Z</time>
      </trkpt>
      <trkpt lat="47.4398" lon="6.79579">
        <ele>458</ele>
        <time>2016-03-13T09:34:42.000Z</time>
      </trkpt>
      <trkpt lat="47.43976" lon="6.79579">
        <ele>459</ele>
        <time>2016-03-13T09:34:45.000Z</time>
      </trkpt>
      <trkpt lat="47.43974" lon="6.79579">
        <ele>459</ele>
        <time>2016-03-13T09:34:46.000Z</time>
      </trkpt>
      <trkpt lat="47.4397" lon="6.79577">
        <ele>459</ele>
        <time>2016-03-13T09:34:48.000Z</time>
      </trkpt>
      <trkpt lat="47.43967" lon="6.79577">
        <ele>459</ele>
        <time>2016-03-13T09:34:49.000Z</time>
      </trkpt>
      <trkpt lat="47.43964" lon="6.79577">
        <ele>459</ele>
        <time>2016-03-13T09:34:51.000Z</time>
      </trkpt>
      <trkpt lat="47.43962" lon="6.79577">
        <ele>459</ele>
        <time>2016-03-13T09:34:52.000Z</time>
      </trkpt>
      <trkpt lat="47.43959" lon="6.79576">
        <ele>460</ele>
        <time>2016-03-13T09:34:54.000Z</time>
      </trkpt>
      <trkpt lat="47.43956" lon="6.79576">
        <ele>460</ele>
        <time>2016-03-13T09:34:55.000Z</time>
      </trkpt>
      <trkpt lat="47.43952" lon="6.79574">
        <ele>460</ele>
        <time>2016-03-13T09:34:57.000Z</time>
      </trkpt>
      <trkpt lat="47.43951" lon="6.79573">
        <ele>460</ele>
        <time>2016-03-13T09:34:58.000Z</time>
      </trkpt>
      <trkpt lat="47.43947" lon="6.7957">
        <ele>460</ele>
        <time>2016-03-13T09:35:01.000Z</time>
      </trkpt>
      <trkpt lat="47.43946" lon="6.79569">
        <ele>460</ele>
        <time>2016-03-13T09:35:02.000Z</time>
      </trkpt>
      <trkpt lat="47.43943" lon="6.79566">
        <ele>460</ele>
        <time>2016-03-13T09:35:04.000Z</time>
      </trkpt>
      <trkpt lat="47.43941" lon="6.79565">
        <ele>460</ele>
        <time>2016-03-13T09:35:05.000Z</time>
      </trkpt>
      <trkpt lat="47.43938" lon="6.79563">
        <ele>461</ele>
        <time>2016-03-13T09:35:06.000Z</time>
      </trkpt>
      <trkpt lat="47.43936" lon="6.79561">
        <ele>461</ele>
        <time>2016-03-13T09:35:07.000Z</time>
      </trkpt>
      <trkpt lat="47.43933" lon="6.7956">
        <ele>461</ele>
        <time>2016-03-13T09:35:08.000Z</time>
      </trkpt>
      <trkpt lat="47.4393" lon="6.79558">
        <ele>461</ele>
        <time>2016-03-13T09:35:09.000Z</time>
      </trkpt>
      <trkpt lat="47.43927" lon="6.79556">
        <ele>461</ele>
        <time>2016-03-13T09:35:10.000Z</time>
      </trkpt>
      <trkpt lat="47.43923" lon="6.79555">
        <ele>461</ele>
        <time>2016-03-13T09:35:11.000Z</time>
      </trkpt>
      <trkpt lat="47.43919" lon="6.79554">
        <ele>461</ele>
        <time>2016-03-13T09:35:12.000Z</time>
      </trkpt>
      <trkpt lat="47.43916" lon="6.79552">
        <ele>464</ele>
        <time>2016-03-13T09:35:13.000Z</time>
      </trkpt>
      <trkpt lat="47.43913" lon="6.79551">
        <ele>464</ele>
        <time>2016-03-13T09:35:14.000Z</time>
      </trkpt>
      <trkpt lat="47.4391" lon="6.79549">
        <ele>464</ele>
        <time>2016-03-13T09:35:15.000Z</time>
      </trkpt>
      <trkpt lat="47.43907" lon="6.79548">
        <ele>465</ele>
        <time>2016-03-13T09:35:16.000Z</time>
      </trkpt>
      <trkpt lat="47.43904" lon="6.79547">
        <ele>465</ele>
        <time>2016-03-13T09:35:17.000Z</time>
      </trkpt>
      <trkpt lat="47.43901" lon="6.79546">
        <ele>465</ele>
        <time>2016-03-13T09:35:18.000Z</time>
      </trkpt>
      <trkpt lat="47.43899" lon="6.79545">
        <ele>465</ele>
        <time>2016-03-13T09:35:19.000Z</time>
      </trkpt>
      <trkpt lat="47.43895" lon="6.79544">
        <ele>465</ele>
        <time>2016-03-13T09:35:21.000Z</time>
      </trkpt>
      <trkpt lat="47.43893" lon="6.79543">
        <ele>465</ele>
        <time>2016-03-13T09:35:22.000Z</time>
      </trkpt>
      <trkpt lat="47.43889" lon="6.79541">
        <ele>465</ele>
        <time>2016-03-13T09:35:24.000Z</time>
      </trkpt>
      <trkpt lat="47.43887" lon="6.7954">
        <ele>465</ele>
        <time>2016-03-13T09:35:25.000Z</time>
      </trkpt>
      <trkpt lat="47.43884" lon="6.79539">
        <ele>465</ele>
        <time>2016-03-13T09:35:26.000Z</time>
      </trkpt>
      <trkpt lat="47.43881" lon="6.79538">
        <ele>465</ele>
        <time>2016-03-13T09:35:27.000Z</time>
      </trkpt>
      <trkpt lat="47.43879" lon="6.79537">
        <ele>465</ele>
        <time>2016-03-13T09:35:28.000Z</time>
      </trkpt>
      <trkpt lat="47.43876" lon="6.79536">
        <ele>465</ele>
        <time>2016-03-13T09:35:29.000Z</time>
      </trkpt>
      <trkpt lat="47.43872" lon="6.79537">
        <ele>466</ele>
        <time>2016-03-13T09:35:31.000Z</time>
      </trkpt>
      <trkpt lat="47.43871" lon="6.79537">
        <ele>466</ele>
        <time>2016-03-13T09:35:32.000Z</time>
      </trkpt>
      <trkpt lat="47.43868" lon="6.79538">
        <ele>466</ele>
        <time>2016-03-13T09:35:34.000Z</time>
      </trkpt>
      <trkpt lat="47.43866" lon="6.79538">
        <ele>466</ele>
        <time>2016-03-13T09:35:35.000Z</time>
      </trkpt>
      <trkpt lat="47.43862" lon="6.79538">
        <ele>466</ele>
        <time>2016-03-13T09:35:37.000Z</time>
      </trkpt>
      <trkpt lat="47.4386" lon="6.79538">
        <ele>466</ele>
        <time>2016-03-13T09:35:38.000Z</time>
      </trkpt>
      <trkpt lat="47.43855" lon="6.79538">
        <ele>466</ele>
        <time>2016-03-13T09:35:41.000Z</time>
      </trkpt>
      <trkpt lat="47.43854" lon="6.79538">
        <ele>466</ele>
        <time>2016-03-13T09:35:42.000Z</time>
      </trkpt>
      <trkpt lat="47.4385" lon="6.79538">
        <ele>466</ele>
        <time>2016-03-13T09:35:44.000Z</time>
      </trkpt>
      <trkpt lat="47.43849" lon="6.79538">
        <ele>466</ele>
        <time>2016-03-13T09:35:45.000Z</time>
      </trkpt>
      <trkpt lat="47.43846" lon="6.79538">
        <ele>466</ele>
        <time>2016-03-13T09:35:47.000Z</time>
      </trkpt>
      <trkpt lat="47.43844" lon="6.79538">
        <ele>466</ele>
        <time>2016-03-13T09:35:48.000Z</time>
      </trkpt>
      <trkpt lat="47.4384" lon="6.79539">
        <ele>466</ele>
        <time>2016-03-13T09:35:50.000Z</time>
      </trkpt>
      <trkpt lat="47.43837" lon="6.7954">
        <ele>466</ele>
        <time>2016-03-13T09:35:51.000Z</time>
      </trkpt>
      <trkpt lat="47.43835" lon="6.79542">
        <ele>466</ele>
        <time>2016-03-13T09:35:52.000Z</time>
      </trkpt>
      <trkpt lat="47.43833" lon="6.79542">
        <ele>470</ele>
        <time>2016-03-13T09:35:53.000Z</time>
      </trkpt>
      <trkpt lat="47.43828" lon="6.79543">
        <ele>470</ele>
        <time>2016-03-13T09:35:55.000Z</time>
      </trkpt>
      <trkpt lat="47.43827" lon="6.79543">
        <ele>470</ele>
        <time>2016-03-13T09:35:56.000Z</time>
      </trkpt>
      <trkpt lat="47.43824" lon="6.79539">
        <ele>470</ele>
        <time>2016-03-13T09:35:58.000Z</time>
      </trkpt>
      <trkpt lat="47.43823" lon="6.79537">
        <ele>470</ele>
        <time>2016-03-13T09:35:59.000Z</time>
      </trkpt>
      <trkpt lat="47.43822" lon="6.79531">
        <ele>470</ele>
        <time>2016-03-13T09:36:02.000Z</time>
      </trkpt>
      <trkpt lat="47.43822" lon="6.79529">
        <ele>470</ele>
        <time>2016-03-13T09:36:03.000Z</time>
      </trkpt>
      <trkpt lat="47.4382" lon="6.79524">
        <ele>470</ele>
        <time>2016-03-13T09:36:11.000Z</time>
      </trkpt>
      <trkpt lat="47.43819" lon="6.79523">
        <ele>470</ele>
        <time>2016-03-13T09:36:12.000Z</time>
      </trkpt>
      <trkpt lat="47.43817" lon="6.79519">
        <ele>470</ele>
        <time>2016-03-13T09:36:15.000Z</time>
      </trkpt>
      <trkpt lat="47.43817" lon="6.79517">
        <ele>470</ele>
        <time>2016-03-13T09:36:16.000Z</time>
      </trkpt>
      <trkpt lat="47.43816" lon="6.79511">
        <ele>470</ele>
        <time>2016-03-13T09:36:19.000Z</time>
      </trkpt>
      <trkpt lat="47.43816" lon="6.7951">
        <ele>470</ele>
        <time>2016-03-13T09:36:20.000Z</time>
      </trkpt>
      <trkpt lat="47.43814" lon="6.79505">
        <ele>470</ele>
        <time>2016-03-13T09:36:22.000Z</time>
      </trkpt>
      <trkpt lat="47.43813" lon="6.79502">
        <ele>470</ele>
        <time>2016-03-13T09:36:23.000Z</time>
      </trkpt>
      <trkpt lat="47.43811" lon="6.79496">
        <ele>469</ele>
        <time>2016-03-13T09:36:25.000Z</time>
      </trkpt>
      <trkpt lat="47.43811" lon="6.79493">
        <ele>469</ele>
        <time>2016-03-13T09:36:26.000Z</time>
      </trkpt>
      <trkpt lat="47.4381" lon="6.79488">
        <ele>469</ele>
        <time>2016-03-13T09:36:28.000Z</time>
      </trkpt>
      <trkpt lat="47.43809" lon="6.79486">
        <ele>469</ele>
        <time>2016-03-13T09:36:29.000Z</time>
      </trkpt>
      <trkpt lat="47.43809" lon="6.7948">
        <ele>469</ele>
        <time>2016-03-13T09:36:32.000Z</time>
      </trkpt>
      <trkpt lat="47.43809" lon="6.79477">
        <ele>469</ele>
        <time>2016-03-13T09:36:33.000Z</time>
      </trkpt>
      <trkpt lat="47.4381" lon="6.79471">
        <ele>469</ele>
        <time>2016-03-13T09:36:35.000Z</time>
      </trkpt>
      <trkpt lat="47.4381" lon="6.79468">
        <ele>469</ele>
        <time>2016-03-13T09:36:36.000Z</time>
      </trkpt>
      <trkpt lat="47.4381" lon="6.79464">
        <ele>469</ele>
        <time>2016-03-13T09:36:37.000Z</time>
      </trkpt>
      <trkpt lat="47.4381" lon="6.79461">
        <ele>469</ele>
        <time>2016-03-13T09:36:38.000Z</time>
      </trkpt>
      <trkpt lat="47.43809" lon="6.79456">
        <ele>468</ele>
        <time>2016-03-13T09:36:40.000Z</time>
      </trkpt>
      <trkpt lat="47.43809" lon="6.79453">
        <ele>468</ele>
        <time>2016-03-13T09:36:41.000Z</time>
      </trkpt>
      <trkpt lat="47.43808" lon="6.7945">
        <ele>468</ele>
        <time>2016-03-13T09:36:42.000Z</time>
      </trkpt>
      <trkpt lat="47.43807" lon="6.79446">
        <ele>468</ele>
        <time>2016-03-13T09:36:43.000Z</time>
      </trkpt>
      <trkpt lat="47.43806" lon="6.79443">
        <ele>468</ele>
        <time>2016-03-13T09:36:44.000Z</time>
      </trkpt>
      <trkpt lat="47.43805" lon="6.7944">
        <ele>468</ele>
        <time>2016-03-13T09:36:45.000Z</time>
      </trkpt>
      <trkpt lat="47.43804" lon="6.79437">
        <ele>468</ele>
        <time>2016-03-13T09:36:46.000Z</time>
      </trkpt>
      <trkpt lat="47.43802" lon="6.79433">
        <ele>468</ele>
        <time>2016-03-13T09:36:47.000Z</time>
      </trkpt>
      <trkpt lat="47.438" lon="6.7943">
        <ele>468</ele>
        <time>2016-03-13T09:36:48.000Z</time>
      </trkpt>
      <trkpt lat="47.43798" lon="6.79427">
        <ele>468</ele>
        <time>2016-03-13T09:36:49.000Z</time>
      </trkpt>
      <trkpt lat="47.43796" lon="6.79424">
        <ele>468</ele>
        <time>2016-03-13T09:36:50.000Z</time>
      </trkpt>
      <trkpt lat="47.43793" lon="6.79421">
        <ele>468</ele>
        <time>2016-03-13T09:36:51.000Z</time>
      </trkpt>
      <trkpt lat="47.43791" lon="6.79419">
        <ele>468</ele>
        <time>2016-03-13T09:36:52.000Z</time>
      </trkpt>
      <trkpt lat="47.43789" lon="6.79417">
        <ele>469</ele>
        <time>2016-03-13T09:36:53.000Z</time>
      </trkpt>
      <trkpt lat="47.43785" lon="6.79415">
        <ele>458</ele>
        <time>2016-03-13T09:36:55.000Z</time>
      </trkpt>
      <trkpt lat="47.43783" lon="6.79414">
        <ele>458</ele>
        <time>2016-03-13T09:36:56.000Z</time>
      </trkpt>
      <trkpt lat="47.4378" lon="6.79413">
        <ele>459</ele>
        <time>2016-03-13T09:36:58.000Z</time>
      </trkpt>
      <trkpt lat="47.43779" lon="6.79413">
        <ele>459</ele>
        <time>2016-03-13T09:36:59.000Z</time>
      </trkpt>
      <trkpt lat="47.43774" lon="6.79412">
        <ele>459</ele>
        <time>2016-03-13T09:37:01.000Z</time>
      </trkpt>
      <trkpt lat="47.43772" lon="6.79412">
        <ele>460</ele>
        <time>2016-03-13T09:37:02.000Z</time>
      </trkpt>
      <trkpt lat="47.4377" lon="6.79411">
        <ele>460</ele>
        <time>2016-03-13T09:37:03.000Z</time>
      </trkpt>
      <trkpt lat="47.43768" lon="6.7941">
        <ele>461</ele>
        <time>2016-03-13T09:37:04.000Z</time>
      </trkpt>
      <trkpt lat="47.43764" lon="6.79411">
        <ele>462</ele>
        <time>2016-03-13T09:37:06.000Z</time>
      </trkpt>
      <trkpt lat="47.43762" lon="6.79412">
        <ele>463</ele>
        <time>2016-03-13T09:37:07.000Z</time>
      </trkpt>
      <trkpt lat="47.43758" lon="6.79414">
        <ele>465</ele>
        <time>2016-03-13T09:37:09.000Z</time>
      </trkpt>
      <trkpt lat="47.43756" lon="6.79415">
        <ele>466</ele>
        <time>2016-03-13T09:37:10.000Z</time>
      </trkpt>
      <trkpt lat="47.43754" lon="6.79416">
        <ele>467</ele>
        <time>2016-03-13T09:37:11.000Z</time>
      </trkpt>
      <trkpt lat="47.43752" lon="6.79416">
        <ele>469</ele>
        <time>2016-03-13T09:37:12.000Z</time>
      </trkpt>
      <trkpt lat="47.43748" lon="6.79417">
        <ele>470</ele>
        <time>2016-03-13T09:37:14.000Z</time>
      </trkpt>
      <trkpt lat="47.43746" lon="6.79417">
        <ele>470</ele>
        <time>2016-03-13T09:37:15.000Z</time>
      </trkpt>
      <trkpt lat="47.43742" lon="6.79415">
        <ele>465</ele>
        <time>2016-03-13T09:37:18.000Z</time>
      </trkpt>
      <trkpt lat="47.4374" lon="6.79414">
        <ele>464</ele>
        <time>2016-03-13T09:37:19.000Z</time>
      </trkpt>
      <trkpt lat="47.43736" lon="6.79412">
        <ele>462</ele>
        <time>2016-03-13T09:37:21.000Z</time>
      </trkpt>
      <trkpt lat="47.43734" lon="6.79412">
        <ele>461</ele>
        <time>2016-03-13T09:37:22.000Z</time>
      </trkpt>
      <trkpt lat="47.4373" lon="6.79412">
        <ele>460</ele>
        <time>2016-03-13T09:37:24.000Z</time>
      </trkpt>
      <trkpt lat="47.43728" lon="6.79412">
        <ele>460</ele>
        <time>2016-03-13T09:37:25.000Z</time>
      </trkpt>
      <trkpt lat="47.43725" lon="6.79412">
        <ele>459</ele>
        <time>2016-03-13T09:37:27.000Z</time>
      </trkpt>
      <trkpt lat="47.43723" lon="6.79413">
        <ele>459</ele>
        <time>2016-03-13T09:37:28.000Z</time>
      </trkpt>
      <trkpt lat="47.43721" lon="6.79414">
        <ele>459</ele>
        <time>2016-03-13T09:37:29.000Z</time>
      </trkpt>
      <trkpt lat="47.43718" lon="6.79415">
        <ele>459</ele>
        <time>2016-03-13T09:37:30.000Z</time>
      </trkpt>
      <trkpt lat="47.43716" lon="6.79417">
        <ele>471</ele>
        <time>2016-03-13T09:37:31.000Z</time>
      </trkpt>
      <trkpt lat="47.43713" lon="6.79419">
        <ele>471</ele>
        <time>2016-03-13T09:37:32.000Z</time>
      </trkpt>
      <trkpt lat="47.43711" lon="6.79422">
        <ele>471</ele>
        <time>2016-03-13T09:37:33.000Z</time>
      </trkpt>
      <trkpt lat="47.43709" lon="6.79425">
        <ele>471</ele>
        <time>2016-03-13T09:37:34.000Z</time>
      </trkpt>
      <trkpt lat="47.43706" lon="6.79427">
        <ele>471</ele>
        <time>2016-03-13T09:37:35.000Z</time>
      </trkpt>
      <trkpt lat="47.43704" lon="6.79428">
        <ele>471</ele>
        <time>2016-03-13T09:37:36.000Z</time>
      </trkpt>
      <trkpt lat="47.43701" lon="6.79429">
        <ele>471</ele>
        <time>2016-03-13T09:37:37.000Z</time>
      </trkpt>
      <trkpt lat="47.43699" lon="6.79429">
        <ele>471</ele>
        <time>2016-03-13T09:37:38.000Z</time>
      </trkpt>
      <trkpt lat="47.43694" lon="6.79429">
        <ele>471</ele>
        <time>2016-03-13T09:37:40.000Z</time>
      </trkpt>
      <trkpt lat="47.43692" lon="6.79429">
        <ele>471</ele>
        <time>2016-03-13T09:37:41.000Z</time>
      </trkpt>
      <trkpt lat="47.43688" lon="6.79428">
        <ele>471</ele>
        <time>2016-03-13T09:37:43.000Z</time>
      </trkpt>
      <trkpt lat="47.43686" lon="6.79428">
        <ele>471</ele>
        <time>2016-03-13T09:37:44.000Z</time>
      </trkpt>
      <trkpt lat="47.43684" lon="6.79428">
        <ele>470</ele>
        <time>2016-03-13T09:37:45.000Z</time>
      </trkpt>
      <trkpt lat="47.43682" lon="6.79429">
        <ele>470</ele>
        <time>2016-03-13T09:37:46.000Z</time>
      </trkpt>
      <trkpt lat="47.43679" lon="6.7943">
        <ele>470</ele>
        <time>2016-03-13T09:37:47.000Z</time>
      </trkpt>
      <trkpt lat="47.43677" lon="6.7943">
        <ele>470</ele>
        <time>2016-03-13T09:37:48.000Z</time>
      </trkpt>
      <trkpt lat="47.43673" lon="6.79432">
        <ele>470</ele>
        <time>2016-03-13T09:37:50.000Z</time>
      </trkpt>
      <trkpt lat="47.43672" lon="6.79433">
        <ele>470</ele>
        <time>2016-03-13T09:37:51.000Z</time>
      </trkpt>
      <trkpt lat="47.43669" lon="6.79434">
        <ele>470</ele>
        <time>2016-03-13T09:37:53.000Z</time>
      </trkpt>
      <trkpt lat="47.43667" lon="6.79434">
        <ele>470</ele>
        <time>2016-03-13T09:37:54.000Z</time>
      </trkpt>
      <trkpt lat="47.43663" lon="6.79434">
        <ele>471</ele>
        <time>2016-03-13T09:37:56.000Z</time>
      </trkpt>
      <trkpt lat="47.43661" lon="6.79433">
        <ele>471</ele>
        <time>2016-03-13T09:37:57.000Z</time>
      </trkpt>
      <trkpt lat="47.43657" lon="6.79432">
        <ele>471</ele>
        <time>2016-03-13T09:38:00.000Z</time>
      </trkpt>
      <trkpt lat="47.43655" lon="6.79432">
        <ele>471</ele>
        <time>2016-03-13T09:38:01.000Z</time>
      </trkpt>
      <trkpt lat="47.43651" lon="6.79432">
        <ele>471</ele>
        <time>2016-03-13T09:38:03.000Z</time>
      </trkpt>
      <trkpt lat="47.43649" lon="6.79432">
        <ele>471</ele>
        <time>2016-03-13T09:38:04.000Z</time>
      </trkpt>
      <trkpt lat="47.43645" lon="6.7943">
        <ele>471</ele>
        <time>2016-03-13T09:38:06.000Z</time>
      </trkpt>
      <trkpt lat="47.43644" lon="6.79429">
        <ele>471</ele>
        <time>2016-03-13T09:38:07.000Z</time>
      </trkpt>
      <trkpt lat="47.43642" lon="6.79427">
        <ele>471</ele>
        <time>2016-03-13T09:38:08.000Z</time>
      </trkpt>
      <trkpt lat="47.43639" lon="6.79427">
        <ele>471</ele>
        <time>2016-03-13T09:38:09.000Z</time>
      </trkpt>
      <trkpt lat="47.43635" lon="6.79427">
        <ele>471</ele>
        <time>2016-03-13T09:38:11.000Z</time>
      </trkpt>
      <trkpt lat="47.43632" lon="6.79427">
        <ele>471</ele>
        <time>2016-03-13T09:38:12.000Z</time>
      </trkpt>
      <trkpt lat="47.4363" lon="6.79427">
        <ele>471</ele>
        <time>2016-03-13T09:38:13.000Z</time>
      </trkpt>
      <trkpt lat="47.43627" lon="6.79427">
        <ele>471</ele>
        <time>2016-03-13T09:38:14.000Z</time>
      </trkpt>
      <trkpt lat="47.43623" lon="6.79427">
        <ele>471</ele>
        <time>2016-03-13T09:38:15.000Z</time>
      </trkpt>
      <trkpt lat="47.43621" lon="6.79427">
        <ele>471</ele>
        <time>2016-03-13T09:38:16.000Z</time>
      </trkpt>
      <trkpt lat="47.43618" lon="6.79428">
        <ele>471</ele>
        <time>2016-03-13T09:38:17.000Z</time>
      </trkpt>
      <trkpt lat="47.43615" lon="6.79428">
        <ele>471</ele>
        <time>2016-03-13T09:38:18.000Z</time>
      </trkpt>
      <trkpt lat="47.43613" lon="6.79429">
        <ele>471</ele>
        <time>2016-03-13T09:38:19.000Z</time>
      </trkpt>
      <trkpt lat="47.43611" lon="6.79429">
        <ele>471</ele>
        <time>2016-03-13T09:38:20.000Z</time>
      </trkpt>
      <trkpt lat="47.43608" lon="6.79429">
        <ele>470</ele>
        <time>2016-03-13T09:38:21.000Z</time>
      </trkpt>
      <trkpt lat="47.43606" lon="6.79429">
        <ele>470</ele>
        <time>2016-03-13T09:38:22.000Z</time>
      </trkpt>
      <trkpt lat="47.43604" lon="6.79428">
        <ele>470</ele>
        <time>2016-03-13T09:38:23.000Z</time>
      </trkpt>
      <trkpt lat="47.43601" lon="6.79428">
        <ele>470</ele>
        <time>2016-03-13T09:38:24.000Z</time>
      </trkpt>
      <trkpt lat="47.43599" lon="6.7943">
        <ele>470</ele>
        <time>2016-03-13T09:38:25.000Z</time>
      </trkpt>
      <trkpt lat="47.43596" lon="6.79431">
        <ele>470</ele>
        <time>2016-03-13T09:38:26.000Z</time>
      </trkpt>
      <trkpt lat="47.43594" lon="6.79433">
        <ele>470</ele>
        <time>2016-03-13T09:38:27.000Z</time>
      </trkpt>
      <trkpt lat="47.43591" lon="6.79435">
        <ele>470</ele>
        <time>2016-03-13T09:38:28.000Z</time>
      </trkpt>
      <trkpt lat="47.43589" lon="6.79437">
        <ele>470</ele>
        <time>2016-03-13T09:38:29.000Z</time>
      </trkpt>
      <trkpt lat="47.43587" lon="6.79438">
        <ele>470</ele>
        <time>2016-03-13T09:38:30.000Z</time>
      </trkpt>
      <trkpt lat="47.43584" lon="6.79437">
        <ele>470</ele>
        <time>2016-03-13T09:38:32.000Z</time>
      </trkpt>
      <trkpt lat="47.43582" lon="6.79437">
        <ele>467</ele>
        <time>2016-03-13T09:38:33.000Z</time>
      </trkpt>
      <trkpt lat="47.4358" lon="6.79437">
        <ele>467</ele>
        <time>2016-03-13T09:38:34.000Z</time>
      </trkpt>
      <trkpt lat="47.43577" lon="6.79439">
        <ele>467</ele>
        <time>2016-03-13T09:38:35.000Z</time>
      </trkpt>
      <trkpt lat="47.43574" lon="6.7944">
        <ele>467</ele>
        <time>2016-03-13T09:38:36.000Z</time>
      </trkpt>
      <trkpt lat="47.43572" lon="6.79441">
        <ele>467</ele>
        <time>2016-03-13T09:38:37.000Z</time>
      </trkpt>
      <trkpt lat="47.43569" lon="6.79442">
        <ele>467</ele>
        <time>2016-03-13T09:38:38.000Z</time>
      </trkpt>
      <trkpt lat="47.43566" lon="6.79443">
        <ele>467</ele>
        <time>2016-03-13T09:38:39.000Z</time>
      </trkpt>
      <trkpt lat="47.43563" lon="6.79445">
        <ele>467</ele>
        <time>2016-03-13T09:38:40.000Z</time>
      </trkpt>
      <trkpt lat="47.43559" lon="6.79446">
        <ele>467</ele>
        <time>2016-03-13T09:38:41.000Z</time>
      </trkpt>
      <trkpt lat="47.43556" lon="6.79447">
        <ele>467</ele>
        <time>2016-03-13T09:38:42.000Z</time>
      </trkpt>
      <trkpt lat="47.43554" lon="6.79448">
        <ele>467</ele>
        <time>2016-03-13T09:38:43.000Z</time>
      </trkpt>
      <trkpt lat="47.43551" lon="6.7945">
        <ele>467</ele>
        <time>2016-03-13T09:38:44.000Z</time>
      </trkpt>
      <trkpt lat="47.43549" lon="6.79451">
        <ele>467</ele>
        <time>2016-03-13T09:38:45.000Z</time>
      </trkpt>
      <trkpt lat="47.43545" lon="6.79454">
        <ele>467</ele>
        <time>2016-03-13T09:38:47.000Z</time>
      </trkpt>
      <trkpt lat="47.43543" lon="6.79454">
        <ele>467</ele>
        <time>2016-03-13T09:38:48.000Z</time>
      </trkpt>
      <trkpt lat="47.4354" lon="6.79455">
        <ele>467</ele>
        <time>2016-03-13T09:38:49.000Z</time>
      </trkpt>
      <trkpt lat="47.43536" lon="6.79456">
        <ele>467</ele>
        <time>2016-03-13T09:38:50.000Z</time>
      </trkpt>
      <trkpt lat="47.43533" lon="6.79456">
        <ele>467</ele>
        <time>2016-03-13T09:38:51.000Z</time>
      </trkpt>
      <trkpt lat="47.4353" lon="6.79457">
        <ele>466</ele>
        <time>2016-03-13T09:38:52.000Z</time>
      </trkpt>
      <trkpt lat="47.43527" lon="6.79458">
        <ele>466</ele>
        <time>2016-03-13T09:38:53.000Z</time>
      </trkpt>
      <trkpt lat="47.43524" lon="6.79458">
        <ele>466</ele>
        <time>2016-03-13T09:38:54.000Z</time>
      </trkpt>
      <trkpt lat="47.4352" lon="6.79458">
        <ele>466</ele>
        <time>2016-03-13T09:38:55.000Z</time>
      </trkpt>
      <trkpt lat="47.43516" lon="6.79459">
        <ele>466</ele>
        <time>2016-03-13T09:38:56.000Z</time>
      </trkpt>
      <trkpt lat="47.43512" lon="6.7946">
        <ele>466</ele>
        <time>2016-03-13T09:38:57.000Z</time>
      </trkpt>
      <trkpt lat="47.43508" lon="6.79461">
        <ele>466</ele>
        <time>2016-03-13T09:38:58.000Z</time>
      </trkpt>
      <trkpt lat="47.43505" lon="6.79462">
        <ele>467</ele>
        <time>2016-03-13T09:38:59.000Z</time>
      </trkpt>
      <trkpt lat="47.43502" lon="6.79464">
        <ele>467</ele>
        <time>2016-03-13T09:39:00.000Z</time>
      </trkpt>
      <trkpt lat="47.435" lon="6.79466">
        <ele>458</ele>
        <time>2016-03-13T09:39:01.000Z</time>
      </trkpt>
      <trkpt lat="47.43498" lon="6.79468">
        <ele>459</ele>
        <time>2016-03-13T09:39:02.000Z</time>
      </trkpt>
      <trkpt lat="47.43496" lon="6.7947">
        <ele>459</ele>
        <time>2016-03-13T09:39:03.000Z</time>
      </trkpt>
      <trkpt lat="47.43494" lon="6.79473">
        <ele>460</ele>
        <time>2016-03-13T09:39:04.000Z</time>
      </trkpt>
      <trkpt lat="47.43492" lon="6.79476">
        <ele>461</ele>
        <time>2016-03-13T09:39:05.000Z</time>
      </trkpt>
      <trkpt lat="47.43489" lon="6.79478">
        <ele>462</ele>
        <time>2016-03-13T09:39:06.000Z</time>
      </trkpt>
      <trkpt lat="47.43487" lon="6.7948">
        <ele>462</ele>
        <time>2016-03-13T09:39:07.000Z</time>
      </trkpt>
      <trkpt lat="47.43484" lon="6.79481">
        <ele>462</ele>
        <time>2016-03-13T09:39:08.000Z</time>
      </trkpt>
      <trkpt lat="47.43482" lon="6.79483">
        <ele>462</ele>
        <time>2016-03-13T09:39:09.000Z</time>
      </trkpt>
      <trkpt lat="47.43479" lon="6.79485">
        <ele>462</ele>
        <time>2016-03-13T09:39:10.000Z</time>
      </trkpt>
      <trkpt lat="47.43476" lon="6.79488">
        <ele>462</ele>
        <time>2016-03-13T09:39:11.000Z</time>
      </trkpt>
      <trkpt lat="47.43473" lon="6.79491">
        <ele>461</ele>
        <time>2016-03-13T09:39:12.000Z</time>
      </trkpt>
      <trkpt lat="47.4347" lon="6.79495">
        <ele>461</ele>
        <time>2016-03-13T09:39:13.000Z</time>
      </trkpt>
      <trkpt lat="47.43467" lon="6.79498">
        <ele>461</ele>
        <time>2016-03-13T09:39:14.000Z</time>
      </trkpt>
      <trkpt lat="47.43464" lon="6.79502">
        <ele>477</ele>
        <time>2016-03-13T09:39:15.000Z</time>
      </trkpt>
      <trkpt lat="47.43461" lon="6.79505">
        <ele>477</ele>
        <time>2016-03-13T09:39:16.000Z</time>
      </trkpt>
      <trkpt lat="47.43457" lon="6.79508">
        <ele>477</ele>
        <time>2016-03-13T09:39:17.000Z</time>
      </trkpt>
      <trkpt lat="47.43454" lon="6.7951">
        <ele>476</ele>
        <time>2016-03-13T09:39:18.000Z</time>
      </trkpt>
      <trkpt lat="47.43451" lon="6.79513">
        <ele>476</ele>
        <time>2016-03-13T09:39:19.000Z</time>
      </trkpt>
      <trkpt lat="47.43448" lon="6.79516">
        <ele>476</ele>
        <time>2016-03-13T09:39:20.000Z</time>
      </trkpt>
      <trkpt lat="47.43445" lon="6.79519">
        <ele>476</ele>
        <time>2016-03-13T09:39:22.000Z</time>
      </trkpt>
      <trkpt lat="47.43443" lon="6.7952">
        <ele>476</ele>
        <time>2016-03-13T09:39:23.000Z</time>
      </trkpt>
      <trkpt lat="47.4344" lon="6.79521">
        <ele>476</ele>
        <time>2016-03-13T09:39:24.000Z</time>
      </trkpt>
      <trkpt lat="47.43438" lon="6.79521">
        <ele>475</ele>
        <time>2016-03-13T09:39:25.000Z</time>
      </trkpt>
      <trkpt lat="47.43435" lon="6.79522">
        <ele>475</ele>
        <time>2016-03-13T09:39:27.000Z</time>
      </trkpt>
      <trkpt lat="47.43433" lon="6.79521">
        <ele>475</ele>
        <time>2016-03-13T09:39:28.000Z</time>
      </trkpt>
      <trkpt lat="47.43431" lon="6.7952">
        <ele>474</ele>
        <time>2016-03-13T09:39:29.000Z</time>
      </trkpt>
      <trkpt lat="47.43428" lon="6.79518">
        <ele>474</ele>
        <time>2016-03-13T09:39:30.000Z</time>
      </trkpt>
      <trkpt lat="47.43426" lon="6.79517">
        <ele>473</ele>
        <time>2016-03-13T09:39:31.000Z</time>
      </trkpt>
      <trkpt lat="47.43423" lon="6.79517">
        <ele>472</ele>
        <time>2016-03-13T09:39:32.000Z</time>
      </trkpt>
      <trkpt lat="47.43419" lon="6.79518">
        <ele>472</ele>
        <time>2016-03-13T09:39:33.000Z</time>
      </trkpt>
      <trkpt lat="47.43416" lon="6.79518">
        <ele>469</ele>
        <time>2016-03-13T09:39:34.000Z</time>
      </trkpt>
      <trkpt lat="47.43412" lon="6.79519">
        <ele>469</ele>
        <time>2016-03-13T09:39:35.000Z</time>
      </trkpt>
      <trkpt lat="47.43408" lon="6.7952">
        <ele>469</ele>
        <time>2016-03-13T09:39:36.000Z</time>
      </trkpt>
      <trkpt lat="47.43405" lon="6.79521">
        <ele>469</ele>
        <time>2016-03-13T09:39:37.000Z</time>
      </trkpt>
      <trkpt lat="47.43402" lon="6.79522">
        <ele>469</ele>
        <time>2016-03-13T09:39:38.000Z</time>
      </trkpt>
      <trkpt lat="47.43398" lon="6.79522">
        <ele>469</ele>
        <time>2016-03-13T09:39:40.000Z</time>
      </trkpt>
      <trkpt lat="47.43395" lon="6.79522">
        <ele>469</ele>
        <time>2016-03-13T09:39:41.000Z</time>
      </trkpt>
      <trkpt lat="47.43393" lon="6.79522">
        <ele>469</ele>
        <time>2016-03-13T09:39:42.000Z</time>
      </trkpt>
      <trkpt lat="47.43391" lon="6.79523">
        <ele>469</ele>
        <time>2016-03-13T09:39:43.000Z</time>
      </trkpt>
      <trkpt lat="47.43388" lon="6.79524">
        <ele>469</ele>
        <time>2016-03-13T09:39:44.000Z</time>
      </trkpt>
      <trkpt lat="47.43386" lon="6.79526">
        <ele>470</ele>
        <time>2016-03-13T09:39:45.000Z</time>
      </trkpt>
      <trkpt lat="47.43383" lon="6.79526">
        <ele>469</ele>
        <time>2016-03-13T09:39:46.000Z</time>
      </trkpt>
      <trkpt lat="47.43381" lon="6.79527">
        <ele>469</ele>
        <time>2016-03-13T09:39:47.000Z</time>
      </trkpt>
      <trkpt lat="47.43376" lon="6.79526">
        <ele>469</ele>
        <time>2016-03-13T09:39:49.000Z</time>
      </trkpt>
      <trkpt lat="47.43374" lon="6.79526">
        <ele>469</ele>
        <time>2016-03-13T09:39:50.000Z</time>
      </trkpt>
      <trkpt lat="47.4337" lon="6.79526">
        <ele>469</ele>
        <time>2016-03-13T09:39:52.000Z</time>
      </trkpt>
      <trkpt lat="47.43369" lon="6.79526">
        <ele>468</ele>
        <time>2016-03-13T09:39:53.000Z</time>
      </trkpt>
      <trkpt lat="47.43366" lon="6.79528">
        <ele>468</ele>
        <time>2016-03-13T09:39:56.000Z</time>
      </trkpt>
      <trkpt lat="47.43364" lon="6.79527">
        <ele>468</ele>
        <time>2016-03-13T09:39:57.000Z</time>
      </trkpt>
      <trkpt lat="47.4336" lon="6.79527">
        <ele>468</ele>
        <time>2016-03-13T09:39:59.000Z</time>
      </trkpt>
      <trkpt lat="47.43358" lon="6.79526">
        <ele>467</ele>
        <time>2016-03-13T09:40:00.000Z</time>
      </trkpt>
      <trkpt lat="47.43354" lon="6.79526">
        <ele>467</ele>
        <time>2016-03-13T09:40:02.000Z</time>
      </trkpt>
      <trkpt lat="47.43352" lon="6.79526">
        <ele>466</ele>
        <time>2016-03-13T09:40:03.000Z</time>
      </trkpt>
      <trkpt lat="47.43348" lon="6.79528">
        <ele>466</ele>
        <time>2016-03-13T09:40:05.000Z</time>
      </trkpt>
      <trkpt lat="47.43346" lon="6.7953">
        <ele>467</ele>
        <time>2016-03-13T09:40:06.000Z</time>
      </trkpt>
      <trkpt lat="47.43343" lon="6.79531">
        <ele>467</ele>
        <time>2016-03-13T09:40:07.000Z</time>
      </trkpt>
      <trkpt lat="47.43341" lon="6.79533">
        <ele>468</ele>
        <time>2016-03-13T09:40:08.000Z</time>
      </trkpt>
      <trkpt lat="47.43339" lon="6.79534">
        <ele>468</ele>
        <time>2016-03-13T09:40:09.000Z</time>
      </trkpt>
      <trkpt lat="47.43336" lon="6.79534">
        <ele>468</ele>
        <time>2016-03-13T09:40:10.000Z</time>
      </trkpt>
      <trkpt lat="47.43332" lon="6.79535">
        <ele>465</ele>
        <time>2016-03-13T09:40:12.000Z</time>
      </trkpt>
      <trkpt lat="47.4333" lon="6.79536">
        <ele>465</ele>
        <time>2016-03-13T09:40:13.000Z</time>
      </trkpt>
      <trkpt lat="47.43327" lon="6.79538">
        <ele>466</ele>
        <time>2016-03-13T09:40:15.000Z</time>
      </trkpt>
      <trkpt lat="47.43325" lon="6.79539">
        <ele>466</ele>
        <time>2016-03-13T09:40:16.000Z</time>
      </trkpt>
      <trkpt lat="47.43322" lon="6.7954">
        <ele>467</ele>
        <time>2016-03-13T09:40:17.000Z</time>
      </trkpt>
      <trkpt lat="47.4332" lon="6.79541">
        <ele>467</ele>
        <time>2016-03-13T09:40:18.000Z</time>
      </trkpt>
      <trkpt lat="47.43317" lon="6.79542">
        <ele>467</ele>
        <time>2016-03-13T09:40:19.000Z</time>
      </trkpt>
      <trkpt lat="47.43315" lon="6.79543">
        <ele>467</ele>
        <time>2016-03-13T09:40:20.000Z</time>
      </trkpt>
      <trkpt lat="47.43313" lon="6.79544">
        <ele>468</ele>
        <time>2016-03-13T09:40:21.000Z</time>
      </trkpt>
      <trkpt lat="47.4331" lon="6.79546">
        <ele>468</ele>
        <time>2016-03-13T09:40:22.000Z</time>
      </trkpt>
      <trkpt lat="47.43307" lon="6.79547">
        <ele>468</ele>
        <time>2016-03-13T09:40:24.000Z</time>
      </trkpt>
      <trkpt lat="47.43305" lon="6.79547">
        <ele>468</ele>
        <time>2016-03-13T09:40:25.000Z</time>
      </trkpt>
      <trkpt lat="47.433" lon="6.79548">
        <ele>468</ele>
        <time>2016-03-13T09:40:27.000Z</time>
      </trkpt>
      <trkpt lat="47.43298" lon="6.79548">
        <ele>468</ele>
        <time>2016-03-13T09:40:28.000Z</time>
      </trkpt>
      <trkpt lat="47.43295" lon="6.79547">
        <ele>468</ele>
        <time>2016-03-13T09:40:29.000Z</time>
      </trkpt>
      <trkpt lat="47.43293" lon="6.79547">
        <ele>468</ele>
        <time>2016-03-13T09:40:30.000Z</time>
      </trkpt>
      <trkpt lat="47.43289" lon="6.79548">
        <ele>468</ele>
        <time>2016-03-13T09:40:32.000Z</time>
      </trkpt>
      <trkpt lat="47.43287" lon="6.79548">
        <ele>468</ele>
        <time>2016-03-13T09:40:33.000Z</time>
      </trkpt>
      <trkpt lat="47.43285" lon="6.79548">
        <ele>468</ele>
        <time>2016-03-13T09:40:34.000Z</time>
      </trkpt>
      <trkpt lat="47.43282" lon="6.79547">
        <ele>468</ele>
        <time>2016-03-13T09:40:35.000Z</time>
      </trkpt>
      <trkpt lat="47.43279" lon="6.79545">
        <ele>467</ele>
        <time>2016-03-13T09:40:36.000Z</time>
      </trkpt>
      <trkpt lat="47.43275" lon="6.79544">
        <ele>467</ele>
        <time>2016-03-13T09:40:37.000Z</time>
      </trkpt>
      <trkpt lat="47.43271" lon="6.79544">
        <ele>467</ele>
        <time>2016-03-13T09:40:38.000Z</time>
      </trkpt>
      <trkpt lat="47.43268" lon="6.79544">
        <ele>467</ele>
        <time>2016-03-13T09:40:39.000Z</time>
      </trkpt>
      <trkpt lat="47.43264" lon="6.79544">
        <ele>467</ele>
        <time>2016-03-13T09:40:40.000Z</time>
      </trkpt>
      <trkpt lat="47.43261" lon="6.79544">
        <ele>467</ele>
        <time>2016-03-13T09:40:41.000Z</time>
      </trkpt>
      <trkpt lat="47.43258" lon="6.79543">
        <ele>467</ele>
        <time>2016-03-13T09:40:42.000Z</time>
      </trkpt>
      <trkpt lat="47.43255" lon="6.79542">
        <ele>466</ele>
        <time>2016-03-13T09:40:43.000Z</time>
      </trkpt>
      <trkpt lat="47.43251" lon="6.7954">
        <ele>466</ele>
        <time>2016-03-13T09:40:44.000Z</time>
      </trkpt>
      <trkpt lat="47.43248" lon="6.79538">
        <ele>464</ele>
        <time>2016-03-13T09:40:45.000Z</time>
      </trkpt>
      <trkpt lat="47.43245" lon="6.79536">
        <ele>463</ele>
        <time>2016-03-13T09:40:46.000Z</time>
      </trkpt>
      <trkpt lat="47.43241" lon="6.79534">
        <ele>462</ele>
        <time>2016-03-13T09:40:47.000Z</time>
      </trkpt>
      <trkpt lat="47.43238" lon="6.79533">
        <ele>462</ele>
        <time>2016-03-13T09:40:48.000Z</time>
      </trkpt>
      <trkpt lat="47.43234" lon="6.79531">
        <ele>462</ele>
        <time>2016-03-13T09:40:49.000Z</time>
      </trkpt>
      <trkpt lat="47.43232" lon="6.7953">
        <ele>461</ele>
        <time>2016-03-13T09:40:50.000Z</time>
      </trkpt>
      <trkpt lat="47.43228" lon="6.7953">
        <ele>462</ele>
        <time>2016-03-13T09:40:51.000Z</time>
      </trkpt>
      <trkpt lat="47.43225" lon="6.7953">
        <ele>462</ele>
        <time>2016-03-13T09:40:52.000Z</time>
      </trkpt>
      <trkpt lat="47.43222" lon="6.7953">
        <ele>462</ele>
        <time>2016-03-13T09:40:53.000Z</time>
      </trkpt>
      <trkpt lat="47.43219" lon="6.79531">
        <ele>462</ele>
        <time>2016-03-13T09:40:54.000Z</time>
      </trkpt>
      <trkpt lat="47.43216" lon="6.79532">
        <ele>463</ele>
        <time>2016-03-13T09:40:55.000Z</time>
      </trkpt>
      <trkpt lat="47.43213" lon="6.79534">
        <ele>463</ele>
        <time>2016-03-13T09:40:56.000Z</time>
      </trkpt>
      <trkpt lat="47.43211" lon="6.79537">
        <ele>464</ele>
        <time>2016-03-13T09:40:57.000Z</time>
      </trkpt>
      <trkpt lat="47.43208" lon="6.79538">
        <ele>464</ele>
        <time>2016-03-13T09:40:58.000Z</time>
      </trkpt>
      <trkpt lat="47.43205" lon="6.7954">
        <ele>465</ele>
        <time>2016-03-13T09:40:59.000Z</time>
      </trkpt>
      <trkpt lat="47.43202" lon="6.79541">
        <ele>465</ele>
        <time>2016-03-13T09:41:00.000Z</time>
      </trkpt>
      <trkpt lat="47.43199" lon="6.79541">
        <ele>465</ele>
        <time>2016-03-13T09:41:01.000Z</time>
      </trkpt>
      <trkpt lat="47.43195" lon="6.79542">
        <ele>465</ele>
        <time>2016-03-13T09:41:02.000Z</time>
      </trkpt>
      <trkpt lat="47.43192" lon="6.79544">
        <ele>465</ele>
        <time>2016-03-13T09:41:03.000Z</time>
      </trkpt>
      <trkpt lat="47.43188" lon="6.79546">
        <ele>466</ele>
        <time>2016-03-13T09:41:04.000Z</time>
      </trkpt>
      <trkpt lat="47.43184" lon="6.79549">
        <ele>467</ele>
        <time>2016-03-13T09:41:05.000Z</time>
      </trkpt>
      <trkpt lat="47.43181" lon="6.79553">
        <ele>469</ele>
        <time>2016-03-13T09:41:06.000Z</time>
      </trkpt>
      <trkpt lat="47.43178" lon="6.79557">
        <ele>470</ele>
        <time>2016-03-13T09:41:07.000Z</time>
      </trkpt>
      <trkpt lat="47.43176" lon="6.79562">
        <ele>472</ele>
        <time>2016-03-13T09:41:08.000Z</time>
      </trkpt>
      <trkpt lat="47.43175" lon="6.79568">
        <ele>475</ele>
        <time>2016-03-13T09:41:09.000Z</time>
      </trkpt>
      <trkpt lat="47.43174" lon="6.79574">
        <ele>478</ele>
        <time>2016-03-13T09:41:10.000Z</time>
      </trkpt>
      <trkpt lat="47.43172" lon="6.79579">
        <ele>480</ele>
        <time>2016-03-13T09:41:11.000Z</time>
      </trkpt>
      <trkpt lat="47.43171" lon="6.79584">
        <ele>486</ele>
        <time>2016-03-13T09:41:12.000Z</time>
      </trkpt>
      <trkpt lat="47.4317" lon="6.79588">
        <ele>486</ele>
        <time>2016-03-13T09:41:13.000Z</time>
      </trkpt>
      <trkpt lat="47.43168" lon="6.79591">
        <ele>486</ele>
        <time>2016-03-13T09:41:14.000Z</time>
      </trkpt>
      <trkpt lat="47.43167" lon="6.79594">
        <ele>486</ele>
        <time>2016-03-13T09:41:15.000Z</time>
      </trkpt>
      <trkpt lat="47.43165" lon="6.79598">
        <ele>487</ele>
        <time>2016-03-13T09:41:17.000Z</time>
      </trkpt>
      <trkpt lat="47.43164" lon="6.796">
        <ele>487</ele>
        <time>2016-03-13T09:41:18.000Z</time>
      </trkpt>
      <trkpt lat="47.43162" lon="6.79604">
        <ele>487</ele>
        <time>2016-03-13T09:41:20.000Z</time>
      </trkpt>
      <trkpt lat="47.43161" lon="6.79605">
        <ele>487</ele>
        <time>2016-03-13T09:41:21.000Z</time>
      </trkpt>
      <trkpt lat="47.43158" lon="6.79604">
        <ele>487</ele>
        <time>2016-03-13T09:41:23.000Z</time>
      </trkpt>
      <trkpt lat="47.43156" lon="6.79603">
        <ele>487</ele>
        <time>2016-03-13T09:41:24.000Z</time>
      </trkpt>
      <trkpt lat="47.43152" lon="6.79602">
        <ele>487</ele>
        <time>2016-03-13T09:41:27.000Z</time>
      </trkpt>
      <trkpt lat="47.4315" lon="6.79602">
        <ele>487</ele>
        <time>2016-03-13T09:41:28.000Z</time>
      </trkpt>
      <trkpt lat="47.43147" lon="6.79598">
        <ele>487</ele>
        <time>2016-03-13T09:41:30.000Z</time>
      </trkpt>
      <trkpt lat="47.43145" lon="6.79595">
        <ele>487</ele>
        <time>2016-03-13T09:41:31.000Z</time>
      </trkpt>
      <trkpt lat="47.43144" lon="6.79592">
        <ele>487</ele>
        <time>2016-03-13T09:41:32.000Z</time>
      </trkpt>
      <trkpt lat="47.43142" lon="6.79589">
        <ele>487</ele>
        <time>2016-03-13T09:41:33.000Z</time>
      </trkpt>
      <trkpt lat="47.4314" lon="6.79586">
        <ele>487</ele>
        <time>2016-03-13T09:41:34.000Z</time>
      </trkpt>
      <trkpt lat="47.43138" lon="6.79584">
        <ele>487</ele>
        <time>2016-03-13T09:41:35.000Z</time>
      </trkpt>
      <trkpt lat="47.43135" lon="6.7958">
        <ele>473</ele>
        <time>2016-03-13T09:41:37.000Z</time>
      </trkpt>
      <trkpt lat="47.43134" lon="6.79579">
        <ele>473</ele>
        <time>2016-03-13T09:41:38.000Z</time>
      </trkpt>
      <trkpt lat="47.43132" lon="6.79573">
        <ele>472</ele>
        <time>2016-03-13T09:41:41.000Z</time>
      </trkpt>
      <trkpt lat="47.43132" lon="6.7957">
        <ele>471</ele>
        <time>2016-03-13T09:41:42.000Z</time>
      </trkpt>
      <trkpt lat="47.43128" lon="6.79567">
        <ele>471</ele>
        <time>2016-03-13T09:41:45.000Z</time>
      </trkpt>
      <trkpt lat="47.43127" lon="6.79566">
        <ele>471</ele>
        <time>2016-03-13T09:41:46.000Z</time>
      </trkpt>
      <trkpt lat="47.43123" lon="6.79567">
        <ele>471</ele>
        <time>2016-03-13T09:41:48.000Z</time>
      </trkpt>
      <trkpt lat="47.43121" lon="6.79568">
        <ele>471</ele>
        <time>2016-03-13T09:41:49.000Z</time>
      </trkpt>
      <trkpt lat="47.43119" lon="6.79569">
        <ele>471</ele>
        <time>2016-03-13T09:41:50.000Z</time>
      </trkpt>
      <trkpt lat="47.43117" lon="6.79571">
        <ele>472</ele>
        <time>2016-03-13T09:41:51.000Z</time>
      </trkpt>
      <trkpt lat="47.43113" lon="6.79573">
        <ele>472</ele>
        <time>2016-03-13T09:41:53.000Z</time>
      </trkpt>
      <trkpt lat="47.43112" lon="6.79574">
        <ele>473</ele>
        <time>2016-03-13T09:41:54.000Z</time>
      </trkpt>
      <trkpt lat="47.43108" lon="6.79576">
        <ele>473</ele>
        <time>2016-03-13T09:41:56.000Z</time>
      </trkpt>
      <trkpt lat="47.43106" lon="6.79578">
        <ele>474</ele>
        <time>2016-03-13T09:41:57.000Z</time>
      </trkpt>
      <trkpt lat="47.43104" lon="6.7958">
        <ele>475</ele>
        <time>2016-03-13T09:41:58.000Z</time>
      </trkpt>
      <trkpt lat="47.43102" lon="6.79581">
        <ele>476</ele>
        <time>2016-03-13T09:41:59.000Z</time>
      </trkpt>
      <trkpt lat="47.43099" lon="6.79582">
        <ele>477</ele>
        <time>2016-03-13T09:42:01.000Z</time>
      </trkpt>
      <trkpt lat="47.43097" lon="6.79582">
        <ele>477</ele>
        <time>2016-03-13T09:42:02.000Z</time>
      </trkpt>
      <trkpt lat="47.43093" lon="6.79582">
        <ele>479</ele>
        <time>2016-03-13T09:42:09.000Z</time>
      </trkpt>
      <trkpt lat="47.43092" lon="6.7958">
        <ele>479</ele>
        <time>2016-03-13T09:42:10.000Z</time>
      </trkpt>
      <trkpt lat="47.43091" lon="6.79575">
        <ele>478</ele>
        <time>2016-03-13T09:42:12.000Z</time>
      </trkpt>
      <trkpt lat="47.4309" lon="6.79573">
        <ele>477</ele>
        <time>2016-03-13T09:42:13.000Z</time>
      </trkpt>
      <trkpt lat="47.43085" lon="6.79572">
        <ele>478</ele>
        <time>2016-03-13T09:42:58.000Z</time>
      </trkpt>
      <trkpt lat="47.43085" lon="6.79572">
        <ele>478</ele>
        <time>2016-03-13T09:42:59.000Z</time>
      </trkpt>
      <trkpt lat="47.4308" lon="6.79574">
        <ele>479</ele>
        <time>2016-03-13T09:44:43.000Z</time>
      </trkpt>
      <trkpt lat="47.4308" lon="6.79573">
        <ele>479</ele>
        <time>2016-03-13T09:44:44.000Z</time>
      </trkpt>
      <trkpt lat="47.43079" lon="6.79579">
        <ele>481</ele>
        <time>2016-03-13T09:47:39.000Z</time>
      </trkpt>
      <trkpt lat="47.4308" lon="6.79581">
        <ele>482</ele>
        <time>2016-03-13T09:47:40.000Z</time>
      </trkpt>
      <trkpt lat="47.43079" lon="6.79587">
        <ele>486</ele>
        <time>2016-03-13T09:47:42.000Z</time>
      </trkpt>
      <trkpt lat="47.43079" lon="6.79589">
        <ele>486</ele>
        <time>2016-03-13T09:47:43.000Z</time>
      </trkpt>
      <trkpt lat="47.43078" lon="6.79595">
        <ele>487</ele>
        <time>2016-03-13T09:47:51.000Z</time>
      </trkpt>
      <trkpt lat="47.43078" lon="6.79595">
        <ele>487</ele>
        <time>2016-03-13T09:47:52.000Z</time>
      </trkpt>
      <trkpt lat="47.43075" lon="6.79596">
        <ele>487</ele>
        <time>2016-03-13T09:48:01.000Z</time>
      </trkpt>
      <trkpt lat="47.43073" lon="6.79597">
        <ele>487</ele>
        <time>2016-03-13T09:48:02.000Z</time>
      </trkpt>
      <trkpt lat="47.43073" lon="6.79602">
        <ele>488</ele>
        <time>2016-03-13T09:48:04.000Z</time>
      </trkpt>
      <trkpt lat="47.43073" lon="6.79605">
        <ele>488</ele>
        <time>2016-03-13T09:48:05.028Z</time>
      </trkpt>
      <trkpt lat="47.43075" lon="6.7961">
        <ele>488</ele>
        <time>2016-03-13T09:48:07.000Z</time>
      </trkpt>
      <trkpt lat="47.43075" lon="6.79611">
        <ele>488</ele>
        <time>2016-03-13T09:48:08.000Z</time>
      </trkpt>
      <trkpt lat="47.43072" lon="6.79614">
        <ele>488</ele>
        <time>2016-03-13T09:48:10.000Z</time>
      </trkpt>
      <trkpt lat="47.43071" lon="6.79615">
        <ele>488</ele>
        <time>2016-03-13T09:48:11.000Z</time>
      </trkpt>
      <trkpt lat="47.43068" lon="6.79614">
        <ele>488</ele>
        <time>2016-03-13T09:48:12.000Z</time>
      </trkpt>
      <trkpt lat="47.43065" lon="6.79613">
        <ele>488</ele>
        <time>2016-03-13T09:48:13.000Z</time>
      </trkpt>
      <trkpt lat="47.43061" lon="6.79614">
        <ele>489</ele>
        <time>2016-03-13T09:48:14.000Z</time>
      </trkpt>
      <trkpt lat="47.43057" lon="6.79617">
        <ele>489</ele>
        <time>2016-03-13T09:48:15.000Z</time>
      </trkpt>
      <trkpt lat="47.43054" lon="6.79618">
        <ele>489</ele>
        <time>2016-03-13T09:48:15.999Z</time>
      </trkpt>
      <trkpt lat="47.43051" lon="6.79626">
        <ele>489</ele>
        <time>2016-03-13T09:48:17.000Z</time>
      </trkpt>
      <trkpt lat="47.43043" lon="6.79638">
        <ele>490</ele>
        <time>2016-03-13T09:48:18.000Z</time>
      </trkpt>
      <trkpt lat="47.4304" lon="6.79643">
        <ele>490</ele>
        <time>2016-03-13T09:48:19.000Z</time>
      </trkpt>
      <trkpt lat="47.43038" lon="6.79647">
        <ele>490</ele>
        <time>2016-03-13T09:48:20.000Z</time>
      </trkpt>
      <trkpt lat="47.43035" lon="6.79653">
        <ele>490</ele>
        <time>2016-03-13T09:48:21.000Z</time>
      </trkpt>
      <trkpt lat="47.43034" lon="6.79658">
        <ele>490</ele>
        <time>2016-03-13T09:48:22.000Z</time>
      </trkpt>
      <trkpt lat="47.43031" lon="6.79662">
        <ele>491</ele>
        <time>2016-03-13T09:48:23.000Z</time>
      </trkpt>
      <trkpt lat="47.43028" lon="6.79669">
        <ele>492</ele>
        <time>2016-03-13T09:48:24.000Z</time>
      </trkpt>
      <trkpt lat="47.43025" lon="6.79674">
        <ele>492</ele>
        <time>2016-03-13T09:48:25.000Z</time>
      </trkpt>
      <trkpt lat="47.43022" lon="6.79677">
        <ele>492</ele>
        <time>2016-03-13T09:48:26.000Z</time>
      </trkpt>
      <trkpt lat="47.4302" lon="6.79681">
        <ele>492</ele>
        <time>2016-03-13T09:48:27.000Z</time>
      </trkpt>
      <trkpt lat="47.43018" lon="6.79685">
        <ele>492</ele>
        <time>2016-03-13T09:48:28.000Z</time>
      </trkpt>
      <trkpt lat="47.43015" lon="6.79689">
        <ele>492</ele>
        <time>2016-03-13T09:48:29.000Z</time>
      </trkpt>
      <trkpt lat="47.43012" lon="6.79691">
        <ele>492</ele>
        <time>2016-03-13T09:48:30.000Z</time>
      </trkpt>
      <trkpt lat="47.43009" lon="6.79694">
        <ele>492</ele>
        <time>2016-03-13T09:48:31.000Z</time>
      </trkpt>
      <trkpt lat="47.43006" lon="6.79697">
        <ele>492</ele>
        <time>2016-03-13T09:48:32.000Z</time>
      </trkpt>
      <trkpt lat="47.43003" lon="6.79697">
        <ele>492</ele>
        <time>2016-03-13T09:48:33.000Z</time>
      </trkpt>
      <trkpt lat="47.43" lon="6.79699">
        <ele>492</ele>
        <time>2016-03-13T09:48:34.000Z</time>
      </trkpt>
      <trkpt lat="47.42997" lon="6.797">
        <ele>493</ele>
        <time>2016-03-13T09:48:35.000Z</time>
      </trkpt>
      <trkpt lat="47.42994" lon="6.79701">
        <ele>493</ele>
        <time>2016-03-13T09:48:36.000Z</time>
      </trkpt>
      <trkpt lat="47.42991" lon="6.79701">
        <ele>493</ele>
        <time>2016-03-13T09:48:37.000Z</time>
      </trkpt>
      <trkpt lat="47.42987" lon="6.797">
        <ele>492</ele>
        <time>2016-03-13T09:48:38.000Z</time>
      </trkpt>
      <trkpt lat="47.42984" lon="6.797">
        <ele>492</ele>
        <time>2016-03-13T09:48:39.000Z</time>
      </trkpt>
      <trkpt lat="47.42981" lon="6.79699">
        <ele>492</ele>
        <time>2016-03-13T09:48:40.000Z</time>
      </trkpt>
      <trkpt lat="47.42978" lon="6.79699">
        <ele>492</ele>
        <time>2016-03-13T09:48:41.000Z</time>
      </trkpt>
      <trkpt lat="47.42975" lon="6.79701">
        <ele>492</ele>
        <time>2016-03-13T09:48:42.000Z</time>
      </trkpt>
      <trkpt lat="47.42972" lon="6.79704">
        <ele>492</ele>
        <time>2016-03-13T09:48:43.000Z</time>
      </trkpt>
      <trkpt lat="47.42969" lon="6.79708">
        <ele>492</ele>
        <time>2016-03-13T09:48:44.000Z</time>
      </trkpt>
      <trkpt lat="47.42968" lon="6.79722">
        <ele>492</ele>
        <time>2016-03-13T09:48:45.000Z</time>
      </trkpt>
      <trkpt lat="47.42965" lon="6.79728">
        <ele>492</ele>
        <time>2016-03-13T09:48:46.000Z</time>
      </trkpt>
      <trkpt lat="47.42962" lon="6.79734">
        <ele>492</ele>
        <time>2016-03-13T09:48:47.000Z</time>
      </trkpt>
      <trkpt lat="47.42958" lon="6.79737">
        <ele>492</ele>
        <time>2016-03-13T09:48:48.000Z</time>
      </trkpt>
      <trkpt lat="47.42954" lon="6.79739">
        <ele>492</ele>
        <time>2016-03-13T09:48:49.000Z</time>
      </trkpt>
      <trkpt lat="47.42949" lon="6.79742">
        <ele>492</ele>
        <time>2016-03-13T09:48:50.000Z</time>
      </trkpt>
      <trkpt lat="47.42944" lon="6.79744">
        <ele>492</ele>
        <time>2016-03-13T09:48:51.000Z</time>
      </trkpt>
      <trkpt lat="47.42939" lon="6.79747">
        <ele>492</ele>
        <time>2016-03-13T09:48:52.000Z</time>
      </trkpt>
      <trkpt lat="47.42935" lon="6.79747">
        <ele>492</ele>
        <time>2016-03-13T09:48:53.000Z</time>
      </trkpt>
      <trkpt lat="47.42931" lon="6.79746">
        <ele>492</ele>
        <time>2016-03-13T09:48:54.000Z</time>
      </trkpt>
      <trkpt lat="47.42926" lon="6.79746">
        <ele>491</ele>
        <time>2016-03-13T09:48:55.000Z</time>
      </trkpt>
      <trkpt lat="47.42922" lon="6.79746">
        <ele>491</ele>
        <time>2016-03-13T09:48:56.000Z</time>
      </trkpt>
      <trkpt lat="47.42917" lon="6.7974">
        <ele>491</ele>
        <time>2016-03-13T09:48:57.000Z</time>
      </trkpt>
      <trkpt lat="47.42913" lon="6.79739">
        <ele>491</ele>
        <time>2016-03-13T09:48:58.000Z</time>
      </trkpt>
      <trkpt lat="47.42908" lon="6.7974">
        <ele>491</ele>
        <time>2016-03-13T09:48:59.000Z</time>
      </trkpt>
      <trkpt lat="47.42904" lon="6.79741">
        <ele>491</ele>
        <time>2016-03-13T09:49:00.000Z</time>
      </trkpt>
      <trkpt lat="47.429" lon="6.79744">
        <ele>491</ele>
        <time>2016-03-13T09:49:01.000Z</time>
      </trkpt>
      <trkpt lat="47.42896" lon="6.79746">
        <ele>490</ele>
        <time>2016-03-13T09:49:02.000Z</time>
      </trkpt>
      <trkpt lat="47.42893" lon="6.79749">
        <ele>490</ele>
        <time>2016-03-13T09:49:03.000Z</time>
      </trkpt>
      <trkpt lat="47.4289" lon="6.79752">
        <ele>489</ele>
        <time>2016-03-13T09:49:04.000Z</time>
      </trkpt>
      <trkpt lat="47.42886" lon="6.79754">
        <ele>489</ele>
        <time>2016-03-13T09:49:05.000Z</time>
      </trkpt>
      <trkpt lat="47.42883" lon="6.79754">
        <ele>489</ele>
        <time>2016-03-13T09:49:06.000Z</time>
      </trkpt>
      <trkpt lat="47.4288" lon="6.79756">
        <ele>489</ele>
        <time>2016-03-13T09:49:07.000Z</time>
      </trkpt>
      <trkpt lat="47.42876" lon="6.79757">
        <ele>489</ele>
        <time>2016-03-13T09:49:08.000Z</time>
      </trkpt>
      <trkpt lat="47.42873" lon="6.79758">
        <ele>488</ele>
        <time>2016-03-13T09:49:09.000Z</time>
      </trkpt>
      <trkpt lat="47.42869" lon="6.7976">
        <ele>488</ele>
        <time>2016-03-13T09:49:10.000Z</time>
      </trkpt>
      <trkpt lat="47.42866" lon="6.79763">
        <ele>488</ele>
        <time>2016-03-13T09:49:11.000Z</time>
      </trkpt>
      <trkpt lat="47.42863" lon="6.79766">
        <ele>488</ele>
        <time>2016-03-13T09:49:12.000Z</time>
      </trkpt>
      <trkpt lat="47.4286" lon="6.7977">
        <ele>488</ele>
        <time>2016-03-13T09:49:13.000Z</time>
      </trkpt>
      <trkpt lat="47.42855" lon="6.79775">
        <ele>488</ele>
        <time>2016-03-13T09:49:14.000Z</time>
      </trkpt>
      <trkpt lat="47.4285" lon="6.79777">
        <ele>488</ele>
        <time>2016-03-13T09:49:15.000Z</time>
      </trkpt>
      <trkpt lat="47.42846" lon="6.79779">
        <ele>488</ele>
        <time>2016-03-13T09:49:16.000Z</time>
      </trkpt>
      <trkpt lat="47.42837" lon="6.79784">
        <ele>488</ele>
        <time>2016-03-13T09:49:18.000Z</time>
      </trkpt>
      <trkpt lat="47.42833" lon="6.79785">
        <ele>488</ele>
        <time>2016-03-13T09:49:19.000Z</time>
      </trkpt>
      <trkpt lat="47.42828" lon="6.79787">
        <ele>488</ele>
        <time>2016-03-13T09:49:20.000Z</time>
      </trkpt>
      <trkpt lat="47.42824" lon="6.79788">
        <ele>488</ele>
        <time>2016-03-13T09:49:21.000Z</time>
      </trkpt>
      <trkpt lat="47.4282" lon="6.7979">
        <ele>488</ele>
        <time>2016-03-13T09:49:22.000Z</time>
      </trkpt>
      <trkpt lat="47.42816" lon="6.79792">
        <ele>488</ele>
        <time>2016-03-13T09:49:23.000Z</time>
      </trkpt>
      <trkpt lat="47.42813" lon="6.79793">
        <ele>488</ele>
        <time>2016-03-13T09:49:24.000Z</time>
      </trkpt>
      <trkpt lat="47.42808" lon="6.79795">
        <ele>489</ele>
        <time>2016-03-13T09:49:25.000Z</time>
      </trkpt>
      <trkpt lat="47.42804" lon="6.79796">
        <ele>489</ele>
        <time>2016-03-13T09:49:26.000Z</time>
      </trkpt>
      <trkpt lat="47.428" lon="6.79797">
        <ele>489</ele>
        <time>2016-03-13T09:49:27.000Z</time>
      </trkpt>
      <trkpt lat="47.42796" lon="6.79797">
        <ele>489</ele>
        <time>2016-03-13T09:49:28.000Z</time>
      </trkpt>
      <trkpt lat="47.42793" lon="6.79798">
        <ele>489</ele>
        <time>2016-03-13T09:49:29.000Z</time>
      </trkpt>
      <trkpt lat="47.42789" lon="6.79798">
        <ele>489</ele>
        <time>2016-03-13T09:49:30.000Z</time>
      </trkpt>
      <trkpt lat="47.42786" lon="6.79798">
        <ele>489</ele>
        <time>2016-03-13T09:49:31.000Z</time>
      </trkpt>
      <trkpt lat="47.42783" lon="6.79799">
        <ele>490</ele>
        <time>2016-03-13T09:49:32.000Z</time>
      </trkpt>
      <trkpt lat="47.4278" lon="6.798">
        <ele>490</ele>
        <time>2016-03-13T09:49:33.000Z</time>
      </trkpt>
      <trkpt lat="47.42776" lon="6.798">
        <ele>490</ele>
        <time>2016-03-13T09:49:34.000Z</time>
      </trkpt>
      <trkpt lat="47.42773" lon="6.79801">
        <ele>490</ele>
        <time>2016-03-13T09:49:35.000Z</time>
      </trkpt>
      <trkpt lat="47.4277" lon="6.79802">
        <ele>490</ele>
        <time>2016-03-13T09:49:36.000Z</time>
      </trkpt>
      <trkpt lat="47.42767" lon="6.79803">
        <ele>490</ele>
        <time>2016-03-13T09:49:37.000Z</time>
      </trkpt>
      <trkpt lat="47.42764" lon="6.79805">
        <ele>490</ele>
        <time>2016-03-13T09:49:38.000Z</time>
      </trkpt>
      <trkpt lat="47.42761" lon="6.79806">
        <ele>491</ele>
        <time>2016-03-13T09:49:39.000Z</time>
      </trkpt>
      <trkpt lat="47.42759" lon="6.79807">
        <ele>491</ele>
        <time>2016-03-13T09:49:40.000Z</time>
      </trkpt>
      <trkpt lat="47.42756" lon="6.79806">
        <ele>491</ele>
        <time>2016-03-13T09:49:41.000Z</time>
      </trkpt>
      <trkpt lat="47.42752" lon="6.79806">
        <ele>491</ele>
        <time>2016-03-13T09:49:43.000Z</time>
      </trkpt>
      <trkpt lat="47.4275" lon="6.79806">
        <ele>494</ele>
        <time>2016-03-13T09:49:44.000Z</time>
      </trkpt>
      <trkpt lat="47.42746" lon="6.79805">
        <ele>494</ele>
        <time>2016-03-13T09:49:46.000Z</time>
      </trkpt>
      <trkpt lat="47.42744" lon="6.79806">
        <ele>494</ele>
        <time>2016-03-13T09:49:47.000Z</time>
      </trkpt>
      <trkpt lat="47.42742" lon="6.79808">
        <ele>494</ele>
        <time>2016-03-13T09:49:48.000Z</time>
      </trkpt>
      <trkpt lat="47.4274" lon="6.7981">
        <ele>494</ele>
        <time>2016-03-13T09:49:49.000Z</time>
      </trkpt>
      <trkpt lat="47.42738" lon="6.79813">
        <ele>494</ele>
        <time>2016-03-13T09:49:50.000Z</time>
      </trkpt>
      <trkpt lat="47.42736" lon="6.79814">
        <ele>494</ele>
        <time>2016-03-13T09:49:51.000Z</time>
      </trkpt>
      <trkpt lat="47.42732" lon="6.79814">
        <ele>494</ele>
        <time>2016-03-13T09:49:53.000Z</time>
      </trkpt>
      <trkpt lat="47.4273" lon="6.79814">
        <ele>495</ele>
        <time>2016-03-13T09:49:54.000Z</time>
      </trkpt>
      <trkpt lat="47.42727" lon="6.79814">
        <ele>495</ele>
        <time>2016-03-13T09:49:55.000Z</time>
      </trkpt>
      <trkpt lat="47.42725" lon="6.79815">
        <ele>495</ele>
        <time>2016-03-13T09:49:56.000Z</time>
      </trkpt>
      <trkpt lat="47.42721" lon="6.79817">
        <ele>495</ele>
        <time>2016-03-13T09:49:58.000Z</time>
      </trkpt>
      <trkpt lat="47.42719" lon="6.79819">
        <ele>495</ele>
        <time>2016-03-13T09:49:59.000Z</time>
      </trkpt>
      <trkpt lat="47.42717" lon="6.7982">
        <ele>495</ele>
        <time>2016-03-13T09:50:00.000Z</time>
      </trkpt>
      <trkpt lat="47.42715" lon="6.79822">
        <ele>495</ele>
        <time>2016-03-13T09:50:01.000Z</time>
      </trkpt>
      <trkpt lat="47.42711" lon="6.79824">
        <ele>495</ele>
        <time>2016-03-13T09:50:03.000Z</time>
      </trkpt>
      <trkpt lat="47.42709" lon="6.79825">
        <ele>495</ele>
        <time>2016-03-13T09:50:04.000Z</time>
      </trkpt>
      <trkpt lat="47.42706" lon="6.79826">
        <ele>495</ele>
        <time>2016-03-13T09:50:06.000Z</time>
      </trkpt>
      <trkpt lat="47.42704" lon="6.79827">
        <ele>496</ele>
        <time>2016-03-13T09:50:07.000Z</time>
      </trkpt>
      <trkpt lat="47.42701" lon="6.79827">
        <ele>496</ele>
        <time>2016-03-13T09:50:09.000Z</time>
      </trkpt>
      <trkpt lat="47.427" lon="6.79828">
        <ele>496</ele>
        <time>2016-03-13T09:50:10.000Z</time>
      </trkpt>
      <trkpt lat="47.42696" lon="6.7983">
        <ele>496</ele>
        <time>2016-03-13T09:50:14.000Z</time>
      </trkpt>
      <trkpt lat="47.42695" lon="6.79832">
        <ele>496</ele>
        <time>2016-03-13T09:50:15.000Z</time>
      </trkpt>
      <trkpt lat="47.42692" lon="6.79834">
        <ele>496</ele>
        <time>2016-03-13T09:50:17.000Z</time>
      </trkpt>
      <trkpt lat="47.4269" lon="6.79836">
        <ele>496</ele>
        <time>2016-03-13T09:50:18.000Z</time>
      </trkpt>
      <trkpt lat="47.42687" lon="6.79837">
        <ele>497</ele>
        <time>2016-03-13T09:50:20.000Z</time>
      </trkpt>
      <trkpt lat="47.42685" lon="6.79838">
        <ele>497</ele>
        <time>2016-03-13T09:50:21.000Z</time>
      </trkpt>
      <trkpt lat="47.42682" lon="6.79839">
        <ele>497</ele>
        <time>2016-03-13T09:50:24.000Z</time>
      </trkpt>
      <trkpt lat="47.42681" lon="6.79839">
        <ele>497</ele>
        <time>2016-03-13T09:50:25.000Z</time>
      </trkpt>
      <trkpt lat="47.42677" lon="6.7984">
        <ele>497</ele>
        <time>2016-03-13T09:50:29.000Z</time>
      </trkpt>
      <trkpt lat="47.42676" lon="6.7984">
        <ele>497</ele>
        <time>2016-03-13T09:50:30.000Z</time>
      </trkpt>
      <trkpt lat="47.42672" lon="6.7984">
        <ele>497</ele>
        <time>2016-03-13T09:50:32.000Z</time>
      </trkpt>
      <trkpt lat="47.42671" lon="6.7984">
        <ele>497</ele>
        <time>2016-03-13T09:50:33.000Z</time>
      </trkpt>
      <trkpt lat="47.42666" lon="6.7984">
        <ele>499</ele>
        <time>2016-03-13T09:50:36.000Z</time>
      </trkpt>
      <trkpt lat="47.42665" lon="6.7984">
        <ele>499</ele>
        <time>2016-03-13T09:50:37.000Z</time>
      </trkpt>
      <trkpt lat="47.42661" lon="6.79841">
        <ele>499</ele>
        <time>2016-03-13T09:50:40.000Z</time>
      </trkpt>
      <trkpt lat="47.4266" lon="6.79841">
        <ele>499</ele>
        <time>2016-03-13T09:50:41.000Z</time>
      </trkpt>
      <trkpt lat="47.42657" lon="6.79844">
        <ele>499</ele>
        <time>2016-03-13T09:50:45.000Z</time>
      </trkpt>
      <trkpt lat="47.42655" lon="6.79845">
        <ele>500</ele>
        <time>2016-03-13T09:50:46.000Z</time>
      </trkpt>
      <trkpt lat="47.42651" lon="6.79846">
        <ele>500</ele>
        <time>2016-03-13T09:50:49.000Z</time>
      </trkpt>
      <trkpt lat="47.4265" lon="6.79845">
        <ele>500</ele>
        <time>2016-03-13T09:50:50.000Z</time>
      </trkpt>
      <trkpt lat="47.42647" lon="6.79845">
        <ele>500</ele>
        <time>2016-03-13T09:50:52.000Z</time>
      </trkpt>
      <trkpt lat="47.42645" lon="6.79846">
        <ele>500</ele>
        <time>2016-03-13T09:50:53.000Z</time>
      </trkpt>
      <trkpt lat="47.42642" lon="6.79846">
        <ele>500</ele>
        <time>2016-03-13T09:50:55.000Z</time>
      </trkpt>
      <trkpt lat="47.4264" lon="6.79846">
        <ele>500</ele>
        <time>2016-03-13T09:50:56.000Z</time>
      </trkpt>
      <trkpt lat="47.42637" lon="6.79847">
        <ele>501</ele>
        <time>2016-03-13T09:50:58.000Z</time>
      </trkpt>
      <trkpt lat="47.42635" lon="6.79848">
        <ele>501</ele>
        <time>2016-03-13T09:50:59.000Z</time>
      </trkpt>
      <trkpt lat="47.42632" lon="6.79848">
        <ele>501</ele>
        <time>2016-03-13T09:51:01.000Z</time>
      </trkpt>
      <trkpt lat="47.4263" lon="6.79847">
        <ele>501</ele>
        <time>2016-03-13T09:51:02.000Z</time>
      </trkpt>
      <trkpt lat="47.42626" lon="6.79847">
        <ele>501</ele>
        <time>2016-03-13T09:51:04.000Z</time>
      </trkpt>
      <trkpt lat="47.42624" lon="6.79847">
        <ele>501</ele>
        <time>2016-03-13T09:51:05.000Z</time>
      </trkpt>
      <trkpt lat="47.4262" lon="6.79846">
        <ele>501</ele>
        <time>2016-03-13T09:51:07.000Z</time>
      </trkpt>
      <trkpt lat="47.42617" lon="6.79846">
        <ele>502</ele>
        <time>2016-03-13T09:51:08.000Z</time>
      </trkpt>
      <trkpt lat="47.42614" lon="6.79846">
        <ele>502</ele>
        <time>2016-03-13T09:51:09.000Z</time>
      </trkpt>
      <trkpt lat="47.42611" lon="6.79846">
        <ele>502</ele>
        <time>2016-03-13T09:51:10.000Z</time>
      </trkpt>
      <trkpt lat="47.42608" lon="6.79846">
        <ele>502</ele>
        <time>2016-03-13T09:51:11.000Z</time>
      </trkpt>
      <trkpt lat="47.42606" lon="6.79846">
        <ele>502</ele>
        <time>2016-03-13T09:51:12.000Z</time>
      </trkpt>
      <trkpt lat="47.42603" lon="6.79847">
        <ele>502</ele>
        <time>2016-03-13T09:51:14.000Z</time>
      </trkpt>
      <trkpt lat="47.42602" lon="6.79848">
        <ele>502</ele>
        <time>2016-03-13T09:51:15.000Z</time>
      </trkpt>
      <trkpt lat="47.42598" lon="6.79851">
        <ele>502</ele>
        <time>2016-03-13T09:51:18.000Z</time>
      </trkpt>
      <trkpt lat="47.42596" lon="6.79851">
        <ele>502</ele>
        <time>2016-03-13T09:51:19.000Z</time>
      </trkpt>
      <trkpt lat="47.42591" lon="6.79851">
        <ele>503</ele>
        <time>2016-03-13T09:51:24.000Z</time>
      </trkpt>
      <trkpt lat="47.42591" lon="6.79851">
        <ele>503</ele>
        <time>2016-03-13T09:51:25.000Z</time>
      </trkpt>
      <trkpt lat="47.42587" lon="6.7985">
        <ele>503</ele>
        <time>2016-03-13T09:51:28.000Z</time>
      </trkpt>
      <trkpt lat="47.42585" lon="6.7985">
        <ele>503</ele>
        <time>2016-03-13T09:51:29.000Z</time>
      </trkpt>
      <trkpt lat="47.42582" lon="6.7985">
        <ele>505</ele>
        <time>2016-03-13T09:51:30.000Z</time>
      </trkpt>
      <trkpt lat="47.42579" lon="6.7985">
        <ele>506</ele>
        <time>2016-03-13T09:51:31.000Z</time>
      </trkpt>
      <trkpt lat="47.42576" lon="6.7985">
        <ele>506</ele>
        <time>2016-03-13T09:51:32.000Z</time>
      </trkpt>
      <trkpt lat="47.42573" lon="6.79851">
        <ele>506</ele>
        <time>2016-03-13T09:51:33.000Z</time>
      </trkpt>
      <trkpt lat="47.4257" lon="6.79852">
        <ele>506</ele>
        <time>2016-03-13T09:51:34.000Z</time>
      </trkpt>
      <trkpt lat="47.42567" lon="6.79854">
        <ele>506</ele>
        <time>2016-03-13T09:51:35.000Z</time>
      </trkpt>
      <trkpt lat="47.42564" lon="6.79855">
        <ele>506</ele>
        <time>2016-03-13T09:51:36.000Z</time>
      </trkpt>
      <trkpt lat="47.42562" lon="6.79856">
        <ele>506</ele>
        <time>2016-03-13T09:51:37.000Z</time>
      </trkpt>
      <trkpt lat="47.4256" lon="6.79857">
        <ele>507</ele>
        <time>2016-03-13T09:51:38.000Z</time>
      </trkpt>
      <trkpt lat="47.42557" lon="6.79858">
        <ele>507</ele>
        <time>2016-03-13T09:51:39.000Z</time>
      </trkpt>
      <trkpt lat="47.42554" lon="6.79858">
        <ele>507</ele>
        <time>2016-03-13T09:51:40.000Z</time>
      </trkpt>
      <trkpt lat="47.42552" lon="6.79858">
        <ele>507</ele>
        <time>2016-03-13T09:51:41.000Z</time>
      </trkpt>
      <trkpt lat="47.4255" lon="6.79857">
        <ele>507</ele>
        <time>2016-03-13T09:51:42.000Z</time>
      </trkpt>
      <trkpt lat="47.42547" lon="6.79856">
        <ele>507</ele>
        <time>2016-03-13T09:51:43.000Z</time>
      </trkpt>
      <trkpt lat="47.42544" lon="6.79854">
        <ele>507</ele>
        <time>2016-03-13T09:51:45.000Z</time>
      </trkpt>
      <trkpt lat="47.42542" lon="6.79854">
        <ele>507</ele>
        <time>2016-03-13T09:51:46.000Z</time>
      </trkpt>
      <trkpt lat="47.4254" lon="6.79853">
        <ele>508</ele>
        <time>2016-03-13T09:51:47.000Z</time>
      </trkpt>
      <trkpt lat="47.42538" lon="6.79853">
        <ele>508</ele>
        <time>2016-03-13T09:51:48.000Z</time>
      </trkpt>
      <trkpt lat="47.42535" lon="6.79853">
        <ele>508</ele>
        <time>2016-03-13T09:51:49.000Z</time>
      </trkpt>
      <trkpt lat="47.42533" lon="6.79853">
        <ele>508</ele>
        <time>2016-03-13T09:51:50.000Z</time>
      </trkpt>
      <trkpt lat="47.4253" lon="6.79852">
        <ele>508</ele>
        <time>2016-03-13T09:51:51.000Z</time>
      </trkpt>
      <trkpt lat="47.42528" lon="6.79852">
        <ele>508</ele>
        <time>2016-03-13T09:51:52.000Z</time>
      </trkpt>
      <trkpt lat="47.42525" lon="6.79852">
        <ele>508</ele>
        <time>2016-03-13T09:51:54.000Z</time>
      </trkpt>
      <trkpt lat="47.42523" lon="6.79852">
        <ele>509</ele>
        <time>2016-03-13T09:51:55.000Z</time>
      </trkpt>
      <trkpt lat="47.4252" lon="6.79852">
        <ele>509</ele>
        <time>2016-03-13T09:51:57.000Z</time>
      </trkpt>
      <trkpt lat="47.42518" lon="6.79852">
        <ele>509</ele>
        <time>2016-03-13T09:51:58.000Z</time>
      </trkpt>
      <trkpt lat="47.42514" lon="6.7985">
        <ele>509</ele>
        <time>2016-03-13T09:52:00.000Z</time>
      </trkpt>
      <trkpt lat="47.42511" lon="6.7985">
        <ele>509</ele>
        <time>2016-03-13T09:52:01.000Z</time>
      </trkpt>
      <trkpt lat="47.42507" lon="6.79849">
        <ele>510</ele>
        <time>2016-03-13T09:52:03.000Z</time>
      </trkpt>
      <trkpt lat="47.42505" lon="6.79849">
        <ele>510</ele>
        <time>2016-03-13T09:52:04.000Z</time>
      </trkpt>
      <trkpt lat="47.42503" lon="6.79849">
        <ele>510</ele>
        <time>2016-03-13T09:52:05.000Z</time>
      </trkpt>
      <trkpt lat="47.425" lon="6.79849">
        <ele>510</ele>
        <time>2016-03-13T09:52:06.000Z</time>
      </trkpt>
      <trkpt lat="47.42498" lon="6.79849">
        <ele>513</ele>
        <time>2016-03-13T09:52:07.000Z</time>
      </trkpt>
      <trkpt lat="47.42495" lon="6.79849">
        <ele>513</ele>
        <time>2016-03-13T09:52:08.000Z</time>
      </trkpt>
      <trkpt lat="47.42492" lon="6.7985">
        <ele>513</ele>
        <time>2016-03-13T09:52:09.000Z</time>
      </trkpt>
      <trkpt lat="47.4249" lon="6.79851">
        <ele>513</ele>
        <time>2016-03-13T09:52:10.000Z</time>
      </trkpt>
      <trkpt lat="47.42487" lon="6.79853">
        <ele>513</ele>
        <time>2016-03-13T09:52:11.000Z</time>
      </trkpt>
      <trkpt lat="47.42485" lon="6.79855">
        <ele>513</ele>
        <time>2016-03-13T09:52:12.000Z</time>
      </trkpt>
      <trkpt lat="47.42483" lon="6.79857">
        <ele>513</ele>
        <time>2016-03-13T09:52:13.000Z</time>
      </trkpt>
      <trkpt lat="47.42481" lon="6.79858">
        <ele>513</ele>
        <time>2016-03-13T09:52:14.000Z</time>
      </trkpt>
      <trkpt lat="47.42478" lon="6.79858">
        <ele>513</ele>
        <time>2016-03-13T09:52:15.000Z</time>
      </trkpt>
      <trkpt lat="47.42474" lon="6.79858">
        <ele>513</ele>
        <time>2016-03-13T09:52:16.000Z</time>
      </trkpt>
      <trkpt lat="47.42471" lon="6.79859">
        <ele>514</ele>
        <time>2016-03-13T09:52:17.000Z</time>
      </trkpt>
      <trkpt lat="47.42467" lon="6.7986">
        <ele>514</ele>
        <time>2016-03-13T09:52:18.000Z</time>
      </trkpt>
      <trkpt lat="47.42464" lon="6.79861">
        <ele>514</ele>
        <time>2016-03-13T09:52:19.000Z</time>
      </trkpt>
      <trkpt lat="47.42461" lon="6.79861">
        <ele>514</ele>
        <time>2016-03-13T09:52:20.000Z</time>
      </trkpt>
      <trkpt lat="47.42458" lon="6.79862">
        <ele>514</ele>
        <time>2016-03-13T09:52:21.000Z</time>
      </trkpt>
      <trkpt lat="47.42455" lon="6.79863">
        <ele>514</ele>
        <time>2016-03-13T09:52:22.000Z</time>
      </trkpt>
      <trkpt lat="47.42452" lon="6.79863">
        <ele>514</ele>
        <time>2016-03-13T09:52:23.000Z</time>
      </trkpt>
      <trkpt lat="47.42449" lon="6.79865">
        <ele>514</ele>
        <time>2016-03-13T09:52:24.000Z</time>
      </trkpt>
      <trkpt lat="47.42446" lon="6.79866">
        <ele>514</ele>
        <time>2016-03-13T09:52:25.000Z</time>
      </trkpt>
      <trkpt lat="47.42443" lon="6.79868">
        <ele>515</ele>
        <time>2016-03-13T09:52:26.000Z</time>
      </trkpt>
      <trkpt lat="47.42441" lon="6.79869">
        <ele>515</ele>
        <time>2016-03-13T09:52:27.000Z</time>
      </trkpt>
      <trkpt lat="47.42439" lon="6.7987">
        <ele>515</ele>
        <time>2016-03-13T09:52:28.000Z</time>
      </trkpt>
      <trkpt lat="47.42435" lon="6.79873">
        <ele>515</ele>
        <time>2016-03-13T09:52:30.000Z</time>
      </trkpt>
      <trkpt lat="47.42433" lon="6.79875">
        <ele>515</ele>
        <time>2016-03-13T09:52:31.000Z</time>
      </trkpt>
      <trkpt lat="47.42431" lon="6.79877">
        <ele>515</ele>
        <time>2016-03-13T09:52:32.000Z</time>
      </trkpt>
      <trkpt lat="47.42429" lon="6.79879">
        <ele>515</ele>
        <time>2016-03-13T09:52:33.000Z</time>
      </trkpt>
      <trkpt lat="47.42426" lon="6.79882">
        <ele>515</ele>
        <time>2016-03-13T09:52:35.000Z</time>
      </trkpt>
      <trkpt lat="47.42425" lon="6.79883">
        <ele>515</ele>
        <time>2016-03-13T09:52:36.000Z</time>
      </trkpt>
      <trkpt lat="47.42422" lon="6.79887">
        <ele>516</ele>
        <time>2016-03-13T09:52:38.000Z</time>
      </trkpt>
      <trkpt lat="47.42421" lon="6.79888">
        <ele>516</ele>
        <time>2016-03-13T09:52:39.000Z</time>
      </trkpt>
      <trkpt lat="47.42416" lon="6.79889">
        <ele>519</ele>
        <time>2016-03-13T09:52:41.000Z</time>
      </trkpt>
      <trkpt lat="47.42414" lon="6.79889">
        <ele>519</ele>
        <time>2016-03-13T09:52:42.000Z</time>
      </trkpt>
      <trkpt lat="47.4241" lon="6.79889">
        <ele>520</ele>
        <time>2016-03-13T09:52:44.000Z</time>
      </trkpt>
      <trkpt lat="47.42408" lon="6.79887">
        <ele>520</ele>
        <time>2016-03-13T09:52:45.000Z</time>
      </trkpt>
      <trkpt lat="47.42405" lon="6.79883">
        <ele>520</ele>
        <time>2016-03-13T09:52:48.000Z</time>
      </trkpt>
      <trkpt lat="47.42404" lon="6.79883">
        <ele>520</ele>
        <time>2016-03-13T09:52:49.000Z</time>
      </trkpt>
      <trkpt lat="47.424" lon="6.79885">
        <ele>520</ele>
        <time>2016-03-13T09:52:54.000Z</time>
      </trkpt>
      <trkpt lat="47.424" lon="6.79888">
        <ele>520</ele>
        <time>2016-03-13T09:52:55.000Z</time>
      </trkpt>
      <trkpt lat="47.424" lon="6.79891">
        <ele>520</ele>
        <time>2016-03-13T09:52:56.000Z</time>
      </trkpt>
      <trkpt lat="47.424" lon="6.79894">
        <ele>520</ele>
        <time>2016-03-13T09:52:57.000Z</time>
      </trkpt>
      <trkpt lat="47.42399" lon="6.79901">
        <ele>520</ele>
        <time>2016-03-13T09:52:59.000Z</time>
      </trkpt>
      <trkpt lat="47.42398" lon="6.79903">
        <ele>520</ele>
        <time>2016-03-13T09:53:00.000Z</time>
      </trkpt>
      <trkpt lat="47.42396" lon="6.79907">
        <ele>520</ele>
        <time>2016-03-13T09:53:05.000Z</time>
      </trkpt>
      <trkpt lat="47.42395" lon="6.79908">
        <ele>520</ele>
        <time>2016-03-13T09:53:06.000Z</time>
      </trkpt>
      <trkpt lat="47.42393" lon="6.79913">
        <ele>520</ele>
        <time>2016-03-13T09:53:09.000Z</time>
      </trkpt>
      <trkpt lat="47.42392" lon="6.79915">
        <ele>520</ele>
        <time>2016-03-13T09:53:10.000Z</time>
      </trkpt>
      <trkpt lat="47.4239" lon="6.79919">
        <ele>520</ele>
        <time>2016-03-13T09:53:12.000Z</time>
      </trkpt>
      <trkpt lat="47.42389" lon="6.79921">
        <ele>520</ele>
        <time>2016-03-13T09:53:13.000Z</time>
      </trkpt>
      <trkpt lat="47.42386" lon="6.79924">
        <ele>520</ele>
        <time>2016-03-13T09:53:16.000Z</time>
      </trkpt>
      <trkpt lat="47.42385" lon="6.79925">
        <ele>520</ele>
        <time>2016-03-13T09:53:17.000Z</time>
      </trkpt>
      <trkpt lat="47.42382" lon="6.79927">
        <ele>520</ele>
        <time>2016-03-13T09:53:20.000Z</time>
      </trkpt>
      <trkpt lat="47.4238" lon="6.79928">
        <ele>520</ele>
        <time>2016-03-13T09:53:21.000Z</time>
      </trkpt>
      <trkpt lat="47.42376" lon="6.79929">
        <ele>520</ele>
        <time>2016-03-13T09:53:24.000Z</time>
      </trkpt>
      <trkpt lat="47.42376" lon="6.79931">
        <ele>520</ele>
        <time>2016-03-13T09:53:25.000Z</time>
      </trkpt>
      <trkpt lat="47.42374" lon="6.79934">
        <ele>520</ele>
        <time>2016-03-13T09:53:27.000Z</time>
      </trkpt>
      <trkpt lat="47.42373" lon="6.79936">
        <ele>520</ele>
        <time>2016-03-13T09:53:28.000Z</time>
      </trkpt>
      <trkpt lat="47.42371" lon="6.79941">
        <ele>520</ele>
        <time>2016-03-13T09:53:30.000Z</time>
      </trkpt>
      <trkpt lat="47.4237" lon="6.79943">
        <ele>520</ele>
        <time>2016-03-13T09:53:31.000Z</time>
      </trkpt>
      <trkpt lat="47.42368" lon="6.79947">
        <ele>520</ele>
        <time>2016-03-13T09:53:33.000Z</time>
      </trkpt>
      <trkpt lat="47.42366" lon="6.7995">
        <ele>521</ele>
        <time>2016-03-13T09:53:34.000Z</time>
      </trkpt>
      <trkpt lat="47.42365" lon="6.79952">
        <ele>521</ele>
        <time>2016-03-13T09:53:35.000Z</time>
      </trkpt>
      <trkpt lat="47.42363" lon="6.79955">
        <ele>521</ele>
        <time>2016-03-13T09:53:36.000Z</time>
      </trkpt>
      <trkpt lat="47.42361" lon="6.79957">
        <ele>521</ele>
        <time>2016-03-13T09:53:37.000Z</time>
      </trkpt>
      <trkpt lat="47.42359" lon="6.79959">
        <ele>521</ele>
        <time>2016-03-13T09:53:38.000Z</time>
      </trkpt>
      <trkpt lat="47.42355" lon="6.79961">
        <ele>521</ele>
        <time>2016-03-13T09:53:40.000Z</time>
      </trkpt>
      <trkpt lat="47.42354" lon="6.79962">
        <ele>521</ele>
        <time>2016-03-13T09:53:41.000Z</time>
      </trkpt>
      <trkpt lat="47.42351" lon="6.79963">
        <ele>521</ele>
        <time>2016-03-13T09:53:43.000Z</time>
      </trkpt>
      <trkpt lat="47.42349" lon="6.79963">
        <ele>521</ele>
        <time>2016-03-13T09:53:44.000Z</time>
      </trkpt>
      <trkpt lat="47.42345" lon="6.79964">
        <ele>521</ele>
        <time>2016-03-13T09:53:46.000Z</time>
      </trkpt>
      <trkpt lat="47.42344" lon="6.79965">
        <ele>521</ele>
        <time>2016-03-13T09:53:47.000Z</time>
      </trkpt>
      <trkpt lat="47.4234" lon="6.79966">
        <ele>521</ele>
        <time>2016-03-13T09:53:49.000Z</time>
      </trkpt>
      <trkpt lat="47.42339" lon="6.79967">
        <ele>521</ele>
        <time>2016-03-13T09:53:50.000Z</time>
      </trkpt>
      <trkpt lat="47.42335" lon="6.79966">
        <ele>521</ele>
        <time>2016-03-13T09:53:54.000Z</time>
      </trkpt>
      <trkpt lat="47.42333" lon="6.79966">
        <ele>521</ele>
        <time>2016-03-13T09:53:55.000Z</time>
      </trkpt>
      <trkpt lat="47.42329" lon="6.79964">
        <ele>524</ele>
        <time>2016-03-13T09:53:59.000Z</time>
      </trkpt>
      <trkpt lat="47.42328" lon="6.79964">
        <ele>524</ele>
        <time>2016-03-13T09:54:00.000Z</time>
      </trkpt>
      <trkpt lat="47.42324" lon="6.79966">
        <ele>524</ele>
        <time>2016-03-13T09:54:03.000Z</time>
      </trkpt>
      <trkpt lat="47.42323" lon="6.79967">
        <ele>524</ele>
        <time>2016-03-13T09:54:04.000Z</time>
      </trkpt>
      <trkpt lat="47.42322" lon="6.79971">
        <ele>524</ele>
        <time>2016-03-13T09:54:06.000Z</time>
      </trkpt>
      <trkpt lat="47.42321" lon="6.79974">
        <ele>524</ele>
        <time>2016-03-13T09:54:07.000Z</time>
      </trkpt>
      <trkpt lat="47.4232" lon="6.7998">
        <ele>524</ele>
        <time>2016-03-13T09:54:09.000Z</time>
      </trkpt>
      <trkpt lat="47.42319" lon="6.79983">
        <ele>524</ele>
        <time>2016-03-13T09:54:10.000Z</time>
      </trkpt>
      <trkpt lat="47.42316" lon="6.79986">
        <ele>524</ele>
        <time>2016-03-13T09:54:12.000Z</time>
      </trkpt>
      <trkpt lat="47.42315" lon="6.79987">
        <ele>524</ele>
        <time>2016-03-13T09:54:13.000Z</time>
      </trkpt>
      <trkpt lat="47.42311" lon="6.79988">
        <ele>524</ele>
        <time>2016-03-13T09:54:15.000Z</time>
      </trkpt>
      <trkpt lat="47.42309" lon="6.79989">
        <ele>525</ele>
        <time>2016-03-13T09:54:16.000Z</time>
      </trkpt>
      <trkpt lat="47.42306" lon="6.7999">
        <ele>525</ele>
        <time>2016-03-13T09:54:18.000Z</time>
      </trkpt>
      <trkpt lat="47.42305" lon="6.79991">
        <ele>525</ele>
        <time>2016-03-13T09:54:19.000Z</time>
      </trkpt>
      <trkpt lat="47.42303" lon="6.79992">
        <ele>525</ele>
        <time>2016-03-13T09:54:20.000Z</time>
      </trkpt>
      <trkpt lat="47.42299" lon="6.79993">
        <ele>525</ele>
        <time>2016-03-13T09:54:22.000Z</time>
      </trkpt>
      <trkpt lat="47.42295" lon="6.79995">
        <ele>525</ele>
        <time>2016-03-13T09:54:26.000Z</time>
      </trkpt>
      <trkpt lat="47.42294" lon="6.79995">
        <ele>525</ele>
        <time>2016-03-13T09:54:27.000Z</time>
      </trkpt>
      <trkpt lat="47.42291" lon="6.79997">
        <ele>525</ele>
        <time>2016-03-13T09:54:29.000Z</time>
      </trkpt>
      <trkpt lat="47.42289" lon="6.79998">
        <ele>525</ele>
        <time>2016-03-13T09:54:30.000Z</time>
      </trkpt>
      <trkpt lat="47.42288" lon="6.80004">
        <ele>526</ele>
        <time>2016-03-13T09:54:32.000Z</time>
      </trkpt>
      <trkpt lat="47.42287" lon="6.80007">
        <ele>526</ele>
        <time>2016-03-13T09:54:33.000Z</time>
      </trkpt>
      <trkpt lat="47.42287" lon="6.80011">
        <ele>526</ele>
        <time>2016-03-13T09:54:34.000Z</time>
      </trkpt>
      <trkpt lat="47.42286" lon="6.80015">
        <ele>526</ele>
        <time>2016-03-13T09:54:35.000Z</time>
      </trkpt>
      <trkpt lat="47.42286" lon="6.80019">
        <ele>526</ele>
        <time>2016-03-13T09:54:36.000Z</time>
      </trkpt>
      <trkpt lat="47.42286" lon="6.80023">
        <ele>526</ele>
        <time>2016-03-13T09:54:37.000Z</time>
      </trkpt>
      <trkpt lat="47.42286" lon="6.80028">
        <ele>526</ele>
        <time>2016-03-13T09:54:39.000Z</time>
      </trkpt>
      <trkpt lat="47.42286" lon="6.80029">
        <ele>526</ele>
        <time>2016-03-13T09:54:40.000Z</time>
      </trkpt>
      <trkpt lat="47.42283" lon="6.80033">
        <ele>526</ele>
        <time>2016-03-13T09:54:43.000Z</time>
      </trkpt>
      <trkpt lat="47.42281" lon="6.80035">
        <ele>526</ele>
        <time>2016-03-13T09:54:44.000Z</time>
      </trkpt>
      <trkpt lat="47.42277" lon="6.80038">
        <ele>526</ele>
        <time>2016-03-13T09:54:46.000Z</time>
      </trkpt>
      <trkpt lat="47.42276" lon="6.80039">
        <ele>526</ele>
        <time>2016-03-13T09:54:47.000Z</time>
      </trkpt>
      <trkpt lat="47.42273" lon="6.80041">
        <ele>526</ele>
        <time>2016-03-13T09:54:49.000Z</time>
      </trkpt>
      <trkpt lat="47.42271" lon="6.80043">
        <ele>526</ele>
        <time>2016-03-13T09:54:50.000Z</time>
      </trkpt>
      <trkpt lat="47.42268" lon="6.80047">
        <ele>526</ele>
        <time>2016-03-13T09:54:52.000Z</time>
      </trkpt>
      <trkpt lat="47.42267" lon="6.80048">
        <ele>526</ele>
        <time>2016-03-13T09:54:53.000Z</time>
      </trkpt>
      <trkpt lat="47.42264" lon="6.80045">
        <ele>526</ele>
        <time>2016-03-13T09:54:57.000Z</time>
      </trkpt>
      <trkpt lat="47.42262" lon="6.80045">
        <ele>526</ele>
        <time>2016-03-13T09:54:58.000Z</time>
      </trkpt>
      <trkpt lat="47.42259" lon="6.80046">
        <ele>526</ele>
        <time>2016-03-13T09:55:00.000Z</time>
      </trkpt>
      <trkpt lat="47.42258" lon="6.80047">
        <ele>526</ele>
        <time>2016-03-13T09:55:01.000Z</time>
      </trkpt>
      <trkpt lat="47.42255" lon="6.80048">
        <ele>526</ele>
        <time>2016-03-13T09:55:03.000Z</time>
      </trkpt>
      <trkpt lat="47.42253" lon="6.80049">
        <ele>527</ele>
        <time>2016-03-13T09:55:04.000Z</time>
      </trkpt>
      <trkpt lat="47.42249" lon="6.80051">
        <ele>530</ele>
        <time>2016-03-13T09:55:07.000Z</time>
      </trkpt>
      <trkpt lat="47.42248" lon="6.80052">
        <ele>530</ele>
        <time>2016-03-13T09:55:08.000Z</time>
      </trkpt>
      <trkpt lat="47.42245" lon="6.80057">
        <ele>530</ele>
        <time>2016-03-13T09:55:11.000Z</time>
      </trkpt>
      <trkpt lat="47.42244" lon="6.80058">
        <ele>530</ele>
        <time>2016-03-13T09:55:12.000Z</time>
      </trkpt>
      <trkpt lat="47.42243" lon="6.80063">
        <ele>530</ele>
        <time>2016-03-13T09:55:14.000Z</time>
      </trkpt>
      <trkpt lat="47.42242" lon="6.80066">
        <ele>530</ele>
        <time>2016-03-13T09:55:15.000Z</time>
      </trkpt>
      <trkpt lat="47.42241" lon="6.8007">
        <ele>530</ele>
        <time>2016-03-13T09:55:16.000Z</time>
      </trkpt>
      <trkpt lat="47.4224" lon="6.80073">
        <ele>530</ele>
        <time>2016-03-13T09:55:17.000Z</time>
      </trkpt>
      <trkpt lat="47.42237" lon="6.80076">
        <ele>530</ele>
        <time>2016-03-13T09:55:19.000Z</time>
      </trkpt>
      <trkpt lat="47.42235" lon="6.80077">
        <ele>530</ele>
        <time>2016-03-13T09:55:20.000Z</time>
      </trkpt>
      <trkpt lat="47.42231" lon="6.80077">
        <ele>530</ele>
        <time>2016-03-13T09:55:22.000Z</time>
      </trkpt>
      <trkpt lat="47.42229" lon="6.80078">
        <ele>530</ele>
        <time>2016-03-13T09:55:23.000Z</time>
      </trkpt>
      <trkpt lat="47.42225" lon="6.8008">
        <ele>531</ele>
        <time>2016-03-13T09:55:25.000Z</time>
      </trkpt>
      <trkpt lat="47.42223" lon="6.80081">
        <ele>531</ele>
        <time>2016-03-13T09:55:26.000Z</time>
      </trkpt>
      <trkpt lat="47.4222" lon="6.80085">
        <ele>530</ele>
        <time>2016-03-13T09:55:28.000Z</time>
      </trkpt>
      <trkpt lat="47.42218" lon="6.80087">
        <ele>531</ele>
        <time>2016-03-13T09:55:29.000Z</time>
      </trkpt>
      <trkpt lat="47.42215" lon="6.80089">
        <ele>531</ele>
        <time>2016-03-13T09:55:31.000Z</time>
      </trkpt>
      <trkpt lat="47.42213" lon="6.80091">
        <ele>531</ele>
        <time>2016-03-13T09:55:32.000Z</time>
      </trkpt>
      <trkpt lat="47.4221" lon="6.80093">
        <ele>531</ele>
        <time>2016-03-13T09:55:34.000Z</time>
      </trkpt>
      <trkpt lat="47.42208" lon="6.80093">
        <ele>531</ele>
        <time>2016-03-13T09:55:35.000Z</time>
      </trkpt>
      <trkpt lat="47.42205" lon="6.80094">
        <ele>531</ele>
        <time>2016-03-13T09:55:37.000Z</time>
      </trkpt>
      <trkpt lat="47.42204" lon="6.80095">
        <ele>531</ele>
        <time>2016-03-13T09:55:38.000Z</time>
      </trkpt>
      <trkpt lat="47.42201" lon="6.80097">
        <ele>531</ele>
        <time>2016-03-13T09:55:40.000Z</time>
      </trkpt>
      <trkpt lat="47.422" lon="6.80099">
        <ele>531</ele>
        <time>2016-03-13T09:55:41.000Z</time>
      </trkpt>
      <trkpt lat="47.42198" lon="6.80105">
        <ele>531</ele>
        <time>2016-03-13T09:55:43.000Z</time>
      </trkpt>
      <trkpt lat="47.42198" lon="6.80108">
        <ele>531</ele>
        <time>2016-03-13T09:55:44.000Z</time>
      </trkpt>
      <trkpt lat="47.42197" lon="6.80111">
        <ele>531</ele>
        <time>2016-03-13T09:55:45.000Z</time>
      </trkpt>
      <trkpt lat="47.42196" lon="6.80114">
        <ele>531</ele>
        <time>2016-03-13T09:55:46.000Z</time>
      </trkpt>
      <trkpt lat="47.42195" lon="6.80119">
        <ele>531</ele>
        <time>2016-03-13T09:55:48.000Z</time>
      </trkpt>
      <trkpt lat="47.42194" lon="6.80121">
        <ele>531</ele>
        <time>2016-03-13T09:55:49.000Z</time>
      </trkpt>
      <trkpt lat="47.42191" lon="6.80123">
        <ele>531</ele>
        <time>2016-03-13T09:55:51.000Z</time>
      </trkpt>
      <trkpt lat="47.42188" lon="6.80123">
        <ele>531</ele>
        <time>2016-03-13T09:55:52.000Z</time>
      </trkpt>
      <trkpt lat="47.42186" lon="6.80124">
        <ele>531</ele>
        <time>2016-03-13T09:55:53.000Z</time>
      </trkpt>
      <trkpt lat="47.42184" lon="6.80125">
        <ele>531</ele>
        <time>2016-03-13T09:55:54.000Z</time>
      </trkpt>
      <trkpt lat="47.42181" lon="6.80126">
        <ele>531</ele>
        <time>2016-03-13T09:55:55.000Z</time>
      </trkpt>
      <trkpt lat="47.42179" lon="6.80128">
        <ele>531</ele>
        <time>2016-03-13T09:55:56.000Z</time>
      </trkpt>
      <trkpt lat="47.42176" lon="6.80131">
        <ele>531</ele>
        <time>2016-03-13T09:55:58.000Z</time>
      </trkpt>
      <trkpt lat="47.42175" lon="6.80132">
        <ele>531</ele>
        <time>2016-03-13T09:55:59.000Z</time>
      </trkpt>
      <trkpt lat="47.42172" lon="6.80134">
        <ele>531</ele>
        <time>2016-03-13T09:56:01.000Z</time>
      </trkpt>
      <trkpt lat="47.4217" lon="6.80134">
        <ele>531</ele>
        <time>2016-03-13T09:56:02.000Z</time>
      </trkpt>
      <trkpt lat="47.42167" lon="6.80135">
        <ele>532</ele>
        <time>2016-03-13T09:56:04.000Z</time>
      </trkpt>
      <trkpt lat="47.42165" lon="6.80135">
        <ele>532</ele>
        <time>2016-03-13T09:56:05.000Z</time>
      </trkpt>
      <trkpt lat="47.42162" lon="6.80139">
        <ele>532</ele>
        <time>2016-03-13T09:56:08.000Z</time>
      </trkpt>
      <trkpt lat="47.4216" lon="6.8014">
        <ele>532</ele>
        <time>2016-03-13T09:56:09.000Z</time>
      </trkpt>
      <trkpt lat="47.42156" lon="6.80142">
        <ele>532</ele>
        <time>2016-03-13T09:56:11.000Z</time>
      </trkpt>
      <trkpt lat="47.42154" lon="6.80143">
        <ele>532</ele>
        <time>2016-03-13T09:56:12.000Z</time>
      </trkpt>
      <trkpt lat="47.42152" lon="6.80144">
        <ele>532</ele>
        <time>2016-03-13T09:56:13.000Z</time>
      </trkpt>
      <trkpt lat="47.42149" lon="6.80146">
        <ele>532</ele>
        <time>2016-03-13T09:56:14.000Z</time>
      </trkpt>
      <trkpt lat="47.42146" lon="6.80148">
        <ele>532</ele>
        <time>2016-03-13T09:56:15.000Z</time>
      </trkpt>
      <trkpt lat="47.42144" lon="6.80151">
        <ele>531</ele>
        <time>2016-03-13T09:56:16.000Z</time>
      </trkpt>
      <trkpt lat="47.42141" lon="6.80152">
        <ele>531</ele>
        <time>2016-03-13T09:56:17.000Z</time>
      </trkpt>
      <trkpt lat="47.4214" lon="6.80154">
        <ele>531</ele>
        <time>2016-03-13T09:56:18.000Z</time>
      </trkpt>
      <trkpt lat="47.42137" lon="6.80157">
        <ele>531</ele>
        <time>2016-03-13T09:56:20.000Z</time>
      </trkpt>
      <trkpt lat="47.42135" lon="6.80159">
        <ele>531</ele>
        <time>2016-03-13T09:56:21.000Z</time>
      </trkpt>
      <trkpt lat="47.42133" lon="6.80161">
        <ele>531</ele>
        <time>2016-03-13T09:56:22.000Z</time>
      </trkpt>
      <trkpt lat="47.42131" lon="6.80162">
        <ele>531</ele>
        <time>2016-03-13T09:56:23.000Z</time>
      </trkpt>
      <trkpt lat="47.42128" lon="6.80164">
        <ele>531</ele>
        <time>2016-03-13T09:56:24.000Z</time>
      </trkpt>
      <trkpt lat="47.42126" lon="6.80167">
        <ele>531</ele>
        <time>2016-03-13T09:56:25.000Z</time>
      </trkpt>
      <trkpt lat="47.42124" lon="6.80169">
        <ele>530</ele>
        <time>2016-03-13T09:56:26.000Z</time>
      </trkpt>
      <trkpt lat="47.42121" lon="6.8017">
        <ele>529</ele>
        <time>2016-03-13T09:56:27.000Z</time>
      </trkpt>
      <trkpt lat="47.42119" lon="6.80172">
        <ele>529</ele>
        <time>2016-03-13T09:56:28.000Z</time>
      </trkpt>
      <trkpt lat="47.42116" lon="6.80174">
        <ele>529</ele>
        <time>2016-03-13T09:56:29.000Z</time>
      </trkpt>
      <trkpt lat="47.42114" lon="6.80176">
        <ele>529</ele>
        <time>2016-03-13T09:56:30.000Z</time>
      </trkpt>
      <trkpt lat="47.42112" lon="6.80178">
        <ele>529</ele>
        <time>2016-03-13T09:56:31.000Z</time>
      </trkpt>
      <trkpt lat="47.42109" lon="6.80181">
        <ele>529</ele>
        <time>2016-03-13T09:56:33.000Z</time>
      </trkpt>
      <trkpt lat="47.42107" lon="6.80182">
        <ele>529</ele>
        <time>2016-03-13T09:56:34.000Z</time>
      </trkpt>
      <trkpt lat="47.42108" lon="6.80188">
        <ele>529</ele>
        <time>2016-03-13T09:56:37.000Z</time>
      </trkpt>
      <trkpt lat="47.42109" lon="6.80191">
        <ele>529</ele>
        <time>2016-03-13T09:56:38.000Z</time>
      </trkpt>
      <trkpt lat="47.4211" lon="6.80195">
        <ele>529</ele>
        <time>2016-03-13T09:56:39.000Z</time>
      </trkpt>
      <trkpt lat="47.42111" lon="6.80198">
        <ele>529</ele>
        <time>2016-03-13T09:56:40.000Z</time>
      </trkpt>
      <trkpt lat="47.42111" lon="6.80204">
        <ele>529</ele>
        <time>2016-03-13T09:56:51.000Z</time>
      </trkpt>
      <trkpt lat="47.4211" lon="6.80204">
        <ele>529</ele>
        <time>2016-03-13T09:56:52.000Z</time>
      </trkpt>
      <trkpt lat="47.4211" lon="6.80207">
        <ele>529</ele>
        <time>2016-03-13T09:58:16.000Z</time>
      </trkpt>
      <trkpt lat="47.42109" lon="6.80212">
        <ele>529</ele>
        <time>2016-03-13T09:58:17.000Z</time>
      </trkpt>
      <trkpt lat="47.42108" lon="6.80216">
        <ele>529</ele>
        <time>2016-03-13T09:58:18.000Z</time>
      </trkpt>
      <trkpt lat="47.42108" lon="6.80218">
        <ele>528</ele>
        <time>2016-03-13T09:58:19.000Z</time>
      </trkpt>
      <trkpt lat="47.4211" lon="6.80222">
        <ele>528</ele>
        <time>2016-03-13T09:58:20.000Z</time>
      </trkpt>
      <trkpt lat="47.42111" lon="6.80225">
        <ele>528</ele>
        <time>2016-03-13T09:58:21.000Z</time>
      </trkpt>
      <trkpt lat="47.42114" lon="6.80228">
        <ele>528</ele>
        <time>2016-03-13T09:58:22.000Z</time>
      </trkpt>
      <trkpt lat="47.42116" lon="6.80232">
        <ele>528</ele>
        <time>2016-03-13T09:58:23.000Z</time>
      </trkpt>
      <trkpt lat="47.42118" lon="6.80236">
        <ele>528</ele>
        <time>2016-03-13T09:58:24.000Z</time>
      </trkpt>
      <trkpt lat="47.42121" lon="6.80241">
        <ele>528</ele>
        <time>2016-03-13T09:58:25.000Z</time>
      </trkpt>
      <trkpt lat="47.42123" lon="6.80246">
        <ele>528</ele>
        <time>2016-03-13T09:58:26.000Z</time>
      </trkpt>
      <trkpt lat="47.42126" lon="6.80253">
        <ele>526</ele>
        <time>2016-03-13T09:58:27.000Z</time>
      </trkpt>
      <trkpt lat="47.42129" lon="6.80258">
        <ele>526</ele>
        <time>2016-03-13T09:58:28.000Z</time>
      </trkpt>
      <trkpt lat="47.42131" lon="6.80264">
        <ele>526</ele>
        <time>2016-03-13T09:58:29.000Z</time>
      </trkpt>
      <trkpt lat="47.42133" lon="6.8027">
        <ele>526</ele>
        <time>2016-03-13T09:58:30.000Z</time>
      </trkpt>
      <trkpt lat="47.42135" lon="6.80275">
        <ele>526</ele>
        <time>2016-03-13T09:58:31.000Z</time>
      </trkpt>
      <trkpt lat="47.42138" lon="6.80281">
        <ele>525</ele>
        <time>2016-03-13T09:58:32.000Z</time>
      </trkpt>
      <trkpt lat="47.42141" lon="6.80288">
        <ele>525</ele>
        <time>2016-03-13T09:58:33.000Z</time>
      </trkpt>
      <trkpt lat="47.42152" lon="6.80305">
        <ele>525</ele>
        <time>2016-03-13T09:58:34.000Z</time>
      </trkpt>
      <trkpt lat="47.42155" lon="6.80312">
        <ele>524</ele>
        <time>2016-03-13T09:58:35.000Z</time>
      </trkpt>
      <trkpt lat="47.42159" lon="6.8032">
        <ele>524</ele>
        <time>2016-03-13T09:58:36.000Z</time>
      </trkpt>
      <trkpt lat="47.42162" lon="6.80327">
        <ele>524</ele>
        <time>2016-03-13T09:58:37.000Z</time>
      </trkpt>
      <trkpt lat="47.42172" lon="6.80331">
        <ele>524</ele>
        <time>2016-03-13T09:58:38.000Z</time>
      </trkpt>
      <trkpt lat="47.42178" lon="6.80341">
        <ele>522</ele>
        <time>2016-03-13T09:58:39.000Z</time>
      </trkpt>
      <trkpt lat="47.42181" lon="6.80347">
        <ele>522</ele>
        <time>2016-03-13T09:58:40.000Z</time>
      </trkpt>
      <trkpt lat="47.42189" lon="6.80358">
        <ele>521</ele>
        <time>2016-03-13T09:58:41.000Z</time>
      </trkpt>
      <trkpt lat="47.42193" lon="6.80366">
        <ele>521</ele>
        <time>2016-03-13T09:58:42.000Z</time>
      </trkpt>
      <trkpt lat="47.42196" lon="6.80373">
        <ele>521</ele>
        <time>2016-03-13T09:58:43.000Z</time>
      </trkpt>
      <trkpt lat="47.42199" lon="6.80379">
        <ele>521</ele>
        <time>2016-03-13T09:58:44.000Z</time>
      </trkpt>
      <trkpt lat="47.42204" lon="6.80391">
        <ele>520</ele>
        <time>2016-03-13T09:58:45.000Z</time>
      </trkpt>
      <trkpt lat="47.42207" lon="6.80398">
        <ele>520</ele>
        <time>2016-03-13T09:58:46.000Z</time>
      </trkpt>
      <trkpt lat="47.4221" lon="6.80405">
        <ele>520</ele>
        <time>2016-03-13T09:58:47.000Z</time>
      </trkpt>
      <trkpt lat="47.42214" lon="6.80411">
        <ele>520</ele>
        <time>2016-03-13T09:58:48.000Z</time>
      </trkpt>
      <trkpt lat="47.42221" lon="6.80415">
        <ele>520</ele>
        <time>2016-03-13T09:58:49.000Z</time>
      </trkpt>
      <trkpt lat="47.42228" lon="6.80426">
        <ele>516</ele>
        <time>2016-03-13T09:58:50.000Z</time>
      </trkpt>
      <trkpt lat="47.42232" lon="6.80431">
        <ele>516</ele>
        <time>2016-03-13T09:58:51.000Z</time>
      </trkpt>
      <trkpt lat="47.42237" lon="6.80443">
        <ele>515</ele>
        <time>2016-03-13T09:58:52.000Z</time>
      </trkpt>
      <trkpt lat="47.42241" lon="6.80454">
        <ele>514</ele>
        <time>2016-03-13T09:58:53.000Z</time>
      </trkpt>
      <trkpt lat="47.42246" lon="6.80462">
        <ele>514</ele>
        <time>2016-03-13T09:58:54.000Z</time>
      </trkpt>
      <trkpt lat="47.4225" lon="6.8047">
        <ele>513</ele>
        <time>2016-03-13T09:58:55.000Z</time>
      </trkpt>
      <trkpt lat="47.42254" lon="6.80479">
        <ele>513</ele>
        <time>2016-03-13T09:58:56.000Z</time>
      </trkpt>
      <trkpt lat="47.42258" lon="6.80486">
        <ele>512</ele>
        <time>2016-03-13T09:58:57.000Z</time>
      </trkpt>
      <trkpt lat="47.42263" lon="6.80493">
        <ele>512</ele>
        <time>2016-03-13T09:58:58.000Z</time>
      </trkpt>
      <trkpt lat="47.42267" lon="6.80501">
        <ele>508</ele>
        <time>2016-03-13T09:58:59.000Z</time>
      </trkpt>
      <trkpt lat="47.4227" lon="6.80508">
        <ele>508</ele>
        <time>2016-03-13T09:59:00.000Z</time>
      </trkpt>
      <trkpt lat="47.42275" lon="6.8052">
        <ele>507</ele>
        <time>2016-03-13T09:59:01.000Z</time>
      </trkpt>
      <trkpt lat="47.42278" lon="6.80527">
        <ele>507</ele>
        <time>2016-03-13T09:59:02.000Z</time>
      </trkpt>
      <trkpt lat="47.42282" lon="6.80534">
        <ele>507</ele>
        <time>2016-03-13T09:59:03.000Z</time>
      </trkpt>
      <trkpt lat="47.42287" lon="6.80545">
        <ele>506</ele>
        <time>2016-03-13T09:59:04.000Z</time>
      </trkpt>
      <trkpt lat="47.42291" lon="6.80551">
        <ele>506</ele>
        <time>2016-03-13T09:59:05.000Z</time>
      </trkpt>
      <trkpt lat="47.42298" lon="6.80564">
        <ele>506</ele>
        <time>2016-03-13T09:59:06.000Z</time>
      </trkpt>
      <trkpt lat="47.42301" lon="6.80571">
        <ele>506</ele>
        <time>2016-03-13T09:59:07.000Z</time>
      </trkpt>
      <trkpt lat="47.42307" lon="6.80582">
        <ele>506</ele>
        <time>2016-03-13T09:59:08.000Z</time>
      </trkpt>
      <trkpt lat="47.42312" lon="6.80589">
        <ele>501</ele>
        <time>2016-03-13T09:59:09.000Z</time>
      </trkpt>
      <trkpt lat="47.42316" lon="6.80595">
        <ele>501</ele>
        <time>2016-03-13T09:59:10.000Z</time>
      </trkpt>
      <trkpt lat="47.42321" lon="6.80604">
        <ele>501</ele>
        <time>2016-03-13T09:59:11.000Z</time>
      </trkpt>
      <trkpt lat="47.42326" lon="6.8061">
        <ele>501</ele>
        <time>2016-03-13T09:59:12.000Z</time>
      </trkpt>
      <trkpt lat="47.4233" lon="6.80616">
        <ele>500</ele>
        <time>2016-03-13T09:59:13.000Z</time>
      </trkpt>
      <trkpt lat="47.42339" lon="6.80633">
        <ele>503</ele>
        <time>2016-03-13T09:59:14.000Z</time>
      </trkpt>
      <trkpt lat="47.42343" lon="6.80639">
        <ele>503</ele>
        <time>2016-03-13T09:59:15.000Z</time>
      </trkpt>
      <trkpt lat="47.42347" lon="6.80645">
        <ele>503</ele>
        <time>2016-03-13T09:59:16.000Z</time>
      </trkpt>
      <trkpt lat="47.4235" lon="6.80653">
        <ele>503</ele>
        <time>2016-03-13T09:59:17.000Z</time>
      </trkpt>
      <trkpt lat="47.42353" lon="6.8066">
        <ele>502</ele>
        <time>2016-03-13T09:59:18.000Z</time>
      </trkpt>
      <trkpt lat="47.42356" lon="6.80666">
        <ele>503</ele>
        <time>2016-03-13T09:59:19.000Z</time>
      </trkpt>
      <trkpt lat="47.42359" lon="6.80673">
        <ele>501</ele>
        <time>2016-03-13T09:59:20.000Z</time>
      </trkpt>
      <trkpt lat="47.42362" lon="6.80678">
        <ele>501</ele>
        <time>2016-03-13T09:59:21.000Z</time>
      </trkpt>
      <trkpt lat="47.42366" lon="6.80678">
        <ele>501</ele>
        <time>2016-03-13T09:59:22.000Z</time>
      </trkpt>
      <trkpt lat="47.42368" lon="6.80682">
        <ele>501</ele>
        <time>2016-03-13T09:59:24.000Z</time>
      </trkpt>
      <trkpt lat="47.42371" lon="6.80682">
        <ele>501</ele>
        <time>2016-03-13T09:59:25.000Z</time>
      </trkpt>
      <trkpt lat="47.42375" lon="6.80686">
        <ele>501</ele>
        <time>2016-03-13T09:59:27.000Z</time>
      </trkpt>
      <trkpt lat="47.42376" lon="6.80686">
        <ele>502</ele>
        <time>2016-03-13T09:59:28.000Z</time>
      </trkpt>
      <trkpt lat="47.4238" lon="6.80687">
        <ele>502</ele>
        <time>2016-03-13T09:59:31.000Z</time>
      </trkpt>
      <trkpt lat="47.42382" lon="6.80688">
        <ele>502</ele>
        <time>2016-03-13T09:59:32.000Z</time>
      </trkpt>
      <trkpt lat="47.42383" lon="6.8069">
        <ele>502</ele>
        <time>2016-03-13T09:59:33.000Z</time>
      </trkpt>
      <trkpt lat="47.42385" lon="6.80694">
        <ele>502</ele>
        <time>2016-03-13T09:59:34.000Z</time>
      </trkpt>
      <trkpt lat="47.42388" lon="6.80699">
        <ele>502</ele>
        <time>2016-03-13T09:59:35.000Z</time>
      </trkpt>
      <trkpt lat="47.4239" lon="6.80704">
        <ele>502</ele>
        <time>2016-03-13T09:59:36.000Z</time>
      </trkpt>
      <trkpt lat="47.42394" lon="6.8071">
        <ele>502</ele>
        <time>2016-03-13T09:59:37.000Z</time>
      </trkpt>
      <trkpt lat="47.42402" lon="6.80722">
        <ele>503</ele>
        <time>2016-03-13T09:59:38.000Z</time>
      </trkpt>
      <trkpt lat="47.42405" lon="6.80727">
        <ele>503</ele>
        <time>2016-03-13T09:59:39.000Z</time>
      </trkpt>
      <trkpt lat="47.42407" lon="6.80733">
        <ele>503</ele>
        <time>2016-03-13T09:59:40.000Z</time>
      </trkpt>
      <trkpt lat="47.42411" lon="6.80737">
        <ele>504</ele>
        <time>2016-03-13T09:59:41.000Z</time>
      </trkpt>
      <trkpt lat="47.42416" lon="6.80741">
        <ele>504</ele>
        <time>2016-03-13T09:59:42.000Z</time>
      </trkpt>
      <trkpt lat="47.42421" lon="6.80748">
        <ele>505</ele>
        <time>2016-03-13T09:59:43.000Z</time>
      </trkpt>
      <trkpt lat="47.42425" lon="6.80753">
        <ele>504</ele>
        <time>2016-03-13T09:59:44.000Z</time>
      </trkpt>
      <trkpt lat="47.42427" lon="6.80758">
        <ele>503</ele>
        <time>2016-03-13T09:59:45.000Z</time>
      </trkpt>
      <trkpt lat="47.42432" lon="6.80767">
        <ele>501</ele>
        <time>2016-03-13T09:59:46.000Z</time>
      </trkpt>
      <trkpt lat="47.42435" lon="6.80774">
        <ele>501</ele>
        <time>2016-03-13T09:59:47.000Z</time>
      </trkpt>
      <trkpt lat="47.42439" lon="6.80779">
        <ele>500</ele>
        <time>2016-03-13T09:59:48.000Z</time>
      </trkpt>
      <trkpt lat="47.42444" lon="6.80785">
        <ele>499</ele>
        <time>2016-03-13T09:59:49.000Z</time>
      </trkpt>
      <trkpt lat="47.42449" lon="6.8079">
        <ele>499</ele>
        <time>2016-03-13T09:59:50.000Z</time>
      </trkpt>
      <trkpt lat="47.42455" lon="6.80794">
        <ele>499</ele>
        <time>2016-03-13T09:59:51.000Z</time>
      </trkpt>
      <trkpt lat="47.4246" lon="6.80798">
        <ele>499</ele>
        <time>2016-03-13T09:59:52.000Z</time>
      </trkpt>
      <trkpt lat="47.42466" lon="6.80804">
        <ele>499</ele>
        <time>2016-03-13T09:59:53.000Z</time>
      </trkpt>
      <trkpt lat="47.42476" lon="6.80814">
        <ele>499</ele>
        <time>2016-03-13T09:59:54.000Z</time>
      </trkpt>
      <trkpt lat="47.42482" lon="6.80818">
        <ele>499</ele>
        <time>2016-03-13T09:59:55.000Z</time>
      </trkpt>
      <trkpt lat="47.42489" lon="6.80825">
        <ele>499</ele>
        <time>2016-03-13T09:59:56.000Z</time>
      </trkpt>
      <trkpt lat="47.42496" lon="6.80836">
        <ele>500</ele>
        <time>2016-03-13T09:59:57.000Z</time>
      </trkpt>
      <trkpt lat="47.42504" lon="6.80843">
        <ele>499</ele>
        <time>2016-03-13T09:59:58.000Z</time>
      </trkpt>
      <trkpt lat="47.42509" lon="6.8085">
        <ele>498</ele>
        <time>2016-03-13T09:59:59.000Z</time>
      </trkpt>
      <trkpt lat="47.42515" lon="6.80858">
        <ele>497</ele>
        <time>2016-03-13T10:00:00.000Z</time>
      </trkpt>
      <trkpt lat="47.42519" lon="6.80865">
        <ele>497</ele>
        <time>2016-03-13T10:00:01.000Z</time>
      </trkpt>
      <trkpt lat="47.42525" lon="6.80873">
        <ele>497</ele>
        <time>2016-03-13T10:00:02.000Z</time>
      </trkpt>
      <trkpt lat="47.4253" lon="6.80878">
        <ele>497</ele>
        <time>2016-03-13T10:00:03.000Z</time>
      </trkpt>
      <trkpt lat="47.42538" lon="6.80881">
        <ele>496</ele>
        <time>2016-03-13T10:00:04.000Z</time>
      </trkpt>
      <trkpt lat="47.42548" lon="6.80887">
        <ele>496</ele>
        <time>2016-03-13T10:00:05.000Z</time>
      </trkpt>
      <trkpt lat="47.42556" lon="6.80893">
        <ele>496</ele>
        <time>2016-03-13T10:00:06.000Z</time>
      </trkpt>
      <trkpt lat="47.42564" lon="6.80899">
        <ele>495</ele>
        <time>2016-03-13T10:00:07.000Z</time>
      </trkpt>
      <trkpt lat="47.42575" lon="6.80902">
        <ele>495</ele>
        <time>2016-03-13T10:00:08.000Z</time>
      </trkpt>
      <trkpt lat="47.42583" lon="6.80905">
        <ele>495</ele>
        <time>2016-03-13T10:00:09.000Z</time>
      </trkpt>
      <trkpt lat="47.42593" lon="6.80909">
        <ele>491</ele>
        <time>2016-03-13T10:00:10.000Z</time>
      </trkpt>
      <trkpt lat="47.426" lon="6.80913">
        <ele>490</ele>
        <time>2016-03-13T10:00:11.000Z</time>
      </trkpt>
      <trkpt lat="47.42608" lon="6.80922">
        <ele>489</ele>
        <time>2016-03-13T10:00:12.000Z</time>
      </trkpt>
      <trkpt lat="47.42614" lon="6.80929">
        <ele>488</ele>
        <time>2016-03-13T10:00:13.000Z</time>
      </trkpt>
      <trkpt lat="47.4262" lon="6.80934">
        <ele>488</ele>
        <time>2016-03-13T10:00:14.000Z</time>
      </trkpt>
      <trkpt lat="47.42621" lon="6.8094">
        <ele>487</ele>
        <time>2016-03-13T10:00:16.000Z</time>
      </trkpt>
      <trkpt lat="47.42622" lon="6.80942">
        <ele>487</ele>
        <time>2016-03-13T10:00:17.000Z</time>
      </trkpt>
      <trkpt lat="47.42624" lon="6.80946">
        <ele>487</ele>
        <time>2016-03-13T10:00:18.000Z</time>
      </trkpt>
      <trkpt lat="47.42624" lon="6.80949">
        <ele>487</ele>
        <time>2016-03-13T10:00:19.000Z</time>
      </trkpt>
      <trkpt lat="47.42627" lon="6.80953">
        <ele>487</ele>
        <time>2016-03-13T10:00:20.000Z</time>
      </trkpt>
      <trkpt lat="47.42632" lon="6.80957">
        <ele>487</ele>
        <time>2016-03-13T10:00:21.000Z</time>
      </trkpt>
      <trkpt lat="47.42636" lon="6.80961">
        <ele>486</ele>
        <time>2016-03-13T10:00:22.000Z</time>
      </trkpt>
      <trkpt lat="47.42639" lon="6.80963">
        <ele>486</ele>
        <time>2016-03-13T10:00:23.000Z</time>
      </trkpt>
      <trkpt lat="47.42641" lon="6.80965">
        <ele>486</ele>
        <time>2016-03-13T10:00:24.000Z</time>
      </trkpt>
      <trkpt lat="47.42643" lon="6.80967">
        <ele>486</ele>
        <time>2016-03-13T10:00:25.000Z</time>
      </trkpt>
      <trkpt lat="47.42646" lon="6.80969">
        <ele>486</ele>
        <time>2016-03-13T10:00:26.000Z</time>
      </trkpt>
      <trkpt lat="47.42648" lon="6.80972">
        <ele>486</ele>
        <time>2016-03-13T10:00:27.000Z</time>
      </trkpt>
      <trkpt lat="47.4265" lon="6.80974">
        <ele>485</ele>
        <time>2016-03-13T10:00:28.000Z</time>
      </trkpt>
      <trkpt lat="47.42653" lon="6.80977">
        <ele>485</ele>
        <time>2016-03-13T10:00:29.000Z</time>
      </trkpt>
      <trkpt lat="47.42654" lon="6.80979">
        <ele>485</ele>
        <time>2016-03-13T10:00:30.000Z</time>
      </trkpt>
      <trkpt lat="47.42658" lon="6.80983">
        <ele>485</ele>
        <time>2016-03-13T10:00:32.000Z</time>
      </trkpt>
      <trkpt lat="47.42658" lon="6.80984">
        <ele>485</ele>
        <time>2016-03-13T10:00:33.000Z</time>
      </trkpt>
      <trkpt lat="47.42662" lon="6.80988">
        <ele>484</ele>
        <time>2016-03-13T10:00:36.000Z</time>
      </trkpt>
      <trkpt lat="47.42663" lon="6.8099">
        <ele>484</ele>
        <time>2016-03-13T10:00:37.000Z</time>
      </trkpt>
      <trkpt lat="47.42665" lon="6.80993">
        <ele>484</ele>
        <time>2016-03-13T10:00:38.000Z</time>
      </trkpt>
      <trkpt lat="47.42668" lon="6.80996">
        <ele>483</ele>
        <time>2016-03-13T10:00:39.000Z</time>
      </trkpt>
      <trkpt lat="47.42671" lon="6.80999">
        <ele>483</ele>
        <time>2016-03-13T10:00:40.000Z</time>
      </trkpt>
      <trkpt lat="47.42674" lon="6.81002">
        <ele>482</ele>
        <time>2016-03-13T10:00:41.000Z</time>
      </trkpt>
      <trkpt lat="47.42677" lon="6.81006">
        <ele>481</ele>
        <time>2016-03-13T10:00:42.000Z</time>
      </trkpt>
      <trkpt lat="47.4268" lon="6.8101">
        <ele>480</ele>
        <time>2016-03-13T10:00:43.000Z</time>
      </trkpt>
      <trkpt lat="47.42683" lon="6.81015">
        <ele>480</ele>
        <time>2016-03-13T10:00:44.000Z</time>
      </trkpt>
      <trkpt lat="47.42687" lon="6.81019">
        <ele>479</ele>
        <time>2016-03-13T10:00:45.000Z</time>
      </trkpt>
      <trkpt lat="47.42691" lon="6.81023">
        <ele>479</ele>
        <time>2016-03-13T10:00:46.000Z</time>
      </trkpt>
      <trkpt lat="47.42694" lon="6.81026">
        <ele>479</ele>
        <time>2016-03-13T10:00:47.000Z</time>
      </trkpt>
      <trkpt lat="47.42698" lon="6.81029">
        <ele>478</ele>
        <time>2016-03-13T10:00:48.000Z</time>
      </trkpt>
      <trkpt lat="47.42701" lon="6.81032">
        <ele>478</ele>
        <time>2016-03-13T10:00:49.000Z</time>
      </trkpt>
      <trkpt lat="47.42705" lon="6.81036">
        <ele>478</ele>
        <time>2016-03-13T10:00:50.000Z</time>
      </trkpt>
      <trkpt lat="47.42709" lon="6.8104">
        <ele>478</ele>
        <time>2016-03-13T10:00:51.000Z</time>
      </trkpt>
      <trkpt lat="47.42712" lon="6.81044">
        <ele>477</ele>
        <time>2016-03-13T10:00:52.000Z</time>
      </trkpt>
      <trkpt lat="47.42716" lon="6.81048">
        <ele>477</ele>
        <time>2016-03-13T10:00:53.000Z</time>
      </trkpt>
      <trkpt lat="47.4272" lon="6.81051">
        <ele>477</ele>
        <time>2016-03-13T10:00:54.000Z</time>
      </trkpt>
      <trkpt lat="47.42724" lon="6.81055">
        <ele>477</ele>
        <time>2016-03-13T10:00:55.000Z</time>
      </trkpt>
      <trkpt lat="47.42728" lon="6.81059">
        <ele>477</ele>
        <time>2016-03-13T10:00:56.000Z</time>
      </trkpt>
      <trkpt lat="47.42731" lon="6.81063">
        <ele>476</ele>
        <time>2016-03-13T10:00:57.000Z</time>
      </trkpt>
      <trkpt lat="47.42734" lon="6.81067">
        <ele>476</ele>
        <time>2016-03-13T10:00:58.000Z</time>
      </trkpt>
      <trkpt lat="47.42737" lon="6.81073">
        <ele>476</ele>
        <time>2016-03-13T10:00:59.000Z</time>
      </trkpt>
      <trkpt lat="47.42741" lon="6.81078">
        <ele>475</ele>
        <time>2016-03-13T10:01:00.000Z</time>
      </trkpt>
      <trkpt lat="47.42744" lon="6.81083">
        <ele>475</ele>
        <time>2016-03-13T10:01:01.000Z</time>
      </trkpt>
      <trkpt lat="47.42748" lon="6.81089">
        <ele>472</ele>
        <time>2016-03-13T10:01:02.000Z</time>
      </trkpt>
      <trkpt lat="47.42751" lon="6.81094">
        <ele>473</ele>
        <time>2016-03-13T10:01:03.000Z</time>
      </trkpt>
      <trkpt lat="47.42755" lon="6.81099">
        <ele>472</ele>
        <time>2016-03-13T10:01:04.000Z</time>
      </trkpt>
      <trkpt lat="47.42758" lon="6.81103">
        <ele>472</ele>
        <time>2016-03-13T10:01:05.000Z</time>
      </trkpt>
      <trkpt lat="47.42762" lon="6.81107">
        <ele>472</ele>
        <time>2016-03-13T10:01:06.000Z</time>
      </trkpt>
      <trkpt lat="47.42765" lon="6.81112">
        <ele>471</ele>
        <time>2016-03-13T10:01:07.000Z</time>
      </trkpt>
      <trkpt lat="47.42769" lon="6.81115">
        <ele>471</ele>
        <time>2016-03-13T10:01:08.000Z</time>
      </trkpt>
      <trkpt lat="47.42773" lon="6.81119">
        <ele>471</ele>
        <time>2016-03-13T10:01:09.000Z</time>
      </trkpt>
      <trkpt lat="47.42776" lon="6.81122">
        <ele>471</ele>
        <time>2016-03-13T10:01:10.000Z</time>
      </trkpt>
      <trkpt lat="47.4278" lon="6.81125">
        <ele>471</ele>
        <time>2016-03-13T10:01:11.000Z</time>
      </trkpt>
      <trkpt lat="47.42784" lon="6.81128">
        <ele>471</ele>
        <time>2016-03-13T10:01:12.000Z</time>
      </trkpt>
      <trkpt lat="47.42788" lon="6.81131">
        <ele>471</ele>
        <time>2016-03-13T10:01:13.000Z</time>
      </trkpt>
      <trkpt lat="47.42793" lon="6.81134">
        <ele>471</ele>
        <time>2016-03-13T10:01:14.000Z</time>
      </trkpt>
      <trkpt lat="47.42798" lon="6.81138">
        <ele>471</ele>
        <time>2016-03-13T10:01:15.000Z</time>
      </trkpt>
      <trkpt lat="47.42802" lon="6.81142">
        <ele>471</ele>
        <time>2016-03-13T10:01:16.000Z</time>
      </trkpt>
      <trkpt lat="47.42816" lon="6.81157">
        <ele>471</ele>
        <time>2016-03-13T10:01:17.000Z</time>
      </trkpt>
      <trkpt lat="47.42819" lon="6.81163">
        <ele>471</ele>
        <time>2016-03-13T10:01:18.000Z</time>
      </trkpt>
      <trkpt lat="47.42823" lon="6.81165">
        <ele>472</ele>
        <time>2016-03-13T10:01:19.000Z</time>
      </trkpt>
      <trkpt lat="47.42828" lon="6.81169">
        <ele>470</ele>
        <time>2016-03-13T10:01:20.000Z</time>
      </trkpt>
      <trkpt lat="47.42831" lon="6.81175">
        <ele>469</ele>
        <time>2016-03-13T10:01:21.000Z</time>
      </trkpt>
      <trkpt lat="47.42834" lon="6.81183">
        <ele>470</ele>
        <time>2016-03-13T10:01:22.000Z</time>
      </trkpt>
      <trkpt lat="47.42837" lon="6.81189">
        <ele>469</ele>
        <time>2016-03-13T10:01:23.000Z</time>
      </trkpt>
      <trkpt lat="47.42841" lon="6.81194">
        <ele>469</ele>
        <time>2016-03-13T10:01:24.000Z</time>
      </trkpt>
      <trkpt lat="47.42844" lon="6.81201">
        <ele>468</ele>
        <time>2016-03-13T10:01:25.000Z</time>
      </trkpt>
      <trkpt lat="47.42847" lon="6.81208">
        <ele>468</ele>
        <time>2016-03-13T10:01:26.000Z</time>
      </trkpt>
      <trkpt lat="47.42851" lon="6.81211">
        <ele>468</ele>
        <time>2016-03-13T10:01:27.000Z</time>
      </trkpt>
      <trkpt lat="47.42852" lon="6.81215">
        <ele>467</ele>
        <time>2016-03-13T10:01:28.000Z</time>
      </trkpt>
      <trkpt lat="47.42853" lon="6.8122">
        <ele>467</ele>
        <time>2016-03-13T10:01:29.000Z</time>
      </trkpt>
      <trkpt lat="47.42855" lon="6.81224">
        <ele>467</ele>
        <time>2016-03-13T10:01:30.000Z</time>
      </trkpt>
      <trkpt lat="47.42857" lon="6.81229">
        <ele>467</ele>
        <time>2016-03-13T10:01:31.000Z</time>
      </trkpt>
      <trkpt lat="47.4286" lon="6.81233">
        <ele>467</ele>
        <time>2016-03-13T10:01:32.000Z</time>
      </trkpt>
      <trkpt lat="47.42863" lon="6.81237">
        <ele>467</ele>
        <time>2016-03-13T10:01:33.000Z</time>
      </trkpt>
      <trkpt lat="47.42865" lon="6.81242">
        <ele>467</ele>
        <time>2016-03-13T10:01:34.000Z</time>
      </trkpt>
      <trkpt lat="47.42868" lon="6.81247">
        <ele>467</ele>
        <time>2016-03-13T10:01:35.000Z</time>
      </trkpt>
      <trkpt lat="47.4287" lon="6.81252">
        <ele>462</ele>
        <time>2016-03-13T10:01:36.000Z</time>
      </trkpt>
      <trkpt lat="47.42872" lon="6.81258">
        <ele>462</ele>
        <time>2016-03-13T10:01:37.000Z</time>
      </trkpt>
      <trkpt lat="47.42874" lon="6.81264">
        <ele>462</ele>
        <time>2016-03-13T10:01:38.000Z</time>
      </trkpt>
      <trkpt lat="47.42877" lon="6.8127">
        <ele>462</ele>
        <time>2016-03-13T10:01:39.000Z</time>
      </trkpt>
      <trkpt lat="47.4288" lon="6.81277">
        <ele>462</ele>
        <time>2016-03-13T10:01:40.000Z</time>
      </trkpt>
      <trkpt lat="47.42884" lon="6.81284">
        <ele>461</ele>
        <time>2016-03-13T10:01:41.000Z</time>
      </trkpt>
      <trkpt lat="47.42886" lon="6.81289">
        <ele>461</ele>
        <time>2016-03-13T10:01:42.000Z</time>
      </trkpt>
      <trkpt lat="47.42889" lon="6.81293">
        <ele>461</ele>
        <time>2016-03-13T10:01:43.000Z</time>
      </trkpt>
      <trkpt lat="47.42892" lon="6.81297">
        <ele>461</ele>
        <time>2016-03-13T10:01:44.000Z</time>
      </trkpt>
      <trkpt lat="47.42895" lon="6.813">
        <ele>461</ele>
        <time>2016-03-13T10:01:45.000Z</time>
      </trkpt>
      <trkpt lat="47.42898" lon="6.81302">
        <ele>461</ele>
        <time>2016-03-13T10:01:46.000Z</time>
      </trkpt>
      <trkpt lat="47.42901" lon="6.81305">
        <ele>461</ele>
        <time>2016-03-13T10:01:47.000Z</time>
      </trkpt>
      <trkpt lat="47.42903" lon="6.81307">
        <ele>461</ele>
        <time>2016-03-13T10:01:48.000Z</time>
      </trkpt>
      <trkpt lat="47.42906" lon="6.81309">
        <ele>461</ele>
        <time>2016-03-13T10:01:49.000Z</time>
      </trkpt>
      <trkpt lat="47.42908" lon="6.81311">
        <ele>461</ele>
        <time>2016-03-13T10:01:50.000Z</time>
      </trkpt>
      <trkpt lat="47.4291" lon="6.81312">
        <ele>461</ele>
        <time>2016-03-13T10:01:51.000Z</time>
      </trkpt>
      <trkpt lat="47.42913" lon="6.81316">
        <ele>461</ele>
        <time>2016-03-13T10:01:54.000Z</time>
      </trkpt>
      <trkpt lat="47.42914" lon="6.81318">
        <ele>461</ele>
        <time>2016-03-13T10:01:55.000Z</time>
      </trkpt>
      <trkpt lat="47.42916" lon="6.81321">
        <ele>462</ele>
        <time>2016-03-13T10:01:57.000Z</time>
      </trkpt>
      <trkpt lat="47.42918" lon="6.81323">
        <ele>463</ele>
        <time>2016-03-13T10:01:58.000Z</time>
      </trkpt>
      <trkpt lat="47.42919" lon="6.81327">
        <ele>463</ele>
        <time>2016-03-13T10:02:00.000Z</time>
      </trkpt>
      <trkpt lat="47.4292" lon="6.81329">
        <ele>463</ele>
        <time>2016-03-13T10:02:01.000Z</time>
      </trkpt>
      <trkpt lat="47.42923" lon="6.81333">
        <ele>463</ele>
        <time>2016-03-13T10:02:05.000Z</time>
      </trkpt>
      <trkpt lat="47.42924" lon="6.81334">
        <ele>462</ele>
        <time>2016-03-13T10:02:06.000Z</time>
      </trkpt>
      <trkpt lat="47.42927" lon="6.81338">
        <ele>462</ele>
        <time>2016-03-13T10:02:09.000Z</time>
      </trkpt>
      <trkpt lat="47.42928" lon="6.8134">
        <ele>462</ele>
        <time>2016-03-13T10:02:10.000Z</time>
      </trkpt>
      <trkpt lat="47.4293" lon="6.81343">
        <ele>462</ele>
        <time>2016-03-13T10:02:11.000Z</time>
      </trkpt>
      <trkpt lat="47.42931" lon="6.81346">
        <ele>462</ele>
        <time>2016-03-13T10:02:12.000Z</time>
      </trkpt>
      <trkpt lat="47.42933" lon="6.8135">
        <ele>462</ele>
        <time>2016-03-13T10:02:13.000Z</time>
      </trkpt>
      <trkpt lat="47.42935" lon="6.81353">
        <ele>461</ele>
        <time>2016-03-13T10:02:14.000Z</time>
      </trkpt>
      <trkpt lat="47.42937" lon="6.81358">
        <ele>461</ele>
        <time>2016-03-13T10:02:16.000Z</time>
      </trkpt>
      <trkpt lat="47.42938" lon="6.81361">
        <ele>461</ele>
        <time>2016-03-13T10:02:17.000Z</time>
      </trkpt>
      <trkpt lat="47.42939" lon="6.81363">
        <ele>461</ele>
        <time>2016-03-13T10:02:18.000Z</time>
      </trkpt>
      <trkpt lat="47.4294" lon="6.81366">
        <ele>461</ele>
        <time>2016-03-13T10:02:19.000Z</time>
      </trkpt>
      <trkpt lat="47.42942" lon="6.8137">
        <ele>461</ele>
        <time>2016-03-13T10:02:20.000Z</time>
      </trkpt>
      <trkpt lat="47.42944" lon="6.81372">
        <ele>461</ele>
        <time>2016-03-13T10:02:21.000Z</time>
      </trkpt>
      <trkpt lat="47.42945" lon="6.81375">
        <ele>461</ele>
        <time>2016-03-13T10:02:22.000Z</time>
      </trkpt>
      <trkpt lat="47.42945" lon="6.81379">
        <ele>461</ele>
        <time>2016-03-13T10:02:23.000Z</time>
      </trkpt>
      <trkpt lat="47.42946" lon="6.81382">
        <ele>461</ele>
        <time>2016-03-13T10:02:24.000Z</time>
      </trkpt>
      <trkpt lat="47.42946" lon="6.81386">
        <ele>460</ele>
        <time>2016-03-13T10:02:25.000Z</time>
      </trkpt>
      <trkpt lat="47.42947" lon="6.81389">
        <ele>460</ele>
        <time>2016-03-13T10:02:26.000Z</time>
      </trkpt>
      <trkpt lat="47.42949" lon="6.81392">
        <ele>460</ele>
        <time>2016-03-13T10:02:27.000Z</time>
      </trkpt>
      <trkpt lat="47.42951" lon="6.81395">
        <ele>460</ele>
        <time>2016-03-13T10:02:28.000Z</time>
      </trkpt>
      <trkpt lat="47.42954" lon="6.814">
        <ele>460</ele>
        <time>2016-03-13T10:02:29.000Z</time>
      </trkpt>
      <trkpt lat="47.42958" lon="6.81404">
        <ele>461</ele>
        <time>2016-03-13T10:02:30.000Z</time>
      </trkpt>
      <trkpt lat="47.42961" lon="6.81409">
        <ele>461</ele>
        <time>2016-03-13T10:02:31.000Z</time>
      </trkpt>
      <trkpt lat="47.42964" lon="6.81413">
        <ele>461</ele>
        <time>2016-03-13T10:02:32.000Z</time>
      </trkpt>
      <trkpt lat="47.42967" lon="6.81417">
        <ele>457</ele>
        <time>2016-03-13T10:02:33.000Z</time>
      </trkpt>
      <trkpt lat="47.42971" lon="6.8142">
        <ele>457</ele>
        <time>2016-03-13T10:02:34.000Z</time>
      </trkpt>
      <trkpt lat="47.42975" lon="6.81424">
        <ele>457</ele>
        <time>2016-03-13T10:02:35.000Z</time>
      </trkpt>
      <trkpt lat="47.4298" lon="6.81427">
        <ele>458</ele>
        <time>2016-03-13T10:02:36.000Z</time>
      </trkpt>
      <trkpt lat="47.42984" lon="6.8143">
        <ele>458</ele>
        <time>2016-03-13T10:02:37.000Z</time>
      </trkpt>
      <trkpt lat="47.42988" lon="6.81433">
        <ele>458</ele>
        <time>2016-03-13T10:02:38.000Z</time>
      </trkpt>
      <trkpt lat="47.42991" lon="6.81436">
        <ele>458</ele>
        <time>2016-03-13T10:02:39.000Z</time>
      </trkpt>
      <trkpt lat="47.42994" lon="6.81439">
        <ele>458</ele>
        <time>2016-03-13T10:02:40.000Z</time>
      </trkpt>
      <trkpt lat="47.42997" lon="6.81443">
        <ele>458</ele>
        <time>2016-03-13T10:02:41.000Z</time>
      </trkpt>
      <trkpt lat="47.43001" lon="6.81447">
        <ele>460</ele>
        <time>2016-03-13T10:02:42.000Z</time>
      </trkpt>
      <trkpt lat="47.43005" lon="6.81451">
        <ele>460</ele>
        <time>2016-03-13T10:02:43.000Z</time>
      </trkpt>
      <trkpt lat="47.4301" lon="6.81457">
        <ele>459</ele>
        <time>2016-03-13T10:02:44.000Z</time>
      </trkpt>
      <trkpt lat="47.43019" lon="6.81471">
        <ele>458</ele>
        <time>2016-03-13T10:02:45.000Z</time>
      </trkpt>
      <trkpt lat="47.43023" lon="6.81477">
        <ele>458</ele>
        <time>2016-03-13T10:02:46.000Z</time>
      </trkpt>
      <trkpt lat="47.43026" lon="6.81482">
        <ele>458</ele>
        <time>2016-03-13T10:02:47.000Z</time>
      </trkpt>
      <trkpt lat="47.43029" lon="6.81488">
        <ele>458</ele>
        <time>2016-03-13T10:02:48.000Z</time>
      </trkpt>
      <trkpt lat="47.43034" lon="6.81494">
        <ele>458</ele>
        <time>2016-03-13T10:02:49.000Z</time>
      </trkpt>
      <trkpt lat="47.43037" lon="6.81498">
        <ele>457</ele>
        <time>2016-03-13T10:02:50.000Z</time>
      </trkpt>
      <trkpt lat="47.4304" lon="6.81505">
        <ele>452</ele>
        <time>2016-03-13T10:02:51.000Z</time>
      </trkpt>
      <trkpt lat="47.43044" lon="6.81513">
        <ele>452</ele>
        <time>2016-03-13T10:02:52.000Z</time>
      </trkpt>
      <trkpt lat="47.43043" lon="6.8152">
        <ele>451</ele>
        <time>2016-03-13T10:02:53.000Z</time>
      </trkpt>
      <trkpt lat="47.43046" lon="6.81521">
        <ele>451</ele>
        <time>2016-03-13T10:02:54.000Z</time>
      </trkpt>
      <trkpt lat="47.43047" lon="6.81525">
        <ele>451</ele>
        <time>2016-03-13T10:02:55.000Z</time>
      </trkpt>
      <trkpt lat="47.43044" lon="6.81528">
        <ele>451</ele>
        <time>2016-03-13T10:03:00.000Z</time>
      </trkpt>
      <trkpt lat="47.43043" lon="6.81527">
        <ele>451</ele>
        <time>2016-03-13T10:03:01.000Z</time>
      </trkpt>
      <trkpt lat="47.4304" lon="6.81522">
        <ele>451</ele>
        <time>2016-03-13T10:03:05.000Z</time>
      </trkpt>
      <trkpt lat="47.4304" lon="6.81521">
        <ele>451</ele>
        <time>2016-03-13T10:03:06.000Z</time>
      </trkpt>
      <trkpt lat="47.43041" lon="6.81527">
        <ele>451</ele>
        <time>2016-03-13T10:05:41.000Z</time>
      </trkpt>
      <trkpt lat="47.43041" lon="6.8153">
        <ele>451</ele>
        <time>2016-03-13T10:05:42.000Z</time>
      </trkpt>
      <trkpt lat="47.43041" lon="6.81536">
        <ele>450</ele>
        <time>2016-03-13T10:05:44.000Z</time>
      </trkpt>
      <trkpt lat="47.43042" lon="6.8154">
        <ele>450</ele>
        <time>2016-03-13T10:05:45.000Z</time>
      </trkpt>
      <trkpt lat="47.43044" lon="6.81544">
        <ele>450</ele>
        <time>2016-03-13T10:05:46.000Z</time>
      </trkpt>
      <trkpt lat="47.43046" lon="6.81547">
        <ele>449</ele>
        <time>2016-03-13T10:05:47.000Z</time>
      </trkpt>
      <trkpt lat="47.43048" lon="6.81551">
        <ele>449</ele>
        <time>2016-03-13T10:05:48.000Z</time>
      </trkpt>
      <trkpt lat="47.4306" lon="6.81565">
        <ele>448</ele>
        <time>2016-03-13T10:05:49.000Z</time>
      </trkpt>
      <trkpt lat="47.43064" lon="6.81571">
        <ele>447</ele>
        <time>2016-03-13T10:05:50.000Z</time>
      </trkpt>
      <trkpt lat="47.43069" lon="6.81576">
        <ele>447</ele>
        <time>2016-03-13T10:05:51.000Z</time>
      </trkpt>
      <trkpt lat="47.43071" lon="6.81577">
        <ele>446</ele>
        <time>2016-03-13T10:05:52.000Z</time>
      </trkpt>
      <trkpt lat="47.43076" lon="6.81584">
        <ele>441</ele>
        <time>2016-03-13T10:05:53.000Z</time>
      </trkpt>
      <trkpt lat="47.43081" lon="6.81591">
        <ele>441</ele>
        <time>2016-03-13T10:05:54.000Z</time>
      </trkpt>
      <trkpt lat="47.43087" lon="6.81595">
        <ele>440</ele>
        <time>2016-03-13T10:05:55.000Z</time>
      </trkpt>
      <trkpt lat="47.43092" lon="6.81596">
        <ele>439</ele>
        <time>2016-03-13T10:05:56.000Z</time>
      </trkpt>
      <trkpt lat="47.43098" lon="6.816">
        <ele>437</ele>
        <time>2016-03-13T10:05:57.000Z</time>
      </trkpt>
      <trkpt lat="47.43103" lon="6.81603">
        <ele>436</ele>
        <time>2016-03-13T10:05:58.000Z</time>
      </trkpt>
      <trkpt lat="47.43108" lon="6.81605">
        <ele>436</ele>
        <time>2016-03-13T10:05:59.000Z</time>
      </trkpt>
      <trkpt lat="47.43114" lon="6.81608">
        <ele>435</ele>
        <time>2016-03-13T10:06:00.000Z</time>
      </trkpt>
      <trkpt lat="47.43121" lon="6.81611">
        <ele>435</ele>
        <time>2016-03-13T10:06:01.000Z</time>
      </trkpt>
      <trkpt lat="47.43127" lon="6.81613">
        <ele>434</ele>
        <time>2016-03-13T10:06:02.000Z</time>
      </trkpt>
      <trkpt lat="47.43135" lon="6.81614">
        <ele>434</ele>
        <time>2016-03-13T10:06:03.000Z</time>
      </trkpt>
      <trkpt lat="47.43154" lon="6.81606">
        <ele>436</ele>
        <time>2016-03-13T10:06:04.000Z</time>
      </trkpt>
      <trkpt lat="47.43164" lon="6.81608">
        <ele>436</ele>
        <time>2016-03-13T10:06:05.000Z</time>
      </trkpt>
      <trkpt lat="47.43174" lon="6.81607">
        <ele>437</ele>
        <time>2016-03-13T10:06:06.000Z</time>
      </trkpt>
      <trkpt lat="47.43182" lon="6.8161">
        <ele>436</ele>
        <time>2016-03-13T10:06:07.000Z</time>
      </trkpt>
      <trkpt lat="47.43189" lon="6.81612">
        <ele>436</ele>
        <time>2016-03-13T10:06:08.000Z</time>
      </trkpt>
      <trkpt lat="47.43196" lon="6.81614">
        <ele>436</ele>
        <time>2016-03-13T10:06:09.000Z</time>
      </trkpt>
      <trkpt lat="47.43206" lon="6.81616">
        <ele>436</ele>
        <time>2016-03-13T10:06:10.000Z</time>
      </trkpt>
      <trkpt lat="47.43214" lon="6.81619">
        <ele>436</ele>
        <time>2016-03-13T10:06:11.000Z</time>
      </trkpt>
      <trkpt lat="47.43221" lon="6.81621">
        <ele>436</ele>
        <time>2016-03-13T10:06:12.000Z</time>
      </trkpt>
      <trkpt lat="47.43228" lon="6.81626">
        <ele>436</ele>
        <time>2016-03-13T10:06:13.000Z</time>
      </trkpt>
      <trkpt lat="47.43236" lon="6.81631">
        <ele>435</ele>
        <time>2016-03-13T10:06:14.000Z</time>
      </trkpt>
      <trkpt lat="47.43243" lon="6.81639">
        <ele>434</ele>
        <time>2016-03-13T10:06:15.000Z</time>
      </trkpt>
      <trkpt lat="47.43249" lon="6.81642">
        <ele>434</ele>
        <time>2016-03-13T10:06:16.000Z</time>
      </trkpt>
      <trkpt lat="47.43253" lon="6.81645">
        <ele>435</ele>
        <time>2016-03-13T10:06:17.000Z</time>
      </trkpt>
      <trkpt lat="47.43257" lon="6.81645">
        <ele>435</ele>
        <time>2016-03-13T10:06:31.000Z</time>
      </trkpt>
      <trkpt lat="47.43258" lon="6.81646">
        <ele>435</ele>
        <time>2016-03-13T10:06:32.000Z</time>
      </trkpt>
      <trkpt lat="47.43261" lon="6.81651">
        <ele>434</ele>
        <time>2016-03-13T10:06:34.000Z</time>
      </trkpt>
      <trkpt lat="47.43262" lon="6.81654">
        <ele>434</ele>
        <time>2016-03-13T10:06:35.000Z</time>
      </trkpt>
      <trkpt lat="47.43264" lon="6.81658">
        <ele>434</ele>
        <time>2016-03-13T10:06:36.000Z</time>
      </trkpt>
      <trkpt lat="47.43266" lon="6.81663">
        <ele>434</ele>
        <time>2016-03-13T10:06:37.000Z</time>
      </trkpt>
      <trkpt lat="47.43267" lon="6.81667">
        <ele>427</ele>
        <time>2016-03-13T10:06:38.000Z</time>
      </trkpt>
      <trkpt lat="47.43268" lon="6.81671">
        <ele>427</ele>
        <time>2016-03-13T10:06:39.000Z</time>
      </trkpt>
      <trkpt lat="47.4327" lon="6.81677">
        <ele>426</ele>
        <time>2016-03-13T10:06:42.000Z</time>
      </trkpt>
      <trkpt lat="47.43269" lon="6.81678">
        <ele>426</ele>
        <time>2016-03-13T10:06:43.000Z</time>
      </trkpt>
      <trkpt lat="47.4327" lon="6.81684">
        <ele>426</ele>
        <time>2016-03-13T10:06:46.000Z</time>
      </trkpt>
      <trkpt lat="47.43273" lon="6.81687">
        <ele>425</ele>
        <time>2016-03-13T10:06:47.000Z</time>
      </trkpt>
      <trkpt lat="47.43276" lon="6.8169">
        <ele>425</ele>
        <time>2016-03-13T10:06:48.000Z</time>
      </trkpt>
      <trkpt lat="47.43279" lon="6.81692">
        <ele>424</ele>
        <time>2016-03-13T10:06:49.000Z</time>
      </trkpt>
      <trkpt lat="47.43281" lon="6.81693">
        <ele>424</ele>
        <time>2016-03-13T10:06:50.000Z</time>
      </trkpt>
      <trkpt lat="47.43283" lon="6.81695">
        <ele>424</ele>
        <time>2016-03-13T10:06:51.000Z</time>
      </trkpt>
      <trkpt lat="47.43285" lon="6.81697">
        <ele>424</ele>
        <time>2016-03-13T10:06:52.000Z</time>
      </trkpt>
      <trkpt lat="47.43288" lon="6.817">
        <ele>424</ele>
        <time>2016-03-13T10:06:53.000Z</time>
      </trkpt>
      <trkpt lat="47.43291" lon="6.81703">
        <ele>423</ele>
        <time>2016-03-13T10:06:54.000Z</time>
      </trkpt>
      <trkpt lat="47.43294" lon="6.81706">
        <ele>423</ele>
        <time>2016-03-13T10:06:55.000Z</time>
      </trkpt>
      <trkpt lat="47.43298" lon="6.81709">
        <ele>423</ele>
        <time>2016-03-13T10:06:56.000Z</time>
      </trkpt>
      <trkpt lat="47.43301" lon="6.81712">
        <ele>423</ele>
        <time>2016-03-13T10:06:57.000Z</time>
      </trkpt>
      <trkpt lat="47.43311" lon="6.81722">
        <ele>422</ele>
        <time>2016-03-13T10:06:58.000Z</time>
      </trkpt>
      <trkpt lat="47.43314" lon="6.81724">
        <ele>422</ele>
        <time>2016-03-13T10:07:00.000Z</time>
      </trkpt>
      <trkpt lat="47.43317" lon="6.81726">
        <ele>422</ele>
        <time>2016-03-13T10:07:01.000Z</time>
      </trkpt>
      <trkpt lat="47.4332" lon="6.81729">
        <ele>421</ele>
        <time>2016-03-13T10:07:02.000Z</time>
      </trkpt>
      <trkpt lat="47.43323" lon="6.81732">
        <ele>421</ele>
        <time>2016-03-13T10:07:03.000Z</time>
      </trkpt>
      <trkpt lat="47.43324" lon="6.81737">
        <ele>420</ele>
        <time>2016-03-13T10:07:04.000Z</time>
      </trkpt>
      <trkpt lat="47.43329" lon="6.81741">
        <ele>420</ele>
        <time>2016-03-13T10:07:05.000Z</time>
      </trkpt>
      <trkpt lat="47.43332" lon="6.81741">
        <ele>420</ele>
        <time>2016-03-13T10:07:06.000Z</time>
      </trkpt>
      <trkpt lat="47.43337" lon="6.81739">
        <ele>419</ele>
        <time>2016-03-13T10:07:07.000Z</time>
      </trkpt>
      <trkpt lat="47.4334" lon="6.81739">
        <ele>419</ele>
        <time>2016-03-13T10:07:08.000Z</time>
      </trkpt>
      <trkpt lat="47.43343" lon="6.81738">
        <ele>419</ele>
        <time>2016-03-13T10:07:09.000Z</time>
      </trkpt>
      <trkpt lat="47.43347" lon="6.81739">
        <ele>419</ele>
        <time>2016-03-13T10:07:10.000Z</time>
      </trkpt>
      <trkpt lat="47.43351" lon="6.81741">
        <ele>419</ele>
        <time>2016-03-13T10:07:11.000Z</time>
      </trkpt>
      <trkpt lat="47.43354" lon="6.81744">
        <ele>419</ele>
        <time>2016-03-13T10:07:12.000Z</time>
      </trkpt>
      <trkpt lat="47.43357" lon="6.81749">
        <ele>419</ele>
        <time>2016-03-13T10:07:13.000Z</time>
      </trkpt>
      <trkpt lat="47.43361" lon="6.81753">
        <ele>409</ele>
        <time>2016-03-13T10:07:14.000Z</time>
      </trkpt>
      <trkpt lat="47.4337" lon="6.81764">
        <ele>407</ele>
        <time>2016-03-13T10:07:15.000Z</time>
      </trkpt>
      <trkpt lat="47.43375" lon="6.81769">
        <ele>406</ele>
        <time>2016-03-13T10:07:16.000Z</time>
      </trkpt>
      <trkpt lat="47.43379" lon="6.81775">
        <ele>405</ele>
        <time>2016-03-13T10:07:17.000Z</time>
      </trkpt>
      <trkpt lat="47.43383" lon="6.8178">
        <ele>405</ele>
        <time>2016-03-13T10:07:18.000Z</time>
      </trkpt>
      <trkpt lat="47.43387" lon="6.81781">
        <ele>405</ele>
        <time>2016-03-13T10:07:19.000Z</time>
      </trkpt>
      <trkpt lat="47.43391" lon="6.81783">
        <ele>404</ele>
        <time>2016-03-13T10:07:20.000Z</time>
      </trkpt>
      <trkpt lat="47.43395" lon="6.81782">
        <ele>404</ele>
        <time>2016-03-13T10:07:29.000Z</time>
      </trkpt>
      <trkpt lat="47.43395" lon="6.81782">
        <ele>404</ele>
        <time>2016-03-13T10:07:30.000Z</time>
      </trkpt>
      <trkpt lat="47.43399" lon="6.81779">
        <ele>405</ele>
        <time>2016-03-13T10:08:27.000Z</time>
      </trkpt>
      <trkpt lat="47.43399" lon="6.81779">
        <ele>405</ele>
        <time>2016-03-13T10:08:28.000Z</time>
      </trkpt>
      <trkpt lat="47.43402" lon="6.81774">
        <ele>405</ele>
        <time>2016-03-13T10:09:37.000Z</time>
      </trkpt>
      <trkpt lat="47.43402" lon="6.81773">
        <ele>405</ele>
        <time>2016-03-13T10:09:38.000Z</time>
      </trkpt>
      <trkpt lat="47.43404" lon="6.81767">
        <ele>406</ele>
        <time>2016-03-13T10:09:52.000Z</time>
      </trkpt>
      <trkpt lat="47.43404" lon="6.81766">
        <ele>406</ele>
        <time>2016-03-13T10:09:53.000Z</time>
      </trkpt>
      <trkpt lat="47.43401" lon="6.81762">
        <ele>406</ele>
        <time>2016-03-13T10:10:00.000Z</time>
      </trkpt>
      <trkpt lat="47.43401" lon="6.81761">
        <ele>406</ele>
        <time>2016-03-13T10:10:01.000Z</time>
      </trkpt>
      <trkpt lat="47.43398" lon="6.81756">
        <ele>407</ele>
        <time>2016-03-13T10:10:05.000Z</time>
      </trkpt>
      <trkpt lat="47.43398" lon="6.81755">
        <ele>407</ele>
        <time>2016-03-13T10:10:06.000Z</time>
      </trkpt>
      <trkpt lat="47.43396" lon="6.8175">
        <ele>415</ele>
        <time>2016-03-13T10:10:12.000Z</time>
      </trkpt>
      <trkpt lat="47.43396" lon="6.81749">
        <ele>415</ele>
        <time>2016-03-13T10:10:13.000Z</time>
      </trkpt>
      <trkpt lat="47.43394" lon="6.81744">
        <ele>416</ele>
        <time>2016-03-13T10:10:20.000Z</time>
      </trkpt>
      <trkpt lat="47.43393" lon="6.81743">
        <ele>416</ele>
        <time>2016-03-13T10:10:21.000Z</time>
      </trkpt>
      <trkpt lat="47.43392" lon="6.81737">
        <ele>416</ele>
        <time>2016-03-13T10:10:26.000Z</time>
      </trkpt>
      <trkpt lat="47.43391" lon="6.81736">
        <ele>416</ele>
        <time>2016-03-13T10:10:27.000Z</time>
      </trkpt>
      <trkpt lat="47.43389" lon="6.81732">
        <ele>417</ele>
        <time>2016-03-13T10:10:31.000Z</time>
      </trkpt>
      <trkpt lat="47.43388" lon="6.81731">
        <ele>417</ele>
        <time>2016-03-13T10:10:32.000Z</time>
      </trkpt>
      <trkpt lat="47.43384" lon="6.81732">
        <ele>418</ele>
        <time>2016-03-13T10:10:38.000Z</time>
      </trkpt>
      <trkpt lat="47.43383" lon="6.81732">
        <ele>418</ele>
        <time>2016-03-13T10:10:39.000Z</time>
      </trkpt>
      <trkpt lat="47.43379" lon="6.8173">
        <ele>418</ele>
        <time>2016-03-13T10:11:18.000Z</time>
      </trkpt>
      <trkpt lat="47.43379" lon="6.8173">
        <ele>418</ele>
        <time>2016-03-13T10:11:19.000Z</time>
      </trkpt>
      <trkpt lat="47.43375" lon="6.81728">
        <ele>419</ele>
        <time>2016-03-13T10:16:09.000Z</time>
      </trkpt>
      <trkpt lat="47.43374" lon="6.81728">
        <ele>419</ele>
        <time>2016-03-13T10:16:10.000Z</time>
      </trkpt>
      <trkpt lat="47.4337" lon="6.81728">
        <ele>419</ele>
        <time>2016-03-13T10:21:26.000Z</time>
      </trkpt>
      <trkpt lat="47.4337" lon="6.81728">
        <ele>419</ele>
        <time>2016-03-13T10:21:27.000Z</time>
      </trkpt>
      <trkpt lat="47.43366" lon="6.81731">
        <ele>419</ele>
        <time>2016-03-13T10:21:53.000Z</time>
      </trkpt>
      <trkpt lat="47.43365" lon="6.81731">
        <ele>419</ele>
        <time>2016-03-13T10:21:54.000Z</time>
      </trkpt>
      <trkpt lat="47.43369" lon="6.81733">
        <ele>419</ele>
        <time>2016-03-13T10:25:50.000Z</time>
      </trkpt>
      <trkpt lat="47.4337" lon="6.81734">
        <ele>419</ele>
        <time>2016-03-13T10:25:51.001Z</time>
      </trkpt>
      <trkpt lat="47.43374" lon="6.81735">
        <ele>418</ele>
        <time>2016-03-13T10:27:03.999Z</time>
      </trkpt>
      <trkpt lat="47.43374" lon="6.81734">
        <ele>418</ele>
        <time>2016-03-13T10:27:05.000Z</time>
      </trkpt>
      <trkpt lat="47.43378" lon="6.81735">
        <ele>418</ele>
        <time>2016-03-13T10:28:51.000Z</time>
      </trkpt>
      <trkpt lat="47.4338" lon="6.81737">
        <ele>418</ele>
        <time>2016-03-13T10:28:52.000Z</time>
      </trkpt>
      <trkpt lat="47.43383" lon="6.81739">
        <ele>417</ele>
        <time>2016-03-13T10:28:53.000Z</time>
      </trkpt>
      <trkpt lat="47.43386" lon="6.81742">
        <ele>417</ele>
        <time>2016-03-13T10:28:54.000Z</time>
      </trkpt>
      <trkpt lat="47.43388" lon="6.81745">
        <ele>416</ele>
        <time>2016-03-13T10:28:55.000Z</time>
      </trkpt>
      <trkpt lat="47.43389" lon="6.81749">
        <ele>416</ele>
        <time>2016-03-13T10:28:56.000Z</time>
      </trkpt>
      <trkpt lat="47.43389" lon="6.81752">
        <ele>407</ele>
        <time>2016-03-13T10:28:57.000Z</time>
      </trkpt>
      <trkpt lat="47.4339" lon="6.81756">
        <ele>407</ele>
        <time>2016-03-13T10:28:58.000Z</time>
      </trkpt>
      <trkpt lat="47.43392" lon="6.8176">
        <ele>406</ele>
        <time>2016-03-13T10:28:59.000Z</time>
      </trkpt>
      <trkpt lat="47.43395" lon="6.81765">
        <ele>406</ele>
        <time>2016-03-13T10:29:00.000Z</time>
      </trkpt>
      <trkpt lat="47.43399" lon="6.81769">
        <ele>406</ele>
        <time>2016-03-13T10:29:01.000Z</time>
      </trkpt>
      <trkpt lat="47.43402" lon="6.8177">
        <ele>406</ele>
        <time>2016-03-13T10:29:02.000Z</time>
      </trkpt>
      <trkpt lat="47.43406" lon="6.81771">
        <ele>406</ele>
        <time>2016-03-13T10:29:03.000Z</time>
      </trkpt>
      <trkpt lat="47.4341" lon="6.81772">
        <ele>406</ele>
        <time>2016-03-13T10:29:04.000Z</time>
      </trkpt>
      <trkpt lat="47.43413" lon="6.81772">
        <ele>405</ele>
        <time>2016-03-13T10:29:05.000Z</time>
      </trkpt>
      <trkpt lat="47.43415" lon="6.81774">
        <ele>405</ele>
        <time>2016-03-13T10:29:06.000Z</time>
      </trkpt>
      <trkpt lat="47.43417" lon="6.81775">
        <ele>401</ele>
        <time>2016-03-13T10:29:07.000Z</time>
      </trkpt>
      <trkpt lat="47.4342" lon="6.81779">
        <ele>400</ele>
        <time>2016-03-13T10:29:09.000Z</time>
      </trkpt>
      <trkpt lat="47.43421" lon="6.81781">
        <ele>400</ele>
        <time>2016-03-13T10:29:10.000Z</time>
      </trkpt>
      <trkpt lat="47.43423" lon="6.81783">
        <ele>399</ele>
        <time>2016-03-13T10:29:11.000Z</time>
      </trkpt>
      <trkpt lat="47.43425" lon="6.81784">
        <ele>399</ele>
        <time>2016-03-13T10:29:12.000Z</time>
      </trkpt>
      <trkpt lat="47.43428" lon="6.81784">
        <ele>399</ele>
        <time>2016-03-13T10:29:13.000Z</time>
      </trkpt>
      <trkpt lat="47.4343" lon="6.81785">
        <ele>399</ele>
        <time>2016-03-13T10:29:14.000Z</time>
      </trkpt>
      <trkpt lat="47.43433" lon="6.81786">
        <ele>398</ele>
        <time>2016-03-13T10:29:15.000Z</time>
      </trkpt>
      <trkpt lat="47.43442" lon="6.81788">
        <ele>398</ele>
        <time>2016-03-13T10:29:16.000Z</time>
      </trkpt>
      <trkpt lat="47.43446" lon="6.81788">
        <ele>397</ele>
        <time>2016-03-13T10:29:17.000Z</time>
      </trkpt>
      <trkpt lat="47.4345" lon="6.81787">
        <ele>397</ele>
        <time>2016-03-13T10:29:18.000Z</time>
      </trkpt>
      <trkpt lat="47.43456" lon="6.81785">
        <ele>397</ele>
        <time>2016-03-13T10:29:19.000Z</time>
      </trkpt>
      <trkpt lat="47.43464" lon="6.81789">
        <ele>396</ele>
        <time>2016-03-13T10:29:20.000Z</time>
      </trkpt>
      <trkpt lat="47.43472" lon="6.81792">
        <ele>396</ele>
        <time>2016-03-13T10:29:21.000Z</time>
      </trkpt>
      <trkpt lat="47.43478" lon="6.81795">
        <ele>395</ele>
        <time>2016-03-13T10:29:22.000Z</time>
      </trkpt>
      <trkpt lat="47.43484" lon="6.818">
        <ele>394</ele>
        <time>2016-03-13T10:29:23.000Z</time>
      </trkpt>
      <trkpt lat="47.4349" lon="6.818">
        <ele>394</ele>
        <time>2016-03-13T10:29:24.000Z</time>
      </trkpt>
      <trkpt lat="47.43496" lon="6.81799">
        <ele>394</ele>
        <time>2016-03-13T10:29:25.000Z</time>
      </trkpt>
      <trkpt lat="47.43501" lon="6.81796">
        <ele>389</ele>
        <time>2016-03-13T10:29:26.000Z</time>
      </trkpt>
      <trkpt lat="47.43505" lon="6.81793">
        <ele>389</ele>
        <time>2016-03-13T10:29:27.000Z</time>
      </trkpt>
      <trkpt lat="47.43507" lon="6.81792">
        <ele>389</ele>
        <time>2016-03-13T10:29:28.000Z</time>
      </trkpt>
      <trkpt lat="47.4351" lon="6.81794">
        <ele>388</ele>
        <time>2016-03-13T10:29:29.000Z</time>
      </trkpt>
      <trkpt lat="47.43514" lon="6.81792">
        <ele>388</ele>
        <time>2016-03-13T10:29:30.000Z</time>
      </trkpt>
      <trkpt lat="47.43519" lon="6.81785">
        <ele>389</ele>
        <time>2016-03-13T10:29:31.000Z</time>
      </trkpt>
      <trkpt lat="47.43523" lon="6.81785">
        <ele>389</ele>
        <time>2016-03-13T10:29:32.000Z</time>
      </trkpt>
      <trkpt lat="47.43526" lon="6.81784">
        <ele>388</ele>
        <time>2016-03-13T10:29:33.000Z</time>
      </trkpt>
      <trkpt lat="47.43529" lon="6.81783">
        <ele>388</ele>
        <time>2016-03-13T10:29:34.000Z</time>
      </trkpt>
      <trkpt lat="47.43531" lon="6.81789">
        <ele>388</ele>
        <time>2016-03-13T10:29:35.000Z</time>
      </trkpt>
      <trkpt lat="47.43533" lon="6.8179">
        <ele>388</ele>
        <time>2016-03-13T10:29:36.000Z</time>
      </trkpt>
      <trkpt lat="47.43536" lon="6.81791">
        <ele>387</ele>
        <time>2016-03-13T10:29:37.000Z</time>
      </trkpt>
      <trkpt lat="47.43539" lon="6.81792">
        <ele>387</ele>
        <time>2016-03-13T10:29:38.000Z</time>
      </trkpt>
      <trkpt lat="47.43541" lon="6.81791">
        <ele>387</ele>
        <time>2016-03-13T10:29:39.000Z</time>
      </trkpt>
      <trkpt lat="47.43544" lon="6.81791">
        <ele>387</ele>
        <time>2016-03-13T10:29:40.000Z</time>
      </trkpt>
      <trkpt lat="47.43547" lon="6.8179">
        <ele>387</ele>
        <time>2016-03-13T10:29:41.000Z</time>
      </trkpt>
      <trkpt lat="47.4355" lon="6.81789">
        <ele>387</ele>
        <time>2016-03-13T10:29:42.000Z</time>
      </trkpt>
      <trkpt lat="47.43554" lon="6.81789">
        <ele>386</ele>
        <time>2016-03-13T10:29:43.000Z</time>
      </trkpt>
      <trkpt lat="47.4356" lon="6.81788">
        <ele>386</ele>
        <time>2016-03-13T10:29:44.000Z</time>
      </trkpt>
      <trkpt lat="47.43565" lon="6.81786">
        <ele>386</ele>
        <time>2016-03-13T10:29:45.000Z</time>
      </trkpt>
      <trkpt lat="47.43571" lon="6.81784">
        <ele>386</ele>
        <time>2016-03-13T10:29:46.000Z</time>
      </trkpt>
      <trkpt lat="47.43584" lon="6.81776">
        <ele>379</ele>
        <time>2016-03-13T10:29:47.000Z</time>
      </trkpt>
      <trkpt lat="47.4359" lon="6.81772">
        <ele>379</ele>
        <time>2016-03-13T10:29:48.000Z</time>
      </trkpt>
      <trkpt lat="47.43594" lon="6.81769">
        <ele>379</ele>
        <time>2016-03-13T10:29:49.000Z</time>
      </trkpt>
      <trkpt lat="47.43599" lon="6.81761">
        <ele>379</ele>
        <time>2016-03-13T10:29:50.000Z</time>
      </trkpt>
      <trkpt lat="47.43603" lon="6.81758">
        <ele>379</ele>
        <time>2016-03-13T10:29:51.000Z</time>
      </trkpt>
      <trkpt lat="47.43606" lon="6.81754">
        <ele>378</ele>
        <time>2016-03-13T10:29:53.000Z</time>
      </trkpt>
      <trkpt lat="47.43607" lon="6.81752">
        <ele>378</ele>
        <time>2016-03-13T10:29:54.000Z</time>
      </trkpt>
      <trkpt lat="47.4361" lon="6.8175">
        <ele>379</ele>
        <time>2016-03-13T10:29:56.000Z</time>
      </trkpt>
      <trkpt lat="47.43613" lon="6.8175">
        <ele>377</ele>
        <time>2016-03-13T10:29:57.000Z</time>
      </trkpt>
      <trkpt lat="47.43616" lon="6.8175">
        <ele>378</ele>
        <time>2016-03-13T10:29:59.000Z</time>
      </trkpt>
      <trkpt lat="47.43618" lon="6.81749">
        <ele>378</ele>
        <time>2016-03-13T10:30:00.000Z</time>
      </trkpt>
      <trkpt lat="47.43621" lon="6.81745">
        <ele>377</ele>
        <time>2016-03-13T10:30:02.000Z</time>
      </trkpt>
      <trkpt lat="47.43622" lon="6.81743">
        <ele>377</ele>
        <time>2016-03-13T10:30:03.000Z</time>
      </trkpt>
      <trkpt lat="47.43622" lon="6.81739">
        <ele>377</ele>
        <time>2016-03-13T10:30:04.000Z</time>
      </trkpt>
      <trkpt lat="47.43623" lon="6.81734">
        <ele>377</ele>
        <time>2016-03-13T10:30:05.000Z</time>
      </trkpt>
      <trkpt lat="47.43623" lon="6.8173">
        <ele>377</ele>
        <time>2016-03-13T10:30:06.000Z</time>
      </trkpt>
      <trkpt lat="47.43623" lon="6.81726">
        <ele>377</ele>
        <time>2016-03-13T10:30:07.000Z</time>
      </trkpt>
      <trkpt lat="47.43623" lon="6.81721">
        <ele>377</ele>
        <time>2016-03-13T10:30:08.000Z</time>
      </trkpt>
      <trkpt lat="47.43624" lon="6.81717">
        <ele>377</ele>
        <time>2016-03-13T10:30:09.000Z</time>
      </trkpt>
      <trkpt lat="47.43625" lon="6.81714">
        <ele>377</ele>
        <time>2016-03-13T10:30:10.000Z</time>
      </trkpt>
      <trkpt lat="47.43626" lon="6.81711">
        <ele>377</ele>
        <time>2016-03-13T10:30:11.000Z</time>
      </trkpt>
      <trkpt lat="47.43629" lon="6.81707">
        <ele>376</ele>
        <time>2016-03-13T10:30:13.000Z</time>
      </trkpt>
      <trkpt lat="47.43631" lon="6.81704">
        <ele>376</ele>
        <time>2016-03-13T10:30:14.000Z</time>
      </trkpt>
      <trkpt lat="47.43633" lon="6.817">
        <ele>376</ele>
        <time>2016-03-13T10:30:15.000Z</time>
      </trkpt>
      <trkpt lat="47.43634" lon="6.81695">
        <ele>376</ele>
        <time>2016-03-13T10:30:16.000Z</time>
      </trkpt>
      <trkpt lat="47.43635" lon="6.8169">
        <ele>376</ele>
        <time>2016-03-13T10:30:17.000Z</time>
      </trkpt>
      <trkpt lat="47.43636" lon="6.81684">
        <ele>376</ele>
        <time>2016-03-13T10:30:18.000Z</time>
      </trkpt>
      <trkpt lat="47.43637" lon="6.81679">
        <ele>376</ele>
        <time>2016-03-13T10:30:19.000Z</time>
      </trkpt>
      <trkpt lat="47.43639" lon="6.81674">
        <ele>375</ele>
        <time>2016-03-13T10:30:20.000Z</time>
      </trkpt>
      <trkpt lat="47.4364" lon="6.81669">
        <ele>375</ele>
        <time>2016-03-13T10:30:21.000Z</time>
      </trkpt>
      <trkpt lat="47.43641" lon="6.81664">
        <ele>376</ele>
        <time>2016-03-13T10:30:22.000Z</time>
      </trkpt>
      <trkpt lat="47.43643" lon="6.8166">
        <ele>376</ele>
        <time>2016-03-13T10:30:23.000Z</time>
      </trkpt>
      <trkpt lat="47.43643" lon="6.81656">
        <ele>376</ele>
        <time>2016-03-13T10:30:24.000Z</time>
      </trkpt>
      <trkpt lat="47.43644" lon="6.81653">
        <ele>376</ele>
        <time>2016-03-13T10:30:25.000Z</time>
      </trkpt>
      <trkpt lat="47.43645" lon="6.81649">
        <ele>376</ele>
        <time>2016-03-13T10:30:26.000Z</time>
      </trkpt>
      <trkpt lat="47.43645" lon="6.81643">
        <ele>377</ele>
        <time>2016-03-13T10:30:28.000Z</time>
      </trkpt>
      <trkpt lat="47.43645" lon="6.8164">
        <ele>377</ele>
        <time>2016-03-13T10:30:29.000Z</time>
      </trkpt>
      <trkpt lat="47.43644" lon="6.81634">
        <ele>377</ele>
        <time>2016-03-13T10:30:31.000Z</time>
      </trkpt>
      <trkpt lat="47.43643" lon="6.81631">
        <ele>377</ele>
        <time>2016-03-13T10:30:32.000Z</time>
      </trkpt>
      <trkpt lat="47.43642" lon="6.81625">
        <ele>377</ele>
        <time>2016-03-13T10:30:34.000Z</time>
      </trkpt>
      <trkpt lat="47.43642" lon="6.81623">
        <ele>377</ele>
        <time>2016-03-13T10:30:35.000Z</time>
      </trkpt>
      <trkpt lat="47.43642" lon="6.81618">
        <ele>378</ele>
        <time>2016-03-13T10:30:38.000Z</time>
      </trkpt>
      <trkpt lat="47.43642" lon="6.81616">
        <ele>378</ele>
        <time>2016-03-13T10:30:39.000Z</time>
      </trkpt>
      <trkpt lat="47.43641" lon="6.8161">
        <ele>378</ele>
        <time>2016-03-13T10:30:41.000Z</time>
      </trkpt>
      <trkpt lat="47.43642" lon="6.81608">
        <ele>378</ele>
        <time>2016-03-13T10:30:42.000Z</time>
      </trkpt>
      <trkpt lat="47.43643" lon="6.81602">
        <ele>378</ele>
        <time>2016-03-13T10:30:45.000Z</time>
      </trkpt>
      <trkpt lat="47.43642" lon="6.81601">
        <ele>378</ele>
        <time>2016-03-13T10:30:46.000Z</time>
      </trkpt>
      <trkpt lat="47.43642" lon="6.81595">
        <ele>378</ele>
        <time>2016-03-13T10:30:49.000Z</time>
      </trkpt>
      <trkpt lat="47.43641" lon="6.81592">
        <ele>378</ele>
        <time>2016-03-13T10:30:50.000Z</time>
      </trkpt>
      <trkpt lat="47.4364" lon="6.81587">
        <ele>378</ele>
        <time>2016-03-13T10:30:52.000Z</time>
      </trkpt>
      <trkpt lat="47.43638" lon="6.81584">
        <ele>378</ele>
        <time>2016-03-13T10:30:53.000Z</time>
      </trkpt>
      <trkpt lat="47.43637" lon="6.81578">
        <ele>380</ele>
        <time>2016-03-13T10:30:55.000Z</time>
      </trkpt>
      <trkpt lat="47.43636" lon="6.81576">
        <ele>380</ele>
        <time>2016-03-13T10:30:56.000Z</time>
      </trkpt>
      <trkpt lat="47.43634" lon="6.81571">
        <ele>380</ele>
        <time>2016-03-13T10:30:58.000Z</time>
      </trkpt>
      <trkpt lat="47.43632" lon="6.81568">
        <ele>380</ele>
        <time>2016-03-13T10:30:59.000Z</time>
      </trkpt>
      <trkpt lat="47.43629" lon="6.81563">
        <ele>380</ele>
        <time>2016-03-13T10:31:01.000Z</time>
      </trkpt>
      <trkpt lat="47.43628" lon="6.81561">
        <ele>380</ele>
        <time>2016-03-13T10:31:02.000Z</time>
      </trkpt>
      <trkpt lat="47.43627" lon="6.81556">
        <ele>380</ele>
        <time>2016-03-13T10:31:04.000Z</time>
      </trkpt>
      <trkpt lat="47.43627" lon="6.81553">
        <ele>380</ele>
        <time>2016-03-13T10:31:05.000Z</time>
      </trkpt>
      <trkpt lat="47.43626" lon="6.81549">
        <ele>381</ele>
        <time>2016-03-13T10:31:07.000Z</time>
      </trkpt>
      <trkpt lat="47.43625" lon="6.81546">
        <ele>381</ele>
        <time>2016-03-13T10:31:08.000Z</time>
      </trkpt>
      <trkpt lat="47.43623" lon="6.81542">
        <ele>381</ele>
        <time>2016-03-13T10:31:10.000Z</time>
      </trkpt>
      <trkpt lat="47.43622" lon="6.8154">
        <ele>381</ele>
        <time>2016-03-13T10:31:11.000Z</time>
      </trkpt>
      <trkpt lat="47.43619" lon="6.81537">
        <ele>381</ele>
        <time>2016-03-13T10:31:14.000Z</time>
      </trkpt>
      <trkpt lat="47.43618" lon="6.81535">
        <ele>381</ele>
        <time>2016-03-13T10:31:15.000Z</time>
      </trkpt>
      <trkpt lat="47.43615" lon="6.81532">
        <ele>381</ele>
        <time>2016-03-13T10:31:17.000Z</time>
      </trkpt>
      <trkpt lat="47.43614" lon="6.8153">
        <ele>381</ele>
        <time>2016-03-13T10:31:18.000Z</time>
      </trkpt>
      <trkpt lat="47.43611" lon="6.81525">
        <ele>381</ele>
        <time>2016-03-13T10:31:21.000Z</time>
      </trkpt>
      <trkpt lat="47.4361" lon="6.81524">
        <ele>381</ele>
        <time>2016-03-13T10:31:22.000Z</time>
      </trkpt>
      <trkpt lat="47.43606" lon="6.81522">
        <ele>381</ele>
        <time>2016-03-13T10:31:29.000Z</time>
      </trkpt>
      <trkpt lat="47.43605" lon="6.81521">
        <ele>381</ele>
        <time>2016-03-13T10:31:30.000Z</time>
      </trkpt>
      <trkpt lat="47.43603" lon="6.81519">
        <ele>381</ele>
        <time>2016-03-13T10:31:34.000Z</time>
      </trkpt>
      <trkpt lat="47.436" lon="6.81519">
        <ele>381</ele>
        <time>2016-03-13T10:31:35.000Z</time>
      </trkpt>
      <trkpt lat="47.43596" lon="6.81519">
        <ele>381</ele>
        <time>2016-03-13T10:31:40.000Z</time>
      </trkpt>
      <trkpt lat="47.43595" lon="6.81519">
        <ele>381</ele>
        <time>2016-03-13T10:31:41.000Z</time>
      </trkpt>
      <trkpt lat="47.43596" lon="6.81525">
        <ele>381</ele>
        <time>2016-03-13T10:32:07.000Z</time>
      </trkpt>
      <trkpt lat="47.43596" lon="6.81526">
        <ele>381</ele>
        <time>2016-03-13T10:32:08.000Z</time>
      </trkpt>
      <trkpt lat="47.43596" lon="6.81532">
        <ele>381</ele>
        <time>2016-03-13T10:32:18.000Z</time>
      </trkpt>
      <trkpt lat="47.43597" lon="6.81532">
        <ele>381</ele>
        <time>2016-03-13T10:32:19.000Z</time>
      </trkpt>
      <trkpt lat="47.43601" lon="6.81534">
        <ele>381</ele>
        <time>2016-03-13T10:32:24.000Z</time>
      </trkpt>
      <trkpt lat="47.43602" lon="6.81535">
        <ele>381</ele>
        <time>2016-03-13T10:32:25.000Z</time>
      </trkpt>
      <trkpt lat="47.43604" lon="6.81539">
        <ele>381</ele>
        <time>2016-03-13T10:32:29.000Z</time>
      </trkpt>
      <trkpt lat="47.43605" lon="6.8154">
        <ele>381</ele>
        <time>2016-03-13T10:32:30.000Z</time>
      </trkpt>
      <trkpt lat="47.43609" lon="6.81543">
        <ele>381</ele>
        <time>2016-03-13T10:32:33.000Z</time>
      </trkpt>
      <trkpt lat="47.4361" lon="6.81543">
        <ele>381</ele>
        <time>2016-03-13T10:32:34.000Z</time>
      </trkpt>
      <trkpt lat="47.43614" lon="6.81543">
        <ele>381</ele>
        <time>2016-03-13T10:32:37.000Z</time>
      </trkpt>
      <trkpt lat="47.43615" lon="6.81543">
        <ele>381</ele>
        <time>2016-03-13T10:32:38.000Z</time>
      </trkpt>
      <trkpt lat="47.43619" lon="6.81544">
        <ele>381</ele>
        <time>2016-03-13T10:32:41.000Z</time>
      </trkpt>
      <trkpt lat="47.43621" lon="6.81544">
        <ele>381</ele>
        <time>2016-03-13T10:32:42.000Z</time>
      </trkpt>
      <trkpt lat="47.43625" lon="6.81543">
        <ele>381</ele>
        <time>2016-03-13T10:32:44.000Z</time>
      </trkpt>
      <trkpt lat="47.43626" lon="6.81543">
        <ele>381</ele>
        <time>2016-03-13T10:32:45.000Z</time>
      </trkpt>
      <trkpt lat="47.4363" lon="6.81544">
        <ele>381</ele>
        <time>2016-03-13T10:32:47.000Z</time>
      </trkpt>
      <trkpt lat="47.43632" lon="6.81544">
        <ele>381</ele>
        <time>2016-03-13T10:32:48.000Z</time>
      </trkpt>
      <trkpt lat="47.43636" lon="6.81546">
        <ele>381</ele>
        <time>2016-03-13T10:32:50.999Z</time>
      </trkpt>
      <trkpt lat="47.43639" lon="6.81547">
        <ele>380</ele>
        <time>2016-03-13T10:32:52.000Z</time>
      </trkpt>
      <trkpt lat="47.43642" lon="6.81548">
        <ele>380</ele>
        <time>2016-03-13T10:32:54.000Z</time>
      </trkpt>
      <trkpt lat="47.43644" lon="6.81548">
        <ele>380</ele>
        <time>2016-03-13T10:32:55.000Z</time>
      </trkpt>
      <trkpt lat="47.43647" lon="6.81549">
        <ele>380</ele>
        <time>2016-03-13T10:32:58.000Z</time>
      </trkpt>
      <trkpt lat="47.43649" lon="6.81549">
        <ele>380</ele>
        <time>2016-03-13T10:32:59.000Z</time>
      </trkpt>
      <trkpt lat="47.43652" lon="6.81552">
        <ele>380</ele>
        <time>2016-03-13T10:33:02.000Z</time>
      </trkpt>
      <trkpt lat="47.43653" lon="6.81552">
        <ele>380</ele>
        <time>2016-03-13T10:33:03.000Z</time>
      </trkpt>
      <trkpt lat="47.43656" lon="6.81554">
        <ele>380</ele>
        <time>2016-03-13T10:33:05.000Z</time>
      </trkpt>
      <trkpt lat="47.43657" lon="6.81554">
        <ele>380</ele>
        <time>2016-03-13T10:33:06.000Z</time>
      </trkpt>
      <trkpt lat="47.4366" lon="6.81557">
        <ele>380</ele>
        <time>2016-03-13T10:33:08.000Z</time>
      </trkpt>
      <trkpt lat="47.43662" lon="6.81559">
        <ele>380</ele>
        <time>2016-03-13T10:33:09.000Z</time>
      </trkpt>
      <trkpt lat="47.43664" lon="6.81562">
        <ele>379</ele>
        <time>2016-03-13T10:33:11.000Z</time>
      </trkpt>
      <trkpt lat="47.43665" lon="6.81562">
        <ele>379</ele>
        <time>2016-03-13T10:33:12.000Z</time>
      </trkpt>
      <trkpt lat="47.43669" lon="6.81564">
        <ele>378</ele>
        <time>2016-03-13T10:33:14.000Z</time>
      </trkpt>
      <trkpt lat="47.43671" lon="6.81565">
        <ele>378</ele>
        <time>2016-03-13T10:33:15.000Z</time>
      </trkpt>
      <trkpt lat="47.43673" lon="6.81566">
        <ele>377</ele>
        <time>2016-03-13T10:33:16.000Z</time>
      </trkpt>
      <trkpt lat="47.43676" lon="6.81567">
        <ele>377</ele>
        <time>2016-03-13T10:33:17.000Z</time>
      </trkpt>
      <trkpt lat="47.43678" lon="6.81568">
        <ele>377</ele>
        <time>2016-03-13T10:33:18.000Z</time>
      </trkpt>
      <trkpt lat="47.4368" lon="6.81569">
        <ele>377</ele>
        <time>2016-03-13T10:33:19.000Z</time>
      </trkpt>
      <trkpt lat="47.43683" lon="6.8157">
        <ele>377</ele>
        <time>2016-03-13T10:33:20.000Z</time>
      </trkpt>
      <trkpt lat="47.43685" lon="6.81571">
        <ele>377</ele>
        <time>2016-03-13T10:33:21.000Z</time>
      </trkpt>
      <trkpt lat="47.43687" lon="6.81572">
        <ele>377</ele>
        <time>2016-03-13T10:33:22.000Z</time>
      </trkpt>
      <trkpt lat="47.4369" lon="6.81572">
        <ele>377</ele>
        <time>2016-03-13T10:33:23.000Z</time>
      </trkpt>
      <trkpt lat="47.43692" lon="6.81573">
        <ele>377</ele>
        <time>2016-03-13T10:33:24.000Z</time>
      </trkpt>
      <trkpt lat="47.43695" lon="6.81573">
        <ele>377</ele>
        <time>2016-03-13T10:33:25.000Z</time>
      </trkpt>
      <trkpt lat="47.43697" lon="6.81573">
        <ele>377</ele>
        <time>2016-03-13T10:33:26.000Z</time>
      </trkpt>
      <trkpt lat="47.43699" lon="6.81572">
        <ele>377</ele>
        <time>2016-03-13T10:33:27.000Z</time>
      </trkpt>
      <trkpt lat="47.43702" lon="6.81571">
        <ele>377</ele>
        <time>2016-03-13T10:33:28.000Z</time>
      </trkpt>
      <trkpt lat="47.43704" lon="6.8157">
        <ele>377</ele>
        <time>2016-03-13T10:33:29.000Z</time>
      </trkpt>
      <trkpt lat="47.43707" lon="6.8157">
        <ele>377</ele>
        <time>2016-03-13T10:33:30.000Z</time>
      </trkpt>
      <trkpt lat="47.43709" lon="6.81569">
        <ele>377</ele>
        <time>2016-03-13T10:33:31.000Z</time>
      </trkpt>
      <trkpt lat="47.43712" lon="6.81569">
        <ele>377</ele>
        <time>2016-03-13T10:33:32.000Z</time>
      </trkpt>
      <trkpt lat="47.43714" lon="6.8157">
        <ele>377</ele>
        <time>2016-03-13T10:33:33.000Z</time>
      </trkpt>
      <trkpt lat="47.43718" lon="6.81572">
        <ele>377</ele>
        <time>2016-03-13T10:33:35.000Z</time>
      </trkpt>
      <trkpt lat="47.4372" lon="6.81573">
        <ele>377</ele>
        <time>2016-03-13T10:33:36.000Z</time>
      </trkpt>
      <trkpt lat="47.43722" lon="6.81574">
        <ele>377</ele>
        <time>2016-03-13T10:33:37.000Z</time>
      </trkpt>
      <trkpt lat="47.43727" lon="6.81575">
        <ele>376</ele>
        <time>2016-03-13T10:33:39.000Z</time>
      </trkpt>
      <trkpt lat="47.43729" lon="6.81575">
        <ele>376</ele>
        <time>2016-03-13T10:33:40.000Z</time>
      </trkpt>
      <trkpt lat="47.43731" lon="6.81576">
        <ele>376</ele>
        <time>2016-03-13T10:33:41.000Z</time>
      </trkpt>
      <trkpt lat="47.43734" lon="6.81576">
        <ele>376</ele>
        <time>2016-03-13T10:33:42.000Z</time>
      </trkpt>
      <trkpt lat="47.43737" lon="6.81576">
        <ele>376</ele>
        <time>2016-03-13T10:33:43.000Z</time>
      </trkpt>
      <trkpt lat="47.43739" lon="6.81577">
        <ele>376</ele>
        <time>2016-03-13T10:33:44.000Z</time>
      </trkpt>
      <trkpt lat="47.43742" lon="6.81577">
        <ele>376</ele>
        <time>2016-03-13T10:33:45.000Z</time>
      </trkpt>
      <trkpt lat="47.43745" lon="6.81577">
        <ele>376</ele>
        <time>2016-03-13T10:33:46.000Z</time>
      </trkpt>
      <trkpt lat="47.43748" lon="6.81577">
        <ele>376</ele>
        <time>2016-03-13T10:33:47.000Z</time>
      </trkpt>
      <trkpt lat="47.43752" lon="6.81576">
        <ele>375</ele>
        <time>2016-03-13T10:33:48.000Z</time>
      </trkpt>
      <trkpt lat="47.43755" lon="6.81576">
        <ele>375</ele>
        <time>2016-03-13T10:33:49.000Z</time>
      </trkpt>
      <trkpt lat="47.43758" lon="6.81576">
        <ele>374</ele>
        <time>2016-03-13T10:33:50.000Z</time>
      </trkpt>
      <trkpt lat="47.43762" lon="6.81575">
        <ele>374</ele>
        <time>2016-03-13T10:33:51.000Z</time>
      </trkpt>
      <trkpt lat="47.43766" lon="6.81574">
        <ele>374</ele>
        <time>2016-03-13T10:33:52.000Z</time>
      </trkpt>
      <trkpt lat="47.43769" lon="6.81574">
        <ele>374</ele>
        <time>2016-03-13T10:33:53.000Z</time>
      </trkpt>
      <trkpt lat="47.43773" lon="6.81573">
        <ele>374</ele>
        <time>2016-03-13T10:33:54.000Z</time>
      </trkpt>
      <trkpt lat="47.43776" lon="6.81573">
        <ele>374</ele>
        <time>2016-03-13T10:33:55.000Z</time>
      </trkpt>
      <trkpt lat="47.43779" lon="6.81573">
        <ele>374</ele>
        <time>2016-03-13T10:33:56.000Z</time>
      </trkpt>
      <trkpt lat="47.43782" lon="6.81572">
        <ele>374</ele>
        <time>2016-03-13T10:33:57.000Z</time>
      </trkpt>
      <trkpt lat="47.43786" lon="6.81571">
        <ele>374</ele>
        <time>2016-03-13T10:33:58.000Z</time>
      </trkpt>
      <trkpt lat="47.43789" lon="6.81569">
        <ele>374</ele>
        <time>2016-03-13T10:33:59.000Z</time>
      </trkpt>
      <trkpt lat="47.43792" lon="6.81567">
        <ele>373</ele>
        <time>2016-03-13T10:34:00.000Z</time>
      </trkpt>
      <trkpt lat="47.43795" lon="6.81565">
        <ele>373</ele>
        <time>2016-03-13T10:34:01.000Z</time>
      </trkpt>
      <trkpt lat="47.43799" lon="6.81562">
        <ele>373</ele>
        <time>2016-03-13T10:34:02.000Z</time>
      </trkpt>
      <trkpt lat="47.43803" lon="6.81559">
        <ele>373</ele>
        <time>2016-03-13T10:34:03.000Z</time>
      </trkpt>
      <trkpt lat="47.43806" lon="6.81556">
        <ele>373</ele>
        <time>2016-03-13T10:34:04.000Z</time>
      </trkpt>
      <trkpt lat="47.4381" lon="6.81552">
        <ele>373</ele>
        <time>2016-03-13T10:34:05.000Z</time>
      </trkpt>
      <trkpt lat="47.43814" lon="6.81548">
        <ele>373</ele>
        <time>2016-03-13T10:34:06.000Z</time>
      </trkpt>
      <trkpt lat="47.43817" lon="6.81545">
        <ele>373</ele>
        <time>2016-03-13T10:34:07.000Z</time>
      </trkpt>
      <trkpt lat="47.43821" lon="6.8154">
        <ele>373</ele>
        <time>2016-03-13T10:34:08.000Z</time>
      </trkpt>
      <trkpt lat="47.43824" lon="6.81536">
        <ele>373</ele>
        <time>2016-03-13T10:34:09.000Z</time>
      </trkpt>
      <trkpt lat="47.43827" lon="6.8153">
        <ele>373</ele>
        <time>2016-03-13T10:34:10.000Z</time>
      </trkpt>
      <trkpt lat="47.4383" lon="6.81525">
        <ele>373</ele>
        <time>2016-03-13T10:34:11.000Z</time>
      </trkpt>
      <trkpt lat="47.43833" lon="6.81519">
        <ele>373</ele>
        <time>2016-03-13T10:34:12.000Z</time>
      </trkpt>
      <trkpt lat="47.43836" lon="6.81514">
        <ele>371</ele>
        <time>2016-03-13T10:34:13.000Z</time>
      </trkpt>
      <trkpt lat="47.43839" lon="6.81508">
        <ele>372</ele>
        <time>2016-03-13T10:34:14.000Z</time>
      </trkpt>
      <trkpt lat="47.43841" lon="6.81503">
        <ele>372</ele>
        <time>2016-03-13T10:34:15.000Z</time>
      </trkpt>
      <trkpt lat="47.43843" lon="6.81497">
        <ele>371</ele>
        <time>2016-03-13T10:34:16.000Z</time>
      </trkpt>
      <trkpt lat="47.43845" lon="6.81491">
        <ele>371</ele>
        <time>2016-03-13T10:34:17.000Z</time>
      </trkpt>
      <trkpt lat="47.43847" lon="6.81485">
        <ele>371</ele>
        <time>2016-03-13T10:34:18.000Z</time>
      </trkpt>
      <trkpt lat="47.4385" lon="6.8148">
        <ele>371</ele>
        <time>2016-03-13T10:34:19.000Z</time>
      </trkpt>
      <trkpt lat="47.43852" lon="6.81474">
        <ele>371</ele>
        <time>2016-03-13T10:34:20.000Z</time>
      </trkpt>
      <trkpt lat="47.43855" lon="6.81469">
        <ele>370</ele>
        <time>2016-03-13T10:34:21.000Z</time>
      </trkpt>
      <trkpt lat="47.43857" lon="6.81464">
        <ele>370</ele>
        <time>2016-03-13T10:34:22.000Z</time>
      </trkpt>
      <trkpt lat="47.4386" lon="6.81459">
        <ele>370</ele>
        <time>2016-03-13T10:34:23.000Z</time>
      </trkpt>
      <trkpt lat="47.43862" lon="6.81454">
        <ele>370</ele>
        <time>2016-03-13T10:34:24.000Z</time>
      </trkpt>
      <trkpt lat="47.43865" lon="6.81449">
        <ele>370</ele>
        <time>2016-03-13T10:34:25.000Z</time>
      </trkpt>
      <trkpt lat="47.43867" lon="6.81444">
        <ele>370</ele>
        <time>2016-03-13T10:34:26.000Z</time>
      </trkpt>
      <trkpt lat="47.4387" lon="6.81439">
        <ele>370</ele>
        <time>2016-03-13T10:34:27.000Z</time>
      </trkpt>
      <trkpt lat="47.43872" lon="6.81434">
        <ele>370</ele>
        <time>2016-03-13T10:34:28.000Z</time>
      </trkpt>
      <trkpt lat="47.43875" lon="6.81429">
        <ele>370</ele>
        <time>2016-03-13T10:34:29.000Z</time>
      </trkpt>
      <trkpt lat="47.43877" lon="6.81425">
        <ele>370</ele>
        <time>2016-03-13T10:34:30.000Z</time>
      </trkpt>
      <trkpt lat="47.43879" lon="6.8142">
        <ele>370</ele>
        <time>2016-03-13T10:34:31.000Z</time>
      </trkpt>
      <trkpt lat="47.43882" lon="6.81415">
        <ele>369</ele>
        <time>2016-03-13T10:34:32.000Z</time>
      </trkpt>
      <trkpt lat="47.43884" lon="6.8141">
        <ele>369</ele>
        <time>2016-03-13T10:34:33.000Z</time>
      </trkpt>
      <trkpt lat="47.43886" lon="6.81406">
        <ele>369</ele>
        <time>2016-03-13T10:34:34.000Z</time>
      </trkpt>
      <trkpt lat="47.43889" lon="6.81401">
        <ele>369</ele>
        <time>2016-03-13T10:34:35.000Z</time>
      </trkpt>
      <trkpt lat="47.43891" lon="6.81396">
        <ele>369</ele>
        <time>2016-03-13T10:34:36.000Z</time>
      </trkpt>
      <trkpt lat="47.43894" lon="6.81391">
        <ele>369</ele>
        <time>2016-03-13T10:34:37.000Z</time>
      </trkpt>
      <trkpt lat="47.43896" lon="6.81385">
        <ele>369</ele>
        <time>2016-03-13T10:34:38.000Z</time>
      </trkpt>
      <trkpt lat="47.43899" lon="6.8138">
        <ele>369</ele>
        <time>2016-03-13T10:34:39.000Z</time>
      </trkpt>
      <trkpt lat="47.43901" lon="6.81375">
        <ele>369</ele>
        <time>2016-03-13T10:34:40.000Z</time>
      </trkpt>
      <trkpt lat="47.43904" lon="6.8137">
        <ele>369</ele>
        <time>2016-03-13T10:34:41.000Z</time>
      </trkpt>
      <trkpt lat="47.43907" lon="6.81364">
        <ele>369</ele>
        <time>2016-03-13T10:34:42.000Z</time>
      </trkpt>
      <trkpt lat="47.4391" lon="6.81359">
        <ele>369</ele>
        <time>2016-03-13T10:34:43.000Z</time>
      </trkpt>
      <trkpt lat="47.43912" lon="6.81354">
        <ele>369</ele>
        <time>2016-03-13T10:34:44.000Z</time>
      </trkpt>
      <trkpt lat="47.43915" lon="6.81348">
        <ele>369</ele>
        <time>2016-03-13T10:34:45.000Z</time>
      </trkpt>
      <trkpt lat="47.43918" lon="6.81343">
        <ele>369</ele>
        <time>2016-03-13T10:34:46.000Z</time>
      </trkpt>
      <trkpt lat="47.4392" lon="6.81338">
        <ele>369</ele>
        <time>2016-03-13T10:34:47.000Z</time>
      </trkpt>
      <trkpt lat="47.43923" lon="6.81332">
        <ele>369</ele>
        <time>2016-03-13T10:34:48.000Z</time>
      </trkpt>
      <trkpt lat="47.43925" lon="6.81327">
        <ele>369</ele>
        <time>2016-03-13T10:34:49.000Z</time>
      </trkpt>
      <trkpt lat="47.43928" lon="6.81322">
        <ele>369</ele>
        <time>2016-03-13T10:34:50.000Z</time>
      </trkpt>
      <trkpt lat="47.4393" lon="6.81317">
        <ele>369</ele>
        <time>2016-03-13T10:34:51.000Z</time>
      </trkpt>
      <trkpt lat="47.43933" lon="6.81312">
        <ele>369</ele>
        <time>2016-03-13T10:34:52.000Z</time>
      </trkpt>
      <trkpt lat="47.43936" lon="6.81307">
        <ele>369</ele>
        <time>2016-03-13T10:34:53.000Z</time>
      </trkpt>
      <trkpt lat="47.43939" lon="6.81302">
        <ele>368</ele>
        <time>2016-03-13T10:34:54.000Z</time>
      </trkpt>
      <trkpt lat="47.43942" lon="6.81297">
        <ele>368</ele>
        <time>2016-03-13T10:34:55.000Z</time>
      </trkpt>
      <trkpt lat="47.43945" lon="6.81292">
        <ele>368</ele>
        <time>2016-03-13T10:34:56.000Z</time>
      </trkpt>
      <trkpt lat="47.43948" lon="6.81287">
        <ele>368</ele>
        <time>2016-03-13T10:34:57.000Z</time>
      </trkpt>
      <trkpt lat="47.43951" lon="6.81281">
        <ele>368</ele>
        <time>2016-03-13T10:34:58.000Z</time>
      </trkpt>
      <trkpt lat="47.43955" lon="6.81275">
        <ele>368</ele>
        <time>2016-03-13T10:34:59.000Z</time>
      </trkpt>
      <trkpt lat="47.43957" lon="6.8127">
        <ele>368</ele>
        <time>2016-03-13T10:35:00.000Z</time>
      </trkpt>
      <trkpt lat="47.4396" lon="6.81264">
        <ele>368</ele>
        <time>2016-03-13T10:35:01.000Z</time>
      </trkpt>
      <trkpt lat="47.43963" lon="6.81259">
        <ele>368</ele>
        <time>2016-03-13T10:35:02.000Z</time>
      </trkpt>
      <trkpt lat="47.43966" lon="6.81253">
        <ele>368</ele>
        <time>2016-03-13T10:35:03.000Z</time>
      </trkpt>
      <trkpt lat="47.43969" lon="6.81247">
        <ele>369</ele>
        <time>2016-03-13T10:35:04.000Z</time>
      </trkpt>
      <trkpt lat="47.43972" lon="6.81241">
        <ele>369</ele>
        <time>2016-03-13T10:35:05.000Z</time>
      </trkpt>
      <trkpt lat="47.43975" lon="6.81235">
        <ele>369</ele>
        <time>2016-03-13T10:35:06.000Z</time>
      </trkpt>
      <trkpt lat="47.43978" lon="6.81229">
        <ele>369</ele>
        <time>2016-03-13T10:35:07.000Z</time>
      </trkpt>
      <trkpt lat="47.43981" lon="6.81222">
        <ele>369</ele>
        <time>2016-03-13T10:35:08.000Z</time>
      </trkpt>
      <trkpt lat="47.43984" lon="6.81217">
        <ele>370</ele>
        <time>2016-03-13T10:35:09.000Z</time>
      </trkpt>
      <trkpt lat="47.43986" lon="6.81211">
        <ele>370</ele>
        <time>2016-03-13T10:35:10.000Z</time>
      </trkpt>
      <trkpt lat="47.43989" lon="6.81205">
        <ele>370</ele>
        <time>2016-03-13T10:35:11.000Z</time>
      </trkpt>
      <trkpt lat="47.43992" lon="6.81199">
        <ele>370</ele>
        <time>2016-03-13T10:35:12.000Z</time>
      </trkpt>
      <trkpt lat="47.43995" lon="6.81193">
        <ele>370</ele>
        <time>2016-03-13T10:35:13.000Z</time>
      </trkpt>
      <trkpt lat="47.43997" lon="6.81187">
        <ele>370</ele>
        <time>2016-03-13T10:35:14.000Z</time>
      </trkpt>
      <trkpt lat="47.43999" lon="6.81182">
        <ele>371</ele>
        <time>2016-03-13T10:35:15.000Z</time>
      </trkpt>
      <trkpt lat="47.44002" lon="6.81177">
        <ele>370</ele>
        <time>2016-03-13T10:35:16.000Z</time>
      </trkpt>
      <trkpt lat="47.44004" lon="6.81173">
        <ele>370</ele>
        <time>2016-03-13T10:35:17.000Z</time>
      </trkpt>
      <trkpt lat="47.44007" lon="6.81168">
        <ele>370</ele>
        <time>2016-03-13T10:35:18.000Z</time>
      </trkpt>
      <trkpt lat="47.44008" lon="6.81164">
        <ele>371</ele>
        <time>2016-03-13T10:35:19.000Z</time>
      </trkpt>
      <trkpt lat="47.4401" lon="6.81159">
        <ele>371</ele>
        <time>2016-03-13T10:35:20.000Z</time>
      </trkpt>
      <trkpt lat="47.44009" lon="6.81154">
        <ele>371</ele>
        <time>2016-03-13T10:35:21.000Z</time>
      </trkpt>
      <trkpt lat="47.44007" lon="6.8115">
        <ele>371</ele>
        <time>2016-03-13T10:35:22.000Z</time>
      </trkpt>
      <trkpt lat="47.44005" lon="6.81147">
        <ele>371</ele>
        <time>2016-03-13T10:35:23.000Z</time>
      </trkpt>
      <trkpt lat="47.44003" lon="6.81143">
        <ele>371</ele>
        <time>2016-03-13T10:35:24.000Z</time>
      </trkpt>
      <trkpt lat="47.44001" lon="6.8114">
        <ele>371</ele>
        <time>2016-03-13T10:35:25.000Z</time>
      </trkpt>
      <trkpt lat="47.43999" lon="6.81138">
        <ele>373</ele>
        <time>2016-03-13T10:35:26.000Z</time>
      </trkpt>
      <trkpt lat="47.43996" lon="6.81135">
        <ele>373</ele>
        <time>2016-03-13T10:35:28.000Z</time>
      </trkpt>
      <trkpt lat="47.43995" lon="6.81134">
        <ele>373</ele>
        <time>2016-03-13T10:35:29.000Z</time>
      </trkpt>
      <trkpt lat="47.43992" lon="6.81131">
        <ele>373</ele>
        <time>2016-03-13T10:35:31.000Z</time>
      </trkpt>
      <trkpt lat="47.43991" lon="6.81129">
        <ele>374</ele>
        <time>2016-03-13T10:35:32.000Z</time>
      </trkpt>
      <trkpt lat="47.43988" lon="6.81124">
        <ele>374</ele>
        <time>2016-03-13T10:35:35.000Z</time>
      </trkpt>
      <trkpt lat="47.43987" lon="6.81123">
        <ele>374</ele>
        <time>2016-03-13T10:35:36.000Z</time>
      </trkpt>
      <trkpt lat="47.43985" lon="6.81118">
        <ele>374</ele>
        <time>2016-03-13T10:35:39.000Z</time>
      </trkpt>
      <trkpt lat="47.43983" lon="6.81116">
        <ele>374</ele>
        <time>2016-03-13T10:35:40.000Z</time>
      </trkpt>
      <trkpt lat="47.4398" lon="6.81113">
        <ele>374</ele>
        <time>2016-03-13T10:35:42.000Z</time>
      </trkpt>
      <trkpt lat="47.43979" lon="6.81111">
        <ele>374</ele>
        <time>2016-03-13T10:35:43.000Z</time>
      </trkpt>
      <trkpt lat="47.43976" lon="6.81108">
        <ele>374</ele>
        <time>2016-03-13T10:35:45.000Z</time>
      </trkpt>
      <trkpt lat="47.43975" lon="6.81106">
        <ele>374</ele>
        <time>2016-03-13T10:35:46.000Z</time>
      </trkpt>
      <trkpt lat="47.43972" lon="6.81103">
        <ele>374</ele>
        <time>2016-03-13T10:35:48.000Z</time>
      </trkpt>
      <trkpt lat="47.4397" lon="6.81102">
        <ele>374</ele>
        <time>2016-03-13T10:35:49.000Z</time>
      </trkpt>
      <trkpt lat="47.43968" lon="6.81099">
        <ele>375</ele>
        <time>2016-03-13T10:35:51.000Z</time>
      </trkpt>
      <trkpt lat="47.43966" lon="6.81097">
        <ele>375</ele>
        <time>2016-03-13T10:35:52.000Z</time>
      </trkpt>
      <trkpt lat="47.43965" lon="6.81094">
        <ele>375</ele>
        <time>2016-03-13T10:35:53.000Z</time>
      </trkpt>
      <trkpt lat="47.43963" lon="6.81092">
        <ele>375</ele>
        <time>2016-03-13T10:35:54.000Z</time>
      </trkpt>
      <trkpt lat="47.4396" lon="6.81088">
        <ele>375</ele>
        <time>2016-03-13T10:35:56.000Z</time>
      </trkpt>
      <trkpt lat="47.43958" lon="6.81087">
        <ele>375</ele>
        <time>2016-03-13T10:35:57.000Z</time>
      </trkpt>
      <trkpt lat="47.43955" lon="6.81084">
        <ele>375</ele>
        <time>2016-03-13T10:35:59.000Z</time>
      </trkpt>
      <trkpt lat="47.43954" lon="6.81082">
        <ele>377</ele>
        <time>2016-03-13T10:36:00.000Z</time>
      </trkpt>
      <trkpt lat="47.43951" lon="6.81079">
        <ele>378</ele>
        <time>2016-03-13T10:36:02.000Z</time>
      </trkpt>
      <trkpt lat="47.4395" lon="6.81078">
        <ele>378</ele>
        <time>2016-03-13T10:36:03.000Z</time>
      </trkpt>
      <trkpt lat="47.43947" lon="6.81075">
        <ele>378</ele>
        <time>2016-03-13T10:36:05.000Z</time>
      </trkpt>
      <trkpt lat="47.43945" lon="6.81074">
        <ele>378</ele>
        <time>2016-03-13T10:36:06.000Z</time>
      </trkpt>
      <trkpt lat="47.43943" lon="6.81071">
        <ele>378</ele>
        <time>2016-03-13T10:36:08.000Z</time>
      </trkpt>
      <trkpt lat="47.43942" lon="6.81069">
        <ele>378</ele>
        <time>2016-03-13T10:36:09.000Z</time>
      </trkpt>
      <trkpt lat="47.43939" lon="6.81066">
        <ele>378</ele>
        <time>2016-03-13T10:36:11.000Z</time>
      </trkpt>
      <trkpt lat="47.43937" lon="6.81065">
        <ele>378</ele>
        <time>2016-03-13T10:36:12.000Z</time>
      </trkpt>
      <trkpt lat="47.43934" lon="6.81062">
        <ele>378</ele>
        <time>2016-03-13T10:36:14.000Z</time>
      </trkpt>
      <trkpt lat="47.43933" lon="6.81061">
        <ele>378</ele>
        <time>2016-03-13T10:36:15.000Z</time>
      </trkpt>
      <trkpt lat="47.4393" lon="6.81057">
        <ele>378</ele>
        <time>2016-03-13T10:36:17.000Z</time>
      </trkpt>
      <trkpt lat="47.43928" lon="6.81056">
        <ele>378</ele>
        <time>2016-03-13T10:36:18.000Z</time>
      </trkpt>
      <trkpt lat="47.43925" lon="6.81053">
        <ele>379</ele>
        <time>2016-03-13T10:36:20.000Z</time>
      </trkpt>
      <trkpt lat="47.43923" lon="6.81051">
        <ele>379</ele>
        <time>2016-03-13T10:36:21.000Z</time>
      </trkpt>
      <trkpt lat="47.4392" lon="6.81048">
        <ele>379</ele>
        <time>2016-03-13T10:36:23.000Z</time>
      </trkpt>
      <trkpt lat="47.43919" lon="6.81047">
        <ele>379</ele>
        <time>2016-03-13T10:36:24.000Z</time>
      </trkpt>
      <trkpt lat="47.43916" lon="6.81044">
        <ele>385</ele>
        <time>2016-03-13T10:36:26.000Z</time>
      </trkpt>
      <trkpt lat="47.43915" lon="6.81043">
        <ele>385</ele>
        <time>2016-03-13T10:36:27.000Z</time>
      </trkpt>
      <trkpt lat="47.43911" lon="6.81039">
        <ele>386</ele>
        <time>2016-03-13T10:36:30.000Z</time>
      </trkpt>
      <trkpt lat="47.4391" lon="6.81037">
        <ele>386</ele>
        <time>2016-03-13T10:36:31.000Z</time>
      </trkpt>
      <trkpt lat="47.43907" lon="6.81035">
        <ele>386</ele>
        <time>2016-03-13T10:36:33.000Z</time>
      </trkpt>
      <trkpt lat="47.43905" lon="6.81034">
        <ele>386</ele>
        <time>2016-03-13T10:36:34.000Z</time>
      </trkpt>
      <trkpt lat="47.43902" lon="6.81031">
        <ele>386</ele>
        <time>2016-03-13T10:36:36.000Z</time>
      </trkpt>
      <trkpt lat="47.439" lon="6.8103">
        <ele>387</ele>
        <time>2016-03-13T10:36:37.000Z</time>
      </trkpt>
      <trkpt lat="47.43897" lon="6.81027">
        <ele>387</ele>
        <time>2016-03-13T10:36:39.000Z</time>
      </trkpt>
      <trkpt lat="47.43895" lon="6.81026">
        <ele>387</ele>
        <time>2016-03-13T10:36:40.000Z</time>
      </trkpt>
      <trkpt lat="47.43892" lon="6.81023">
        <ele>387</ele>
        <time>2016-03-13T10:36:42.000Z</time>
      </trkpt>
      <trkpt lat="47.4389" lon="6.81022">
        <ele>387</ele>
        <time>2016-03-13T10:36:43.000Z</time>
      </trkpt>
      <trkpt lat="47.43887" lon="6.81019">
        <ele>388</ele>
        <time>2016-03-13T10:36:45.000Z</time>
      </trkpt>
      <trkpt lat="47.43886" lon="6.81017">
        <ele>388</ele>
        <time>2016-03-13T10:36:46.000Z</time>
      </trkpt>
      <trkpt lat="47.43883" lon="6.81014">
        <ele>388</ele>
        <time>2016-03-13T10:36:48.000Z</time>
      </trkpt>
      <trkpt lat="47.43882" lon="6.81012">
        <ele>389</ele>
        <time>2016-03-13T10:36:49.000Z</time>
      </trkpt>
      <trkpt lat="47.43879" lon="6.81009">
        <ele>389</ele>
        <time>2016-03-13T10:36:51.000Z</time>
      </trkpt>
      <trkpt lat="47.43878" lon="6.81008">
        <ele>389</ele>
        <time>2016-03-13T10:36:52.000Z</time>
      </trkpt>
      <trkpt lat="47.43875" lon="6.81005">
        <ele>390</ele>
        <time>2016-03-13T10:36:55.000Z</time>
      </trkpt>
      <trkpt lat="47.43874" lon="6.81004">
        <ele>390</ele>
        <time>2016-03-13T10:36:56.000Z</time>
      </trkpt>
      <trkpt lat="47.4387" lon="6.81">
        <ele>396</ele>
        <time>2016-03-13T10:36:59.000Z</time>
      </trkpt>
      <trkpt lat="47.43869" lon="6.80999">
        <ele>396</ele>
        <time>2016-03-13T10:37:00.000Z</time>
      </trkpt>
      <trkpt lat="47.43866" lon="6.80997">
        <ele>396</ele>
        <time>2016-03-13T10:37:03.000Z</time>
      </trkpt>
      <trkpt lat="47.43865" lon="6.80996">
        <ele>397</ele>
        <time>2016-03-13T10:37:04.000Z</time>
      </trkpt>
      <trkpt lat="47.43862" lon="6.80993">
        <ele>397</ele>
        <time>2016-03-13T10:37:08.000Z</time>
      </trkpt>
      <trkpt lat="47.43862" lon="6.80992">
        <ele>397</ele>
        <time>2016-03-13T10:37:09.000Z</time>
      </trkpt>
      <trkpt lat="47.43858" lon="6.80988">
        <ele>398</ele>
        <time>2016-03-13T10:37:14.000Z</time>
      </trkpt>
      <trkpt lat="47.43858" lon="6.80988">
        <ele>398</ele>
        <time>2016-03-13T10:37:15.000Z</time>
      </trkpt>
      <trkpt lat="47.43856" lon="6.80983">
        <ele>398</ele>
        <time>2016-03-13T10:37:20.000Z</time>
      </trkpt>
      <trkpt lat="47.43856" lon="6.80981">
        <ele>398</ele>
        <time>2016-03-13T10:37:21.000Z</time>
      </trkpt>
      <trkpt lat="47.43858" lon="6.80975">
        <ele>398</ele>
        <time>2016-03-13T10:37:27.000Z</time>
      </trkpt>
      <trkpt lat="47.43858" lon="6.80975">
        <ele>398</ele>
        <time>2016-03-13T10:37:28.000Z</time>
      </trkpt>
      <trkpt lat="47.43862" lon="6.80975">
        <ele>397</ele>
        <time>2016-03-13T10:37:33.000Z</time>
      </trkpt>
      <trkpt lat="47.43864" lon="6.80975">
        <ele>397</ele>
        <time>2016-03-13T10:37:34.000Z</time>
      </trkpt>
      <trkpt lat="47.43867" lon="6.80972">
        <ele>397</ele>
        <time>2016-03-13T10:37:37.000Z</time>
      </trkpt>
      <trkpt lat="47.43869" lon="6.8097">
        <ele>397</ele>
        <time>2016-03-13T10:37:38.000Z</time>
      </trkpt>
      <trkpt lat="47.43871" lon="6.80968">
        <ele>396</ele>
        <time>2016-03-13T10:37:39.000Z</time>
      </trkpt>
      <trkpt lat="47.43872" lon="6.80966">
        <ele>396</ele>
        <time>2016-03-13T10:37:40.000Z</time>
      </trkpt>
      <trkpt lat="47.43873" lon="6.80963">
        <ele>396</ele>
        <time>2016-03-13T10:37:41.000Z</time>
      </trkpt>
      <trkpt lat="47.43875" lon="6.8096">
        <ele>396</ele>
        <time>2016-03-13T10:37:42.000Z</time>
      </trkpt>
      <trkpt lat="47.43876" lon="6.80957">
        <ele>396</ele>
        <time>2016-03-13T10:37:43.000Z</time>
      </trkpt>
      <trkpt lat="47.43878" lon="6.80953">
        <ele>396</ele>
        <time>2016-03-13T10:37:44.000Z</time>
      </trkpt>
      <trkpt lat="47.43881" lon="6.80949">
        <ele>396</ele>
        <time>2016-03-13T10:37:45.000Z</time>
      </trkpt>
      <trkpt lat="47.43883" lon="6.80944">
        <ele>396</ele>
        <time>2016-03-13T10:37:46.000Z</time>
      </trkpt>
      <trkpt lat="47.43886" lon="6.80938">
        <ele>395</ele>
        <time>2016-03-13T10:37:47.000Z</time>
      </trkpt>
      <trkpt lat="47.43889" lon="6.80933">
        <ele>395</ele>
        <time>2016-03-13T10:37:48.000Z</time>
      </trkpt>
      <trkpt lat="47.43891" lon="6.80928">
        <ele>395</ele>
        <time>2016-03-13T10:37:49.000Z</time>
      </trkpt>
      <trkpt lat="47.43894" lon="6.80922">
        <ele>394</ele>
        <time>2016-03-13T10:37:50.000Z</time>
      </trkpt>
      <trkpt lat="47.43897" lon="6.80916">
        <ele>396</ele>
        <time>2016-03-13T10:37:51.000Z</time>
      </trkpt>
      <trkpt lat="47.439" lon="6.80909">
        <ele>396</ele>
        <time>2016-03-13T10:37:52.000Z</time>
      </trkpt>
      <trkpt lat="47.43903" lon="6.80901">
        <ele>396</ele>
        <time>2016-03-13T10:37:53.000Z</time>
      </trkpt>
      <trkpt lat="47.43905" lon="6.80895">
        <ele>397</ele>
        <time>2016-03-13T10:37:54.000Z</time>
      </trkpt>
      <trkpt lat="47.43907" lon="6.80888">
        <ele>397</ele>
        <time>2016-03-13T10:37:55.000Z</time>
      </trkpt>
      <trkpt lat="47.43909" lon="6.80882">
        <ele>398</ele>
        <time>2016-03-13T10:37:56.000Z</time>
      </trkpt>
      <trkpt lat="47.43911" lon="6.80876">
        <ele>398</ele>
        <time>2016-03-13T10:37:57.000Z</time>
      </trkpt>
      <trkpt lat="47.43914" lon="6.8087">
        <ele>398</ele>
        <time>2016-03-13T10:37:58.000Z</time>
      </trkpt>
      <trkpt lat="47.43917" lon="6.80864">
        <ele>389</ele>
        <time>2016-03-13T10:37:59.000Z</time>
      </trkpt>
      <trkpt lat="47.43921" lon="6.80859">
        <ele>389</ele>
        <time>2016-03-13T10:38:00.000Z</time>
      </trkpt>
      <trkpt lat="47.43924" lon="6.80853">
        <ele>390</ele>
        <time>2016-03-13T10:38:01.000Z</time>
      </trkpt>
      <trkpt lat="47.43926" lon="6.80848">
        <ele>390</ele>
        <time>2016-03-13T10:38:02.000Z</time>
      </trkpt>
      <trkpt lat="47.43929" lon="6.80843">
        <ele>390</ele>
        <time>2016-03-13T10:38:03.000Z</time>
      </trkpt>
      <trkpt lat="47.43933" lon="6.80837">
        <ele>390</ele>
        <time>2016-03-13T10:38:04.000Z</time>
      </trkpt>
      <trkpt lat="47.43936" lon="6.80832">
        <ele>391</ele>
        <time>2016-03-13T10:38:05.000Z</time>
      </trkpt>
      <trkpt lat="47.43948" lon="6.80825">
        <ele>390</ele>
        <time>2016-03-13T10:38:06.000Z</time>
      </trkpt>
      <trkpt lat="47.43952" lon="6.80819">
        <ele>390</ele>
        <time>2016-03-13T10:38:07.000Z</time>
      </trkpt>
      <trkpt lat="47.43954" lon="6.8081">
        <ele>390</ele>
        <time>2016-03-13T10:38:08.000Z</time>
      </trkpt>
      <trkpt lat="47.43958" lon="6.80802">
        <ele>389</ele>
        <time>2016-03-13T10:38:09.000Z</time>
      </trkpt>
      <trkpt lat="47.43959" lon="6.80795">
        <ele>389</ele>
        <time>2016-03-13T10:38:10.000Z</time>
      </trkpt>
      <trkpt lat="47.43959" lon="6.80781">
        <ele>390</ele>
        <time>2016-03-13T10:38:11.000Z</time>
      </trkpt>
      <trkpt lat="47.4396" lon="6.80775">
        <ele>390</ele>
        <time>2016-03-13T10:38:12.000Z</time>
      </trkpt>
      <trkpt lat="47.43961" lon="6.80768">
        <ele>389</ele>
        <time>2016-03-13T10:38:13.000Z</time>
      </trkpt>
      <trkpt lat="47.43963" lon="6.80762">
        <ele>389</ele>
        <time>2016-03-13T10:38:14.000Z</time>
      </trkpt>
      <trkpt lat="47.43965" lon="6.80757">
        <ele>389</ele>
        <time>2016-03-13T10:38:15.000Z</time>
      </trkpt>
      <trkpt lat="47.43966" lon="6.8075">
        <ele>390</ele>
        <time>2016-03-13T10:38:16.000Z</time>
      </trkpt>
      <trkpt lat="47.43972" lon="6.80747">
        <ele>389</ele>
        <time>2016-03-13T10:38:17.000Z</time>
      </trkpt>
      <trkpt lat="47.43973" lon="6.80742">
        <ele>389</ele>
        <time>2016-03-13T10:38:18.000Z</time>
      </trkpt>
      <trkpt lat="47.43974" lon="6.80736">
        <ele>389</ele>
        <time>2016-03-13T10:38:19.000Z</time>
      </trkpt>
      <trkpt lat="47.43977" lon="6.80732">
        <ele>389</ele>
        <time>2016-03-13T10:38:20.000Z</time>
      </trkpt>
      <trkpt lat="47.43979" lon="6.80729">
        <ele>389</ele>
        <time>2016-03-13T10:38:21.000Z</time>
      </trkpt>
      <trkpt lat="47.43982" lon="6.80726">
        <ele>389</ele>
        <time>2016-03-13T10:38:22.000Z</time>
      </trkpt>
      <trkpt lat="47.43984" lon="6.80724">
        <ele>389</ele>
        <time>2016-03-13T10:38:23.000Z</time>
      </trkpt>
      <trkpt lat="47.43986" lon="6.80721">
        <ele>389</ele>
        <time>2016-03-13T10:38:24.000Z</time>
      </trkpt>
      <trkpt lat="47.43988" lon="6.80716">
        <ele>389</ele>
        <time>2016-03-13T10:38:25.000Z</time>
      </trkpt>
      <trkpt lat="47.4399" lon="6.8071">
        <ele>389</ele>
        <time>2016-03-13T10:38:26.000Z</time>
      </trkpt>
      <trkpt lat="47.4399" lon="6.80705">
        <ele>389</ele>
        <time>2016-03-13T10:38:27.000Z</time>
      </trkpt>
      <trkpt lat="47.4399" lon="6.80699">
        <ele>389</ele>
        <time>2016-03-13T10:38:28.000Z</time>
      </trkpt>
      <trkpt lat="47.4399" lon="6.80694">
        <ele>389</ele>
        <time>2016-03-13T10:38:29.000Z</time>
      </trkpt>
      <trkpt lat="47.43989" lon="6.8069">
        <ele>389</ele>
        <time>2016-03-13T10:38:30.000Z</time>
      </trkpt>
      <trkpt lat="47.43988" lon="6.80685">
        <ele>389</ele>
        <time>2016-03-13T10:38:31.000Z</time>
      </trkpt>
      <trkpt lat="47.43988" lon="6.8068">
        <ele>389</ele>
        <time>2016-03-13T10:38:32.000Z</time>
      </trkpt>
      <trkpt lat="47.43988" lon="6.80677">
        <ele>389</ele>
        <time>2016-03-13T10:38:33.000Z</time>
      </trkpt>
      <trkpt lat="47.43988" lon="6.80671">
        <ele>389</ele>
        <time>2016-03-13T10:38:35.000Z</time>
      </trkpt>
      <trkpt lat="47.43987" lon="6.80669">
        <ele>389</ele>
        <time>2016-03-13T10:38:36.000Z</time>
      </trkpt>
      <trkpt lat="47.43988" lon="6.80663">
        <ele>389</ele>
        <time>2016-03-13T10:38:39.000Z</time>
      </trkpt>
      <trkpt lat="47.43988" lon="6.80661">
        <ele>389</ele>
        <time>2016-03-13T10:38:40.000Z</time>
      </trkpt>
      <trkpt lat="47.43986" lon="6.80655">
        <ele>389</ele>
        <time>2016-03-13T10:38:47.000Z</time>
      </trkpt>
      <trkpt lat="47.43986" lon="6.80655">
        <ele>390</ele>
        <time>2016-03-13T10:38:48.000Z</time>
      </trkpt>
      <trkpt lat="47.43986" lon="6.8065">
        <ele>390</ele>
        <time>2016-03-13T10:39:42.000Z</time>
      </trkpt>
      <trkpt lat="47.43986" lon="6.80648">
        <ele>390</ele>
        <time>2016-03-13T10:39:43.000Z</time>
      </trkpt>
      <trkpt lat="47.43987" lon="6.80645">
        <ele>390</ele>
        <time>2016-03-13T10:39:44.000Z</time>
      </trkpt>
      <trkpt lat="47.43987" lon="6.80641">
        <ele>390</ele>
        <time>2016-03-13T10:39:45.000Z</time>
      </trkpt>
      <trkpt lat="47.43988" lon="6.80637">
        <ele>390</ele>
        <time>2016-03-13T10:39:46.000Z</time>
      </trkpt>
      <trkpt lat="47.4399" lon="6.80633">
        <ele>390</ele>
        <time>2016-03-13T10:39:47.000Z</time>
      </trkpt>
      <trkpt lat="47.43992" lon="6.80629">
        <ele>390</ele>
        <time>2016-03-13T10:39:48.000Z</time>
      </trkpt>
      <trkpt lat="47.43993" lon="6.80624">
        <ele>390</ele>
        <time>2016-03-13T10:39:49.000Z</time>
      </trkpt>
      <trkpt lat="47.43994" lon="6.80619">
        <ele>390</ele>
        <time>2016-03-13T10:39:50.000Z</time>
      </trkpt>
      <trkpt lat="47.43995" lon="6.80614">
        <ele>390</ele>
        <time>2016-03-13T10:39:51.000Z</time>
      </trkpt>
      <trkpt lat="47.43996" lon="6.80607">
        <ele>390</ele>
        <time>2016-03-13T10:39:52.000Z</time>
      </trkpt>
      <trkpt lat="47.43997" lon="6.80602">
        <ele>389</ele>
        <time>2016-03-13T10:39:52.999Z</time>
      </trkpt>
      <trkpt lat="47.4399" lon="6.80586">
        <ele>389</ele>
        <time>2016-03-13T10:39:54.000Z</time>
      </trkpt>
      <trkpt lat="47.43985" lon="6.80577">
        <ele>389</ele>
        <time>2016-03-13T10:39:55.000Z</time>
      </trkpt>
      <trkpt lat="47.43984" lon="6.80572">
        <ele>390</ele>
        <time>2016-03-13T10:39:56.000Z</time>
      </trkpt>
      <trkpt lat="47.43982" lon="6.80568">
        <ele>390</ele>
        <time>2016-03-13T10:39:57.000Z</time>
      </trkpt>
      <trkpt lat="47.43979" lon="6.80558">
        <ele>390</ele>
        <time>2016-03-13T10:39:58.000Z</time>
      </trkpt>
      <trkpt lat="47.43976" lon="6.80552">
        <ele>391</ele>
        <time>2016-03-13T10:39:59.000Z</time>
      </trkpt>
      <trkpt lat="47.43971" lon="6.80544">
        <ele>391</ele>
        <time>2016-03-13T10:40:00.000Z</time>
      </trkpt>
      <trkpt lat="47.43966" lon="6.80536">
        <ele>391</ele>
        <time>2016-03-13T10:40:01.000Z</time>
      </trkpt>
      <trkpt lat="47.43967" lon="6.80524">
        <ele>391</ele>
        <time>2016-03-13T10:40:02.000Z</time>
      </trkpt>
      <trkpt lat="47.43965" lon="6.80514">
        <ele>391</ele>
        <time>2016-03-13T10:40:03.000Z</time>
      </trkpt>
      <trkpt lat="47.43971" lon="6.80515">
        <ele>391</ele>
        <time>2016-03-13T10:40:04.000Z</time>
      </trkpt>
      <trkpt lat="47.43973" lon="6.80514">
        <ele>391</ele>
        <time>2016-03-13T10:40:05.000Z</time>
      </trkpt>
      <trkpt lat="47.43976" lon="6.80514">
        <ele>391</ele>
        <time>2016-03-13T10:40:06.000Z</time>
      </trkpt>
      <trkpt lat="47.43979" lon="6.8051">
        <ele>391</ele>
        <time>2016-03-13T10:40:09.000Z</time>
      </trkpt>
      <trkpt lat="47.43981" lon="6.8051">
        <ele>390</ele>
        <time>2016-03-13T10:40:10.000Z</time>
      </trkpt>
      <trkpt lat="47.43984" lon="6.80506">
        <ele>390</ele>
        <time>2016-03-13T10:40:14.000Z</time>
      </trkpt>
      <trkpt lat="47.43986" lon="6.80502">
        <ele>390</ele>
        <time>2016-03-13T10:40:15.000Z</time>
      </trkpt>
      <trkpt lat="47.43987" lon="6.80496">
        <ele>393</ele>
        <time>2016-03-13T10:40:17.000Z</time>
      </trkpt>
      <trkpt lat="47.43988" lon="6.80494">
        <ele>394</ele>
        <time>2016-03-13T10:40:18.000Z</time>
      </trkpt>
      <trkpt lat="47.4399" lon="6.8049">
        <ele>394</ele>
        <time>2016-03-13T10:40:21.000Z</time>
      </trkpt>
      <trkpt lat="47.43991" lon="6.80489">
        <ele>394</ele>
        <time>2016-03-13T10:40:22.000Z</time>
      </trkpt>
      <trkpt lat="47.43995" lon="6.80485">
        <ele>394</ele>
        <time>2016-03-13T10:40:27.000Z</time>
      </trkpt>
      <trkpt lat="47.43996" lon="6.80485">
        <ele>394</ele>
        <time>2016-03-13T10:40:28.000Z</time>
      </trkpt>
      <trkpt lat="47.44" lon="6.80483">
        <ele>394</ele>
        <time>2016-03-13T10:40:30.000Z</time>
      </trkpt>
      <trkpt lat="47.44002" lon="6.80482">
        <ele>390</ele>
        <time>2016-03-13T10:40:31.000Z</time>
      </trkpt>
      <trkpt lat="47.44004" lon="6.80481">
        <ele>390</ele>
        <time>2016-03-13T10:40:32.000Z</time>
      </trkpt>
      <trkpt lat="47.44006" lon="6.8048">
        <ele>390</ele>
        <time>2016-03-13T10:40:33.000Z</time>
      </trkpt>
      <trkpt lat="47.44009" lon="6.80478">
        <ele>390</ele>
        <time>2016-03-13T10:40:34.000Z</time>
      </trkpt>
      <trkpt lat="47.44012" lon="6.80476">
        <ele>390</ele>
        <time>2016-03-13T10:40:35.000Z</time>
      </trkpt>
      <trkpt lat="47.44015" lon="6.80473">
        <ele>390</ele>
        <time>2016-03-13T10:40:36.000Z</time>
      </trkpt>
      <trkpt lat="47.44018" lon="6.80468">
        <ele>390</ele>
        <time>2016-03-13T10:40:37.000Z</time>
      </trkpt>
      <trkpt lat="47.4402" lon="6.80464">
        <ele>391</ele>
        <time>2016-03-13T10:40:38.000Z</time>
      </trkpt>
      <trkpt lat="47.44023" lon="6.80459">
        <ele>391</ele>
        <time>2016-03-13T10:40:39.000Z</time>
      </trkpt>
      <trkpt lat="47.44027" lon="6.80453">
        <ele>391</ele>
        <time>2016-03-13T10:40:40.000Z</time>
      </trkpt>
      <trkpt lat="47.4403" lon="6.80447">
        <ele>391</ele>
        <time>2016-03-13T10:40:41.000Z</time>
      </trkpt>
      <trkpt lat="47.44033" lon="6.80441">
        <ele>392</ele>
        <time>2016-03-13T10:40:42.000Z</time>
      </trkpt>
      <trkpt lat="47.44037" lon="6.80434">
        <ele>392</ele>
        <time>2016-03-13T10:40:43.000Z</time>
      </trkpt>
      <trkpt lat="47.4404" lon="6.80428">
        <ele>391</ele>
        <time>2016-03-13T10:40:44.000Z</time>
      </trkpt>
      <trkpt lat="47.44043" lon="6.80422">
        <ele>391</ele>
        <time>2016-03-13T10:40:45.000Z</time>
      </trkpt>
      <trkpt lat="47.44046" lon="6.80417">
        <ele>396</ele>
        <time>2016-03-13T10:40:46.000Z</time>
      </trkpt>
      <trkpt lat="47.44049" lon="6.80411">
        <ele>395</ele>
        <time>2016-03-13T10:40:47.000Z</time>
      </trkpt>
      <trkpt lat="47.44052" lon="6.80405">
        <ele>395</ele>
        <time>2016-03-13T10:40:48.000Z</time>
      </trkpt>
      <trkpt lat="47.44055" lon="6.80402">
        <ele>395</ele>
        <time>2016-03-13T10:40:49.000Z</time>
      </trkpt>
      <trkpt lat="47.44058" lon="6.80396">
        <ele>395</ele>
        <time>2016-03-13T10:40:50.000Z</time>
      </trkpt>
      <trkpt lat="47.4406" lon="6.80391">
        <ele>395</ele>
        <time>2016-03-13T10:40:51.000Z</time>
      </trkpt>
      <trkpt lat="47.44063" lon="6.80388">
        <ele>394</ele>
        <time>2016-03-13T10:40:51.999Z</time>
      </trkpt>
      <trkpt lat="47.44065" lon="6.80384">
        <ele>395</ele>
        <time>2016-03-13T10:40:53.000Z</time>
      </trkpt>
      <trkpt lat="47.44067" lon="6.80381">
        <ele>395</ele>
        <time>2016-03-13T10:40:54.001Z</time>
      </trkpt>
      <trkpt lat="47.4407" lon="6.80378">
        <ele>395</ele>
        <time>2016-03-13T10:40:57.000Z</time>
      </trkpt>
      <trkpt lat="47.44072" lon="6.80375">
        <ele>395</ele>
        <time>2016-03-13T10:40:58.000Z</time>
      </trkpt>
      <trkpt lat="47.44074" lon="6.8037">
        <ele>395</ele>
        <time>2016-03-13T10:41:01.000Z</time>
      </trkpt>
      <trkpt lat="47.44073" lon="6.80368">
        <ele>395</ele>
        <time>2016-03-13T10:41:02.000Z</time>
      </trkpt>
      <trkpt lat="47.44072" lon="6.80364">
        <ele>395</ele>
        <time>2016-03-13T10:41:05.001Z</time>
      </trkpt>
      <trkpt lat="47.44071" lon="6.80361">
        <ele>395</ele>
        <time>2016-03-13T10:41:06.000Z</time>
      </trkpt>
      <trkpt lat="47.44071" lon="6.80355">
        <ele>395</ele>
        <time>2016-03-13T10:41:07.000Z</time>
      </trkpt>
      <trkpt lat="47.44072" lon="6.8035">
        <ele>394</ele>
        <time>2016-03-13T10:41:08.000Z</time>
      </trkpt>
      <trkpt lat="47.44072" lon="6.80348">
        <ele>394</ele>
        <time>2016-03-13T10:41:08.999Z</time>
      </trkpt>
      <trkpt lat="47.44073" lon="6.80343">
        <ele>394</ele>
        <time>2016-03-13T10:41:10.001Z</time>
      </trkpt>
      <trkpt lat="47.44075" lon="6.80335">
        <ele>393</ele>
        <time>2016-03-13T10:41:11.000Z</time>
      </trkpt>
      <trkpt lat="47.44077" lon="6.8033">
        <ele>394</ele>
        <time>2016-03-13T10:41:12.000Z</time>
      </trkpt>
      <trkpt lat="47.44079" lon="6.80325">
        <ele>395</ele>
        <time>2016-03-13T10:41:13.000Z</time>
      </trkpt>
      <trkpt lat="47.44081" lon="6.80322">
        <ele>396</ele>
        <time>2016-03-13T10:41:14.000Z</time>
      </trkpt>
      <trkpt lat="47.44083" lon="6.80319">
        <ele>396</ele>
        <time>2016-03-13T10:41:15.000Z</time>
      </trkpt>
      <trkpt lat="47.44086" lon="6.80316">
        <ele>390</ele>
        <time>2016-03-13T10:41:17.000Z</time>
      </trkpt>
      <trkpt lat="47.44088" lon="6.80314">
        <ele>390</ele>
        <time>2016-03-13T10:41:18.000Z</time>
      </trkpt>
      <trkpt lat="47.4409" lon="6.80309">
        <ele>390</ele>
        <time>2016-03-13T10:41:20.000Z</time>
      </trkpt>
      <trkpt lat="47.44091" lon="6.80305">
        <ele>390</ele>
        <time>2016-03-13T10:41:21.000Z</time>
      </trkpt>
      <trkpt lat="47.44092" lon="6.80301">
        <ele>391</ele>
        <time>2016-03-13T10:41:22.000Z</time>
      </trkpt>
      <trkpt lat="47.44092" lon="6.80297">
        <ele>391</ele>
        <time>2016-03-13T10:41:23.000Z</time>
      </trkpt>
      <trkpt lat="47.44093" lon="6.80293">
        <ele>391</ele>
        <time>2016-03-13T10:41:24.000Z</time>
      </trkpt>
      <trkpt lat="47.44093" lon="6.80288">
        <ele>391</ele>
        <time>2016-03-13T10:41:25.000Z</time>
      </trkpt>
      <trkpt lat="47.44094" lon="6.80284">
        <ele>391</ele>
        <time>2016-03-13T10:41:26.000Z</time>
      </trkpt>
      <trkpt lat="47.44096" lon="6.8028">
        <ele>391</ele>
        <time>2016-03-13T10:41:27.000Z</time>
      </trkpt>
      <trkpt lat="47.44098" lon="6.80276">
        <ele>392</ele>
        <time>2016-03-13T10:41:28.000Z</time>
      </trkpt>
      <trkpt lat="47.441" lon="6.80273">
        <ele>392</ele>
        <time>2016-03-13T10:41:29.000Z</time>
      </trkpt>
      <trkpt lat="47.44102" lon="6.80271">
        <ele>392</ele>
        <time>2016-03-13T10:41:30.000Z</time>
      </trkpt>
      <trkpt lat="47.44103" lon="6.80269">
        <ele>392</ele>
        <time>2016-03-13T10:41:31.000Z</time>
      </trkpt>
      <trkpt lat="47.44106" lon="6.80266">
        <ele>392</ele>
        <time>2016-03-13T10:41:33.000Z</time>
      </trkpt>
      <trkpt lat="47.44108" lon="6.80265">
        <ele>392</ele>
        <time>2016-03-13T10:41:34.000Z</time>
      </trkpt>
      <trkpt lat="47.4411" lon="6.80266">
        <ele>391</ele>
        <time>2016-03-13T10:41:35.000Z</time>
      </trkpt>
      <trkpt lat="47.44112" lon="6.80268">
        <ele>391</ele>
        <time>2016-03-13T10:41:36.000Z</time>
      </trkpt>
      <trkpt lat="47.44115" lon="6.8027">
        <ele>391</ele>
        <time>2016-03-13T10:41:37.000Z</time>
      </trkpt>
      <trkpt lat="47.44118" lon="6.80272">
        <ele>391</ele>
        <time>2016-03-13T10:41:38.000Z</time>
      </trkpt>
      <trkpt lat="47.44121" lon="6.80274">
        <ele>390</ele>
        <time>2016-03-13T10:41:39.000Z</time>
      </trkpt>
      <trkpt lat="47.44125" lon="6.80276">
        <ele>390</ele>
        <time>2016-03-13T10:41:40.000Z</time>
      </trkpt>
      <trkpt lat="47.44128" lon="6.80278">
        <ele>390</ele>
        <time>2016-03-13T10:41:41.000Z</time>
      </trkpt>
      <trkpt lat="47.44131" lon="6.80279">
        <ele>390</ele>
        <time>2016-03-13T10:41:42.000Z</time>
      </trkpt>
      <trkpt lat="47.44134" lon="6.80281">
        <ele>389</ele>
        <time>2016-03-13T10:41:43.000Z</time>
      </trkpt>
      <trkpt lat="47.44136" lon="6.80283">
        <ele>389</ele>
        <time>2016-03-13T10:41:44.000Z</time>
      </trkpt>
      <trkpt lat="47.44138" lon="6.80285">
        <ele>389</ele>
        <time>2016-03-13T10:41:45.000Z</time>
      </trkpt>
      <trkpt lat="47.4414" lon="6.80287">
        <ele>389</ele>
        <time>2016-03-13T10:41:46.000Z</time>
      </trkpt>
      <trkpt lat="47.44144" lon="6.80291">
        <ele>389</ele>
        <time>2016-03-13T10:41:48.000Z</time>
      </trkpt>
      <trkpt lat="47.44146" lon="6.80292">
        <ele>389</ele>
        <time>2016-03-13T10:41:49.000Z</time>
      </trkpt>
      <trkpt lat="47.44148" lon="6.80294">
        <ele>388</ele>
        <time>2016-03-13T10:41:50.000Z</time>
      </trkpt>
      <trkpt lat="47.44153" lon="6.8029">
        <ele>388</ele>
        <time>2016-03-13T10:41:51.000Z</time>
      </trkpt>
      <trkpt lat="47.44157" lon="6.80292">
        <ele>388</ele>
        <time>2016-03-13T10:41:52.000Z</time>
      </trkpt>
      <trkpt lat="47.44162" lon="6.80294">
        <ele>388</ele>
        <time>2016-03-13T10:41:53.000Z</time>
      </trkpt>
      <trkpt lat="47.44167" lon="6.80298">
        <ele>383</ele>
        <time>2016-03-13T10:41:54.000Z</time>
      </trkpt>
      <trkpt lat="47.44173" lon="6.803">
        <ele>383</ele>
        <time>2016-03-13T10:41:55.000Z</time>
      </trkpt>
      <trkpt lat="47.44179" lon="6.80303">
        <ele>383</ele>
        <time>2016-03-13T10:41:56.000Z</time>
      </trkpt>
      <trkpt lat="47.44184" lon="6.80306">
        <ele>383</ele>
        <time>2016-03-13T10:41:57.000Z</time>
      </trkpt>
      <trkpt lat="47.44188" lon="6.80307">
        <ele>383</ele>
        <time>2016-03-13T10:41:58.000Z</time>
      </trkpt>
      <trkpt lat="47.44193" lon="6.80306">
        <ele>382</ele>
        <time>2016-03-13T10:41:59.000Z</time>
      </trkpt>
      <trkpt lat="47.44197" lon="6.80302">
        <ele>382</ele>
        <time>2016-03-13T10:42:00.000Z</time>
      </trkpt>
      <trkpt lat="47.442" lon="6.80299">
        <ele>383</ele>
        <time>2016-03-13T10:42:01.000Z</time>
      </trkpt>
      <trkpt lat="47.44202" lon="6.80298">
        <ele>382</ele>
        <time>2016-03-13T10:42:02.000Z</time>
      </trkpt>
      <trkpt lat="47.44205" lon="6.8029">
        <ele>383</ele>
        <time>2016-03-13T10:42:03.000Z</time>
      </trkpt>
      <trkpt lat="47.44206" lon="6.80287">
        <ele>383</ele>
        <time>2016-03-13T10:42:04.000Z</time>
      </trkpt>
      <trkpt lat="47.44207" lon="6.80279">
        <ele>383</ele>
        <time>2016-03-13T10:42:05.000Z</time>
      </trkpt>
      <trkpt lat="47.44204" lon="6.80276">
        <ele>383</ele>
        <time>2016-03-13T10:42:17.000Z</time>
      </trkpt>
      <trkpt lat="47.44202" lon="6.80276">
        <ele>383</ele>
        <time>2016-03-13T10:42:18.000Z</time>
      </trkpt>
      <trkpt lat="47.44206" lon="6.80278">
        <ele>383</ele>
        <time>2016-03-13T10:42:22.000Z</time>
      </trkpt>
      <trkpt lat="47.44208" lon="6.80276">
        <ele>383</ele>
        <time>2016-03-13T10:42:23.000Z</time>
      </trkpt>
      <trkpt lat="47.4421" lon="6.80274">
        <ele>383</ele>
        <time>2016-03-13T10:42:24.000Z</time>
      </trkpt>
      <trkpt lat="47.44212" lon="6.80272">
        <ele>383</ele>
        <time>2016-03-13T10:42:25.000Z</time>
      </trkpt>
      <trkpt lat="47.44214" lon="6.8027">
        <ele>383</ele>
        <time>2016-03-13T10:42:27.000Z</time>
      </trkpt>
      <trkpt lat="47.44216" lon="6.8027">
        <ele>383</ele>
        <time>2016-03-13T10:42:28.000Z</time>
      </trkpt>
      <trkpt lat="47.44219" lon="6.80271">
        <ele>383</ele>
        <time>2016-03-13T10:42:29.000Z</time>
      </trkpt>
      <trkpt lat="47.44222" lon="6.80273">
        <ele>383</ele>
        <time>2016-03-13T10:42:30.000Z</time>
      </trkpt>
      <trkpt lat="47.44225" lon="6.80275">
        <ele>383</ele>
        <time>2016-03-13T10:42:31.000Z</time>
      </trkpt>
      <trkpt lat="47.44228" lon="6.80277">
        <ele>382</ele>
        <time>2016-03-13T10:42:32.000Z</time>
      </trkpt>
      <trkpt lat="47.4423" lon="6.80278">
        <ele>382</ele>
        <time>2016-03-13T10:42:33.000Z</time>
      </trkpt>
      <trkpt lat="47.44232" lon="6.80279">
        <ele>382</ele>
        <time>2016-03-13T10:42:34.000Z</time>
      </trkpt>
      <trkpt lat="47.44236" lon="6.80281">
        <ele>382</ele>
        <time>2016-03-13T10:42:36.000Z</time>
      </trkpt>
      <trkpt lat="47.44237" lon="6.80282">
        <ele>382</ele>
        <time>2016-03-13T10:42:37.000Z</time>
      </trkpt>
      <trkpt lat="47.44242" lon="6.80281">
        <ele>382</ele>
        <time>2016-03-13T10:42:41.000Z</time>
      </trkpt>
      <trkpt lat="47.44242" lon="6.80281">
        <ele>382</ele>
        <time>2016-03-13T10:42:42.000Z</time>
      </trkpt>
      <trkpt lat="47.44245" lon="6.80281">
        <ele>382</ele>
        <time>2016-03-13T10:42:44.000Z</time>
      </trkpt>
      <trkpt lat="47.44248" lon="6.80281">
        <ele>382</ele>
        <time>2016-03-13T10:42:45.000Z</time>
      </trkpt>
      <trkpt lat="47.44251" lon="6.80282">
        <ele>378</ele>
        <time>2016-03-13T10:42:46.000Z</time>
      </trkpt>
      <trkpt lat="47.44253" lon="6.80282">
        <ele>378</ele>
        <time>2016-03-13T10:42:47.000Z</time>
      </trkpt>
      <trkpt lat="47.44256" lon="6.80279">
        <ele>379</ele>
        <time>2016-03-13T10:42:49.000Z</time>
      </trkpt>
      <trkpt lat="47.44257" lon="6.80277">
        <ele>379</ele>
        <time>2016-03-13T10:42:50.000Z</time>
      </trkpt>
      <trkpt lat="47.44257" lon="6.80274">
        <ele>379</ele>
        <time>2016-03-13T10:42:51.000Z</time>
      </trkpt>
      <trkpt lat="47.44258" lon="6.80271">
        <ele>379</ele>
        <time>2016-03-13T10:42:52.000Z</time>
      </trkpt>
      <trkpt lat="47.4426" lon="6.80267">
        <ele>380</ele>
        <time>2016-03-13T10:42:53.000Z</time>
      </trkpt>
      <trkpt lat="47.44261" lon="6.80263">
        <ele>380</ele>
        <time>2016-03-13T10:42:54.000Z</time>
      </trkpt>
      <trkpt lat="47.44263" lon="6.8026">
        <ele>380</ele>
        <time>2016-03-13T10:42:55.000Z</time>
      </trkpt>
      <trkpt lat="47.44264" lon="6.80257">
        <ele>380</ele>
        <time>2016-03-13T10:42:56.000Z</time>
      </trkpt>
      <trkpt lat="47.44267" lon="6.80252">
        <ele>380</ele>
        <time>2016-03-13T10:42:58.000Z</time>
      </trkpt>
      <trkpt lat="47.44267" lon="6.8025">
        <ele>382</ele>
        <time>2016-03-13T10:42:59.000Z</time>
      </trkpt>
      <trkpt lat="47.44268" lon="6.80244">
        <ele>382</ele>
        <time>2016-03-13T10:43:01.000Z</time>
      </trkpt>
      <trkpt lat="47.44267" lon="6.80242">
        <ele>382</ele>
        <time>2016-03-13T10:43:02.000Z</time>
      </trkpt>
      <trkpt lat="47.44268" lon="6.80238">
        <ele>382</ele>
        <time>2016-03-13T10:43:04.000Z</time>
      </trkpt>
      <trkpt lat="47.44269" lon="6.80236">
        <ele>382</ele>
        <time>2016-03-13T10:43:05.000Z</time>
      </trkpt>
      <trkpt lat="47.4427" lon="6.80231">
        <ele>382</ele>
        <time>2016-03-13T10:43:07.000Z</time>
      </trkpt>
      <trkpt lat="47.44271" lon="6.80227">
        <ele>382</ele>
        <time>2016-03-13T10:43:08.000Z</time>
      </trkpt>
      <trkpt lat="47.44271" lon="6.80221">
        <ele>382</ele>
        <time>2016-03-13T10:43:11.000Z</time>
      </trkpt>
      <trkpt lat="47.44272" lon="6.8022">
        <ele>382</ele>
        <time>2016-03-13T10:43:12.000Z</time>
      </trkpt>
      <trkpt lat="47.44273" lon="6.80216">
        <ele>382</ele>
        <time>2016-03-13T10:43:14.000Z</time>
      </trkpt>
      <trkpt lat="47.44275" lon="6.80214">
        <ele>382</ele>
        <time>2016-03-13T10:43:15.000Z</time>
      </trkpt>
      <trkpt lat="47.44278" lon="6.8021">
        <ele>382</ele>
        <time>2016-03-13T10:43:17.000Z</time>
      </trkpt>
      <trkpt lat="47.4428" lon="6.80208">
        <ele>382</ele>
        <time>2016-03-13T10:43:18.000Z</time>
      </trkpt>
      <trkpt lat="47.44283" lon="6.80207">
        <ele>382</ele>
        <time>2016-03-13T10:43:19.000Z</time>
      </trkpt>
      <trkpt lat="47.44286" lon="6.80205">
        <ele>382</ele>
        <time>2016-03-13T10:43:20.000Z</time>
      </trkpt>
      <trkpt lat="47.44289" lon="6.80203">
        <ele>382</ele>
        <time>2016-03-13T10:43:21.000Z</time>
      </trkpt>
      <trkpt lat="47.44292" lon="6.80201">
        <ele>382</ele>
        <time>2016-03-13T10:43:22.000Z</time>
      </trkpt>
      <trkpt lat="47.44294" lon="6.80198">
        <ele>382</ele>
        <time>2016-03-13T10:43:23.000Z</time>
      </trkpt>
      <trkpt lat="47.44296" lon="6.80195">
        <ele>382</ele>
        <time>2016-03-13T10:43:24.000Z</time>
      </trkpt>
      <trkpt lat="47.44298" lon="6.80191">
        <ele>382</ele>
        <time>2016-03-13T10:43:25.000Z</time>
      </trkpt>
      <trkpt lat="47.443" lon="6.80186">
        <ele>381</ele>
        <time>2016-03-13T10:43:26.000Z</time>
      </trkpt>
      <trkpt lat="47.44302" lon="6.80178">
        <ele>381</ele>
        <time>2016-03-13T10:43:27.000Z</time>
      </trkpt>
      <trkpt lat="47.44304" lon="6.80171">
        <ele>381</ele>
        <time>2016-03-13T10:43:28.000Z</time>
      </trkpt>
      <trkpt lat="47.44306" lon="6.80164">
        <ele>384</ele>
        <time>2016-03-13T10:43:29.000Z</time>
      </trkpt>
      <trkpt lat="47.44309" lon="6.80157">
        <ele>384</ele>
        <time>2016-03-13T10:43:30.000Z</time>
      </trkpt>
      <trkpt lat="47.44312" lon="6.8015">
        <ele>384</ele>
        <time>2016-03-13T10:43:31.000Z</time>
      </trkpt>
      <trkpt lat="47.44314" lon="6.80144">
        <ele>384</ele>
        <time>2016-03-13T10:43:32.000Z</time>
      </trkpt>
      <trkpt lat="47.44317" lon="6.80139">
        <ele>384</ele>
        <time>2016-03-13T10:43:33.000Z</time>
      </trkpt>
      <trkpt lat="47.4432" lon="6.80134">
        <ele>384</ele>
        <time>2016-03-13T10:43:34.000Z</time>
      </trkpt>
      <trkpt lat="47.44322" lon="6.80129">
        <ele>384</ele>
        <time>2016-03-13T10:43:35.000Z</time>
      </trkpt>
      <trkpt lat="47.44325" lon="6.80124">
        <ele>384</ele>
        <time>2016-03-13T10:43:36.000Z</time>
      </trkpt>
      <trkpt lat="47.44326" lon="6.80119">
        <ele>384</ele>
        <time>2016-03-13T10:43:37.000Z</time>
      </trkpt>
      <trkpt lat="47.44327" lon="6.80113">
        <ele>384</ele>
        <time>2016-03-13T10:43:38.000Z</time>
      </trkpt>
      <trkpt lat="47.44327" lon="6.80107">
        <ele>384</ele>
        <time>2016-03-13T10:43:39.000Z</time>
      </trkpt>
      <trkpt lat="47.44328" lon="6.80101">
        <ele>383</ele>
        <time>2016-03-13T10:43:40.000Z</time>
      </trkpt>
      <trkpt lat="47.44328" lon="6.80094">
        <ele>383</ele>
        <time>2016-03-13T10:43:41.000Z</time>
      </trkpt>
      <trkpt lat="47.44329" lon="6.80088">
        <ele>382</ele>
        <time>2016-03-13T10:43:42.000Z</time>
      </trkpt>
      <trkpt lat="47.44329" lon="6.80081">
        <ele>383</ele>
        <time>2016-03-13T10:43:43.000Z</time>
      </trkpt>
      <trkpt lat="47.44329" lon="6.80076">
        <ele>384</ele>
        <time>2016-03-13T10:43:44.000Z</time>
      </trkpt>
      <trkpt lat="47.4433" lon="6.80072">
        <ele>385</ele>
        <time>2016-03-13T10:43:45.000Z</time>
      </trkpt>
      <trkpt lat="47.4433" lon="6.80067">
        <ele>385</ele>
        <time>2016-03-13T10:43:46.000Z</time>
      </trkpt>
      <trkpt lat="47.44331" lon="6.80063">
        <ele>386</ele>
        <time>2016-03-13T10:43:47.000Z</time>
      </trkpt>
      <trkpt lat="47.44333" lon="6.80059">
        <ele>387</ele>
        <time>2016-03-13T10:43:48.000Z</time>
      </trkpt>
      <trkpt lat="47.44334" lon="6.80054">
        <ele>378</ele>
        <time>2016-03-13T10:43:49.000Z</time>
      </trkpt>
      <trkpt lat="47.44335" lon="6.8005">
        <ele>378</ele>
        <time>2016-03-13T10:43:50.000Z</time>
      </trkpt>
      <trkpt lat="47.44337" lon="6.80045">
        <ele>378</ele>
        <time>2016-03-13T10:43:51.000Z</time>
      </trkpt>
      <trkpt lat="47.44338" lon="6.80041">
        <ele>378</ele>
        <time>2016-03-13T10:43:52.000Z</time>
      </trkpt>
      <trkpt lat="47.44339" lon="6.80038">
        <ele>378</ele>
        <time>2016-03-13T10:43:53.000Z</time>
      </trkpt>
      <trkpt lat="47.4434" lon="6.80034">
        <ele>378</ele>
        <time>2016-03-13T10:43:54.000Z</time>
      </trkpt>
      <trkpt lat="47.4434" lon="6.80029">
        <ele>379</ele>
        <time>2016-03-13T10:43:55.000Z</time>
      </trkpt>
      <trkpt lat="47.4434" lon="6.80024">
        <ele>379</ele>
        <time>2016-03-13T10:43:56.000Z</time>
      </trkpt>
      <trkpt lat="47.4434" lon="6.80018">
        <ele>380</ele>
        <time>2016-03-13T10:43:57.000Z</time>
      </trkpt>
      <trkpt lat="47.44341" lon="6.80013">
        <ele>380</ele>
        <time>2016-03-13T10:43:58.000Z</time>
      </trkpt>
      <trkpt lat="47.44341" lon="6.80008">
        <ele>381</ele>
        <time>2016-03-13T10:43:59.000Z</time>
      </trkpt>
      <trkpt lat="47.44342" lon="6.80004">
        <ele>381</ele>
        <time>2016-03-13T10:44:00.000Z</time>
      </trkpt>
      <trkpt lat="47.44344" lon="6.79999">
        <ele>383</ele>
        <time>2016-03-13T10:44:01.000Z</time>
      </trkpt>
      <trkpt lat="47.44345" lon="6.79995">
        <ele>382</ele>
        <time>2016-03-13T10:44:02.000Z</time>
      </trkpt>
      <trkpt lat="47.44347" lon="6.7999">
        <ele>382</ele>
        <time>2016-03-13T10:44:03.000Z</time>
      </trkpt>
      <trkpt lat="47.44349" lon="6.79985">
        <ele>382</ele>
        <time>2016-03-13T10:44:04.000Z</time>
      </trkpt>
      <trkpt lat="47.44352" lon="6.79981">
        <ele>381</ele>
        <time>2016-03-13T10:44:05.000Z</time>
      </trkpt>
      <trkpt lat="47.44354" lon="6.79976">
        <ele>381</ele>
        <time>2016-03-13T10:44:06.000Z</time>
      </trkpt>
      <trkpt lat="47.44355" lon="6.79972">
        <ele>381</ele>
        <time>2016-03-13T10:44:07.000Z</time>
      </trkpt>
      <trkpt lat="47.44356" lon="6.79967">
        <ele>381</ele>
        <time>2016-03-13T10:44:08.000Z</time>
      </trkpt>
      <trkpt lat="47.44357" lon="6.79962">
        <ele>381</ele>
        <time>2016-03-13T10:44:09.000Z</time>
      </trkpt>
      <trkpt lat="47.44359" lon="6.79957">
        <ele>381</ele>
        <time>2016-03-13T10:44:10.000Z</time>
      </trkpt>
      <trkpt lat="47.4436" lon="6.79952">
        <ele>381</ele>
        <time>2016-03-13T10:44:11.000Z</time>
      </trkpt>
      <trkpt lat="47.44361" lon="6.79946">
        <ele>382</ele>
        <time>2016-03-13T10:44:12.000Z</time>
      </trkpt>
      <trkpt lat="47.44361" lon="6.7994">
        <ele>382</ele>
        <time>2016-03-13T10:44:13.000Z</time>
      </trkpt>
      <trkpt lat="47.44362" lon="6.79933">
        <ele>382</ele>
        <time>2016-03-13T10:44:14.000Z</time>
      </trkpt>
      <trkpt lat="47.44363" lon="6.79926">
        <ele>382</ele>
        <time>2016-03-13T10:44:15.000Z</time>
      </trkpt>
      <trkpt lat="47.44363" lon="6.7992">
        <ele>382</ele>
        <time>2016-03-13T10:44:16.000Z</time>
      </trkpt>
      <trkpt lat="47.44364" lon="6.79913">
        <ele>385</ele>
        <time>2016-03-13T10:44:17.000Z</time>
      </trkpt>
      <trkpt lat="47.44366" lon="6.79907">
        <ele>384</ele>
        <time>2016-03-13T10:44:18.000Z</time>
      </trkpt>
      <trkpt lat="47.44368" lon="6.79901">
        <ele>384</ele>
        <time>2016-03-13T10:44:19.000Z</time>
      </trkpt>
      <trkpt lat="47.4437" lon="6.79896">
        <ele>384</ele>
        <time>2016-03-13T10:44:20.000Z</time>
      </trkpt>
      <trkpt lat="47.44372" lon="6.7989">
        <ele>384</ele>
        <time>2016-03-13T10:44:21.000Z</time>
      </trkpt>
      <trkpt lat="47.44375" lon="6.79885">
        <ele>384</ele>
        <time>2016-03-13T10:44:22.000Z</time>
      </trkpt>
      <trkpt lat="47.44378" lon="6.7988">
        <ele>383</ele>
        <time>2016-03-13T10:44:23.000Z</time>
      </trkpt>
      <trkpt lat="47.44381" lon="6.79878">
        <ele>383</ele>
        <time>2016-03-13T10:44:24.000Z</time>
      </trkpt>
      <trkpt lat="47.44383" lon="6.79877">
        <ele>383</ele>
        <time>2016-03-13T10:44:25.000Z</time>
      </trkpt>
      <trkpt lat="47.44385" lon="6.79881">
        <ele>383</ele>
        <time>2016-03-13T10:44:27.000Z</time>
      </trkpt>
      <trkpt lat="47.44386" lon="6.79883">
        <ele>383</ele>
        <time>2016-03-13T10:44:28.000Z</time>
      </trkpt>
      <trkpt lat="47.44389" lon="6.79888">
        <ele>382</ele>
        <time>2016-03-13T10:44:31.000Z</time>
      </trkpt>
      <trkpt lat="47.4439" lon="6.79889">
        <ele>382</ele>
        <time>2016-03-13T10:44:31.999Z</time>
      </trkpt>
      <trkpt lat="47.44392" lon="6.79893">
        <ele>382</ele>
        <time>2016-03-13T10:44:36.000Z</time>
      </trkpt>
      <trkpt lat="47.44394" lon="6.79894">
        <ele>382</ele>
        <time>2016-03-13T10:44:37.000Z</time>
      </trkpt>
      <trkpt lat="47.44396" lon="6.79894">
        <ele>381</ele>
        <time>2016-03-13T10:44:38.000Z</time>
      </trkpt>
      <trkpt lat="47.44399" lon="6.79894">
        <ele>381</ele>
        <time>2016-03-13T10:44:39.000Z</time>
      </trkpt>
      <trkpt lat="47.44401" lon="6.79895">
        <ele>381</ele>
        <time>2016-03-13T10:44:40.000Z</time>
      </trkpt>
      <trkpt lat="47.44404" lon="6.79895">
        <ele>381</ele>
        <time>2016-03-13T10:44:41.000Z</time>
      </trkpt>
      <trkpt lat="47.44407" lon="6.79896">
        <ele>380</ele>
        <time>2016-03-13T10:44:42.000Z</time>
      </trkpt>
      <trkpt lat="47.44411" lon="6.79896">
        <ele>380</ele>
        <time>2016-03-13T10:44:43.000Z</time>
      </trkpt>
      <trkpt lat="47.44414" lon="6.79897">
        <ele>380</ele>
        <time>2016-03-13T10:44:44.000Z</time>
      </trkpt>
      <trkpt lat="47.44418" lon="6.79897">
        <ele>374</ele>
        <time>2016-03-13T10:44:45.000Z</time>
      </trkpt>
      <trkpt lat="47.44422" lon="6.79897">
        <ele>374</ele>
        <time>2016-03-13T10:44:46.000Z</time>
      </trkpt>
      <trkpt lat="47.44425" lon="6.79898">
        <ele>373</ele>
        <time>2016-03-13T10:44:47.000Z</time>
      </trkpt>
      <trkpt lat="47.4443" lon="6.799">
        <ele>373</ele>
        <time>2016-03-13T10:44:48.000Z</time>
      </trkpt>
      <trkpt lat="47.44434" lon="6.79902">
        <ele>373</ele>
        <time>2016-03-13T10:44:49.000Z</time>
      </trkpt>
      <trkpt lat="47.44441" lon="6.79905">
        <ele>373</ele>
        <time>2016-03-13T10:44:50.000Z</time>
      </trkpt>
      <trkpt lat="47.44447" lon="6.79907">
        <ele>372</ele>
        <time>2016-03-13T10:44:51.000Z</time>
      </trkpt>
      <trkpt lat="47.44452" lon="6.79909">
        <ele>372</ele>
        <time>2016-03-13T10:44:52.000Z</time>
      </trkpt>
      <trkpt lat="47.44457" lon="6.79911">
        <ele>371</ele>
        <time>2016-03-13T10:44:53.000Z</time>
      </trkpt>
      <trkpt lat="47.44462" lon="6.79913">
        <ele>371</ele>
        <time>2016-03-13T10:44:54.000Z</time>
      </trkpt>
      <trkpt lat="47.44468" lon="6.79915">
        <ele>370</ele>
        <time>2016-03-13T10:44:55.000Z</time>
      </trkpt>
      <trkpt lat="47.44474" lon="6.79917">
        <ele>369</ele>
        <time>2016-03-13T10:44:56.000Z</time>
      </trkpt>
      <trkpt lat="47.44479" lon="6.79919">
        <ele>368</ele>
        <time>2016-03-13T10:44:57.000Z</time>
      </trkpt>
      <trkpt lat="47.44486" lon="6.7992">
        <ele>368</ele>
        <time>2016-03-13T10:44:58.000Z</time>
      </trkpt>
      <trkpt lat="47.44492" lon="6.79921">
        <ele>367</ele>
        <time>2016-03-13T10:44:59.000Z</time>
      </trkpt>
      <trkpt lat="47.44498" lon="6.7992">
        <ele>367</ele>
        <time>2016-03-13T10:45:00.000Z</time>
      </trkpt>
      <trkpt lat="47.44505" lon="6.79921">
        <ele>366</ele>
        <time>2016-03-13T10:45:01.000Z</time>
      </trkpt>
      <trkpt lat="47.44512" lon="6.79921">
        <ele>365</ele>
        <time>2016-03-13T10:45:02.000Z</time>
      </trkpt>
      <trkpt lat="47.44519" lon="6.79922">
        <ele>365</ele>
        <time>2016-03-13T10:45:03.000Z</time>
      </trkpt>
      <trkpt lat="47.44526" lon="6.79924">
        <ele>365</ele>
        <time>2016-03-13T10:45:04.000Z</time>
      </trkpt>
      <trkpt lat="47.44533" lon="6.79926">
        <ele>365</ele>
        <time>2016-03-13T10:45:05.000Z</time>
      </trkpt>
      <trkpt lat="47.44539" lon="6.79927">
        <ele>364</ele>
        <time>2016-03-13T10:45:06.000Z</time>
      </trkpt>
      <trkpt lat="47.44546" lon="6.79929">
        <ele>364</ele>
        <time>2016-03-13T10:45:07.000Z</time>
      </trkpt>
      <trkpt lat="47.44552" lon="6.79931">
        <ele>364</ele>
        <time>2016-03-13T10:45:08.000Z</time>
      </trkpt>
      <trkpt lat="47.44558" lon="6.79932">
        <ele>364</ele>
        <time>2016-03-13T10:45:09.000Z</time>
      </trkpt>
      <trkpt lat="47.44565" lon="6.79935">
        <ele>364</ele>
        <time>2016-03-13T10:45:10.000Z</time>
      </trkpt>
      <trkpt lat="47.4457" lon="6.79937">
        <ele>364</ele>
        <time>2016-03-13T10:45:11.000Z</time>
      </trkpt>
      <trkpt lat="47.44576" lon="6.79938">
        <ele>364</ele>
        <time>2016-03-13T10:45:12.000Z</time>
      </trkpt>
      <trkpt lat="47.44582" lon="6.7994">
        <ele>364</ele>
        <time>2016-03-13T10:45:13.000Z</time>
      </trkpt>
      <trkpt lat="47.44588" lon="6.79941">
        <ele>362</ele>
        <time>2016-03-13T10:45:14.000Z</time>
      </trkpt>
      <trkpt lat="47.44593" lon="6.79943">
        <ele>362</ele>
        <time>2016-03-13T10:45:15.000Z</time>
      </trkpt>
      <trkpt lat="47.44598" lon="6.79945">
        <ele>362</ele>
        <time>2016-03-13T10:45:16.000Z</time>
      </trkpt>
      <trkpt lat="47.44603" lon="6.79947">
        <ele>362</ele>
        <time>2016-03-13T10:45:17.000Z</time>
      </trkpt>
      <trkpt lat="47.44608" lon="6.79949">
        <ele>362</ele>
        <time>2016-03-13T10:45:18.000Z</time>
      </trkpt>
      <trkpt lat="47.44613" lon="6.7995">
        <ele>362</ele>
        <time>2016-03-13T10:45:19.000Z</time>
      </trkpt>
      <trkpt lat="47.44618" lon="6.79952">
        <ele>362</ele>
        <time>2016-03-13T10:45:20.000Z</time>
      </trkpt>
      <trkpt lat="47.44623" lon="6.79954">
        <ele>362</ele>
        <time>2016-03-13T10:45:21.000Z</time>
      </trkpt>
      <trkpt lat="47.44627" lon="6.79955">
        <ele>362</ele>
        <time>2016-03-13T10:45:22.000Z</time>
      </trkpt>
      <trkpt lat="47.44632" lon="6.79957">
        <ele>362</ele>
        <time>2016-03-13T10:45:23.000Z</time>
      </trkpt>
      <trkpt lat="47.44637" lon="6.79961">
        <ele>362</ele>
        <time>2016-03-13T10:45:24.000Z</time>
      </trkpt>
      <trkpt lat="47.44641" lon="6.79963">
        <ele>361</ele>
        <time>2016-03-13T10:45:25.000Z</time>
      </trkpt>
      <trkpt lat="47.44645" lon="6.79966">
        <ele>361</ele>
        <time>2016-03-13T10:45:26.000Z</time>
      </trkpt>
      <trkpt lat="47.44651" lon="6.79966">
        <ele>361</ele>
        <time>2016-03-13T10:45:27.000Z</time>
      </trkpt>
      <trkpt lat="47.44656" lon="6.79965">
        <ele>361</ele>
        <time>2016-03-13T10:45:28.000Z</time>
      </trkpt>
      <trkpt lat="47.44661" lon="6.79966">
        <ele>361</ele>
        <time>2016-03-13T10:45:29.000Z</time>
      </trkpt>
      <trkpt lat="47.44666" lon="6.79967">
        <ele>361</ele>
        <time>2016-03-13T10:45:30.000Z</time>
      </trkpt>
      <trkpt lat="47.44671" lon="6.79967">
        <ele>360</ele>
        <time>2016-03-13T10:45:31.000Z</time>
      </trkpt>
      <trkpt lat="47.44677" lon="6.79967">
        <ele>359</ele>
        <time>2016-03-13T10:45:31.999Z</time>
      </trkpt>
      <trkpt lat="47.44682" lon="6.79965">
        <ele>359</ele>
        <time>2016-03-13T10:45:33.000Z</time>
      </trkpt>
      <trkpt lat="47.44688" lon="6.79966">
        <ele>359</ele>
        <time>2016-03-13T10:45:34.000Z</time>
      </trkpt>
      <trkpt lat="47.44694" lon="6.79966">
        <ele>359</ele>
        <time>2016-03-13T10:45:35.000Z</time>
      </trkpt>
      <trkpt lat="47.44699" lon="6.79967">
        <ele>359</ele>
        <time>2016-03-13T10:45:36.001Z</time>
      </trkpt>
      <trkpt lat="47.44704" lon="6.79973">
        <ele>359</ele>
        <time>2016-03-13T10:45:37.000Z</time>
      </trkpt>
      <trkpt lat="47.4471" lon="6.79975">
        <ele>359</ele>
        <time>2016-03-13T10:45:38.000Z</time>
      </trkpt>
      <trkpt lat="47.44717" lon="6.79974">
        <ele>359</ele>
        <time>2016-03-13T10:45:39.000Z</time>
      </trkpt>
      <trkpt lat="47.44722" lon="6.79975">
        <ele>359</ele>
        <time>2016-03-13T10:45:40.000Z</time>
      </trkpt>
      <trkpt lat="47.44727" lon="6.79976">
        <ele>359</ele>
        <time>2016-03-13T10:45:41.000Z</time>
      </trkpt>
      <trkpt lat="47.44733" lon="6.79978">
        <ele>359</ele>
        <time>2016-03-13T10:45:42.000Z</time>
      </trkpt>
      <trkpt lat="47.44738" lon="6.79979">
        <ele>359</ele>
        <time>2016-03-13T10:45:43.000Z</time>
      </trkpt>
      <trkpt lat="47.44744" lon="6.79981">
        <ele>358</ele>
        <time>2016-03-13T10:45:44.000Z</time>
      </trkpt>
      <trkpt lat="47.4475" lon="6.79982">
        <ele>358</ele>
        <time>2016-03-13T10:45:45.000Z</time>
      </trkpt>
      <trkpt lat="47.44756" lon="6.79984">
        <ele>357</ele>
        <time>2016-03-13T10:45:46.000Z</time>
      </trkpt>
      <trkpt lat="47.44762" lon="6.79985">
        <ele>357</ele>
        <time>2016-03-13T10:45:47.000Z</time>
      </trkpt>
      <trkpt lat="47.44768" lon="6.79986">
        <ele>357</ele>
        <time>2016-03-13T10:45:48.000Z</time>
      </trkpt>
      <trkpt lat="47.44774" lon="6.79988">
        <ele>356</ele>
        <time>2016-03-13T10:45:49.000Z</time>
      </trkpt>
      <trkpt lat="47.44778" lon="6.79989">
        <ele>356</ele>
        <time>2016-03-13T10:45:50.000Z</time>
      </trkpt>
      <trkpt lat="47.44782" lon="6.79991">
        <ele>356</ele>
        <time>2016-03-13T10:45:51.000Z</time>
      </trkpt>
      <trkpt lat="47.44784" lon="6.79985">
        <ele>356</ele>
        <time>2016-03-13T10:45:53.000Z</time>
      </trkpt>
      <trkpt lat="47.44785" lon="6.79982">
        <ele>356</ele>
        <time>2016-03-13T10:45:54.000Z</time>
      </trkpt>
      <trkpt lat="47.44785" lon="6.7998">
        <ele>356</ele>
        <time>2016-03-13T10:45:54.999Z</time>
      </trkpt>
      <trkpt lat="47.44788" lon="6.79974">
        <ele>356</ele>
        <time>2016-03-13T10:45:56.000Z</time>
      </trkpt>
      <trkpt lat="47.44789" lon="6.7997">
        <ele>356</ele>
        <time>2016-03-13T10:45:57.000Z</time>
      </trkpt>
      <trkpt lat="47.44789" lon="6.79964">
        <ele>356</ele>
        <time>2016-03-13T10:45:58.000Z</time>
      </trkpt>
      <trkpt lat="47.4479" lon="6.79957">
        <ele>356</ele>
        <time>2016-03-13T10:45:59.000Z</time>
      </trkpt>
      <trkpt lat="47.44791" lon="6.7995">
        <ele>356</ele>
        <time>2016-03-13T10:46:00.000Z</time>
      </trkpt>
      <trkpt lat="47.44792" lon="6.79943">
        <ele>356</ele>
        <time>2016-03-13T10:46:01.000Z</time>
      </trkpt>
      <trkpt lat="47.44793" lon="6.79937">
        <ele>356</ele>
        <time>2016-03-13T10:46:02.000Z</time>
      </trkpt>
      <trkpt lat="47.44798" lon="6.79931">
        <ele>356</ele>
        <time>2016-03-13T10:46:03.000Z</time>
      </trkpt>
      <trkpt lat="47.448" lon="6.79924">
        <ele>355</ele>
        <time>2016-03-13T10:46:04.000Z</time>
      </trkpt>
      <trkpt lat="47.448" lon="6.79917">
        <ele>355</ele>
        <time>2016-03-13T10:46:05.000Z</time>
      </trkpt>
      <trkpt lat="47.448" lon="6.79909">
        <ele>355</ele>
        <time>2016-03-13T10:46:06.000Z</time>
      </trkpt>
      <trkpt lat="47.44802" lon="6.799">
        <ele>355</ele>
        <time>2016-03-13T10:46:07.000Z</time>
      </trkpt>
      <trkpt lat="47.44803" lon="6.79892">
        <ele>355</ele>
        <time>2016-03-13T10:46:08.000Z</time>
      </trkpt>
      <trkpt lat="47.44805" lon="6.79882">
        <ele>355</ele>
        <time>2016-03-13T10:46:09.000Z</time>
      </trkpt>
      <trkpt lat="47.44806" lon="6.79876">
        <ele>355</ele>
        <time>2016-03-13T10:46:10.000Z</time>
      </trkpt>
      <trkpt lat="47.44807" lon="6.7987">
        <ele>354</ele>
        <time>2016-03-13T10:46:11.000Z</time>
      </trkpt>
      <trkpt lat="47.44808" lon="6.79865">
        <ele>354</ele>
        <time>2016-03-13T10:46:12.000Z</time>
      </trkpt>
      <trkpt lat="47.44809" lon="6.79857">
        <ele>354</ele>
        <time>2016-03-13T10:46:13.000Z</time>
      </trkpt>
      <trkpt lat="47.44812" lon="6.79851">
        <ele>354</ele>
        <time>2016-03-13T10:46:14.000Z</time>
      </trkpt>
      <trkpt lat="47.44813" lon="6.79843">
        <ele>354</ele>
        <time>2016-03-13T10:46:15.000Z</time>
      </trkpt>
      <trkpt lat="47.44813" lon="6.79835">
        <ele>354</ele>
        <time>2016-03-13T10:46:16.000Z</time>
      </trkpt>
      <trkpt lat="47.44813" lon="6.7983">
        <ele>353</ele>
        <time>2016-03-13T10:46:17.000Z</time>
      </trkpt>
      <trkpt lat="47.44813" lon="6.79824">
        <ele>353</ele>
        <time>2016-03-13T10:46:18.000Z</time>
      </trkpt>
      <trkpt lat="47.44814" lon="6.79818">
        <ele>353</ele>
        <time>2016-03-13T10:46:19.000Z</time>
      </trkpt>
      <trkpt lat="47.44814" lon="6.79811">
        <ele>353</ele>
        <time>2016-03-13T10:46:20.000Z</time>
      </trkpt>
      <trkpt lat="47.44815" lon="6.79798">
        <ele>353</ele>
        <time>2016-03-13T10:46:22.000Z</time>
      </trkpt>
      <trkpt lat="47.44816" lon="6.7979">
        <ele>353</ele>
        <time>2016-03-13T10:46:23.000Z</time>
      </trkpt>
      <trkpt lat="47.44817" lon="6.79783">
        <ele>353</ele>
        <time>2016-03-13T10:46:24.000Z</time>
      </trkpt>
      <trkpt lat="47.44818" lon="6.79775">
        <ele>352</ele>
        <time>2016-03-13T10:46:25.000Z</time>
      </trkpt>
      <trkpt lat="47.44821" lon="6.79768">
        <ele>352</ele>
        <time>2016-03-13T10:46:26.000Z</time>
      </trkpt>
      <trkpt lat="47.4482" lon="6.7976">
        <ele>352</ele>
        <time>2016-03-13T10:46:27.000Z</time>
      </trkpt>
      <trkpt lat="47.44819" lon="6.79753">
        <ele>352</ele>
        <time>2016-03-13T10:46:28.000Z</time>
      </trkpt>
      <trkpt lat="47.4482" lon="6.79748">
        <ele>349</ele>
        <time>2016-03-13T10:46:29.000Z</time>
      </trkpt>
      <trkpt lat="47.44821" lon="6.79744">
        <ele>349</ele>
        <time>2016-03-13T10:46:30.000Z</time>
      </trkpt>
      <trkpt lat="47.44822" lon="6.79739">
        <ele>349</ele>
        <time>2016-03-13T10:46:31.000Z</time>
      </trkpt>
      <trkpt lat="47.44821" lon="6.79736">
        <ele>349</ele>
        <time>2016-03-13T10:46:32.000Z</time>
      </trkpt>
      <trkpt lat="47.44821" lon="6.79731">
        <ele>348</ele>
        <time>2016-03-13T10:46:33.000Z</time>
      </trkpt>
      <trkpt lat="47.44822" lon="6.79727">
        <ele>348</ele>
        <time>2016-03-13T10:46:34.000Z</time>
      </trkpt>
      <trkpt lat="47.44825" lon="6.79725">
        <ele>348</ele>
        <time>2016-03-13T10:46:35.000Z</time>
      </trkpt>
      <trkpt lat="47.44834" lon="6.79722">
        <ele>347</ele>
        <time>2016-03-13T10:46:36.000Z</time>
      </trkpt>
      <trkpt lat="47.44837" lon="6.79721">
        <ele>347</ele>
        <time>2016-03-13T10:46:37.000Z</time>
      </trkpt>
      <trkpt lat="47.44842" lon="6.7972">
        <ele>347</ele>
        <time>2016-03-13T10:46:38.000Z</time>
      </trkpt>
      <trkpt lat="47.44846" lon="6.79719">
        <ele>347</ele>
        <time>2016-03-13T10:46:39.000Z</time>
      </trkpt>
      <trkpt lat="47.44851" lon="6.79719">
        <ele>347</ele>
        <time>2016-03-13T10:46:40.000Z</time>
      </trkpt>
      <trkpt lat="47.44855" lon="6.79719">
        <ele>347</ele>
        <time>2016-03-13T10:46:41.000Z</time>
      </trkpt>
      <trkpt lat="47.44859" lon="6.79719">
        <ele>347</ele>
        <time>2016-03-13T10:46:42.000Z</time>
      </trkpt>
      <trkpt lat="47.44864" lon="6.79719">
        <ele>347</ele>
        <time>2016-03-13T10:46:43.000Z</time>
      </trkpt>
      <trkpt lat="47.44868" lon="6.79719">
        <ele>347</ele>
        <time>2016-03-13T10:46:44.000Z</time>
      </trkpt>
      <trkpt lat="47.44871" lon="6.79721">
        <ele>347</ele>
        <time>2016-03-13T10:46:45.000Z</time>
      </trkpt>
      <trkpt lat="47.44875" lon="6.79723">
        <ele>347</ele>
        <time>2016-03-13T10:46:46.000Z</time>
      </trkpt>
      <trkpt lat="47.44878" lon="6.79724">
        <ele>347</ele>
        <time>2016-03-13T10:46:47.000Z</time>
      </trkpt>
      <trkpt lat="47.44882" lon="6.79726">
        <ele>347</ele>
        <time>2016-03-13T10:46:48.000Z</time>
      </trkpt>
      <trkpt lat="47.44886" lon="6.79728">
        <ele>347</ele>
        <time>2016-03-13T10:46:49.000Z</time>
      </trkpt>
      <trkpt lat="47.4489" lon="6.7973">
        <ele>347</ele>
        <time>2016-03-13T10:46:50.000Z</time>
      </trkpt>
      <trkpt lat="47.44893" lon="6.79734">
        <ele>348</ele>
        <time>2016-03-13T10:46:51.000Z</time>
      </trkpt>
      <trkpt lat="47.44896" lon="6.79737">
        <ele>348</ele>
        <time>2016-03-13T10:46:52.000Z</time>
      </trkpt>
      <trkpt lat="47.449" lon="6.79741">
        <ele>348</ele>
        <time>2016-03-13T10:46:53.000Z</time>
      </trkpt>
      <trkpt lat="47.44904" lon="6.79743">
        <ele>348</ele>
        <time>2016-03-13T10:46:54.000Z</time>
      </trkpt>
      <trkpt lat="47.44908" lon="6.79743">
        <ele>349</ele>
        <time>2016-03-13T10:46:55.000Z</time>
      </trkpt>
      <trkpt lat="47.44912" lon="6.79743">
        <ele>349</ele>
        <time>2016-03-13T10:46:56.000Z</time>
      </trkpt>
      <trkpt lat="47.44916" lon="6.79741">
        <ele>349</ele>
        <time>2016-03-13T10:46:57.000Z</time>
      </trkpt>
      <trkpt lat="47.4492" lon="6.79739">
        <ele>348</ele>
        <time>2016-03-13T10:46:58.000Z</time>
      </trkpt>
      <trkpt lat="47.44923" lon="6.79737">
        <ele>347</ele>
        <time>2016-03-13T10:46:59.000Z</time>
      </trkpt>
      <trkpt lat="47.44927" lon="6.79734">
        <ele>347</ele>
        <time>2016-03-13T10:47:00.000Z</time>
      </trkpt>
      <trkpt lat="47.4493" lon="6.79731">
        <ele>346</ele>
        <time>2016-03-13T10:47:01.000Z</time>
      </trkpt>
      <trkpt lat="47.44934" lon="6.79728">
        <ele>346</ele>
        <time>2016-03-13T10:47:02.000Z</time>
      </trkpt>
      <trkpt lat="47.44938" lon="6.79726">
        <ele>345</ele>
        <time>2016-03-13T10:47:03.000Z</time>
      </trkpt>
      <trkpt lat="47.44942" lon="6.79724">
        <ele>345</ele>
        <time>2016-03-13T10:47:04.000Z</time>
      </trkpt>
      <trkpt lat="47.44946" lon="6.79722">
        <ele>345</ele>
        <time>2016-03-13T10:47:05.000Z</time>
      </trkpt>
      <trkpt lat="47.4495" lon="6.7972">
        <ele>345</ele>
        <time>2016-03-13T10:47:06.000Z</time>
      </trkpt>
      <trkpt lat="47.44955" lon="6.79719">
        <ele>344</ele>
        <time>2016-03-13T10:47:07.000Z</time>
      </trkpt>
      <trkpt lat="47.4496" lon="6.79718">
        <ele>344</ele>
        <time>2016-03-13T10:47:08.000Z</time>
      </trkpt>
      <trkpt lat="47.44964" lon="6.7972">
        <ele>344</ele>
        <time>2016-03-13T10:47:09.000Z</time>
      </trkpt>
      <trkpt lat="47.44969" lon="6.79722">
        <ele>344</ele>
        <time>2016-03-13T10:47:10.000Z</time>
      </trkpt>
      <trkpt lat="47.44973" lon="6.79724">
        <ele>344</ele>
        <time>2016-03-13T10:47:11.000Z</time>
      </trkpt>
      <trkpt lat="47.44978" lon="6.79724">
        <ele>344</ele>
        <time>2016-03-13T10:47:12.000Z</time>
      </trkpt>
      <trkpt lat="47.44982" lon="6.79724">
        <ele>344</ele>
        <time>2016-03-13T10:47:13.000Z</time>
      </trkpt>
      <trkpt lat="47.44985" lon="6.79724">
        <ele>344</ele>
        <time>2016-03-13T10:47:14.000Z</time>
      </trkpt>
      <trkpt lat="47.44988" lon="6.7972">
        <ele>344</ele>
        <time>2016-03-13T10:47:15.000Z</time>
      </trkpt>
      <trkpt lat="47.44992" lon="6.79718">
        <ele>343</ele>
        <time>2016-03-13T10:47:16.000Z</time>
      </trkpt>
      <trkpt lat="47.44995" lon="6.79716">
        <ele>343</ele>
        <time>2016-03-13T10:47:17.000Z</time>
      </trkpt>
      <trkpt lat="47.44999" lon="6.79714">
        <ele>343</ele>
        <time>2016-03-13T10:47:18.000Z</time>
      </trkpt>
      <trkpt lat="47.45005" lon="6.79713">
        <ele>340</ele>
        <time>2016-03-13T10:47:19.000Z</time>
      </trkpt>
      <trkpt lat="47.4501" lon="6.79715">
        <ele>340</ele>
        <time>2016-03-13T10:47:20.000Z</time>
      </trkpt>
      <trkpt lat="47.45015" lon="6.79715">
        <ele>340</ele>
        <time>2016-03-13T10:47:21.000Z</time>
      </trkpt>
      <trkpt lat="47.4502" lon="6.79716">
        <ele>340</ele>
        <time>2016-03-13T10:47:22.000Z</time>
      </trkpt>
      <trkpt lat="47.45026" lon="6.79718">
        <ele>340</ele>
        <time>2016-03-13T10:47:23.000Z</time>
      </trkpt>
      <trkpt lat="47.45032" lon="6.79716">
        <ele>340</ele>
        <time>2016-03-13T10:47:24.000Z</time>
      </trkpt>
      <trkpt lat="47.45035" lon="6.79714">
        <ele>339</ele>
        <time>2016-03-13T10:47:25.000Z</time>
      </trkpt>
      <trkpt lat="47.45037" lon="6.79711">
        <ele>339</ele>
        <time>2016-03-13T10:47:26.000Z</time>
      </trkpt>
      <trkpt lat="47.45039" lon="6.79705">
        <ele>339</ele>
        <time>2016-03-13T10:47:27.000Z</time>
      </trkpt>
      <trkpt lat="47.45041" lon="6.79691">
        <ele>338</ele>
        <time>2016-03-13T10:47:28.000Z</time>
      </trkpt>
      <trkpt lat="47.45042" lon="6.79683">
        <ele>338</ele>
        <time>2016-03-13T10:47:29.000Z</time>
      </trkpt>
      <trkpt lat="47.45043" lon="6.79673">
        <ele>338</ele>
        <time>2016-03-13T10:47:30.000Z</time>
      </trkpt>
      <trkpt lat="47.45045" lon="6.79664">
        <ele>335</ele>
        <time>2016-03-13T10:47:31.000Z</time>
      </trkpt>
      <trkpt lat="47.45047" lon="6.79655">
        <ele>335</ele>
        <time>2016-03-13T10:47:32.000Z</time>
      </trkpt>
      <trkpt lat="47.4505" lon="6.79648">
        <ele>335</ele>
        <time>2016-03-13T10:47:33.000Z</time>
      </trkpt>
      <trkpt lat="47.45052" lon="6.79642">
        <ele>335</ele>
        <time>2016-03-13T10:47:34.000Z</time>
      </trkpt>
      <trkpt lat="47.45054" lon="6.79636">
        <ele>335</ele>
        <time>2016-03-13T10:47:35.000Z</time>
      </trkpt>
      <trkpt lat="47.45055" lon="6.7963">
        <ele>335</ele>
        <time>2016-03-13T10:47:36.000Z</time>
      </trkpt>
      <trkpt lat="47.45057" lon="6.79626">
        <ele>334</ele>
        <time>2016-03-13T10:47:37.000Z</time>
      </trkpt>
      <trkpt lat="47.45059" lon="6.79621">
        <ele>334</ele>
        <time>2016-03-13T10:47:38.000Z</time>
      </trkpt>
      <trkpt lat="47.45063" lon="6.79618">
        <ele>334</ele>
        <time>2016-03-13T10:47:39.000Z</time>
      </trkpt>
      <trkpt lat="47.45066" lon="6.79614">
        <ele>334</ele>
        <time>2016-03-13T10:47:40.000Z</time>
      </trkpt>
      <trkpt lat="47.45069" lon="6.7961">
        <ele>334</ele>
        <time>2016-03-13T10:47:41.000Z</time>
      </trkpt>
      <trkpt lat="47.45073" lon="6.79606">
        <ele>334</ele>
        <time>2016-03-13T10:47:42.000Z</time>
      </trkpt>
      <trkpt lat="47.45074" lon="6.79602">
        <ele>334</ele>
        <time>2016-03-13T10:47:43.000Z</time>
      </trkpt>
      <trkpt lat="47.45077" lon="6.79599">
        <ele>334</ele>
        <time>2016-03-13T10:47:44.000Z</time>
      </trkpt>
      <trkpt lat="47.4508" lon="6.79596">
        <ele>334</ele>
        <time>2016-03-13T10:47:45.000Z</time>
      </trkpt>
      <trkpt lat="47.45083" lon="6.79593">
        <ele>333</ele>
        <time>2016-03-13T10:47:46.000Z</time>
      </trkpt>
      <trkpt lat="47.45086" lon="6.7959">
        <ele>333</ele>
        <time>2016-03-13T10:47:47.000Z</time>
      </trkpt>
      <trkpt lat="47.45089" lon="6.79586">
        <ele>333</ele>
        <time>2016-03-13T10:47:48.000Z</time>
      </trkpt>
      <trkpt lat="47.45092" lon="6.79583">
        <ele>333</ele>
        <time>2016-03-13T10:47:49.000Z</time>
      </trkpt>
      <trkpt lat="47.45094" lon="6.79579">
        <ele>333</ele>
        <time>2016-03-13T10:47:50.000Z</time>
      </trkpt>
      <trkpt lat="47.45097" lon="6.79575">
        <ele>333</ele>
        <time>2016-03-13T10:47:51.000Z</time>
      </trkpt>
      <trkpt lat="47.45099" lon="6.79571">
        <ele>333</ele>
        <time>2016-03-13T10:47:52.000Z</time>
      </trkpt>
      <trkpt lat="47.45102" lon="6.79568">
        <ele>333</ele>
        <time>2016-03-13T10:47:52.999Z</time>
      </trkpt>
      <trkpt lat="47.45105" lon="6.79563">
        <ele>333</ele>
        <time>2016-03-13T10:47:54.000Z</time>
      </trkpt>
      <trkpt lat="47.45108" lon="6.79559">
        <ele>333</ele>
        <time>2016-03-13T10:47:55.000Z</time>
      </trkpt>
      <trkpt lat="47.45111" lon="6.79555">
        <ele>333</ele>
        <time>2016-03-13T10:47:56.000Z</time>
      </trkpt>
      <trkpt lat="47.45114" lon="6.79551">
        <ele>333</ele>
        <time>2016-03-13T10:47:57.000Z</time>
      </trkpt>
      <trkpt lat="47.45116" lon="6.79547">
        <ele>333</ele>
        <time>2016-03-13T10:47:58.000Z</time>
      </trkpt>
      <trkpt lat="47.4512" lon="6.79543">
        <ele>333</ele>
        <time>2016-03-13T10:47:59.000Z</time>
      </trkpt>
      <trkpt lat="47.45122" lon="6.79538">
        <ele>333</ele>
        <time>2016-03-13T10:48:00.000Z</time>
      </trkpt>
      <trkpt lat="47.45125" lon="6.79534">
        <ele>333</ele>
        <time>2016-03-13T10:48:01.000Z</time>
      </trkpt>
      <trkpt lat="47.45127" lon="6.79529">
        <ele>333</ele>
        <time>2016-03-13T10:48:02.000Z</time>
      </trkpt>
      <trkpt lat="47.45129" lon="6.79524">
        <ele>333</ele>
        <time>2016-03-13T10:48:03.000Z</time>
      </trkpt>
      <trkpt lat="47.45131" lon="6.7952">
        <ele>333</ele>
        <time>2016-03-13T10:48:04.000Z</time>
      </trkpt>
      <trkpt lat="47.45131" lon="6.79514">
        <ele>333</ele>
        <time>2016-03-13T10:48:05.000Z</time>
      </trkpt>
      <trkpt lat="47.45132" lon="6.79508">
        <ele>333</ele>
        <time>2016-03-13T10:48:06.000Z</time>
      </trkpt>
      <trkpt lat="47.45133" lon="6.79502">
        <ele>333</ele>
        <time>2016-03-13T10:48:07.000Z</time>
      </trkpt>
      <trkpt lat="47.45135" lon="6.79497">
        <ele>333</ele>
        <time>2016-03-13T10:48:07.999Z</time>
      </trkpt>
      <trkpt lat="47.45136" lon="6.79491">
        <ele>333</ele>
        <time>2016-03-13T10:48:09.000Z</time>
      </trkpt>
      <trkpt lat="47.45138" lon="6.79485">
        <ele>333</ele>
        <time>2016-03-13T10:48:10.000Z</time>
      </trkpt>
      <trkpt lat="47.45141" lon="6.79477">
        <ele>333</ele>
        <time>2016-03-13T10:48:11.000Z</time>
      </trkpt>
      <trkpt lat="47.45143" lon="6.79472">
        <ele>333</ele>
        <time>2016-03-13T10:48:11.999Z</time>
      </trkpt>
      <trkpt lat="47.45145" lon="6.79467">
        <ele>333</ele>
        <time>2016-03-13T10:48:13.001Z</time>
      </trkpt>
      <trkpt lat="47.45146" lon="6.79462">
        <ele>333</ele>
        <time>2016-03-13T10:48:14.000Z</time>
      </trkpt>
      <trkpt lat="47.45145" lon="6.79451">
        <ele>333</ele>
        <time>2016-03-13T10:48:15.000Z</time>
      </trkpt>
      <trkpt lat="47.45147" lon="6.79446">
        <ele>333</ele>
        <time>2016-03-13T10:48:16.000Z</time>
      </trkpt>
      <trkpt lat="47.4515" lon="6.7944">
        <ele>333</ele>
        <time>2016-03-13T10:48:17.000Z</time>
      </trkpt>
      <trkpt lat="47.45151" lon="6.79434">
        <ele>333</ele>
        <time>2016-03-13T10:48:18.000Z</time>
      </trkpt>
      <trkpt lat="47.45152" lon="6.79427">
        <ele>333</ele>
        <time>2016-03-13T10:48:19.000Z</time>
      </trkpt>
      <trkpt lat="47.45154" lon="6.79421">
        <ele>333</ele>
        <time>2016-03-13T10:48:20.000Z</time>
      </trkpt>
      <trkpt lat="47.45155" lon="6.79415">
        <ele>333</ele>
        <time>2016-03-13T10:48:21.000Z</time>
      </trkpt>
      <trkpt lat="47.45157" lon="6.7941">
        <ele>333</ele>
        <time>2016-03-13T10:48:22.000Z</time>
      </trkpt>
      <trkpt lat="47.45159" lon="6.79406">
        <ele>333</ele>
        <time>2016-03-13T10:48:23.000Z</time>
      </trkpt>
      <trkpt lat="47.45163" lon="6.79402">
        <ele>333</ele>
        <time>2016-03-13T10:48:24.000Z</time>
      </trkpt>
      <trkpt lat="47.45162" lon="6.79394">
        <ele>334</ele>
        <time>2016-03-13T10:48:25.000Z</time>
      </trkpt>
      <trkpt lat="47.45163" lon="6.79389">
        <ele>334</ele>
        <time>2016-03-13T10:48:26.000Z</time>
      </trkpt>
      <trkpt lat="47.45163" lon="6.79383">
        <ele>334</ele>
        <time>2016-03-13T10:48:27.000Z</time>
      </trkpt>
      <trkpt lat="47.45164" lon="6.79377">
        <ele>334</ele>
        <time>2016-03-13T10:48:28.000Z</time>
      </trkpt>
      <trkpt lat="47.45166" lon="6.79369">
        <ele>334</ele>
        <time>2016-03-13T10:48:29.000Z</time>
      </trkpt>
      <trkpt lat="47.45167" lon="6.79361">
        <ele>334</ele>
        <time>2016-03-13T10:48:30.000Z</time>
      </trkpt>
      <trkpt lat="47.45168" lon="6.79355">
        <ele>334</ele>
        <time>2016-03-13T10:48:30.999Z</time>
      </trkpt>
      <trkpt lat="47.45172" lon="6.79347">
        <ele>334</ele>
        <time>2016-03-13T10:48:32.000Z</time>
      </trkpt>
      <trkpt lat="47.45175" lon="6.79341">
        <ele>334</ele>
        <time>2016-03-13T10:48:33.000Z</time>
      </trkpt>
      <trkpt lat="47.45177" lon="6.79335">
        <ele>334</ele>
        <time>2016-03-13T10:48:34.000Z</time>
      </trkpt>
      <trkpt lat="47.45179" lon="6.7933">
        <ele>335</ele>
        <time>2016-03-13T10:48:35.000Z</time>
      </trkpt>
      <trkpt lat="47.45181" lon="6.79324">
        <ele>334</ele>
        <time>2016-03-13T10:48:36.000Z</time>
      </trkpt>
      <trkpt lat="47.45181" lon="6.79317">
        <ele>334</ele>
        <time>2016-03-13T10:48:37.000Z</time>
      </trkpt>
      <trkpt lat="47.45181" lon="6.79311">
        <ele>334</ele>
        <time>2016-03-13T10:48:38.000Z</time>
      </trkpt>
      <trkpt lat="47.45183" lon="6.79306">
        <ele>334</ele>
        <time>2016-03-13T10:48:39.000Z</time>
      </trkpt>
      <trkpt lat="47.45185" lon="6.79299">
        <ele>334</ele>
        <time>2016-03-13T10:48:40.000Z</time>
      </trkpt>
      <trkpt lat="47.45188" lon="6.79295">
        <ele>334</ele>
        <time>2016-03-13T10:48:41.001Z</time>
      </trkpt>
      <trkpt lat="47.45189" lon="6.7929">
        <ele>334</ele>
        <time>2016-03-13T10:48:42.000Z</time>
      </trkpt>
      <trkpt lat="47.4519" lon="6.79285">
        <ele>334</ele>
        <time>2016-03-13T10:48:43.000Z</time>
      </trkpt>
      <trkpt lat="47.4519" lon="6.79281">
        <ele>334</ele>
        <time>2016-03-13T10:48:43.999Z</time>
      </trkpt>
      <trkpt lat="47.45189" lon="6.79274">
        <ele>335</ele>
        <time>2016-03-13T10:48:45.000Z</time>
      </trkpt>
      <trkpt lat="47.45191" lon="6.79269">
        <ele>335</ele>
        <time>2016-03-13T10:48:46.000Z</time>
      </trkpt>
      <trkpt lat="47.45191" lon="6.79264">
        <ele>335</ele>
        <time>2016-03-13T10:48:47.000Z</time>
      </trkpt>
      <trkpt lat="47.45192" lon="6.79259">
        <ele>335</ele>
        <time>2016-03-13T10:48:48.000Z</time>
      </trkpt>
      <trkpt lat="47.45192" lon="6.79254">
        <ele>335</ele>
        <time>2016-03-13T10:48:49.000Z</time>
      </trkpt>
      <trkpt lat="47.45194" lon="6.7925">
        <ele>334</ele>
        <time>2016-03-13T10:48:50.000Z</time>
      </trkpt>
      <trkpt lat="47.45195" lon="6.79245">
        <ele>334</ele>
        <time>2016-03-13T10:48:51.000Z</time>
      </trkpt>
      <trkpt lat="47.45196" lon="6.79241">
        <ele>334</ele>
        <time>2016-03-13T10:48:52.000Z</time>
      </trkpt>
      <trkpt lat="47.45198" lon="6.79237">
        <ele>334</ele>
        <time>2016-03-13T10:48:53.000Z</time>
      </trkpt>
      <trkpt lat="47.452" lon="6.79233">
        <ele>334</ele>
        <time>2016-03-13T10:48:54.000Z</time>
      </trkpt>
      <trkpt lat="47.45203" lon="6.79232">
        <ele>334</ele>
        <time>2016-03-13T10:48:55.000Z</time>
      </trkpt>
      <trkpt lat="47.45205" lon="6.79229">
        <ele>334</ele>
        <time>2016-03-13T10:48:56.000Z</time>
      </trkpt>
      <trkpt lat="47.45207" lon="6.79224">
        <ele>334</ele>
        <time>2016-03-13T10:48:57.000Z</time>
      </trkpt>
      <trkpt lat="47.45208" lon="6.79214">
        <ele>334</ele>
        <time>2016-03-13T10:48:58.000Z</time>
      </trkpt>
      <trkpt lat="47.4521" lon="6.79206">
        <ele>334</ele>
        <time>2016-03-13T10:48:59.000Z</time>
      </trkpt>
      <trkpt lat="47.45211" lon="6.792">
        <ele>334</ele>
        <time>2016-03-13T10:49:00.001Z</time>
      </trkpt>
      <trkpt lat="47.45213" lon="6.79194">
        <ele>334</ele>
        <time>2016-03-13T10:49:01.000Z</time>
      </trkpt>
      <trkpt lat="47.45214" lon="6.79188">
        <ele>333</ele>
        <time>2016-03-13T10:49:02.000Z</time>
      </trkpt>
      <trkpt lat="47.45215" lon="6.7918">
        <ele>333</ele>
        <time>2016-03-13T10:49:03.000Z</time>
      </trkpt>
      <trkpt lat="47.45216" lon="6.79173">
        <ele>333</ele>
        <time>2016-03-13T10:49:04.000Z</time>
      </trkpt>
      <trkpt lat="47.45217" lon="6.79166">
        <ele>333</ele>
        <time>2016-03-13T10:49:05.000Z</time>
      </trkpt>
      <trkpt lat="47.45218" lon="6.7916">
        <ele>333</ele>
        <time>2016-03-13T10:49:05.999Z</time>
      </trkpt>
      <trkpt lat="47.4522" lon="6.79153">
        <ele>333</ele>
        <time>2016-03-13T10:49:07.000Z</time>
      </trkpt>
      <trkpt lat="47.45222" lon="6.79146">
        <ele>333</ele>
        <time>2016-03-13T10:49:08.000Z</time>
      </trkpt>
      <trkpt lat="47.45225" lon="6.79141">
        <ele>333</ele>
        <time>2016-03-13T10:49:09.000Z</time>
      </trkpt>
      <trkpt lat="47.45234" lon="6.79137">
        <ele>333</ele>
        <time>2016-03-13T10:49:10.000Z</time>
      </trkpt>
      <trkpt lat="47.45238" lon="6.79132">
        <ele>333</ele>
        <time>2016-03-13T10:49:11.000Z</time>
      </trkpt>
      <trkpt lat="47.45244" lon="6.79128">
        <ele>333</ele>
        <time>2016-03-13T10:49:11.999Z</time>
      </trkpt>
      <trkpt lat="47.4525" lon="6.79123">
        <ele>333</ele>
        <time>2016-03-13T10:49:13.000Z</time>
      </trkpt>
      <trkpt lat="47.45256" lon="6.79118">
        <ele>332</ele>
        <time>2016-03-13T10:49:14.001Z</time>
      </trkpt>
      <trkpt lat="47.45256" lon="6.7911">
        <ele>332</ele>
        <time>2016-03-13T10:49:15.000Z</time>
      </trkpt>
      <trkpt lat="47.45258" lon="6.79105">
        <ele>332</ele>
        <time>2016-03-13T10:49:16.000Z</time>
      </trkpt>
      <trkpt lat="47.45261" lon="6.791">
        <ele>332</ele>
        <time>2016-03-13T10:49:17.000Z</time>
      </trkpt>
      <trkpt lat="47.45263" lon="6.79094">
        <ele>332</ele>
        <time>2016-03-13T10:49:18.000Z</time>
      </trkpt>
      <trkpt lat="47.45266" lon="6.79088">
        <ele>332</ele>
        <time>2016-03-13T10:49:19.000Z</time>
      </trkpt>
      <trkpt lat="47.45268" lon="6.79082">
        <ele>332</ele>
        <time>2016-03-13T10:49:20.000Z</time>
      </trkpt>
      <trkpt lat="47.4527" lon="6.79076">
        <ele>332</ele>
        <time>2016-03-13T10:49:21.000Z</time>
      </trkpt>
      <trkpt lat="47.45272" lon="6.79069">
        <ele>332</ele>
        <time>2016-03-13T10:49:22.000Z</time>
      </trkpt>
      <trkpt lat="47.45274" lon="6.79063">
        <ele>331</ele>
        <time>2016-03-13T10:49:23.000Z</time>
      </trkpt>
      <trkpt lat="47.45275" lon="6.79056">
        <ele>331</ele>
        <time>2016-03-13T10:49:24.000Z</time>
      </trkpt>
      <trkpt lat="47.45277" lon="6.79049">
        <ele>331</ele>
        <time>2016-03-13T10:49:25.000Z</time>
      </trkpt>
      <trkpt lat="47.4528" lon="6.79042">
        <ele>331</ele>
        <time>2016-03-13T10:49:26.000Z</time>
      </trkpt>
      <trkpt lat="47.45283" lon="6.79037">
        <ele>331</ele>
        <time>2016-03-13T10:49:27.000Z</time>
      </trkpt>
      <trkpt lat="47.45286" lon="6.79031">
        <ele>331</ele>
        <time>2016-03-13T10:49:28.000Z</time>
      </trkpt>
      <trkpt lat="47.4529" lon="6.79024">
        <ele>331</ele>
        <time>2016-03-13T10:49:29.000Z</time>
      </trkpt>
      <trkpt lat="47.45294" lon="6.79018">
        <ele>331</ele>
        <time>2016-03-13T10:49:30.000Z</time>
      </trkpt>
      <trkpt lat="47.45297" lon="6.79011">
        <ele>331</ele>
        <time>2016-03-13T10:49:31.000Z</time>
      </trkpt>
      <trkpt lat="47.45301" lon="6.79006">
        <ele>331</ele>
        <time>2016-03-13T10:49:32.000Z</time>
      </trkpt>
      <trkpt lat="47.45304" lon="6.79">
        <ele>331</ele>
        <time>2016-03-13T10:49:33.000Z</time>
      </trkpt>
      <trkpt lat="47.45308" lon="6.78995">
        <ele>331</ele>
        <time>2016-03-13T10:49:34.000Z</time>
      </trkpt>
      <trkpt lat="47.45311" lon="6.7899">
        <ele>331</ele>
        <time>2016-03-13T10:49:35.000Z</time>
      </trkpt>
      <trkpt lat="47.45313" lon="6.78984">
        <ele>331</ele>
        <time>2016-03-13T10:49:36.000Z</time>
      </trkpt>
      <trkpt lat="47.45316" lon="6.78979">
        <ele>331</ele>
        <time>2016-03-13T10:49:37.000Z</time>
      </trkpt>
      <trkpt lat="47.45318" lon="6.78975">
        <ele>331</ele>
        <time>2016-03-13T10:49:38.000Z</time>
      </trkpt>
      <trkpt lat="47.45321" lon="6.78972">
        <ele>331</ele>
        <time>2016-03-13T10:49:39.000Z</time>
      </trkpt>
      <trkpt lat="47.45324" lon="6.78969">
        <ele>331</ele>
        <time>2016-03-13T10:49:40.000Z</time>
      </trkpt>
      <trkpt lat="47.45326" lon="6.78966">
        <ele>331</ele>
        <time>2016-03-13T10:49:41.000Z</time>
      </trkpt>
      <trkpt lat="47.4533" lon="6.78962">
        <ele>331</ele>
        <time>2016-03-13T10:49:42.000Z</time>
      </trkpt>
      <trkpt lat="47.45333" lon="6.7896">
        <ele>331</ele>
        <time>2016-03-13T10:49:43.000Z</time>
      </trkpt>
      <trkpt lat="47.45337" lon="6.78959">
        <ele>331</ele>
        <time>2016-03-13T10:49:44.000Z</time>
      </trkpt>
      <trkpt lat="47.4534" lon="6.78956">
        <ele>331</ele>
        <time>2016-03-13T10:49:45.000Z</time>
      </trkpt>
      <trkpt lat="47.45343" lon="6.78954">
        <ele>331</ele>
        <time>2016-03-13T10:49:46.000Z</time>
      </trkpt>
      <trkpt lat="47.45345" lon="6.78951">
        <ele>331</ele>
        <time>2016-03-13T10:49:47.000Z</time>
      </trkpt>
      <trkpt lat="47.45348" lon="6.78948">
        <ele>331</ele>
        <time>2016-03-13T10:49:48.000Z</time>
      </trkpt>
      <trkpt lat="47.4535" lon="6.78944">
        <ele>331</ele>
        <time>2016-03-13T10:49:49.000Z</time>
      </trkpt>
      <trkpt lat="47.45352" lon="6.7894">
        <ele>331</ele>
        <time>2016-03-13T10:49:50.000Z</time>
      </trkpt>
      <trkpt lat="47.45354" lon="6.78935">
        <ele>331</ele>
        <time>2016-03-13T10:49:51.000Z</time>
      </trkpt>
      <trkpt lat="47.45357" lon="6.78931">
        <ele>331</ele>
        <time>2016-03-13T10:49:52.000Z</time>
      </trkpt>
      <trkpt lat="47.45359" lon="6.78926">
        <ele>331</ele>
        <time>2016-03-13T10:49:53.000Z</time>
      </trkpt>
      <trkpt lat="47.45361" lon="6.78921">
        <ele>331</ele>
        <time>2016-03-13T10:49:54.000Z</time>
      </trkpt>
      <trkpt lat="47.45364" lon="6.78917">
        <ele>331</ele>
        <time>2016-03-13T10:49:55.000Z</time>
      </trkpt>
      <trkpt lat="47.45367" lon="6.78913">
        <ele>332</ele>
        <time>2016-03-13T10:49:56.000Z</time>
      </trkpt>
      <trkpt lat="47.4537" lon="6.78909">
        <ele>332</ele>
        <time>2016-03-13T10:49:57.000Z</time>
      </trkpt>
      <trkpt lat="47.45373" lon="6.78905">
        <ele>332</ele>
        <time>2016-03-13T10:49:58.000Z</time>
      </trkpt>
      <trkpt lat="47.45376" lon="6.78902">
        <ele>332</ele>
        <time>2016-03-13T10:49:59.000Z</time>
      </trkpt>
      <trkpt lat="47.4538" lon="6.78898">
        <ele>332</ele>
        <time>2016-03-13T10:50:00.000Z</time>
      </trkpt>
      <trkpt lat="47.45383" lon="6.78895">
        <ele>332</ele>
        <time>2016-03-13T10:50:01.000Z</time>
      </trkpt>
      <trkpt lat="47.45385" lon="6.78891">
        <ele>332</ele>
        <time>2016-03-13T10:50:02.000Z</time>
      </trkpt>
      <trkpt lat="47.45388" lon="6.78887">
        <ele>332</ele>
        <time>2016-03-13T10:50:03.000Z</time>
      </trkpt>
      <trkpt lat="47.4539" lon="6.78883">
        <ele>332</ele>
        <time>2016-03-13T10:50:04.000Z</time>
      </trkpt>
      <trkpt lat="47.45392" lon="6.7888">
        <ele>332</ele>
        <time>2016-03-13T10:50:05.000Z</time>
      </trkpt>
      <trkpt lat="47.45394" lon="6.78876">
        <ele>332</ele>
        <time>2016-03-13T10:50:06.000Z</time>
      </trkpt>
      <trkpt lat="47.45397" lon="6.78873">
        <ele>332</ele>
        <time>2016-03-13T10:50:07.000Z</time>
      </trkpt>
      <trkpt lat="47.45399" lon="6.7887">
        <ele>332</ele>
        <time>2016-03-13T10:50:08.000Z</time>
      </trkpt>
      <trkpt lat="47.45402" lon="6.78867">
        <ele>332</ele>
        <time>2016-03-13T10:50:09.000Z</time>
      </trkpt>
      <trkpt lat="47.45404" lon="6.78864">
        <ele>332</ele>
        <time>2016-03-13T10:50:10.000Z</time>
      </trkpt>
      <trkpt lat="47.45407" lon="6.78862">
        <ele>332</ele>
        <time>2016-03-13T10:50:11.000Z</time>
      </trkpt>
      <trkpt lat="47.4541" lon="6.78859">
        <ele>332</ele>
        <time>2016-03-13T10:50:12.000Z</time>
      </trkpt>
      <trkpt lat="47.45413" lon="6.78856">
        <ele>332</ele>
        <time>2016-03-13T10:50:13.000Z</time>
      </trkpt>
      <trkpt lat="47.45415" lon="6.78853">
        <ele>332</ele>
        <time>2016-03-13T10:50:14.000Z</time>
      </trkpt>
      <trkpt lat="47.45418" lon="6.78849">
        <ele>332</ele>
        <time>2016-03-13T10:50:15.000Z</time>
      </trkpt>
      <trkpt lat="47.4542" lon="6.78846">
        <ele>332</ele>
        <time>2016-03-13T10:50:16.000Z</time>
      </trkpt>
      <trkpt lat="47.45423" lon="6.78843">
        <ele>332</ele>
        <time>2016-03-13T10:50:17.000Z</time>
      </trkpt>
      <trkpt lat="47.45426" lon="6.7884">
        <ele>332</ele>
        <time>2016-03-13T10:50:18.000Z</time>
      </trkpt>
      <trkpt lat="47.45428" lon="6.78837">
        <ele>332</ele>
        <time>2016-03-13T10:50:19.000Z</time>
      </trkpt>
      <trkpt lat="47.45431" lon="6.78835">
        <ele>332</ele>
        <time>2016-03-13T10:50:20.000Z</time>
      </trkpt>
      <trkpt lat="47.45433" lon="6.78832">
        <ele>333</ele>
        <time>2016-03-13T10:50:21.000Z</time>
      </trkpt>
      <trkpt lat="47.45436" lon="6.7883">
        <ele>333</ele>
        <time>2016-03-13T10:50:22.000Z</time>
      </trkpt>
      <trkpt lat="47.45438" lon="6.78827">
        <ele>333</ele>
        <time>2016-03-13T10:50:23.000Z</time>
      </trkpt>
      <trkpt lat="47.45441" lon="6.78824">
        <ele>333</ele>
        <time>2016-03-13T10:50:24.000Z</time>
      </trkpt>
      <trkpt lat="47.45443" lon="6.7882">
        <ele>333</ele>
        <time>2016-03-13T10:50:25.000Z</time>
      </trkpt>
      <trkpt lat="47.45445" lon="6.78817">
        <ele>333</ele>
        <time>2016-03-13T10:50:26.000Z</time>
      </trkpt>
      <trkpt lat="47.45448" lon="6.78814">
        <ele>333</ele>
        <time>2016-03-13T10:50:27.000Z</time>
      </trkpt>
      <trkpt lat="47.45451" lon="6.78811">
        <ele>333</ele>
        <time>2016-03-13T10:50:28.000Z</time>
      </trkpt>
      <trkpt lat="47.45454" lon="6.78808">
        <ele>333</ele>
        <time>2016-03-13T10:50:29.000Z</time>
      </trkpt>
      <trkpt lat="47.45456" lon="6.78805">
        <ele>333</ele>
        <time>2016-03-13T10:50:30.000Z</time>
      </trkpt>
      <trkpt lat="47.45459" lon="6.78801">
        <ele>333</ele>
        <time>2016-03-13T10:50:31.000Z</time>
      </trkpt>
      <trkpt lat="47.45461" lon="6.78797">
        <ele>333</ele>
        <time>2016-03-13T10:50:32.000Z</time>
      </trkpt>
      <trkpt lat="47.45464" lon="6.78794">
        <ele>333</ele>
        <time>2016-03-13T10:50:33.000Z</time>
      </trkpt>
      <trkpt lat="47.45467" lon="6.78791">
        <ele>333</ele>
        <time>2016-03-13T10:50:34.000Z</time>
      </trkpt>
      <trkpt lat="47.4547" lon="6.78788">
        <ele>333</ele>
        <time>2016-03-13T10:50:35.000Z</time>
      </trkpt>
      <trkpt lat="47.45473" lon="6.78786">
        <ele>333</ele>
        <time>2016-03-13T10:50:36.000Z</time>
      </trkpt>
      <trkpt lat="47.45476" lon="6.78783">
        <ele>334</ele>
        <time>2016-03-13T10:50:37.000Z</time>
      </trkpt>
      <trkpt lat="47.45478" lon="6.7878">
        <ele>334</ele>
        <time>2016-03-13T10:50:38.000Z</time>
      </trkpt>
      <trkpt lat="47.45481" lon="6.78777">
        <ele>334</ele>
        <time>2016-03-13T10:50:39.000Z</time>
      </trkpt>
      <trkpt lat="47.45483" lon="6.78774">
        <ele>334</ele>
        <time>2016-03-13T10:50:40.000Z</time>
      </trkpt>
      <trkpt lat="47.45485" lon="6.78772">
        <ele>334</ele>
        <time>2016-03-13T10:50:41.000Z</time>
      </trkpt>
      <trkpt lat="47.45487" lon="6.78769">
        <ele>334</ele>
        <time>2016-03-13T10:50:42.000Z</time>
      </trkpt>
      <trkpt lat="47.45488" lon="6.78766">
        <ele>334</ele>
        <time>2016-03-13T10:50:43.000Z</time>
      </trkpt>
      <trkpt lat="47.45489" lon="6.78763">
        <ele>334</ele>
        <time>2016-03-13T10:50:44.000Z</time>
      </trkpt>
      <trkpt lat="47.4549" lon="6.7876">
        <ele>334</ele>
        <time>2016-03-13T10:50:45.000Z</time>
      </trkpt>
      <trkpt lat="47.45489" lon="6.78755">
        <ele>334</ele>
        <time>2016-03-13T10:50:46.000Z</time>
      </trkpt>
      <trkpt lat="47.45488" lon="6.78751">
        <ele>334</ele>
        <time>2016-03-13T10:50:47.000Z</time>
      </trkpt>
      <trkpt lat="47.45487" lon="6.78747">
        <ele>335</ele>
        <time>2016-03-13T10:50:48.000Z</time>
      </trkpt>
      <trkpt lat="47.45485" lon="6.78744">
        <ele>335</ele>
        <time>2016-03-13T10:50:49.000Z</time>
      </trkpt>
      <trkpt lat="47.45484" lon="6.78741">
        <ele>335</ele>
        <time>2016-03-13T10:50:50.000Z</time>
      </trkpt>
      <trkpt lat="47.45482" lon="6.78736">
        <ele>335</ele>
        <time>2016-03-13T10:50:53.000Z</time>
      </trkpt>
      <trkpt lat="47.45481" lon="6.78736">
        <ele>335</ele>
        <time>2016-03-13T10:50:54.000Z</time>
      </trkpt>
      <trkpt lat="47.45479" lon="6.78741">
        <ele>335</ele>
        <time>2016-03-13T10:50:57.000Z</time>
      </trkpt>
      <trkpt lat="47.4548" lon="6.78744">
        <ele>335</ele>
        <time>2016-03-13T10:50:58.000Z</time>
      </trkpt>
      <trkpt lat="47.45482" lon="6.78748">
        <ele>335</ele>
        <time>2016-03-13T10:51:00.000Z</time>
      </trkpt>
      <trkpt lat="47.45483" lon="6.7875">
        <ele>335</ele>
        <time>2016-03-13T10:51:01.000Z</time>
      </trkpt>
      <trkpt lat="47.45485" lon="6.78754">
        <ele>334</ele>
        <time>2016-03-13T10:51:06.000Z</time>
      </trkpt>
      <trkpt lat="47.45485" lon="6.78755">
        <ele>334</ele>
        <time>2016-03-13T10:51:07.000Z</time>
      </trkpt>
      <trkpt lat="47.45488" lon="6.78751">
        <ele>334</ele>
        <time>2016-03-13T10:51:16.000Z</time>
      </trkpt>
      <trkpt lat="47.45487" lon="6.78749">
        <ele>335</ele>
        <time>2016-03-13T10:51:17.000Z</time>
      </trkpt>
      <trkpt lat="47.45486" lon="6.78745">
        <ele>335</ele>
        <time>2016-03-13T10:51:18.000Z</time>
      </trkpt>
      <trkpt lat="47.45485" lon="6.78742">
        <ele>335</ele>
        <time>2016-03-13T10:51:19.000Z</time>
      </trkpt>
      <trkpt lat="47.45483" lon="6.78739">
        <ele>335</ele>
        <time>2016-03-13T10:51:20.000Z</time>
      </trkpt>
      <trkpt lat="47.45482" lon="6.78735">
        <ele>335</ele>
        <time>2016-03-13T10:51:21.000Z</time>
      </trkpt>
      <trkpt lat="47.4548" lon="6.78731">
        <ele>335</ele>
        <time>2016-03-13T10:51:22.000Z</time>
      </trkpt>
      <trkpt lat="47.45478" lon="6.78727">
        <ele>335</ele>
        <time>2016-03-13T10:51:23.000Z</time>
      </trkpt>
      <trkpt lat="47.45476" lon="6.78723">
        <ele>335</ele>
        <time>2016-03-13T10:51:24.000Z</time>
      </trkpt>
      <trkpt lat="47.45474" lon="6.78719">
        <ele>335</ele>
        <time>2016-03-13T10:51:25.000Z</time>
      </trkpt>
      <trkpt lat="47.45472" lon="6.78716">
        <ele>335</ele>
        <time>2016-03-13T10:51:26.000Z</time>
      </trkpt>
      <trkpt lat="47.45469" lon="6.78711">
        <ele>335</ele>
        <time>2016-03-13T10:51:27.000Z</time>
      </trkpt>
      <trkpt lat="47.45466" lon="6.78707">
        <ele>335</ele>
        <time>2016-03-13T10:51:28.000Z</time>
      </trkpt>
      <trkpt lat="47.45464" lon="6.78704">
        <ele>335</ele>
        <time>2016-03-13T10:51:29.000Z</time>
      </trkpt>
      <trkpt lat="47.4546" lon="6.787">
        <ele>335</ele>
        <time>2016-03-13T10:51:30.000Z</time>
      </trkpt>
      <trkpt lat="47.45458" lon="6.78696">
        <ele>335</ele>
        <time>2016-03-13T10:51:31.000Z</time>
      </trkpt>
      <trkpt lat="47.45456" lon="6.78692">
        <ele>335</ele>
        <time>2016-03-13T10:51:32.000Z</time>
      </trkpt>
      <trkpt lat="47.45454" lon="6.78688">
        <ele>335</ele>
        <time>2016-03-13T10:51:33.000Z</time>
      </trkpt>
      <trkpt lat="47.45452" lon="6.78684">
        <ele>335</ele>
        <time>2016-03-13T10:51:34.000Z</time>
      </trkpt>
      <trkpt lat="47.4545" lon="6.7868">
        <ele>335</ele>
        <time>2016-03-13T10:51:35.000Z</time>
      </trkpt>
      <trkpt lat="47.45448" lon="6.78676">
        <ele>335</ele>
        <time>2016-03-13T10:51:36.000Z</time>
      </trkpt>
      <trkpt lat="47.45446" lon="6.78672">
        <ele>335</ele>
        <time>2016-03-13T10:51:37.000Z</time>
      </trkpt>
      <trkpt lat="47.45444" lon="6.78668">
        <ele>335</ele>
        <time>2016-03-13T10:51:38.000Z</time>
      </trkpt>
      <trkpt lat="47.45442" lon="6.78664">
        <ele>337</ele>
        <time>2016-03-13T10:51:39.000Z</time>
      </trkpt>
      <trkpt lat="47.4544" lon="6.7866">
        <ele>337</ele>
        <time>2016-03-13T10:51:40.000Z</time>
      </trkpt>
      <trkpt lat="47.45437" lon="6.78656">
        <ele>337</ele>
        <time>2016-03-13T10:51:41.000Z</time>
      </trkpt>
      <trkpt lat="47.45435" lon="6.78652">
        <ele>337</ele>
        <time>2016-03-13T10:51:42.000Z</time>
      </trkpt>
      <trkpt lat="47.45432" lon="6.78646">
        <ele>337</ele>
        <time>2016-03-13T10:51:43.000Z</time>
      </trkpt>
      <trkpt lat="47.45429" lon="6.7864">
        <ele>337</ele>
        <time>2016-03-13T10:51:44.001Z</time>
      </trkpt>
      <trkpt lat="47.45426" lon="6.78637">
        <ele>338</ele>
        <time>2016-03-13T10:51:45.000Z</time>
      </trkpt>
      <trkpt lat="47.45424" lon="6.78633">
        <ele>338</ele>
        <time>2016-03-13T10:51:46.000Z</time>
      </trkpt>
      <trkpt lat="47.45421" lon="6.78629">
        <ele>338</ele>
        <time>2016-03-13T10:51:47.000Z</time>
      </trkpt>
      <trkpt lat="47.45419" lon="6.78624">
        <ele>338</ele>
        <time>2016-03-13T10:51:48.000Z</time>
      </trkpt>
      <trkpt lat="47.45417" lon="6.7862">
        <ele>338</ele>
        <time>2016-03-13T10:51:49.000Z</time>
      </trkpt>
      <trkpt lat="47.45416" lon="6.78615">
        <ele>336</ele>
        <time>2016-03-13T10:51:50.000Z</time>
      </trkpt>
      <trkpt lat="47.45413" lon="6.78612">
        <ele>336</ele>
        <time>2016-03-13T10:51:51.000Z</time>
      </trkpt>
      <trkpt lat="47.45411" lon="6.78607">
        <ele>337</ele>
        <time>2016-03-13T10:51:52.000Z</time>
      </trkpt>
      <trkpt lat="47.45409" lon="6.78603">
        <ele>337</ele>
        <time>2016-03-13T10:51:53.000Z</time>
      </trkpt>
      <trkpt lat="47.45406" lon="6.78599">
        <ele>337</ele>
        <time>2016-03-13T10:51:54.000Z</time>
      </trkpt>
      <trkpt lat="47.45404" lon="6.78595">
        <ele>337</ele>
        <time>2016-03-13T10:51:55.000Z</time>
      </trkpt>
      <trkpt lat="47.45402" lon="6.7859">
        <ele>337</ele>
        <time>2016-03-13T10:51:56.000Z</time>
      </trkpt>
      <trkpt lat="47.454" lon="6.78586">
        <ele>337</ele>
        <time>2016-03-13T10:51:57.000Z</time>
      </trkpt>
      <trkpt lat="47.45399" lon="6.78582">
        <ele>339</ele>
        <time>2016-03-13T10:51:58.000Z</time>
      </trkpt>
      <trkpt lat="47.45397" lon="6.78579">
        <ele>339</ele>
        <time>2016-03-13T10:51:59.000Z</time>
      </trkpt>
      <trkpt lat="47.45395" lon="6.78575">
        <ele>339</ele>
        <time>2016-03-13T10:52:00.000Z</time>
      </trkpt>
      <trkpt lat="47.45393" lon="6.78572">
        <ele>339</ele>
        <time>2016-03-13T10:52:01.000Z</time>
      </trkpt>
      <trkpt lat="47.45391" lon="6.78567">
        <ele>339</ele>
        <time>2016-03-13T10:52:02.000Z</time>
      </trkpt>
      <trkpt lat="47.45389" lon="6.78563">
        <ele>339</ele>
        <time>2016-03-13T10:52:03.000Z</time>
      </trkpt>
      <trkpt lat="47.45387" lon="6.78559">
        <ele>339</ele>
        <time>2016-03-13T10:52:04.000Z</time>
      </trkpt>
      <trkpt lat="47.45385" lon="6.78554">
        <ele>339</ele>
        <time>2016-03-13T10:52:04.999Z</time>
      </trkpt>
      <trkpt lat="47.45383" lon="6.78551">
        <ele>339</ele>
        <time>2016-03-13T10:52:06.000Z</time>
      </trkpt>
      <trkpt lat="47.45381" lon="6.78547">
        <ele>339</ele>
        <time>2016-03-13T10:52:07.000Z</time>
      </trkpt>
      <trkpt lat="47.4538" lon="6.78543">
        <ele>339</ele>
        <time>2016-03-13T10:52:07.999Z</time>
      </trkpt>
      <trkpt lat="47.45378" lon="6.7854">
        <ele>339</ele>
        <time>2016-03-13T10:52:09.000Z</time>
      </trkpt>
      <trkpt lat="47.45377" lon="6.78536">
        <ele>339</ele>
        <time>2016-03-13T10:52:10.000Z</time>
      </trkpt>
      <trkpt lat="47.45376" lon="6.78533">
        <ele>339</ele>
        <time>2016-03-13T10:52:11.000Z</time>
      </trkpt>
      <trkpt lat="47.45376" lon="6.78529">
        <ele>339</ele>
        <time>2016-03-13T10:52:12.000Z</time>
      </trkpt>
      <trkpt lat="47.45376" lon="6.78523">
        <ele>339</ele>
        <time>2016-03-13T10:52:14.000Z</time>
      </trkpt>
      <trkpt lat="47.45375" lon="6.7852">
        <ele>339</ele>
        <time>2016-03-13T10:52:15.000Z</time>
      </trkpt>
      <trkpt lat="47.45376" lon="6.78516">
        <ele>339</ele>
        <time>2016-03-13T10:52:17.000Z</time>
      </trkpt>
      <trkpt lat="47.45375" lon="6.78513">
        <ele>339</ele>
        <time>2016-03-13T10:52:18.001Z</time>
      </trkpt>
      <trkpt lat="47.45376" lon="6.78508">
        <ele>339</ele>
        <time>2016-03-13T10:52:20.000Z</time>
      </trkpt>
      <trkpt lat="47.45376" lon="6.78506">
        <ele>339</ele>
        <time>2016-03-13T10:52:21.000Z</time>
      </trkpt>
      <trkpt lat="47.45379" lon="6.78502">
        <ele>340</ele>
        <time>2016-03-13T10:55:21.000Z</time>
      </trkpt>
      <trkpt lat="47.4538" lon="6.78501">
        <ele>340</ele>
        <time>2016-03-13T10:55:22.000Z</time>
      </trkpt>
      <trkpt lat="47.4538" lon="6.78496">
        <ele>342</ele>
        <time>2016-03-13T10:56:07.000Z</time>
      </trkpt>
      <trkpt lat="47.4538" lon="6.78495">
        <ele>342</ele>
        <time>2016-03-13T10:56:08.000Z</time>
      </trkpt>
      <trkpt lat="47.4538" lon="6.78491">
        <ele>342</ele>
        <time>2016-03-13T10:56:10.000Z</time>
      </trkpt>
      <trkpt lat="47.45382" lon="6.78486">
        <ele>342</ele>
        <time>2016-03-13T10:56:11.000Z</time>
      </trkpt>
      <trkpt lat="47.45384" lon="6.78484">
        <ele>342</ele>
        <time>2016-03-13T10:56:12.000Z</time>
      </trkpt>
      <trkpt lat="47.45386" lon="6.78481">
        <ele>342</ele>
        <time>2016-03-13T10:56:13.000Z</time>
      </trkpt>
      <trkpt lat="47.4539" lon="6.78483">
        <ele>343</ele>
        <time>2016-03-13T10:56:14.000Z</time>
      </trkpt>
      <trkpt lat="47.45394" lon="6.78486">
        <ele>343</ele>
        <time>2016-03-13T10:56:15.000Z</time>
      </trkpt>
      <trkpt lat="47.45398" lon="6.78489">
        <ele>343</ele>
        <time>2016-03-13T10:56:16.000Z</time>
      </trkpt>
      <trkpt lat="47.45401" lon="6.78493">
        <ele>343</ele>
        <time>2016-03-13T10:56:17.000Z</time>
      </trkpt>
      <trkpt lat="47.45404" lon="6.78496">
        <ele>343</ele>
        <time>2016-03-13T10:56:18.000Z</time>
      </trkpt>
      <trkpt lat="47.45407" lon="6.78498">
        <ele>343</ele>
        <time>2016-03-13T10:56:19.000Z</time>
      </trkpt>
      <trkpt lat="47.45409" lon="6.78501">
        <ele>343</ele>
        <time>2016-03-13T10:56:20.000Z</time>
      </trkpt>
      <trkpt lat="47.45411" lon="6.78502">
        <ele>343</ele>
        <time>2016-03-13T10:56:21.000Z</time>
      </trkpt>
      <trkpt lat="47.45414" lon="6.78504">
        <ele>343</ele>
        <time>2016-03-13T10:56:22.000Z</time>
      </trkpt>
      <trkpt lat="47.45416" lon="6.78505">
        <ele>343</ele>
        <time>2016-03-13T10:56:23.000Z</time>
      </trkpt>
      <trkpt lat="47.45419" lon="6.78506">
        <ele>344</ele>
        <time>2016-03-13T10:56:24.000Z</time>
      </trkpt>
      <trkpt lat="47.45422" lon="6.78507">
        <ele>344</ele>
        <time>2016-03-13T10:56:25.000Z</time>
      </trkpt>
      <trkpt lat="47.45425" lon="6.78508">
        <ele>344</ele>
        <time>2016-03-13T10:56:26.000Z</time>
      </trkpt>
      <trkpt lat="47.45428" lon="6.78509">
        <ele>344</ele>
        <time>2016-03-13T10:56:27.000Z</time>
      </trkpt>
      <trkpt lat="47.45432" lon="6.7851">
        <ele>344</ele>
        <time>2016-03-13T10:56:28.000Z</time>
      </trkpt>
      <trkpt lat="47.45435" lon="6.78511">
        <ele>344</ele>
        <time>2016-03-13T10:56:29.000Z</time>
      </trkpt>
      <trkpt lat="47.45439" lon="6.78512">
        <ele>344</ele>
        <time>2016-03-13T10:56:30.000Z</time>
      </trkpt>
      <trkpt lat="47.45442" lon="6.78512">
        <ele>344</ele>
        <time>2016-03-13T10:56:31.000Z</time>
      </trkpt>
      <trkpt lat="47.45445" lon="6.78513">
        <ele>344</ele>
        <time>2016-03-13T10:56:31.999Z</time>
      </trkpt>
      <trkpt lat="47.45448" lon="6.78511">
        <ele>344</ele>
        <time>2016-03-13T10:56:33.000Z</time>
      </trkpt>
      <trkpt lat="47.45451" lon="6.78511">
        <ele>344</ele>
        <time>2016-03-13T10:56:34.001Z</time>
      </trkpt>
      <trkpt lat="47.45454" lon="6.78509">
        <ele>344</ele>
        <time>2016-03-13T10:56:35.000Z</time>
      </trkpt>
      <trkpt lat="47.45457" lon="6.78508">
        <ele>344</ele>
        <time>2016-03-13T10:56:36.001Z</time>
      </trkpt>
      <trkpt lat="47.4546" lon="6.78507">
        <ele>344</ele>
        <time>2016-03-13T10:56:37.000Z</time>
      </trkpt>
      <trkpt lat="47.45463" lon="6.78505">
        <ele>345</ele>
        <time>2016-03-13T10:56:38.000Z</time>
      </trkpt>
      <trkpt lat="47.45467" lon="6.78503">
        <ele>345</ele>
        <time>2016-03-13T10:56:40.000Z</time>
      </trkpt>
      <trkpt lat="47.45468" lon="6.78501">
        <ele>345</ele>
        <time>2016-03-13T10:56:41.000Z</time>
      </trkpt>
      <trkpt lat="47.45472" lon="6.78499">
        <ele>348</ele>
        <time>2016-03-13T10:56:43.000Z</time>
      </trkpt>
      <trkpt lat="47.45473" lon="6.78498">
        <ele>348</ele>
        <time>2016-03-13T10:56:44.000Z</time>
      </trkpt>
      <trkpt lat="47.45476" lon="6.78495">
        <ele>348</ele>
        <time>2016-03-13T10:56:46.000Z</time>
      </trkpt>
      <trkpt lat="47.45478" lon="6.78493">
        <ele>348</ele>
        <time>2016-03-13T10:56:47.000Z</time>
      </trkpt>
      <trkpt lat="47.45482" lon="6.7849">
        <ele>348</ele>
        <time>2016-03-13T10:56:49.000Z</time>
      </trkpt>
      <trkpt lat="47.45484" lon="6.78489">
        <ele>348</ele>
        <time>2016-03-13T10:56:50.000Z</time>
      </trkpt>
      <trkpt lat="47.45486" lon="6.78488">
        <ele>348</ele>
        <time>2016-03-13T10:56:51.000Z</time>
      </trkpt>
      <trkpt lat="47.45488" lon="6.78486">
        <ele>348</ele>
        <time>2016-03-13T10:56:52.000Z</time>
      </trkpt>
      <trkpt lat="47.45491" lon="6.78485">
        <ele>348</ele>
        <time>2016-03-13T10:56:53.000Z</time>
      </trkpt>
      <trkpt lat="47.45493" lon="6.78484">
        <ele>348</ele>
        <time>2016-03-13T10:56:54.000Z</time>
      </trkpt>
      <trkpt lat="47.45497" lon="6.78482">
        <ele>348</ele>
        <time>2016-03-13T10:56:56.000Z</time>
      </trkpt>
      <trkpt lat="47.45499" lon="6.78481">
        <ele>348</ele>
        <time>2016-03-13T10:56:57.000Z</time>
      </trkpt>
      <trkpt lat="47.45503" lon="6.78479">
        <ele>350</ele>
        <time>2016-03-13T10:56:59.000Z</time>
      </trkpt>
      <trkpt lat="47.45505" lon="6.78477">
        <ele>350</ele>
        <time>2016-03-13T10:57:00.000Z</time>
      </trkpt>
      <trkpt lat="47.45507" lon="6.78476">
        <ele>350</ele>
        <time>2016-03-13T10:57:01.000Z</time>
      </trkpt>
      <trkpt lat="47.4551" lon="6.78474">
        <ele>350</ele>
        <time>2016-03-13T10:57:02.000Z</time>
      </trkpt>
      <trkpt lat="47.45512" lon="6.78473">
        <ele>350</ele>
        <time>2016-03-13T10:57:03.000Z</time>
      </trkpt>
      <trkpt lat="47.45514" lon="6.78472">
        <ele>350</ele>
        <time>2016-03-13T10:57:04.000Z</time>
      </trkpt>
      <trkpt lat="47.45517" lon="6.78471">
        <ele>350</ele>
        <time>2016-03-13T10:57:05.000Z</time>
      </trkpt>
      <trkpt lat="47.45519" lon="6.7847">
        <ele>350</ele>
        <time>2016-03-13T10:57:06.000Z</time>
      </trkpt>
      <trkpt lat="47.45521" lon="6.78469">
        <ele>350</ele>
        <time>2016-03-13T10:57:07.000Z</time>
      </trkpt>
      <trkpt lat="47.45524" lon="6.78468">
        <ele>351</ele>
        <time>2016-03-13T10:57:08.000Z</time>
      </trkpt>
      <trkpt lat="47.45526" lon="6.78466">
        <ele>351</ele>
        <time>2016-03-13T10:57:09.000Z</time>
      </trkpt>
      <trkpt lat="47.45529" lon="6.78465">
        <ele>351</ele>
        <time>2016-03-13T10:57:10.000Z</time>
      </trkpt>
      <trkpt lat="47.45531" lon="6.78464">
        <ele>351</ele>
        <time>2016-03-13T10:57:11.000Z</time>
      </trkpt>
      <trkpt lat="47.45534" lon="6.78462">
        <ele>351</ele>
        <time>2016-03-13T10:57:12.000Z</time>
      </trkpt>
      <trkpt lat="47.45536" lon="6.7846">
        <ele>351</ele>
        <time>2016-03-13T10:57:13.000Z</time>
      </trkpt>
      <trkpt lat="47.45539" lon="6.78459">
        <ele>351</ele>
        <time>2016-03-13T10:57:14.000Z</time>
      </trkpt>
      <trkpt lat="47.45541" lon="6.78458">
        <ele>351</ele>
        <time>2016-03-13T10:57:15.000Z</time>
      </trkpt>
      <trkpt lat="47.45543" lon="6.78456">
        <ele>351</ele>
        <time>2016-03-13T10:57:16.000Z</time>
      </trkpt>
      <trkpt lat="47.45546" lon="6.78455">
        <ele>351</ele>
        <time>2016-03-13T10:57:17.000Z</time>
      </trkpt>
      <trkpt lat="47.45548" lon="6.78453">
        <ele>351</ele>
        <time>2016-03-13T10:57:18.000Z</time>
      </trkpt>
      <trkpt lat="47.45551" lon="6.78452">
        <ele>351</ele>
        <time>2016-03-13T10:57:19.000Z</time>
      </trkpt>
      <trkpt lat="47.45553" lon="6.78451">
        <ele>351</ele>
        <time>2016-03-13T10:57:20.000Z</time>
      </trkpt>
      <trkpt lat="47.45556" lon="6.78449">
        <ele>351</ele>
        <time>2016-03-13T10:57:21.000Z</time>
      </trkpt>
      <trkpt lat="47.45559" lon="6.78448">
        <ele>351</ele>
        <time>2016-03-13T10:57:22.000Z</time>
      </trkpt>
      <trkpt lat="47.45562" lon="6.78447">
        <ele>352</ele>
        <time>2016-03-13T10:57:23.000Z</time>
      </trkpt>
      <trkpt lat="47.45564" lon="6.78445">
        <ele>352</ele>
        <time>2016-03-13T10:57:24.000Z</time>
      </trkpt>
      <trkpt lat="47.45567" lon="6.78443">
        <ele>352</ele>
        <time>2016-03-13T10:57:25.000Z</time>
      </trkpt>
      <trkpt lat="47.4557" lon="6.78441">
        <ele>352</ele>
        <time>2016-03-13T10:57:26.000Z</time>
      </trkpt>
      <trkpt lat="47.45572" lon="6.7844">
        <ele>352</ele>
        <time>2016-03-13T10:57:27.000Z</time>
      </trkpt>
      <trkpt lat="47.45575" lon="6.78438">
        <ele>352</ele>
        <time>2016-03-13T10:57:28.000Z</time>
      </trkpt>
      <trkpt lat="47.45578" lon="6.78437">
        <ele>352</ele>
        <time>2016-03-13T10:57:29.000Z</time>
      </trkpt>
      <trkpt lat="47.4558" lon="6.78435">
        <ele>352</ele>
        <time>2016-03-13T10:57:30.000Z</time>
      </trkpt>
      <trkpt lat="47.45583" lon="6.78433">
        <ele>353</ele>
        <time>2016-03-13T10:57:31.000Z</time>
      </trkpt>
      <trkpt lat="47.45585" lon="6.78432">
        <ele>353</ele>
        <time>2016-03-13T10:57:32.000Z</time>
      </trkpt>
      <trkpt lat="47.45588" lon="6.78431">
        <ele>354</ele>
        <time>2016-03-13T10:57:33.000Z</time>
      </trkpt>
      <trkpt lat="47.45591" lon="6.78429">
        <ele>354</ele>
        <time>2016-03-13T10:57:34.000Z</time>
      </trkpt>
      <trkpt lat="47.45594" lon="6.78428">
        <ele>354</ele>
        <time>2016-03-13T10:57:35.000Z</time>
      </trkpt>
      <trkpt lat="47.45597" lon="6.78427">
        <ele>354</ele>
        <time>2016-03-13T10:57:36.000Z</time>
      </trkpt>
      <trkpt lat="47.45599" lon="6.78425">
        <ele>354</ele>
        <time>2016-03-13T10:57:37.000Z</time>
      </trkpt>
      <trkpt lat="47.45602" lon="6.78423">
        <ele>354</ele>
        <time>2016-03-13T10:57:38.000Z</time>
      </trkpt>
      <trkpt lat="47.45605" lon="6.78422">
        <ele>354</ele>
        <time>2016-03-13T10:57:39.000Z</time>
      </trkpt>
      <trkpt lat="47.45607" lon="6.7842">
        <ele>354</ele>
        <time>2016-03-13T10:57:40.000Z</time>
      </trkpt>
      <trkpt lat="47.4561" lon="6.78419">
        <ele>354</ele>
        <time>2016-03-13T10:57:41.000Z</time>
      </trkpt>
      <trkpt lat="47.45612" lon="6.78417">
        <ele>354</ele>
        <time>2016-03-13T10:57:42.000Z</time>
      </trkpt>
      <trkpt lat="47.45615" lon="6.78416">
        <ele>355</ele>
        <time>2016-03-13T10:57:43.000Z</time>
      </trkpt>
      <trkpt lat="47.45617" lon="6.78414">
        <ele>355</ele>
        <time>2016-03-13T10:57:44.000Z</time>
      </trkpt>
      <trkpt lat="47.4562" lon="6.78413">
        <ele>355</ele>
        <time>2016-03-13T10:57:45.000Z</time>
      </trkpt>
      <trkpt lat="47.45622" lon="6.78411">
        <ele>355</ele>
        <time>2016-03-13T10:57:46.000Z</time>
      </trkpt>
      <trkpt lat="47.45625" lon="6.7841">
        <ele>355</ele>
        <time>2016-03-13T10:57:47.000Z</time>
      </trkpt>
      <trkpt lat="47.45627" lon="6.78408">
        <ele>355</ele>
        <time>2016-03-13T10:57:48.000Z</time>
      </trkpt>
      <trkpt lat="47.4563" lon="6.78407">
        <ele>355</ele>
        <time>2016-03-13T10:57:49.000Z</time>
      </trkpt>
      <trkpt lat="47.45633" lon="6.78405">
        <ele>355</ele>
        <time>2016-03-13T10:57:50.000Z</time>
      </trkpt>
      <trkpt lat="47.45636" lon="6.78404">
        <ele>355</ele>
        <time>2016-03-13T10:57:51.000Z</time>
      </trkpt>
      <trkpt lat="47.45638" lon="6.78403">
        <ele>355</ele>
        <time>2016-03-13T10:57:52.000Z</time>
      </trkpt>
      <trkpt lat="47.45641" lon="6.78402">
        <ele>355</ele>
        <time>2016-03-13T10:57:53.000Z</time>
      </trkpt>
      <trkpt lat="47.45644" lon="6.78401">
        <ele>355</ele>
        <time>2016-03-13T10:57:54.000Z</time>
      </trkpt>
      <trkpt lat="47.45647" lon="6.78399">
        <ele>356</ele>
        <time>2016-03-13T10:57:55.000Z</time>
      </trkpt>
      <trkpt lat="47.45649" lon="6.78399">
        <ele>356</ele>
        <time>2016-03-13T10:57:56.000Z</time>
      </trkpt>
      <trkpt lat="47.45652" lon="6.78398">
        <ele>356</ele>
        <time>2016-03-13T10:57:57.000Z</time>
      </trkpt>
      <trkpt lat="47.45655" lon="6.78397">
        <ele>356</ele>
        <time>2016-03-13T10:57:58.000Z</time>
      </trkpt>
      <trkpt lat="47.45657" lon="6.78397">
        <ele>356</ele>
        <time>2016-03-13T10:57:59.000Z</time>
      </trkpt>
      <trkpt lat="47.4566" lon="6.78396">
        <ele>356</ele>
        <time>2016-03-13T10:58:00.000Z</time>
      </trkpt>
      <trkpt lat="47.45662" lon="6.78395">
        <ele>356</ele>
        <time>2016-03-13T10:58:01.000Z</time>
      </trkpt>
      <trkpt lat="47.45665" lon="6.78395">
        <ele>356</ele>
        <time>2016-03-13T10:58:02.000Z</time>
      </trkpt>
      <trkpt lat="47.45668" lon="6.78394">
        <ele>358</ele>
        <time>2016-03-13T10:58:03.000Z</time>
      </trkpt>
      <trkpt lat="47.45671" lon="6.78393">
        <ele>358</ele>
        <time>2016-03-13T10:58:04.000Z</time>
      </trkpt>
      <trkpt lat="47.45674" lon="6.78392">
        <ele>358</ele>
        <time>2016-03-13T10:58:05.000Z</time>
      </trkpt>
      <trkpt lat="47.45677" lon="6.78392">
        <ele>358</ele>
        <time>2016-03-13T10:58:06.000Z</time>
      </trkpt>
      <trkpt lat="47.45679" lon="6.78391">
        <ele>358</ele>
        <time>2016-03-13T10:58:07.000Z</time>
      </trkpt>
      <trkpt lat="47.45682" lon="6.78391">
        <ele>358</ele>
        <time>2016-03-13T10:58:08.000Z</time>
      </trkpt>
      <trkpt lat="47.45685" lon="6.7839">
        <ele>358</ele>
        <time>2016-03-13T10:58:09.000Z</time>
      </trkpt>
      <trkpt lat="47.45688" lon="6.7839">
        <ele>358</ele>
        <time>2016-03-13T10:58:10.000Z</time>
      </trkpt>
      <trkpt lat="47.4569" lon="6.78389">
        <ele>358</ele>
        <time>2016-03-13T10:58:11.000Z</time>
      </trkpt>
      <trkpt lat="47.45693" lon="6.78389">
        <ele>358</ele>
        <time>2016-03-13T10:58:12.000Z</time>
      </trkpt>
      <trkpt lat="47.45696" lon="6.78389">
        <ele>358</ele>
        <time>2016-03-13T10:58:13.000Z</time>
      </trkpt>
      <trkpt lat="47.45698" lon="6.78389">
        <ele>359</ele>
        <time>2016-03-13T10:58:14.000Z</time>
      </trkpt>
      <trkpt lat="47.45701" lon="6.7839">
        <ele>359</ele>
        <time>2016-03-13T10:58:15.000Z</time>
      </trkpt>
      <trkpt lat="47.45703" lon="6.7839">
        <ele>359</ele>
        <time>2016-03-13T10:58:16.000Z</time>
      </trkpt>
      <trkpt lat="47.45706" lon="6.7839">
        <ele>359</ele>
        <time>2016-03-13T10:58:17.000Z</time>
      </trkpt>
      <trkpt lat="47.45708" lon="6.7839">
        <ele>359</ele>
        <time>2016-03-13T10:58:18.000Z</time>
      </trkpt>
      <trkpt lat="47.45711" lon="6.7839">
        <ele>359</ele>
        <time>2016-03-13T10:58:19.000Z</time>
      </trkpt>
      <trkpt lat="47.45713" lon="6.7839">
        <ele>359</ele>
        <time>2016-03-13T10:58:20.000Z</time>
      </trkpt>
      <trkpt lat="47.45716" lon="6.7839">
        <ele>359</ele>
        <time>2016-03-13T10:58:21.000Z</time>
      </trkpt>
      <trkpt lat="47.45718" lon="6.7839">
        <ele>359</ele>
        <time>2016-03-13T10:58:22.000Z</time>
      </trkpt>
      <trkpt lat="47.45721" lon="6.7839">
        <ele>359</ele>
        <time>2016-03-13T10:58:23.000Z</time>
      </trkpt>
      <trkpt lat="47.45723" lon="6.7839">
        <ele>359</ele>
        <time>2016-03-13T10:58:24.000Z</time>
      </trkpt>
      <trkpt lat="47.45726" lon="6.78391">
        <ele>359</ele>
        <time>2016-03-13T10:58:25.000Z</time>
      </trkpt>
      <trkpt lat="47.45728" lon="6.78391">
        <ele>359</ele>
        <time>2016-03-13T10:58:26.000Z</time>
      </trkpt>
      <trkpt lat="47.45731" lon="6.78391">
        <ele>359</ele>
        <time>2016-03-13T10:58:27.000Z</time>
      </trkpt>
      <trkpt lat="47.45733" lon="6.78392">
        <ele>359</ele>
        <time>2016-03-13T10:58:28.000Z</time>
      </trkpt>
      <trkpt lat="47.45736" lon="6.78392">
        <ele>360</ele>
        <time>2016-03-13T10:58:29.000Z</time>
      </trkpt>
      <trkpt lat="47.45738" lon="6.78393">
        <ele>360</ele>
        <time>2016-03-13T10:58:30.000Z</time>
      </trkpt>
      <trkpt lat="47.45741" lon="6.78393">
        <ele>360</ele>
        <time>2016-03-13T10:58:31.000Z</time>
      </trkpt>
      <trkpt lat="47.45743" lon="6.78394">
        <ele>360</ele>
        <time>2016-03-13T10:58:32.000Z</time>
      </trkpt>
      <trkpt lat="47.45746" lon="6.78394">
        <ele>360</ele>
        <time>2016-03-13T10:58:33.000Z</time>
      </trkpt>
      <trkpt lat="47.45749" lon="6.78395">
        <ele>360</ele>
        <time>2016-03-13T10:58:34.000Z</time>
      </trkpt>
      <trkpt lat="47.45751" lon="6.78395">
        <ele>364</ele>
        <time>2016-03-13T10:58:35.000Z</time>
      </trkpt>
      <trkpt lat="47.45754" lon="6.78396">
        <ele>364</ele>
        <time>2016-03-13T10:58:36.000Z</time>
      </trkpt>
      <trkpt lat="47.45756" lon="6.78396">
        <ele>364</ele>
        <time>2016-03-13T10:58:37.000Z</time>
      </trkpt>
      <trkpt lat="47.45758" lon="6.78397">
        <ele>364</ele>
        <time>2016-03-13T10:58:38.000Z</time>
      </trkpt>
      <trkpt lat="47.45761" lon="6.78398">
        <ele>364</ele>
        <time>2016-03-13T10:58:39.000Z</time>
      </trkpt>
      <trkpt lat="47.45763" lon="6.78398">
        <ele>364</ele>
        <time>2016-03-13T10:58:40.000Z</time>
      </trkpt>
      <trkpt lat="47.45766" lon="6.78399">
        <ele>364</ele>
        <time>2016-03-13T10:58:41.000Z</time>
      </trkpt>
      <trkpt lat="47.45768" lon="6.784">
        <ele>365</ele>
        <time>2016-03-13T10:58:42.000Z</time>
      </trkpt>
      <trkpt lat="47.4577" lon="6.78402">
        <ele>365</ele>
        <time>2016-03-13T10:58:43.000Z</time>
      </trkpt>
      <trkpt lat="47.45772" lon="6.78403">
        <ele>365</ele>
        <time>2016-03-13T10:58:44.000Z</time>
      </trkpt>
      <trkpt lat="47.45775" lon="6.78405">
        <ele>365</ele>
        <time>2016-03-13T10:58:45.000Z</time>
      </trkpt>
      <trkpt lat="47.45777" lon="6.78406">
        <ele>365</ele>
        <time>2016-03-13T10:58:46.000Z</time>
      </trkpt>
      <trkpt lat="47.45781" lon="6.78409">
        <ele>366</ele>
        <time>2016-03-13T10:58:48.000Z</time>
      </trkpt>
      <trkpt lat="47.45783" lon="6.7841">
        <ele>366</ele>
        <time>2016-03-13T10:58:49.000Z</time>
      </trkpt>
      <trkpt lat="47.45786" lon="6.78412">
        <ele>366</ele>
        <time>2016-03-13T10:58:51.000Z</time>
      </trkpt>
      <trkpt lat="47.45788" lon="6.78413">
        <ele>366</ele>
        <time>2016-03-13T10:58:52.000Z</time>
      </trkpt>
      <trkpt lat="47.45792" lon="6.78416">
        <ele>367</ele>
        <time>2016-03-13T10:58:54.000Z</time>
      </trkpt>
      <trkpt lat="47.45794" lon="6.78418">
        <ele>365</ele>
        <time>2016-03-13T10:58:55.000Z</time>
      </trkpt>
      <trkpt lat="47.45797" lon="6.78422">
        <ele>365</ele>
        <time>2016-03-13T10:58:57.000Z</time>
      </trkpt>
      <trkpt lat="47.45798" lon="6.78423">
        <ele>365</ele>
        <time>2016-03-13T10:58:58.000Z</time>
      </trkpt>
      <trkpt lat="47.45802" lon="6.78427">
        <ele>366</ele>
        <time>2016-03-13T10:59:00.000Z</time>
      </trkpt>
      <trkpt lat="47.45803" lon="6.78429">
        <ele>366</ele>
        <time>2016-03-13T10:59:01.000Z</time>
      </trkpt>
      <trkpt lat="47.45807" lon="6.78432">
        <ele>366</ele>
        <time>2016-03-13T10:59:03.000Z</time>
      </trkpt>
      <trkpt lat="47.45808" lon="6.78434">
        <ele>366</ele>
        <time>2016-03-13T10:59:04.000Z</time>
      </trkpt>
      <trkpt lat="47.45812" lon="6.78437">
        <ele>366</ele>
        <time>2016-03-13T10:59:06.000Z</time>
      </trkpt>
      <trkpt lat="47.45813" lon="6.78438">
        <ele>366</ele>
        <time>2016-03-13T10:59:07.000Z</time>
      </trkpt>
      <trkpt lat="47.45816" lon="6.78441">
        <ele>366</ele>
        <time>2016-03-13T10:59:09.000Z</time>
      </trkpt>
      <trkpt lat="47.45818" lon="6.78442">
        <ele>366</ele>
        <time>2016-03-13T10:59:10.000Z</time>
      </trkpt>
      <trkpt lat="47.45822" lon="6.78445">
        <ele>366</ele>
        <time>2016-03-13T10:59:13.000Z</time>
      </trkpt>
      <trkpt lat="47.45823" lon="6.78447">
        <ele>366</ele>
        <time>2016-03-13T10:59:14.000Z</time>
      </trkpt>
      <trkpt lat="47.45825" lon="6.7845">
        <ele>366</ele>
        <time>2016-03-13T10:59:16.000Z</time>
      </trkpt>
      <trkpt lat="47.45827" lon="6.78451">
        <ele>366</ele>
        <time>2016-03-13T10:59:17.000Z</time>
      </trkpt>
      <trkpt lat="47.4583" lon="6.78454">
        <ele>366</ele>
        <time>2016-03-13T10:59:19.000Z</time>
      </trkpt>
      <trkpt lat="47.45831" lon="6.78455">
        <ele>366</ele>
        <time>2016-03-13T10:59:20.000Z</time>
      </trkpt>
      <trkpt lat="47.45834" lon="6.78459">
        <ele>374</ele>
        <time>2016-03-13T10:59:22.000Z</time>
      </trkpt>
      <trkpt lat="47.45836" lon="6.7846">
        <ele>374</ele>
        <time>2016-03-13T10:59:23.000Z</time>
      </trkpt>
      <trkpt lat="47.45839" lon="6.78463">
        <ele>374</ele>
        <time>2016-03-13T10:59:25.000Z</time>
      </trkpt>
      <trkpt lat="47.4584" lon="6.78464">
        <ele>374</ele>
        <time>2016-03-13T10:59:26.000Z</time>
      </trkpt>
      <trkpt lat="47.45843" lon="6.78467">
        <ele>374</ele>
        <time>2016-03-13T10:59:28.000Z</time>
      </trkpt>
      <trkpt lat="47.45844" lon="6.78469">
        <ele>374</ele>
        <time>2016-03-13T10:59:29.000Z</time>
      </trkpt>
      <trkpt lat="47.45847" lon="6.78473">
        <ele>374</ele>
        <time>2016-03-13T10:59:33.000Z</time>
      </trkpt>
      <trkpt lat="47.45848" lon="6.78474">
        <ele>374</ele>
        <time>2016-03-13T10:59:34.000Z</time>
      </trkpt>
      <trkpt lat="47.45851" lon="6.78477">
        <ele>374</ele>
        <time>2016-03-13T10:59:36.000Z</time>
      </trkpt>
      <trkpt lat="47.45852" lon="6.78478">
        <ele>374</ele>
        <time>2016-03-13T10:59:37.000Z</time>
      </trkpt>
      <trkpt lat="47.45855" lon="6.7848">
        <ele>374</ele>
        <time>2016-03-13T10:59:39.000Z</time>
      </trkpt>
      <trkpt lat="47.45857" lon="6.78482">
        <ele>374</ele>
        <time>2016-03-13T10:59:40.000Z</time>
      </trkpt>
      <trkpt lat="47.4586" lon="6.78485">
        <ele>375</ele>
        <time>2016-03-13T10:59:42.000Z</time>
      </trkpt>
      <trkpt lat="47.45861" lon="6.78486">
        <ele>375</ele>
        <time>2016-03-13T10:59:43.000Z</time>
      </trkpt>
      <trkpt lat="47.45864" lon="6.78489">
        <ele>375</ele>
        <time>2016-03-13T10:59:46.000Z</time>
      </trkpt>
      <trkpt lat="47.45865" lon="6.7849">
        <ele>375</ele>
        <time>2016-03-13T10:59:47.000Z</time>
      </trkpt>
      <trkpt lat="47.45868" lon="6.78492">
        <ele>375</ele>
        <time>2016-03-13T10:59:49.000Z</time>
      </trkpt>
      <trkpt lat="47.45869" lon="6.78494">
        <ele>376</ele>
        <time>2016-03-13T10:59:50.000Z</time>
      </trkpt>
      <trkpt lat="47.45872" lon="6.78496">
        <ele>376</ele>
        <time>2016-03-13T10:59:52.000Z</time>
      </trkpt>
      <trkpt lat="47.45873" lon="6.78498">
        <ele>376</ele>
        <time>2016-03-13T10:59:53.000Z</time>
      </trkpt>
      <trkpt lat="47.45876" lon="6.78501">
        <ele>375</ele>
        <time>2016-03-13T10:59:55.000Z</time>
      </trkpt>
      <trkpt lat="47.45877" lon="6.78503">
        <ele>375</ele>
        <time>2016-03-13T10:59:56.000Z</time>
      </trkpt>
      <trkpt lat="47.4588" lon="6.78506">
        <ele>375</ele>
        <time>2016-03-13T10:59:58.000Z</time>
      </trkpt>
      <trkpt lat="47.45881" lon="6.78507">
        <ele>375</ele>
        <time>2016-03-13T10:59:59.000Z</time>
      </trkpt>
      <trkpt lat="47.45883" lon="6.7851">
        <ele>375</ele>
        <time>2016-03-13T11:00:01.000Z</time>
      </trkpt>
      <trkpt lat="47.45885" lon="6.78511">
        <ele>376</ele>
        <time>2016-03-13T11:00:02.000Z</time>
      </trkpt>
      <trkpt lat="47.45887" lon="6.78515">
        <ele>376</ele>
        <time>2016-03-13T11:00:04.000Z</time>
      </trkpt>
      <trkpt lat="47.45888" lon="6.78516">
        <ele>376</ele>
        <time>2016-03-13T11:00:05.000Z</time>
      </trkpt>
      <trkpt lat="47.4589" lon="6.78519">
        <ele>376</ele>
        <time>2016-03-13T11:00:07.000Z</time>
      </trkpt>
      <trkpt lat="47.45892" lon="6.78521">
        <ele>376</ele>
        <time>2016-03-13T11:00:08.000Z</time>
      </trkpt>
      <trkpt lat="47.45894" lon="6.78524">
        <ele>376</ele>
        <time>2016-03-13T11:00:10.000Z</time>
      </trkpt>
      <trkpt lat="47.45895" lon="6.78526">
        <ele>376</ele>
        <time>2016-03-13T11:00:11.000Z</time>
      </trkpt>
      <trkpt lat="47.45897" lon="6.78528">
        <ele>376</ele>
        <time>2016-03-13T11:00:13.000Z</time>
      </trkpt>
      <trkpt lat="47.45899" lon="6.7853">
        <ele>376</ele>
        <time>2016-03-13T11:00:14.000Z</time>
      </trkpt>
      <trkpt lat="47.45901" lon="6.78532">
        <ele>376</ele>
        <time>2016-03-13T11:00:16.000Z</time>
      </trkpt>
      <trkpt lat="47.45902" lon="6.78533">
        <ele>376</ele>
        <time>2016-03-13T11:00:17.000Z</time>
      </trkpt>
      <trkpt lat="47.45906" lon="6.78537">
        <ele>376</ele>
        <time>2016-03-13T11:00:20.000Z</time>
      </trkpt>
      <trkpt lat="47.45907" lon="6.78538">
        <ele>376</ele>
        <time>2016-03-13T11:00:21.000Z</time>
      </trkpt>
      <trkpt lat="47.4591" lon="6.7854">
        <ele>376</ele>
        <time>2016-03-13T11:00:23.000Z</time>
      </trkpt>
      <trkpt lat="47.45912" lon="6.78541">
        <ele>377</ele>
        <time>2016-03-13T11:00:24.000Z</time>
      </trkpt>
      <trkpt lat="47.45915" lon="6.78543">
        <ele>377</ele>
        <time>2016-03-13T11:00:26.000Z</time>
      </trkpt>
      <trkpt lat="47.45917" lon="6.78543">
        <ele>386</ele>
        <time>2016-03-13T11:00:27.000Z</time>
      </trkpt>
      <trkpt lat="47.45919" lon="6.78543">
        <ele>386</ele>
        <time>2016-03-13T11:00:28.000Z</time>
      </trkpt>
      <trkpt lat="47.45922" lon="6.78542">
        <ele>386</ele>
        <time>2016-03-13T11:00:29.000Z</time>
      </trkpt>
      <trkpt lat="47.45924" lon="6.78542">
        <ele>386</ele>
        <time>2016-03-13T11:00:30.000Z</time>
      </trkpt>
      <trkpt lat="47.45927" lon="6.78542">
        <ele>386</ele>
        <time>2016-03-13T11:00:31.000Z</time>
      </trkpt>
      <trkpt lat="47.4593" lon="6.78541">
        <ele>387</ele>
        <time>2016-03-13T11:00:32.000Z</time>
      </trkpt>
      <trkpt lat="47.45932" lon="6.78541">
        <ele>387</ele>
        <time>2016-03-13T11:00:33.000Z</time>
      </trkpt>
      <trkpt lat="47.45935" lon="6.78539">
        <ele>387</ele>
        <time>2016-03-13T11:00:34.000Z</time>
      </trkpt>
      <trkpt lat="47.45937" lon="6.78538">
        <ele>387</ele>
        <time>2016-03-13T11:00:35.000Z</time>
      </trkpt>
      <trkpt lat="47.4594" lon="6.78534">
        <ele>388</ele>
        <time>2016-03-13T11:00:37.000Z</time>
      </trkpt>
      <trkpt lat="47.45941" lon="6.78531">
        <ele>388</ele>
        <time>2016-03-13T11:00:38.000Z</time>
      </trkpt>
      <trkpt lat="47.45943" lon="6.78526">
        <ele>388</ele>
        <time>2016-03-13T11:00:40.000Z</time>
      </trkpt>
      <trkpt lat="47.45945" lon="6.78523">
        <ele>388</ele>
        <time>2016-03-13T11:00:41.000Z</time>
      </trkpt>
      <trkpt lat="47.45945" lon="6.78518">
        <ele>388</ele>
        <time>2016-03-13T11:00:43.000Z</time>
      </trkpt>
      <trkpt lat="47.45945" lon="6.78515">
        <ele>388</ele>
        <time>2016-03-13T11:00:44.000Z</time>
      </trkpt>
      <trkpt lat="47.45944" lon="6.78509">
        <ele>388</ele>
        <time>2016-03-13T11:00:46.000Z</time>
      </trkpt>
      <trkpt lat="47.45944" lon="6.78504">
        <ele>388</ele>
        <time>2016-03-13T11:00:47.000Z</time>
      </trkpt>
      <trkpt lat="47.45943" lon="6.785">
        <ele>387</ele>
        <time>2016-03-13T11:00:48.000Z</time>
      </trkpt>
      <trkpt lat="47.45943" lon="6.78496">
        <ele>389</ele>
        <time>2016-03-13T11:00:49.000Z</time>
      </trkpt>
      <trkpt lat="47.45942" lon="6.78491">
        <ele>389</ele>
        <time>2016-03-13T11:00:51.000Z</time>
      </trkpt>
      <trkpt lat="47.45942" lon="6.78489">
        <ele>390</ele>
        <time>2016-03-13T11:00:52.000Z</time>
      </trkpt>
      <trkpt lat="47.45941" lon="6.78482">
        <ele>390</ele>
        <time>2016-03-13T11:00:56.000Z</time>
      </trkpt>
      <trkpt lat="47.45941" lon="6.78481">
        <ele>390</ele>
        <time>2016-03-13T11:00:57.000Z</time>
      </trkpt>
      <trkpt lat="47.45941" lon="6.78476">
        <ele>390</ele>
        <time>2016-03-13T11:01:00.000Z</time>
      </trkpt>
      <trkpt lat="47.45942" lon="6.78474">
        <ele>390</ele>
        <time>2016-03-13T11:01:01.000Z</time>
      </trkpt>
      <trkpt lat="47.45944" lon="6.78469">
        <ele>391</ele>
        <time>2016-03-13T11:01:04.000Z</time>
      </trkpt>
      <trkpt lat="47.45945" lon="6.78468">
        <ele>391</ele>
        <time>2016-03-13T11:01:05.000Z</time>
      </trkpt>
      <trkpt lat="47.45948" lon="6.78465">
        <ele>392</ele>
        <time>2016-03-13T11:01:08.000Z</time>
      </trkpt>
      <trkpt lat="47.45949" lon="6.78464">
        <ele>392</ele>
        <time>2016-03-13T11:01:09.000Z</time>
      </trkpt>
      <trkpt lat="47.45952" lon="6.78461">
        <ele>392</ele>
        <time>2016-03-13T11:01:11.000Z</time>
      </trkpt>
      <trkpt lat="47.45954" lon="6.78461">
        <ele>392</ele>
        <time>2016-03-13T11:01:12.000Z</time>
      </trkpt>
      <trkpt lat="47.45957" lon="6.78459">
        <ele>393</ele>
        <time>2016-03-13T11:01:14.000Z</time>
      </trkpt>
      <trkpt lat="47.45959" lon="6.78457">
        <ele>393</ele>
        <time>2016-03-13T11:01:15.000Z</time>
      </trkpt>
      <trkpt lat="47.45962" lon="6.78455">
        <ele>393</ele>
        <time>2016-03-13T11:01:17.000Z</time>
      </trkpt>
      <trkpt lat="47.45964" lon="6.78454">
        <ele>393</ele>
        <time>2016-03-13T11:01:18.000Z</time>
      </trkpt>
      <trkpt lat="47.45967" lon="6.78451">
        <ele>394</ele>
        <time>2016-03-13T11:01:21.000Z</time>
      </trkpt>
      <trkpt lat="47.45969" lon="6.78451">
        <ele>394</ele>
        <time>2016-03-13T11:01:22.000Z</time>
      </trkpt>
      <trkpt lat="47.45972" lon="6.78449">
        <ele>394</ele>
        <time>2016-03-13T11:01:25.000Z</time>
      </trkpt>
      <trkpt lat="47.45973" lon="6.78448">
        <ele>394</ele>
        <time>2016-03-13T11:01:26.000Z</time>
      </trkpt>
      <trkpt lat="47.45977" lon="6.78444">
        <ele>395</ele>
        <time>2016-03-13T11:01:29.000Z</time>
      </trkpt>
      <trkpt lat="47.45978" lon="6.78443">
        <ele>395</ele>
        <time>2016-03-13T11:01:30.000Z</time>
      </trkpt>
      <trkpt lat="47.4598" lon="6.78439">
        <ele>396</ele>
        <time>2016-03-13T11:01:33.000Z</time>
      </trkpt>
      <trkpt lat="47.45982" lon="6.78438">
        <ele>396</ele>
        <time>2016-03-13T11:01:34.000Z</time>
      </trkpt>
      <trkpt lat="47.45985" lon="6.78433">
        <ele>397</ele>
        <time>2016-03-13T11:01:37.000Z</time>
      </trkpt>
      <trkpt lat="47.45986" lon="6.78432">
        <ele>397</ele>
        <time>2016-03-13T11:01:38.000Z</time>
      </trkpt>
      <trkpt lat="47.45989" lon="6.7843">
        <ele>398</ele>
        <time>2016-03-13T11:01:40.000Z</time>
      </trkpt>
      <trkpt lat="47.45991" lon="6.78429">
        <ele>398</ele>
        <time>2016-03-13T11:01:41.000Z</time>
      </trkpt>
      <trkpt lat="47.45993" lon="6.78426">
        <ele>399</ele>
        <time>2016-03-13T11:01:43.000Z</time>
      </trkpt>
      <trkpt lat="47.45994" lon="6.78424">
        <ele>399</ele>
        <time>2016-03-13T11:01:44.000Z</time>
      </trkpt>
      <trkpt lat="47.45997" lon="6.7842">
        <ele>400</ele>
        <time>2016-03-13T11:01:46.000Z</time>
      </trkpt>
      <trkpt lat="47.45999" lon="6.78418">
        <ele>401</ele>
        <time>2016-03-13T11:01:47.000Z</time>
      </trkpt>
      <trkpt lat="47.46001" lon="6.78416">
        <ele>402</ele>
        <time>2016-03-13T11:01:48.000Z</time>
      </trkpt>
      <trkpt lat="47.46003" lon="6.78414">
        <ele>403</ele>
        <time>2016-03-13T11:01:49.000Z</time>
      </trkpt>
      <trkpt lat="47.46005" lon="6.78412">
        <ele>403</ele>
        <time>2016-03-13T11:01:50.000Z</time>
      </trkpt>
      <trkpt lat="47.46007" lon="6.78411">
        <ele>403</ele>
        <time>2016-03-13T11:01:51.000Z</time>
      </trkpt>
      <trkpt lat="47.4601" lon="6.78408">
        <ele>403</ele>
        <time>2016-03-13T11:01:53.000Z</time>
      </trkpt>
      <trkpt lat="47.46011" lon="6.78406">
        <ele>404</ele>
        <time>2016-03-13T11:01:54.000Z</time>
      </trkpt>
      <trkpt lat="47.46014" lon="6.78404">
        <ele>404</ele>
        <time>2016-03-13T11:01:56.000Z</time>
      </trkpt>
      <trkpt lat="47.46015" lon="6.78403">
        <ele>404</ele>
        <time>2016-03-13T11:01:57.000Z</time>
      </trkpt>
      <trkpt lat="47.46019" lon="6.78401">
        <ele>404</ele>
        <time>2016-03-13T11:01:59.000Z</time>
      </trkpt>
      <trkpt lat="47.4602" lon="6.78401">
        <ele>404</ele>
        <time>2016-03-13T11:02:00.000Z</time>
      </trkpt>
      <trkpt lat="47.46024" lon="6.784">
        <ele>405</ele>
        <time>2016-03-13T11:02:02.000Z</time>
      </trkpt>
      <trkpt lat="47.46027" lon="6.78399">
        <ele>405</ele>
        <time>2016-03-13T11:02:03.000Z</time>
      </trkpt>
      <trkpt lat="47.4603" lon="6.78398">
        <ele>405</ele>
        <time>2016-03-13T11:02:04.000Z</time>
      </trkpt>
      <trkpt lat="47.46033" lon="6.78397">
        <ele>405</ele>
        <time>2016-03-13T11:02:05.000Z</time>
      </trkpt>
      <trkpt lat="47.46035" lon="6.78397">
        <ele>405</ele>
        <time>2016-03-13T11:02:06.000Z</time>
      </trkpt>
      <trkpt lat="47.46037" lon="6.78396">
        <ele>405</ele>
        <time>2016-03-13T11:02:07.000Z</time>
      </trkpt>
      <trkpt lat="47.4604" lon="6.78394">
        <ele>406</ele>
        <time>2016-03-13T11:02:09.000Z</time>
      </trkpt>
      <trkpt lat="47.46042" lon="6.78392">
        <ele>406</ele>
        <time>2016-03-13T11:02:10.000Z</time>
      </trkpt>
      <trkpt lat="47.46046" lon="6.7839">
        <ele>406</ele>
        <time>2016-03-13T11:02:12.000Z</time>
      </trkpt>
      <trkpt lat="47.46048" lon="6.78389">
        <ele>406</ele>
        <time>2016-03-13T11:02:13.000Z</time>
      </trkpt>
      <trkpt lat="47.46051" lon="6.78388">
        <ele>406</ele>
        <time>2016-03-13T11:02:14.000Z</time>
      </trkpt>
      <trkpt lat="47.46053" lon="6.78387">
        <ele>406</ele>
        <time>2016-03-13T11:02:15.000Z</time>
      </trkpt>
      <trkpt lat="47.46056" lon="6.78385">
        <ele>406</ele>
        <time>2016-03-13T11:02:16.000Z</time>
      </trkpt>
      <trkpt lat="47.46059" lon="6.78384">
        <ele>407</ele>
        <time>2016-03-13T11:02:17.000Z</time>
      </trkpt>
      <trkpt lat="47.46062" lon="6.78382">
        <ele>407</ele>
        <time>2016-03-13T11:02:18.000Z</time>
      </trkpt>
      <trkpt lat="47.46065" lon="6.78381">
        <ele>407</ele>
        <time>2016-03-13T11:02:19.000Z</time>
      </trkpt>
      <trkpt lat="47.46068" lon="6.78379">
        <ele>407</ele>
        <time>2016-03-13T11:02:20.000Z</time>
      </trkpt>
      <trkpt lat="47.46071" lon="6.78378">
        <ele>407</ele>
        <time>2016-03-13T11:02:21.000Z</time>
      </trkpt>
      <trkpt lat="47.46073" lon="6.78376">
        <ele>407</ele>
        <time>2016-03-13T11:02:22.000Z</time>
      </trkpt>
      <trkpt lat="47.46075" lon="6.78374">
        <ele>407</ele>
        <time>2016-03-13T11:02:23.000Z</time>
      </trkpt>
      <trkpt lat="47.46079" lon="6.78371">
        <ele>407</ele>
        <time>2016-03-13T11:02:25.000Z</time>
      </trkpt>
      <trkpt lat="47.46081" lon="6.7837">
        <ele>407</ele>
        <time>2016-03-13T11:02:26.000Z</time>
      </trkpt>
      <trkpt lat="47.46084" lon="6.78369">
        <ele>409</ele>
        <time>2016-03-13T11:02:27.000Z</time>
      </trkpt>
      <trkpt lat="47.46087" lon="6.78368">
        <ele>409</ele>
        <time>2016-03-13T11:02:28.000Z</time>
      </trkpt>
      <trkpt lat="47.4609" lon="6.78369">
        <ele>409</ele>
        <time>2016-03-13T11:02:29.000Z</time>
      </trkpt>
      <trkpt lat="47.46093" lon="6.78369">
        <ele>410</ele>
        <time>2016-03-13T11:02:30.000Z</time>
      </trkpt>
      <trkpt lat="47.46096" lon="6.7837">
        <ele>410</ele>
        <time>2016-03-13T11:02:31.000Z</time>
      </trkpt>
      <trkpt lat="47.46099" lon="6.7837">
        <ele>410</ele>
        <time>2016-03-13T11:02:32.000Z</time>
      </trkpt>
      <trkpt lat="47.46102" lon="6.7837">
        <ele>410</ele>
        <time>2016-03-13T11:02:33.000Z</time>
      </trkpt>
      <trkpt lat="47.46104" lon="6.78369">
        <ele>410</ele>
        <time>2016-03-13T11:02:34.000Z</time>
      </trkpt>
      <trkpt lat="47.46107" lon="6.78369">
        <ele>410</ele>
        <time>2016-03-13T11:02:35.000Z</time>
      </trkpt>
      <trkpt lat="47.4611" lon="6.7837">
        <ele>410</ele>
        <time>2016-03-13T11:02:36.000Z</time>
      </trkpt>
      <trkpt lat="47.46112" lon="6.78371">
        <ele>410</ele>
        <time>2016-03-13T11:02:37.000Z</time>
      </trkpt>
      <trkpt lat="47.46115" lon="6.78372">
        <ele>410</ele>
        <time>2016-03-13T11:02:38.000Z</time>
      </trkpt>
      <trkpt lat="47.46118" lon="6.78371">
        <ele>410</ele>
        <time>2016-03-13T11:02:40.000Z</time>
      </trkpt>
      <trkpt lat="47.4612" lon="6.7837">
        <ele>410</ele>
        <time>2016-03-13T11:02:41.000Z</time>
      </trkpt>
      <trkpt lat="47.46124" lon="6.78366">
        <ele>410</ele>
        <time>2016-03-13T11:02:43.000Z</time>
      </trkpt>
      <trkpt lat="47.46126" lon="6.78364">
        <ele>410</ele>
        <time>2016-03-13T11:02:44.000Z</time>
      </trkpt>
      <trkpt lat="47.46128" lon="6.78363">
        <ele>410</ele>
        <time>2016-03-13T11:02:45.000Z</time>
      </trkpt>
      <trkpt lat="47.46132" lon="6.78362">
        <ele>409</ele>
        <time>2016-03-13T11:02:46.000Z</time>
      </trkpt>
      <trkpt lat="47.46135" lon="6.78361">
        <ele>409</ele>
        <time>2016-03-13T11:02:47.000Z</time>
      </trkpt>
      <trkpt lat="47.46139" lon="6.78361">
        <ele>409</ele>
        <time>2016-03-13T11:02:48.000Z</time>
      </trkpt>
      <trkpt lat="47.46143" lon="6.78361">
        <ele>409</ele>
        <time>2016-03-13T11:02:49.000Z</time>
      </trkpt>
      <trkpt lat="47.46147" lon="6.78361">
        <ele>409</ele>
        <time>2016-03-13T11:02:50.000Z</time>
      </trkpt>
      <trkpt lat="47.46151" lon="6.78362">
        <ele>409</ele>
        <time>2016-03-13T11:02:51.000Z</time>
      </trkpt>
      <trkpt lat="47.46156" lon="6.78363">
        <ele>409</ele>
        <time>2016-03-13T11:02:52.000Z</time>
      </trkpt>
      <trkpt lat="47.46161" lon="6.78365">
        <ele>409</ele>
        <time>2016-03-13T11:02:53.000Z</time>
      </trkpt>
      <trkpt lat="47.46167" lon="6.78367">
        <ele>410</ele>
        <time>2016-03-13T11:02:54.000Z</time>
      </trkpt>
      <trkpt lat="47.4618" lon="6.78369">
        <ele>407</ele>
        <time>2016-03-13T11:02:55.000Z</time>
      </trkpt>
      <trkpt lat="47.46187" lon="6.78368">
        <ele>407</ele>
        <time>2016-03-13T11:02:56.000Z</time>
      </trkpt>
      <trkpt lat="47.46193" lon="6.78367">
        <ele>407</ele>
        <time>2016-03-13T11:02:57.000Z</time>
      </trkpt>
      <trkpt lat="47.46199" lon="6.78364">
        <ele>407</ele>
        <time>2016-03-13T11:02:58.000Z</time>
      </trkpt>
      <trkpt lat="47.46206" lon="6.78364">
        <ele>406</ele>
        <time>2016-03-13T11:02:59.000Z</time>
      </trkpt>
      <trkpt lat="47.46214" lon="6.78366">
        <ele>406</ele>
        <time>2016-03-13T11:03:00.000Z</time>
      </trkpt>
      <trkpt lat="47.46222" lon="6.78366">
        <ele>406</ele>
        <time>2016-03-13T11:03:01.000Z</time>
      </trkpt>
      <trkpt lat="47.4623" lon="6.78368">
        <ele>405</ele>
        <time>2016-03-13T11:03:02.000Z</time>
      </trkpt>
      <trkpt lat="47.46239" lon="6.7837">
        <ele>405</ele>
        <time>2016-03-13T11:03:03.000Z</time>
      </trkpt>
      <trkpt lat="47.46249" lon="6.78371">
        <ele>405</ele>
        <time>2016-03-13T11:03:04.000Z</time>
      </trkpt>
      <trkpt lat="47.46258" lon="6.78369">
        <ele>401</ele>
        <time>2016-03-13T11:03:05.000Z</time>
      </trkpt>
      <trkpt lat="47.46268" lon="6.78368">
        <ele>400</ele>
        <time>2016-03-13T11:03:06.000Z</time>
      </trkpt>
      <trkpt lat="47.46277" lon="6.78368">
        <ele>400</ele>
        <time>2016-03-13T11:03:07.000Z</time>
      </trkpt>
      <trkpt lat="47.46286" lon="6.78366">
        <ele>400</ele>
        <time>2016-03-13T11:03:08.000Z</time>
      </trkpt>
      <trkpt lat="47.46295" lon="6.78365">
        <ele>399</ele>
        <time>2016-03-13T11:03:09.000Z</time>
      </trkpt>
      <trkpt lat="47.46303" lon="6.78364">
        <ele>399</ele>
        <time>2016-03-13T11:03:10.000Z</time>
      </trkpt>
      <trkpt lat="47.46314" lon="6.7835">
        <ele>398</ele>
        <time>2016-03-13T11:03:11.000Z</time>
      </trkpt>
      <trkpt lat="47.46323" lon="6.78341">
        <ele>396</ele>
        <time>2016-03-13T11:03:12.000Z</time>
      </trkpt>
      <trkpt lat="47.46333" lon="6.78335">
        <ele>393</ele>
        <time>2016-03-13T11:03:13.000Z</time>
      </trkpt>
      <trkpt lat="47.4634" lon="6.78328">
        <ele>391</ele>
        <time>2016-03-13T11:03:14.000Z</time>
      </trkpt>
      <trkpt lat="47.46349" lon="6.78327">
        <ele>390</ele>
        <time>2016-03-13T11:03:15.000Z</time>
      </trkpt>
      <trkpt lat="47.46357" lon="6.78329">
        <ele>390</ele>
        <time>2016-03-13T11:03:16.000Z</time>
      </trkpt>
      <trkpt lat="47.46367" lon="6.78332">
        <ele>389</ele>
        <time>2016-03-13T11:03:17.000Z</time>
      </trkpt>
      <trkpt lat="47.46375" lon="6.78334">
        <ele>394</ele>
        <time>2016-03-13T11:03:18.000Z</time>
      </trkpt>
      <trkpt lat="47.46382" lon="6.78331">
        <ele>388</ele>
        <time>2016-03-13T11:03:19.000Z</time>
      </trkpt>
      <trkpt lat="47.4639" lon="6.78331">
        <ele>388</ele>
        <time>2016-03-13T11:03:20.000Z</time>
      </trkpt>
      <trkpt lat="47.46397" lon="6.7833">
        <ele>388</ele>
        <time>2016-03-13T11:03:21.000Z</time>
      </trkpt>
      <trkpt lat="47.46405" lon="6.78329">
        <ele>388</ele>
        <time>2016-03-13T11:03:22.000Z</time>
      </trkpt>
      <trkpt lat="47.46413" lon="6.78329">
        <ele>388</ele>
        <time>2016-03-13T11:03:23.000Z</time>
      </trkpt>
      <trkpt lat="47.46419" lon="6.78334">
        <ele>388</ele>
        <time>2016-03-13T11:03:24.000Z</time>
      </trkpt>
      <trkpt lat="47.46426" lon="6.78337">
        <ele>390</ele>
        <time>2016-03-13T11:03:25.000Z</time>
      </trkpt>
      <trkpt lat="47.46431" lon="6.78335">
        <ele>390</ele>
        <time>2016-03-13T11:03:26.000Z</time>
      </trkpt>
      <trkpt lat="47.46436" lon="6.78337">
        <ele>391</ele>
        <time>2016-03-13T11:03:27.000Z</time>
      </trkpt>
      <trkpt lat="47.46442" lon="6.78338">
        <ele>391</ele>
        <time>2016-03-13T11:03:28.000Z</time>
      </trkpt>
      <trkpt lat="47.46448" lon="6.78338">
        <ele>391</ele>
        <time>2016-03-13T11:03:29.000Z</time>
      </trkpt>
      <trkpt lat="47.46455" lon="6.7834">
        <ele>391</ele>
        <time>2016-03-13T11:03:30.000Z</time>
      </trkpt>
      <trkpt lat="47.4646" lon="6.7834">
        <ele>391</ele>
        <time>2016-03-13T11:03:31.000Z</time>
      </trkpt>
      <trkpt lat="47.46466" lon="6.78339">
        <ele>391</ele>
        <time>2016-03-13T11:03:32.000Z</time>
      </trkpt>
      <trkpt lat="47.46474" lon="6.78321">
        <ele>384</ele>
        <time>2016-03-13T11:03:33.000Z</time>
      </trkpt>
      <trkpt lat="47.46478" lon="6.78304">
        <ele>384</ele>
        <time>2016-03-13T11:03:34.000Z</time>
      </trkpt>
      <trkpt lat="47.46482" lon="6.78286">
        <ele>382</ele>
        <time>2016-03-13T11:03:35.000Z</time>
      </trkpt>
      <trkpt lat="47.46484" lon="6.78283">
        <ele>382</ele>
        <time>2016-03-13T11:03:36.000Z</time>
      </trkpt>
      <trkpt lat="47.46486" lon="6.78279">
        <ele>382</ele>
        <time>2016-03-13T11:03:37.000Z</time>
      </trkpt>
      <trkpt lat="47.46489" lon="6.78279">
        <ele>382</ele>
        <time>2016-03-13T11:03:38.000Z</time>
      </trkpt>
      <trkpt lat="47.46496" lon="6.78279">
        <ele>381</ele>
        <time>2016-03-13T11:03:40.000Z</time>
      </trkpt>
      <trkpt lat="47.46499" lon="6.78278">
        <ele>381</ele>
        <time>2016-03-13T11:03:41.000Z</time>
      </trkpt>
      <trkpt lat="47.46502" lon="6.78278">
        <ele>379</ele>
        <time>2016-03-13T11:03:42.000Z</time>
      </trkpt>
      <trkpt lat="47.46506" lon="6.78278">
        <ele>379</ele>
        <time>2016-03-13T11:03:43.000Z</time>
      </trkpt>
      <trkpt lat="47.4651" lon="6.78278">
        <ele>378</ele>
        <time>2016-03-13T11:03:44.000Z</time>
      </trkpt>
      <trkpt lat="47.46516" lon="6.7828">
        <ele>378</ele>
        <time>2016-03-13T11:03:45.000Z</time>
      </trkpt>
      <trkpt lat="47.46521" lon="6.7828">
        <ele>378</ele>
        <time>2016-03-13T11:03:46.000Z</time>
      </trkpt>
      <trkpt lat="47.46526" lon="6.7828">
        <ele>378</ele>
        <time>2016-03-13T11:03:47.000Z</time>
      </trkpt>
      <trkpt lat="47.4653" lon="6.78281">
        <ele>378</ele>
        <time>2016-03-13T11:03:48.000Z</time>
      </trkpt>
      <trkpt lat="47.46535" lon="6.78282">
        <ele>378</ele>
        <time>2016-03-13T11:03:49.000Z</time>
      </trkpt>
      <trkpt lat="47.4654" lon="6.78284">
        <ele>378</ele>
        <time>2016-03-13T11:03:50.000Z</time>
      </trkpt>
      <trkpt lat="47.46546" lon="6.78286">
        <ele>378</ele>
        <time>2016-03-13T11:03:51.000Z</time>
      </trkpt>
      <trkpt lat="47.46551" lon="6.78286">
        <ele>377</ele>
        <time>2016-03-13T11:03:52.000Z</time>
      </trkpt>
      <trkpt lat="47.46557" lon="6.78287">
        <ele>377</ele>
        <time>2016-03-13T11:03:53.000Z</time>
      </trkpt>
      <trkpt lat="47.46564" lon="6.78287">
        <ele>377</ele>
        <time>2016-03-13T11:03:54.000Z</time>
      </trkpt>
      <trkpt lat="47.4657" lon="6.78288">
        <ele>377</ele>
        <time>2016-03-13T11:03:55.000Z</time>
      </trkpt>
      <trkpt lat="47.46576" lon="6.78289">
        <ele>377</ele>
        <time>2016-03-13T11:03:56.000Z</time>
      </trkpt>
      <trkpt lat="47.46582" lon="6.78289">
        <ele>377</ele>
        <time>2016-03-13T11:03:57.000Z</time>
      </trkpt>
      <trkpt lat="47.46588" lon="6.78289">
        <ele>372</ele>
        <time>2016-03-13T11:03:58.000Z</time>
      </trkpt>
      <trkpt lat="47.46597" lon="6.78289">
        <ele>372</ele>
        <time>2016-03-13T11:03:59.000Z</time>
      </trkpt>
      <trkpt lat="47.46605" lon="6.78293">
        <ele>372</ele>
        <time>2016-03-13T11:04:00.000Z</time>
      </trkpt>
      <trkpt lat="47.46612" lon="6.78294">
        <ele>372</ele>
        <time>2016-03-13T11:04:01.000Z</time>
      </trkpt>
      <trkpt lat="47.4662" lon="6.78288">
        <ele>371</ele>
        <time>2016-03-13T11:04:02.000Z</time>
      </trkpt>
      <trkpt lat="47.46624" lon="6.78281">
        <ele>371</ele>
        <time>2016-03-13T11:04:03.000Z</time>
      </trkpt>
      <trkpt lat="47.46627" lon="6.78272">
        <ele>370</ele>
        <time>2016-03-13T11:04:04.000Z</time>
      </trkpt>
      <trkpt lat="47.4663" lon="6.78261">
        <ele>369</ele>
        <time>2016-03-13T11:04:05.000Z</time>
      </trkpt>
      <trkpt lat="47.46634" lon="6.78241">
        <ele>365</ele>
        <time>2016-03-13T11:04:06.000Z</time>
      </trkpt>
      <trkpt lat="47.46636" lon="6.78228">
        <ele>365</ele>
        <time>2016-03-13T11:04:07.000Z</time>
      </trkpt>
      <trkpt lat="47.46638" lon="6.78217">
        <ele>365</ele>
        <time>2016-03-13T11:04:08.000Z</time>
      </trkpt>
      <trkpt lat="47.46639" lon="6.78207">
        <ele>364</ele>
        <time>2016-03-13T11:04:09.000Z</time>
      </trkpt>
      <trkpt lat="47.46641" lon="6.78198">
        <ele>364</ele>
        <time>2016-03-13T11:04:10.000Z</time>
      </trkpt>
      <trkpt lat="47.46643" lon="6.78188">
        <ele>364</ele>
        <time>2016-03-13T11:04:11.000Z</time>
      </trkpt>
      <trkpt lat="47.46646" lon="6.7818">
        <ele>363</ele>
        <time>2016-03-13T11:04:12.000Z</time>
      </trkpt>
      <trkpt lat="47.46649" lon="6.78172">
        <ele>362</ele>
        <time>2016-03-13T11:04:13.000Z</time>
      </trkpt>
      <trkpt lat="47.46654" lon="6.78165">
        <ele>363</ele>
        <time>2016-03-13T11:04:14.000Z</time>
      </trkpt>
      <trkpt lat="47.46659" lon="6.78158">
        <ele>363</ele>
        <time>2016-03-13T11:04:15.000Z</time>
      </trkpt>
      <trkpt lat="47.46664" lon="6.78149">
        <ele>364</ele>
        <time>2016-03-13T11:04:16.000Z</time>
      </trkpt>
      <trkpt lat="47.4667" lon="6.78142">
        <ele>359</ele>
        <time>2016-03-13T11:04:17.000Z</time>
      </trkpt>
      <trkpt lat="47.46676" lon="6.78134">
        <ele>360</ele>
        <time>2016-03-13T11:04:18.000Z</time>
      </trkpt>
      <trkpt lat="47.46681" lon="6.78125">
        <ele>360</ele>
        <time>2016-03-13T11:04:19.000Z</time>
      </trkpt>
      <trkpt lat="47.46684" lon="6.78115">
        <ele>360</ele>
        <time>2016-03-13T11:04:20.000Z</time>
      </trkpt>
      <trkpt lat="47.46687" lon="6.781">
        <ele>361</ele>
        <time>2016-03-13T11:04:21.000Z</time>
      </trkpt>
      <trkpt lat="47.46691" lon="6.78091">
        <ele>361</ele>
        <time>2016-03-13T11:04:22.000Z</time>
      </trkpt>
      <trkpt lat="47.46693" lon="6.78084">
        <ele>360</ele>
        <time>2016-03-13T11:04:23.000Z</time>
      </trkpt>
      <trkpt lat="47.46695" lon="6.7808">
        <ele>362</ele>
        <time>2016-03-13T11:04:24.000Z</time>
      </trkpt>
      <trkpt lat="47.46698" lon="6.78079">
        <ele>362</ele>
        <time>2016-03-13T11:04:25.000Z</time>
      </trkpt>
      <trkpt lat="47.467" lon="6.78079">
        <ele>362</ele>
        <time>2016-03-13T11:04:26.000Z</time>
      </trkpt>
      <trkpt lat="47.46703" lon="6.78076">
        <ele>362</ele>
        <time>2016-03-13T11:04:27.000Z</time>
      </trkpt>
      <trkpt lat="47.46707" lon="6.78073">
        <ele>362</ele>
        <time>2016-03-13T11:04:29.000Z</time>
      </trkpt>
      <trkpt lat="47.46708" lon="6.78072">
        <ele>361</ele>
        <time>2016-03-13T11:04:30.000Z</time>
      </trkpt>
      <trkpt lat="47.4671" lon="6.78066">
        <ele>361</ele>
        <time>2016-03-13T11:04:33.000Z</time>
      </trkpt>
      <trkpt lat="47.4671" lon="6.78065">
        <ele>361</ele>
        <time>2016-03-13T11:04:34.000Z</time>
      </trkpt>
      <trkpt lat="47.46712" lon="6.7806">
        <ele>361</ele>
        <time>2016-03-13T11:04:36.000Z</time>
      </trkpt>
      <trkpt lat="47.46713" lon="6.78056">
        <ele>361</ele>
        <time>2016-03-13T11:04:37.000Z</time>
      </trkpt>
      <trkpt lat="47.46714" lon="6.78051">
        <ele>362</ele>
        <time>2016-03-13T11:04:38.000Z</time>
      </trkpt>
      <trkpt lat="47.46714" lon="6.78045">
        <ele>362</ele>
        <time>2016-03-13T11:04:39.000Z</time>
      </trkpt>
      <trkpt lat="47.46714" lon="6.78041">
        <ele>362</ele>
        <time>2016-03-13T11:04:40.000Z</time>
      </trkpt>
      <trkpt lat="47.46715" lon="6.78036">
        <ele>362</ele>
        <time>2016-03-13T11:04:41.000Z</time>
      </trkpt>
      <trkpt lat="47.46715" lon="6.78032">
        <ele>362</ele>
        <time>2016-03-13T11:04:42.000Z</time>
      </trkpt>
      <trkpt lat="47.46715" lon="6.78029">
        <ele>362</ele>
        <time>2016-03-13T11:04:43.000Z</time>
      </trkpt>
      <trkpt lat="47.46715" lon="6.78025">
        <ele>362</ele>
        <time>2016-03-13T11:04:44.000Z</time>
      </trkpt>
      <trkpt lat="47.46715" lon="6.78021">
        <ele>362</ele>
        <time>2016-03-13T11:04:45.000Z</time>
      </trkpt>
      <trkpt lat="47.46715" lon="6.78017">
        <ele>362</ele>
        <time>2016-03-13T11:04:46.000Z</time>
      </trkpt>
      <trkpt lat="47.46715" lon="6.78013">
        <ele>362</ele>
        <time>2016-03-13T11:04:47.000Z</time>
      </trkpt>
      <trkpt lat="47.46715" lon="6.78009">
        <ele>362</ele>
        <time>2016-03-13T11:04:48.000Z</time>
      </trkpt>
      <trkpt lat="47.46716" lon="6.78005">
        <ele>362</ele>
        <time>2016-03-13T11:04:49.000Z</time>
      </trkpt>
      <trkpt lat="47.46717" lon="6.78002">
        <ele>362</ele>
        <time>2016-03-13T11:04:50.000Z</time>
      </trkpt>
      <trkpt lat="47.46718" lon="6.77999">
        <ele>367</ele>
        <time>2016-03-13T11:04:51.000Z</time>
      </trkpt>
      <trkpt lat="47.4672" lon="6.77997">
        <ele>366</ele>
        <time>2016-03-13T11:04:52.000Z</time>
      </trkpt>
      <trkpt lat="47.46721" lon="6.77994">
        <ele>366</ele>
        <time>2016-03-13T11:04:53.000Z</time>
      </trkpt>
      <trkpt lat="47.46723" lon="6.77989">
        <ele>366</ele>
        <time>2016-03-13T11:04:55.000Z</time>
      </trkpt>
      <trkpt lat="47.46724" lon="6.77986">
        <ele>366</ele>
        <time>2016-03-13T11:04:56.000Z</time>
      </trkpt>
      <trkpt lat="47.46724" lon="6.7798">
        <ele>366</ele>
        <time>2016-03-13T11:04:58.000Z</time>
      </trkpt>
      <trkpt lat="47.46726" lon="6.77978">
        <ele>366</ele>
        <time>2016-03-13T11:04:59.000Z</time>
      </trkpt>
      <trkpt lat="47.46727" lon="6.77975">
        <ele>366</ele>
        <time>2016-03-13T11:05:00.000Z</time>
      </trkpt>
      <trkpt lat="47.46729" lon="6.77973">
        <ele>366</ele>
        <time>2016-03-13T11:05:01.000Z</time>
      </trkpt>
      <trkpt lat="47.46731" lon="6.77969">
        <ele>366</ele>
        <time>2016-03-13T11:05:02.000Z</time>
      </trkpt>
      <trkpt lat="47.46733" lon="6.77965">
        <ele>367</ele>
        <time>2016-03-13T11:05:03.000Z</time>
      </trkpt>
      <trkpt lat="47.46735" lon="6.77962">
        <ele>366</ele>
        <time>2016-03-13T11:05:04.000Z</time>
      </trkpt>
      <trkpt lat="47.46738" lon="6.77959">
        <ele>366</ele>
        <time>2016-03-13T11:05:05.000Z</time>
      </trkpt>
      <trkpt lat="47.46741" lon="6.77958">
        <ele>366</ele>
        <time>2016-03-13T11:05:06.000Z</time>
      </trkpt>
      <trkpt lat="47.46744" lon="6.77956">
        <ele>366</ele>
        <time>2016-03-13T11:05:07.000Z</time>
      </trkpt>
      <trkpt lat="47.46746" lon="6.77955">
        <ele>366</ele>
        <time>2016-03-13T11:05:08.000Z</time>
      </trkpt>
      <trkpt lat="47.46748" lon="6.77953">
        <ele>366</ele>
        <time>2016-03-13T11:05:09.000Z</time>
      </trkpt>
      <trkpt lat="47.4675" lon="6.77952">
        <ele>353</ele>
        <time>2016-03-13T11:05:10.000Z</time>
      </trkpt>
      <trkpt lat="47.46752" lon="6.77949">
        <ele>353</ele>
        <time>2016-03-13T11:05:11.000Z</time>
      </trkpt>
      <trkpt lat="47.46753" lon="6.77945">
        <ele>353</ele>
        <time>2016-03-13T11:05:12.000Z</time>
      </trkpt>
      <trkpt lat="47.46754" lon="6.7794">
        <ele>354</ele>
        <time>2016-03-13T11:05:13.000Z</time>
      </trkpt>
      <trkpt lat="47.46754" lon="6.77934">
        <ele>355</ele>
        <time>2016-03-13T11:05:14.000Z</time>
      </trkpt>
      <trkpt lat="47.46755" lon="6.77928">
        <ele>356</ele>
        <time>2016-03-13T11:05:15.000Z</time>
      </trkpt>
      <trkpt lat="47.46755" lon="6.77922">
        <ele>358</ele>
        <time>2016-03-13T11:05:16.000Z</time>
      </trkpt>
      <trkpt lat="47.46756" lon="6.77917">
        <ele>358</ele>
        <time>2016-03-13T11:05:17.000Z</time>
      </trkpt>
      <trkpt lat="47.46756" lon="6.77911">
        <ele>359</ele>
        <time>2016-03-13T11:05:18.000Z</time>
      </trkpt>
      <trkpt lat="47.46757" lon="6.77906">
        <ele>358</ele>
        <time>2016-03-13T11:05:19.000Z</time>
      </trkpt>
      <trkpt lat="47.46758" lon="6.77902">
        <ele>358</ele>
        <time>2016-03-13T11:05:20.000Z</time>
      </trkpt>
      <trkpt lat="47.46759" lon="6.77899">
        <ele>357</ele>
        <time>2016-03-13T11:05:21.000Z</time>
      </trkpt>
      <trkpt lat="47.46761" lon="6.77895">
        <ele>357</ele>
        <time>2016-03-13T11:05:22.999Z</time>
      </trkpt>
      <trkpt lat="47.46762" lon="6.77891">
        <ele>357</ele>
        <time>2016-03-13T11:05:24.000Z</time>
      </trkpt>
      <trkpt lat="47.46764" lon="6.77888">
        <ele>357</ele>
        <time>2016-03-13T11:05:25.000Z</time>
      </trkpt>
      <trkpt lat="47.46765" lon="6.77885">
        <ele>357</ele>
        <time>2016-03-13T11:05:26.000Z</time>
      </trkpt>
      <trkpt lat="47.46766" lon="6.77879">
        <ele>357</ele>
        <time>2016-03-13T11:05:27.000Z</time>
      </trkpt>
      <trkpt lat="47.46768" lon="6.77873">
        <ele>357</ele>
        <time>2016-03-13T11:05:28.000Z</time>
      </trkpt>
      <trkpt lat="47.46769" lon="6.77865">
        <ele>357</ele>
        <time>2016-03-13T11:05:29.000Z</time>
      </trkpt>
      <trkpt lat="47.46769" lon="6.7786">
        <ele>358</ele>
        <time>2016-03-13T11:05:30.000Z</time>
      </trkpt>
      <trkpt lat="47.4677" lon="6.77857">
        <ele>358</ele>
        <time>2016-03-13T11:05:31.000Z</time>
      </trkpt>
      <trkpt lat="47.4677" lon="6.77852">
        <ele>359</ele>
        <time>2016-03-13T11:05:34.000Z</time>
      </trkpt>
      <trkpt lat="47.46771" lon="6.77849">
        <ele>359</ele>
        <time>2016-03-13T11:05:35.000Z</time>
      </trkpt>
      <trkpt lat="47.46772" lon="6.77845">
        <ele>359</ele>
        <time>2016-03-13T11:05:37.000Z</time>
      </trkpt>
      <trkpt lat="47.46772" lon="6.77843">
        <ele>359</ele>
        <time>2016-03-13T11:05:38.000Z</time>
      </trkpt>
      <trkpt lat="47.46772" lon="6.77837">
        <ele>360</ele>
        <time>2016-03-13T11:05:45.000Z</time>
      </trkpt>
      <trkpt lat="47.46771" lon="6.77836">
        <ele>360</ele>
        <time>2016-03-13T11:05:46.000Z</time>
      </trkpt>
      <trkpt lat="47.46773" lon="6.7783">
        <ele>363</ele>
        <time>2016-03-13T11:05:50.000Z</time>
      </trkpt>
      <trkpt lat="47.46773" lon="6.77829">
        <ele>363</ele>
        <time>2016-03-13T11:05:51.000Z</time>
      </trkpt>
      <trkpt lat="47.46775" lon="6.77824">
        <ele>363</ele>
        <time>2016-03-13T11:06:08.000Z</time>
      </trkpt>
      <trkpt lat="47.46775" lon="6.77822">
        <ele>363</ele>
        <time>2016-03-13T11:06:09.000Z</time>
      </trkpt>
      <trkpt lat="47.46776" lon="6.77816">
        <ele>363</ele>
        <time>2016-03-13T11:06:12.000Z</time>
      </trkpt>
      <trkpt lat="47.46776" lon="6.77814">
        <ele>362</ele>
        <time>2016-03-13T11:06:13.000Z</time>
      </trkpt>
      <trkpt lat="47.46779" lon="6.77809">
        <ele>362</ele>
        <time>2016-03-13T11:06:16.000Z</time>
      </trkpt>
      <trkpt lat="47.4678" lon="6.77808">
        <ele>362</ele>
        <time>2016-03-13T11:06:17.000Z</time>
      </trkpt>
      <trkpt lat="47.46783" lon="6.77804">
        <ele>361</ele>
        <time>2016-03-13T11:06:21.000Z</time>
      </trkpt>
      <trkpt lat="47.46784" lon="6.77803">
        <ele>361</ele>
        <time>2016-03-13T11:06:22.000Z</time>
      </trkpt>
      <trkpt lat="47.46785" lon="6.77797">
        <ele>361</ele>
        <time>2016-03-13T11:06:25.000Z</time>
      </trkpt>
      <trkpt lat="47.46786" lon="6.77795">
        <ele>361</ele>
        <time>2016-03-13T11:06:26.000Z</time>
      </trkpt>
      <trkpt lat="47.46788" lon="6.7779">
        <ele>361</ele>
        <time>2016-03-13T11:06:29.000Z</time>
      </trkpt>
      <trkpt lat="47.46788" lon="6.77788">
        <ele>361</ele>
        <time>2016-03-13T11:06:30.000Z</time>
      </trkpt>
      <trkpt lat="47.46788" lon="6.77782">
        <ele>362</ele>
        <time>2016-03-13T11:06:33.000Z</time>
      </trkpt>
      <trkpt lat="47.46788" lon="6.77781">
        <ele>362</ele>
        <time>2016-03-13T11:06:34.000Z</time>
      </trkpt>
      <trkpt lat="47.46788" lon="6.77775">
        <ele>362</ele>
        <time>2016-03-13T11:06:37.000Z</time>
      </trkpt>
      <trkpt lat="47.46788" lon="6.77773">
        <ele>362</ele>
        <time>2016-03-13T11:06:38.000Z</time>
      </trkpt>
      <trkpt lat="47.46788" lon="6.77768">
        <ele>362</ele>
        <time>2016-03-13T11:06:40.000Z</time>
      </trkpt>
      <trkpt lat="47.46789" lon="6.77766">
        <ele>362</ele>
        <time>2016-03-13T11:06:41.000Z</time>
      </trkpt>
      <trkpt lat="47.46792" lon="6.77763">
        <ele>362</ele>
        <time>2016-03-13T11:06:44.000Z</time>
      </trkpt>
      <trkpt lat="47.46792" lon="6.7776">
        <ele>362</ele>
        <time>2016-03-13T11:06:45.000Z</time>
      </trkpt>
      <trkpt lat="47.46794" lon="6.77754">
        <ele>362</ele>
        <time>2016-03-13T11:06:47.000Z</time>
      </trkpt>
      <trkpt lat="47.46795" lon="6.77752">
        <ele>362</ele>
        <time>2016-03-13T11:06:48.000Z</time>
      </trkpt>
      <trkpt lat="47.46796" lon="6.77746">
        <ele>365</ele>
        <time>2016-03-13T11:06:50.000Z</time>
      </trkpt>
      <trkpt lat="47.46797" lon="6.77742">
        <ele>365</ele>
        <time>2016-03-13T11:06:51.000Z</time>
      </trkpt>
      <trkpt lat="47.46798" lon="6.77738">
        <ele>364</ele>
        <time>2016-03-13T11:06:52.000Z</time>
      </trkpt>
      <trkpt lat="47.46798" lon="6.77733">
        <ele>365</ele>
        <time>2016-03-13T11:06:53.000Z</time>
      </trkpt>
      <trkpt lat="47.46799" lon="6.77728">
        <ele>365</ele>
        <time>2016-03-13T11:06:54.000Z</time>
      </trkpt>
      <trkpt lat="47.46799" lon="6.77723">
        <ele>365</ele>
        <time>2016-03-13T11:06:55.000Z</time>
      </trkpt>
      <trkpt lat="47.468" lon="6.77719">
        <ele>365</ele>
        <time>2016-03-13T11:06:56.000Z</time>
      </trkpt>
      <trkpt lat="47.46801" lon="6.77715">
        <ele>365</ele>
        <time>2016-03-13T11:06:57.000Z</time>
      </trkpt>
      <trkpt lat="47.46803" lon="6.77711">
        <ele>365</ele>
        <time>2016-03-13T11:06:58.000Z</time>
      </trkpt>
      <trkpt lat="47.46803" lon="6.77708">
        <ele>365</ele>
        <time>2016-03-13T11:06:59.000Z</time>
      </trkpt>
      <trkpt lat="47.46804" lon="6.77705">
        <ele>365</ele>
        <time>2016-03-13T11:07:00.000Z</time>
      </trkpt>
      <trkpt lat="47.46804" lon="6.77702">
        <ele>365</ele>
        <time>2016-03-13T11:07:01.000Z</time>
      </trkpt>
      <trkpt lat="47.46804" lon="6.77697">
        <ele>365</ele>
        <time>2016-03-13T11:07:02.000Z</time>
      </trkpt>
      <trkpt lat="47.46804" lon="6.77692">
        <ele>365</ele>
        <time>2016-03-13T11:07:03.000Z</time>
      </trkpt>
      <trkpt lat="47.46804" lon="6.77686">
        <ele>364</ele>
        <time>2016-03-13T11:07:04.000Z</time>
      </trkpt>
      <trkpt lat="47.46805" lon="6.7768">
        <ele>364</ele>
        <time>2016-03-13T11:07:05.000Z</time>
      </trkpt>
      <trkpt lat="47.46805" lon="6.77674">
        <ele>364</ele>
        <time>2016-03-13T11:07:06.000Z</time>
      </trkpt>
      <trkpt lat="47.46805" lon="6.77668">
        <ele>364</ele>
        <time>2016-03-13T11:07:07.000Z</time>
      </trkpt>
      <trkpt lat="47.46805" lon="6.77664">
        <ele>365</ele>
        <time>2016-03-13T11:07:08.000Z</time>
      </trkpt>
      <trkpt lat="47.46806" lon="6.77654">
        <ele>365</ele>
        <time>2016-03-13T11:07:09.000Z</time>
      </trkpt>
      <trkpt lat="47.46807" lon="6.77646">
        <ele>365</ele>
        <time>2016-03-13T11:07:10.000Z</time>
      </trkpt>
      <trkpt lat="47.46809" lon="6.77622">
        <ele>365</ele>
        <time>2016-03-13T11:07:11.000Z</time>
      </trkpt>
      <trkpt lat="47.46812" lon="6.77615">
        <ele>364</ele>
        <time>2016-03-13T11:07:12.000Z</time>
      </trkpt>
      <trkpt lat="47.46814" lon="6.77608">
        <ele>364</ele>
        <time>2016-03-13T11:07:13.000Z</time>
      </trkpt>
      <trkpt lat="47.46816" lon="6.77603">
        <ele>363</ele>
        <time>2016-03-13T11:07:14.000Z</time>
      </trkpt>
      <trkpt lat="47.46817" lon="6.77598">
        <ele>362</ele>
        <time>2016-03-13T11:07:15.000Z</time>
      </trkpt>
      <trkpt lat="47.46821" lon="6.77591">
        <ele>360</ele>
        <time>2016-03-13T11:07:16.000Z</time>
      </trkpt>
      <trkpt lat="47.46823" lon="6.77582">
        <ele>358</ele>
        <time>2016-03-13T11:07:17.000Z</time>
      </trkpt>
      <trkpt lat="47.46825" lon="6.77574">
        <ele>359</ele>
        <time>2016-03-13T11:07:18.000Z</time>
      </trkpt>
      <trkpt lat="47.46827" lon="6.77567">
        <ele>360</ele>
        <time>2016-03-13T11:07:19.000Z</time>
      </trkpt>
      <trkpt lat="47.46829" lon="6.7756">
        <ele>360</ele>
        <time>2016-03-13T11:07:20.000Z</time>
      </trkpt>
      <trkpt lat="47.4683" lon="6.77552">
        <ele>361</ele>
        <time>2016-03-13T11:07:21.000Z</time>
      </trkpt>
      <trkpt lat="47.46834" lon="6.77542">
        <ele>351</ele>
        <time>2016-03-13T11:07:22.000Z</time>
      </trkpt>
      <trkpt lat="47.46837" lon="6.77535">
        <ele>351</ele>
        <time>2016-03-13T11:07:23.000Z</time>
      </trkpt>
      <trkpt lat="47.46836" lon="6.77526">
        <ele>351</ele>
        <time>2016-03-13T11:07:24.000Z</time>
      </trkpt>
      <trkpt lat="47.46837" lon="6.77517">
        <ele>351</ele>
        <time>2016-03-13T11:07:25.000Z</time>
      </trkpt>
      <trkpt lat="47.46838" lon="6.77511">
        <ele>352</ele>
        <time>2016-03-13T11:07:26.000Z</time>
      </trkpt>
      <trkpt lat="47.46839" lon="6.77508">
        <ele>352</ele>
        <time>2016-03-13T11:07:27.000Z</time>
      </trkpt>
      <trkpt lat="47.46839" lon="6.77495">
        <ele>352</ele>
        <time>2016-03-13T11:07:28.000Z</time>
      </trkpt>
      <trkpt lat="47.46842" lon="6.7748">
        <ele>351</ele>
        <time>2016-03-13T11:07:29.000Z</time>
      </trkpt>
      <trkpt lat="47.46847" lon="6.77468">
        <ele>350</ele>
        <time>2016-03-13T11:07:30.000Z</time>
      </trkpt>
      <trkpt lat="47.4685" lon="6.77459">
        <ele>349</ele>
        <time>2016-03-13T11:07:31.000Z</time>
      </trkpt>
      <trkpt lat="47.46856" lon="6.77457">
        <ele>349</ele>
        <time>2016-03-13T11:07:32.000Z</time>
      </trkpt>
      <trkpt lat="47.46862" lon="6.77456">
        <ele>349</ele>
        <time>2016-03-13T11:07:33.000Z</time>
      </trkpt>
      <trkpt lat="47.46866" lon="6.77457">
        <ele>348</ele>
        <time>2016-03-13T11:07:34.000Z</time>
      </trkpt>
      <trkpt lat="47.4687" lon="6.77459">
        <ele>348</ele>
        <time>2016-03-13T11:07:35.000Z</time>
      </trkpt>
      <trkpt lat="47.46876" lon="6.7746">
        <ele>348</ele>
        <time>2016-03-13T11:07:36.000Z</time>
      </trkpt>
      <trkpt lat="47.46881" lon="6.77462">
        <ele>348</ele>
        <time>2016-03-13T11:07:37.000Z</time>
      </trkpt>
      <trkpt lat="47.46888" lon="6.77462">
        <ele>347</ele>
        <time>2016-03-13T11:07:38.000Z</time>
      </trkpt>
      <trkpt lat="47.46895" lon="6.77462">
        <ele>347</ele>
        <time>2016-03-13T11:07:39.000Z</time>
      </trkpt>
      <trkpt lat="47.46901" lon="6.7746">
        <ele>347</ele>
        <time>2016-03-13T11:07:40.000Z</time>
      </trkpt>
      <trkpt lat="47.46908" lon="6.77456">
        <ele>346</ele>
        <time>2016-03-13T11:07:41.000Z</time>
      </trkpt>
      <trkpt lat="47.46915" lon="6.77448">
        <ele>346</ele>
        <time>2016-03-13T11:07:42.000Z</time>
      </trkpt>
      <trkpt lat="47.46922" lon="6.77441">
        <ele>342</ele>
        <time>2016-03-13T11:07:43.000Z</time>
      </trkpt>
      <trkpt lat="47.46928" lon="6.77435">
        <ele>342</ele>
        <time>2016-03-13T11:07:44.000Z</time>
      </trkpt>
      <trkpt lat="47.46934" lon="6.77429">
        <ele>342</ele>
        <time>2016-03-13T11:07:45.000Z</time>
      </trkpt>
      <trkpt lat="47.4694" lon="6.77434">
        <ele>342</ele>
        <time>2016-03-13T11:07:46.000Z</time>
      </trkpt>
      <trkpt lat="47.46944" lon="6.77436">
        <ele>342</ele>
        <time>2016-03-13T11:07:47.000Z</time>
      </trkpt>
      <trkpt lat="47.46948" lon="6.77445">
        <ele>341</ele>
        <time>2016-03-13T11:07:48.000Z</time>
      </trkpt>
      <trkpt lat="47.46953" lon="6.77452">
        <ele>341</ele>
        <time>2016-03-13T11:07:49.000Z</time>
      </trkpt>
      <trkpt lat="47.46958" lon="6.77459">
        <ele>341</ele>
        <time>2016-03-13T11:07:50.000Z</time>
      </trkpt>
      <trkpt lat="47.46963" lon="6.77467">
        <ele>341</ele>
        <time>2016-03-13T11:07:51.000Z</time>
      </trkpt>
      <trkpt lat="47.46968" lon="6.77474">
        <ele>341</ele>
        <time>2016-03-13T11:07:52.000Z</time>
      </trkpt>
      <trkpt lat="47.46972" lon="6.77482">
        <ele>340</ele>
        <time>2016-03-13T11:07:53.000Z</time>
      </trkpt>
      <trkpt lat="47.46976" lon="6.77489">
        <ele>340</ele>
        <time>2016-03-13T11:07:54.000Z</time>
      </trkpt>
      <trkpt lat="47.46979" lon="6.77498">
        <ele>340</ele>
        <time>2016-03-13T11:07:55.000Z</time>
      </trkpt>
      <trkpt lat="47.46984" lon="6.77505">
        <ele>339</ele>
        <time>2016-03-13T11:07:56.000Z</time>
      </trkpt>
      <trkpt lat="47.46988" lon="6.77512">
        <ele>339</ele>
        <time>2016-03-13T11:07:57.000Z</time>
      </trkpt>
      <trkpt lat="47.46992" lon="6.77519">
        <ele>339</ele>
        <time>2016-03-13T11:07:58.000Z</time>
      </trkpt>
      <trkpt lat="47.46997" lon="6.77526">
        <ele>339</ele>
        <time>2016-03-13T11:07:59.000Z</time>
      </trkpt>
      <trkpt lat="47.47001" lon="6.77533">
        <ele>336</ele>
        <time>2016-03-13T11:08:00.000Z</time>
      </trkpt>
      <trkpt lat="47.47006" lon="6.77539">
        <ele>336</ele>
        <time>2016-03-13T11:08:01.000Z</time>
      </trkpt>
      <trkpt lat="47.47011" lon="6.77545">
        <ele>336</ele>
        <time>2016-03-13T11:08:02.000Z</time>
      </trkpt>
      <trkpt lat="47.47016" lon="6.77551">
        <ele>336</ele>
        <time>2016-03-13T11:08:03.000Z</time>
      </trkpt>
      <trkpt lat="47.4702" lon="6.77557">
        <ele>336</ele>
        <time>2016-03-13T11:08:04.000Z</time>
      </trkpt>
      <trkpt lat="47.47024" lon="6.77563">
        <ele>335</ele>
        <time>2016-03-13T11:08:05.000Z</time>
      </trkpt>
      <trkpt lat="47.47029" lon="6.77569">
        <ele>335</ele>
        <time>2016-03-13T11:08:06.000Z</time>
      </trkpt>
      <trkpt lat="47.47033" lon="6.77575">
        <ele>335</ele>
        <time>2016-03-13T11:08:07.000Z</time>
      </trkpt>
      <trkpt lat="47.47038" lon="6.77581">
        <ele>335</ele>
        <time>2016-03-13T11:08:08.000Z</time>
      </trkpt>
      <trkpt lat="47.47042" lon="6.77588">
        <ele>334</ele>
        <time>2016-03-13T11:08:09.000Z</time>
      </trkpt>
      <trkpt lat="47.47047" lon="6.77594">
        <ele>334</ele>
        <time>2016-03-13T11:08:10.000Z</time>
      </trkpt>
      <trkpt lat="47.47051" lon="6.77601">
        <ele>334</ele>
        <time>2016-03-13T11:08:11.000Z</time>
      </trkpt>
      <trkpt lat="47.47056" lon="6.77606">
        <ele>334</ele>
        <time>2016-03-13T11:08:12.000Z</time>
      </trkpt>
      <trkpt lat="47.4706" lon="6.77613">
        <ele>334</ele>
        <time>2016-03-13T11:08:13.000Z</time>
      </trkpt>
      <trkpt lat="47.47065" lon="6.77619">
        <ele>334</ele>
        <time>2016-03-13T11:08:14.000Z</time>
      </trkpt>
      <trkpt lat="47.4707" lon="6.77625">
        <ele>334</ele>
        <time>2016-03-13T11:08:15.000Z</time>
      </trkpt>
      <trkpt lat="47.47074" lon="6.77631">
        <ele>334</ele>
        <time>2016-03-13T11:08:16.000Z</time>
      </trkpt>
      <trkpt lat="47.47079" lon="6.77636">
        <ele>334</ele>
        <time>2016-03-13T11:08:17.000Z</time>
      </trkpt>
      <trkpt lat="47.47083" lon="6.77641">
        <ele>334</ele>
        <time>2016-03-13T11:08:18.000Z</time>
      </trkpt>
      <trkpt lat="47.47087" lon="6.77646">
        <ele>334</ele>
        <time>2016-03-13T11:08:19.000Z</time>
      </trkpt>
      <trkpt lat="47.47091" lon="6.77652">
        <ele>334</ele>
        <time>2016-03-13T11:08:20.000Z</time>
      </trkpt>
      <trkpt lat="47.47095" lon="6.77656">
        <ele>334</ele>
        <time>2016-03-13T11:08:21.000Z</time>
      </trkpt>
      <trkpt lat="47.47098" lon="6.77659">
        <ele>334</ele>
        <time>2016-03-13T11:08:22.000Z</time>
      </trkpt>
      <trkpt lat="47.47101" lon="6.77664">
        <ele>334</ele>
        <time>2016-03-13T11:08:23.000Z</time>
      </trkpt>
      <trkpt lat="47.47104" lon="6.77669">
        <ele>335</ele>
        <time>2016-03-13T11:08:24.000Z</time>
      </trkpt>
      <trkpt lat="47.47107" lon="6.77672">
        <ele>335</ele>
        <time>2016-03-13T11:08:25.000Z</time>
      </trkpt>
      <trkpt lat="47.47109" lon="6.77674">
        <ele>335</ele>
        <time>2016-03-13T11:08:26.000Z</time>
      </trkpt>
      <trkpt lat="47.47112" lon="6.77676">
        <ele>335</ele>
        <time>2016-03-13T11:08:27.000Z</time>
      </trkpt>
      <trkpt lat="47.47116" lon="6.77677">
        <ele>335</ele>
        <time>2016-03-13T11:08:29.000Z</time>
      </trkpt>
      <trkpt lat="47.47117" lon="6.77678">
        <ele>335</ele>
        <time>2016-03-13T11:08:30.000Z</time>
      </trkpt>
      <trkpt lat="47.47121" lon="6.7768">
        <ele>336</ele>
        <time>2016-03-13T11:08:32.000Z</time>
      </trkpt>
      <trkpt lat="47.47122" lon="6.7768">
        <ele>336</ele>
        <time>2016-03-13T11:08:33.000Z</time>
      </trkpt>
      <trkpt lat="47.47126" lon="6.7768">
        <ele>336</ele>
        <time>2016-03-13T11:08:38.000Z</time>
      </trkpt>
      <trkpt lat="47.47127" lon="6.77681">
        <ele>336</ele>
        <time>2016-03-13T11:08:39.000Z</time>
      </trkpt>
      <trkpt lat="47.47129" lon="6.77678">
        <ele>336</ele>
        <time>2016-03-13T11:08:42.000Z</time>
      </trkpt>
      <trkpt lat="47.4713" lon="6.77676">
        <ele>336</ele>
        <time>2016-03-13T11:08:43.000Z</time>
      </trkpt>
      <trkpt lat="47.47132" lon="6.77673">
        <ele>336</ele>
        <time>2016-03-13T11:08:44.000Z</time>
      </trkpt>
      <trkpt lat="47.47134" lon="6.7767">
        <ele>336</ele>
        <time>2016-03-13T11:08:45.000Z</time>
      </trkpt>
      <trkpt lat="47.47136" lon="6.77663">
        <ele>335</ele>
        <time>2016-03-13T11:08:46.000Z</time>
      </trkpt>
      <trkpt lat="47.47138" lon="6.77654">
        <ele>335</ele>
        <time>2016-03-13T11:08:47.000Z</time>
      </trkpt>
      <trkpt lat="47.47141" lon="6.77646">
        <ele>335</ele>
        <time>2016-03-13T11:08:48.000Z</time>
      </trkpt>
      <trkpt lat="47.47153" lon="6.77628">
        <ele>335</ele>
        <time>2016-03-13T11:08:49.000Z</time>
      </trkpt>
      <trkpt lat="47.47155" lon="6.77624">
        <ele>335</ele>
        <time>2016-03-13T11:08:50.000Z</time>
      </trkpt>
      <trkpt lat="47.47157" lon="6.77619">
        <ele>335</ele>
        <time>2016-03-13T11:08:51.000Z</time>
      </trkpt>
      <trkpt lat="47.47159" lon="6.77614">
        <ele>334</ele>
        <time>2016-03-13T11:08:52.000Z</time>
      </trkpt>
      <trkpt lat="47.4716" lon="6.77611">
        <ele>334</ele>
        <time>2016-03-13T11:08:53.000Z</time>
      </trkpt>
      <trkpt lat="47.47161" lon="6.77603">
        <ele>334</ele>
        <time>2016-03-13T11:08:54.000Z</time>
      </trkpt>
      <trkpt lat="47.47164" lon="6.77597">
        <ele>334</ele>
        <time>2016-03-13T11:08:55.000Z</time>
      </trkpt>
      <trkpt lat="47.47167" lon="6.77592">
        <ele>334</ele>
        <time>2016-03-13T11:08:56.000Z</time>
      </trkpt>
      <trkpt lat="47.4717" lon="6.77587">
        <ele>334</ele>
        <time>2016-03-13T11:08:57.000Z</time>
      </trkpt>
      <trkpt lat="47.47172" lon="6.77583">
        <ele>333</ele>
        <time>2016-03-13T11:08:58.000Z</time>
      </trkpt>
      <trkpt lat="47.47176" lon="6.77578">
        <ele>333</ele>
        <time>2016-03-13T11:08:59.000Z</time>
      </trkpt>
      <trkpt lat="47.47179" lon="6.77579">
        <ele>333</ele>
        <time>2016-03-13T11:09:00.000Z</time>
      </trkpt>
      <trkpt lat="47.47183" lon="6.77578">
        <ele>333</ele>
        <time>2016-03-13T11:09:01.000Z</time>
      </trkpt>
      <trkpt lat="47.47186" lon="6.77577">
        <ele>332</ele>
        <time>2016-03-13T11:09:02.000Z</time>
      </trkpt>
      <trkpt lat="47.47191" lon="6.77578">
        <ele>332</ele>
        <time>2016-03-13T11:09:03.000Z</time>
      </trkpt>
      <trkpt lat="47.47196" lon="6.7758">
        <ele>332</ele>
        <time>2016-03-13T11:09:04.000Z</time>
      </trkpt>
      <trkpt lat="47.47199" lon="6.77581">
        <ele>332</ele>
        <time>2016-03-13T11:09:05.000Z</time>
      </trkpt>
      <trkpt lat="47.47203" lon="6.77581">
        <ele>332</ele>
        <time>2016-03-13T11:09:06.000Z</time>
      </trkpt>
      <trkpt lat="47.47206" lon="6.77581">
        <ele>332</ele>
        <time>2016-03-13T11:09:07.000Z</time>
      </trkpt>
      <trkpt lat="47.4721" lon="6.77582">
        <ele>331</ele>
        <time>2016-03-13T11:09:08.000Z</time>
      </trkpt>
      <trkpt lat="47.47213" lon="6.77582">
        <ele>331</ele>
        <time>2016-03-13T11:09:09.000Z</time>
      </trkpt>
      <trkpt lat="47.47217" lon="6.77582">
        <ele>331</ele>
        <time>2016-03-13T11:09:10.000Z</time>
      </trkpt>
      <trkpt lat="47.47221" lon="6.77583">
        <ele>331</ele>
        <time>2016-03-13T11:09:11.000Z</time>
      </trkpt>
      <trkpt lat="47.47226" lon="6.77581">
        <ele>331</ele>
        <time>2016-03-13T11:09:12.000Z</time>
      </trkpt>
      <trkpt lat="47.47231" lon="6.77581">
        <ele>331</ele>
        <time>2016-03-13T11:09:13.000Z</time>
      </trkpt>
      <trkpt lat="47.47236" lon="6.77581">
        <ele>331</ele>
        <time>2016-03-13T11:09:14.000Z</time>
      </trkpt>
      <trkpt lat="47.47242" lon="6.77582">
        <ele>330</ele>
        <time>2016-03-13T11:09:15.000Z</time>
      </trkpt>
      <trkpt lat="47.47248" lon="6.77582">
        <ele>330</ele>
        <time>2016-03-13T11:09:16.000Z</time>
      </trkpt>
      <trkpt lat="47.47253" lon="6.77582">
        <ele>330</ele>
        <time>2016-03-13T11:09:17.000Z</time>
      </trkpt>
      <trkpt lat="47.47258" lon="6.77583">
        <ele>329</ele>
        <time>2016-03-13T11:09:18.000Z</time>
      </trkpt>
      <trkpt lat="47.47262" lon="6.77583">
        <ele>329</ele>
        <time>2016-03-13T11:09:19.000Z</time>
      </trkpt>
      <trkpt lat="47.47267" lon="6.77583">
        <ele>328</ele>
        <time>2016-03-13T11:09:20.000Z</time>
      </trkpt>
      <trkpt lat="47.47271" lon="6.77582">
        <ele>328</ele>
        <time>2016-03-13T11:09:21.000Z</time>
      </trkpt>
      <trkpt lat="47.47276" lon="6.77581">
        <ele>328</ele>
        <time>2016-03-13T11:09:22.000Z</time>
      </trkpt>
      <trkpt lat="47.47282" lon="6.77576">
        <ele>327</ele>
        <time>2016-03-13T11:09:23.000Z</time>
      </trkpt>
      <trkpt lat="47.47288" lon="6.77576">
        <ele>327</ele>
        <time>2016-03-13T11:09:24.000Z</time>
      </trkpt>
      <trkpt lat="47.47294" lon="6.77576">
        <ele>327</ele>
        <time>2016-03-13T11:09:25.000Z</time>
      </trkpt>
      <trkpt lat="47.47301" lon="6.77576">
        <ele>326</ele>
        <time>2016-03-13T11:09:26.000Z</time>
      </trkpt>
      <trkpt lat="47.47307" lon="6.77576">
        <ele>326</ele>
        <time>2016-03-13T11:09:27.000Z</time>
      </trkpt>
      <trkpt lat="47.47314" lon="6.77577">
        <ele>326</ele>
        <time>2016-03-13T11:09:28.000Z</time>
      </trkpt>
      <trkpt lat="47.47321" lon="6.77576">
        <ele>326</ele>
        <time>2016-03-13T11:09:29.000Z</time>
      </trkpt>
      <trkpt lat="47.47327" lon="6.77574">
        <ele>326</ele>
        <time>2016-03-13T11:09:30.000Z</time>
      </trkpt>
      <trkpt lat="47.47333" lon="6.77573">
        <ele>325</ele>
        <time>2016-03-13T11:09:31.000Z</time>
      </trkpt>
      <trkpt lat="47.47339" lon="6.77575">
        <ele>324</ele>
        <time>2016-03-13T11:09:32.000Z</time>
      </trkpt>
      <trkpt lat="47.47347" lon="6.77574">
        <ele>324</ele>
        <time>2016-03-13T11:09:33.000Z</time>
      </trkpt>
      <trkpt lat="47.47355" lon="6.77575">
        <ele>323</ele>
        <time>2016-03-13T11:09:34.000Z</time>
      </trkpt>
      <trkpt lat="47.47363" lon="6.77575">
        <ele>323</ele>
        <time>2016-03-13T11:09:35.000Z</time>
      </trkpt>
      <trkpt lat="47.47371" lon="6.77576">
        <ele>322</ele>
        <time>2016-03-13T11:09:36.000Z</time>
      </trkpt>
      <trkpt lat="47.47379" lon="6.77576">
        <ele>322</ele>
        <time>2016-03-13T11:09:37.000Z</time>
      </trkpt>
      <trkpt lat="47.47387" lon="6.77576">
        <ele>322</ele>
        <time>2016-03-13T11:09:38.000Z</time>
      </trkpt>
      <trkpt lat="47.47395" lon="6.77573">
        <ele>322</ele>
        <time>2016-03-13T11:09:39.000Z</time>
      </trkpt>
      <trkpt lat="47.47403" lon="6.77571">
        <ele>322</ele>
        <time>2016-03-13T11:09:40.000Z</time>
      </trkpt>
      <trkpt lat="47.4741" lon="6.77569">
        <ele>321</ele>
        <time>2016-03-13T11:09:41.000Z</time>
      </trkpt>
      <trkpt lat="47.47417" lon="6.77565">
        <ele>320</ele>
        <time>2016-03-13T11:09:42.000Z</time>
      </trkpt>
      <trkpt lat="47.47425" lon="6.77561">
        <ele>320</ele>
        <time>2016-03-13T11:09:43.000Z</time>
      </trkpt>
      <trkpt lat="47.47431" lon="6.77556">
        <ele>319</ele>
        <time>2016-03-13T11:09:44.000Z</time>
      </trkpt>
      <trkpt lat="47.47438" lon="6.77552">
        <ele>319</ele>
        <time>2016-03-13T11:09:45.000Z</time>
      </trkpt>
      <trkpt lat="47.47445" lon="6.77549">
        <ele>319</ele>
        <time>2016-03-13T11:09:46.000Z</time>
      </trkpt>
      <trkpt lat="47.47451" lon="6.7755">
        <ele>319</ele>
        <time>2016-03-13T11:09:47.000Z</time>
      </trkpt>
      <trkpt lat="47.47458" lon="6.77548">
        <ele>319</ele>
        <time>2016-03-13T11:09:48.000Z</time>
      </trkpt>
      <trkpt lat="47.47464" lon="6.77548">
        <ele>319</ele>
        <time>2016-03-13T11:09:49.000Z</time>
      </trkpt>
      <trkpt lat="47.47469" lon="6.77547">
        <ele>319</ele>
        <time>2016-03-13T11:09:50.000Z</time>
      </trkpt>
      <trkpt lat="47.47473" lon="6.77534">
        <ele>318</ele>
        <time>2016-03-13T11:09:51.000Z</time>
      </trkpt>
      <trkpt lat="47.47478" lon="6.77527">
        <ele>318</ele>
        <time>2016-03-13T11:09:52.000Z</time>
      </trkpt>
      <trkpt lat="47.47482" lon="6.77521">
        <ele>318</ele>
        <time>2016-03-13T11:09:53.000Z</time>
      </trkpt>
      <trkpt lat="47.47486" lon="6.77513">
        <ele>318</ele>
        <time>2016-03-13T11:09:54.000Z</time>
      </trkpt>
      <trkpt lat="47.47489" lon="6.77506">
        <ele>318</ele>
        <time>2016-03-13T11:09:55.000Z</time>
      </trkpt>
      <trkpt lat="47.47492" lon="6.775">
        <ele>317</ele>
        <time>2016-03-13T11:09:56.000Z</time>
      </trkpt>
      <trkpt lat="47.47496" lon="6.77494">
        <ele>317</ele>
        <time>2016-03-13T11:09:57.000Z</time>
      </trkpt>
      <trkpt lat="47.475" lon="6.7749">
        <ele>317</ele>
        <time>2016-03-13T11:09:58.000Z</time>
      </trkpt>
      <trkpt lat="47.47503" lon="6.77485">
        <ele>316</ele>
        <time>2016-03-13T11:09:59.000Z</time>
      </trkpt>
      <trkpt lat="47.47507" lon="6.77483">
        <ele>316</ele>
        <time>2016-03-13T11:10:00.000Z</time>
      </trkpt>
      <trkpt lat="47.47508" lon="6.77474">
        <ele>316</ele>
        <time>2016-03-13T11:10:01.000Z</time>
      </trkpt>
      <trkpt lat="47.47511" lon="6.77469">
        <ele>316</ele>
        <time>2016-03-13T11:10:02.000Z</time>
      </trkpt>
      <trkpt lat="47.47514" lon="6.7746">
        <ele>316</ele>
        <time>2016-03-13T11:10:03.000Z</time>
      </trkpt>
      <trkpt lat="47.47517" lon="6.7745">
        <ele>316</ele>
        <time>2016-03-13T11:10:04.000Z</time>
      </trkpt>
      <trkpt lat="47.47521" lon="6.77441">
        <ele>316</ele>
        <time>2016-03-13T11:10:05.000Z</time>
      </trkpt>
      <trkpt lat="47.47523" lon="6.77439">
        <ele>316</ele>
        <time>2016-03-13T11:10:06.000Z</time>
      </trkpt>
      <trkpt lat="47.47526" lon="6.77439">
        <ele>316</ele>
        <time>2016-03-13T11:10:07.000Z</time>
      </trkpt>
      <trkpt lat="47.47528" lon="6.77437">
        <ele>316</ele>
        <time>2016-03-13T11:10:08.000Z</time>
      </trkpt>
      <trkpt lat="47.47535" lon="6.77439">
        <ele>315</ele>
        <time>2016-03-13T11:10:09.000Z</time>
      </trkpt>
      <trkpt lat="47.47539" lon="6.77435">
        <ele>315</ele>
        <time>2016-03-13T11:10:10.000Z</time>
      </trkpt>
      <trkpt lat="47.47543" lon="6.77432">
        <ele>315</ele>
        <time>2016-03-13T11:10:12.000Z</time>
      </trkpt>
      <trkpt lat="47.47547" lon="6.77437">
        <ele>315</ele>
        <time>2016-03-13T11:10:13.000Z</time>
      </trkpt>
      <trkpt lat="47.47551" lon="6.77442">
        <ele>315</ele>
        <time>2016-03-13T11:10:14.000Z</time>
      </trkpt>
      <trkpt lat="47.47557" lon="6.77446">
        <ele>315</ele>
        <time>2016-03-13T11:10:15.000Z</time>
      </trkpt>
      <trkpt lat="47.47562" lon="6.7745">
        <ele>315</ele>
        <time>2016-03-13T11:10:16.000Z</time>
      </trkpt>
      <trkpt lat="47.47567" lon="6.77453">
        <ele>315</ele>
        <time>2016-03-13T11:10:17.000Z</time>
      </trkpt>
      <trkpt lat="47.47572" lon="6.77457">
        <ele>315</ele>
        <time>2016-03-13T11:10:18.000Z</time>
      </trkpt>
      <trkpt lat="47.47575" lon="6.7746">
        <ele>315</ele>
        <time>2016-03-13T11:10:19.000Z</time>
      </trkpt>
      <trkpt lat="47.4758" lon="6.77459">
        <ele>315</ele>
        <time>2016-03-13T11:10:20.000Z</time>
      </trkpt>
      <trkpt lat="47.47584" lon="6.77458">
        <ele>314</ele>
        <time>2016-03-13T11:10:21.000Z</time>
      </trkpt>
      <trkpt lat="47.47586" lon="6.7745">
        <ele>314</ele>
        <time>2016-03-13T11:10:22.000Z</time>
      </trkpt>
      <trkpt lat="47.47589" lon="6.77443">
        <ele>314</ele>
        <time>2016-03-13T11:10:23.000Z</time>
      </trkpt>
      <trkpt lat="47.47591" lon="6.77437">
        <ele>314</ele>
        <time>2016-03-13T11:10:24.000Z</time>
      </trkpt>
      <trkpt lat="47.47594" lon="6.7743">
        <ele>314</ele>
        <time>2016-03-13T11:10:25.000Z</time>
      </trkpt>
      <trkpt lat="47.47596" lon="6.77423">
        <ele>314</ele>
        <time>2016-03-13T11:10:26.000Z</time>
      </trkpt>
      <trkpt lat="47.47599" lon="6.77417">
        <ele>314</ele>
        <time>2016-03-13T11:10:27.000Z</time>
      </trkpt>
      <trkpt lat="47.47603" lon="6.77412">
        <ele>313</ele>
        <time>2016-03-13T11:10:28.000Z</time>
      </trkpt>
      <trkpt lat="47.47604" lon="6.77403">
        <ele>313</ele>
        <time>2016-03-13T11:10:29.000Z</time>
      </trkpt>
      <trkpt lat="47.47606" lon="6.77393">
        <ele>313</ele>
        <time>2016-03-13T11:10:30.000Z</time>
      </trkpt>
      <trkpt lat="47.47609" lon="6.77384">
        <ele>312</ele>
        <time>2016-03-13T11:10:31.000Z</time>
      </trkpt>
      <trkpt lat="47.47612" lon="6.77376">
        <ele>312</ele>
        <time>2016-03-13T11:10:32.000Z</time>
      </trkpt>
      <trkpt lat="47.47615" lon="6.77373">
        <ele>312</ele>
        <time>2016-03-13T11:10:33.000Z</time>
      </trkpt>
      <trkpt lat="47.47618" lon="6.77366">
        <ele>312</ele>
        <time>2016-03-13T11:10:34.000Z</time>
      </trkpt>
      <trkpt lat="47.47622" lon="6.77359">
        <ele>312</ele>
        <time>2016-03-13T11:10:35.000Z</time>
      </trkpt>
      <trkpt lat="47.47625" lon="6.77357">
        <ele>312</ele>
        <time>2016-03-13T11:10:36.000Z</time>
      </trkpt>
      <trkpt lat="47.4763" lon="6.7735">
        <ele>312</ele>
        <time>2016-03-13T11:10:37.000Z</time>
      </trkpt>
      <trkpt lat="47.47633" lon="6.77339">
        <ele>311</ele>
        <time>2016-03-13T11:10:38.000Z</time>
      </trkpt>
      <trkpt lat="47.47636" lon="6.7733">
        <ele>311</ele>
        <time>2016-03-13T11:10:39.000Z</time>
      </trkpt>
      <trkpt lat="47.47639" lon="6.7732">
        <ele>311</ele>
        <time>2016-03-13T11:10:40.000Z</time>
      </trkpt>
      <trkpt lat="47.47641" lon="6.7731">
        <ele>311</ele>
        <time>2016-03-13T11:10:41.000Z</time>
      </trkpt>
      <trkpt lat="47.47641" lon="6.77298">
        <ele>311</ele>
        <time>2016-03-13T11:10:42.000Z</time>
      </trkpt>
      <trkpt lat="47.4764" lon="6.77287">
        <ele>311</ele>
        <time>2016-03-13T11:10:43.000Z</time>
      </trkpt>
      <trkpt lat="47.47635" lon="6.7728">
        <ele>311</ele>
        <time>2016-03-13T11:10:44.000Z</time>
      </trkpt>
      <trkpt lat="47.4763" lon="6.77274">
        <ele>311</ele>
        <time>2016-03-13T11:10:45.000Z</time>
      </trkpt>
      <trkpt lat="47.47625" lon="6.77268">
        <ele>311</ele>
        <time>2016-03-13T11:10:46.000Z</time>
      </trkpt>
      <trkpt lat="47.4762" lon="6.77263">
        <ele>311</ele>
        <time>2016-03-13T11:10:47.000Z</time>
      </trkpt>
      <trkpt lat="47.47614" lon="6.77259">
        <ele>311</ele>
        <time>2016-03-13T11:10:48.000Z</time>
      </trkpt>
      <trkpt lat="47.47609" lon="6.77254">
        <ele>311</ele>
        <time>2016-03-13T11:10:49.000Z</time>
      </trkpt>
      <trkpt lat="47.47604" lon="6.7725">
        <ele>311</ele>
        <time>2016-03-13T11:10:50.000Z</time>
      </trkpt>
      <trkpt lat="47.476" lon="6.77245">
        <ele>311</ele>
        <time>2016-03-13T11:10:51.000Z</time>
      </trkpt>
      <trkpt lat="47.47595" lon="6.77241">
        <ele>311</ele>
        <time>2016-03-13T11:10:52.000Z</time>
      </trkpt>
      <trkpt lat="47.4759" lon="6.77236">
        <ele>311</ele>
        <time>2016-03-13T11:10:53.000Z</time>
      </trkpt>
      <trkpt lat="47.47585" lon="6.77232">
        <ele>311</ele>
        <time>2016-03-13T11:10:54.000Z</time>
      </trkpt>
      <trkpt lat="47.47581" lon="6.77227">
        <ele>311</ele>
        <time>2016-03-13T11:10:55.000Z</time>
      </trkpt>
      <trkpt lat="47.47576" lon="6.77223">
        <ele>311</ele>
        <time>2016-03-13T11:10:56.000Z</time>
      </trkpt>
      <trkpt lat="47.4757" lon="6.7722">
        <ele>311</ele>
        <time>2016-03-13T11:10:57.000Z</time>
      </trkpt>
      <trkpt lat="47.47565" lon="6.77216">
        <ele>311</ele>
        <time>2016-03-13T11:10:58.000Z</time>
      </trkpt>
      <trkpt lat="47.47561" lon="6.77212">
        <ele>311</ele>
        <time>2016-03-13T11:10:59.000Z</time>
      </trkpt>
      <trkpt lat="47.47556" lon="6.77208">
        <ele>311</ele>
        <time>2016-03-13T11:11:00.000Z</time>
      </trkpt>
      <trkpt lat="47.47552" lon="6.77204">
        <ele>310</ele>
        <time>2016-03-13T11:11:01.000Z</time>
      </trkpt>
      <trkpt lat="47.47548" lon="6.772">
        <ele>310</ele>
        <time>2016-03-13T11:11:02.000Z</time>
      </trkpt>
      <trkpt lat="47.47544" lon="6.77198">
        <ele>310</ele>
        <time>2016-03-13T11:11:03.000Z</time>
      </trkpt>
      <trkpt lat="47.4754" lon="6.77195">
        <ele>310</ele>
        <time>2016-03-13T11:11:04.000Z</time>
      </trkpt>
      <trkpt lat="47.47536" lon="6.77193">
        <ele>310</ele>
        <time>2016-03-13T11:11:05.000Z</time>
      </trkpt>
      <trkpt lat="47.47532" lon="6.77191">
        <ele>310</ele>
        <time>2016-03-13T11:11:06.000Z</time>
      </trkpt>
      <trkpt lat="47.47529" lon="6.77188">
        <ele>310</ele>
        <time>2016-03-13T11:11:07.000Z</time>
      </trkpt>
      <trkpt lat="47.47526" lon="6.77185">
        <ele>310</ele>
        <time>2016-03-13T11:11:08.000Z</time>
      </trkpt>
      <trkpt lat="47.47523" lon="6.77183">
        <ele>310</ele>
        <time>2016-03-13T11:11:09.000Z</time>
      </trkpt>
      <trkpt lat="47.47521" lon="6.77179">
        <ele>310</ele>
        <time>2016-03-13T11:11:10.000Z</time>
      </trkpt>
      <trkpt lat="47.47519" lon="6.77173">
        <ele>310</ele>
        <time>2016-03-13T11:11:11.000Z</time>
      </trkpt>
      <trkpt lat="47.47518" lon="6.77166">
        <ele>309</ele>
        <time>2016-03-13T11:11:12.000Z</time>
      </trkpt>
      <trkpt lat="47.47518" lon="6.77159">
        <ele>310</ele>
        <time>2016-03-13T11:11:13.000Z</time>
      </trkpt>
      <trkpt lat="47.47517" lon="6.77153">
        <ele>310</ele>
        <time>2016-03-13T11:11:14.000Z</time>
      </trkpt>
      <trkpt lat="47.47518" lon="6.77145">
        <ele>310</ele>
        <time>2016-03-13T11:11:15.000Z</time>
      </trkpt>
      <trkpt lat="47.47519" lon="6.77136">
        <ele>310</ele>
        <time>2016-03-13T11:11:16.000Z</time>
      </trkpt>
      <trkpt lat="47.47526" lon="6.77135">
        <ele>310</ele>
        <time>2016-03-13T11:11:17.000Z</time>
      </trkpt>
      <trkpt lat="47.47531" lon="6.77134">
        <ele>310</ele>
        <time>2016-03-13T11:11:18.000Z</time>
      </trkpt>
      <trkpt lat="47.47537" lon="6.77137">
        <ele>310</ele>
        <time>2016-03-13T11:11:19.000Z</time>
      </trkpt>
      <trkpt lat="47.4754" lon="6.7714">
        <ele>310</ele>
        <time>2016-03-13T11:11:20.000Z</time>
      </trkpt>
      <trkpt lat="47.47545" lon="6.77143">
        <ele>310</ele>
        <time>2016-03-13T11:11:21.000Z</time>
      </trkpt>
      <trkpt lat="47.47548" lon="6.77146">
        <ele>310</ele>
        <time>2016-03-13T11:11:22.000Z</time>
      </trkpt>
      <trkpt lat="47.47552" lon="6.7715">
        <ele>310</ele>
        <time>2016-03-13T11:11:23.000Z</time>
      </trkpt>
      <trkpt lat="47.47556" lon="6.77154">
        <ele>310</ele>
        <time>2016-03-13T11:11:24.000Z</time>
      </trkpt>
      <trkpt lat="47.4756" lon="6.77157">
        <ele>310</ele>
        <time>2016-03-13T11:11:25.000Z</time>
      </trkpt>
      <trkpt lat="47.47564" lon="6.77161">
        <ele>310</ele>
        <time>2016-03-13T11:11:26.000Z</time>
      </trkpt>
      <trkpt lat="47.47567" lon="6.77163">
        <ele>309</ele>
        <time>2016-03-13T11:11:27.000Z</time>
      </trkpt>
      <trkpt lat="47.47572" lon="6.77168">
        <ele>310</ele>
        <time>2016-03-13T11:11:28.000Z</time>
      </trkpt>
      <trkpt lat="47.47576" lon="6.77171">
        <ele>309</ele>
        <time>2016-03-13T11:11:29.000Z</time>
      </trkpt>
      <trkpt lat="47.47581" lon="6.77174">
        <ele>309</ele>
        <time>2016-03-13T11:11:30.000Z</time>
      </trkpt>
      <trkpt lat="47.47585" lon="6.77177">
        <ele>309</ele>
        <time>2016-03-13T11:11:31.000Z</time>
      </trkpt>
      <trkpt lat="47.4759" lon="6.77181">
        <ele>310</ele>
        <time>2016-03-13T11:11:32.000Z</time>
      </trkpt>
      <trkpt lat="47.47593" lon="6.77182">
        <ele>310</ele>
        <time>2016-03-13T11:11:33.000Z</time>
      </trkpt>
      <trkpt lat="47.47597" lon="6.77185">
        <ele>310</ele>
        <time>2016-03-13T11:11:34.000Z</time>
      </trkpt>
      <trkpt lat="47.47602" lon="6.77187">
        <ele>310</ele>
        <time>2016-03-13T11:11:35.000Z</time>
      </trkpt>
      <trkpt lat="47.47606" lon="6.77189">
        <ele>310</ele>
        <time>2016-03-13T11:11:36.000Z</time>
      </trkpt>
      <trkpt lat="47.47611" lon="6.77187">
        <ele>310</ele>
        <time>2016-03-13T11:11:37.000Z</time>
      </trkpt>
      <trkpt lat="47.47615" lon="6.77183">
        <ele>310</ele>
        <time>2016-03-13T11:11:38.000Z</time>
      </trkpt>
      <trkpt lat="47.47618" lon="6.77176">
        <ele>310</ele>
        <time>2016-03-13T11:11:39.000Z</time>
      </trkpt>
      <trkpt lat="47.4762" lon="6.77169">
        <ele>310</ele>
        <time>2016-03-13T11:11:40.000Z</time>
      </trkpt>
      <trkpt lat="47.47623" lon="6.77164">
        <ele>310</ele>
        <time>2016-03-13T11:11:41.000Z</time>
      </trkpt>
      <trkpt lat="47.47625" lon="6.77158">
        <ele>310</ele>
        <time>2016-03-13T11:11:42.000Z</time>
      </trkpt>
      <trkpt lat="47.47628" lon="6.77151">
        <ele>310</ele>
        <time>2016-03-13T11:11:43.000Z</time>
      </trkpt>
      <trkpt lat="47.4763" lon="6.77145">
        <ele>310</ele>
        <time>2016-03-13T11:11:44.000Z</time>
      </trkpt>
      <trkpt lat="47.47633" lon="6.7714">
        <ele>310</ele>
        <time>2016-03-13T11:11:45.000Z</time>
      </trkpt>
      <trkpt lat="47.47634" lon="6.77135">
        <ele>310</ele>
        <time>2016-03-13T11:11:46.000Z</time>
      </trkpt>
      <trkpt lat="47.47636" lon="6.7713">
        <ele>310</ele>
        <time>2016-03-13T11:11:47.000Z</time>
      </trkpt>
      <trkpt lat="47.47636" lon="6.77125">
        <ele>310</ele>
        <time>2016-03-13T11:11:48.000Z</time>
      </trkpt>
      <trkpt lat="47.47638" lon="6.77119">
        <ele>310</ele>
        <time>2016-03-13T11:11:49.000Z</time>
      </trkpt>
      <trkpt lat="47.47638" lon="6.77114">
        <ele>310</ele>
        <time>2016-03-13T11:11:50.000Z</time>
      </trkpt>
      <trkpt lat="47.47639" lon="6.77109">
        <ele>310</ele>
        <time>2016-03-13T11:11:51.000Z</time>
      </trkpt>
      <trkpt lat="47.4764" lon="6.77104">
        <ele>310</ele>
        <time>2016-03-13T11:11:52.000Z</time>
      </trkpt>
      <trkpt lat="47.47641" lon="6.771">
        <ele>311</ele>
        <time>2016-03-13T11:11:53.000Z</time>
      </trkpt>
      <trkpt lat="47.47642" lon="6.77095">
        <ele>311</ele>
        <time>2016-03-13T11:11:54.000Z</time>
      </trkpt>
      <trkpt lat="47.47643" lon="6.77091">
        <ele>311</ele>
        <time>2016-03-13T11:11:55.000Z</time>
      </trkpt>
      <trkpt lat="47.47644" lon="6.77087">
        <ele>311</ele>
        <time>2016-03-13T11:11:56.000Z</time>
      </trkpt>
      <trkpt lat="47.47645" lon="6.77082">
        <ele>311</ele>
        <time>2016-03-13T11:11:57.000Z</time>
      </trkpt>
      <trkpt lat="47.47646" lon="6.77078">
        <ele>311</ele>
        <time>2016-03-13T11:11:58.000Z</time>
      </trkpt>
      <trkpt lat="47.47647" lon="6.77075">
        <ele>311</ele>
        <time>2016-03-13T11:11:59.000Z</time>
      </trkpt>
      <trkpt lat="47.47648" lon="6.77071">
        <ele>311</ele>
        <time>2016-03-13T11:12:00.000Z</time>
      </trkpt>
      <trkpt lat="47.47649" lon="6.77066">
        <ele>311</ele>
        <time>2016-03-13T11:12:01.000Z</time>
      </trkpt>
      <trkpt lat="47.4765" lon="6.77061">
        <ele>311</ele>
        <time>2016-03-13T11:12:02.000Z</time>
      </trkpt>
      <trkpt lat="47.47651" lon="6.77055">
        <ele>311</ele>
        <time>2016-03-13T11:12:03.000Z</time>
      </trkpt>
      <trkpt lat="47.47652" lon="6.77048">
        <ele>311</ele>
        <time>2016-03-13T11:12:04.000Z</time>
      </trkpt>
      <trkpt lat="47.47654" lon="6.77035">
        <ele>311</ele>
        <time>2016-03-13T11:12:05.000Z</time>
      </trkpt>
      <trkpt lat="47.47656" lon="6.77026">
        <ele>311</ele>
        <time>2016-03-13T11:12:06.000Z</time>
      </trkpt>
      <trkpt lat="47.47657" lon="6.77018">
        <ele>311</ele>
        <time>2016-03-13T11:12:07.000Z</time>
      </trkpt>
      <trkpt lat="47.47659" lon="6.77008">
        <ele>311</ele>
        <time>2016-03-13T11:12:08.000Z</time>
      </trkpt>
      <trkpt lat="47.47662" lon="6.76999">
        <ele>311</ele>
        <time>2016-03-13T11:12:09.000Z</time>
      </trkpt>
      <trkpt lat="47.47666" lon="6.7699">
        <ele>311</ele>
        <time>2016-03-13T11:12:10.000Z</time>
      </trkpt>
      <trkpt lat="47.47669" lon="6.76981">
        <ele>311</ele>
        <time>2016-03-13T11:12:11.000Z</time>
      </trkpt>
      <trkpt lat="47.47673" lon="6.76971">
        <ele>311</ele>
        <time>2016-03-13T11:12:12.000Z</time>
      </trkpt>
      <trkpt lat="47.47676" lon="6.7696">
        <ele>311</ele>
        <time>2016-03-13T11:12:13.000Z</time>
      </trkpt>
      <trkpt lat="47.4768" lon="6.76951">
        <ele>311</ele>
        <time>2016-03-13T11:12:14.000Z</time>
      </trkpt>
      <trkpt lat="47.47684" lon="6.76941">
        <ele>311</ele>
        <time>2016-03-13T11:12:15.000Z</time>
      </trkpt>
      <trkpt lat="47.47687" lon="6.76932">
        <ele>311</ele>
        <time>2016-03-13T11:12:16.000Z</time>
      </trkpt>
      <trkpt lat="47.4769" lon="6.76923">
        <ele>311</ele>
        <time>2016-03-13T11:12:17.000Z</time>
      </trkpt>
      <trkpt lat="47.47694" lon="6.76915">
        <ele>311</ele>
        <time>2016-03-13T11:12:18.000Z</time>
      </trkpt>
      <trkpt lat="47.47697" lon="6.76906">
        <ele>311</ele>
        <time>2016-03-13T11:12:19.000Z</time>
      </trkpt>
      <trkpt lat="47.477" lon="6.76898">
        <ele>311</ele>
        <time>2016-03-13T11:12:20.000Z</time>
      </trkpt>
      <trkpt lat="47.47703" lon="6.7689">
        <ele>311</ele>
        <time>2016-03-13T11:12:21.000Z</time>
      </trkpt>
      <trkpt lat="47.47705" lon="6.76883">
        <ele>311</ele>
        <time>2016-03-13T11:12:22.000Z</time>
      </trkpt>
      <trkpt lat="47.47707" lon="6.76876">
        <ele>311</ele>
        <time>2016-03-13T11:12:23.000Z</time>
      </trkpt>
      <trkpt lat="47.4771" lon="6.7687">
        <ele>311</ele>
        <time>2016-03-13T11:12:24.000Z</time>
      </trkpt>
      <trkpt lat="47.47713" lon="6.76863">
        <ele>311</ele>
        <time>2016-03-13T11:12:25.000Z</time>
      </trkpt>
      <trkpt lat="47.47714" lon="6.76858">
        <ele>311</ele>
        <time>2016-03-13T11:12:26.000Z</time>
      </trkpt>
      <trkpt lat="47.47716" lon="6.76852">
        <ele>311</ele>
        <time>2016-03-13T11:12:27.000Z</time>
      </trkpt>
      <trkpt lat="47.47719" lon="6.76844">
        <ele>311</ele>
        <time>2016-03-13T11:12:28.000Z</time>
      </trkpt>
      <trkpt lat="47.47721" lon="6.76838">
        <ele>311</ele>
        <time>2016-03-13T11:12:29.000Z</time>
      </trkpt>
      <trkpt lat="47.47724" lon="6.76832">
        <ele>311</ele>
        <time>2016-03-13T11:12:30.000Z</time>
      </trkpt>
      <trkpt lat="47.47727" lon="6.76824">
        <ele>311</ele>
        <time>2016-03-13T11:12:31.000Z</time>
      </trkpt>
      <trkpt lat="47.47729" lon="6.76819">
        <ele>311</ele>
        <time>2016-03-13T11:12:32.000Z</time>
      </trkpt>
      <trkpt lat="47.47732" lon="6.76814">
        <ele>311</ele>
        <time>2016-03-13T11:12:33.000Z</time>
      </trkpt>
      <trkpt lat="47.47735" lon="6.76811">
        <ele>311</ele>
        <time>2016-03-13T11:12:34.000Z</time>
      </trkpt>
      <trkpt lat="47.47738" lon="6.76807">
        <ele>311</ele>
        <time>2016-03-13T11:12:35.000Z</time>
      </trkpt>
      <trkpt lat="47.4774" lon="6.76804">
        <ele>311</ele>
        <time>2016-03-13T11:12:36.000Z</time>
      </trkpt>
      <trkpt lat="47.47742" lon="6.76804">
        <ele>311</ele>
        <time>2016-03-13T11:12:37.000Z</time>
      </trkpt>
      <trkpt lat="47.47745" lon="6.76803">
        <ele>311</ele>
        <time>2016-03-13T11:12:38.000Z</time>
      </trkpt>
      <trkpt lat="47.47747" lon="6.76804">
        <ele>311</ele>
        <time>2016-03-13T11:12:39.000Z</time>
      </trkpt>
      <trkpt lat="47.4775" lon="6.76803">
        <ele>311</ele>
        <time>2016-03-13T11:12:40.000Z</time>
      </trkpt>
      <trkpt lat="47.47753" lon="6.76802">
        <ele>311</ele>
        <time>2016-03-13T11:12:41.000Z</time>
      </trkpt>
      <trkpt lat="47.47755" lon="6.76803">
        <ele>311</ele>
        <time>2016-03-13T11:12:42.000Z</time>
      </trkpt>
      <trkpt lat="47.47757" lon="6.76804">
        <ele>311</ele>
        <time>2016-03-13T11:12:43.000Z</time>
      </trkpt>
      <trkpt lat="47.4776" lon="6.76806">
        <ele>311</ele>
        <time>2016-03-13T11:12:44.000Z</time>
      </trkpt>
      <trkpt lat="47.47762" lon="6.76809">
        <ele>311</ele>
        <time>2016-03-13T11:12:45.000Z</time>
      </trkpt>
      <trkpt lat="47.47765" lon="6.76812">
        <ele>311</ele>
        <time>2016-03-13T11:12:46.000Z</time>
      </trkpt>
      <trkpt lat="47.47767" lon="6.76814">
        <ele>311</ele>
        <time>2016-03-13T11:12:47.000Z</time>
      </trkpt>
      <trkpt lat="47.4777" lon="6.76815">
        <ele>311</ele>
        <time>2016-03-13T11:12:48.000Z</time>
      </trkpt>
      <trkpt lat="47.47772" lon="6.76817">
        <ele>311</ele>
        <time>2016-03-13T11:12:49.000Z</time>
      </trkpt>
      <trkpt lat="47.47775" lon="6.76818">
        <ele>311</ele>
        <time>2016-03-13T11:12:50.000Z</time>
      </trkpt>
      <trkpt lat="47.47779" lon="6.7682">
        <ele>311</ele>
        <time>2016-03-13T11:12:51.000Z</time>
      </trkpt>
      <trkpt lat="47.47782" lon="6.76822">
        <ele>311</ele>
        <time>2016-03-13T11:12:52.000Z</time>
      </trkpt>
      <trkpt lat="47.47787" lon="6.76824">
        <ele>311</ele>
        <time>2016-03-13T11:12:53.000Z</time>
      </trkpt>
      <trkpt lat="47.47791" lon="6.76826">
        <ele>311</ele>
        <time>2016-03-13T11:12:54.000Z</time>
      </trkpt>
      <trkpt lat="47.47795" lon="6.76828">
        <ele>310</ele>
        <time>2016-03-13T11:12:55.000Z</time>
      </trkpt>
      <trkpt lat="47.478" lon="6.7683">
        <ele>310</ele>
        <time>2016-03-13T11:12:56.000Z</time>
      </trkpt>
      <trkpt lat="47.47804" lon="6.76831">
        <ele>310</ele>
        <time>2016-03-13T11:12:57.000Z</time>
      </trkpt>
      <trkpt lat="47.47808" lon="6.76832">
        <ele>310</ele>
        <time>2016-03-13T11:12:58.000Z</time>
      </trkpt>
      <trkpt lat="47.47811" lon="6.76834">
        <ele>311</ele>
        <time>2016-03-13T11:12:59.000Z</time>
      </trkpt>
      <trkpt lat="47.47814" lon="6.76835">
        <ele>311</ele>
        <time>2016-03-13T11:13:00.000Z</time>
      </trkpt>
      <trkpt lat="47.47818" lon="6.76836">
        <ele>310</ele>
        <time>2016-03-13T11:13:01.000Z</time>
      </trkpt>
      <trkpt lat="47.47821" lon="6.76838">
        <ele>310</ele>
        <time>2016-03-13T11:13:02.000Z</time>
      </trkpt>
      <trkpt lat="47.47824" lon="6.7684">
        <ele>310</ele>
        <time>2016-03-13T11:13:03.000Z</time>
      </trkpt>
      <trkpt lat="47.47828" lon="6.76835">
        <ele>310</ele>
        <time>2016-03-13T11:13:04.000Z</time>
      </trkpt>
      <trkpt lat="47.47831" lon="6.7683">
        <ele>310</ele>
        <time>2016-03-13T11:13:05.000Z</time>
      </trkpt>
      <trkpt lat="47.47834" lon="6.76822">
        <ele>310</ele>
        <time>2016-03-13T11:13:06.000Z</time>
      </trkpt>
      <trkpt lat="47.47837" lon="6.76815">
        <ele>311</ele>
        <time>2016-03-13T11:13:07.000Z</time>
      </trkpt>
      <trkpt lat="47.47843" lon="6.76813">
        <ele>311</ele>
        <time>2016-03-13T11:13:08.000Z</time>
      </trkpt>
      <trkpt lat="47.47848" lon="6.76803">
        <ele>311</ele>
        <time>2016-03-13T11:13:09.000Z</time>
      </trkpt>
      <trkpt lat="47.47851" lon="6.76794">
        <ele>311</ele>
        <time>2016-03-13T11:13:10.000Z</time>
      </trkpt>
      <trkpt lat="47.47855" lon="6.76787">
        <ele>311</ele>
        <time>2016-03-13T11:13:11.000Z</time>
      </trkpt>
      <trkpt lat="47.4786" lon="6.76776">
        <ele>311</ele>
        <time>2016-03-13T11:13:12.000Z</time>
      </trkpt>
      <trkpt lat="47.4786" lon="6.76766">
        <ele>311</ele>
        <time>2016-03-13T11:13:13.000Z</time>
      </trkpt>
      <trkpt lat="47.47863" lon="6.76757">
        <ele>311</ele>
        <time>2016-03-13T11:13:14.000Z</time>
      </trkpt>
      <trkpt lat="47.47866" lon="6.76749">
        <ele>310</ele>
        <time>2016-03-13T11:13:15.000Z</time>
      </trkpt>
      <trkpt lat="47.4787" lon="6.76742">
        <ele>310</ele>
        <time>2016-03-13T11:13:16.000Z</time>
      </trkpt>
      <trkpt lat="47.47873" lon="6.76736">
        <ele>310</ele>
        <time>2016-03-13T11:13:17.000Z</time>
      </trkpt>
      <trkpt lat="47.47876" lon="6.76728">
        <ele>310</ele>
        <time>2016-03-13T11:13:18.000Z</time>
      </trkpt>
      <trkpt lat="47.4788" lon="6.76718">
        <ele>310</ele>
        <time>2016-03-13T11:13:19.000Z</time>
      </trkpt>
      <trkpt lat="47.47884" lon="6.76712">
        <ele>310</ele>
        <time>2016-03-13T11:13:20.000Z</time>
      </trkpt>
      <trkpt lat="47.47888" lon="6.76704">
        <ele>310</ele>
        <time>2016-03-13T11:13:21.000Z</time>
      </trkpt>
      <trkpt lat="47.47891" lon="6.76696">
        <ele>310</ele>
        <time>2016-03-13T11:13:22.000Z</time>
      </trkpt>
      <trkpt lat="47.47894" lon="6.7669">
        <ele>310</ele>
        <time>2016-03-13T11:13:23.000Z</time>
      </trkpt>
      <trkpt lat="47.47896" lon="6.76678">
        <ele>310</ele>
        <time>2016-03-13T11:13:24.000Z</time>
      </trkpt>
      <trkpt lat="47.47898" lon="6.76671">
        <ele>311</ele>
        <time>2016-03-13T11:13:25.000Z</time>
      </trkpt>
      <trkpt lat="47.47902" lon="6.76666">
        <ele>310</ele>
        <time>2016-03-13T11:13:26.000Z</time>
      </trkpt>
      <trkpt lat="47.47906" lon="6.76662">
        <ele>311</ele>
        <time>2016-03-13T11:13:27.000Z</time>
      </trkpt>
      <trkpt lat="47.47912" lon="6.76669">
        <ele>311</ele>
        <time>2016-03-13T11:13:28.000Z</time>
      </trkpt>
      <trkpt lat="47.47916" lon="6.7666">
        <ele>311</ele>
        <time>2016-03-13T11:13:29.000Z</time>
      </trkpt>
      <trkpt lat="47.47919" lon="6.76656">
        <ele>311</ele>
        <time>2016-03-13T11:13:30.000Z</time>
      </trkpt>
      <trkpt lat="47.47923" lon="6.76656">
        <ele>311</ele>
        <time>2016-03-13T11:13:31.000Z</time>
      </trkpt>
      <trkpt lat="47.47927" lon="6.76654">
        <ele>311</ele>
        <time>2016-03-13T11:13:32.000Z</time>
      </trkpt>
      <trkpt lat="47.4793" lon="6.76651">
        <ele>311</ele>
        <time>2016-03-13T11:13:33.000Z</time>
      </trkpt>
      <trkpt lat="47.47933" lon="6.76648">
        <ele>311</ele>
        <time>2016-03-13T11:13:34.000Z</time>
      </trkpt>
      <trkpt lat="47.47936" lon="6.76644">
        <ele>311</ele>
        <time>2016-03-13T11:13:35.000Z</time>
      </trkpt>
      <trkpt lat="47.47939" lon="6.76643">
        <ele>311</ele>
        <time>2016-03-13T11:13:36.000Z</time>
      </trkpt>
      <trkpt lat="47.47941" lon="6.76642">
        <ele>311</ele>
        <time>2016-03-13T11:13:37.000Z</time>
      </trkpt>
      <trkpt lat="47.47944" lon="6.76641">
        <ele>311</ele>
        <time>2016-03-13T11:13:38.000Z</time>
      </trkpt>
      <trkpt lat="47.47947" lon="6.7664">
        <ele>311</ele>
        <time>2016-03-13T11:13:39.000Z</time>
      </trkpt>
      <trkpt lat="47.4795" lon="6.76639">
        <ele>311</ele>
        <time>2016-03-13T11:13:40.000Z</time>
      </trkpt>
      <trkpt lat="47.47952" lon="6.76639">
        <ele>311</ele>
        <time>2016-03-13T11:13:41.000Z</time>
      </trkpt>
      <trkpt lat="47.47955" lon="6.76638">
        <ele>311</ele>
        <time>2016-03-13T11:13:42.000Z</time>
      </trkpt>
      <trkpt lat="47.47958" lon="6.76637">
        <ele>311</ele>
        <time>2016-03-13T11:13:43.000Z</time>
      </trkpt>
      <trkpt lat="47.47961" lon="6.76636">
        <ele>311</ele>
        <time>2016-03-13T11:13:44.000Z</time>
      </trkpt>
      <trkpt lat="47.47964" lon="6.76635">
        <ele>311</ele>
        <time>2016-03-13T11:13:45.000Z</time>
      </trkpt>
      <trkpt lat="47.47966" lon="6.76634">
        <ele>311</ele>
        <time>2016-03-13T11:13:46.000Z</time>
      </trkpt>
      <trkpt lat="47.47969" lon="6.76634">
        <ele>311</ele>
        <time>2016-03-13T11:13:47.000Z</time>
      </trkpt>
      <trkpt lat="47.47972" lon="6.76633">
        <ele>311</ele>
        <time>2016-03-13T11:13:48.000Z</time>
      </trkpt>
      <trkpt lat="47.47975" lon="6.76633">
        <ele>311</ele>
        <time>2016-03-13T11:13:49.000Z</time>
      </trkpt>
      <trkpt lat="47.47977" lon="6.76632">
        <ele>311</ele>
        <time>2016-03-13T11:13:50.000Z</time>
      </trkpt>
      <trkpt lat="47.4798" lon="6.76631">
        <ele>311</ele>
        <time>2016-03-13T11:13:51.000Z</time>
      </trkpt>
      <trkpt lat="47.47983" lon="6.7663">
        <ele>311</ele>
        <time>2016-03-13T11:13:52.000Z</time>
      </trkpt>
      <trkpt lat="47.47987" lon="6.76628">
        <ele>311</ele>
        <time>2016-03-13T11:13:53.000Z</time>
      </trkpt>
      <trkpt lat="47.4799" lon="6.76625">
        <ele>311</ele>
        <time>2016-03-13T11:13:54.000Z</time>
      </trkpt>
      <trkpt lat="47.47993" lon="6.76621">
        <ele>312</ele>
        <time>2016-03-13T11:13:55.000Z</time>
      </trkpt>
      <trkpt lat="47.47996" lon="6.76618">
        <ele>312</ele>
        <time>2016-03-13T11:13:56.000Z</time>
      </trkpt>
      <trkpt lat="47.47999" lon="6.76616">
        <ele>312</ele>
        <time>2016-03-13T11:13:57.000Z</time>
      </trkpt>
      <trkpt lat="47.48002" lon="6.76614">
        <ele>312</ele>
        <time>2016-03-13T11:13:58.000Z</time>
      </trkpt>
      <trkpt lat="47.48006" lon="6.76612">
        <ele>312</ele>
        <time>2016-03-13T11:13:59.000Z</time>
      </trkpt>
      <trkpt lat="47.48009" lon="6.7661">
        <ele>312</ele>
        <time>2016-03-13T11:14:00.000Z</time>
      </trkpt>
      <trkpt lat="47.48012" lon="6.76608">
        <ele>312</ele>
        <time>2016-03-13T11:14:01.000Z</time>
      </trkpt>
      <trkpt lat="47.48016" lon="6.76606">
        <ele>312</ele>
        <time>2016-03-13T11:14:02.000Z</time>
      </trkpt>
      <trkpt lat="47.4802" lon="6.76603">
        <ele>312</ele>
        <time>2016-03-13T11:14:03.000Z</time>
      </trkpt>
      <trkpt lat="47.48023" lon="6.76601">
        <ele>312</ele>
        <time>2016-03-13T11:14:04.000Z</time>
      </trkpt>
      <trkpt lat="47.48027" lon="6.76598">
        <ele>312</ele>
        <time>2016-03-13T11:14:05.000Z</time>
      </trkpt>
      <trkpt lat="47.48031" lon="6.76595">
        <ele>312</ele>
        <time>2016-03-13T11:14:06.000Z</time>
      </trkpt>
      <trkpt lat="47.48035" lon="6.76591">
        <ele>312</ele>
        <time>2016-03-13T11:14:07.000Z</time>
      </trkpt>
      <trkpt lat="47.48039" lon="6.76588">
        <ele>312</ele>
        <time>2016-03-13T11:14:08.000Z</time>
      </trkpt>
      <trkpt lat="47.48043" lon="6.76584">
        <ele>312</ele>
        <time>2016-03-13T11:14:09.000Z</time>
      </trkpt>
      <trkpt lat="47.48047" lon="6.7658">
        <ele>312</ele>
        <time>2016-03-13T11:14:10.000Z</time>
      </trkpt>
      <trkpt lat="47.48051" lon="6.76575">
        <ele>312</ele>
        <time>2016-03-13T11:14:11.000Z</time>
      </trkpt>
      <trkpt lat="47.48055" lon="6.76571">
        <ele>312</ele>
        <time>2016-03-13T11:14:12.000Z</time>
      </trkpt>
      <trkpt lat="47.48059" lon="6.76566">
        <ele>312</ele>
        <time>2016-03-13T11:14:13.000Z</time>
      </trkpt>
      <trkpt lat="47.48063" lon="6.76562">
        <ele>312</ele>
        <time>2016-03-13T11:14:14.000Z</time>
      </trkpt>
      <trkpt lat="47.48066" lon="6.76558">
        <ele>312</ele>
        <time>2016-03-13T11:14:15.000Z</time>
      </trkpt>
      <trkpt lat="47.4807" lon="6.76554">
        <ele>312</ele>
        <time>2016-03-13T11:14:16.000Z</time>
      </trkpt>
      <trkpt lat="47.48074" lon="6.76551">
        <ele>312</ele>
        <time>2016-03-13T11:14:17.000Z</time>
      </trkpt>
      <trkpt lat="47.48078" lon="6.76547">
        <ele>312</ele>
        <time>2016-03-13T11:14:18.000Z</time>
      </trkpt>
      <trkpt lat="47.48082" lon="6.76544">
        <ele>312</ele>
        <time>2016-03-13T11:14:19.000Z</time>
      </trkpt>
      <trkpt lat="47.48086" lon="6.7654">
        <ele>317</ele>
        <time>2016-03-13T11:14:20.000Z</time>
      </trkpt>
      <trkpt lat="47.48089" lon="6.76537">
        <ele>317</ele>
        <time>2016-03-13T11:14:21.000Z</time>
      </trkpt>
      <trkpt lat="47.48093" lon="6.76533">
        <ele>318</ele>
        <time>2016-03-13T11:14:22.000Z</time>
      </trkpt>
      <trkpt lat="47.48097" lon="6.76529">
        <ele>318</ele>
        <time>2016-03-13T11:14:23.000Z</time>
      </trkpt>
      <trkpt lat="47.481" lon="6.76525">
        <ele>318</ele>
        <time>2016-03-13T11:14:24.000Z</time>
      </trkpt>
      <trkpt lat="47.48104" lon="6.76522">
        <ele>318</ele>
        <time>2016-03-13T11:14:25.000Z</time>
      </trkpt>
      <trkpt lat="47.48107" lon="6.7652">
        <ele>319</ele>
        <time>2016-03-13T11:14:26.000Z</time>
      </trkpt>
      <trkpt lat="47.4811" lon="6.76521">
        <ele>319</ele>
        <time>2016-03-13T11:14:27.000Z</time>
      </trkpt>
      <trkpt lat="47.48112" lon="6.76524">
        <ele>319</ele>
        <time>2016-03-13T11:14:28.000Z</time>
      </trkpt>
      <trkpt lat="47.48114" lon="6.76528">
        <ele>320</ele>
        <time>2016-03-13T11:14:29.000Z</time>
      </trkpt>
      <trkpt lat="47.48116" lon="6.76532">
        <ele>320</ele>
        <time>2016-03-13T11:14:30.000Z</time>
      </trkpt>
      <trkpt lat="47.48117" lon="6.76536">
        <ele>320</ele>
        <time>2016-03-13T11:14:31.000Z</time>
      </trkpt>
      <trkpt lat="47.48119" lon="6.7654">
        <ele>320</ele>
        <time>2016-03-13T11:14:32.000Z</time>
      </trkpt>
      <trkpt lat="47.4812" lon="6.76544">
        <ele>319</ele>
        <time>2016-03-13T11:14:33.000Z</time>
      </trkpt>
      <trkpt lat="47.4812" lon="6.76549">
        <ele>319</ele>
        <time>2016-03-13T11:14:34.000Z</time>
      </trkpt>
      <trkpt lat="47.4812" lon="6.76553">
        <ele>319</ele>
        <time>2016-03-13T11:14:35.000Z</time>
      </trkpt>
      <trkpt lat="47.48117" lon="6.76558">
        <ele>319</ele>
        <time>2016-03-13T11:14:36.000Z</time>
      </trkpt>
      <trkpt lat="47.48114" lon="6.76561">
        <ele>318</ele>
        <time>2016-03-13T11:14:37.000Z</time>
      </trkpt>
      <trkpt lat="47.4811" lon="6.76565">
        <ele>318</ele>
        <time>2016-03-13T11:14:38.000Z</time>
      </trkpt>
      <trkpt lat="47.48106" lon="6.76569">
        <ele>317</ele>
        <time>2016-03-13T11:14:39.000Z</time>
      </trkpt>
      <trkpt lat="47.48102" lon="6.76573">
        <ele>316</ele>
        <time>2016-03-13T11:14:40.000Z</time>
      </trkpt>
      <trkpt lat="47.48098" lon="6.76577">
        <ele>315</ele>
        <time>2016-03-13T11:14:41.000Z</time>
      </trkpt>
      <trkpt lat="47.48095" lon="6.76583">
        <ele>315</ele>
        <time>2016-03-13T11:14:42.000Z</time>
      </trkpt>
      <trkpt lat="47.48093" lon="6.76599">
        <ele>313</ele>
        <time>2016-03-13T11:14:43.000Z</time>
      </trkpt>
      <trkpt lat="47.48092" lon="6.76606">
        <ele>313</ele>
        <time>2016-03-13T11:14:44.000Z</time>
      </trkpt>
      <trkpt lat="47.48093" lon="6.76614">
        <ele>313</ele>
        <time>2016-03-13T11:14:45.000Z</time>
      </trkpt>
      <trkpt lat="47.48094" lon="6.76619">
        <ele>313</ele>
        <time>2016-03-13T11:14:46.000Z</time>
      </trkpt>
      <trkpt lat="47.48097" lon="6.76625">
        <ele>313</ele>
        <time>2016-03-13T11:14:47.000Z</time>
      </trkpt>
      <trkpt lat="47.48098" lon="6.76631">
        <ele>313</ele>
        <time>2016-03-13T11:14:48.000Z</time>
      </trkpt>
      <trkpt lat="47.48101" lon="6.76638">
        <ele>313</ele>
        <time>2016-03-13T11:14:49.000Z</time>
      </trkpt>
      <trkpt lat="47.48104" lon="6.76644">
        <ele>312</ele>
        <time>2016-03-13T11:14:50.000Z</time>
      </trkpt>
      <trkpt lat="47.48106" lon="6.76648">
        <ele>312</ele>
        <time>2016-03-13T11:14:51.000Z</time>
      </trkpt>
      <trkpt lat="47.48108" lon="6.76653">
        <ele>312</ele>
        <time>2016-03-13T11:14:52.000Z</time>
      </trkpt>
      <trkpt lat="47.48111" lon="6.76658">
        <ele>312</ele>
        <time>2016-03-13T11:14:53.000Z</time>
      </trkpt>
      <trkpt lat="47.48114" lon="6.76662">
        <ele>312</ele>
        <time>2016-03-13T11:14:54.000Z</time>
      </trkpt>
      <trkpt lat="47.48116" lon="6.76666">
        <ele>312</ele>
        <time>2016-03-13T11:14:55.000Z</time>
      </trkpt>
      <trkpt lat="47.48118" lon="6.76671">
        <ele>312</ele>
        <time>2016-03-13T11:14:56.000Z</time>
      </trkpt>
      <trkpt lat="47.48123" lon="6.76677">
        <ele>312</ele>
        <time>2016-03-13T11:14:57.000Z</time>
      </trkpt>
      <trkpt lat="47.48124" lon="6.76682">
        <ele>312</ele>
        <time>2016-03-13T11:14:58.000Z</time>
      </trkpt>
      <trkpt lat="47.48127" lon="6.76687">
        <ele>312</ele>
        <time>2016-03-13T11:14:59.000Z</time>
      </trkpt>
      <trkpt lat="47.4813" lon="6.76695">
        <ele>312</ele>
        <time>2016-03-13T11:15:00.000Z</time>
      </trkpt>
      <trkpt lat="47.48133" lon="6.76702">
        <ele>312</ele>
        <time>2016-03-13T11:15:01.000Z</time>
      </trkpt>
      <trkpt lat="47.48136" lon="6.76709">
        <ele>312</ele>
        <time>2016-03-13T11:15:02.000Z</time>
      </trkpt>
      <trkpt lat="47.48139" lon="6.76716">
        <ele>312</ele>
        <time>2016-03-13T11:15:03.000Z</time>
      </trkpt>
      <trkpt lat="47.48142" lon="6.76723">
        <ele>312</ele>
        <time>2016-03-13T11:15:04.000Z</time>
      </trkpt>
      <trkpt lat="47.48145" lon="6.76728">
        <ele>312</ele>
        <time>2016-03-13T11:15:05.000Z</time>
      </trkpt>
      <trkpt lat="47.48147" lon="6.76733">
        <ele>312</ele>
        <time>2016-03-13T11:15:06.000Z</time>
      </trkpt>
      <trkpt lat="47.48148" lon="6.76738">
        <ele>312</ele>
        <time>2016-03-13T11:15:07.000Z</time>
      </trkpt>
      <trkpt lat="47.48151" lon="6.76743">
        <ele>313</ele>
        <time>2016-03-13T11:15:08.000Z</time>
      </trkpt>
      <trkpt lat="47.48153" lon="6.76747">
        <ele>313</ele>
        <time>2016-03-13T11:15:09.000Z</time>
      </trkpt>
      <trkpt lat="47.48155" lon="6.76751">
        <ele>313</ele>
        <time>2016-03-13T11:15:10.000Z</time>
      </trkpt>
      <trkpt lat="47.48158" lon="6.76756">
        <ele>313</ele>
        <time>2016-03-13T11:15:11.000Z</time>
      </trkpt>
      <trkpt lat="47.48162" lon="6.7676">
        <ele>313</ele>
        <time>2016-03-13T11:15:12.000Z</time>
      </trkpt>
      <trkpt lat="47.48164" lon="6.76763">
        <ele>313</ele>
        <time>2016-03-13T11:15:13.000Z</time>
      </trkpt>
      <trkpt lat="47.48169" lon="6.76768">
        <ele>312</ele>
        <time>2016-03-13T11:15:14.000Z</time>
      </trkpt>
      <trkpt lat="47.48172" lon="6.76772">
        <ele>312</ele>
        <time>2016-03-13T11:15:15.000Z</time>
      </trkpt>
      <trkpt lat="47.48176" lon="6.76775">
        <ele>312</ele>
        <time>2016-03-13T11:15:16.000Z</time>
      </trkpt>
      <trkpt lat="47.48179" lon="6.76779">
        <ele>312</ele>
        <time>2016-03-13T11:15:17.000Z</time>
      </trkpt>
      <trkpt lat="47.48183" lon="6.76782">
        <ele>312</ele>
        <time>2016-03-13T11:15:18.000Z</time>
      </trkpt>
      <trkpt lat="47.48187" lon="6.76785">
        <ele>312</ele>
        <time>2016-03-13T11:15:19.000Z</time>
      </trkpt>
      <trkpt lat="47.48191" lon="6.76788">
        <ele>312</ele>
        <time>2016-03-13T11:15:20.000Z</time>
      </trkpt>
      <trkpt lat="47.48195" lon="6.76791">
        <ele>312</ele>
        <time>2016-03-13T11:15:21.000Z</time>
      </trkpt>
      <trkpt lat="47.48199" lon="6.76794">
        <ele>312</ele>
        <time>2016-03-13T11:15:22.000Z</time>
      </trkpt>
      <trkpt lat="47.48204" lon="6.76796">
        <ele>312</ele>
        <time>2016-03-13T11:15:23.000Z</time>
      </trkpt>
      <trkpt lat="47.48208" lon="6.76799">
        <ele>312</ele>
        <time>2016-03-13T11:15:24.000Z</time>
      </trkpt>
      <trkpt lat="47.48212" lon="6.76801">
        <ele>312</ele>
        <time>2016-03-13T11:15:25.000Z</time>
      </trkpt>
      <trkpt lat="47.48216" lon="6.76803">
        <ele>312</ele>
        <time>2016-03-13T11:15:26.000Z</time>
      </trkpt>
      <trkpt lat="47.48221" lon="6.76805">
        <ele>312</ele>
        <time>2016-03-13T11:15:27.000Z</time>
      </trkpt>
      <trkpt lat="47.48225" lon="6.76806">
        <ele>312</ele>
        <time>2016-03-13T11:15:28.000Z</time>
      </trkpt>
      <trkpt lat="47.4823" lon="6.76808">
        <ele>312</ele>
        <time>2016-03-13T11:15:29.000Z</time>
      </trkpt>
      <trkpt lat="47.48234" lon="6.7681">
        <ele>312</ele>
        <time>2016-03-13T11:15:30.000Z</time>
      </trkpt>
      <trkpt lat="47.48239" lon="6.76813">
        <ele>312</ele>
        <time>2016-03-13T11:15:31.000Z</time>
      </trkpt>
      <trkpt lat="47.48242" lon="6.76816">
        <ele>312</ele>
        <time>2016-03-13T11:15:32.000Z</time>
      </trkpt>
      <trkpt lat="47.48246" lon="6.76819">
        <ele>311</ele>
        <time>2016-03-13T11:15:33.000Z</time>
      </trkpt>
      <trkpt lat="47.48249" lon="6.76823">
        <ele>311</ele>
        <time>2016-03-13T11:15:34.000Z</time>
      </trkpt>
      <trkpt lat="47.48252" lon="6.76827">
        <ele>312</ele>
        <time>2016-03-13T11:15:35.000Z</time>
      </trkpt>
      <trkpt lat="47.48254" lon="6.76832">
        <ele>311</ele>
        <time>2016-03-13T11:15:36.000Z</time>
      </trkpt>
      <trkpt lat="47.48257" lon="6.76836">
        <ele>311</ele>
        <time>2016-03-13T11:15:37.000Z</time>
      </trkpt>
      <trkpt lat="47.4826" lon="6.76841">
        <ele>311</ele>
        <time>2016-03-13T11:15:38.000Z</time>
      </trkpt>
      <trkpt lat="47.48262" lon="6.76845">
        <ele>311</ele>
        <time>2016-03-13T11:15:39.000Z</time>
      </trkpt>
      <trkpt lat="47.48265" lon="6.7685">
        <ele>311</ele>
        <time>2016-03-13T11:15:40.000Z</time>
      </trkpt>
      <trkpt lat="47.48267" lon="6.76854">
        <ele>311</ele>
        <time>2016-03-13T11:15:41.000Z</time>
      </trkpt>
      <trkpt lat="47.4827" lon="6.76859">
        <ele>310</ele>
        <time>2016-03-13T11:15:42.000Z</time>
      </trkpt>
      <trkpt lat="47.48273" lon="6.76863">
        <ele>310</ele>
        <time>2016-03-13T11:15:43.000Z</time>
      </trkpt>
      <trkpt lat="47.48275" lon="6.76867">
        <ele>310</ele>
        <time>2016-03-13T11:15:44.000Z</time>
      </trkpt>
      <trkpt lat="47.48277" lon="6.76871">
        <ele>310</ele>
        <time>2016-03-13T11:15:45.000Z</time>
      </trkpt>
      <trkpt lat="47.4828" lon="6.76875">
        <ele>310</ele>
        <time>2016-03-13T11:15:46.000Z</time>
      </trkpt>
      <trkpt lat="47.48283" lon="6.76878">
        <ele>310</ele>
        <time>2016-03-13T11:15:47.000Z</time>
      </trkpt>
      <trkpt lat="47.48286" lon="6.76881">
        <ele>310</ele>
        <time>2016-03-13T11:15:48.000Z</time>
      </trkpt>
      <trkpt lat="47.4829" lon="6.76884">
        <ele>310</ele>
        <time>2016-03-13T11:15:49.000Z</time>
      </trkpt>
      <trkpt lat="47.48293" lon="6.76887">
        <ele>310</ele>
        <time>2016-03-13T11:15:50.000Z</time>
      </trkpt>
      <trkpt lat="47.48297" lon="6.7689">
        <ele>310</ele>
        <time>2016-03-13T11:15:51.000Z</time>
      </trkpt>
      <trkpt lat="47.483" lon="6.76892">
        <ele>310</ele>
        <time>2016-03-13T11:15:52.000Z</time>
      </trkpt>
      <trkpt lat="47.48306" lon="6.76896">
        <ele>310</ele>
        <time>2016-03-13T11:15:53.000Z</time>
      </trkpt>
      <trkpt lat="47.48311" lon="6.769">
        <ele>310</ele>
        <time>2016-03-13T11:15:54.000Z</time>
      </trkpt>
      <trkpt lat="47.48315" lon="6.76903">
        <ele>310</ele>
        <time>2016-03-13T11:15:55.000Z</time>
      </trkpt>
      <trkpt lat="47.48318" lon="6.76907">
        <ele>310</ele>
        <time>2016-03-13T11:15:56.000Z</time>
      </trkpt>
      <trkpt lat="47.48323" lon="6.76911">
        <ele>309</ele>
        <time>2016-03-13T11:15:57.000Z</time>
      </trkpt>
      <trkpt lat="47.48326" lon="6.76912">
        <ele>309</ele>
        <time>2016-03-13T11:15:58.000Z</time>
      </trkpt>
      <trkpt lat="47.4833" lon="6.76916">
        <ele>309</ele>
        <time>2016-03-13T11:15:59.000Z</time>
      </trkpt>
      <trkpt lat="47.48334" lon="6.76919">
        <ele>309</ele>
        <time>2016-03-13T11:16:00.000Z</time>
      </trkpt>
      <trkpt lat="47.48337" lon="6.76921">
        <ele>310</ele>
        <time>2016-03-13T11:16:01.000Z</time>
      </trkpt>
      <trkpt lat="47.48341" lon="6.76924">
        <ele>310</ele>
        <time>2016-03-13T11:16:02.000Z</time>
      </trkpt>
      <trkpt lat="47.48345" lon="6.76926">
        <ele>310</ele>
        <time>2016-03-13T11:16:03.000Z</time>
      </trkpt>
      <trkpt lat="47.48348" lon="6.76928">
        <ele>311</ele>
        <time>2016-03-13T11:16:04.000Z</time>
      </trkpt>
      <trkpt lat="47.48352" lon="6.76931">
        <ele>311</ele>
        <time>2016-03-13T11:16:05.000Z</time>
      </trkpt>
      <trkpt lat="47.48355" lon="6.76933">
        <ele>311</ele>
        <time>2016-03-13T11:16:06.000Z</time>
      </trkpt>
      <trkpt lat="47.48359" lon="6.76935">
        <ele>311</ele>
        <time>2016-03-13T11:16:07.000Z</time>
      </trkpt>
      <trkpt lat="47.48363" lon="6.76937">
        <ele>311</ele>
        <time>2016-03-13T11:16:08.000Z</time>
      </trkpt>
      <trkpt lat="47.48367" lon="6.76939">
        <ele>312</ele>
        <time>2016-03-13T11:16:09.000Z</time>
      </trkpt>
      <trkpt lat="47.48371" lon="6.76941">
        <ele>312</ele>
        <time>2016-03-13T11:16:10.000Z</time>
      </trkpt>
      <trkpt lat="47.48375" lon="6.76944">
        <ele>312</ele>
        <time>2016-03-13T11:16:11.000Z</time>
      </trkpt>
      <trkpt lat="47.48379" lon="6.76946">
        <ele>312</ele>
        <time>2016-03-13T11:16:12.000Z</time>
      </trkpt>
      <trkpt lat="47.48383" lon="6.76948">
        <ele>312</ele>
        <time>2016-03-13T11:16:13.000Z</time>
      </trkpt>
      <trkpt lat="47.48387" lon="6.7695">
        <ele>312</ele>
        <time>2016-03-13T11:16:14.000Z</time>
      </trkpt>
      <trkpt lat="47.48391" lon="6.76952">
        <ele>312</ele>
        <time>2016-03-13T11:16:15.000Z</time>
      </trkpt>
      <trkpt lat="47.48395" lon="6.76953">
        <ele>312</ele>
        <time>2016-03-13T11:16:16.000Z</time>
      </trkpt>
      <trkpt lat="47.48399" lon="6.76954">
        <ele>312</ele>
        <time>2016-03-13T11:16:17.000Z</time>
      </trkpt>
      <trkpt lat="47.48403" lon="6.76955">
        <ele>312</ele>
        <time>2016-03-13T11:16:18.000Z</time>
      </trkpt>
      <trkpt lat="47.48408" lon="6.76957">
        <ele>312</ele>
        <time>2016-03-13T11:16:19.000Z</time>
      </trkpt>
      <trkpt lat="47.48412" lon="6.76959">
        <ele>312</ele>
        <time>2016-03-13T11:16:20.000Z</time>
      </trkpt>
      <trkpt lat="47.48416" lon="6.76961">
        <ele>312</ele>
        <time>2016-03-13T11:16:21.000Z</time>
      </trkpt>
      <trkpt lat="47.48421" lon="6.76963">
        <ele>314</ele>
        <time>2016-03-13T11:16:22.000Z</time>
      </trkpt>
      <trkpt lat="47.48425" lon="6.76964">
        <ele>314</ele>
        <time>2016-03-13T11:16:23.000Z</time>
      </trkpt>
      <trkpt lat="47.48428" lon="6.76966">
        <ele>314</ele>
        <time>2016-03-13T11:16:24.000Z</time>
      </trkpt>
      <trkpt lat="47.48432" lon="6.76969">
        <ele>314</ele>
        <time>2016-03-13T11:16:25.000Z</time>
      </trkpt>
      <trkpt lat="47.48437" lon="6.7698">
        <ele>314</ele>
        <time>2016-03-13T11:16:26.000Z</time>
      </trkpt>
      <trkpt lat="47.48441" lon="6.76982">
        <ele>314</ele>
        <time>2016-03-13T11:16:27.000Z</time>
      </trkpt>
      <trkpt lat="47.48445" lon="6.76986">
        <ele>314</ele>
        <time>2016-03-13T11:16:28.000Z</time>
      </trkpt>
      <trkpt lat="47.48449" lon="6.76987">
        <ele>315</ele>
        <time>2016-03-13T11:16:29.000Z</time>
      </trkpt>
      <trkpt lat="47.48454" lon="6.76991">
        <ele>315</ele>
        <time>2016-03-13T11:16:30.000Z</time>
      </trkpt>
      <trkpt lat="47.48458" lon="6.76995">
        <ele>315</ele>
        <time>2016-03-13T11:16:31.000Z</time>
      </trkpt>
      <trkpt lat="47.48462" lon="6.76998">
        <ele>315</ele>
        <time>2016-03-13T11:16:32.000Z</time>
      </trkpt>
      <trkpt lat="47.48465" lon="6.76997">
        <ele>315</ele>
        <time>2016-03-13T11:16:33.000Z</time>
      </trkpt>
      <trkpt lat="47.48467" lon="6.76999">
        <ele>315</ele>
        <time>2016-03-13T11:16:34.000Z</time>
      </trkpt>
      <trkpt lat="47.48473" lon="6.77003">
        <ele>314</ele>
        <time>2016-03-13T11:16:35.000Z</time>
      </trkpt>
      <trkpt lat="47.48477" lon="6.77006">
        <ele>314</ele>
        <time>2016-03-13T11:16:36.000Z</time>
      </trkpt>
      <trkpt lat="47.48482" lon="6.77009">
        <ele>315</ele>
        <time>2016-03-13T11:16:37.000Z</time>
      </trkpt>
      <trkpt lat="47.48486" lon="6.7701">
        <ele>315</ele>
        <time>2016-03-13T11:16:38.000Z</time>
      </trkpt>
      <trkpt lat="47.4849" lon="6.77012">
        <ele>315</ele>
        <time>2016-03-13T11:16:39.000Z</time>
      </trkpt>
      <trkpt lat="47.48495" lon="6.77014">
        <ele>315</ele>
        <time>2016-03-13T11:16:40.000Z</time>
      </trkpt>
      <trkpt lat="47.48499" lon="6.77017">
        <ele>315</ele>
        <time>2016-03-13T11:16:41.000Z</time>
      </trkpt>
      <trkpt lat="47.48503" lon="6.7702">
        <ele>315</ele>
        <time>2016-03-13T11:16:42.000Z</time>
      </trkpt>
      <trkpt lat="47.48507" lon="6.77024">
        <ele>315</ele>
        <time>2016-03-13T11:16:43.000Z</time>
      </trkpt>
      <trkpt lat="47.48511" lon="6.77028">
        <ele>314</ele>
        <time>2016-03-13T11:16:44.000Z</time>
      </trkpt>
      <trkpt lat="47.48515" lon="6.77031">
        <ele>314</ele>
        <time>2016-03-13T11:16:45.000Z</time>
      </trkpt>
      <trkpt lat="47.48518" lon="6.77035">
        <ele>314</ele>
        <time>2016-03-13T11:16:46.000Z</time>
      </trkpt>
      <trkpt lat="47.48522" lon="6.77038">
        <ele>314</ele>
        <time>2016-03-13T11:16:47.000Z</time>
      </trkpt>
      <trkpt lat="47.48526" lon="6.77041">
        <ele>314</ele>
        <time>2016-03-13T11:16:48.000Z</time>
      </trkpt>
      <trkpt lat="47.4853" lon="6.77044">
        <ele>314</ele>
        <time>2016-03-13T11:16:49.000Z</time>
      </trkpt>
      <trkpt lat="47.48533" lon="6.77046">
        <ele>314</ele>
        <time>2016-03-13T11:16:50.000Z</time>
      </trkpt>
      <trkpt lat="47.48537" lon="6.77049">
        <ele>314</ele>
        <time>2016-03-13T11:16:51.000Z</time>
      </trkpt>
      <trkpt lat="47.48541" lon="6.77051">
        <ele>314</ele>
        <time>2016-03-13T11:16:52.000Z</time>
      </trkpt>
      <trkpt lat="47.48545" lon="6.77053">
        <ele>314</ele>
        <time>2016-03-13T11:16:53.000Z</time>
      </trkpt>
      <trkpt lat="47.48549" lon="6.77055">
        <ele>314</ele>
        <time>2016-03-13T11:16:54.000Z</time>
      </trkpt>
      <trkpt lat="47.48552" lon="6.77056">
        <ele>314</ele>
        <time>2016-03-13T11:16:55.000Z</time>
      </trkpt>
      <trkpt lat="47.48555" lon="6.77057">
        <ele>314</ele>
        <time>2016-03-13T11:16:56.000Z</time>
      </trkpt>
      <trkpt lat="47.48557" lon="6.77057">
        <ele>314</ele>
        <time>2016-03-13T11:16:57.000Z</time>
      </trkpt>
      <trkpt lat="47.48559" lon="6.77057">
        <ele>314</ele>
        <time>2016-03-13T11:16:58.000Z</time>
      </trkpt>
      <trkpt lat="47.48562" lon="6.77057">
        <ele>314</ele>
        <time>2016-03-13T11:16:59.000Z</time>
      </trkpt>
      <trkpt lat="47.48565" lon="6.77058">
        <ele>314</ele>
        <time>2016-03-13T11:17:00.000Z</time>
      </trkpt>
      <trkpt lat="47.48567" lon="6.77059">
        <ele>314</ele>
        <time>2016-03-13T11:17:01.000Z</time>
      </trkpt>
      <trkpt lat="47.4857" lon="6.77061">
        <ele>314</ele>
        <time>2016-03-13T11:17:02.000Z</time>
      </trkpt>
      <trkpt lat="47.48573" lon="6.77062">
        <ele>314</ele>
        <time>2016-03-13T11:17:03.000Z</time>
      </trkpt>
      <trkpt lat="47.48576" lon="6.77064">
        <ele>314</ele>
        <time>2016-03-13T11:17:04.000Z</time>
      </trkpt>
      <trkpt lat="47.48579" lon="6.77067">
        <ele>314</ele>
        <time>2016-03-13T11:17:05.000Z</time>
      </trkpt>
      <trkpt lat="47.48583" lon="6.7707">
        <ele>313</ele>
        <time>2016-03-13T11:17:06.000Z</time>
      </trkpt>
      <trkpt lat="47.48587" lon="6.77073">
        <ele>313</ele>
        <time>2016-03-13T11:17:07.000Z</time>
      </trkpt>
      <trkpt lat="47.48591" lon="6.77076">
        <ele>313</ele>
        <time>2016-03-13T11:17:08.000Z</time>
      </trkpt>
      <trkpt lat="47.48595" lon="6.77079">
        <ele>313</ele>
        <time>2016-03-13T11:17:09.000Z</time>
      </trkpt>
      <trkpt lat="47.48599" lon="6.77082">
        <ele>313</ele>
        <time>2016-03-13T11:17:10.000Z</time>
      </trkpt>
      <trkpt lat="47.48603" lon="6.77085">
        <ele>313</ele>
        <time>2016-03-13T11:17:11.000Z</time>
      </trkpt>
      <trkpt lat="47.48606" lon="6.77088">
        <ele>312</ele>
        <time>2016-03-13T11:17:12.000Z</time>
      </trkpt>
      <trkpt lat="47.4861" lon="6.77092">
        <ele>312</ele>
        <time>2016-03-13T11:17:13.000Z</time>
      </trkpt>
      <trkpt lat="47.48613" lon="6.77094">
        <ele>312</ele>
        <time>2016-03-13T11:17:14.000Z</time>
      </trkpt>
      <trkpt lat="47.48617" lon="6.77096">
        <ele>312</ele>
        <time>2016-03-13T11:17:15.000Z</time>
      </trkpt>
      <trkpt lat="47.4862" lon="6.77098">
        <ele>312</ele>
        <time>2016-03-13T11:17:16.000Z</time>
      </trkpt>
      <trkpt lat="47.48623" lon="6.771">
        <ele>312</ele>
        <time>2016-03-13T11:17:17.000Z</time>
      </trkpt>
      <trkpt lat="47.48626" lon="6.77103">
        <ele>312</ele>
        <time>2016-03-13T11:17:18.000Z</time>
      </trkpt>
      <trkpt lat="47.4863" lon="6.77106">
        <ele>312</ele>
        <time>2016-03-13T11:17:19.000Z</time>
      </trkpt>
      <trkpt lat="47.48634" lon="6.77112">
        <ele>312</ele>
        <time>2016-03-13T11:17:20.000Z</time>
      </trkpt>
      <trkpt lat="47.48638" lon="6.77117">
        <ele>312</ele>
        <time>2016-03-13T11:17:21.000Z</time>
      </trkpt>
      <trkpt lat="47.48642" lon="6.77121">
        <ele>312</ele>
        <time>2016-03-13T11:17:22.000Z</time>
      </trkpt>
      <trkpt lat="47.48646" lon="6.77126">
        <ele>312</ele>
        <time>2016-03-13T11:17:23.000Z</time>
      </trkpt>
      <trkpt lat="47.4865" lon="6.7713">
        <ele>312</ele>
        <time>2016-03-13T11:17:24.000Z</time>
      </trkpt>
      <trkpt lat="47.48653" lon="6.77134">
        <ele>312</ele>
        <time>2016-03-13T11:17:25.000Z</time>
      </trkpt>
      <trkpt lat="47.48657" lon="6.77139">
        <ele>312</ele>
        <time>2016-03-13T11:17:26.000Z</time>
      </trkpt>
      <trkpt lat="47.4866" lon="6.77143">
        <ele>312</ele>
        <time>2016-03-13T11:17:27.000Z</time>
      </trkpt>
      <trkpt lat="47.48664" lon="6.77147">
        <ele>312</ele>
        <time>2016-03-13T11:17:28.000Z</time>
      </trkpt>
      <trkpt lat="47.48669" lon="6.77151">
        <ele>311</ele>
        <time>2016-03-13T11:17:29.000Z</time>
      </trkpt>
      <trkpt lat="47.4867" lon="6.77154">
        <ele>311</ele>
        <time>2016-03-13T11:17:30.000Z</time>
      </trkpt>
      <trkpt lat="47.48674" lon="6.77157">
        <ele>311</ele>
        <time>2016-03-13T11:17:31.000Z</time>
      </trkpt>
      <trkpt lat="47.48678" lon="6.77161">
        <ele>311</ele>
        <time>2016-03-13T11:17:32.000Z</time>
      </trkpt>
      <trkpt lat="47.48682" lon="6.77165">
        <ele>311</ele>
        <time>2016-03-13T11:17:33.000Z</time>
      </trkpt>
      <trkpt lat="47.48686" lon="6.77169">
        <ele>311</ele>
        <time>2016-03-13T11:17:34.000Z</time>
      </trkpt>
      <trkpt lat="47.4869" lon="6.77173">
        <ele>311</ele>
        <time>2016-03-13T11:17:35.000Z</time>
      </trkpt>
      <trkpt lat="47.48694" lon="6.77176">
        <ele>311</ele>
        <time>2016-03-13T11:17:36.000Z</time>
      </trkpt>
      <trkpt lat="47.48698" lon="6.77178">
        <ele>311</ele>
        <time>2016-03-13T11:17:37.000Z</time>
      </trkpt>
      <trkpt lat="47.48702" lon="6.77181">
        <ele>310</ele>
        <time>2016-03-13T11:17:38.000Z</time>
      </trkpt>
      <trkpt lat="47.48705" lon="6.77183">
        <ele>310</ele>
        <time>2016-03-13T11:17:39.000Z</time>
      </trkpt>
      <trkpt lat="47.48708" lon="6.77186">
        <ele>310</ele>
        <time>2016-03-13T11:17:40.000Z</time>
      </trkpt>
      <trkpt lat="47.48712" lon="6.77188">
        <ele>310</ele>
        <time>2016-03-13T11:17:41.000Z</time>
      </trkpt>
      <trkpt lat="47.48715" lon="6.7719">
        <ele>310</ele>
        <time>2016-03-13T11:17:42.000Z</time>
      </trkpt>
      <trkpt lat="47.48719" lon="6.77194">
        <ele>310</ele>
        <time>2016-03-13T11:17:43.000Z</time>
      </trkpt>
      <trkpt lat="47.48723" lon="6.77198">
        <ele>310</ele>
        <time>2016-03-13T11:17:44.000Z</time>
      </trkpt>
      <trkpt lat="47.48726" lon="6.77202">
        <ele>310</ele>
        <time>2016-03-13T11:17:45.000Z</time>
      </trkpt>
      <trkpt lat="47.4873" lon="6.77205">
        <ele>310</ele>
        <time>2016-03-13T11:17:46.000Z</time>
      </trkpt>
      <trkpt lat="47.48733" lon="6.77209">
        <ele>310</ele>
        <time>2016-03-13T11:17:47.000Z</time>
      </trkpt>
      <trkpt lat="47.48737" lon="6.77212">
        <ele>310</ele>
        <time>2016-03-13T11:17:48.000Z</time>
      </trkpt>
      <trkpt lat="47.48741" lon="6.77215">
        <ele>310</ele>
        <time>2016-03-13T11:17:49.000Z</time>
      </trkpt>
      <trkpt lat="47.48744" lon="6.77218">
        <ele>310</ele>
        <time>2016-03-13T11:17:50.000Z</time>
      </trkpt>
      <trkpt lat="47.48748" lon="6.77221">
        <ele>310</ele>
        <time>2016-03-13T11:17:51.000Z</time>
      </trkpt>
      <trkpt lat="47.48752" lon="6.77223">
        <ele>310</ele>
        <time>2016-03-13T11:17:52.000Z</time>
      </trkpt>
      <trkpt lat="47.48756" lon="6.77226">
        <ele>310</ele>
        <time>2016-03-13T11:17:53.000Z</time>
      </trkpt>
      <trkpt lat="47.4876" lon="6.77228">
        <ele>310</ele>
        <time>2016-03-13T11:17:54.000Z</time>
      </trkpt>
      <trkpt lat="47.48764" lon="6.7723">
        <ele>310</ele>
        <time>2016-03-13T11:17:55.000Z</time>
      </trkpt>
      <trkpt lat="47.48768" lon="6.77233">
        <ele>310</ele>
        <time>2016-03-13T11:17:56.000Z</time>
      </trkpt>
      <trkpt lat="47.48772" lon="6.77235">
        <ele>310</ele>
        <time>2016-03-13T11:17:57.000Z</time>
      </trkpt>
      <trkpt lat="47.48776" lon="6.77238">
        <ele>310</ele>
        <time>2016-03-13T11:17:58.000Z</time>
      </trkpt>
      <trkpt lat="47.4878" lon="6.77242">
        <ele>310</ele>
        <time>2016-03-13T11:17:59.000Z</time>
      </trkpt>
      <trkpt lat="47.48784" lon="6.77244">
        <ele>310</ele>
        <time>2016-03-13T11:18:00.000Z</time>
      </trkpt>
      <trkpt lat="47.48788" lon="6.77247">
        <ele>310</ele>
        <time>2016-03-13T11:18:01.000Z</time>
      </trkpt>
      <trkpt lat="47.48792" lon="6.7725">
        <ele>310</ele>
        <time>2016-03-13T11:18:02.000Z</time>
      </trkpt>
      <trkpt lat="47.48797" lon="6.77254">
        <ele>310</ele>
        <time>2016-03-13T11:18:03.000Z</time>
      </trkpt>
      <trkpt lat="47.488" lon="6.77258">
        <ele>310</ele>
        <time>2016-03-13T11:18:04.000Z</time>
      </trkpt>
      <trkpt lat="47.48803" lon="6.7726">
        <ele>310</ele>
        <time>2016-03-13T11:18:05.000Z</time>
      </trkpt>
      <trkpt lat="47.48808" lon="6.77263">
        <ele>310</ele>
        <time>2016-03-13T11:18:06.000Z</time>
      </trkpt>
      <trkpt lat="47.48812" lon="6.77266">
        <ele>310</ele>
        <time>2016-03-13T11:18:07.000Z</time>
      </trkpt>
      <trkpt lat="47.48815" lon="6.7727">
        <ele>310</ele>
        <time>2016-03-13T11:18:08.000Z</time>
      </trkpt>
      <trkpt lat="47.48819" lon="6.77272">
        <ele>310</ele>
        <time>2016-03-13T11:18:09.000Z</time>
      </trkpt>
      <trkpt lat="47.48823" lon="6.77275">
        <ele>310</ele>
        <time>2016-03-13T11:18:10.000Z</time>
      </trkpt>
      <trkpt lat="47.48827" lon="6.77277">
        <ele>310</ele>
        <time>2016-03-13T11:18:11.000Z</time>
      </trkpt>
      <trkpt lat="47.48831" lon="6.7728">
        <ele>310</ele>
        <time>2016-03-13T11:18:12.000Z</time>
      </trkpt>
      <trkpt lat="47.48834" lon="6.77283">
        <ele>310</ele>
        <time>2016-03-13T11:18:13.000Z</time>
      </trkpt>
      <trkpt lat="47.48838" lon="6.77287">
        <ele>310</ele>
        <time>2016-03-13T11:18:14.000Z</time>
      </trkpt>
      <trkpt lat="47.48842" lon="6.7729">
        <ele>310</ele>
        <time>2016-03-13T11:18:15.000Z</time>
      </trkpt>
      <trkpt lat="47.48845" lon="6.77293">
        <ele>310</ele>
        <time>2016-03-13T11:18:16.000Z</time>
      </trkpt>
      <trkpt lat="47.48849" lon="6.77296">
        <ele>310</ele>
        <time>2016-03-13T11:18:17.000Z</time>
      </trkpt>
      <trkpt lat="47.48853" lon="6.77298">
        <ele>310</ele>
        <time>2016-03-13T11:18:18.000Z</time>
      </trkpt>
      <trkpt lat="47.48857" lon="6.773">
        <ele>310</ele>
        <time>2016-03-13T11:18:19.000Z</time>
      </trkpt>
      <trkpt lat="47.48861" lon="6.77301">
        <ele>310</ele>
        <time>2016-03-13T11:18:20.000Z</time>
      </trkpt>
      <trkpt lat="47.48865" lon="6.77303">
        <ele>310</ele>
        <time>2016-03-13T11:18:21.000Z</time>
      </trkpt>
      <trkpt lat="47.48869" lon="6.77305">
        <ele>310</ele>
        <time>2016-03-13T11:18:22.000Z</time>
      </trkpt>
      <trkpt lat="47.48873" lon="6.77306">
        <ele>310</ele>
        <time>2016-03-13T11:18:23.000Z</time>
      </trkpt>
      <trkpt lat="47.48877" lon="6.77306">
        <ele>310</ele>
        <time>2016-03-13T11:18:24.000Z</time>
      </trkpt>
      <trkpt lat="47.48881" lon="6.77306">
        <ele>310</ele>
        <time>2016-03-13T11:18:25.000Z</time>
      </trkpt>
      <trkpt lat="47.48885" lon="6.77306">
        <ele>310</ele>
        <time>2016-03-13T11:18:26.000Z</time>
      </trkpt>
      <trkpt lat="47.4889" lon="6.77306">
        <ele>310</ele>
        <time>2016-03-13T11:18:27.000Z</time>
      </trkpt>
      <trkpt lat="47.48894" lon="6.77308">
        <ele>310</ele>
        <time>2016-03-13T11:18:28.000Z</time>
      </trkpt>
      <trkpt lat="47.48899" lon="6.7731">
        <ele>310</ele>
        <time>2016-03-13T11:18:29.000Z</time>
      </trkpt>
      <trkpt lat="47.48903" lon="6.77312">
        <ele>310</ele>
        <time>2016-03-13T11:18:30.000Z</time>
      </trkpt>
      <trkpt lat="47.48907" lon="6.77314">
        <ele>310</ele>
        <time>2016-03-13T11:18:31.000Z</time>
      </trkpt>
      <trkpt lat="47.48911" lon="6.77316">
        <ele>310</ele>
        <time>2016-03-13T11:18:32.000Z</time>
      </trkpt>
      <trkpt lat="47.48916" lon="6.77318">
        <ele>310</ele>
        <time>2016-03-13T11:18:33.000Z</time>
      </trkpt>
      <trkpt lat="47.4892" lon="6.77319">
        <ele>310</ele>
        <time>2016-03-13T11:18:34.000Z</time>
      </trkpt>
      <trkpt lat="47.48925" lon="6.77321">
        <ele>310</ele>
        <time>2016-03-13T11:18:35.000Z</time>
      </trkpt>
      <trkpt lat="47.48929" lon="6.77323">
        <ele>310</ele>
        <time>2016-03-13T11:18:36.000Z</time>
      </trkpt>
      <trkpt lat="47.48934" lon="6.77325">
        <ele>310</ele>
        <time>2016-03-13T11:18:37.000Z</time>
      </trkpt>
      <trkpt lat="47.48938" lon="6.77329">
        <ele>310</ele>
        <time>2016-03-13T11:18:38.000Z</time>
      </trkpt>
      <trkpt lat="47.48942" lon="6.77332">
        <ele>310</ele>
        <time>2016-03-13T11:18:39.000Z</time>
      </trkpt>
      <trkpt lat="47.48946" lon="6.77335">
        <ele>310</ele>
        <time>2016-03-13T11:18:40.000Z</time>
      </trkpt>
      <trkpt lat="47.48951" lon="6.77338">
        <ele>310</ele>
        <time>2016-03-13T11:18:41.000Z</time>
      </trkpt>
      <trkpt lat="47.48956" lon="6.7734">
        <ele>310</ele>
        <time>2016-03-13T11:18:42.000Z</time>
      </trkpt>
      <trkpt lat="47.4896" lon="6.77339">
        <ele>311</ele>
        <time>2016-03-13T11:18:43.000Z</time>
      </trkpt>
      <trkpt lat="47.48965" lon="6.77339">
        <ele>311</ele>
        <time>2016-03-13T11:18:44.000Z</time>
      </trkpt>
      <trkpt lat="47.4897" lon="6.77339">
        <ele>311</ele>
        <time>2016-03-13T11:18:45.000Z</time>
      </trkpt>
      <trkpt lat="47.48974" lon="6.7734">
        <ele>311</ele>
        <time>2016-03-13T11:18:46.000Z</time>
      </trkpt>
      <trkpt lat="47.48978" lon="6.77341">
        <ele>311</ele>
        <time>2016-03-13T11:18:47.000Z</time>
      </trkpt>
      <trkpt lat="47.48982" lon="6.77341">
        <ele>311</ele>
        <time>2016-03-13T11:18:48.000Z</time>
      </trkpt>
      <trkpt lat="47.48987" lon="6.7734">
        <ele>311</ele>
        <time>2016-03-13T11:18:49.000Z</time>
      </trkpt>
      <trkpt lat="47.48992" lon="6.77341">
        <ele>311</ele>
        <time>2016-03-13T11:18:50.000Z</time>
      </trkpt>
      <trkpt lat="47.48997" lon="6.77341">
        <ele>311</ele>
        <time>2016-03-13T11:18:51.000Z</time>
      </trkpt>
      <trkpt lat="47.49002" lon="6.77342">
        <ele>311</ele>
        <time>2016-03-13T11:18:52.000Z</time>
      </trkpt>
      <trkpt lat="47.49006" lon="6.77343">
        <ele>311</ele>
        <time>2016-03-13T11:18:53.000Z</time>
      </trkpt>
      <trkpt lat="47.49011" lon="6.77343">
        <ele>311</ele>
        <time>2016-03-13T11:18:54.000Z</time>
      </trkpt>
      <trkpt lat="47.49015" lon="6.77344">
        <ele>311</ele>
        <time>2016-03-13T11:18:55.000Z</time>
      </trkpt>
      <trkpt lat="47.4902" lon="6.77344">
        <ele>311</ele>
        <time>2016-03-13T11:18:56.000Z</time>
      </trkpt>
      <trkpt lat="47.49024" lon="6.77344">
        <ele>311</ele>
        <time>2016-03-13T11:18:57.000Z</time>
      </trkpt>
      <trkpt lat="47.49028" lon="6.77345">
        <ele>311</ele>
        <time>2016-03-13T11:18:58.000Z</time>
      </trkpt>
      <trkpt lat="47.49033" lon="6.77343">
        <ele>311</ele>
        <time>2016-03-13T11:18:59.000Z</time>
      </trkpt>
      <trkpt lat="47.49037" lon="6.77345">
        <ele>311</ele>
        <time>2016-03-13T11:19:00.000Z</time>
      </trkpt>
      <trkpt lat="47.49041" lon="6.77345">
        <ele>311</ele>
        <time>2016-03-13T11:19:01.000Z</time>
      </trkpt>
      <trkpt lat="47.49046" lon="6.77345">
        <ele>311</ele>
        <time>2016-03-13T11:19:02.000Z</time>
      </trkpt>
      <trkpt lat="47.49052" lon="6.77345">
        <ele>311</ele>
        <time>2016-03-13T11:19:03.000Z</time>
      </trkpt>
      <trkpt lat="47.49056" lon="6.77345">
        <ele>311</ele>
        <time>2016-03-13T11:19:04.000Z</time>
      </trkpt>
      <trkpt lat="47.49061" lon="6.77346">
        <ele>311</ele>
        <time>2016-03-13T11:19:05.000Z</time>
      </trkpt>
      <trkpt lat="47.49066" lon="6.77347">
        <ele>311</ele>
        <time>2016-03-13T11:19:06.000Z</time>
      </trkpt>
      <trkpt lat="47.4907" lon="6.77348">
        <ele>311</ele>
        <time>2016-03-13T11:19:07.000Z</time>
      </trkpt>
      <trkpt lat="47.49075" lon="6.77349">
        <ele>311</ele>
        <time>2016-03-13T11:19:08.000Z</time>
      </trkpt>
      <trkpt lat="47.49079" lon="6.77349">
        <ele>311</ele>
        <time>2016-03-13T11:19:09.000Z</time>
      </trkpt>
      <trkpt lat="47.49083" lon="6.7735">
        <ele>311</ele>
        <time>2016-03-13T11:19:10.000Z</time>
      </trkpt>
      <trkpt lat="47.49087" lon="6.7735">
        <ele>310</ele>
        <time>2016-03-13T11:19:11.000Z</time>
      </trkpt>
      <trkpt lat="47.49091" lon="6.7735">
        <ele>310</ele>
        <time>2016-03-13T11:19:12.000Z</time>
      </trkpt>
      <trkpt lat="47.49095" lon="6.7735">
        <ele>310</ele>
        <time>2016-03-13T11:19:13.000Z</time>
      </trkpt>
      <trkpt lat="47.491" lon="6.77351">
        <ele>310</ele>
        <time>2016-03-13T11:19:14.000Z</time>
      </trkpt>
      <trkpt lat="47.49103" lon="6.7735">
        <ele>310</ele>
        <time>2016-03-13T11:19:15.000Z</time>
      </trkpt>
      <trkpt lat="47.49107" lon="6.7735">
        <ele>310</ele>
        <time>2016-03-13T11:19:16.000Z</time>
      </trkpt>
      <trkpt lat="47.49111" lon="6.7735">
        <ele>310</ele>
        <time>2016-03-13T11:19:17.000Z</time>
      </trkpt>
      <trkpt lat="47.49115" lon="6.77351">
        <ele>310</ele>
        <time>2016-03-13T11:19:18.000Z</time>
      </trkpt>
      <trkpt lat="47.49119" lon="6.77351">
        <ele>310</ele>
        <time>2016-03-13T11:19:19.000Z</time>
      </trkpt>
      <trkpt lat="47.49122" lon="6.77351">
        <ele>310</ele>
        <time>2016-03-13T11:19:20.000Z</time>
      </trkpt>
      <trkpt lat="47.49126" lon="6.77351">
        <ele>310</ele>
        <time>2016-03-13T11:19:21.000Z</time>
      </trkpt>
      <trkpt lat="47.4913" lon="6.7735">
        <ele>310</ele>
        <time>2016-03-13T11:19:22.000Z</time>
      </trkpt>
      <trkpt lat="47.49133" lon="6.77352">
        <ele>310</ele>
        <time>2016-03-13T11:19:23.000Z</time>
      </trkpt>
      <trkpt lat="47.49136" lon="6.77352">
        <ele>310</ele>
        <time>2016-03-13T11:19:24.000Z</time>
      </trkpt>
      <trkpt lat="47.4914" lon="6.77353">
        <ele>310</ele>
        <time>2016-03-13T11:19:25.000Z</time>
      </trkpt>
      <trkpt lat="47.49142" lon="6.77353">
        <ele>310</ele>
        <time>2016-03-13T11:19:26.000Z</time>
      </trkpt>
      <trkpt lat="47.49145" lon="6.77352">
        <ele>310</ele>
        <time>2016-03-13T11:19:27.000Z</time>
      </trkpt>
      <trkpt lat="47.49147" lon="6.77352">
        <ele>310</ele>
        <time>2016-03-13T11:19:28.000Z</time>
      </trkpt>
      <trkpt lat="47.49149" lon="6.77352">
        <ele>310</ele>
        <time>2016-03-13T11:19:29.000Z</time>
      </trkpt>
      <trkpt lat="47.49152" lon="6.77352">
        <ele>310</ele>
        <time>2016-03-13T11:19:30.000Z</time>
      </trkpt>
      <trkpt lat="47.49155" lon="6.77353">
        <ele>310</ele>
        <time>2016-03-13T11:19:31.000Z</time>
      </trkpt>
      <trkpt lat="47.49158" lon="6.77354">
        <ele>310</ele>
        <time>2016-03-13T11:19:32.000Z</time>
      </trkpt>
      <trkpt lat="47.49161" lon="6.77355">
        <ele>310</ele>
        <time>2016-03-13T11:19:33.000Z</time>
      </trkpt>
      <trkpt lat="47.49165" lon="6.77356">
        <ele>310</ele>
        <time>2016-03-13T11:19:34.000Z</time>
      </trkpt>
      <trkpt lat="47.49168" lon="6.77357">
        <ele>309</ele>
        <time>2016-03-13T11:19:35.000Z</time>
      </trkpt>
      <trkpt lat="47.49171" lon="6.77357">
        <ele>309</ele>
        <time>2016-03-13T11:19:36.000Z</time>
      </trkpt>
      <trkpt lat="47.49174" lon="6.77358">
        <ele>309</ele>
        <time>2016-03-13T11:19:37.000Z</time>
      </trkpt>
      <trkpt lat="47.49176" lon="6.77358">
        <ele>309</ele>
        <time>2016-03-13T11:19:38.000Z</time>
      </trkpt>
      <trkpt lat="47.4918" lon="6.77357">
        <ele>309</ele>
        <time>2016-03-13T11:19:40.000Z</time>
      </trkpt>
      <trkpt lat="47.49182" lon="6.77356">
        <ele>309</ele>
        <time>2016-03-13T11:19:41.000Z</time>
      </trkpt>
      <trkpt lat="47.49182" lon="6.7735">
        <ele>309</ele>
        <time>2016-03-13T11:19:44.000Z</time>
      </trkpt>
      <trkpt lat="47.49182" lon="6.77347">
        <ele>309</ele>
        <time>2016-03-13T11:19:45.000Z</time>
      </trkpt>
      <trkpt lat="47.49182" lon="6.77341">
        <ele>310</ele>
        <time>2016-03-13T11:19:50.000Z</time>
      </trkpt>
      <trkpt lat="47.49183" lon="6.7734">
        <ele>310</ele>
        <time>2016-03-13T11:19:51.000Z</time>
      </trkpt>
      <trkpt lat="47.49187" lon="6.77339">
        <ele>309</ele>
        <time>2016-03-13T11:22:14.000Z</time>
      </trkpt>
      <trkpt lat="47.49188" lon="6.77338">
        <ele>309</ele>
        <time>2016-03-13T11:22:15.000Z</time>
      </trkpt>
      <trkpt lat="47.49191" lon="6.77338">
        <ele>309</ele>
        <time>2016-03-13T11:22:17.000Z</time>
      </trkpt>
      <trkpt lat="47.49193" lon="6.77338">
        <ele>309</ele>
        <time>2016-03-13T11:22:18.000Z</time>
      </trkpt>
      <trkpt lat="47.49195" lon="6.77338">
        <ele>309</ele>
        <time>2016-03-13T11:22:19.000Z</time>
      </trkpt>
      <trkpt lat="47.49198" lon="6.77338">
        <ele>309</ele>
        <time>2016-03-13T11:22:20.000Z</time>
      </trkpt>
      <trkpt lat="47.49201" lon="6.77339">
        <ele>309</ele>
        <time>2016-03-13T11:22:21.000Z</time>
      </trkpt>
      <trkpt lat="47.49203" lon="6.77339">
        <ele>309</ele>
        <time>2016-03-13T11:22:22.000Z</time>
      </trkpt>
      <trkpt lat="47.49208" lon="6.7734">
        <ele>309</ele>
        <time>2016-03-13T11:22:23.000Z</time>
      </trkpt>
      <trkpt lat="47.49213" lon="6.77341">
        <ele>309</ele>
        <time>2016-03-13T11:22:24.000Z</time>
      </trkpt>
      <trkpt lat="47.4922" lon="6.77341">
        <ele>309</ele>
        <time>2016-03-13T11:22:25.000Z</time>
      </trkpt>
      <trkpt lat="47.49224" lon="6.77342">
        <ele>309</ele>
        <time>2016-03-13T11:22:26.000Z</time>
      </trkpt>
      <trkpt lat="47.49229" lon="6.77341">
        <ele>309</ele>
        <time>2016-03-13T11:22:27.000Z</time>
      </trkpt>
      <trkpt lat="47.49232" lon="6.77341">
        <ele>309</ele>
        <time>2016-03-13T11:22:28.000Z</time>
      </trkpt>
      <trkpt lat="47.49236" lon="6.77341">
        <ele>310</ele>
        <time>2016-03-13T11:22:29.000Z</time>
      </trkpt>
      <trkpt lat="47.49241" lon="6.77341">
        <ele>310</ele>
        <time>2016-03-13T11:22:30.000Z</time>
      </trkpt>
      <trkpt lat="47.49246" lon="6.77339">
        <ele>310</ele>
        <time>2016-03-13T11:22:31.000Z</time>
      </trkpt>
      <trkpt lat="47.4925" lon="6.77337">
        <ele>310</ele>
        <time>2016-03-13T11:22:32.000Z</time>
      </trkpt>
      <trkpt lat="47.49255" lon="6.77335">
        <ele>310</ele>
        <time>2016-03-13T11:22:33.000Z</time>
      </trkpt>
      <trkpt lat="47.4926" lon="6.77333">
        <ele>310</ele>
        <time>2016-03-13T11:22:34.001Z</time>
      </trkpt>
      <trkpt lat="47.49264" lon="6.77328">
        <ele>310</ele>
        <time>2016-03-13T11:22:35.000Z</time>
      </trkpt>
      <trkpt lat="47.49269" lon="6.77328">
        <ele>310</ele>
        <time>2016-03-13T11:22:36.000Z</time>
      </trkpt>
      <trkpt lat="47.49275" lon="6.77327">
        <ele>310</ele>
        <time>2016-03-13T11:22:37.000Z</time>
      </trkpt>
      <trkpt lat="47.49281" lon="6.77327">
        <ele>310</ele>
        <time>2016-03-13T11:22:37.999Z</time>
      </trkpt>
      <trkpt lat="47.49286" lon="6.77327">
        <ele>310</ele>
        <time>2016-03-13T11:22:39.000Z</time>
      </trkpt>
      <trkpt lat="47.49291" lon="6.77327">
        <ele>310</ele>
        <time>2016-03-13T11:22:40.000Z</time>
      </trkpt>
      <trkpt lat="47.49296" lon="6.77328">
        <ele>310</ele>
        <time>2016-03-13T11:22:41.000Z</time>
      </trkpt>
      <trkpt lat="47.49301" lon="6.77329">
        <ele>310</ele>
        <time>2016-03-13T11:22:42.000Z</time>
      </trkpt>
      <trkpt lat="47.49307" lon="6.7733">
        <ele>310</ele>
        <time>2016-03-13T11:22:43.000Z</time>
      </trkpt>
      <trkpt lat="47.49312" lon="6.77331">
        <ele>310</ele>
        <time>2016-03-13T11:22:44.000Z</time>
      </trkpt>
      <trkpt lat="47.49317" lon="6.77332">
        <ele>310</ele>
        <time>2016-03-13T11:22:45.000Z</time>
      </trkpt>
      <trkpt lat="47.49322" lon="6.77335">
        <ele>310</ele>
        <time>2016-03-13T11:22:46.000Z</time>
      </trkpt>
      <trkpt lat="47.49326" lon="6.77336">
        <ele>310</ele>
        <time>2016-03-13T11:22:47.000Z</time>
      </trkpt>
      <trkpt lat="47.4933" lon="6.77337">
        <ele>310</ele>
        <time>2016-03-13T11:22:48.000Z</time>
      </trkpt>
      <trkpt lat="47.49334" lon="6.77339">
        <ele>310</ele>
        <time>2016-03-13T11:22:49.000Z</time>
      </trkpt>
      <trkpt lat="47.49337" lon="6.77341">
        <ele>310</ele>
        <time>2016-03-13T11:22:50.000Z</time>
      </trkpt>
      <trkpt lat="47.49341" lon="6.77343">
        <ele>310</ele>
        <time>2016-03-13T11:22:51.000Z</time>
      </trkpt>
      <trkpt lat="47.49346" lon="6.77343">
        <ele>310</ele>
        <time>2016-03-13T11:22:52.000Z</time>
      </trkpt>
      <trkpt lat="47.49349" lon="6.77343">
        <ele>310</ele>
        <time>2016-03-13T11:22:53.000Z</time>
      </trkpt>
      <trkpt lat="47.49354" lon="6.77343">
        <ele>310</ele>
        <time>2016-03-13T11:22:54.000Z</time>
      </trkpt>
      <trkpt lat="47.49359" lon="6.77345">
        <ele>310</ele>
        <time>2016-03-13T11:22:55.000Z</time>
      </trkpt>
      <trkpt lat="47.49363" lon="6.77345">
        <ele>310</ele>
        <time>2016-03-13T11:22:56.000Z</time>
      </trkpt>
      <trkpt lat="47.49367" lon="6.77345">
        <ele>310</ele>
        <time>2016-03-13T11:22:57.000Z</time>
      </trkpt>
      <trkpt lat="47.49372" lon="6.77345">
        <ele>310</ele>
        <time>2016-03-13T11:22:58.000Z</time>
      </trkpt>
      <trkpt lat="47.49376" lon="6.77345">
        <ele>310</ele>
        <time>2016-03-13T11:22:59.000Z</time>
      </trkpt>
      <trkpt lat="47.49381" lon="6.77345">
        <ele>310</ele>
        <time>2016-03-13T11:23:00.000Z</time>
      </trkpt>
      <trkpt lat="47.49385" lon="6.77345">
        <ele>310</ele>
        <time>2016-03-13T11:23:01.000Z</time>
      </trkpt>
      <trkpt lat="47.4939" lon="6.77345">
        <ele>310</ele>
        <time>2016-03-13T11:23:02.000Z</time>
      </trkpt>
      <trkpt lat="47.49394" lon="6.77344">
        <ele>310</ele>
        <time>2016-03-13T11:23:03.000Z</time>
      </trkpt>
      <trkpt lat="47.49398" lon="6.77345">
        <ele>310</ele>
        <time>2016-03-13T11:23:04.000Z</time>
      </trkpt>
      <trkpt lat="47.49403" lon="6.77346">
        <ele>311</ele>
        <time>2016-03-13T11:23:05.000Z</time>
      </trkpt>
      <trkpt lat="47.49408" lon="6.77346">
        <ele>311</ele>
        <time>2016-03-13T11:23:06.000Z</time>
      </trkpt>
      <trkpt lat="47.49412" lon="6.77346">
        <ele>311</ele>
        <time>2016-03-13T11:23:07.000Z</time>
      </trkpt>
      <trkpt lat="47.49417" lon="6.77347">
        <ele>311</ele>
        <time>2016-03-13T11:23:08.000Z</time>
      </trkpt>
      <trkpt lat="47.49421" lon="6.77347">
        <ele>311</ele>
        <time>2016-03-13T11:23:09.000Z</time>
      </trkpt>
      <trkpt lat="47.49426" lon="6.77348">
        <ele>311</ele>
        <time>2016-03-13T11:23:10.000Z</time>
      </trkpt>
      <trkpt lat="47.4943" lon="6.77348">
        <ele>311</ele>
        <time>2016-03-13T11:23:11.000Z</time>
      </trkpt>
      <trkpt lat="47.49435" lon="6.77348">
        <ele>311</ele>
        <time>2016-03-13T11:23:12.000Z</time>
      </trkpt>
      <trkpt lat="47.49439" lon="6.77348">
        <ele>311</ele>
        <time>2016-03-13T11:23:13.000Z</time>
      </trkpt>
      <trkpt lat="47.49443" lon="6.77349">
        <ele>311</ele>
        <time>2016-03-13T11:23:14.000Z</time>
      </trkpt>
      <trkpt lat="47.49448" lon="6.77349">
        <ele>311</ele>
        <time>2016-03-13T11:23:15.000Z</time>
      </trkpt>
      <trkpt lat="47.49452" lon="6.77349">
        <ele>311</ele>
        <time>2016-03-13T11:23:16.000Z</time>
      </trkpt>
      <trkpt lat="47.49457" lon="6.77349">
        <ele>311</ele>
        <time>2016-03-13T11:23:17.000Z</time>
      </trkpt>
      <trkpt lat="47.49461" lon="6.7735">
        <ele>311</ele>
        <time>2016-03-13T11:23:18.000Z</time>
      </trkpt>
      <trkpt lat="47.49465" lon="6.77351">
        <ele>311</ele>
        <time>2016-03-13T11:23:19.000Z</time>
      </trkpt>
      <trkpt lat="47.4947" lon="6.7735">
        <ele>311</ele>
        <time>2016-03-13T11:23:20.000Z</time>
      </trkpt>
      <trkpt lat="47.49474" lon="6.77351">
        <ele>311</ele>
        <time>2016-03-13T11:23:21.000Z</time>
      </trkpt>
      <trkpt lat="47.49478" lon="6.77351">
        <ele>311</ele>
        <time>2016-03-13T11:23:22.000Z</time>
      </trkpt>
      <trkpt lat="47.49483" lon="6.77351">
        <ele>311</ele>
        <time>2016-03-13T11:23:23.000Z</time>
      </trkpt>
      <trkpt lat="47.49487" lon="6.77352">
        <ele>312</ele>
        <time>2016-03-13T11:23:24.000Z</time>
      </trkpt>
      <trkpt lat="47.49491" lon="6.77352">
        <ele>312</ele>
        <time>2016-03-13T11:23:25.000Z</time>
      </trkpt>
      <trkpt lat="47.49496" lon="6.77353">
        <ele>312</ele>
        <time>2016-03-13T11:23:26.000Z</time>
      </trkpt>
      <trkpt lat="47.495" lon="6.77353">
        <ele>312</ele>
        <time>2016-03-13T11:23:27.000Z</time>
      </trkpt>
      <trkpt lat="47.49504" lon="6.77353">
        <ele>312</ele>
        <time>2016-03-13T11:23:28.000Z</time>
      </trkpt>
      <trkpt lat="47.49509" lon="6.77354">
        <ele>312</ele>
        <time>2016-03-13T11:23:29.000Z</time>
      </trkpt>
      <trkpt lat="47.49513" lon="6.77355">
        <ele>312</ele>
        <time>2016-03-13T11:23:30.000Z</time>
      </trkpt>
      <trkpt lat="47.49517" lon="6.77355">
        <ele>312</ele>
        <time>2016-03-13T11:23:31.000Z</time>
      </trkpt>
      <trkpt lat="47.49521" lon="6.77356">
        <ele>312</ele>
        <time>2016-03-13T11:23:32.000Z</time>
      </trkpt>
      <trkpt lat="47.49525" lon="6.77356">
        <ele>312</ele>
        <time>2016-03-13T11:23:33.000Z</time>
      </trkpt>
      <trkpt lat="47.49529" lon="6.77357">
        <ele>312</ele>
        <time>2016-03-13T11:23:34.000Z</time>
      </trkpt>
      <trkpt lat="47.49533" lon="6.77358">
        <ele>312</ele>
        <time>2016-03-13T11:23:35.000Z</time>
      </trkpt>
      <trkpt lat="47.49538" lon="6.77359">
        <ele>312</ele>
        <time>2016-03-13T11:23:36.000Z</time>
      </trkpt>
      <trkpt lat="47.49543" lon="6.7736">
        <ele>312</ele>
        <time>2016-03-13T11:23:37.000Z</time>
      </trkpt>
      <trkpt lat="47.49548" lon="6.7736">
        <ele>312</ele>
        <time>2016-03-13T11:23:38.000Z</time>
      </trkpt>
      <trkpt lat="47.49552" lon="6.77359">
        <ele>312</ele>
        <time>2016-03-13T11:23:39.000Z</time>
      </trkpt>
      <trkpt lat="47.49557" lon="6.7736">
        <ele>312</ele>
        <time>2016-03-13T11:23:40.000Z</time>
      </trkpt>
      <trkpt lat="47.49562" lon="6.77362">
        <ele>312</ele>
        <time>2016-03-13T11:23:41.000Z</time>
      </trkpt>
      <trkpt lat="47.49567" lon="6.77362">
        <ele>312</ele>
        <time>2016-03-13T11:23:42.000Z</time>
      </trkpt>
      <trkpt lat="47.49571" lon="6.77362">
        <ele>313</ele>
        <time>2016-03-13T11:23:43.000Z</time>
      </trkpt>
      <trkpt lat="47.49576" lon="6.77362">
        <ele>313</ele>
        <time>2016-03-13T11:23:44.000Z</time>
      </trkpt>
      <trkpt lat="47.49581" lon="6.77362">
        <ele>313</ele>
        <time>2016-03-13T11:23:45.000Z</time>
      </trkpt>
      <trkpt lat="47.49585" lon="6.77362">
        <ele>313</ele>
        <time>2016-03-13T11:23:46.000Z</time>
      </trkpt>
      <trkpt lat="47.4959" lon="6.77361">
        <ele>313</ele>
        <time>2016-03-13T11:23:47.000Z</time>
      </trkpt>
      <trkpt lat="47.49595" lon="6.7736">
        <ele>313</ele>
        <time>2016-03-13T11:23:48.000Z</time>
      </trkpt>
      <trkpt lat="47.496" lon="6.77358">
        <ele>313</ele>
        <time>2016-03-13T11:23:49.000Z</time>
      </trkpt>
      <trkpt lat="47.49605" lon="6.77357">
        <ele>313</ele>
        <time>2016-03-13T11:23:50.000Z</time>
      </trkpt>
      <trkpt lat="47.4961" lon="6.77357">
        <ele>313</ele>
        <time>2016-03-13T11:23:51.000Z</time>
      </trkpt>
      <trkpt lat="47.49615" lon="6.77357">
        <ele>313</ele>
        <time>2016-03-13T11:23:52.000Z</time>
      </trkpt>
      <trkpt lat="47.49619" lon="6.77356">
        <ele>313</ele>
        <time>2016-03-13T11:23:53.000Z</time>
      </trkpt>
      <trkpt lat="47.49624" lon="6.77355">
        <ele>313</ele>
        <time>2016-03-13T11:23:54.000Z</time>
      </trkpt>
      <trkpt lat="47.49629" lon="6.77353">
        <ele>313</ele>
        <time>2016-03-13T11:23:55.000Z</time>
      </trkpt>
      <trkpt lat="47.49633" lon="6.77352">
        <ele>313</ele>
        <time>2016-03-13T11:23:56.000Z</time>
      </trkpt>
      <trkpt lat="47.49638" lon="6.7735">
        <ele>313</ele>
        <time>2016-03-13T11:23:57.000Z</time>
      </trkpt>
      <trkpt lat="47.49643" lon="6.77348">
        <ele>313</ele>
        <time>2016-03-13T11:23:58.000Z</time>
      </trkpt>
      <trkpt lat="47.49648" lon="6.77347">
        <ele>313</ele>
        <time>2016-03-13T11:23:59.000Z</time>
      </trkpt>
      <trkpt lat="47.49653" lon="6.77345">
        <ele>313</ele>
        <time>2016-03-13T11:24:00.000Z</time>
      </trkpt>
      <trkpt lat="47.49657" lon="6.77344">
        <ele>313</ele>
        <time>2016-03-13T11:24:01.000Z</time>
      </trkpt>
      <trkpt lat="47.49661" lon="6.77344">
        <ele>313</ele>
        <time>2016-03-13T11:24:02.000Z</time>
      </trkpt>
      <trkpt lat="47.49666" lon="6.77342">
        <ele>314</ele>
        <time>2016-03-13T11:24:03.000Z</time>
      </trkpt>
      <trkpt lat="47.49671" lon="6.77341">
        <ele>313</ele>
        <time>2016-03-13T11:24:04.000Z</time>
      </trkpt>
      <trkpt lat="47.49676" lon="6.77339">
        <ele>313</ele>
        <time>2016-03-13T11:24:05.000Z</time>
      </trkpt>
      <trkpt lat="47.4968" lon="6.77339">
        <ele>313</ele>
        <time>2016-03-13T11:24:06.000Z</time>
      </trkpt>
      <trkpt lat="47.49684" lon="6.77336">
        <ele>313</ele>
        <time>2016-03-13T11:24:07.000Z</time>
      </trkpt>
      <trkpt lat="47.49689" lon="6.77335">
        <ele>313</ele>
        <time>2016-03-13T11:24:08.000Z</time>
      </trkpt>
      <trkpt lat="47.49694" lon="6.77333">
        <ele>315</ele>
        <time>2016-03-13T11:24:09.000Z</time>
      </trkpt>
      <trkpt lat="47.49699" lon="6.77332">
        <ele>315</ele>
        <time>2016-03-13T11:24:10.000Z</time>
      </trkpt>
      <trkpt lat="47.49704" lon="6.7733">
        <ele>315</ele>
        <time>2016-03-13T11:24:11.000Z</time>
      </trkpt>
      <trkpt lat="47.49709" lon="6.77328">
        <ele>315</ele>
        <time>2016-03-13T11:24:12.000Z</time>
      </trkpt>
      <trkpt lat="47.49713" lon="6.77327">
        <ele>315</ele>
        <time>2016-03-13T11:24:13.000Z</time>
      </trkpt>
      <trkpt lat="47.49718" lon="6.77325">
        <ele>315</ele>
        <time>2016-03-13T11:24:14.000Z</time>
      </trkpt>
      <trkpt lat="47.49723" lon="6.77325">
        <ele>314</ele>
        <time>2016-03-13T11:24:15.000Z</time>
      </trkpt>
      <trkpt lat="47.49728" lon="6.77324">
        <ele>314</ele>
        <time>2016-03-13T11:24:16.000Z</time>
      </trkpt>
      <trkpt lat="47.49733" lon="6.77321">
        <ele>314</ele>
        <time>2016-03-13T11:24:17.000Z</time>
      </trkpt>
      <trkpt lat="47.49737" lon="6.77318">
        <ele>314</ele>
        <time>2016-03-13T11:24:18.000Z</time>
      </trkpt>
      <trkpt lat="47.49742" lon="6.77315">
        <ele>314</ele>
        <time>2016-03-13T11:24:19.000Z</time>
      </trkpt>
      <trkpt lat="47.49746" lon="6.77313">
        <ele>314</ele>
        <time>2016-03-13T11:24:20.000Z</time>
      </trkpt>
      <trkpt lat="47.4975" lon="6.77312">
        <ele>316</ele>
        <time>2016-03-13T11:24:21.000Z</time>
      </trkpt>
      <trkpt lat="47.49755" lon="6.77311">
        <ele>316</ele>
        <time>2016-03-13T11:24:22.000Z</time>
      </trkpt>
      <trkpt lat="47.49759" lon="6.77309">
        <ele>316</ele>
        <time>2016-03-13T11:24:23.000Z</time>
      </trkpt>
      <trkpt lat="47.49763" lon="6.77308">
        <ele>316</ele>
        <time>2016-03-13T11:24:24.000Z</time>
      </trkpt>
      <trkpt lat="47.49768" lon="6.77309">
        <ele>316</ele>
        <time>2016-03-13T11:24:25.000Z</time>
      </trkpt>
      <trkpt lat="47.49773" lon="6.77306">
        <ele>317</ele>
        <time>2016-03-13T11:24:26.000Z</time>
      </trkpt>
      <trkpt lat="47.49779" lon="6.77305">
        <ele>317</ele>
        <time>2016-03-13T11:24:27.000Z</time>
      </trkpt>
      <trkpt lat="47.49782" lon="6.77309">
        <ele>317</ele>
        <time>2016-03-13T11:24:28.000Z</time>
      </trkpt>
      <trkpt lat="47.49788" lon="6.77308">
        <ele>317</ele>
        <time>2016-03-13T11:24:29.000Z</time>
      </trkpt>
      <trkpt lat="47.49793" lon="6.77308">
        <ele>317</ele>
        <time>2016-03-13T11:24:30.000Z</time>
      </trkpt>
      <trkpt lat="47.49797" lon="6.77307">
        <ele>317</ele>
        <time>2016-03-13T11:24:31.000Z</time>
      </trkpt>
      <trkpt lat="47.49802" lon="6.77306">
        <ele>317</ele>
        <time>2016-03-13T11:24:32.000Z</time>
      </trkpt>
      <trkpt lat="47.49807" lon="6.77302">
        <ele>317</ele>
        <time>2016-03-13T11:24:33.000Z</time>
      </trkpt>
      <trkpt lat="47.49811" lon="6.773">
        <ele>318</ele>
        <time>2016-03-13T11:24:34.000Z</time>
      </trkpt>
      <trkpt lat="47.49816" lon="6.773">
        <ele>318</ele>
        <time>2016-03-13T11:24:35.000Z</time>
      </trkpt>
      <trkpt lat="47.49821" lon="6.77304">
        <ele>317</ele>
        <time>2016-03-13T11:24:36.000Z</time>
      </trkpt>
      <trkpt lat="47.49825" lon="6.77306">
        <ele>317</ele>
        <time>2016-03-13T11:24:37.000Z</time>
      </trkpt>
      <trkpt lat="47.49831" lon="6.77297">
        <ele>318</ele>
        <time>2016-03-13T11:24:38.000Z</time>
      </trkpt>
      <trkpt lat="47.49836" lon="6.77297">
        <ele>319</ele>
        <time>2016-03-13T11:24:39.000Z</time>
      </trkpt>
      <trkpt lat="47.4984" lon="6.77296">
        <ele>319</ele>
        <time>2016-03-13T11:24:40.000Z</time>
      </trkpt>
      <trkpt lat="47.49845" lon="6.77297">
        <ele>319</ele>
        <time>2016-03-13T11:24:41.000Z</time>
      </trkpt>
      <trkpt lat="47.4985" lon="6.77296">
        <ele>319</ele>
        <time>2016-03-13T11:24:42.000Z</time>
      </trkpt>
      <trkpt lat="47.49855" lon="6.77294">
        <ele>319</ele>
        <time>2016-03-13T11:24:43.000Z</time>
      </trkpt>
      <trkpt lat="47.49861" lon="6.77293">
        <ele>319</ele>
        <time>2016-03-13T11:24:44.000Z</time>
      </trkpt>
      <trkpt lat="47.49865" lon="6.77293">
        <ele>319</ele>
        <time>2016-03-13T11:24:45.000Z</time>
      </trkpt>
      <trkpt lat="47.4987" lon="6.77289">
        <ele>319</ele>
        <time>2016-03-13T11:24:46.000Z</time>
      </trkpt>
      <trkpt lat="47.49874" lon="6.77288">
        <ele>319</ele>
        <time>2016-03-13T11:24:47.000Z</time>
      </trkpt>
      <trkpt lat="47.49879" lon="6.77287">
        <ele>319</ele>
        <time>2016-03-13T11:24:48.000Z</time>
      </trkpt>
      <trkpt lat="47.49883" lon="6.77288">
        <ele>319</ele>
        <time>2016-03-13T11:24:49.000Z</time>
      </trkpt>
      <trkpt lat="47.49887" lon="6.77287">
        <ele>319</ele>
        <time>2016-03-13T11:24:50.000Z</time>
      </trkpt>
      <trkpt lat="47.49891" lon="6.77285">
        <ele>319</ele>
        <time>2016-03-13T11:24:51.000Z</time>
      </trkpt>
      <trkpt lat="47.49896" lon="6.77284">
        <ele>320</ele>
        <time>2016-03-13T11:24:52.000Z</time>
      </trkpt>
      <trkpt lat="47.499" lon="6.77279">
        <ele>320</ele>
        <time>2016-03-13T11:24:53.000Z</time>
      </trkpt>
      <trkpt lat="47.49905" lon="6.77281">
        <ele>320</ele>
        <time>2016-03-13T11:24:54.000Z</time>
      </trkpt>
      <trkpt lat="47.49909" lon="6.77279">
        <ele>320</ele>
        <time>2016-03-13T11:24:55.000Z</time>
      </trkpt>
      <trkpt lat="47.49914" lon="6.77277">
        <ele>320</ele>
        <time>2016-03-13T11:24:56.000Z</time>
      </trkpt>
      <trkpt lat="47.49919" lon="6.77276">
        <ele>319</ele>
        <time>2016-03-13T11:24:57.000Z</time>
      </trkpt>
      <trkpt lat="47.49923" lon="6.77274">
        <ele>319</ele>
        <time>2016-03-13T11:24:58.000Z</time>
      </trkpt>
      <trkpt lat="47.49927" lon="6.77276">
        <ele>318</ele>
        <time>2016-03-13T11:24:59.000Z</time>
      </trkpt>
      <trkpt lat="47.4993" lon="6.77276">
        <ele>318</ele>
        <time>2016-03-13T11:25:00.000Z</time>
      </trkpt>
      <trkpt lat="47.49935" lon="6.77273">
        <ele>318</ele>
        <time>2016-03-13T11:25:01.000Z</time>
      </trkpt>
      <trkpt lat="47.49939" lon="6.77269">
        <ele>318</ele>
        <time>2016-03-13T11:25:02.000Z</time>
      </trkpt>
      <trkpt lat="47.49943" lon="6.77262">
        <ele>319</ele>
        <time>2016-03-13T11:25:03.000Z</time>
      </trkpt>
      <trkpt lat="47.49947" lon="6.7726">
        <ele>318</ele>
        <time>2016-03-13T11:25:04.000Z</time>
      </trkpt>
      <trkpt lat="47.49952" lon="6.77258">
        <ele>318</ele>
        <time>2016-03-13T11:25:05.000Z</time>
      </trkpt>
      <trkpt lat="47.49956" lon="6.77256">
        <ele>318</ele>
        <time>2016-03-13T11:25:06.000Z</time>
      </trkpt>
      <trkpt lat="47.4996" lon="6.77254">
        <ele>317</ele>
        <time>2016-03-13T11:25:07.000Z</time>
      </trkpt>
      <trkpt lat="47.49964" lon="6.77251">
        <ele>317</ele>
        <time>2016-03-13T11:25:08.000Z</time>
      </trkpt>
      <trkpt lat="47.49968" lon="6.7725">
        <ele>317</ele>
        <time>2016-03-13T11:25:09.000Z</time>
      </trkpt>
      <trkpt lat="47.49973" lon="6.77247">
        <ele>327</ele>
        <time>2016-03-13T11:25:10.000Z</time>
      </trkpt>
      <trkpt lat="47.49978" lon="6.77245">
        <ele>327</ele>
        <time>2016-03-13T11:25:11.000Z</time>
      </trkpt>
      <trkpt lat="47.49982" lon="6.77242">
        <ele>326</ele>
        <time>2016-03-13T11:25:12.000Z</time>
      </trkpt>
      <trkpt lat="47.49987" lon="6.7724">
        <ele>325</ele>
        <time>2016-03-13T11:25:13.000Z</time>
      </trkpt>
      <trkpt lat="47.49991" lon="6.77238">
        <ele>325</ele>
        <time>2016-03-13T11:25:14.000Z</time>
      </trkpt>
      <trkpt lat="47.49995" lon="6.77235">
        <ele>325</ele>
        <time>2016-03-13T11:25:15.000Z</time>
      </trkpt>
      <trkpt lat="47.49998" lon="6.77234">
        <ele>325</ele>
        <time>2016-03-13T11:25:16.000Z</time>
      </trkpt>
      <trkpt lat="47.50001" lon="6.77232">
        <ele>324</ele>
        <time>2016-03-13T11:25:17.000Z</time>
      </trkpt>
      <trkpt lat="47.50005" lon="6.77231">
        <ele>324</ele>
        <time>2016-03-13T11:25:18.000Z</time>
      </trkpt>
      <trkpt lat="47.50008" lon="6.77229">
        <ele>325</ele>
        <time>2016-03-13T11:25:19.000Z</time>
      </trkpt>
      <trkpt lat="47.50011" lon="6.77228">
        <ele>326</ele>
        <time>2016-03-13T11:25:20.000Z</time>
      </trkpt>
      <trkpt lat="47.50015" lon="6.77226">
        <ele>326</ele>
        <time>2016-03-13T11:25:21.000Z</time>
      </trkpt>
      <trkpt lat="47.50018" lon="6.77225">
        <ele>327</ele>
        <time>2016-03-13T11:25:22.000Z</time>
      </trkpt>
      <trkpt lat="47.50021" lon="6.77223">
        <ele>327</ele>
        <time>2016-03-13T11:25:23.000Z</time>
      </trkpt>
      <trkpt lat="47.50025" lon="6.77222">
        <ele>328</ele>
        <time>2016-03-13T11:25:24.000Z</time>
      </trkpt>
      <trkpt lat="47.50028" lon="6.7722">
        <ele>328</ele>
        <time>2016-03-13T11:25:25.000Z</time>
      </trkpt>
      <trkpt lat="47.50032" lon="6.77219">
        <ele>328</ele>
        <time>2016-03-13T11:25:26.000Z</time>
      </trkpt>
      <trkpt lat="47.50036" lon="6.77217">
        <ele>329</ele>
        <time>2016-03-13T11:25:27.000Z</time>
      </trkpt>
      <trkpt lat="47.5004" lon="6.77215">
        <ele>329</ele>
        <time>2016-03-13T11:25:28.000Z</time>
      </trkpt>
      <trkpt lat="47.50045" lon="6.77214">
        <ele>329</ele>
        <time>2016-03-13T11:25:29.000Z</time>
      </trkpt>
      <trkpt lat="47.50049" lon="6.77212">
        <ele>329</ele>
        <time>2016-03-13T11:25:30.000Z</time>
      </trkpt>
      <trkpt lat="47.50053" lon="6.77211">
        <ele>329</ele>
        <time>2016-03-13T11:25:31.000Z</time>
      </trkpt>
      <trkpt lat="47.50058" lon="6.7721">
        <ele>329</ele>
        <time>2016-03-13T11:25:32.000Z</time>
      </trkpt>
      <trkpt lat="47.50062" lon="6.7721">
        <ele>329</ele>
        <time>2016-03-13T11:25:33.000Z</time>
      </trkpt>
      <trkpt lat="47.50066" lon="6.77209">
        <ele>329</ele>
        <time>2016-03-13T11:25:34.000Z</time>
      </trkpt>
      <trkpt lat="47.50073" lon="6.77212">
        <ele>328</ele>
        <time>2016-03-13T11:25:35.000Z</time>
      </trkpt>
      <trkpt lat="47.50078" lon="6.77211">
        <ele>328</ele>
        <time>2016-03-13T11:25:36.000Z</time>
      </trkpt>
      <trkpt lat="47.50083" lon="6.7721">
        <ele>329</ele>
        <time>2016-03-13T11:25:37.000Z</time>
      </trkpt>
      <trkpt lat="47.50087" lon="6.77207">
        <ele>325</ele>
        <time>2016-03-13T11:25:38.000Z</time>
      </trkpt>
      <trkpt lat="47.50091" lon="6.77204">
        <ele>325</ele>
        <time>2016-03-13T11:25:39.000Z</time>
      </trkpt>
      <trkpt lat="47.50096" lon="6.77203">
        <ele>325</ele>
        <time>2016-03-13T11:25:40.000Z</time>
      </trkpt>
      <trkpt lat="47.50101" lon="6.77201">
        <ele>325</ele>
        <time>2016-03-13T11:25:41.000Z</time>
      </trkpt>
      <trkpt lat="47.50105" lon="6.772">
        <ele>325</ele>
        <time>2016-03-13T11:25:42.000Z</time>
      </trkpt>
      <trkpt lat="47.50111" lon="6.77199">
        <ele>325</ele>
        <time>2016-03-13T11:25:43.000Z</time>
      </trkpt>
      <trkpt lat="47.50116" lon="6.772">
        <ele>324</ele>
        <time>2016-03-13T11:25:44.000Z</time>
      </trkpt>
      <trkpt lat="47.50122" lon="6.772">
        <ele>324</ele>
        <time>2016-03-13T11:25:45.000Z</time>
      </trkpt>
      <trkpt lat="47.50128" lon="6.77202">
        <ele>323</ele>
        <time>2016-03-13T11:25:46.000Z</time>
      </trkpt>
      <trkpt lat="47.50134" lon="6.77204">
        <ele>323</ele>
        <time>2016-03-13T11:25:47.000Z</time>
      </trkpt>
      <trkpt lat="47.5014" lon="6.77204">
        <ele>322</ele>
        <time>2016-03-13T11:25:48.000Z</time>
      </trkpt>
      <trkpt lat="47.50145" lon="6.77203">
        <ele>322</ele>
        <time>2016-03-13T11:25:49.000Z</time>
      </trkpt>
      <trkpt lat="47.5015" lon="6.77206">
        <ele>322</ele>
        <time>2016-03-13T11:25:50.000Z</time>
      </trkpt>
      <trkpt lat="47.50156" lon="6.77212">
        <ele>321</ele>
        <time>2016-03-13T11:25:51.000Z</time>
      </trkpt>
      <trkpt lat="47.50161" lon="6.77218">
        <ele>320</ele>
        <time>2016-03-13T11:25:52.000Z</time>
      </trkpt>
      <trkpt lat="47.50166" lon="6.77224">
        <ele>319</ele>
        <time>2016-03-13T11:25:53.000Z</time>
      </trkpt>
      <trkpt lat="47.50171" lon="6.77229">
        <ele>316</ele>
        <time>2016-03-13T11:25:54.000Z</time>
      </trkpt>
      <trkpt lat="47.50177" lon="6.77234">
        <ele>315</ele>
        <time>2016-03-13T11:25:55.000Z</time>
      </trkpt>
      <trkpt lat="47.50182" lon="6.77238">
        <ele>315</ele>
        <time>2016-03-13T11:25:56.000Z</time>
      </trkpt>
      <trkpt lat="47.50188" lon="6.77243">
        <ele>315</ele>
        <time>2016-03-13T11:25:57.000Z</time>
      </trkpt>
      <trkpt lat="47.50193" lon="6.77248">
        <ele>315</ele>
        <time>2016-03-13T11:25:58.000Z</time>
      </trkpt>
      <trkpt lat="47.50197" lon="6.77255">
        <ele>313</ele>
        <time>2016-03-13T11:25:59.000Z</time>
      </trkpt>
      <trkpt lat="47.50203" lon="6.77259">
        <ele>313</ele>
        <time>2016-03-13T11:26:00.000Z</time>
      </trkpt>
      <trkpt lat="47.50208" lon="6.77264">
        <ele>313</ele>
        <time>2016-03-13T11:26:01.000Z</time>
      </trkpt>
      <trkpt lat="47.50213" lon="6.77267">
        <ele>313</ele>
        <time>2016-03-13T11:26:02.000Z</time>
      </trkpt>
      <trkpt lat="47.50218" lon="6.77273">
        <ele>313</ele>
        <time>2016-03-13T11:26:03.000Z</time>
      </trkpt>
      <trkpt lat="47.50223" lon="6.77277">
        <ele>313</ele>
        <time>2016-03-13T11:26:04.000Z</time>
      </trkpt>
      <trkpt lat="47.50228" lon="6.7728">
        <ele>313</ele>
        <time>2016-03-13T11:26:05.000Z</time>
      </trkpt>
      <trkpt lat="47.50233" lon="6.77283">
        <ele>313</ele>
        <time>2016-03-13T11:26:06.000Z</time>
      </trkpt>
      <trkpt lat="47.50238" lon="6.77286">
        <ele>313</ele>
        <time>2016-03-13T11:26:07.000Z</time>
      </trkpt>
      <trkpt lat="47.50243" lon="6.77295">
        <ele>313</ele>
        <time>2016-03-13T11:26:08.000Z</time>
      </trkpt>
      <trkpt lat="47.50249" lon="6.77299">
        <ele>313</ele>
        <time>2016-03-13T11:26:09.000Z</time>
      </trkpt>
      <trkpt lat="47.50255" lon="6.77303">
        <ele>313</ele>
        <time>2016-03-13T11:26:10.000Z</time>
      </trkpt>
      <trkpt lat="47.5026" lon="6.77305">
        <ele>313</ele>
        <time>2016-03-13T11:26:11.000Z</time>
      </trkpt>
      <trkpt lat="47.50265" lon="6.7731">
        <ele>313</ele>
        <time>2016-03-13T11:26:12.000Z</time>
      </trkpt>
      <trkpt lat="47.5027" lon="6.77315">
        <ele>313</ele>
        <time>2016-03-13T11:26:13.000Z</time>
      </trkpt>
      <trkpt lat="47.50274" lon="6.77317">
        <ele>313</ele>
        <time>2016-03-13T11:26:14.000Z</time>
      </trkpt>
      <trkpt lat="47.50279" lon="6.77322">
        <ele>313</ele>
        <time>2016-03-13T11:26:15.000Z</time>
      </trkpt>
      <trkpt lat="47.50284" lon="6.77325">
        <ele>313</ele>
        <time>2016-03-13T11:26:16.000Z</time>
      </trkpt>
      <trkpt lat="47.5029" lon="6.77327">
        <ele>312</ele>
        <time>2016-03-13T11:26:17.000Z</time>
      </trkpt>
      <trkpt lat="47.50295" lon="6.77331">
        <ele>312</ele>
        <time>2016-03-13T11:26:18.000Z</time>
      </trkpt>
      <trkpt lat="47.503" lon="6.77334">
        <ele>312</ele>
        <time>2016-03-13T11:26:19.000Z</time>
      </trkpt>
      <trkpt lat="47.50305" lon="6.77337">
        <ele>312</ele>
        <time>2016-03-13T11:26:20.000Z</time>
      </trkpt>
      <trkpt lat="47.5031" lon="6.77342">
        <ele>312</ele>
        <time>2016-03-13T11:26:21.000Z</time>
      </trkpt>
      <trkpt lat="47.50314" lon="6.77345">
        <ele>312</ele>
        <time>2016-03-13T11:26:22.000Z</time>
      </trkpt>
      <trkpt lat="47.50319" lon="6.77349">
        <ele>312</ele>
        <time>2016-03-13T11:26:23.000Z</time>
      </trkpt>
      <trkpt lat="47.50323" lon="6.77353">
        <ele>312</ele>
        <time>2016-03-13T11:26:24.000Z</time>
      </trkpt>
      <trkpt lat="47.50328" lon="6.77357">
        <ele>312</ele>
        <time>2016-03-13T11:26:25.000Z</time>
      </trkpt>
      <trkpt lat="47.50333" lon="6.77359">
        <ele>312</ele>
        <time>2016-03-13T11:26:26.000Z</time>
      </trkpt>
      <trkpt lat="47.50338" lon="6.77363">
        <ele>312</ele>
        <time>2016-03-13T11:26:27.000Z</time>
      </trkpt>
      <trkpt lat="47.50342" lon="6.77369">
        <ele>312</ele>
        <time>2016-03-13T11:26:28.000Z</time>
      </trkpt>
      <trkpt lat="47.50347" lon="6.77373">
        <ele>312</ele>
        <time>2016-03-13T11:26:29.000Z</time>
      </trkpt>
      <trkpt lat="47.50352" lon="6.77376">
        <ele>312</ele>
        <time>2016-03-13T11:26:30.000Z</time>
      </trkpt>
      <trkpt lat="47.50357" lon="6.7738">
        <ele>312</ele>
        <time>2016-03-13T11:26:31.000Z</time>
      </trkpt>
      <trkpt lat="47.50362" lon="6.77383">
        <ele>312</ele>
        <time>2016-03-13T11:26:32.000Z</time>
      </trkpt>
      <trkpt lat="47.50366" lon="6.77387">
        <ele>312</ele>
        <time>2016-03-13T11:26:33.000Z</time>
      </trkpt>
      <trkpt lat="47.50371" lon="6.77392">
        <ele>312</ele>
        <time>2016-03-13T11:26:34.000Z</time>
      </trkpt>
      <trkpt lat="47.50376" lon="6.77396">
        <ele>312</ele>
        <time>2016-03-13T11:26:35.000Z</time>
      </trkpt>
      <trkpt lat="47.5038" lon="6.77402">
        <ele>312</ele>
        <time>2016-03-13T11:26:36.000Z</time>
      </trkpt>
      <trkpt lat="47.50384" lon="6.77406">
        <ele>312</ele>
        <time>2016-03-13T11:26:37.000Z</time>
      </trkpt>
      <trkpt lat="47.50389" lon="6.77412">
        <ele>312</ele>
        <time>2016-03-13T11:26:38.000Z</time>
      </trkpt>
      <trkpt lat="47.50393" lon="6.77416">
        <ele>312</ele>
        <time>2016-03-13T11:26:39.000Z</time>
      </trkpt>
      <trkpt lat="47.50398" lon="6.77418">
        <ele>311</ele>
        <time>2016-03-13T11:26:40.000Z</time>
      </trkpt>
      <trkpt lat="47.50402" lon="6.77423">
        <ele>311</ele>
        <time>2016-03-13T11:26:41.000Z</time>
      </trkpt>
      <trkpt lat="47.50407" lon="6.77426">
        <ele>311</ele>
        <time>2016-03-13T11:26:42.000Z</time>
      </trkpt>
      <trkpt lat="47.50411" lon="6.7743">
        <ele>311</ele>
        <time>2016-03-13T11:26:43.000Z</time>
      </trkpt>
      <trkpt lat="47.50416" lon="6.77433">
        <ele>311</ele>
        <time>2016-03-13T11:26:44.000Z</time>
      </trkpt>
      <trkpt lat="47.5042" lon="6.77437">
        <ele>312</ele>
        <time>2016-03-13T11:26:45.000Z</time>
      </trkpt>
      <trkpt lat="47.50425" lon="6.7744">
        <ele>312</ele>
        <time>2016-03-13T11:26:46.000Z</time>
      </trkpt>
      <trkpt lat="47.50429" lon="6.77445">
        <ele>312</ele>
        <time>2016-03-13T11:26:47.000Z</time>
      </trkpt>
      <trkpt lat="47.50434" lon="6.77448">
        <ele>312</ele>
        <time>2016-03-13T11:26:48.000Z</time>
      </trkpt>
      <trkpt lat="47.50438" lon="6.77452">
        <ele>312</ele>
        <time>2016-03-13T11:26:49.000Z</time>
      </trkpt>
      <trkpt lat="47.50442" lon="6.77454">
        <ele>312</ele>
        <time>2016-03-13T11:26:50.000Z</time>
      </trkpt>
      <trkpt lat="47.50446" lon="6.77456">
        <ele>312</ele>
        <time>2016-03-13T11:26:51.000Z</time>
      </trkpt>
      <trkpt lat="47.50451" lon="6.77461">
        <ele>312</ele>
        <time>2016-03-13T11:26:52.000Z</time>
      </trkpt>
      <trkpt lat="47.50455" lon="6.77465">
        <ele>312</ele>
        <time>2016-03-13T11:26:53.000Z</time>
      </trkpt>
      <trkpt lat="47.5046" lon="6.7747">
        <ele>313</ele>
        <time>2016-03-13T11:26:54.000Z</time>
      </trkpt>
      <trkpt lat="47.50464" lon="6.77473">
        <ele>313</ele>
        <time>2016-03-13T11:26:55.000Z</time>
      </trkpt>
      <trkpt lat="47.50468" lon="6.77477">
        <ele>313</ele>
        <time>2016-03-13T11:26:56.000Z</time>
      </trkpt>
      <trkpt lat="47.50472" lon="6.77481">
        <ele>313</ele>
        <time>2016-03-13T11:26:57.000Z</time>
      </trkpt>
      <trkpt lat="47.50476" lon="6.77484">
        <ele>313</ele>
        <time>2016-03-13T11:26:58.000Z</time>
      </trkpt>
      <trkpt lat="47.5048" lon="6.77487">
        <ele>313</ele>
        <time>2016-03-13T11:26:59.000Z</time>
      </trkpt>
      <trkpt lat="47.50482" lon="6.77491">
        <ele>313</ele>
        <time>2016-03-13T11:27:00.000Z</time>
      </trkpt>
      <trkpt lat="47.50486" lon="6.77496">
        <ele>313</ele>
        <time>2016-03-13T11:27:01.000Z</time>
      </trkpt>
      <trkpt lat="47.50492" lon="6.77499">
        <ele>314</ele>
        <time>2016-03-13T11:27:02.000Z</time>
      </trkpt>
      <trkpt lat="47.50496" lon="6.77503">
        <ele>314</ele>
        <time>2016-03-13T11:27:03.000Z</time>
      </trkpt>
      <trkpt lat="47.505" lon="6.77509">
        <ele>314</ele>
        <time>2016-03-13T11:27:04.000Z</time>
      </trkpt>
      <trkpt lat="47.50505" lon="6.77512">
        <ele>314</ele>
        <time>2016-03-13T11:27:05.000Z</time>
      </trkpt>
      <trkpt lat="47.50509" lon="6.77518">
        <ele>314</ele>
        <time>2016-03-13T11:27:06.000Z</time>
      </trkpt>
      <trkpt lat="47.50513" lon="6.77521">
        <ele>313</ele>
        <time>2016-03-13T11:27:07.000Z</time>
      </trkpt>
      <trkpt lat="47.50519" lon="6.77523">
        <ele>313</ele>
        <time>2016-03-13T11:27:08.000Z</time>
      </trkpt>
      <trkpt lat="47.50524" lon="6.77526">
        <ele>313</ele>
        <time>2016-03-13T11:27:09.000Z</time>
      </trkpt>
      <trkpt lat="47.50529" lon="6.77528">
        <ele>313</ele>
        <time>2016-03-13T11:27:10.000Z</time>
      </trkpt>
      <trkpt lat="47.50533" lon="6.77533">
        <ele>313</ele>
        <time>2016-03-13T11:27:11.000Z</time>
      </trkpt>
      <trkpt lat="47.50537" lon="6.77537">
        <ele>313</ele>
        <time>2016-03-13T11:27:12.000Z</time>
      </trkpt>
      <trkpt lat="47.50542" lon="6.7754">
        <ele>313</ele>
        <time>2016-03-13T11:27:13.000Z</time>
      </trkpt>
      <trkpt lat="47.50546" lon="6.77543">
        <ele>313</ele>
        <time>2016-03-13T11:27:14.000Z</time>
      </trkpt>
      <trkpt lat="47.5055" lon="6.77549">
        <ele>313</ele>
        <time>2016-03-13T11:27:15.000Z</time>
      </trkpt>
      <trkpt lat="47.50552" lon="6.77555">
        <ele>313</ele>
        <time>2016-03-13T11:27:16.000Z</time>
      </trkpt>
      <trkpt lat="47.50554" lon="6.7756">
        <ele>313</ele>
        <time>2016-03-13T11:27:17.000Z</time>
      </trkpt>
      <trkpt lat="47.50557" lon="6.77563">
        <ele>313</ele>
        <time>2016-03-13T11:27:18.000Z</time>
      </trkpt>
      <trkpt lat="47.50562" lon="6.77565">
        <ele>313</ele>
        <time>2016-03-13T11:27:19.000Z</time>
      </trkpt>
      <trkpt lat="47.50566" lon="6.77567">
        <ele>313</ele>
        <time>2016-03-13T11:27:20.000Z</time>
      </trkpt>
      <trkpt lat="47.50571" lon="6.77565">
        <ele>313</ele>
        <time>2016-03-13T11:27:21.000Z</time>
      </trkpt>
      <trkpt lat="47.50576" lon="6.77564">
        <ele>313</ele>
        <time>2016-03-13T11:27:22.000Z</time>
      </trkpt>
      <trkpt lat="47.50579" lon="6.7756">
        <ele>313</ele>
        <time>2016-03-13T11:27:23.000Z</time>
      </trkpt>
      <trkpt lat="47.50582" lon="6.77554">
        <ele>313</ele>
        <time>2016-03-13T11:27:24.000Z</time>
      </trkpt>
      <trkpt lat="47.50585" lon="6.77549">
        <ele>313</ele>
        <time>2016-03-13T11:27:25.000Z</time>
      </trkpt>
      <trkpt lat="47.50587" lon="6.77542">
        <ele>313</ele>
        <time>2016-03-13T11:27:26.000Z</time>
      </trkpt>
      <trkpt lat="47.50589" lon="6.77536">
        <ele>313</ele>
        <time>2016-03-13T11:27:27.000Z</time>
      </trkpt>
      <trkpt lat="47.50593" lon="6.77532">
        <ele>313</ele>
        <time>2016-03-13T11:27:28.000Z</time>
      </trkpt>
      <trkpt lat="47.50595" lon="6.77529">
        <ele>313</ele>
        <time>2016-03-13T11:27:29.000Z</time>
      </trkpt>
      <trkpt lat="47.50599" lon="6.77526">
        <ele>313</ele>
        <time>2016-03-13T11:27:30.000Z</time>
      </trkpt>
      <trkpt lat="47.50602" lon="6.77524">
        <ele>313</ele>
        <time>2016-03-13T11:27:31.000Z</time>
      </trkpt>
      <trkpt lat="47.50606" lon="6.77522">
        <ele>313</ele>
        <time>2016-03-13T11:27:32.000Z</time>
      </trkpt>
      <trkpt lat="47.5061" lon="6.77521">
        <ele>313</ele>
        <time>2016-03-13T11:27:33.000Z</time>
      </trkpt>
      <trkpt lat="47.50616" lon="6.77522">
        <ele>313</ele>
        <time>2016-03-13T11:27:34.000Z</time>
      </trkpt>
      <trkpt lat="47.5063" lon="6.7753">
        <ele>313</ele>
        <time>2016-03-13T11:27:35.000Z</time>
      </trkpt>
      <trkpt lat="47.50638" lon="6.7753">
        <ele>313</ele>
        <time>2016-03-13T11:27:36.000Z</time>
      </trkpt>
      <trkpt lat="47.50644" lon="6.77531">
        <ele>313</ele>
        <time>2016-03-13T11:27:37.000Z</time>
      </trkpt>
      <trkpt lat="47.5065" lon="6.77534">
        <ele>313</ele>
        <time>2016-03-13T11:27:38.000Z</time>
      </trkpt>
      <trkpt lat="47.50656" lon="6.77535">
        <ele>313</ele>
        <time>2016-03-13T11:27:39.000Z</time>
      </trkpt>
      <trkpt lat="47.50661" lon="6.77534">
        <ele>313</ele>
        <time>2016-03-13T11:27:40.000Z</time>
      </trkpt>
      <trkpt lat="47.50665" lon="6.77536">
        <ele>313</ele>
        <time>2016-03-13T11:27:41.000Z</time>
      </trkpt>
      <trkpt lat="47.50669" lon="6.77535">
        <ele>313</ele>
        <time>2016-03-13T11:27:42.000Z</time>
      </trkpt>
      <trkpt lat="47.50675" lon="6.77534">
        <ele>313</ele>
        <time>2016-03-13T11:27:43.000Z</time>
      </trkpt>
      <trkpt lat="47.5068" lon="6.77533">
        <ele>313</ele>
        <time>2016-03-13T11:27:44.000Z</time>
      </trkpt>
      <trkpt lat="47.50684" lon="6.77535">
        <ele>313</ele>
        <time>2016-03-13T11:27:45.000Z</time>
      </trkpt>
      <trkpt lat="47.50689" lon="6.77535">
        <ele>313</ele>
        <time>2016-03-13T11:27:46.000Z</time>
      </trkpt>
      <trkpt lat="47.50695" lon="6.77536">
        <ele>313</ele>
        <time>2016-03-13T11:27:47.000Z</time>
      </trkpt>
      <trkpt lat="47.50699" lon="6.77534">
        <ele>313</ele>
        <time>2016-03-13T11:27:48.000Z</time>
      </trkpt>
      <trkpt lat="47.50705" lon="6.77535">
        <ele>313</ele>
        <time>2016-03-13T11:27:49.000Z</time>
      </trkpt>
      <trkpt lat="47.5071" lon="6.77537">
        <ele>313</ele>
        <time>2016-03-13T11:27:50.000Z</time>
      </trkpt>
      <trkpt lat="47.50714" lon="6.77538">
        <ele>313</ele>
        <time>2016-03-13T11:27:51.000Z</time>
      </trkpt>
      <trkpt lat="47.50717" lon="6.77539">
        <ele>313</ele>
        <time>2016-03-13T11:27:52.000Z</time>
      </trkpt>
      <trkpt lat="47.5072" lon="6.77541">
        <ele>313</ele>
        <time>2016-03-13T11:27:53.000Z</time>
      </trkpt>
      <trkpt lat="47.50722" lon="6.77545">
        <ele>313</ele>
        <time>2016-03-13T11:27:54.000Z</time>
      </trkpt>
      <trkpt lat="47.50724" lon="6.77546">
        <ele>313</ele>
        <time>2016-03-13T11:27:55.000Z</time>
      </trkpt>
      <trkpt lat="47.50726" lon="6.77547">
        <ele>313</ele>
        <time>2016-03-13T11:27:56.000Z</time>
      </trkpt>
      <trkpt lat="47.50729" lon="6.77548">
        <ele>313</ele>
        <time>2016-03-13T11:27:57.000Z</time>
      </trkpt>
      <trkpt lat="47.50733" lon="6.77551">
        <ele>313</ele>
        <time>2016-03-13T11:27:58.000Z</time>
      </trkpt>
      <trkpt lat="47.50736" lon="6.77553">
        <ele>313</ele>
        <time>2016-03-13T11:27:59.000Z</time>
      </trkpt>
      <trkpt lat="47.50739" lon="6.77554">
        <ele>313</ele>
        <time>2016-03-13T11:28:00.000Z</time>
      </trkpt>
      <trkpt lat="47.50742" lon="6.77556">
        <ele>313</ele>
        <time>2016-03-13T11:28:01.000Z</time>
      </trkpt>
      <trkpt lat="47.50745" lon="6.77558">
        <ele>313</ele>
        <time>2016-03-13T11:28:02.000Z</time>
      </trkpt>
      <trkpt lat="47.50748" lon="6.7756">
        <ele>313</ele>
        <time>2016-03-13T11:28:03.000Z</time>
      </trkpt>
      <trkpt lat="47.50751" lon="6.77562">
        <ele>314</ele>
        <time>2016-03-13T11:28:04.000Z</time>
      </trkpt>
      <trkpt lat="47.50754" lon="6.77564">
        <ele>314</ele>
        <time>2016-03-13T11:28:05.000Z</time>
      </trkpt>
      <trkpt lat="47.50757" lon="6.77566">
        <ele>314</ele>
        <time>2016-03-13T11:28:06.000Z</time>
      </trkpt>
      <trkpt lat="47.5076" lon="6.77568">
        <ele>314</ele>
        <time>2016-03-13T11:28:07.000Z</time>
      </trkpt>
      <trkpt lat="47.50762" lon="6.77571">
        <ele>314</ele>
        <time>2016-03-13T11:28:08.000Z</time>
      </trkpt>
      <trkpt lat="47.50765" lon="6.77574">
        <ele>314</ele>
        <time>2016-03-13T11:28:09.000Z</time>
      </trkpt>
      <trkpt lat="47.50767" lon="6.77577">
        <ele>314</ele>
        <time>2016-03-13T11:28:10.000Z</time>
      </trkpt>
      <trkpt lat="47.50771" lon="6.7758">
        <ele>314</ele>
        <time>2016-03-13T11:28:11.000Z</time>
      </trkpt>
      <trkpt lat="47.50774" lon="6.77583">
        <ele>314</ele>
        <time>2016-03-13T11:28:12.000Z</time>
      </trkpt>
      <trkpt lat="47.50782" lon="6.7759">
        <ele>315</ele>
        <time>2016-03-13T11:28:13.000Z</time>
      </trkpt>
      <trkpt lat="47.50787" lon="6.77592">
        <ele>315</ele>
        <time>2016-03-13T11:28:14.000Z</time>
      </trkpt>
      <trkpt lat="47.50792" lon="6.77595">
        <ele>315</ele>
        <time>2016-03-13T11:28:15.000Z</time>
      </trkpt>
      <trkpt lat="47.50797" lon="6.77599">
        <ele>315</ele>
        <time>2016-03-13T11:28:16.000Z</time>
      </trkpt>
      <trkpt lat="47.50801" lon="6.77604">
        <ele>315</ele>
        <time>2016-03-13T11:28:17.000Z</time>
      </trkpt>
      <trkpt lat="47.50807" lon="6.77609">
        <ele>315</ele>
        <time>2016-03-13T11:28:18.000Z</time>
      </trkpt>
      <trkpt lat="47.50811" lon="6.77612">
        <ele>315</ele>
        <time>2016-03-13T11:28:19.000Z</time>
      </trkpt>
      <trkpt lat="47.50815" lon="6.77617">
        <ele>316</ele>
        <time>2016-03-13T11:28:20.000Z</time>
      </trkpt>
      <trkpt lat="47.50819" lon="6.77621">
        <ele>316</ele>
        <time>2016-03-13T11:28:21.000Z</time>
      </trkpt>
      <trkpt lat="47.50823" lon="6.77626">
        <ele>316</ele>
        <time>2016-03-13T11:28:22.000Z</time>
      </trkpt>
      <trkpt lat="47.50828" lon="6.77631">
        <ele>316</ele>
        <time>2016-03-13T11:28:23.000Z</time>
      </trkpt>
      <trkpt lat="47.50831" lon="6.77635">
        <ele>316</ele>
        <time>2016-03-13T11:28:24.000Z</time>
      </trkpt>
      <trkpt lat="47.50837" lon="6.77641">
        <ele>317</ele>
        <time>2016-03-13T11:28:25.000Z</time>
      </trkpt>
      <trkpt lat="47.50842" lon="6.77646">
        <ele>317</ele>
        <time>2016-03-13T11:28:26.000Z</time>
      </trkpt>
      <trkpt lat="47.50846" lon="6.77651">
        <ele>317</ele>
        <time>2016-03-13T11:28:27.000Z</time>
      </trkpt>
      <trkpt lat="47.50849" lon="6.77654">
        <ele>317</ele>
        <time>2016-03-13T11:28:28.000Z</time>
      </trkpt>
      <trkpt lat="47.50853" lon="6.77661">
        <ele>317</ele>
        <time>2016-03-13T11:28:29.000Z</time>
      </trkpt>
      <trkpt lat="47.50858" lon="6.77666">
        <ele>317</ele>
        <time>2016-03-13T11:28:30.000Z</time>
      </trkpt>
      <trkpt lat="47.50859" lon="6.77669">
        <ele>316</ele>
        <time>2016-03-13T11:28:31.000Z</time>
      </trkpt>
      <trkpt lat="47.50861" lon="6.77673">
        <ele>316</ele>
        <time>2016-03-13T11:28:32.000Z</time>
      </trkpt>
      <trkpt lat="47.50863" lon="6.77677">
        <ele>316</ele>
        <time>2016-03-13T11:28:33.000Z</time>
      </trkpt>
      <trkpt lat="47.50868" lon="6.77684">
        <ele>316</ele>
        <time>2016-03-13T11:28:34.000Z</time>
      </trkpt>
      <trkpt lat="47.50871" lon="6.77689">
        <ele>316</ele>
        <time>2016-03-13T11:28:35.000Z</time>
      </trkpt>
      <trkpt lat="47.50874" lon="6.77692">
        <ele>316</ele>
        <time>2016-03-13T11:28:36.000Z</time>
      </trkpt>
      <trkpt lat="47.50876" lon="6.77697">
        <ele>316</ele>
        <time>2016-03-13T11:28:37.000Z</time>
      </trkpt>
      <trkpt lat="47.50882" lon="6.77701">
        <ele>316</ele>
        <time>2016-03-13T11:28:38.000Z</time>
      </trkpt>
      <trkpt lat="47.50888" lon="6.77702">
        <ele>316</ele>
        <time>2016-03-13T11:28:39.000Z</time>
      </trkpt>
      <trkpt lat="47.50892" lon="6.77704">
        <ele>316</ele>
        <time>2016-03-13T11:28:40.000Z</time>
      </trkpt>
      <trkpt lat="47.50897" lon="6.77705">
        <ele>316</ele>
        <time>2016-03-13T11:28:41.000Z</time>
      </trkpt>
      <trkpt lat="47.50902" lon="6.77704">
        <ele>316</ele>
        <time>2016-03-13T11:28:42.000Z</time>
      </trkpt>
      <trkpt lat="47.50907" lon="6.77703">
        <ele>316</ele>
        <time>2016-03-13T11:28:43.000Z</time>
      </trkpt>
      <trkpt lat="47.50912" lon="6.77702">
        <ele>316</ele>
        <time>2016-03-13T11:28:44.000Z</time>
      </trkpt>
      <trkpt lat="47.50916" lon="6.77703">
        <ele>316</ele>
        <time>2016-03-13T11:28:45.000Z</time>
      </trkpt>
      <trkpt lat="47.50921" lon="6.77704">
        <ele>315</ele>
        <time>2016-03-13T11:28:46.001Z</time>
      </trkpt>
      <trkpt lat="47.50926" lon="6.77704">
        <ele>315</ele>
        <time>2016-03-13T11:28:47.001Z</time>
      </trkpt>
      <trkpt lat="47.50929" lon="6.77705">
        <ele>315</ele>
        <time>2016-03-13T11:28:48.000Z</time>
      </trkpt>
      <trkpt lat="47.50933" lon="6.77705">
        <ele>315</ele>
        <time>2016-03-13T11:28:49.000Z</time>
      </trkpt>
      <trkpt lat="47.50936" lon="6.77706">
        <ele>315</ele>
        <time>2016-03-13T11:28:49.999Z</time>
      </trkpt>
      <trkpt lat="47.50939" lon="6.77704">
        <ele>315</ele>
        <time>2016-03-13T11:28:51.000Z</time>
      </trkpt>
      <trkpt lat="47.50942" lon="6.77703">
        <ele>315</ele>
        <time>2016-03-13T11:28:52.000Z</time>
      </trkpt>
      <trkpt lat="47.50946" lon="6.77704">
        <ele>315</ele>
        <time>2016-03-13T11:28:55.000Z</time>
      </trkpt>
      <trkpt lat="47.50948" lon="6.77705">
        <ele>315</ele>
        <time>2016-03-13T11:28:56.000Z</time>
      </trkpt>
      <trkpt lat="47.50951" lon="6.77704">
        <ele>315</ele>
        <time>2016-03-13T11:28:59.000Z</time>
      </trkpt>
      <trkpt lat="47.50954" lon="6.77703">
        <ele>315</ele>
        <time>2016-03-13T11:29:00.000Z</time>
      </trkpt>
      <trkpt lat="47.50957" lon="6.77702">
        <ele>315</ele>
        <time>2016-03-13T11:29:01.000Z</time>
      </trkpt>
      <trkpt lat="47.50961" lon="6.77701">
        <ele>315</ele>
        <time>2016-03-13T11:29:02.000Z</time>
      </trkpt>
      <trkpt lat="47.50964" lon="6.777">
        <ele>315</ele>
        <time>2016-03-13T11:29:03.001Z</time>
      </trkpt>
      <trkpt lat="47.50969" lon="6.777">
        <ele>315</ele>
        <time>2016-03-13T11:29:04.000Z</time>
      </trkpt>
      <trkpt lat="47.50973" lon="6.777">
        <ele>315</ele>
        <time>2016-03-13T11:29:05.000Z</time>
      </trkpt>
      <trkpt lat="47.50976" lon="6.77701">
        <ele>315</ele>
        <time>2016-03-13T11:29:06.000Z</time>
      </trkpt>
      <trkpt lat="47.5098" lon="6.77703">
        <ele>315</ele>
        <time>2016-03-13T11:29:07.000Z</time>
      </trkpt>
      <trkpt lat="47.50985" lon="6.77709">
        <ele>315</ele>
        <time>2016-03-13T11:29:08.000Z</time>
      </trkpt>
      <trkpt lat="47.50987" lon="6.77711">
        <ele>315</ele>
        <time>2016-03-13T11:29:09.000Z</time>
      </trkpt>
      <trkpt lat="47.50989" lon="6.77714">
        <ele>315</ele>
        <time>2016-03-13T11:29:10.000Z</time>
      </trkpt>
      <trkpt lat="47.50992" lon="6.77716">
        <ele>315</ele>
        <time>2016-03-13T11:29:11.000Z</time>
      </trkpt>
      <trkpt lat="47.50994" lon="6.77719">
        <ele>315</ele>
        <time>2016-03-13T11:29:12.000Z</time>
      </trkpt>
      <trkpt lat="47.50997" lon="6.77722">
        <ele>315</ele>
        <time>2016-03-13T11:29:13.000Z</time>
      </trkpt>
      <trkpt lat="47.51" lon="6.77724">
        <ele>316</ele>
        <time>2016-03-13T11:29:14.000Z</time>
      </trkpt>
      <trkpt lat="47.51004" lon="6.77726">
        <ele>316</ele>
        <time>2016-03-13T11:29:15.000Z</time>
      </trkpt>
      <trkpt lat="47.51006" lon="6.77726">
        <ele>316</ele>
        <time>2016-03-13T11:29:16.000Z</time>
      </trkpt>
      <trkpt lat="47.51009" lon="6.77728">
        <ele>316</ele>
        <time>2016-03-13T11:29:17.000Z</time>
      </trkpt>
      <trkpt lat="47.51013" lon="6.77731">
        <ele>317</ele>
        <time>2016-03-13T11:29:18.000Z</time>
      </trkpt>
      <trkpt lat="47.51016" lon="6.77733">
        <ele>317</ele>
        <time>2016-03-13T11:29:19.000Z</time>
      </trkpt>
      <trkpt lat="47.51019" lon="6.77736">
        <ele>317</ele>
        <time>2016-03-13T11:29:20.000Z</time>
      </trkpt>
      <trkpt lat="47.51022" lon="6.77738">
        <ele>317</ele>
        <time>2016-03-13T11:29:21.000Z</time>
      </trkpt>
      <trkpt lat="47.51024" lon="6.77741">
        <ele>317</ele>
        <time>2016-03-13T11:29:22.000Z</time>
      </trkpt>
      <trkpt lat="47.51027" lon="6.77743">
        <ele>317</ele>
        <time>2016-03-13T11:29:23.000Z</time>
      </trkpt>
      <trkpt lat="47.51029" lon="6.77746">
        <ele>317</ele>
        <time>2016-03-13T11:29:24.000Z</time>
      </trkpt>
      <trkpt lat="47.51032" lon="6.77748">
        <ele>317</ele>
        <time>2016-03-13T11:29:25.000Z</time>
      </trkpt>
      <trkpt lat="47.51035" lon="6.7775">
        <ele>318</ele>
        <time>2016-03-13T11:29:26.000Z</time>
      </trkpt>
      <trkpt lat="47.51038" lon="6.77753">
        <ele>318</ele>
        <time>2016-03-13T11:29:27.000Z</time>
      </trkpt>
      <trkpt lat="47.51041" lon="6.77755">
        <ele>318</ele>
        <time>2016-03-13T11:29:28.000Z</time>
      </trkpt>
      <trkpt lat="47.51044" lon="6.77757">
        <ele>318</ele>
        <time>2016-03-13T11:29:29.000Z</time>
      </trkpt>
      <trkpt lat="47.51046" lon="6.77759">
        <ele>318</ele>
        <time>2016-03-13T11:29:30.000Z</time>
      </trkpt>
      <trkpt lat="47.51049" lon="6.77763">
        <ele>318</ele>
        <time>2016-03-13T11:29:32.000Z</time>
      </trkpt>
      <trkpt lat="47.51051" lon="6.77765">
        <ele>318</ele>
        <time>2016-03-13T11:29:33.000Z</time>
      </trkpt>
      <trkpt lat="47.51054" lon="6.77767">
        <ele>318</ele>
        <time>2016-03-13T11:29:34.000Z</time>
      </trkpt>
      <trkpt lat="47.51056" lon="6.77768">
        <ele>318</ele>
        <time>2016-03-13T11:29:35.000Z</time>
      </trkpt>
      <trkpt lat="47.5106" lon="6.7777">
        <ele>318</ele>
        <time>2016-03-13T11:29:36.000Z</time>
      </trkpt>
      <trkpt lat="47.51063" lon="6.7777">
        <ele>318</ele>
        <time>2016-03-13T11:29:37.000Z</time>
      </trkpt>
      <trkpt lat="47.51066" lon="6.77771">
        <ele>319</ele>
        <time>2016-03-13T11:29:38.000Z</time>
      </trkpt>
      <trkpt lat="47.5107" lon="6.77771">
        <ele>319</ele>
        <time>2016-03-13T11:29:39.000Z</time>
      </trkpt>
      <trkpt lat="47.51073" lon="6.77772">
        <ele>319</ele>
        <time>2016-03-13T11:29:40.000Z</time>
      </trkpt>
      <trkpt lat="47.51077" lon="6.77772">
        <ele>319</ele>
        <time>2016-03-13T11:29:41.000Z</time>
      </trkpt>
      <trkpt lat="47.51081" lon="6.77773">
        <ele>319</ele>
        <time>2016-03-13T11:29:42.000Z</time>
      </trkpt>
      <trkpt lat="47.51084" lon="6.77774">
        <ele>321</ele>
        <time>2016-03-13T11:29:43.000Z</time>
      </trkpt>
      <trkpt lat="47.51087" lon="6.77775">
        <ele>321</ele>
        <time>2016-03-13T11:29:44.000Z</time>
      </trkpt>
      <trkpt lat="47.5109" lon="6.77777">
        <ele>321</ele>
        <time>2016-03-13T11:29:45.000Z</time>
      </trkpt>
      <trkpt lat="47.51092" lon="6.77778">
        <ele>321</ele>
        <time>2016-03-13T11:29:46.000Z</time>
      </trkpt>
      <trkpt lat="47.51095" lon="6.77779">
        <ele>321</ele>
        <time>2016-03-13T11:29:47.000Z</time>
      </trkpt>
      <trkpt lat="47.51097" lon="6.7778">
        <ele>322</ele>
        <time>2016-03-13T11:29:48.000Z</time>
      </trkpt>
      <trkpt lat="47.51101" lon="6.77781">
        <ele>322</ele>
        <time>2016-03-13T11:29:49.000Z</time>
      </trkpt>
      <trkpt lat="47.51105" lon="6.77782">
        <ele>322</ele>
        <time>2016-03-13T11:29:50.000Z</time>
      </trkpt>
      <trkpt lat="47.51109" lon="6.77783">
        <ele>322</ele>
        <time>2016-03-13T11:29:51.000Z</time>
      </trkpt>
      <trkpt lat="47.51113" lon="6.77784">
        <ele>322</ele>
        <time>2016-03-13T11:29:52.000Z</time>
      </trkpt>
      <trkpt lat="47.51116" lon="6.77786">
        <ele>322</ele>
        <time>2016-03-13T11:29:53.000Z</time>
      </trkpt>
      <trkpt lat="47.5112" lon="6.77787">
        <ele>322</ele>
        <time>2016-03-13T11:29:54.000Z</time>
      </trkpt>
      <trkpt lat="47.51124" lon="6.77787">
        <ele>322</ele>
        <time>2016-03-13T11:29:55.000Z</time>
      </trkpt>
      <trkpt lat="47.51127" lon="6.77786">
        <ele>322</ele>
        <time>2016-03-13T11:29:56.000Z</time>
      </trkpt>
      <trkpt lat="47.5113" lon="6.77785">
        <ele>322</ele>
        <time>2016-03-13T11:29:57.000Z</time>
      </trkpt>
      <trkpt lat="47.51133" lon="6.77785">
        <ele>322</ele>
        <time>2016-03-13T11:29:58.000Z</time>
      </trkpt>
      <trkpt lat="47.51137" lon="6.77786">
        <ele>323</ele>
        <time>2016-03-13T11:29:59.000Z</time>
      </trkpt>
      <trkpt lat="47.5114" lon="6.77786">
        <ele>323</ele>
        <time>2016-03-13T11:30:00.000Z</time>
      </trkpt>
      <trkpt lat="47.51143" lon="6.77787">
        <ele>323</ele>
        <time>2016-03-13T11:30:01.000Z</time>
      </trkpt>
      <trkpt lat="47.51146" lon="6.77787">
        <ele>323</ele>
        <time>2016-03-13T11:30:02.000Z</time>
      </trkpt>
      <trkpt lat="47.51149" lon="6.77787">
        <ele>323</ele>
        <time>2016-03-13T11:30:03.000Z</time>
      </trkpt>
      <trkpt lat="47.51151" lon="6.77788">
        <ele>323</ele>
        <time>2016-03-13T11:30:04.000Z</time>
      </trkpt>
      <trkpt lat="47.51153" lon="6.77789">
        <ele>323</ele>
        <time>2016-03-13T11:30:05.000Z</time>
      </trkpt>
      <trkpt lat="47.51156" lon="6.7779">
        <ele>323</ele>
        <time>2016-03-13T11:30:06.000Z</time>
      </trkpt>
      <trkpt lat="47.51158" lon="6.7779">
        <ele>323</ele>
        <time>2016-03-13T11:30:07.000Z</time>
      </trkpt>
      <trkpt lat="47.51161" lon="6.77791">
        <ele>323</ele>
        <time>2016-03-13T11:30:08.000Z</time>
      </trkpt>
      <trkpt lat="47.51164" lon="6.77791">
        <ele>323</ele>
        <time>2016-03-13T11:30:09.000Z</time>
      </trkpt>
      <trkpt lat="47.51167" lon="6.77791">
        <ele>326</ele>
        <time>2016-03-13T11:30:10.000Z</time>
      </trkpt>
      <trkpt lat="47.5117" lon="6.77791">
        <ele>326</ele>
        <time>2016-03-13T11:30:11.000Z</time>
      </trkpt>
      <trkpt lat="47.51173" lon="6.77791">
        <ele>326</ele>
        <time>2016-03-13T11:30:12.000Z</time>
      </trkpt>
      <trkpt lat="47.51176" lon="6.77792">
        <ele>326</ele>
        <time>2016-03-13T11:30:13.000Z</time>
      </trkpt>
      <trkpt lat="47.51178" lon="6.77793">
        <ele>326</ele>
        <time>2016-03-13T11:30:14.000Z</time>
      </trkpt>
      <trkpt lat="47.51181" lon="6.77794">
        <ele>326</ele>
        <time>2016-03-13T11:30:15.000Z</time>
      </trkpt>
      <trkpt lat="47.51184" lon="6.77794">
        <ele>326</ele>
        <time>2016-03-13T11:30:16.000Z</time>
      </trkpt>
      <trkpt lat="47.51186" lon="6.77795">
        <ele>326</ele>
        <time>2016-03-13T11:30:17.000Z</time>
      </trkpt>
      <trkpt lat="47.51189" lon="6.77795">
        <ele>326</ele>
        <time>2016-03-13T11:30:18.000Z</time>
      </trkpt>
      <trkpt lat="47.51191" lon="6.77795">
        <ele>327</ele>
        <time>2016-03-13T11:30:19.000Z</time>
      </trkpt>
      <trkpt lat="47.51194" lon="6.77795">
        <ele>327</ele>
        <time>2016-03-13T11:30:20.000Z</time>
      </trkpt>
      <trkpt lat="47.51196" lon="6.77795">
        <ele>327</ele>
        <time>2016-03-13T11:30:21.000Z</time>
      </trkpt>
      <trkpt lat="47.51198" lon="6.77795">
        <ele>327</ele>
        <time>2016-03-13T11:30:22.000Z</time>
      </trkpt>
      <trkpt lat="47.51201" lon="6.77795">
        <ele>327</ele>
        <time>2016-03-13T11:30:23.000Z</time>
      </trkpt>
      <trkpt lat="47.51205" lon="6.77795">
        <ele>327</ele>
        <time>2016-03-13T11:30:25.000Z</time>
      </trkpt>
      <trkpt lat="47.51207" lon="6.77795">
        <ele>327</ele>
        <time>2016-03-13T11:30:26.000Z</time>
      </trkpt>
      <trkpt lat="47.51211" lon="6.77795">
        <ele>327</ele>
        <time>2016-03-13T11:30:28.000Z</time>
      </trkpt>
      <trkpt lat="47.51213" lon="6.77795">
        <ele>327</ele>
        <time>2016-03-13T11:30:29.000Z</time>
      </trkpt>
      <trkpt lat="47.51217" lon="6.77795">
        <ele>327</ele>
        <time>2016-03-13T11:30:31.000Z</time>
      </trkpt>
      <trkpt lat="47.51219" lon="6.77795">
        <ele>327</ele>
        <time>2016-03-13T11:30:32.000Z</time>
      </trkpt>
      <trkpt lat="47.51223" lon="6.77794">
        <ele>327</ele>
        <time>2016-03-13T11:30:34.000Z</time>
      </trkpt>
      <trkpt lat="47.51226" lon="6.77793">
        <ele>328</ele>
        <time>2016-03-13T11:30:35.000Z</time>
      </trkpt>
      <trkpt lat="47.5123" lon="6.77792">
        <ele>328</ele>
        <time>2016-03-13T11:30:37.000Z</time>
      </trkpt>
      <trkpt lat="47.51231" lon="6.77791">
        <ele>328</ele>
        <time>2016-03-13T11:30:38.000Z</time>
      </trkpt>
      <trkpt lat="47.51235" lon="6.77792">
        <ele>328</ele>
        <time>2016-03-13T11:30:40.000Z</time>
      </trkpt>
      <trkpt lat="47.51237" lon="6.77792">
        <ele>328</ele>
        <time>2016-03-13T11:30:41.000Z</time>
      </trkpt>
      <trkpt lat="47.51241" lon="6.77792">
        <ele>328</ele>
        <time>2016-03-13T11:30:43.000Z</time>
      </trkpt>
      <trkpt lat="47.51243" lon="6.77792">
        <ele>328</ele>
        <time>2016-03-13T11:30:44.000Z</time>
      </trkpt>
      <trkpt lat="47.51245" lon="6.77792">
        <ele>328</ele>
        <time>2016-03-13T11:30:45.000Z</time>
      </trkpt>
      <trkpt lat="47.51247" lon="6.77791">
        <ele>328</ele>
        <time>2016-03-13T11:30:46.000Z</time>
      </trkpt>
      <trkpt lat="47.51251" lon="6.77789">
        <ele>334</ele>
        <time>2016-03-13T11:30:48.000Z</time>
      </trkpt>
      <trkpt lat="47.51253" lon="6.77788">
        <ele>334</ele>
        <time>2016-03-13T11:30:49.000Z</time>
      </trkpt>
      <trkpt lat="47.51255" lon="6.77788">
        <ele>334</ele>
        <time>2016-03-13T11:30:50.000Z</time>
      </trkpt>
      <trkpt lat="47.51258" lon="6.77787">
        <ele>334</ele>
        <time>2016-03-13T11:30:51.000Z</time>
      </trkpt>
      <trkpt lat="47.51261" lon="6.77787">
        <ele>334</ele>
        <time>2016-03-13T11:30:52.000Z</time>
      </trkpt>
      <trkpt lat="47.51264" lon="6.77786">
        <ele>334</ele>
        <time>2016-03-13T11:30:53.000Z</time>
      </trkpt>
      <trkpt lat="47.51267" lon="6.77785">
        <ele>334</ele>
        <time>2016-03-13T11:30:54.000Z</time>
      </trkpt>
      <trkpt lat="47.51269" lon="6.77784">
        <ele>334</ele>
        <time>2016-03-13T11:30:55.000Z</time>
      </trkpt>
      <trkpt lat="47.51272" lon="6.77784">
        <ele>335</ele>
        <time>2016-03-13T11:30:56.000Z</time>
      </trkpt>
      <trkpt lat="47.51274" lon="6.77784">
        <ele>335</ele>
        <time>2016-03-13T11:30:57.000Z</time>
      </trkpt>
      <trkpt lat="47.51278" lon="6.77783">
        <ele>335</ele>
        <time>2016-03-13T11:30:59.000Z</time>
      </trkpt>
      <trkpt lat="47.5128" lon="6.77783">
        <ele>335</ele>
        <time>2016-03-13T11:31:00.000Z</time>
      </trkpt>
      <trkpt lat="47.51284" lon="6.77783">
        <ele>336</ele>
        <time>2016-03-13T11:31:02.000Z</time>
      </trkpt>
      <trkpt lat="47.51287" lon="6.77782">
        <ele>336</ele>
        <time>2016-03-13T11:31:03.000Z</time>
      </trkpt>
      <trkpt lat="47.51289" lon="6.77782">
        <ele>336</ele>
        <time>2016-03-13T11:31:04.000Z</time>
      </trkpt>
      <trkpt lat="47.51292" lon="6.77782">
        <ele>336</ele>
        <time>2016-03-13T11:31:05.000Z</time>
      </trkpt>
      <trkpt lat="47.51294" lon="6.77782">
        <ele>336</ele>
        <time>2016-03-13T11:31:06.000Z</time>
      </trkpt>
      <trkpt lat="47.51296" lon="6.77782">
        <ele>337</ele>
        <time>2016-03-13T11:31:07.000Z</time>
      </trkpt>
      <trkpt lat="47.51299" lon="6.77782">
        <ele>337</ele>
        <time>2016-03-13T11:31:08.000Z</time>
      </trkpt>
      <trkpt lat="47.51301" lon="6.77781">
        <ele>337</ele>
        <time>2016-03-13T11:31:09.000Z</time>
      </trkpt>
      <trkpt lat="47.51303" lon="6.77781">
        <ele>337</ele>
        <time>2016-03-13T11:31:10.000Z</time>
      </trkpt>
      <trkpt lat="47.51306" lon="6.77781">
        <ele>337</ele>
        <time>2016-03-13T11:31:11.000Z</time>
      </trkpt>
      <trkpt lat="47.51308" lon="6.7778">
        <ele>338</ele>
        <time>2016-03-13T11:31:12.000Z</time>
      </trkpt>
      <trkpt lat="47.5131" lon="6.7778">
        <ele>338</ele>
        <time>2016-03-13T11:31:13.000Z</time>
      </trkpt>
      <trkpt lat="47.51315" lon="6.77778">
        <ele>338</ele>
        <time>2016-03-13T11:31:15.000Z</time>
      </trkpt>
      <trkpt lat="47.51317" lon="6.77778">
        <ele>338</ele>
        <time>2016-03-13T11:31:16.000Z</time>
      </trkpt>
      <trkpt lat="47.51321" lon="6.77777">
        <ele>339</ele>
        <time>2016-03-13T11:31:18.000Z</time>
      </trkpt>
      <trkpt lat="47.51323" lon="6.77778">
        <ele>339</ele>
        <time>2016-03-13T11:31:19.000Z</time>
      </trkpt>
      <trkpt lat="47.51327" lon="6.77778">
        <ele>339</ele>
        <time>2016-03-13T11:31:21.000Z</time>
      </trkpt>
      <trkpt lat="47.51329" lon="6.77778">
        <ele>339</ele>
        <time>2016-03-13T11:31:22.000Z</time>
      </trkpt>
      <trkpt lat="47.51332" lon="6.7778">
        <ele>339</ele>
        <time>2016-03-13T11:31:24.000Z</time>
      </trkpt>
      <trkpt lat="47.51334" lon="6.77781">
        <ele>348</ele>
        <time>2016-03-13T11:31:25.000Z</time>
      </trkpt>
      <trkpt lat="47.51337" lon="6.77782">
        <ele>348</ele>
        <time>2016-03-13T11:31:27.000Z</time>
      </trkpt>
      <trkpt lat="47.51339" lon="6.77783">
        <ele>348</ele>
        <time>2016-03-13T11:31:28.000Z</time>
      </trkpt>
      <trkpt lat="47.51342" lon="6.77782">
        <ele>348</ele>
        <time>2016-03-13T11:31:29.000Z</time>
      </trkpt>
      <trkpt lat="47.51344" lon="6.77781">
        <ele>348</ele>
        <time>2016-03-13T11:31:30.000Z</time>
      </trkpt>
      <trkpt lat="47.51346" lon="6.7778">
        <ele>349</ele>
        <time>2016-03-13T11:31:31.000Z</time>
      </trkpt>
      <trkpt lat="47.51349" lon="6.77779">
        <ele>349</ele>
        <time>2016-03-13T11:31:32.000Z</time>
      </trkpt>
      <trkpt lat="47.51352" lon="6.77777">
        <ele>349</ele>
        <time>2016-03-13T11:31:34.000Z</time>
      </trkpt>
      <trkpt lat="47.51354" lon="6.77776">
        <ele>349</ele>
        <time>2016-03-13T11:31:35.000Z</time>
      </trkpt>
      <trkpt lat="47.51357" lon="6.77774">
        <ele>349</ele>
        <time>2016-03-13T11:31:37.000Z</time>
      </trkpt>
      <trkpt lat="47.51359" lon="6.77773">
        <ele>349</ele>
        <time>2016-03-13T11:31:38.000Z</time>
      </trkpt>
      <trkpt lat="47.51361" lon="6.77772">
        <ele>350</ele>
        <time>2016-03-13T11:31:39.000Z</time>
      </trkpt>
      <trkpt lat="47.51364" lon="6.77771">
        <ele>350</ele>
        <time>2016-03-13T11:31:40.000Z</time>
      </trkpt>
      <trkpt lat="47.51366" lon="6.77769">
        <ele>350</ele>
        <time>2016-03-13T11:31:41.000Z</time>
      </trkpt>
      <trkpt lat="47.51368" lon="6.77768">
        <ele>350</ele>
        <time>2016-03-13T11:31:42.000Z</time>
      </trkpt>
      <trkpt lat="47.5137" lon="6.77766">
        <ele>350</ele>
        <time>2016-03-13T11:31:43.000Z</time>
      </trkpt>
      <trkpt lat="47.51372" lon="6.77765">
        <ele>351</ele>
        <time>2016-03-13T11:31:44.000Z</time>
      </trkpt>
      <trkpt lat="47.51374" lon="6.77763">
        <ele>351</ele>
        <time>2016-03-13T11:31:45.000Z</time>
      </trkpt>
      <trkpt lat="47.51376" lon="6.77762">
        <ele>351</ele>
        <time>2016-03-13T11:31:46.000Z</time>
      </trkpt>
      <trkpt lat="47.5138" lon="6.7776">
        <ele>351</ele>
        <time>2016-03-13T11:31:48.000Z</time>
      </trkpt>
      <trkpt lat="47.51382" lon="6.77759">
        <ele>352</ele>
        <time>2016-03-13T11:31:49.000Z</time>
      </trkpt>
      <trkpt lat="47.51385" lon="6.77758">
        <ele>352</ele>
        <time>2016-03-13T11:31:51.000Z</time>
      </trkpt>
      <trkpt lat="47.51387" lon="6.77757">
        <ele>352</ele>
        <time>2016-03-13T11:31:52.000Z</time>
      </trkpt>
      <trkpt lat="47.51391" lon="6.77755">
        <ele>353</ele>
        <time>2016-03-13T11:31:54.000Z</time>
      </trkpt>
      <trkpt lat="47.51393" lon="6.77755">
        <ele>353</ele>
        <time>2016-03-13T11:31:55.000Z</time>
      </trkpt>
      <trkpt lat="47.51397" lon="6.77755">
        <ele>353</ele>
        <time>2016-03-13T11:31:57.000Z</time>
      </trkpt>
      <trkpt lat="47.51398" lon="6.77755">
        <ele>353</ele>
        <time>2016-03-13T11:31:58.000Z</time>
      </trkpt>
      <trkpt lat="47.51402" lon="6.77755">
        <ele>354</ele>
        <time>2016-03-13T11:32:00.000Z</time>
      </trkpt>
      <trkpt lat="47.51403" lon="6.77754">
        <ele>354</ele>
        <time>2016-03-13T11:32:01.000Z</time>
      </trkpt>
      <trkpt lat="47.51406" lon="6.77751">
        <ele>354</ele>
        <time>2016-03-13T11:32:03.000Z</time>
      </trkpt>
      <trkpt lat="47.51408" lon="6.7775">
        <ele>356</ele>
        <time>2016-03-13T11:32:04.000Z</time>
      </trkpt>
      <trkpt lat="47.51411" lon="6.77749">
        <ele>356</ele>
        <time>2016-03-13T11:32:06.000Z</time>
      </trkpt>
      <trkpt lat="47.51413" lon="6.77748">
        <ele>356</ele>
        <time>2016-03-13T11:32:07.000Z</time>
      </trkpt>
      <trkpt lat="47.51416" lon="6.77748">
        <ele>356</ele>
        <time>2016-03-13T11:32:09.000Z</time>
      </trkpt>
      <trkpt lat="47.51418" lon="6.77748">
        <ele>357</ele>
        <time>2016-03-13T11:32:10.000Z</time>
      </trkpt>
      <trkpt lat="47.51421" lon="6.77747">
        <ele>358</ele>
        <time>2016-03-13T11:32:12.000Z</time>
      </trkpt>
      <trkpt lat="47.51423" lon="6.77746">
        <ele>359</ele>
        <time>2016-03-13T11:32:13.000Z</time>
      </trkpt>
      <trkpt lat="47.51427" lon="6.77745">
        <ele>360</ele>
        <time>2016-03-13T11:32:15.000Z</time>
      </trkpt>
      <trkpt lat="47.51428" lon="6.77744">
        <ele>360</ele>
        <time>2016-03-13T11:32:16.000Z</time>
      </trkpt>
      <trkpt lat="47.51432" lon="6.77744">
        <ele>361</ele>
        <time>2016-03-13T11:32:19.000Z</time>
      </trkpt>
      <trkpt lat="47.51433" lon="6.77743">
        <ele>361</ele>
        <time>2016-03-13T11:32:20.000Z</time>
      </trkpt>
      <trkpt lat="47.51436" lon="6.77741">
        <ele>362</ele>
        <time>2016-03-13T11:32:22.000Z</time>
      </trkpt>
      <trkpt lat="47.51438" lon="6.7774">
        <ele>362</ele>
        <time>2016-03-13T11:32:23.000Z</time>
      </trkpt>
      <trkpt lat="47.51441" lon="6.77738">
        <ele>363</ele>
        <time>2016-03-13T11:32:25.000Z</time>
      </trkpt>
      <trkpt lat="47.51442" lon="6.77738">
        <ele>363</ele>
        <time>2016-03-13T11:32:26.000Z</time>
      </trkpt>
      <trkpt lat="47.51445" lon="6.77736">
        <ele>364</ele>
        <time>2016-03-13T11:32:28.000Z</time>
      </trkpt>
      <trkpt lat="47.51447" lon="6.77736">
        <ele>364</ele>
        <time>2016-03-13T11:32:29.000Z</time>
      </trkpt>
      <trkpt lat="47.5145" lon="6.77736">
        <ele>364</ele>
        <time>2016-03-13T11:32:31.000Z</time>
      </trkpt>
      <trkpt lat="47.51452" lon="6.77736">
        <ele>364</ele>
        <time>2016-03-13T11:32:32.000Z</time>
      </trkpt>
      <trkpt lat="47.51455" lon="6.77736">
        <ele>364</ele>
        <time>2016-03-13T11:32:34.000Z</time>
      </trkpt>
      <trkpt lat="47.51457" lon="6.77737">
        <ele>365</ele>
        <time>2016-03-13T11:32:35.000Z</time>
      </trkpt>
      <trkpt lat="47.51461" lon="6.77737">
        <ele>365</ele>
        <time>2016-03-13T11:32:38.000Z</time>
      </trkpt>
      <trkpt lat="47.51462" lon="6.77737">
        <ele>365</ele>
        <time>2016-03-13T11:32:39.000Z</time>
      </trkpt>
      <trkpt lat="47.51466" lon="6.77736">
        <ele>365</ele>
        <time>2016-03-13T11:32:41.000Z</time>
      </trkpt>
      <trkpt lat="47.51468" lon="6.77736">
        <ele>365</ele>
        <time>2016-03-13T11:32:42.000Z</time>
      </trkpt>
      <trkpt lat="47.51471" lon="6.77736">
        <ele>365</ele>
        <time>2016-03-13T11:32:44.000Z</time>
      </trkpt>
      <trkpt lat="47.51473" lon="6.77736">
        <ele>365</ele>
        <time>2016-03-13T11:32:45.000Z</time>
      </trkpt>
      <trkpt lat="47.51476" lon="6.77738">
        <ele>365</ele>
        <time>2016-03-13T11:32:47.000Z</time>
      </trkpt>
      <trkpt lat="47.51478" lon="6.77738">
        <ele>365</ele>
        <time>2016-03-13T11:32:48.000Z</time>
      </trkpt>
      <trkpt lat="47.51482" lon="6.77738">
        <ele>366</ele>
        <time>2016-03-13T11:32:50.000Z</time>
      </trkpt>
      <trkpt lat="47.51484" lon="6.77739">
        <ele>366</ele>
        <time>2016-03-13T11:32:51.000Z</time>
      </trkpt>
      <trkpt lat="47.51487" lon="6.77741">
        <ele>365</ele>
        <time>2016-03-13T11:32:53.000Z</time>
      </trkpt>
      <trkpt lat="47.51489" lon="6.77741">
        <ele>365</ele>
        <time>2016-03-13T11:32:54.000Z</time>
      </trkpt>
      <trkpt lat="47.51492" lon="6.7774">
        <ele>365</ele>
        <time>2016-03-13T11:32:56.000Z</time>
      </trkpt>
      <trkpt lat="47.51494" lon="6.7774">
        <ele>366</ele>
        <time>2016-03-13T11:32:57.000Z</time>
      </trkpt>
      <trkpt lat="47.51497" lon="6.77739">
        <ele>366</ele>
        <time>2016-03-13T11:32:59.000Z</time>
      </trkpt>
      <trkpt lat="47.51498" lon="6.77739">
        <ele>366</ele>
        <time>2016-03-13T11:33:00.000Z</time>
      </trkpt>
      <trkpt lat="47.51502" lon="6.77738">
        <ele>368</ele>
        <time>2016-03-13T11:33:03.000Z</time>
      </trkpt>
      <trkpt lat="47.51503" lon="6.77737">
        <ele>369</ele>
        <time>2016-03-13T11:33:04.000Z</time>
      </trkpt>
      <trkpt lat="47.51507" lon="6.77735">
        <ele>369</ele>
        <time>2016-03-13T11:33:06.000Z</time>
      </trkpt>
      <trkpt lat="47.51508" lon="6.77735">
        <ele>369</ele>
        <time>2016-03-13T11:33:07.000Z</time>
      </trkpt>
      <trkpt lat="47.51512" lon="6.77735">
        <ele>370</ele>
        <time>2016-03-13T11:33:09.000Z</time>
      </trkpt>
      <trkpt lat="47.51514" lon="6.77735">
        <ele>370</ele>
        <time>2016-03-13T11:33:10.000Z</time>
      </trkpt>
      <trkpt lat="47.51517" lon="6.77734">
        <ele>370</ele>
        <time>2016-03-13T11:33:12.000Z</time>
      </trkpt>
      <trkpt lat="47.51518" lon="6.77733">
        <ele>371</ele>
        <time>2016-03-13T11:33:13.000Z</time>
      </trkpt>
      <trkpt lat="47.51522" lon="6.77731">
        <ele>371</ele>
        <time>2016-03-13T11:33:16.000Z</time>
      </trkpt>
      <trkpt lat="47.51523" lon="6.77731">
        <ele>371</ele>
        <time>2016-03-13T11:33:17.000Z</time>
      </trkpt>
      <trkpt lat="47.51527" lon="6.77732">
        <ele>372</ele>
        <time>2016-03-13T11:33:20.000Z</time>
      </trkpt>
      <trkpt lat="47.51528" lon="6.77732">
        <ele>372</ele>
        <time>2016-03-13T11:33:21.000Z</time>
      </trkpt>
      <trkpt lat="47.51532" lon="6.77732">
        <ele>372</ele>
        <time>2016-03-13T11:33:24.000Z</time>
      </trkpt>
      <trkpt lat="47.51533" lon="6.77732">
        <ele>372</ele>
        <time>2016-03-13T11:33:25.000Z</time>
      </trkpt>
      <trkpt lat="47.51536" lon="6.77731">
        <ele>372</ele>
        <time>2016-03-13T11:33:27.000Z</time>
      </trkpt>
      <trkpt lat="47.51538" lon="6.77731">
        <ele>373</ele>
        <time>2016-03-13T11:33:28.000Z</time>
      </trkpt>
      <trkpt lat="47.51541" lon="6.77731">
        <ele>373</ele>
        <time>2016-03-13T11:33:30.000Z</time>
      </trkpt>
      <trkpt lat="47.51543" lon="6.77731">
        <ele>373</ele>
        <time>2016-03-13T11:33:31.000Z</time>
      </trkpt>
      <trkpt lat="47.51546" lon="6.77731">
        <ele>373</ele>
        <time>2016-03-13T11:33:33.000Z</time>
      </trkpt>
      <trkpt lat="47.51548" lon="6.77732">
        <ele>373</ele>
        <time>2016-03-13T11:33:34.000Z</time>
      </trkpt>
      <trkpt lat="47.51551" lon="6.77734">
        <ele>374</ele>
        <time>2016-03-13T11:33:36.000Z</time>
      </trkpt>
      <trkpt lat="47.51553" lon="6.77735">
        <ele>374</ele>
        <time>2016-03-13T11:33:37.000Z</time>
      </trkpt>
      <trkpt lat="47.51557" lon="6.77736">
        <ele>374</ele>
        <time>2016-03-13T11:33:39.000Z</time>
      </trkpt>
      <trkpt lat="47.51559" lon="6.77737">
        <ele>374</ele>
        <time>2016-03-13T11:33:40.000Z</time>
      </trkpt>
      <trkpt lat="47.51563" lon="6.77739">
        <ele>374</ele>
        <time>2016-03-13T11:33:42.000Z</time>
      </trkpt>
      <trkpt lat="47.51564" lon="6.77739">
        <ele>374</ele>
        <time>2016-03-13T11:33:43.000Z</time>
      </trkpt>
      <trkpt lat="47.51568" lon="6.77739">
        <ele>375</ele>
        <time>2016-03-13T11:33:46.000Z</time>
      </trkpt>
      <trkpt lat="47.51569" lon="6.77738">
        <ele>375</ele>
        <time>2016-03-13T11:33:47.000Z</time>
      </trkpt>
      <trkpt lat="47.51572" lon="6.77736">
        <ele>375</ele>
        <time>2016-03-13T11:33:49.000Z</time>
      </trkpt>
      <trkpt lat="47.51574" lon="6.77736">
        <ele>375</ele>
        <time>2016-03-13T11:33:50.000Z</time>
      </trkpt>
      <trkpt lat="47.51578" lon="6.77737">
        <ele>375</ele>
        <time>2016-03-13T11:33:54.000Z</time>
      </trkpt>
      <trkpt lat="47.51579" lon="6.77738">
        <ele>375</ele>
        <time>2016-03-13T11:33:55.000Z</time>
      </trkpt>
      <trkpt lat="47.51582" lon="6.77741">
        <ele>375</ele>
        <time>2016-03-13T11:33:58.000Z</time>
      </trkpt>
      <trkpt lat="47.51584" lon="6.77743">
        <ele>377</ele>
        <time>2016-03-13T11:33:59.000Z</time>
      </trkpt>
      <trkpt lat="47.51586" lon="6.77745">
        <ele>377</ele>
        <time>2016-03-13T11:34:00.000Z</time>
      </trkpt>
      <trkpt lat="47.51587" lon="6.77747">
        <ele>377</ele>
        <time>2016-03-13T11:34:01.000Z</time>
      </trkpt>
      <trkpt lat="47.51589" lon="6.7775">
        <ele>377</ele>
        <time>2016-03-13T11:34:02.000Z</time>
      </trkpt>
      <trkpt lat="47.5159" lon="6.77752">
        <ele>378</ele>
        <time>2016-03-13T11:34:03.000Z</time>
      </trkpt>
      <trkpt lat="47.51593" lon="6.77757">
        <ele>379</ele>
        <time>2016-03-13T11:34:06.000Z</time>
      </trkpt>
      <trkpt lat="47.51594" lon="6.77758">
        <ele>379</ele>
        <time>2016-03-13T11:34:07.000Z</time>
      </trkpt>
      <trkpt lat="47.51598" lon="6.77756">
        <ele>379</ele>
        <time>2016-03-13T11:34:10.000Z</time>
      </trkpt>
      <trkpt lat="47.51599" lon="6.77756">
        <ele>379</ele>
        <time>2016-03-13T11:34:11.000Z</time>
      </trkpt>
      <trkpt lat="47.51602" lon="6.77756">
        <ele>380</ele>
        <time>2016-03-13T11:34:13.000Z</time>
      </trkpt>
      <trkpt lat="47.51604" lon="6.77756">
        <ele>380</ele>
        <time>2016-03-13T11:34:14.000Z</time>
      </trkpt>
      <trkpt lat="47.51608" lon="6.77756">
        <ele>380</ele>
        <time>2016-03-13T11:34:16.000Z</time>
      </trkpt>
      <trkpt lat="47.5161" lon="6.77757">
        <ele>380</ele>
        <time>2016-03-13T11:34:17.000Z</time>
      </trkpt>
      <trkpt lat="47.51614" lon="6.77757">
        <ele>381</ele>
        <time>2016-03-13T11:34:19.000Z</time>
      </trkpt>
      <trkpt lat="47.51616" lon="6.77758">
        <ele>381</ele>
        <time>2016-03-13T11:34:20.000Z</time>
      </trkpt>
      <trkpt lat="47.51618" lon="6.77759">
        <ele>381</ele>
        <time>2016-03-13T11:34:21.000Z</time>
      </trkpt>
      <trkpt lat="47.5162" lon="6.7776">
        <ele>381</ele>
        <time>2016-03-13T11:34:22.000Z</time>
      </trkpt>
      <trkpt lat="47.51623" lon="6.7776">
        <ele>381</ele>
        <time>2016-03-13T11:34:23.000Z</time>
      </trkpt>
      <trkpt lat="47.51626" lon="6.7776">
        <ele>382</ele>
        <time>2016-03-13T11:34:24.000Z</time>
      </trkpt>
      <trkpt lat="47.51628" lon="6.77761">
        <ele>382</ele>
        <time>2016-03-13T11:34:25.000Z</time>
      </trkpt>
      <trkpt lat="47.5163" lon="6.7776">
        <ele>382</ele>
        <time>2016-03-13T11:34:26.000Z</time>
      </trkpt>
      <trkpt lat="47.51634" lon="6.77761">
        <ele>382</ele>
        <time>2016-03-13T11:34:28.000Z</time>
      </trkpt>
      <trkpt lat="47.51637" lon="6.77761">
        <ele>382</ele>
        <time>2016-03-13T11:34:29.000Z</time>
      </trkpt>
      <trkpt lat="47.51639" lon="6.77762">
        <ele>382</ele>
        <time>2016-03-13T11:34:30.000Z</time>
      </trkpt>
      <trkpt lat="47.51642" lon="6.77762">
        <ele>382</ele>
        <time>2016-03-13T11:34:31.000Z</time>
      </trkpt>
      <trkpt lat="47.51644" lon="6.77763">
        <ele>382</ele>
        <time>2016-03-13T11:34:32.000Z</time>
      </trkpt>
      <trkpt lat="47.51646" lon="6.77764">
        <ele>382</ele>
        <time>2016-03-13T11:34:33.000Z</time>
      </trkpt>
      <trkpt lat="47.5165" lon="6.77764">
        <ele>383</ele>
        <time>2016-03-13T11:34:35.000Z</time>
      </trkpt>
      <trkpt lat="47.51651" lon="6.77765">
        <ele>383</ele>
        <time>2016-03-13T11:34:36.000Z</time>
      </trkpt>
      <trkpt lat="47.51655" lon="6.77766">
        <ele>383</ele>
        <time>2016-03-13T11:34:38.000Z</time>
      </trkpt>
      <trkpt lat="47.51656" lon="6.77768">
        <ele>383</ele>
        <time>2016-03-13T11:34:39.000Z</time>
      </trkpt>
      <trkpt lat="47.51659" lon="6.77771">
        <ele>383</ele>
        <time>2016-03-13T11:34:41.000Z</time>
      </trkpt>
      <trkpt lat="47.51661" lon="6.77773">
        <ele>383</ele>
        <time>2016-03-13T11:34:42.000Z</time>
      </trkpt>
      <trkpt lat="47.51665" lon="6.77776">
        <ele>383</ele>
        <time>2016-03-13T11:34:44.000Z</time>
      </trkpt>
      <trkpt lat="47.51666" lon="6.77778">
        <ele>383</ele>
        <time>2016-03-13T11:34:45.000Z</time>
      </trkpt>
      <trkpt lat="47.5167" lon="6.77781">
        <ele>385</ele>
        <time>2016-03-13T11:34:47.000Z</time>
      </trkpt>
      <trkpt lat="47.51672" lon="6.77781">
        <ele>385</ele>
        <time>2016-03-13T11:34:48.000Z</time>
      </trkpt>
      <trkpt lat="47.51675" lon="6.77782">
        <ele>385</ele>
        <time>2016-03-13T11:34:50.000Z</time>
      </trkpt>
      <trkpt lat="47.51677" lon="6.77782">
        <ele>385</ele>
        <time>2016-03-13T11:34:51.000Z</time>
      </trkpt>
      <trkpt lat="47.51681" lon="6.77784">
        <ele>385</ele>
        <time>2016-03-13T11:34:53.000Z</time>
      </trkpt>
      <trkpt lat="47.51682" lon="6.77785">
        <ele>385</ele>
        <time>2016-03-13T11:34:54.000Z</time>
      </trkpt>
      <trkpt lat="47.51686" lon="6.77783">
        <ele>385</ele>
        <time>2016-03-13T11:34:56.000Z</time>
      </trkpt>
      <trkpt lat="47.51687" lon="6.7778">
        <ele>385</ele>
        <time>2016-03-13T11:34:57.000Z</time>
      </trkpt>
      <trkpt lat="47.51689" lon="6.77777">
        <ele>385</ele>
        <time>2016-03-13T11:34:58.000Z</time>
      </trkpt>
      <trkpt lat="47.5169" lon="6.77774">
        <ele>385</ele>
        <time>2016-03-13T11:34:59.000Z</time>
      </trkpt>
      <trkpt lat="47.51692" lon="6.77768">
        <ele>385</ele>
        <time>2016-03-13T11:35:01.000Z</time>
      </trkpt>
      <trkpt lat="47.51693" lon="6.77765">
        <ele>385</ele>
        <time>2016-03-13T11:35:02.000Z</time>
      </trkpt>
      <trkpt lat="47.51694" lon="6.77763">
        <ele>385</ele>
        <time>2016-03-13T11:35:03.000Z</time>
      </trkpt>
      <trkpt lat="47.51695" lon="6.7776">
        <ele>385</ele>
        <time>2016-03-13T11:35:04.000Z</time>
      </trkpt>
      <trkpt lat="47.51698" lon="6.77755">
        <ele>385</ele>
        <time>2016-03-13T11:35:06.000Z</time>
      </trkpt>
      <trkpt lat="47.51699" lon="6.77753">
        <ele>386</ele>
        <time>2016-03-13T11:35:07.000Z</time>
      </trkpt>
      <trkpt lat="47.517" lon="6.7775">
        <ele>386</ele>
        <time>2016-03-13T11:35:09.000Z</time>
      </trkpt>
      <trkpt lat="47.51701" lon="6.77748">
        <ele>387</ele>
        <time>2016-03-13T11:35:10.000Z</time>
      </trkpt>
      <trkpt lat="47.51703" lon="6.77745">
        <ele>387</ele>
        <time>2016-03-13T11:35:11.000Z</time>
      </trkpt>
      <trkpt lat="47.51704" lon="6.77742">
        <ele>387</ele>
        <time>2016-03-13T11:35:12.000Z</time>
      </trkpt>
      <trkpt lat="47.51705" lon="6.77738">
        <ele>387</ele>
        <time>2016-03-13T11:35:13.000Z</time>
      </trkpt>
      <trkpt lat="47.51705" lon="6.77735">
        <ele>387</ele>
        <time>2016-03-13T11:35:14.000Z</time>
      </trkpt>
      <trkpt lat="47.51704" lon="6.77731">
        <ele>387</ele>
        <time>2016-03-13T11:35:15.000Z</time>
      </trkpt>
      <trkpt lat="47.51703" lon="6.77728">
        <ele>387</ele>
        <time>2016-03-13T11:35:16.000Z</time>
      </trkpt>
      <trkpt lat="47.51701" lon="6.77722">
        <ele>387</ele>
        <time>2016-03-13T11:35:18.000Z</time>
      </trkpt>
      <trkpt lat="47.51701" lon="6.77719">
        <ele>387</ele>
        <time>2016-03-13T11:35:19.000Z</time>
      </trkpt>
      <trkpt lat="47.51703" lon="6.77714">
        <ele>387</ele>
        <time>2016-03-13T11:35:21.000Z</time>
      </trkpt>
      <trkpt lat="47.51705" lon="6.77711">
        <ele>387</ele>
        <time>2016-03-13T11:35:22.000Z</time>
      </trkpt>
      <trkpt lat="47.51708" lon="6.77707">
        <ele>388</ele>
        <time>2016-03-13T11:35:24.000Z</time>
      </trkpt>
      <trkpt lat="47.51709" lon="6.77705">
        <ele>388</ele>
        <time>2016-03-13T11:35:25.000Z</time>
      </trkpt>
      <trkpt lat="47.5171" lon="6.777">
        <ele>388</ele>
        <time>2016-03-13T11:35:27.000Z</time>
      </trkpt>
      <trkpt lat="47.5171" lon="6.77697">
        <ele>388</ele>
        <time>2016-03-13T11:35:28.000Z</time>
      </trkpt>
      <trkpt lat="47.51709" lon="6.77694">
        <ele>388</ele>
        <time>2016-03-13T11:35:29.000Z</time>
      </trkpt>
      <trkpt lat="47.51709" lon="6.77691">
        <ele>388</ele>
        <time>2016-03-13T11:35:30.000Z</time>
      </trkpt>
      <trkpt lat="47.51709" lon="6.77687">
        <ele>388</ele>
        <time>2016-03-13T11:35:31.000Z</time>
      </trkpt>
      <trkpt lat="47.5171" lon="6.77683">
        <ele>388</ele>
        <time>2016-03-13T11:35:32.000Z</time>
      </trkpt>
      <trkpt lat="47.5171" lon="6.77679">
        <ele>388</ele>
        <time>2016-03-13T11:35:33.000Z</time>
      </trkpt>
      <trkpt lat="47.51711" lon="6.77675">
        <ele>388</ele>
        <time>2016-03-13T11:35:34.000Z</time>
      </trkpt>
      <trkpt lat="47.51711" lon="6.77671">
        <ele>388</ele>
        <time>2016-03-13T11:35:35.000Z</time>
      </trkpt>
      <trkpt lat="47.51711" lon="6.77667">
        <ele>388</ele>
        <time>2016-03-13T11:35:36.000Z</time>
      </trkpt>
      <trkpt lat="47.51712" lon="6.77664">
        <ele>390</ele>
        <time>2016-03-13T11:35:37.000Z</time>
      </trkpt>
      <trkpt lat="47.51712" lon="6.7766">
        <ele>390</ele>
        <time>2016-03-13T11:35:38.000Z</time>
      </trkpt>
      <trkpt lat="47.51711" lon="6.77656">
        <ele>390</ele>
        <time>2016-03-13T11:35:39.000Z</time>
      </trkpt>
      <trkpt lat="47.51711" lon="6.77652">
        <ele>390</ele>
        <time>2016-03-13T11:35:40.000Z</time>
      </trkpt>
      <trkpt lat="47.51711" lon="6.77649">
        <ele>390</ele>
        <time>2016-03-13T11:35:41.000Z</time>
      </trkpt>
      <trkpt lat="47.5171" lon="6.77645">
        <ele>390</ele>
        <time>2016-03-13T11:35:42.000Z</time>
      </trkpt>
      <trkpt lat="47.5171" lon="6.77641">
        <ele>390</ele>
        <time>2016-03-13T11:35:43.000Z</time>
      </trkpt>
      <trkpt lat="47.51711" lon="6.77637">
        <ele>390</ele>
        <time>2016-03-13T11:35:44.000Z</time>
      </trkpt>
      <trkpt lat="47.51711" lon="6.77633">
        <ele>390</ele>
        <time>2016-03-13T11:35:45.000Z</time>
      </trkpt>
      <trkpt lat="47.51711" lon="6.77628">
        <ele>390</ele>
        <time>2016-03-13T11:35:46.000Z</time>
      </trkpt>
      <trkpt lat="47.51711" lon="6.77624">
        <ele>390</ele>
        <time>2016-03-13T11:35:47.000Z</time>
      </trkpt>
      <trkpt lat="47.51711" lon="6.77621">
        <ele>390</ele>
        <time>2016-03-13T11:35:48.000Z</time>
      </trkpt>
      <trkpt lat="47.51711" lon="6.77617">
        <ele>390</ele>
        <time>2016-03-13T11:35:49.000Z</time>
      </trkpt>
      <trkpt lat="47.51711" lon="6.77613">
        <ele>390</ele>
        <time>2016-03-13T11:35:50.000Z</time>
      </trkpt>
      <trkpt lat="47.51711" lon="6.7761">
        <ele>390</ele>
        <time>2016-03-13T11:35:51.000Z</time>
      </trkpt>
      <trkpt lat="47.51711" lon="6.77606">
        <ele>390</ele>
        <time>2016-03-13T11:35:52.000Z</time>
      </trkpt>
      <trkpt lat="47.51712" lon="6.77603">
        <ele>390</ele>
        <time>2016-03-13T11:35:53.000Z</time>
      </trkpt>
      <trkpt lat="47.51712" lon="6.77599">
        <ele>390</ele>
        <time>2016-03-13T11:35:54.000Z</time>
      </trkpt>
      <trkpt lat="47.51714" lon="6.77594">
        <ele>390</ele>
        <time>2016-03-13T11:35:56.000Z</time>
      </trkpt>
      <trkpt lat="47.51715" lon="6.77592">
        <ele>390</ele>
        <time>2016-03-13T11:35:57.000Z</time>
      </trkpt>
      <trkpt lat="47.51717" lon="6.77591">
        <ele>390</ele>
        <time>2016-03-13T11:35:58.000Z</time>
      </trkpt>
      <trkpt lat="47.51719" lon="6.7759">
        <ele>390</ele>
        <time>2016-03-13T11:35:59.000Z</time>
      </trkpt>
      <trkpt lat="47.51722" lon="6.77588">
        <ele>390</ele>
        <time>2016-03-13T11:36:00.000Z</time>
      </trkpt>
      <trkpt lat="47.51723" lon="6.77585">
        <ele>390</ele>
        <time>2016-03-13T11:36:01.000Z</time>
      </trkpt>
      <trkpt lat="47.51724" lon="6.77581">
        <ele>391</ele>
        <time>2016-03-13T11:36:02.000Z</time>
      </trkpt>
      <trkpt lat="47.51723" lon="6.77577">
        <ele>391</ele>
        <time>2016-03-13T11:36:03.000Z</time>
      </trkpt>
      <trkpt lat="47.51721" lon="6.77571">
        <ele>390</ele>
        <time>2016-03-13T11:36:04.000Z</time>
      </trkpt>
      <trkpt lat="47.51719" lon="6.77565">
        <ele>390</ele>
        <time>2016-03-13T11:36:05.000Z</time>
      </trkpt>
      <trkpt lat="47.51719" lon="6.77559">
        <ele>390</ele>
        <time>2016-03-13T11:36:06.000Z</time>
      </trkpt>
      <trkpt lat="47.51719" lon="6.77552">
        <ele>390</ele>
        <time>2016-03-13T11:36:07.000Z</time>
      </trkpt>
      <trkpt lat="47.5172" lon="6.77546">
        <ele>390</ele>
        <time>2016-03-13T11:36:08.000Z</time>
      </trkpt>
      <trkpt lat="47.51721" lon="6.77539">
        <ele>390</ele>
        <time>2016-03-13T11:36:09.000Z</time>
      </trkpt>
      <trkpt lat="47.51722" lon="6.77533">
        <ele>390</ele>
        <time>2016-03-13T11:36:10.000Z</time>
      </trkpt>
      <trkpt lat="47.51723" lon="6.77526">
        <ele>390</ele>
        <time>2016-03-13T11:36:11.000Z</time>
      </trkpt>
      <trkpt lat="47.51725" lon="6.77519">
        <ele>390</ele>
        <time>2016-03-13T11:36:12.000Z</time>
      </trkpt>
      <trkpt lat="47.51726" lon="6.77513">
        <ele>390</ele>
        <time>2016-03-13T11:36:13.000Z</time>
      </trkpt>
      <trkpt lat="47.5173" lon="6.77504">
        <ele>390</ele>
        <time>2016-03-13T11:36:14.000Z</time>
      </trkpt>
      <trkpt lat="47.51732" lon="6.77497">
        <ele>389</ele>
        <time>2016-03-13T11:36:15.000Z</time>
      </trkpt>
      <trkpt lat="47.51732" lon="6.77491">
        <ele>389</ele>
        <time>2016-03-13T11:36:16.000Z</time>
      </trkpt>
      <trkpt lat="47.51733" lon="6.77485">
        <ele>389</ele>
        <time>2016-03-13T11:36:17.000Z</time>
      </trkpt>
      <trkpt lat="47.51738" lon="6.77485">
        <ele>389</ele>
        <time>2016-03-13T11:36:18.000Z</time>
      </trkpt>
      <trkpt lat="47.51742" lon="6.77485">
        <ele>389</ele>
        <time>2016-03-13T11:36:19.000Z</time>
      </trkpt>
      <trkpt lat="47.51746" lon="6.77485">
        <ele>389</ele>
        <time>2016-03-13T11:36:20.000Z</time>
      </trkpt>
      <trkpt lat="47.5175" lon="6.77485">
        <ele>389</ele>
        <time>2016-03-13T11:36:21.000Z</time>
      </trkpt>
      <trkpt lat="47.51754" lon="6.77485">
        <ele>389</ele>
        <time>2016-03-13T11:36:22.000Z</time>
      </trkpt>
      <trkpt lat="47.51758" lon="6.77486">
        <ele>389</ele>
        <time>2016-03-13T11:36:23.000Z</time>
      </trkpt>
      <trkpt lat="47.51761" lon="6.77487">
        <ele>389</ele>
        <time>2016-03-13T11:36:24.000Z</time>
      </trkpt>
      <trkpt lat="47.51765" lon="6.77488">
        <ele>389</ele>
        <time>2016-03-13T11:36:25.000Z</time>
      </trkpt>
      <trkpt lat="47.51769" lon="6.77488">
        <ele>389</ele>
        <time>2016-03-13T11:36:26.000Z</time>
      </trkpt>
      <trkpt lat="47.51773" lon="6.77489">
        <ele>389</ele>
        <time>2016-03-13T11:36:27.000Z</time>
      </trkpt>
      <trkpt lat="47.51777" lon="6.7749">
        <ele>388</ele>
        <time>2016-03-13T11:36:28.000Z</time>
      </trkpt>
      <trkpt lat="47.51781" lon="6.7749">
        <ele>388</ele>
        <time>2016-03-13T11:36:29.000Z</time>
      </trkpt>
      <trkpt lat="47.51785" lon="6.77492">
        <ele>388</ele>
        <time>2016-03-13T11:36:30.000Z</time>
      </trkpt>
      <trkpt lat="47.51789" lon="6.77493">
        <ele>388</ele>
        <time>2016-03-13T11:36:31.000Z</time>
      </trkpt>
      <trkpt lat="47.51793" lon="6.77495">
        <ele>388</ele>
        <time>2016-03-13T11:36:32.000Z</time>
      </trkpt>
      <trkpt lat="47.51797" lon="6.77497">
        <ele>388</ele>
        <time>2016-03-13T11:36:33.000Z</time>
      </trkpt>
      <trkpt lat="47.518" lon="6.77498">
        <ele>388</ele>
        <time>2016-03-13T11:36:34.000Z</time>
      </trkpt>
      <trkpt lat="47.51803" lon="6.77503">
        <ele>389</ele>
        <time>2016-03-13T11:36:38.000Z</time>
      </trkpt>
      <trkpt lat="47.51805" lon="6.77503">
        <ele>389</ele>
        <time>2016-03-13T11:36:39.000Z</time>
      </trkpt>
      <trkpt lat="47.51807" lon="6.77501">
        <ele>389</ele>
        <time>2016-03-13T11:36:40.000Z</time>
      </trkpt>
      <trkpt lat="47.51808" lon="6.77484">
        <ele>388</ele>
        <time>2016-03-13T11:36:41.000Z</time>
      </trkpt>
      <trkpt lat="47.51809" lon="6.77477">
        <ele>388</ele>
        <time>2016-03-13T11:36:42.000Z</time>
      </trkpt>
      <trkpt lat="47.51809" lon="6.77471">
        <ele>388</ele>
        <time>2016-03-13T11:36:43.000Z</time>
      </trkpt>
      <trkpt lat="47.51808" lon="6.77465">
        <ele>388</ele>
        <time>2016-03-13T11:36:44.000Z</time>
      </trkpt>
      <trkpt lat="47.51807" lon="6.7746">
        <ele>388</ele>
        <time>2016-03-13T11:36:46.000Z</time>
      </trkpt>
      <trkpt lat="47.51808" lon="6.77458">
        <ele>388</ele>
        <time>2016-03-13T11:36:47.000Z</time>
      </trkpt>
      <trkpt lat="47.51805" lon="6.77459">
        <ele>388</ele>
        <time>2016-03-13T11:36:49.000Z</time>
      </trkpt>
      <trkpt lat="47.51803" lon="6.77459">
        <ele>388</ele>
        <time>2016-03-13T11:36:50.000Z</time>
      </trkpt>
      <trkpt lat="47.51798" lon="6.77461">
        <ele>388</ele>
        <time>2016-03-13T11:37:05.000Z</time>
      </trkpt>
      <trkpt lat="47.51798" lon="6.77462">
        <ele>388</ele>
        <time>2016-03-13T11:37:06.000Z</time>
      </trkpt>
      <trkpt lat="47.51797" lon="6.77467">
        <ele>388</ele>
        <time>2016-03-13T11:37:10.000Z</time>
      </trkpt>
      <trkpt lat="47.51798" lon="6.77469">
        <ele>388</ele>
        <time>2016-03-13T11:37:11.000Z</time>
      </trkpt>
      <trkpt lat="47.51799" lon="6.77474">
        <ele>388</ele>
        <time>2016-03-13T11:37:14.000Z</time>
      </trkpt>
      <trkpt lat="47.518" lon="6.77475">
        <ele>388</ele>
        <time>2016-03-13T11:37:15.000Z</time>
      </trkpt>
      <trkpt lat="47.51804" lon="6.77475">
        <ele>388</ele>
        <time>2016-03-13T11:37:19.000Z</time>
      </trkpt>
      <trkpt lat="47.51804" lon="6.77475">
        <ele>388</ele>
        <time>2016-03-13T11:37:20.000Z</time>
      </trkpt>
      <trkpt lat="47.51804" lon="6.77475">
        <ele>388</ele>
        <time>2016-03-13T11:38:56.000Z</time>
      </trkpt>
    </trkseg>
  </trk>
</gpx>